﻿<?xml version="1.0" encoding="UTF-8" standalone="no" ?>
<gpx xmlns="http://www.topografix.com/GPX/1/1" creator="CompeGPS" version="1.1" xmlns:xsi="http://www.w3.org/2001/XMLSchema-instance" xsi:schemaLocation="http://www.topografix.com/GPX/1/1 http://www.topografix.com/GPX/1/1/gpx.xsd">
  <metadata>
    <link href="http://www.compegps.com">
      <text>CompeGPS TEAM, SL</text>
    </link>
    <time>2017-05-16T22:16:57Z</time>
    <bounds maxlat="38.385849" maxlon="-1.087302" minlat="38.009197" minlon="-2.310499"/>
  </metadata>
  <trk>
    <name>GR7_E4_Murcia_track</name>
    <trkseg>
      <trkpt lat="38.385849" lon="-1.087302">
        <ele>639.4</ele>
        <time>2017-02-04T08:28:35Z</time>
      </trkpt>
      <trkpt lat="38.385794" lon="-1.087379">
        <ele>640.4</ele>
        <time>2017-02-04T08:34:10Z</time>
      </trkpt>
      <trkpt lat="38.385651" lon="-1.087612">
        <ele>640.9</ele>
        <time>2017-02-04T08:34:29Z</time>
      </trkpt>
      <trkpt lat="38.385653" lon="-1.087614">
        <ele>640.9</ele>
        <time>2017-02-04T08:34:55Z</time>
      </trkpt>
      <trkpt lat="38.385511" lon="-1.087825">
        <ele>640.9</ele>
        <time>2017-02-04T08:35:13Z</time>
      </trkpt>
      <trkpt lat="38.385361" lon="-1.088065">
        <ele>640.9</ele>
        <time>2017-02-04T08:35:32Z</time>
      </trkpt>
      <trkpt lat="38.385178" lon="-1.088372">
        <ele>640.9</ele>
        <time>2017-02-04T08:35:54Z</time>
      </trkpt>
      <trkpt lat="38.385055" lon="-1.088695">
        <ele>640.9</ele>
        <time>2017-02-04T08:36:14Z</time>
      </trkpt>
      <trkpt lat="38.384996" lon="-1.088905">
        <ele>644.2</ele>
        <time>2017-02-04T08:36:26Z</time>
      </trkpt>
      <trkpt lat="38.384943" lon="-1.089183">
        <ele>642.8</ele>
        <time>2017-02-04T08:36:42Z</time>
      </trkpt>
      <trkpt lat="38.384940" lon="-1.089203">
        <ele>638.9</ele>
        <time>2017-02-04T08:36:43Z</time>
      </trkpt>
      <trkpt lat="38.384938" lon="-1.089222">
        <ele>642.8</ele>
        <time>2017-02-04T08:36:44Z</time>
      </trkpt>
      <trkpt lat="38.384905" lon="-1.089451">
        <ele>643.3</ele>
        <time>2017-02-04T08:36:56Z</time>
      </trkpt>
      <trkpt lat="38.384873" lon="-1.089680">
        <ele>639.9</ele>
        <time>2017-02-04T08:37:09Z</time>
      </trkpt>
      <trkpt lat="38.384869" lon="-1.089697">
        <ele>644.7</ele>
        <time>2017-02-04T08:37:10Z</time>
      </trkpt>
      <trkpt lat="38.384866" lon="-1.089715">
        <ele>640.4</ele>
        <time>2017-02-04T08:37:11Z</time>
      </trkpt>
      <trkpt lat="38.384863" lon="-1.089733">
        <ele>643.3</ele>
        <time>2017-02-04T08:37:12Z</time>
      </trkpt>
      <trkpt lat="38.384801" lon="-1.090031">
        <ele>641.3</ele>
        <time>2017-02-04T08:37:29Z</time>
      </trkpt>
      <trkpt lat="38.384795" lon="-1.090047">
        <ele>645.2</ele>
        <time>2017-02-04T08:37:30Z</time>
      </trkpt>
      <trkpt lat="38.384790" lon="-1.090064">
        <ele>643.7</ele>
        <time>2017-02-04T08:37:31Z</time>
      </trkpt>
      <trkpt lat="38.384588" lon="-1.090424">
        <ele>643.7</ele>
        <time>2017-02-04T08:37:54Z</time>
      </trkpt>
      <trkpt lat="38.384419" lon="-1.090656">
        <ele>643.3</ele>
        <time>2017-02-04T08:38:12Z</time>
      </trkpt>
      <trkpt lat="38.384240" lon="-1.090852">
        <ele>643.3</ele>
        <time>2017-02-04T08:38:29Z</time>
      </trkpt>
      <trkpt lat="38.383984" lon="-1.091087">
        <ele>643.3</ele>
        <time>2017-02-04T08:38:50Z</time>
      </trkpt>
      <trkpt lat="38.383767" lon="-1.091347">
        <ele>643.7</ele>
        <time>2017-02-04T08:39:11Z</time>
      </trkpt>
      <trkpt lat="38.383560" lon="-1.091581">
        <ele>643.3</ele>
        <time>2017-02-04T08:39:32Z</time>
      </trkpt>
      <trkpt lat="38.383489" lon="-1.091642">
        <ele>643.7</ele>
        <time>2017-02-04T08:39:38Z</time>
      </trkpt>
      <trkpt lat="38.383319" lon="-1.091808">
        <ele>642.3</ele>
        <time>2017-02-04T08:39:56Z</time>
      </trkpt>
      <trkpt lat="38.383154" lon="-1.091927">
        <ele>643.3</ele>
        <time>2017-02-04T08:40:11Z</time>
      </trkpt>
      <trkpt lat="38.382918" lon="-1.092101">
        <ele>642.8</ele>
        <time>2017-02-04T08:40:32Z</time>
      </trkpt>
      <trkpt lat="38.382778" lon="-1.092212">
        <ele>642.8</ele>
        <time>2017-02-04T08:40:48Z</time>
      </trkpt>
      <trkpt lat="38.382730" lon="-1.092270">
        <ele>642.8</ele>
        <time>2017-02-04T08:40:59Z</time>
      </trkpt>
      <trkpt lat="38.382706" lon="-1.092304">
        <ele>642.8</ele>
        <time>2017-02-04T08:41:07Z</time>
      </trkpt>
      <trkpt lat="38.382677" lon="-1.092341">
        <ele>642.8</ele>
        <time>2017-02-04T08:41:11Z</time>
      </trkpt>
      <trkpt lat="38.382639" lon="-1.092394">
        <ele>641.8</ele>
        <time>2017-02-04T08:41:15Z</time>
      </trkpt>
      <trkpt lat="38.382598" lon="-1.092430">
        <ele>642.3</ele>
        <time>2017-02-04T08:41:19Z</time>
      </trkpt>
      <trkpt lat="38.382412" lon="-1.092643">
        <ele>642.8</ele>
        <time>2017-02-04T08:41:39Z</time>
      </trkpt>
      <trkpt lat="38.382255" lon="-1.092807">
        <ele>643.3</ele>
        <time>2017-02-04T08:41:54Z</time>
      </trkpt>
      <trkpt lat="38.382116" lon="-1.092950">
        <ele>643.3</ele>
        <time>2017-02-04T08:42:10Z</time>
      </trkpt>
      <trkpt lat="38.382120" lon="-1.092944">
        <ele>643.3</ele>
        <time>2017-02-04T08:42:17Z</time>
      </trkpt>
      <trkpt lat="38.382091" lon="-1.092977">
        <ele>643.7</ele>
        <time>2017-02-04T08:42:29Z</time>
      </trkpt>
      <trkpt lat="38.382090" lon="-1.092998">
        <ele>642.8</ele>
        <time>2017-02-04T08:42:46Z</time>
      </trkpt>
      <trkpt lat="38.382083" lon="-1.093013">
        <ele>641.8</ele>
        <time>2017-02-04T08:42:50Z</time>
      </trkpt>
      <trkpt lat="38.381944" lon="-1.093130">
        <ele>639.9</ele>
        <time>2017-02-04T08:43:03Z</time>
      </trkpt>
      <trkpt lat="38.381911" lon="-1.093167">
        <ele>644.7</ele>
        <time>2017-02-04T08:43:06Z</time>
      </trkpt>
      <trkpt lat="38.381782" lon="-1.093307">
        <ele>641.3</ele>
        <time>2017-02-04T08:43:20Z</time>
      </trkpt>
      <trkpt lat="38.381763" lon="-1.093320">
        <ele>642.3</ele>
        <time>2017-02-04T08:43:22Z</time>
      </trkpt>
      <trkpt lat="38.381690" lon="-1.093358">
        <ele>642.8</ele>
        <time>2017-02-04T08:43:37Z</time>
      </trkpt>
      <trkpt lat="38.381560" lon="-1.093469">
        <ele>642.3</ele>
        <time>2017-02-04T08:43:52Z</time>
      </trkpt>
      <trkpt lat="38.381323" lon="-1.093676">
        <ele>642.3</ele>
        <time>2017-02-04T08:44:11Z</time>
      </trkpt>
      <trkpt lat="38.381110" lon="-1.093862">
        <ele>642.8</ele>
        <time>2017-02-04T08:44:29Z</time>
      </trkpt>
      <trkpt lat="38.380897" lon="-1.094068">
        <ele>642.3</ele>
        <time>2017-02-04T08:44:48Z</time>
      </trkpt>
      <trkpt lat="38.380670" lon="-1.094285">
        <ele>643.3</ele>
        <time>2017-02-04T08:45:08Z</time>
      </trkpt>
      <trkpt lat="38.380458" lon="-1.094519">
        <ele>644.2</ele>
        <time>2017-02-04T08:45:28Z</time>
      </trkpt>
      <trkpt lat="38.380283" lon="-1.094717">
        <ele>645.7</ele>
        <time>2017-02-04T08:45:45Z</time>
      </trkpt>
      <trkpt lat="38.380130" lon="-1.094908">
        <ele>646.1</ele>
        <time>2017-02-04T08:46:01Z</time>
      </trkpt>
      <trkpt lat="38.379918" lon="-1.095164">
        <ele>647.6</ele>
        <time>2017-02-04T08:46:22Z</time>
      </trkpt>
      <trkpt lat="38.379734" lon="-1.095363">
        <ele>648.5</ele>
        <time>2017-02-04T08:46:40Z</time>
      </trkpt>
      <trkpt lat="38.379490" lon="-1.095545">
        <ele>649.0</ele>
        <time>2017-02-04T08:47:01Z</time>
      </trkpt>
      <trkpt lat="38.379258" lon="-1.095696">
        <ele>648.5</ele>
        <time>2017-02-04T08:47:20Z</time>
      </trkpt>
      <trkpt lat="38.379016" lon="-1.095830">
        <ele>648.1</ele>
        <time>2017-02-04T08:47:41Z</time>
      </trkpt>
      <trkpt lat="38.378926" lon="-1.095873">
        <ele>648.1</ele>
        <time>2017-02-04T08:47:55Z</time>
      </trkpt>
      <trkpt lat="38.378923" lon="-1.095876">
        <ele>648.5</ele>
        <time>2017-02-04T08:47:57Z</time>
      </trkpt>
      <trkpt lat="38.378717" lon="-1.095923">
        <ele>649.5</ele>
        <time>2017-02-04T08:48:13Z</time>
      </trkpt>
      <trkpt lat="38.378661" lon="-1.095960">
        <ele>649.5</ele>
        <time>2017-02-04T08:48:25Z</time>
      </trkpt>
      <trkpt lat="38.378626" lon="-1.095979">
        <ele>650.0</ele>
        <time>2017-02-04T08:48:31Z</time>
      </trkpt>
      <trkpt lat="38.378498" lon="-1.096089">
        <ele>651.4</ele>
        <time>2017-02-04T08:50:22Z</time>
      </trkpt>
      <trkpt lat="38.378324" lon="-1.096173">
        <ele>650.5</ele>
        <time>2017-02-04T08:50:39Z</time>
      </trkpt>
      <trkpt lat="38.378262" lon="-1.096250">
        <ele>649.5</ele>
        <time>2017-02-04T08:50:52Z</time>
      </trkpt>
      <trkpt lat="38.378240" lon="-1.096283">
        <ele>649.0</ele>
        <time>2017-02-04T08:51:05Z</time>
      </trkpt>
      <trkpt lat="38.378229" lon="-1.096299">
        <ele>649.5</ele>
        <time>2017-02-04T08:51:21Z</time>
      </trkpt>
      <trkpt lat="38.378219" lon="-1.096315">
        <ele>647.6</ele>
        <time>2017-02-04T08:51:24Z</time>
      </trkpt>
      <trkpt lat="38.378099" lon="-1.096448">
        <ele>648.1</ele>
        <time>2017-02-04T08:51:42Z</time>
      </trkpt>
      <trkpt lat="38.378009" lon="-1.096531">
        <ele>646.1</ele>
        <time>2017-02-04T08:51:56Z</time>
      </trkpt>
      <trkpt lat="38.378003" lon="-1.096537">
        <ele>646.1</ele>
        <time>2017-02-04T08:52:00Z</time>
      </trkpt>
      <trkpt lat="38.377959" lon="-1.096557">
        <ele>645.7</ele>
        <time>2017-02-04T08:52:04Z</time>
      </trkpt>
      <trkpt lat="38.377843" lon="-1.096598">
        <ele>645.2</ele>
        <time>2017-02-04T08:52:17Z</time>
      </trkpt>
      <trkpt lat="38.377635" lon="-1.096601">
        <ele>641.3</ele>
        <time>2017-02-04T08:52:30Z</time>
      </trkpt>
      <trkpt lat="38.377336" lon="-1.096611">
        <ele>637.5</ele>
        <time>2017-02-04T08:52:52Z</time>
      </trkpt>
      <trkpt lat="38.377048" lon="-1.096618">
        <ele>635.6</ele>
        <time>2017-02-04T08:53:11Z</time>
      </trkpt>
      <trkpt lat="38.376748" lon="-1.096644">
        <ele>633.7</ele>
        <time>2017-02-04T08:53:32Z</time>
      </trkpt>
      <trkpt lat="38.376625" lon="-1.096629">
        <ele>628.8</ele>
        <time>2017-02-04T08:53:42Z</time>
      </trkpt>
      <trkpt lat="38.376611" lon="-1.096625">
        <ele>630.3</ele>
        <time>2017-02-04T08:53:43Z</time>
      </trkpt>
      <trkpt lat="38.376596" lon="-1.096623">
        <ele>633.7</ele>
        <time>2017-02-04T08:53:44Z</time>
      </trkpt>
      <trkpt lat="38.376581" lon="-1.096625">
        <ele>631.7</ele>
        <time>2017-02-04T08:53:45Z</time>
      </trkpt>
      <trkpt lat="38.376552" lon="-1.096629">
        <ele>630.8</ele>
        <time>2017-02-04T08:53:47Z</time>
      </trkpt>
      <trkpt lat="38.376353" lon="-1.096637">
        <ele>629.8</ele>
        <time>2017-02-04T08:54:03Z</time>
      </trkpt>
      <trkpt lat="38.376065" lon="-1.096547">
        <ele>627.9</ele>
        <time>2017-02-04T08:54:22Z</time>
      </trkpt>
      <trkpt lat="38.375765" lon="-1.096449">
        <ele>625.5</ele>
        <time>2017-02-04T08:54:42Z</time>
      </trkpt>
      <trkpt lat="38.375606" lon="-1.096622">
        <ele>622.6</ele>
        <time>2017-02-04T08:54:56Z</time>
      </trkpt>
      <trkpt lat="38.375731" lon="-1.096898">
        <ele>620.7</ele>
        <time>2017-02-04T08:55:12Z</time>
      </trkpt>
      <trkpt lat="38.375963" lon="-1.097139">
        <ele>618.8</ele>
        <time>2017-02-04T08:55:32Z</time>
      </trkpt>
      <trkpt lat="38.376099" lon="-1.097425">
        <ele>616.8</ele>
        <time>2017-02-04T08:55:49Z</time>
      </trkpt>
      <trkpt lat="38.376089" lon="-1.097493">
        <ele>617.3</ele>
        <time>2017-02-04T08:55:57Z</time>
      </trkpt>
      <trkpt lat="38.376056" lon="-1.097546">
        <ele>615.9</ele>
        <time>2017-02-04T08:56:08Z</time>
      </trkpt>
      <trkpt lat="38.375958" lon="-1.097766">
        <ele>614.4</ele>
        <time>2017-02-04T08:56:26Z</time>
      </trkpt>
      <trkpt lat="38.375936" lon="-1.097813">
        <ele>613.5</ele>
        <time>2017-02-04T08:56:30Z</time>
      </trkpt>
      <trkpt lat="38.375775" lon="-1.098099">
        <ele>612.0</ele>
        <time>2017-02-04T08:56:48Z</time>
      </trkpt>
      <trkpt lat="38.375601" lon="-1.098441">
        <ele>610.6</ele>
        <time>2017-02-04T08:57:11Z</time>
      </trkpt>
      <trkpt lat="38.375435" lon="-1.098790">
        <ele>609.6</ele>
        <time>2017-02-04T08:57:32Z</time>
      </trkpt>
      <trkpt lat="38.375236" lon="-1.099136">
        <ele>607.2</ele>
        <time>2017-02-04T08:57:55Z</time>
      </trkpt>
      <trkpt lat="38.375087" lon="-1.099383">
        <ele>607.7</ele>
        <time>2017-02-04T08:58:12Z</time>
      </trkpt>
      <trkpt lat="38.375001" lon="-1.099488">
        <ele>607.2</ele>
        <time>2017-02-04T08:58:20Z</time>
      </trkpt>
      <trkpt lat="38.374845" lon="-1.099714">
        <ele>606.2</ele>
        <time>2017-02-04T08:58:37Z</time>
      </trkpt>
      <trkpt lat="38.374836" lon="-1.099719">
        <ele>606.7</ele>
        <time>2017-02-04T08:58:38Z</time>
      </trkpt>
      <trkpt lat="38.374790" lon="-1.099757">
        <ele>606.2</ele>
        <time>2017-02-04T08:58:42Z</time>
      </trkpt>
      <trkpt lat="38.374600" lon="-1.099947">
        <ele>605.3</ele>
        <time>2017-02-04T08:58:58Z</time>
      </trkpt>
      <trkpt lat="38.374464" lon="-1.100061">
        <ele>604.8</ele>
        <time>2017-02-04T08:59:08Z</time>
      </trkpt>
      <trkpt lat="38.374378" lon="-1.100101">
        <ele>604.3</ele>
        <time>2017-02-04T08:59:23Z</time>
      </trkpt>
      <trkpt lat="38.374187" lon="-1.100232">
        <ele>603.8</ele>
        <time>2017-02-04T08:59:38Z</time>
      </trkpt>
      <trkpt lat="38.374017" lon="-1.100395">
        <ele>602.4</ele>
        <time>2017-02-04T08:59:53Z</time>
      </trkpt>
      <trkpt lat="38.373813" lon="-1.100566">
        <ele>602.4</ele>
        <time>2017-02-04T09:00:10Z</time>
      </trkpt>
      <trkpt lat="38.373619" lon="-1.100717">
        <ele>600.5</ele>
        <time>2017-02-04T09:00:26Z</time>
      </trkpt>
      <trkpt lat="38.373406" lon="-1.100901">
        <ele>599.5</ele>
        <time>2017-02-04T09:00:44Z</time>
      </trkpt>
      <trkpt lat="38.373393" lon="-1.100907">
        <ele>600.5</ele>
        <time>2017-02-04T09:00:45Z</time>
      </trkpt>
      <trkpt lat="38.373374" lon="-1.100933">
        <ele>601.0</ele>
        <time>2017-02-04T09:00:47Z</time>
      </trkpt>
      <trkpt lat="38.373355" lon="-1.100971">
        <ele>600.5</ele>
        <time>2017-02-04T09:00:49Z</time>
      </trkpt>
      <trkpt lat="38.373344" lon="-1.100984">
        <ele>600.0</ele>
        <time>2017-02-04T09:00:50Z</time>
      </trkpt>
      <trkpt lat="38.373331" lon="-1.100996">
        <ele>600.0</ele>
        <time>2017-02-04T09:00:51Z</time>
      </trkpt>
      <trkpt lat="38.373319" lon="-1.101005">
        <ele>600.0</ele>
        <time>2017-02-04T09:00:52Z</time>
      </trkpt>
      <trkpt lat="38.373305" lon="-1.101017">
        <ele>600.0</ele>
        <time>2017-02-04T09:00:53Z</time>
      </trkpt>
      <trkpt lat="38.373120" lon="-1.101204">
        <ele>600.5</ele>
        <time>2017-02-04T09:01:10Z</time>
      </trkpt>
      <trkpt lat="38.372899" lon="-1.101380">
        <ele>599.5</ele>
        <time>2017-02-04T09:01:27Z</time>
      </trkpt>
      <trkpt lat="38.372699" lon="-1.101583">
        <ele>599.0</ele>
        <time>2017-02-04T09:01:45Z</time>
      </trkpt>
      <trkpt lat="38.372483" lon="-1.101801">
        <ele>598.1</ele>
        <time>2017-02-04T09:02:04Z</time>
      </trkpt>
      <trkpt lat="38.372278" lon="-1.102011">
        <ele>598.1</ele>
        <time>2017-02-04T09:02:22Z</time>
      </trkpt>
      <trkpt lat="38.372050" lon="-1.102231">
        <ele>598.1</ele>
        <time>2017-02-04T09:02:42Z</time>
      </trkpt>
      <trkpt lat="38.371918" lon="-1.102362">
        <ele>597.6</ele>
        <time>2017-02-04T09:02:54Z</time>
      </trkpt>
      <trkpt lat="38.371906" lon="-1.102368">
        <ele>597.6</ele>
        <time>2017-02-04T09:02:55Z</time>
      </trkpt>
      <trkpt lat="38.371895" lon="-1.102378">
        <ele>598.1</ele>
        <time>2017-02-04T09:02:56Z</time>
      </trkpt>
      <trkpt lat="38.371886" lon="-1.102389">
        <ele>597.6</ele>
        <time>2017-02-04T09:02:57Z</time>
      </trkpt>
      <trkpt lat="38.371875" lon="-1.102398">
        <ele>598.1</ele>
        <time>2017-02-04T09:02:58Z</time>
      </trkpt>
      <trkpt lat="38.371696" lon="-1.102589">
        <ele>598.1</ele>
        <time>2017-02-04T09:03:17Z</time>
      </trkpt>
      <trkpt lat="38.371593" lon="-1.102722">
        <ele>598.1</ele>
        <time>2017-02-04T09:03:32Z</time>
      </trkpt>
      <trkpt lat="38.371590" lon="-1.102720">
        <ele>598.1</ele>
        <time>2017-02-04T09:03:33Z</time>
      </trkpt>
      <trkpt lat="38.371582" lon="-1.102731">
        <ele>598.1</ele>
        <time>2017-02-04T09:03:34Z</time>
      </trkpt>
      <trkpt lat="38.371547" lon="-1.102753">
        <ele>598.6</ele>
        <time>2017-02-04T09:03:42Z</time>
      </trkpt>
      <trkpt lat="38.371535" lon="-1.102765">
        <ele>598.6</ele>
        <time>2017-02-04T09:03:43Z</time>
      </trkpt>
      <trkpt lat="38.371523" lon="-1.102777">
        <ele>597.6</ele>
        <time>2017-02-04T09:03:44Z</time>
      </trkpt>
      <trkpt lat="38.371480" lon="-1.102815">
        <ele>598.1</ele>
        <time>2017-02-04T09:03:51Z</time>
      </trkpt>
      <trkpt lat="38.371469" lon="-1.102823">
        <ele>598.6</ele>
        <time>2017-02-04T09:03:52Z</time>
      </trkpt>
      <trkpt lat="38.371457" lon="-1.102834">
        <ele>598.1</ele>
        <time>2017-02-04T09:03:53Z</time>
      </trkpt>
      <trkpt lat="38.371227" lon="-1.103005">
        <ele>598.1</ele>
        <time>2017-02-04T09:04:11Z</time>
      </trkpt>
      <trkpt lat="38.370948" lon="-1.103210">
        <ele>597.6</ele>
        <time>2017-02-04T09:04:32Z</time>
      </trkpt>
      <trkpt lat="38.370787" lon="-1.103429">
        <ele>597.1</ele>
        <time>2017-02-04T09:04:48Z</time>
      </trkpt>
      <trkpt lat="38.370606" lon="-1.103670">
        <ele>595.2</ele>
        <time>2017-02-04T09:05:05Z</time>
      </trkpt>
      <trkpt lat="38.370541" lon="-1.103743">
        <ele>596.2</ele>
        <time>2017-02-04T09:05:11Z</time>
      </trkpt>
      <trkpt lat="38.370528" lon="-1.103752">
        <ele>595.7</ele>
        <time>2017-02-04T09:05:12Z</time>
      </trkpt>
      <trkpt lat="38.370518" lon="-1.103761">
        <ele>595.7</ele>
        <time>2017-02-04T09:05:13Z</time>
      </trkpt>
      <trkpt lat="38.370447" lon="-1.103811">
        <ele>595.7</ele>
        <time>2017-02-04T09:05:19Z</time>
      </trkpt>
      <trkpt lat="38.370436" lon="-1.103828">
        <ele>595.2</ele>
        <time>2017-02-04T09:05:20Z</time>
      </trkpt>
      <trkpt lat="38.370426" lon="-1.103845">
        <ele>595.2</ele>
        <time>2017-02-04T09:05:21Z</time>
      </trkpt>
      <trkpt lat="38.370222" lon="-1.104042">
        <ele>594.7</ele>
        <time>2017-02-04T09:05:39Z</time>
      </trkpt>
      <trkpt lat="38.369997" lon="-1.104240">
        <ele>594.2</ele>
        <time>2017-02-04T09:05:58Z</time>
      </trkpt>
      <trkpt lat="38.369790" lon="-1.104394">
        <ele>593.3</ele>
        <time>2017-02-04T09:06:15Z</time>
      </trkpt>
      <trkpt lat="38.369564" lon="-1.104547">
        <ele>592.8</ele>
        <time>2017-02-04T09:06:33Z</time>
      </trkpt>
      <trkpt lat="38.369327" lon="-1.104745">
        <ele>591.3</ele>
        <time>2017-02-04T09:06:53Z</time>
      </trkpt>
      <trkpt lat="38.369072" lon="-1.104937">
        <ele>591.8</ele>
        <time>2017-02-04T09:07:14Z</time>
      </trkpt>
      <trkpt lat="38.368833" lon="-1.105088">
        <ele>591.3</ele>
        <time>2017-02-04T09:07:33Z</time>
      </trkpt>
      <trkpt lat="38.368555" lon="-1.105230">
        <ele>591.3</ele>
        <time>2017-02-04T09:07:54Z</time>
      </trkpt>
      <trkpt lat="38.368366" lon="-1.105367">
        <ele>589.9</ele>
        <time>2017-02-04T09:08:11Z</time>
      </trkpt>
      <trkpt lat="38.368353" lon="-1.105384">
        <ele>590.9</ele>
        <time>2017-02-04T09:08:23Z</time>
      </trkpt>
      <trkpt lat="38.368342" lon="-1.105389">
        <ele>589.9</ele>
        <time>2017-02-04T09:08:24Z</time>
      </trkpt>
      <trkpt lat="38.368176" lon="-1.105507">
        <ele>589.9</ele>
        <time>2017-02-04T09:08:41Z</time>
      </trkpt>
      <trkpt lat="38.367980" lon="-1.105719">
        <ele>589.9</ele>
        <time>2017-02-04T09:09:00Z</time>
      </trkpt>
      <trkpt lat="38.367940" lon="-1.105764">
        <ele>589.9</ele>
        <time>2017-02-04T09:09:12Z</time>
      </trkpt>
      <trkpt lat="38.367847" lon="-1.105913">
        <ele>589.4</ele>
        <time>2017-02-04T09:09:24Z</time>
      </trkpt>
      <trkpt lat="38.367717" lon="-1.106158">
        <ele>589.4</ele>
        <time>2017-02-04T09:09:39Z</time>
      </trkpt>
      <trkpt lat="38.367507" lon="-1.106443">
        <ele>588.0</ele>
        <time>2017-02-04T09:10:01Z</time>
      </trkpt>
      <trkpt lat="38.367370" lon="-1.106604">
        <ele>588.0</ele>
        <time>2017-02-04T09:10:15Z</time>
      </trkpt>
      <trkpt lat="38.367379" lon="-1.106614">
        <ele>587.5</ele>
        <time>2017-02-04T09:10:19Z</time>
      </trkpt>
      <trkpt lat="38.367368" lon="-1.106624">
        <ele>587.5</ele>
        <time>2017-02-04T09:10:20Z</time>
      </trkpt>
      <trkpt lat="38.367152" lon="-1.106887">
        <ele>586.1</ele>
        <time>2017-02-04T09:10:40Z</time>
      </trkpt>
      <trkpt lat="38.367036" lon="-1.107191">
        <ele>585.1</ele>
        <time>2017-02-04T09:10:59Z</time>
      </trkpt>
      <trkpt lat="38.367013" lon="-1.107274">
        <ele>584.6</ele>
        <time>2017-02-04T09:11:11Z</time>
      </trkpt>
      <trkpt lat="38.366940" lon="-1.107678">
        <ele>584.1</ele>
        <time>2017-02-04T09:11:33Z</time>
      </trkpt>
      <trkpt lat="38.366845" lon="-1.107986">
        <ele>583.7</ele>
        <time>2017-02-04T09:11:52Z</time>
      </trkpt>
      <trkpt lat="38.366712" lon="-1.108320">
        <ele>583.2</ele>
        <time>2017-02-04T09:12:13Z</time>
      </trkpt>
      <trkpt lat="38.366584" lon="-1.108541">
        <ele>583.2</ele>
        <time>2017-02-04T09:12:29Z</time>
      </trkpt>
      <trkpt lat="38.366449" lon="-1.108816">
        <ele>582.7</ele>
        <time>2017-02-04T09:12:47Z</time>
      </trkpt>
      <trkpt lat="38.366321" lon="-1.109156">
        <ele>581.7</ele>
        <time>2017-02-04T09:13:09Z</time>
      </trkpt>
      <trkpt lat="38.366177" lon="-1.109451">
        <ele>581.2</ele>
        <time>2017-02-04T09:13:28Z</time>
      </trkpt>
      <trkpt lat="38.366006" lon="-1.109712">
        <ele>580.8</ele>
        <time>2017-02-04T09:13:48Z</time>
      </trkpt>
      <trkpt lat="38.365868" lon="-1.109924">
        <ele>580.8</ele>
        <time>2017-02-04T09:14:05Z</time>
      </trkpt>
      <trkpt lat="38.365818" lon="-1.110050">
        <ele>580.3</ele>
        <time>2017-02-04T09:14:20Z</time>
      </trkpt>
      <trkpt lat="38.365664" lon="-1.110300">
        <ele>580.3</ele>
        <time>2017-02-04T09:14:37Z</time>
      </trkpt>
      <trkpt lat="38.365461" lon="-1.110551">
        <ele>579.8</ele>
        <time>2017-02-04T09:14:59Z</time>
      </trkpt>
      <trkpt lat="38.365327" lon="-1.110661">
        <ele>579.8</ele>
        <time>2017-02-04T09:15:13Z</time>
      </trkpt>
      <trkpt lat="38.365195" lon="-1.110697">
        <ele>579.8</ele>
        <time>2017-02-04T09:15:40Z</time>
      </trkpt>
      <trkpt lat="38.364999" lon="-1.110691">
        <ele>581.2</ele>
        <time>2017-02-04T09:15:57Z</time>
      </trkpt>
      <trkpt lat="38.364985" lon="-1.110685">
        <ele>581.2</ele>
        <time>2017-02-04T09:15:58Z</time>
      </trkpt>
      <trkpt lat="38.364923" lon="-1.110698">
        <ele>581.7</ele>
        <time>2017-02-04T09:16:11Z</time>
      </trkpt>
      <trkpt lat="38.364711" lon="-1.110720">
        <ele>582.7</ele>
        <time>2017-02-04T09:16:25Z</time>
      </trkpt>
      <trkpt lat="38.364623" lon="-1.110773">
        <ele>583.2</ele>
        <time>2017-02-04T09:16:33Z</time>
      </trkpt>
      <trkpt lat="38.364614" lon="-1.110783">
        <ele>586.1</ele>
        <time>2017-02-04T09:16:34Z</time>
      </trkpt>
      <trkpt lat="38.364575" lon="-1.110820">
        <ele>582.7</ele>
        <time>2017-02-04T09:16:38Z</time>
      </trkpt>
      <trkpt lat="38.364554" lon="-1.110837">
        <ele>584.1</ele>
        <time>2017-02-04T09:16:40Z</time>
      </trkpt>
      <trkpt lat="38.364544" lon="-1.110850">
        <ele>583.7</ele>
        <time>2017-02-04T09:16:41Z</time>
      </trkpt>
      <trkpt lat="38.364538" lon="-1.110865">
        <ele>583.7</ele>
        <time>2017-02-04T09:16:42Z</time>
      </trkpt>
      <trkpt lat="38.364523" lon="-1.110898">
        <ele>582.2</ele>
        <time>2017-02-04T09:16:45Z</time>
      </trkpt>
      <trkpt lat="38.364514" lon="-1.110904">
        <ele>584.6</ele>
        <time>2017-02-04T09:16:46Z</time>
      </trkpt>
      <trkpt lat="38.364507" lon="-1.110914">
        <ele>584.1</ele>
        <time>2017-02-04T09:16:47Z</time>
      </trkpt>
      <trkpt lat="38.364503" lon="-1.110927">
        <ele>583.7</ele>
        <time>2017-02-04T09:16:48Z</time>
      </trkpt>
      <trkpt lat="38.364500" lon="-1.110939">
        <ele>584.1</ele>
        <time>2017-02-04T09:16:49Z</time>
      </trkpt>
      <trkpt lat="38.364493" lon="-1.110953">
        <ele>584.1</ele>
        <time>2017-02-04T09:16:50Z</time>
      </trkpt>
      <trkpt lat="38.364484" lon="-1.110964">
        <ele>584.1</ele>
        <time>2017-02-04T09:16:51Z</time>
      </trkpt>
      <trkpt lat="38.364477" lon="-1.110978">
        <ele>584.6</ele>
        <time>2017-02-04T09:16:52Z</time>
      </trkpt>
      <trkpt lat="38.364440" lon="-1.111102">
        <ele>584.6</ele>
        <time>2017-02-04T09:17:01Z</time>
      </trkpt>
      <trkpt lat="38.364436" lon="-1.111147">
        <ele>585.6</ele>
        <time>2017-02-04T09:17:04Z</time>
      </trkpt>
      <trkpt lat="38.364435" lon="-1.111164">
        <ele>585.6</ele>
        <time>2017-02-04T09:17:05Z</time>
      </trkpt>
      <trkpt lat="38.364443" lon="-1.111321">
        <ele>586.5</ele>
        <time>2017-02-04T09:17:15Z</time>
      </trkpt>
      <trkpt lat="38.364441" lon="-1.111347">
        <ele>585.6</ele>
        <time>2017-02-04T09:17:17Z</time>
      </trkpt>
      <trkpt lat="38.364471" lon="-1.111598">
        <ele>586.5</ele>
        <time>2017-02-04T09:17:33Z</time>
      </trkpt>
      <trkpt lat="38.364490" lon="-1.111715">
        <ele>587.0</ele>
        <time>2017-02-04T09:17:45Z</time>
      </trkpt>
      <trkpt lat="38.364483" lon="-1.111757">
        <ele>586.5</ele>
        <time>2017-02-04T09:26:32Z</time>
      </trkpt>
      <trkpt lat="38.364336" lon="-1.111984">
        <ele>586.1</ele>
        <time>2017-02-04T09:35:47Z</time>
      </trkpt>
      <trkpt lat="38.364157" lon="-1.112182">
        <ele>585.1</ele>
        <time>2017-02-04T09:36:03Z</time>
      </trkpt>
      <trkpt lat="38.364131" lon="-1.112187">
        <ele>585.1</ele>
        <time>2017-02-04T09:36:17Z</time>
      </trkpt>
      <trkpt lat="38.364084" lon="-1.112224">
        <ele>585.6</ele>
        <time>2017-02-04T09:36:28Z</time>
      </trkpt>
      <trkpt lat="38.364034" lon="-1.112244">
        <ele>585.1</ele>
        <time>2017-02-04T09:36:35Z</time>
      </trkpt>
      <trkpt lat="38.363987" lon="-1.112279">
        <ele>584.6</ele>
        <time>2017-02-04T09:36:39Z</time>
      </trkpt>
      <trkpt lat="38.363891" lon="-1.112359">
        <ele>584.6</ele>
        <time>2017-02-04T09:36:56Z</time>
      </trkpt>
      <trkpt lat="38.363872" lon="-1.112462">
        <ele>584.6</ele>
        <time>2017-02-04T09:37:35Z</time>
      </trkpt>
      <trkpt lat="38.363900" lon="-1.112547">
        <ele>584.1</ele>
        <time>2017-02-04T09:37:55Z</time>
      </trkpt>
      <trkpt lat="38.363935" lon="-1.112605">
        <ele>584.6</ele>
        <time>2017-02-04T09:38:05Z</time>
      </trkpt>
      <trkpt lat="38.363986" lon="-1.112720">
        <ele>585.6</ele>
        <time>2017-02-04T09:38:11Z</time>
      </trkpt>
      <trkpt lat="38.363976" lon="-1.112700">
        <ele>585.1</ele>
        <time>2017-02-04T09:38:20Z</time>
      </trkpt>
      <trkpt lat="38.364011" lon="-1.112769">
        <ele>585.6</ele>
        <time>2017-02-04T09:38:35Z</time>
      </trkpt>
      <trkpt lat="38.364065" lon="-1.112923">
        <ele>586.1</ele>
        <time>2017-02-04T09:38:51Z</time>
      </trkpt>
      <trkpt lat="38.364088" lon="-1.112970">
        <ele>585.6</ele>
        <time>2017-02-04T09:39:00Z</time>
      </trkpt>
      <trkpt lat="38.364105" lon="-1.113011">
        <ele>586.5</ele>
        <time>2017-02-04T09:39:15Z</time>
      </trkpt>
      <trkpt lat="38.364130" lon="-1.113080">
        <ele>587.0</ele>
        <time>2017-02-04T09:40:41Z</time>
      </trkpt>
      <trkpt lat="38.364252" lon="-1.113207">
        <ele>587.5</ele>
        <time>2017-02-04T09:40:54Z</time>
      </trkpt>
      <trkpt lat="38.364306" lon="-1.113298">
        <ele>588.5</ele>
        <time>2017-02-04T09:41:06Z</time>
      </trkpt>
      <trkpt lat="38.364316" lon="-1.113325">
        <ele>589.4</ele>
        <time>2017-02-04T09:41:22Z</time>
      </trkpt>
      <trkpt lat="38.364423" lon="-1.113460">
        <ele>589.4</ele>
        <time>2017-02-04T09:41:35Z</time>
      </trkpt>
      <trkpt lat="38.364555" lon="-1.113661">
        <ele>590.4</ele>
        <time>2017-02-04T09:41:50Z</time>
      </trkpt>
      <trkpt lat="38.364556" lon="-1.113676">
        <ele>589.4</ele>
        <time>2017-02-04T09:41:51Z</time>
      </trkpt>
      <trkpt lat="38.364705" lon="-1.113918">
        <ele>590.9</ele>
        <time>2017-02-04T09:42:08Z</time>
      </trkpt>
      <trkpt lat="38.364860" lon="-1.114121">
        <ele>592.3</ele>
        <time>2017-02-04T09:42:24Z</time>
      </trkpt>
      <trkpt lat="38.365001" lon="-1.114307">
        <ele>592.8</ele>
        <time>2017-02-04T09:42:43Z</time>
      </trkpt>
      <trkpt lat="38.365079" lon="-1.114428">
        <ele>592.8</ele>
        <time>2017-02-04T09:43:07Z</time>
      </trkpt>
      <trkpt lat="38.365086" lon="-1.114441">
        <ele>592.3</ele>
        <time>2017-02-04T09:43:08Z</time>
      </trkpt>
      <trkpt lat="38.365094" lon="-1.114455">
        <ele>592.3</ele>
        <time>2017-02-04T09:43:09Z</time>
      </trkpt>
      <trkpt lat="38.365245" lon="-1.114789">
        <ele>592.8</ele>
        <time>2017-02-04T09:43:31Z</time>
      </trkpt>
      <trkpt lat="38.365293" lon="-1.114890">
        <ele>592.8</ele>
        <time>2017-02-04T09:43:44Z</time>
      </trkpt>
      <trkpt lat="38.365295" lon="-1.114898">
        <ele>592.3</ele>
        <time>2017-02-04T09:43:45Z</time>
      </trkpt>
      <trkpt lat="38.365300" lon="-1.114910">
        <ele>592.3</ele>
        <time>2017-02-04T09:43:46Z</time>
      </trkpt>
      <trkpt lat="38.365602" lon="-1.115666">
        <ele>589.9</ele>
        <time>2017-02-04T09:44:46Z</time>
      </trkpt>
      <trkpt lat="38.365675" lon="-1.115776">
        <ele>589.4</ele>
        <time>2017-02-04T09:44:59Z</time>
      </trkpt>
      <trkpt lat="38.365825" lon="-1.116048">
        <ele>589.9</ele>
        <time>2017-02-04T09:45:18Z</time>
      </trkpt>
      <trkpt lat="38.365900" lon="-1.116219">
        <ele>588.5</ele>
        <time>2017-02-04T09:45:31Z</time>
      </trkpt>
      <trkpt lat="38.366044" lon="-1.116498">
        <ele>588.0</ele>
        <time>2017-02-04T09:45:49Z</time>
      </trkpt>
      <trkpt lat="38.366166" lon="-1.116673">
        <ele>589.0</ele>
        <time>2017-02-04T09:46:04Z</time>
      </trkpt>
      <trkpt lat="38.366161" lon="-1.116674">
        <ele>588.5</ele>
        <time>2017-02-04T09:46:18Z</time>
      </trkpt>
      <trkpt lat="38.366139" lon="-1.116732">
        <ele>589.0</ele>
        <time>2017-02-04T09:46:30Z</time>
      </trkpt>
      <trkpt lat="38.366135" lon="-1.116750">
        <ele>589.4</ele>
        <time>2017-02-04T09:46:36Z</time>
      </trkpt>
      <trkpt lat="38.366126" lon="-1.116761">
        <ele>589.0</ele>
        <time>2017-02-04T09:46:37Z</time>
      </trkpt>
      <trkpt lat="38.366117" lon="-1.116777">
        <ele>589.0</ele>
        <time>2017-02-04T09:46:38Z</time>
      </trkpt>
      <trkpt lat="38.366109" lon="-1.116794">
        <ele>588.0</ele>
        <time>2017-02-04T09:46:39Z</time>
      </trkpt>
      <trkpt lat="38.366100" lon="-1.116808">
        <ele>588.0</ele>
        <time>2017-02-04T09:46:40Z</time>
      </trkpt>
      <trkpt lat="38.365963" lon="-1.116973">
        <ele>587.5</ele>
        <time>2017-02-04T09:46:56Z</time>
      </trkpt>
      <trkpt lat="38.365873" lon="-1.117095">
        <ele>587.0</ele>
        <time>2017-02-04T09:47:14Z</time>
      </trkpt>
      <trkpt lat="38.365868" lon="-1.117112">
        <ele>586.1</ele>
        <time>2017-02-04T09:47:18Z</time>
      </trkpt>
      <trkpt lat="38.365863" lon="-1.117128">
        <ele>586.1</ele>
        <time>2017-02-04T09:47:19Z</time>
      </trkpt>
      <trkpt lat="38.365830" lon="-1.117278">
        <ele>585.6</ele>
        <time>2017-02-04T09:47:31Z</time>
      </trkpt>
      <trkpt lat="38.365820" lon="-1.117281">
        <ele>586.1</ele>
        <time>2017-02-04T09:47:32Z</time>
      </trkpt>
      <trkpt lat="38.365764" lon="-1.117318">
        <ele>585.1</ele>
        <time>2017-02-04T09:47:37Z</time>
      </trkpt>
      <trkpt lat="38.365604" lon="-1.117488">
        <ele>584.6</ele>
        <time>2017-02-04T09:47:52Z</time>
      </trkpt>
      <trkpt lat="38.365499" lon="-1.117564">
        <ele>583.2</ele>
        <time>2017-02-04T09:48:24Z</time>
      </trkpt>
      <trkpt lat="38.365487" lon="-1.117583">
        <ele>583.2</ele>
        <time>2017-02-04T09:48:25Z</time>
      </trkpt>
      <trkpt lat="38.365471" lon="-1.117603">
        <ele>583.7</ele>
        <time>2017-02-04T09:48:26Z</time>
      </trkpt>
      <trkpt lat="38.365457" lon="-1.117616">
        <ele>583.7</ele>
        <time>2017-02-04T09:48:27Z</time>
      </trkpt>
      <trkpt lat="38.365196" lon="-1.117876">
        <ele>582.7</ele>
        <time>2017-02-04T09:48:48Z</time>
      </trkpt>
      <trkpt lat="38.365068" lon="-1.118014">
        <ele>581.2</ele>
        <time>2017-02-04T09:49:04Z</time>
      </trkpt>
      <trkpt lat="38.365046" lon="-1.118106">
        <ele>581.2</ele>
        <time>2017-02-04T09:49:18Z</time>
      </trkpt>
      <trkpt lat="38.364901" lon="-1.118359">
        <ele>579.8</ele>
        <time>2017-02-04T09:49:37Z</time>
      </trkpt>
      <trkpt lat="38.364808" lon="-1.118616">
        <ele>579.3</ele>
        <time>2017-02-04T09:49:55Z</time>
      </trkpt>
      <trkpt lat="38.364700" lon="-1.118822">
        <ele>578.4</ele>
        <time>2017-02-04T09:50:13Z</time>
      </trkpt>
      <trkpt lat="38.364558" lon="-1.119079">
        <ele>576.5</ele>
        <time>2017-02-04T09:50:31Z</time>
      </trkpt>
      <trkpt lat="38.364483" lon="-1.119214">
        <ele>577.4</ele>
        <time>2017-02-04T09:50:44Z</time>
      </trkpt>
      <trkpt lat="38.364369" lon="-1.119436">
        <ele>576.5</ele>
        <time>2017-02-04T09:51:01Z</time>
      </trkpt>
      <trkpt lat="38.364301" lon="-1.119590">
        <ele>576.0</ele>
        <time>2017-02-04T09:51:13Z</time>
      </trkpt>
      <trkpt lat="38.364228" lon="-1.119743">
        <ele>575.5</ele>
        <time>2017-02-04T09:51:27Z</time>
      </trkpt>
      <trkpt lat="38.364226" lon="-1.119759">
        <ele>575.5</ele>
        <time>2017-02-04T09:51:28Z</time>
      </trkpt>
      <trkpt lat="38.364223" lon="-1.119772">
        <ele>575.5</ele>
        <time>2017-02-04T09:51:29Z</time>
      </trkpt>
      <trkpt lat="38.364164" lon="-1.119882">
        <ele>576.0</ele>
        <time>2017-02-04T09:51:37Z</time>
      </trkpt>
      <trkpt lat="38.364158" lon="-1.119901">
        <ele>576.0</ele>
        <time>2017-02-04T09:51:38Z</time>
      </trkpt>
      <trkpt lat="38.364151" lon="-1.119919">
        <ele>575.5</ele>
        <time>2017-02-04T09:51:39Z</time>
      </trkpt>
      <trkpt lat="38.364086" lon="-1.120060">
        <ele>575.0</ele>
        <time>2017-02-04T09:51:49Z</time>
      </trkpt>
      <trkpt lat="38.364069" lon="-1.120109">
        <ele>576.0</ele>
        <time>2017-02-04T09:52:42Z</time>
      </trkpt>
      <trkpt lat="38.364045" lon="-1.120145">
        <ele>576.5</ele>
        <time>2017-02-04T09:52:44Z</time>
      </trkpt>
      <trkpt lat="38.364035" lon="-1.120170">
        <ele>575.5</ele>
        <time>2017-02-04T09:52:45Z</time>
      </trkpt>
      <trkpt lat="38.364025" lon="-1.120186">
        <ele>575.0</ele>
        <time>2017-02-04T09:52:46Z</time>
      </trkpt>
      <trkpt lat="38.364015" lon="-1.120200">
        <ele>575.5</ele>
        <time>2017-02-04T09:52:47Z</time>
      </trkpt>
      <trkpt lat="38.363934" lon="-1.120384">
        <ele>574.0</ele>
        <time>2017-02-04T09:52:59Z</time>
      </trkpt>
      <trkpt lat="38.363800" lon="-1.120640">
        <ele>575.0</ele>
        <time>2017-02-04T09:53:16Z</time>
      </trkpt>
      <trkpt lat="38.363688" lon="-1.120826">
        <ele>573.6</ele>
        <time>2017-02-04T09:53:31Z</time>
      </trkpt>
      <trkpt lat="38.363525" lon="-1.121087">
        <ele>572.1</ele>
        <time>2017-02-04T09:53:49Z</time>
      </trkpt>
      <trkpt lat="38.363386" lon="-1.121400">
        <ele>569.7</ele>
        <time>2017-02-04T09:54:09Z</time>
      </trkpt>
      <trkpt lat="38.363249" lon="-1.121684">
        <ele>570.7</ele>
        <time>2017-02-04T09:54:27Z</time>
      </trkpt>
      <trkpt lat="38.363119" lon="-1.121957">
        <ele>569.7</ele>
        <time>2017-02-04T09:54:45Z</time>
      </trkpt>
      <trkpt lat="38.362920" lon="-1.122281">
        <ele>569.7</ele>
        <time>2017-02-04T09:55:08Z</time>
      </trkpt>
      <trkpt lat="38.362885" lon="-1.122646">
        <ele>567.8</ele>
        <time>2017-02-04T09:55:28Z</time>
      </trkpt>
      <trkpt lat="38.362828" lon="-1.122925">
        <ele>566.8</ele>
        <time>2017-02-04T09:55:45Z</time>
      </trkpt>
      <trkpt lat="38.362734" lon="-1.123220">
        <ele>564.9</ele>
        <time>2017-02-04T09:56:03Z</time>
      </trkpt>
      <trkpt lat="38.362664" lon="-1.123484">
        <ele>564.4</ele>
        <time>2017-02-04T09:56:19Z</time>
      </trkpt>
      <trkpt lat="38.362576" lon="-1.123812">
        <ele>564.0</ele>
        <time>2017-02-04T09:56:38Z</time>
      </trkpt>
      <trkpt lat="38.362532" lon="-1.124056">
        <ele>563.0</ele>
        <time>2017-02-04T09:56:53Z</time>
      </trkpt>
      <trkpt lat="38.362484" lon="-1.124280">
        <ele>563.0</ele>
        <time>2017-02-04T09:57:05Z</time>
      </trkpt>
      <trkpt lat="38.362415" lon="-1.124580">
        <ele>562.5</ele>
        <time>2017-02-04T09:57:23Z</time>
      </trkpt>
      <trkpt lat="38.362343" lon="-1.124848">
        <ele>561.1</ele>
        <time>2017-02-04T09:57:39Z</time>
      </trkpt>
      <trkpt lat="38.362281" lon="-1.124991">
        <ele>562.0</ele>
        <time>2017-02-04T09:57:52Z</time>
      </trkpt>
      <trkpt lat="38.362272" lon="-1.125020">
        <ele>562.0</ele>
        <time>2017-02-04T09:57:58Z</time>
      </trkpt>
      <trkpt lat="38.362267" lon="-1.125034">
        <ele>562.0</ele>
        <time>2017-02-04T09:57:59Z</time>
      </trkpt>
      <trkpt lat="38.362194" lon="-1.125201">
        <ele>562.0</ele>
        <time>2017-02-04T09:58:12Z</time>
      </trkpt>
      <trkpt lat="38.362186" lon="-1.125216">
        <ele>561.1</ele>
        <time>2017-02-04T09:58:13Z</time>
      </trkpt>
      <trkpt lat="38.362179" lon="-1.125232">
        <ele>561.1</ele>
        <time>2017-02-04T09:58:14Z</time>
      </trkpt>
      <trkpt lat="38.362172" lon="-1.125247">
        <ele>561.1</ele>
        <time>2017-02-04T09:58:15Z</time>
      </trkpt>
      <trkpt lat="38.362164" lon="-1.125264">
        <ele>561.1</ele>
        <time>2017-02-04T09:58:16Z</time>
      </trkpt>
      <trkpt lat="38.362030" lon="-1.125517">
        <ele>561.5</ele>
        <time>2017-02-04T09:58:32Z</time>
      </trkpt>
      <trkpt lat="38.361816" lon="-1.125687">
        <ele>561.1</ele>
        <time>2017-02-04T09:58:50Z</time>
      </trkpt>
      <trkpt lat="38.361586" lon="-1.125775">
        <ele>561.1</ele>
        <time>2017-02-04T09:59:08Z</time>
      </trkpt>
      <trkpt lat="38.361311" lon="-1.125895">
        <ele>561.1</ele>
        <time>2017-02-04T09:59:29Z</time>
      </trkpt>
      <trkpt lat="38.361128" lon="-1.125990">
        <ele>561.5</ele>
        <time>2017-02-04T09:59:45Z</time>
      </trkpt>
      <trkpt lat="38.360908" lon="-1.126135">
        <ele>560.6</ele>
        <time>2017-02-04T10:00:03Z</time>
      </trkpt>
      <trkpt lat="38.360727" lon="-1.126347">
        <ele>558.7</ele>
        <time>2017-02-04T10:00:22Z</time>
      </trkpt>
      <trkpt lat="38.360597" lon="-1.126512">
        <ele>558.7</ele>
        <time>2017-02-04T10:00:36Z</time>
      </trkpt>
      <trkpt lat="38.360585" lon="-1.126524">
        <ele>558.7</ele>
        <time>2017-02-04T10:00:37Z</time>
      </trkpt>
      <trkpt lat="38.360570" lon="-1.126534">
        <ele>558.7</ele>
        <time>2017-02-04T10:00:38Z</time>
      </trkpt>
      <trkpt lat="38.360562" lon="-1.126545">
        <ele>558.2</ele>
        <time>2017-02-04T10:00:39Z</time>
      </trkpt>
      <trkpt lat="38.360553" lon="-1.126558">
        <ele>558.2</ele>
        <time>2017-02-04T10:00:40Z</time>
      </trkpt>
      <trkpt lat="38.360391" lon="-1.126768">
        <ele>557.7</ele>
        <time>2017-02-04T10:00:58Z</time>
      </trkpt>
      <trkpt lat="38.360265" lon="-1.126898">
        <ele>557.2</ele>
        <time>2017-02-04T10:01:15Z</time>
      </trkpt>
      <trkpt lat="38.360221" lon="-1.126967">
        <ele>556.7</ele>
        <time>2017-02-04T10:01:26Z</time>
      </trkpt>
      <trkpt lat="38.360186" lon="-1.127009">
        <ele>556.7</ele>
        <time>2017-02-04T10:01:30Z</time>
      </trkpt>
      <trkpt lat="38.360175" lon="-1.127015">
        <ele>556.3</ele>
        <time>2017-02-04T10:01:31Z</time>
      </trkpt>
      <trkpt lat="38.360159" lon="-1.127032">
        <ele>556.3</ele>
        <time>2017-02-04T10:01:39Z</time>
      </trkpt>
      <trkpt lat="38.360136" lon="-1.127059">
        <ele>555.8</ele>
        <time>2017-02-04T10:01:45Z</time>
      </trkpt>
      <trkpt lat="38.360131" lon="-1.127075">
        <ele>555.8</ele>
        <time>2017-02-04T10:01:46Z</time>
      </trkpt>
      <trkpt lat="38.360082" lon="-1.127266">
        <ele>556.3</ele>
        <time>2017-02-04T10:02:03Z</time>
      </trkpt>
      <trkpt lat="38.360067" lon="-1.127369">
        <ele>556.3</ele>
        <time>2017-02-04T10:03:24Z</time>
      </trkpt>
      <trkpt lat="38.360060" lon="-1.127388">
        <ele>556.3</ele>
        <time>2017-02-04T10:03:25Z</time>
      </trkpt>
      <trkpt lat="38.360054" lon="-1.127407">
        <ele>555.8</ele>
        <time>2017-02-04T10:03:26Z</time>
      </trkpt>
      <trkpt lat="38.359952" lon="-1.127654">
        <ele>556.7</ele>
        <time>2017-02-04T10:03:42Z</time>
      </trkpt>
      <trkpt lat="38.359853" lon="-1.127801">
        <ele>556.7</ele>
        <time>2017-02-04T10:03:53Z</time>
      </trkpt>
      <trkpt lat="38.359841" lon="-1.127808">
        <ele>557.2</ele>
        <time>2017-02-04T10:03:54Z</time>
      </trkpt>
      <trkpt lat="38.359828" lon="-1.127817">
        <ele>556.7</ele>
        <time>2017-02-04T10:03:55Z</time>
      </trkpt>
      <trkpt lat="38.359816" lon="-1.127829">
        <ele>556.7</ele>
        <time>2017-02-04T10:03:56Z</time>
      </trkpt>
      <trkpt lat="38.359806" lon="-1.127842">
        <ele>556.3</ele>
        <time>2017-02-04T10:03:57Z</time>
      </trkpt>
      <trkpt lat="38.359795" lon="-1.127854">
        <ele>556.7</ele>
        <time>2017-02-04T10:03:58Z</time>
      </trkpt>
      <trkpt lat="38.359782" lon="-1.127866">
        <ele>556.3</ele>
        <time>2017-02-04T10:03:59Z</time>
      </trkpt>
      <trkpt lat="38.359770" lon="-1.127877">
        <ele>557.2</ele>
        <time>2017-02-04T10:04:00Z</time>
      </trkpt>
      <trkpt lat="38.359759" lon="-1.127887">
        <ele>556.7</ele>
        <time>2017-02-04T10:04:01Z</time>
      </trkpt>
      <trkpt lat="38.359750" lon="-1.127900">
        <ele>556.7</ele>
        <time>2017-02-04T10:04:02Z</time>
      </trkpt>
      <trkpt lat="38.359738" lon="-1.127912">
        <ele>556.7</ele>
        <time>2017-02-04T10:04:03Z</time>
      </trkpt>
      <trkpt lat="38.359729" lon="-1.127926">
        <ele>556.7</ele>
        <time>2017-02-04T10:04:04Z</time>
      </trkpt>
      <trkpt lat="38.359716" lon="-1.127937">
        <ele>556.7</ele>
        <time>2017-02-04T10:04:05Z</time>
      </trkpt>
      <trkpt lat="38.359704" lon="-1.127952">
        <ele>557.2</ele>
        <time>2017-02-04T10:04:06Z</time>
      </trkpt>
      <trkpt lat="38.359697" lon="-1.127965">
        <ele>556.7</ele>
        <time>2017-02-04T10:04:07Z</time>
      </trkpt>
      <trkpt lat="38.359687" lon="-1.127974">
        <ele>556.7</ele>
        <time>2017-02-04T10:04:08Z</time>
      </trkpt>
      <trkpt lat="38.359588" lon="-1.128020">
        <ele>557.2</ele>
        <time>2017-02-04T10:04:25Z</time>
      </trkpt>
      <trkpt lat="38.359581" lon="-1.128042">
        <ele>557.7</ele>
        <time>2017-02-04T10:04:30Z</time>
      </trkpt>
      <trkpt lat="38.359573" lon="-1.128056">
        <ele>557.2</ele>
        <time>2017-02-04T10:04:31Z</time>
      </trkpt>
      <trkpt lat="38.359562" lon="-1.128072">
        <ele>557.2</ele>
        <time>2017-02-04T10:04:32Z</time>
      </trkpt>
      <trkpt lat="38.359521" lon="-1.128132">
        <ele>558.2</ele>
        <time>2017-02-04T10:04:40Z</time>
      </trkpt>
      <trkpt lat="38.359422" lon="-1.128409">
        <ele>558.2</ele>
        <time>2017-02-04T10:04:55Z</time>
      </trkpt>
      <trkpt lat="38.359452" lon="-1.128604">
        <ele>559.1</ele>
        <time>2017-02-04T10:05:08Z</time>
      </trkpt>
      <trkpt lat="38.359457" lon="-1.128626">
        <ele>558.2</ele>
        <time>2017-02-04T10:05:12Z</time>
      </trkpt>
      <trkpt lat="38.359458" lon="-1.128645">
        <ele>559.1</ele>
        <time>2017-02-04T10:05:13Z</time>
      </trkpt>
      <trkpt lat="38.359502" lon="-1.128973">
        <ele>559.6</ele>
        <time>2017-02-04T10:05:31Z</time>
      </trkpt>
      <trkpt lat="38.359558" lon="-1.129262">
        <ele>559.6</ele>
        <time>2017-02-04T10:05:46Z</time>
      </trkpt>
      <trkpt lat="38.359629" lon="-1.129649">
        <ele>560.1</ele>
        <time>2017-02-04T10:06:06Z</time>
      </trkpt>
      <trkpt lat="38.359702" lon="-1.130012">
        <ele>564.0</ele>
        <time>2017-02-04T10:06:25Z</time>
      </trkpt>
      <trkpt lat="38.359707" lon="-1.130029">
        <ele>561.5</ele>
        <time>2017-02-04T10:06:26Z</time>
      </trkpt>
      <trkpt lat="38.359762" lon="-1.130280">
        <ele>561.5</ele>
        <time>2017-02-04T10:06:41Z</time>
      </trkpt>
      <trkpt lat="38.359831" lon="-1.130624">
        <ele>560.6</ele>
        <time>2017-02-04T10:07:01Z</time>
      </trkpt>
      <trkpt lat="38.359900" lon="-1.131002">
        <ele>561.1</ele>
        <time>2017-02-04T10:07:24Z</time>
      </trkpt>
      <trkpt lat="38.359971" lon="-1.131365">
        <ele>561.5</ele>
        <time>2017-02-04T10:07:46Z</time>
      </trkpt>
      <trkpt lat="38.359975" lon="-1.131700">
        <ele>562.0</ele>
        <time>2017-02-04T10:08:05Z</time>
      </trkpt>
      <trkpt lat="38.359851" lon="-1.132031">
        <ele>560.6</ele>
        <time>2017-02-04T10:08:26Z</time>
      </trkpt>
      <trkpt lat="38.359715" lon="-1.132333">
        <ele>559.6</ele>
        <time>2017-02-04T10:08:46Z</time>
      </trkpt>
      <trkpt lat="38.359643" lon="-1.132456">
        <ele>559.1</ele>
        <time>2017-02-04T10:08:56Z</time>
      </trkpt>
      <trkpt lat="38.359634" lon="-1.132464">
        <ele>559.1</ele>
        <time>2017-02-04T10:08:57Z</time>
      </trkpt>
      <trkpt lat="38.359624" lon="-1.132476">
        <ele>558.7</ele>
        <time>2017-02-04T10:08:58Z</time>
      </trkpt>
      <trkpt lat="38.359616" lon="-1.132490">
        <ele>559.1</ele>
        <time>2017-02-04T10:08:59Z</time>
      </trkpt>
      <trkpt lat="38.359607" lon="-1.132505">
        <ele>558.7</ele>
        <time>2017-02-04T10:09:00Z</time>
      </trkpt>
      <trkpt lat="38.359483" lon="-1.132706">
        <ele>557.7</ele>
        <time>2017-02-04T10:09:16Z</time>
      </trkpt>
      <trkpt lat="38.359468" lon="-1.132725">
        <ele>557.7</ele>
        <time>2017-02-04T10:09:24Z</time>
      </trkpt>
      <trkpt lat="38.359458" lon="-1.132739">
        <ele>557.2</ele>
        <time>2017-02-04T10:09:25Z</time>
      </trkpt>
      <trkpt lat="38.359396" lon="-1.132865">
        <ele>555.3</ele>
        <time>2017-02-04T10:09:32Z</time>
      </trkpt>
      <trkpt lat="38.359265" lon="-1.133160">
        <ele>555.3</ele>
        <time>2017-02-04T10:09:50Z</time>
      </trkpt>
      <trkpt lat="38.359130" lon="-1.133484">
        <ele>553.9</ele>
        <time>2017-02-04T10:10:09Z</time>
      </trkpt>
      <trkpt lat="38.359042" lon="-1.133795">
        <ele>552.4</ele>
        <time>2017-02-04T10:10:28Z</time>
      </trkpt>
      <trkpt lat="38.359025" lon="-1.134080">
        <ele>549.5</ele>
        <time>2017-02-04T10:10:45Z</time>
      </trkpt>
      <trkpt lat="38.359006" lon="-1.134217">
        <ele>549.0</ele>
        <time>2017-02-04T10:11:00Z</time>
      </trkpt>
      <trkpt lat="38.358977" lon="-1.134278">
        <ele>549.0</ele>
        <time>2017-02-04T10:11:10Z</time>
      </trkpt>
      <trkpt lat="38.358971" lon="-1.134297">
        <ele>548.1</ele>
        <time>2017-02-04T10:11:11Z</time>
      </trkpt>
      <trkpt lat="38.358966" lon="-1.134318">
        <ele>548.6</ele>
        <time>2017-02-04T10:11:12Z</time>
      </trkpt>
      <trkpt lat="38.358963" lon="-1.134339">
        <ele>548.1</ele>
        <time>2017-02-04T10:11:13Z</time>
      </trkpt>
      <trkpt lat="38.358963" lon="-1.134359">
        <ele>548.1</ele>
        <time>2017-02-04T10:11:14Z</time>
      </trkpt>
      <trkpt lat="38.358921" lon="-1.134671">
        <ele>547.1</ele>
        <time>2017-02-04T10:11:33Z</time>
      </trkpt>
      <trkpt lat="38.358907" lon="-1.134900">
        <ele>547.1</ele>
        <time>2017-02-04T10:11:48Z</time>
      </trkpt>
      <trkpt lat="38.358922" lon="-1.134942">
        <ele>547.1</ele>
        <time>2017-02-04T10:11:56Z</time>
      </trkpt>
      <trkpt lat="38.358941" lon="-1.134990">
        <ele>546.7</ele>
        <time>2017-02-04T10:12:01Z</time>
      </trkpt>
      <trkpt lat="38.358942" lon="-1.135004">
        <ele>546.7</ele>
        <time>2017-02-04T10:12:02Z</time>
      </trkpt>
      <trkpt lat="38.358958" lon="-1.135098">
        <ele>546.7</ele>
        <time>2017-02-04T10:12:08Z</time>
      </trkpt>
      <trkpt lat="38.358959" lon="-1.135115">
        <ele>546.2</ele>
        <time>2017-02-04T10:12:09Z</time>
      </trkpt>
      <trkpt lat="38.358961" lon="-1.135132">
        <ele>547.1</ele>
        <time>2017-02-04T10:12:10Z</time>
      </trkpt>
      <trkpt lat="38.358964" lon="-1.135148">
        <ele>546.7</ele>
        <time>2017-02-04T10:12:11Z</time>
      </trkpt>
      <trkpt lat="38.358967" lon="-1.135168">
        <ele>546.7</ele>
        <time>2017-02-04T10:12:12Z</time>
      </trkpt>
      <trkpt lat="38.358968" lon="-1.135190">
        <ele>547.1</ele>
        <time>2017-02-04T10:12:13Z</time>
      </trkpt>
      <trkpt lat="38.358968" lon="-1.135211">
        <ele>546.7</ele>
        <time>2017-02-04T10:12:14Z</time>
      </trkpt>
      <trkpt lat="38.358971" lon="-1.135229">
        <ele>546.2</ele>
        <time>2017-02-04T10:12:15Z</time>
      </trkpt>
      <trkpt lat="38.358974" lon="-1.135248">
        <ele>546.7</ele>
        <time>2017-02-04T10:12:16Z</time>
      </trkpt>
      <trkpt lat="38.358976" lon="-1.135264">
        <ele>547.1</ele>
        <time>2017-02-04T10:12:17Z</time>
      </trkpt>
      <trkpt lat="38.358983" lon="-1.135280">
        <ele>547.1</ele>
        <time>2017-02-04T10:12:18Z</time>
      </trkpt>
      <trkpt lat="38.358992" lon="-1.135296">
        <ele>546.7</ele>
        <time>2017-02-04T10:12:19Z</time>
      </trkpt>
      <trkpt lat="38.358999" lon="-1.135312">
        <ele>547.1</ele>
        <time>2017-02-04T10:12:20Z</time>
      </trkpt>
      <trkpt lat="38.359003" lon="-1.135327">
        <ele>546.7</ele>
        <time>2017-02-04T10:12:21Z</time>
      </trkpt>
      <trkpt lat="38.359073" lon="-1.135673">
        <ele>545.7</ele>
        <time>2017-02-04T10:12:40Z</time>
      </trkpt>
      <trkpt lat="38.359120" lon="-1.135957">
        <ele>544.7</ele>
        <time>2017-02-04T10:12:57Z</time>
      </trkpt>
      <trkpt lat="38.359186" lon="-1.136260">
        <ele>544.2</ele>
        <time>2017-02-04T10:13:14Z</time>
      </trkpt>
      <trkpt lat="38.359238" lon="-1.136495">
        <ele>543.8</ele>
        <time>2017-02-04T10:13:29Z</time>
      </trkpt>
      <trkpt lat="38.359297" lon="-1.136809">
        <ele>542.8</ele>
        <time>2017-02-04T10:13:50Z</time>
      </trkpt>
      <trkpt lat="38.359348" lon="-1.137006">
        <ele>542.3</ele>
        <time>2017-02-04T10:14:05Z</time>
      </trkpt>
      <trkpt lat="38.359350" lon="-1.137027">
        <ele>542.8</ele>
        <time>2017-02-04T10:14:07Z</time>
      </trkpt>
      <trkpt lat="38.359426" lon="-1.137199">
        <ele>540.9</ele>
        <time>2017-02-04T10:14:20Z</time>
      </trkpt>
      <trkpt lat="38.359445" lon="-1.137253">
        <ele>540.9</ele>
        <time>2017-02-04T10:14:26Z</time>
      </trkpt>
      <trkpt lat="38.359476" lon="-1.137314">
        <ele>540.9</ele>
        <time>2017-02-04T10:14:31Z</time>
      </trkpt>
      <trkpt lat="38.359486" lon="-1.137377">
        <ele>540.4</ele>
        <time>2017-02-04T10:14:45Z</time>
      </trkpt>
      <trkpt lat="38.359484" lon="-1.137388">
        <ele>540.9</ele>
        <time>2017-02-04T10:14:49Z</time>
      </trkpt>
      <trkpt lat="38.359500" lon="-1.137447">
        <ele>539.9</ele>
        <time>2017-02-04T10:14:53Z</time>
      </trkpt>
      <trkpt lat="38.359533" lon="-1.137520">
        <ele>539.4</ele>
        <time>2017-02-04T10:15:05Z</time>
      </trkpt>
      <trkpt lat="38.359595" lon="-1.137646">
        <ele>539.0</ele>
        <time>2017-02-04T10:15:15Z</time>
      </trkpt>
      <trkpt lat="38.359659" lon="-1.137728">
        <ele>539.0</ele>
        <time>2017-02-04T10:15:22Z</time>
      </trkpt>
      <trkpt lat="38.359757" lon="-1.137890">
        <ele>538.0</ele>
        <time>2017-02-04T10:15:36Z</time>
      </trkpt>
      <trkpt lat="38.359842" lon="-1.138019">
        <ele>538.0</ele>
        <time>2017-02-04T10:15:47Z</time>
      </trkpt>
      <trkpt lat="38.359952" lon="-1.138201">
        <ele>538.0</ele>
        <time>2017-02-04T10:16:02Z</time>
      </trkpt>
      <trkpt lat="38.360013" lon="-1.138295">
        <ele>538.5</ele>
        <time>2017-02-04T10:16:10Z</time>
      </trkpt>
      <trkpt lat="38.360090" lon="-1.138449">
        <ele>538.0</ele>
        <time>2017-02-04T10:16:26Z</time>
      </trkpt>
      <trkpt lat="38.360094" lon="-1.138469">
        <ele>537.5</ele>
        <time>2017-02-04T10:16:28Z</time>
      </trkpt>
      <trkpt lat="38.360124" lon="-1.138537">
        <ele>537.5</ele>
        <time>2017-02-04T10:16:33Z</time>
      </trkpt>
      <trkpt lat="38.360236" lon="-1.138733">
        <ele>537.0</ele>
        <time>2017-02-04T10:16:50Z</time>
      </trkpt>
      <trkpt lat="38.360358" lon="-1.138918">
        <ele>537.0</ele>
        <time>2017-02-04T10:17:05Z</time>
      </trkpt>
      <trkpt lat="38.360430" lon="-1.139000">
        <ele>536.1</ele>
        <time>2017-02-04T10:17:19Z</time>
      </trkpt>
      <trkpt lat="38.360589" lon="-1.139229">
        <ele>536.1</ele>
        <time>2017-02-04T10:17:35Z</time>
      </trkpt>
      <trkpt lat="38.360631" lon="-1.139286">
        <ele>535.1</ele>
        <time>2017-02-04T10:17:40Z</time>
      </trkpt>
      <trkpt lat="38.360800" lon="-1.139462">
        <ele>535.1</ele>
        <time>2017-02-04T10:17:58Z</time>
      </trkpt>
      <trkpt lat="38.360911" lon="-1.139613">
        <ele>534.2</ele>
        <time>2017-02-04T10:18:16Z</time>
      </trkpt>
      <trkpt lat="38.360911" lon="-1.139615">
        <ele>533.7</ele>
        <time>2017-02-04T10:18:18Z</time>
      </trkpt>
      <trkpt lat="38.360944" lon="-1.139876">
        <ele>531.8</ele>
        <time>2017-02-04T10:18:33Z</time>
      </trkpt>
      <trkpt lat="38.360912" lon="-1.139911">
        <ele>532.7</ele>
        <time>2017-02-04T10:18:38Z</time>
      </trkpt>
      <trkpt lat="38.360860" lon="-1.139934">
        <ele>532.2</ele>
        <time>2017-02-04T10:18:42Z</time>
      </trkpt>
      <trkpt lat="38.360584" lon="-1.139986">
        <ele>533.2</ele>
        <time>2017-02-04T10:19:01Z</time>
      </trkpt>
      <trkpt lat="38.360440" lon="-1.140017">
        <ele>531.8</ele>
        <time>2017-02-04T10:19:13Z</time>
      </trkpt>
      <trkpt lat="38.360384" lon="-1.140036">
        <ele>532.2</ele>
        <time>2017-02-04T10:19:18Z</time>
      </trkpt>
      <trkpt lat="38.360317" lon="-1.140056">
        <ele>532.2</ele>
        <time>2017-02-04T10:19:23Z</time>
      </trkpt>
      <trkpt lat="38.360236" lon="-1.140060">
        <ele>530.8</ele>
        <time>2017-02-04T10:19:29Z</time>
      </trkpt>
      <trkpt lat="38.360159" lon="-1.140089">
        <ele>530.8</ele>
        <time>2017-02-04T10:19:35Z</time>
      </trkpt>
      <trkpt lat="38.359957" lon="-1.140170">
        <ele>528.4</ele>
        <time>2017-02-04T10:19:52Z</time>
      </trkpt>
      <trkpt lat="38.359798" lon="-1.140357">
        <ele>526.9</ele>
        <time>2017-02-04T10:20:09Z</time>
      </trkpt>
      <trkpt lat="38.359680" lon="-1.140555">
        <ele>528.4</ele>
        <time>2017-02-04T10:20:24Z</time>
      </trkpt>
      <trkpt lat="38.359625" lon="-1.140684">
        <ele>529.8</ele>
        <time>2017-02-04T10:20:38Z</time>
      </trkpt>
      <trkpt lat="38.359624" lon="-1.140689">
        <ele>529.8</ele>
        <time>2017-02-04T10:20:41Z</time>
      </trkpt>
      <trkpt lat="38.359492" lon="-1.140931">
        <ele>528.9</ele>
        <time>2017-02-04T10:20:58Z</time>
      </trkpt>
      <trkpt lat="38.359324" lon="-1.141151">
        <ele>529.8</ele>
        <time>2017-02-04T10:21:16Z</time>
      </trkpt>
      <trkpt lat="38.359321" lon="-1.141154">
        <ele>529.3</ele>
        <time>2017-02-04T10:21:17Z</time>
      </trkpt>
      <trkpt lat="38.359218" lon="-1.141277">
        <ele>529.8</ele>
        <time>2017-02-04T10:21:31Z</time>
      </trkpt>
      <trkpt lat="38.359118" lon="-1.141365">
        <ele>529.3</ele>
        <time>2017-02-04T10:21:41Z</time>
      </trkpt>
      <trkpt lat="38.358968" lon="-1.141472">
        <ele>528.9</ele>
        <time>2017-02-04T10:21:55Z</time>
      </trkpt>
      <trkpt lat="38.358837" lon="-1.141584">
        <ele>528.9</ele>
        <time>2017-02-04T10:22:07Z</time>
      </trkpt>
      <trkpt lat="38.358712" lon="-1.141694">
        <ele>530.8</ele>
        <time>2017-02-04T10:22:20Z</time>
      </trkpt>
      <trkpt lat="38.358661" lon="-1.141756">
        <ele>530.8</ele>
        <time>2017-02-04T10:22:26Z</time>
      </trkpt>
      <trkpt lat="38.358621" lon="-1.141821">
        <ele>531.8</ele>
        <time>2017-02-04T10:22:31Z</time>
      </trkpt>
      <trkpt lat="38.358602" lon="-1.141841">
        <ele>531.3</ele>
        <time>2017-02-04T10:22:33Z</time>
      </trkpt>
      <trkpt lat="38.358485" lon="-1.141926">
        <ele>531.8</ele>
        <time>2017-02-04T10:22:44Z</time>
      </trkpt>
      <trkpt lat="38.358376" lon="-1.142030">
        <ele>531.3</ele>
        <time>2017-02-04T10:22:55Z</time>
      </trkpt>
      <trkpt lat="38.358242" lon="-1.142204">
        <ele>531.8</ele>
        <time>2017-02-04T10:23:10Z</time>
      </trkpt>
      <trkpt lat="38.358222" lon="-1.142229">
        <ele>531.8</ele>
        <time>2017-02-04T10:23:12Z</time>
      </trkpt>
      <trkpt lat="38.358181" lon="-1.142290">
        <ele>531.3</ele>
        <time>2017-02-04T10:23:17Z</time>
      </trkpt>
      <trkpt lat="38.358156" lon="-1.142329">
        <ele>531.8</ele>
        <time>2017-02-04T10:23:20Z</time>
      </trkpt>
      <trkpt lat="38.358083" lon="-1.142450">
        <ele>534.0</ele>
        <time>2017-02-04T10:23:29Z</time>
      </trkpt>
      <trkpt lat="38.358069" lon="-1.142455">
        <ele>535.6</ele>
        <time>2017-02-04T10:23:30Z</time>
      </trkpt>
      <trkpt lat="38.358063" lon="-1.142464">
        <ele>534.2</ele>
        <time>2017-02-04T10:23:31Z</time>
      </trkpt>
      <trkpt lat="38.358055" lon="-1.142480">
        <ele>531.3</ele>
        <time>2017-02-04T10:23:33Z</time>
      </trkpt>
      <trkpt lat="38.357929" lon="-1.142678">
        <ele>530.8</ele>
        <time>2017-02-04T10:23:50Z</time>
      </trkpt>
      <trkpt lat="38.357816" lon="-1.142870">
        <ele>530.8</ele>
        <time>2017-02-04T10:24:04Z</time>
      </trkpt>
      <trkpt lat="38.357746" lon="-1.143042">
        <ele>530.8</ele>
        <time>2017-02-04T10:24:16Z</time>
      </trkpt>
      <trkpt lat="38.357737" lon="-1.143060">
        <ele>530.3</ele>
        <time>2017-02-04T10:24:17Z</time>
      </trkpt>
      <trkpt lat="38.357651" lon="-1.143288">
        <ele>530.8</ele>
        <time>2017-02-04T10:24:31Z</time>
      </trkpt>
      <trkpt lat="38.357611" lon="-1.143500">
        <ele>530.3</ele>
        <time>2017-02-04T10:24:44Z</time>
      </trkpt>
      <trkpt lat="38.357591" lon="-1.143657">
        <ele>530.3</ele>
        <time>2017-02-04T10:24:53Z</time>
      </trkpt>
      <trkpt lat="38.357535" lon="-1.143815">
        <ele>530.3</ele>
        <time>2017-02-04T10:25:02Z</time>
      </trkpt>
      <trkpt lat="38.357471" lon="-1.144037">
        <ele>530.8</ele>
        <time>2017-02-04T10:25:17Z</time>
      </trkpt>
      <trkpt lat="38.357386" lon="-1.144176">
        <ele>529.8</ele>
        <time>2017-02-04T10:25:27Z</time>
      </trkpt>
      <trkpt lat="38.357273" lon="-1.144368">
        <ele>529.3</ele>
        <time>2017-02-04T10:25:42Z</time>
      </trkpt>
      <trkpt lat="38.357188" lon="-1.144510">
        <ele>529.8</ele>
        <time>2017-02-04T10:25:53Z</time>
      </trkpt>
      <trkpt lat="38.357136" lon="-1.144573">
        <ele>530.3</ele>
        <time>2017-02-04T10:25:58Z</time>
      </trkpt>
      <trkpt lat="38.356978" lon="-1.144746">
        <ele>529.8</ele>
        <time>2017-02-04T10:26:13Z</time>
      </trkpt>
      <trkpt lat="38.356926" lon="-1.144824">
        <ele>529.8</ele>
        <time>2017-02-04T10:26:27Z</time>
      </trkpt>
      <trkpt lat="38.356849" lon="-1.144945">
        <ele>529.8</ele>
        <time>2017-02-04T10:27:13Z</time>
      </trkpt>
      <trkpt lat="38.356728" lon="-1.145161">
        <ele>530.3</ele>
        <time>2017-02-04T10:27:28Z</time>
      </trkpt>
      <trkpt lat="38.356645" lon="-1.145285">
        <ele>529.3</ele>
        <time>2017-02-04T10:27:39Z</time>
      </trkpt>
      <trkpt lat="38.356606" lon="-1.145333">
        <ele>529.8</ele>
        <time>2017-02-04T10:27:44Z</time>
      </trkpt>
      <trkpt lat="38.356563" lon="-1.145410">
        <ele>529.8</ele>
        <time>2017-02-04T10:27:50Z</time>
      </trkpt>
      <trkpt lat="38.356503" lon="-1.145507">
        <ele>529.8</ele>
        <time>2017-02-04T10:27:58Z</time>
      </trkpt>
      <trkpt lat="38.356452" lon="-1.145567">
        <ele>530.3</ele>
        <time>2017-02-04T10:28:04Z</time>
      </trkpt>
      <trkpt lat="38.356428" lon="-1.145628">
        <ele>529.8</ele>
        <time>2017-02-04T10:28:08Z</time>
      </trkpt>
      <trkpt lat="38.356332" lon="-1.145828">
        <ele>528.9</ele>
        <time>2017-02-04T10:28:22Z</time>
      </trkpt>
      <trkpt lat="38.356215" lon="-1.146081">
        <ele>530.3</ele>
        <time>2017-02-04T10:28:40Z</time>
      </trkpt>
      <trkpt lat="38.356195" lon="-1.146154">
        <ele>529.8</ele>
        <time>2017-02-04T10:28:45Z</time>
      </trkpt>
      <trkpt lat="38.356131" lon="-1.146296">
        <ele>530.3</ele>
        <time>2017-02-04T10:28:55Z</time>
      </trkpt>
      <trkpt lat="38.356114" lon="-1.146320">
        <ele>531.3</ele>
        <time>2017-02-04T10:28:58Z</time>
      </trkpt>
      <trkpt lat="38.356044" lon="-1.146442">
        <ele>530.8</ele>
        <time>2017-02-04T10:29:07Z</time>
      </trkpt>
      <trkpt lat="38.355902" lon="-1.146663">
        <ele>530.8</ele>
        <time>2017-02-04T10:29:24Z</time>
      </trkpt>
      <trkpt lat="38.355866" lon="-1.146721">
        <ele>530.8</ele>
        <time>2017-02-04T10:29:28Z</time>
      </trkpt>
      <trkpt lat="38.355838" lon="-1.146753">
        <ele>530.8</ele>
        <time>2017-02-04T10:29:31Z</time>
      </trkpt>
      <trkpt lat="38.355725" lon="-1.146984">
        <ele>531.3</ele>
        <time>2017-02-04T10:29:48Z</time>
      </trkpt>
      <trkpt lat="38.355722" lon="-1.146998">
        <ele>530.3</ele>
        <time>2017-02-04T10:29:49Z</time>
      </trkpt>
      <trkpt lat="38.355647" lon="-1.147158">
        <ele>530.3</ele>
        <time>2017-02-04T10:30:02Z</time>
      </trkpt>
      <trkpt lat="38.355543" lon="-1.147325">
        <ele>529.8</ele>
        <time>2017-02-04T10:30:16Z</time>
      </trkpt>
      <trkpt lat="38.355494" lon="-1.147386">
        <ele>528.9</ele>
        <time>2017-02-04T10:30:22Z</time>
      </trkpt>
      <trkpt lat="38.355452" lon="-1.147423">
        <ele>529.8</ele>
        <time>2017-02-04T10:30:26Z</time>
      </trkpt>
      <trkpt lat="38.355377" lon="-1.147462">
        <ele>529.8</ele>
        <time>2017-02-04T10:30:43Z</time>
      </trkpt>
      <trkpt lat="38.355378" lon="-1.147465">
        <ele>529.8</ele>
        <time>2017-02-04T10:30:46Z</time>
      </trkpt>
      <trkpt lat="38.355230" lon="-1.147677">
        <ele>528.9</ele>
        <time>2017-02-04T10:31:01Z</time>
      </trkpt>
      <trkpt lat="38.355113" lon="-1.147838">
        <ele>528.4</ele>
        <time>2017-02-04T10:31:13Z</time>
      </trkpt>
      <trkpt lat="38.355038" lon="-1.147905">
        <ele>528.4</ele>
        <time>2017-02-04T10:31:24Z</time>
      </trkpt>
      <trkpt lat="38.355036" lon="-1.147905">
        <ele>527.9</ele>
        <time>2017-02-04T10:31:25Z</time>
      </trkpt>
      <trkpt lat="38.354985" lon="-1.148013">
        <ele>527.9</ele>
        <time>2017-02-04T10:31:33Z</time>
      </trkpt>
      <trkpt lat="38.354889" lon="-1.148157">
        <ele>526.9</ele>
        <time>2017-02-04T10:31:44Z</time>
      </trkpt>
      <trkpt lat="38.354794" lon="-1.148348">
        <ele>526.5</ele>
        <time>2017-02-04T10:31:57Z</time>
      </trkpt>
      <trkpt lat="38.354658" lon="-1.148624">
        <ele>525.0</ele>
        <time>2017-02-04T10:32:16Z</time>
      </trkpt>
      <trkpt lat="38.354562" lon="-1.148833">
        <ele>525.0</ele>
        <time>2017-02-04T10:32:32Z</time>
      </trkpt>
      <trkpt lat="38.354540" lon="-1.148857">
        <ele>525.0</ele>
        <time>2017-02-04T10:32:39Z</time>
      </trkpt>
      <trkpt lat="38.354534" lon="-1.148959">
        <ele>525.0</ele>
        <time>2017-02-04T10:32:50Z</time>
      </trkpt>
      <trkpt lat="38.354527" lon="-1.148964">
        <ele>525.0</ele>
        <time>2017-02-04T10:32:57Z</time>
      </trkpt>
      <trkpt lat="38.354396" lon="-1.149271">
        <ele>523.6</ele>
        <time>2017-02-04T10:33:15Z</time>
      </trkpt>
      <trkpt lat="38.354386" lon="-1.149325">
        <ele>522.1</ele>
        <time>2017-02-04T10:33:18Z</time>
      </trkpt>
      <trkpt lat="38.354298" lon="-1.149579">
        <ele>522.6</ele>
        <time>2017-02-04T10:33:33Z</time>
      </trkpt>
      <trkpt lat="38.354244" lon="-1.149800">
        <ele>522.6</ele>
        <time>2017-02-04T10:33:46Z</time>
      </trkpt>
      <trkpt lat="38.354208" lon="-1.149995">
        <ele>522.6</ele>
        <time>2017-02-04T10:33:58Z</time>
      </trkpt>
      <trkpt lat="38.354202" lon="-1.150032">
        <ele>522.6</ele>
        <time>2017-02-04T10:34:04Z</time>
      </trkpt>
      <trkpt lat="38.354144" lon="-1.150300">
        <ele>521.7</ele>
        <time>2017-02-04T10:34:21Z</time>
      </trkpt>
      <trkpt lat="38.354115" lon="-1.150451">
        <ele>521.2</ele>
        <time>2017-02-04T10:34:30Z</time>
      </trkpt>
      <trkpt lat="38.354036" lon="-1.150602">
        <ele>522.1</ele>
        <time>2017-02-04T10:34:44Z</time>
      </trkpt>
      <trkpt lat="38.353993" lon="-1.150710">
        <ele>522.1</ele>
        <time>2017-02-04T10:34:51Z</time>
      </trkpt>
      <trkpt lat="38.353929" lon="-1.150863">
        <ele>521.7</ele>
        <time>2017-02-04T10:35:05Z</time>
      </trkpt>
      <trkpt lat="38.353926" lon="-1.150876">
        <ele>521.7</ele>
        <time>2017-02-04T10:35:07Z</time>
      </trkpt>
      <trkpt lat="38.353839" lon="-1.151103">
        <ele>521.7</ele>
        <time>2017-02-04T10:36:31Z</time>
      </trkpt>
      <trkpt lat="38.353753" lon="-1.151328">
        <ele>521.7</ele>
        <time>2017-02-04T10:36:45Z</time>
      </trkpt>
      <trkpt lat="38.353693" lon="-1.151617">
        <ele>521.7</ele>
        <time>2017-02-04T10:37:02Z</time>
      </trkpt>
      <trkpt lat="38.353621" lon="-1.151900">
        <ele>521.7</ele>
        <time>2017-02-04T10:37:20Z</time>
      </trkpt>
      <trkpt lat="38.353579" lon="-1.152159">
        <ele>520.7</ele>
        <time>2017-02-04T10:37:35Z</time>
      </trkpt>
      <trkpt lat="38.353511" lon="-1.152387">
        <ele>519.2</ele>
        <time>2017-02-04T10:37:48Z</time>
      </trkpt>
      <trkpt lat="38.353346" lon="-1.152654">
        <ele>517.8</ele>
        <time>2017-02-04T10:38:08Z</time>
      </trkpt>
      <trkpt lat="38.353170" lon="-1.152878">
        <ele>516.8</ele>
        <time>2017-02-04T10:38:26Z</time>
      </trkpt>
      <trkpt lat="38.353053" lon="-1.153182">
        <ele>516.8</ele>
        <time>2017-02-04T10:38:46Z</time>
      </trkpt>
      <trkpt lat="38.352955" lon="-1.153417">
        <ele>516.8</ele>
        <time>2017-02-04T10:39:02Z</time>
      </trkpt>
      <trkpt lat="38.352924" lon="-1.153627">
        <ele>514.4</ele>
        <time>2017-02-04T10:39:15Z</time>
      </trkpt>
      <trkpt lat="38.352921" lon="-1.153756">
        <ele>514.9</ele>
        <time>2017-02-04T10:39:24Z</time>
      </trkpt>
      <trkpt lat="38.352913" lon="-1.153826">
        <ele>513.0</ele>
        <time>2017-02-04T10:39:28Z</time>
      </trkpt>
      <trkpt lat="38.352915" lon="-1.153843">
        <ele>513.5</ele>
        <time>2017-02-04T10:39:29Z</time>
      </trkpt>
      <trkpt lat="38.352924" lon="-1.154201">
        <ele>513.5</ele>
        <time>2017-02-04T10:39:45Z</time>
      </trkpt>
      <trkpt lat="38.352945" lon="-1.154358">
        <ele>513.5</ele>
        <time>2017-02-04T10:39:55Z</time>
      </trkpt>
      <trkpt lat="38.352926" lon="-1.154501">
        <ele>513.0</ele>
        <time>2017-02-04T10:40:03Z</time>
      </trkpt>
      <trkpt lat="38.352920" lon="-1.154565">
        <ele>512.5</ele>
        <time>2017-02-04T10:40:07Z</time>
      </trkpt>
      <trkpt lat="38.352806" lon="-1.154844">
        <ele>513.5</ele>
        <time>2017-02-04T10:40:24Z</time>
      </trkpt>
      <trkpt lat="38.352762" lon="-1.154920">
        <ele>513.0</ele>
        <time>2017-02-04T10:40:30Z</time>
      </trkpt>
      <trkpt lat="38.352708" lon="-1.155079">
        <ele>512.5</ele>
        <time>2017-02-04T10:40:41Z</time>
      </trkpt>
      <trkpt lat="38.352657" lon="-1.155133">
        <ele>513.0</ele>
        <time>2017-02-04T10:40:46Z</time>
      </trkpt>
      <trkpt lat="38.352564" lon="-1.155373">
        <ele>513.0</ele>
        <time>2017-02-04T10:41:01Z</time>
      </trkpt>
      <trkpt lat="38.352459" lon="-1.155570">
        <ele>512.5</ele>
        <time>2017-02-04T10:41:14Z</time>
      </trkpt>
      <trkpt lat="38.352388" lon="-1.155679">
        <ele>512.5</ele>
        <time>2017-02-04T10:41:22Z</time>
      </trkpt>
      <trkpt lat="38.352340" lon="-1.155767">
        <ele>511.1</ele>
        <time>2017-02-04T10:41:35Z</time>
      </trkpt>
      <trkpt lat="38.352330" lon="-1.155774">
        <ele>515.9</ele>
        <time>2017-02-04T10:41:37Z</time>
      </trkpt>
      <trkpt lat="38.352324" lon="-1.155784">
        <ele>511.1</ele>
        <time>2017-02-04T10:41:44Z</time>
      </trkpt>
      <trkpt lat="38.352320" lon="-1.155791">
        <ele>512.0</ele>
        <time>2017-02-04T10:41:45Z</time>
      </trkpt>
      <trkpt lat="38.352282" lon="-1.155867">
        <ele>514.4</ele>
        <time>2017-02-04T10:41:57Z</time>
      </trkpt>
      <trkpt lat="38.352258" lon="-1.155947">
        <ele>512.5</ele>
        <time>2017-02-04T10:43:12Z</time>
      </trkpt>
      <trkpt lat="38.352209" lon="-1.156072">
        <ele>513.0</ele>
        <time>2017-02-04T10:43:21Z</time>
      </trkpt>
      <trkpt lat="38.352130" lon="-1.156295">
        <ele>513.5</ele>
        <time>2017-02-04T10:43:36Z</time>
      </trkpt>
      <trkpt lat="38.352016" lon="-1.156546">
        <ele>513.5</ele>
        <time>2017-02-04T10:43:53Z</time>
      </trkpt>
      <trkpt lat="38.351997" lon="-1.156649">
        <ele>510.1</ele>
        <time>2017-02-04T10:43:59Z</time>
      </trkpt>
      <trkpt lat="38.351994" lon="-1.156665">
        <ele>514.9</ele>
        <time>2017-02-04T10:44:00Z</time>
      </trkpt>
      <trkpt lat="38.351972" lon="-1.156748">
        <ele>511.6</ele>
        <time>2017-02-04T10:44:05Z</time>
      </trkpt>
      <trkpt lat="38.351909" lon="-1.157022">
        <ele>512.0</ele>
        <time>2017-02-04T10:44:22Z</time>
      </trkpt>
      <trkpt lat="38.351829" lon="-1.157247">
        <ele>510.6</ele>
        <time>2017-02-04T10:44:37Z</time>
      </trkpt>
      <trkpt lat="38.351686" lon="-1.157483">
        <ele>512.5</ele>
        <time>2017-02-04T10:44:55Z</time>
      </trkpt>
      <trkpt lat="38.351542" lon="-1.157678">
        <ele>511.6</ele>
        <time>2017-02-04T10:45:10Z</time>
      </trkpt>
      <trkpt lat="38.351391" lon="-1.157909">
        <ele>512.0</ele>
        <time>2017-02-04T10:45:27Z</time>
      </trkpt>
      <trkpt lat="38.351266" lon="-1.158088">
        <ele>512.0</ele>
        <time>2017-02-04T10:45:41Z</time>
      </trkpt>
      <trkpt lat="38.351223" lon="-1.158127">
        <ele>512.5</ele>
        <time>2017-02-04T10:45:45Z</time>
      </trkpt>
      <trkpt lat="38.351189" lon="-1.158173">
        <ele>512.5</ele>
        <time>2017-02-04T10:45:48Z</time>
      </trkpt>
      <trkpt lat="38.351019" lon="-1.158383">
        <ele>513.0</ele>
        <time>2017-02-04T10:46:05Z</time>
      </trkpt>
      <trkpt lat="38.350965" lon="-1.158428">
        <ele>512.5</ele>
        <time>2017-02-04T10:46:10Z</time>
      </trkpt>
      <trkpt lat="38.350870" lon="-1.158525">
        <ele>513.5</ele>
        <time>2017-02-04T10:46:20Z</time>
      </trkpt>
      <trkpt lat="38.350669" lon="-1.158628">
        <ele>513.0</ele>
        <time>2017-02-04T10:46:37Z</time>
      </trkpt>
      <trkpt lat="38.350480" lon="-1.158684">
        <ele>511.6</ele>
        <time>2017-02-04T10:46:52Z</time>
      </trkpt>
      <trkpt lat="38.350336" lon="-1.158725">
        <ele>512.0</ele>
        <time>2017-02-04T10:47:03Z</time>
      </trkpt>
      <trkpt lat="38.350145" lon="-1.158734">
        <ele>511.6</ele>
        <time>2017-02-04T10:47:17Z</time>
      </trkpt>
      <trkpt lat="38.349921" lon="-1.158784">
        <ele>510.6</ele>
        <time>2017-02-04T10:47:34Z</time>
      </trkpt>
      <trkpt lat="38.349718" lon="-1.158851">
        <ele>511.1</ele>
        <time>2017-02-04T10:47:49Z</time>
      </trkpt>
      <trkpt lat="38.349512" lon="-1.158924">
        <ele>510.6</ele>
        <time>2017-02-04T10:48:05Z</time>
      </trkpt>
      <trkpt lat="38.349324" lon="-1.159005">
        <ele>508.7</ele>
        <time>2017-02-04T10:48:20Z</time>
      </trkpt>
      <trkpt lat="38.349119" lon="-1.159090">
        <ele>509.2</ele>
        <time>2017-02-04T10:48:37Z</time>
      </trkpt>
      <trkpt lat="38.348930" lon="-1.159165">
        <ele>507.7</ele>
        <time>2017-02-04T10:48:53Z</time>
      </trkpt>
      <trkpt lat="38.348921" lon="-1.159193">
        <ele>507.7</ele>
        <time>2017-02-04T10:48:59Z</time>
      </trkpt>
      <trkpt lat="38.348921" lon="-1.159507">
        <ele>506.3</ele>
        <time>2017-02-04T10:49:16Z</time>
      </trkpt>
      <trkpt lat="38.348989" lon="-1.159812">
        <ele>505.8</ele>
        <time>2017-02-04T10:49:34Z</time>
      </trkpt>
      <trkpt lat="38.349019" lon="-1.159972">
        <ele>505.8</ele>
        <time>2017-02-04T10:49:44Z</time>
      </trkpt>
      <trkpt lat="38.349126" lon="-1.160248">
        <ele>504.4</ele>
        <time>2017-02-04T10:50:02Z</time>
      </trkpt>
      <trkpt lat="38.349268" lon="-1.160492">
        <ele>503.9</ele>
        <time>2017-02-04T10:50:20Z</time>
      </trkpt>
      <trkpt lat="38.349419" lon="-1.160727">
        <ele>502.4</ele>
        <time>2017-02-04T10:50:38Z</time>
      </trkpt>
      <trkpt lat="38.349600" lon="-1.160997">
        <ele>502.4</ele>
        <time>2017-02-04T10:50:59Z</time>
      </trkpt>
      <trkpt lat="38.349781" lon="-1.161248">
        <ele>502.0</ele>
        <time>2017-02-04T10:51:20Z</time>
      </trkpt>
      <trkpt lat="38.349977" lon="-1.161523">
        <ele>502.0</ele>
        <time>2017-02-04T10:51:41Z</time>
      </trkpt>
      <trkpt lat="38.350109" lon="-1.161738">
        <ele>501.5</ele>
        <time>2017-02-04T10:51:58Z</time>
      </trkpt>
      <trkpt lat="38.350270" lon="-1.161967">
        <ele>500.5</ele>
        <time>2017-02-04T10:52:15Z</time>
      </trkpt>
      <trkpt lat="38.350411" lon="-1.162181">
        <ele>500.5</ele>
        <time>2017-02-04T10:52:31Z</time>
      </trkpt>
      <trkpt lat="38.350536" lon="-1.162387">
        <ele>498.6</ele>
        <time>2017-02-04T10:52:47Z</time>
      </trkpt>
      <trkpt lat="38.350633" lon="-1.162681">
        <ele>498.1</ele>
        <time>2017-02-04T10:53:06Z</time>
      </trkpt>
      <trkpt lat="38.350654" lon="-1.162949">
        <ele>497.1</ele>
        <time>2017-02-04T10:53:23Z</time>
      </trkpt>
      <trkpt lat="38.350644" lon="-1.163187">
        <ele>496.2</ele>
        <time>2017-02-04T10:53:37Z</time>
      </trkpt>
      <trkpt lat="38.350623" lon="-1.163532">
        <ele>495.7</ele>
        <time>2017-02-04T10:53:57Z</time>
      </trkpt>
      <trkpt lat="38.350584" lon="-1.163802">
        <ele>495.7</ele>
        <time>2017-02-04T10:54:14Z</time>
      </trkpt>
      <trkpt lat="38.350549" lon="-1.164053">
        <ele>496.2</ele>
        <time>2017-02-04T10:54:30Z</time>
      </trkpt>
      <trkpt lat="38.350505" lon="-1.164355">
        <ele>496.2</ele>
        <time>2017-02-04T10:54:49Z</time>
      </trkpt>
      <trkpt lat="38.350479" lon="-1.164519">
        <ele>495.7</ele>
        <time>2017-02-04T10:54:59Z</time>
      </trkpt>
      <trkpt lat="38.350437" lon="-1.164842">
        <ele>495.7</ele>
        <time>2017-02-04T10:55:18Z</time>
      </trkpt>
      <trkpt lat="38.350411" lon="-1.165109">
        <ele>495.2</ele>
        <time>2017-02-04T10:55:34Z</time>
      </trkpt>
      <trkpt lat="38.350378" lon="-1.165283">
        <ele>495.2</ele>
        <time>2017-02-04T10:55:45Z</time>
      </trkpt>
      <trkpt lat="38.350354" lon="-1.165530">
        <ele>496.2</ele>
        <time>2017-02-04T10:56:00Z</time>
      </trkpt>
      <trkpt lat="38.350351" lon="-1.165539">
        <ele>496.7</ele>
        <time>2017-02-04T10:56:01Z</time>
      </trkpt>
      <trkpt lat="38.350333" lon="-1.165775">
        <ele>495.7</ele>
        <time>2017-02-04T10:56:15Z</time>
      </trkpt>
      <trkpt lat="38.350311" lon="-1.165888">
        <ele>495.7</ele>
        <time>2017-02-04T10:56:22Z</time>
      </trkpt>
      <trkpt lat="38.350271" lon="-1.166152">
        <ele>496.2</ele>
        <time>2017-02-04T10:56:38Z</time>
      </trkpt>
      <trkpt lat="38.350227" lon="-1.166245">
        <ele>495.7</ele>
        <time>2017-02-04T10:56:44Z</time>
      </trkpt>
      <trkpt lat="38.350159" lon="-1.166323">
        <ele>496.2</ele>
        <time>2017-02-04T10:56:52Z</time>
      </trkpt>
      <trkpt lat="38.349978" lon="-1.166437">
        <ele>494.7</ele>
        <time>2017-02-04T10:57:09Z</time>
      </trkpt>
      <trkpt lat="38.349811" lon="-1.166557">
        <ele>494.7</ele>
        <time>2017-02-04T10:57:24Z</time>
      </trkpt>
      <trkpt lat="38.349720" lon="-1.166624">
        <ele>495.7</ele>
        <time>2017-02-04T10:57:35Z</time>
      </trkpt>
      <trkpt lat="38.349555" lon="-1.166724">
        <ele>494.7</ele>
        <time>2017-02-04T10:57:50Z</time>
      </trkpt>
      <trkpt lat="38.349420" lon="-1.166817">
        <ele>494.3</ele>
        <time>2017-02-04T10:58:02Z</time>
      </trkpt>
      <trkpt lat="38.349273" lon="-1.166933">
        <ele>494.3</ele>
        <time>2017-02-04T10:58:17Z</time>
      </trkpt>
      <trkpt lat="38.349105" lon="-1.167118">
        <ele>494.3</ele>
        <time>2017-02-04T10:58:34Z</time>
      </trkpt>
      <trkpt lat="38.349080" lon="-1.167149">
        <ele>494.7</ele>
        <time>2017-02-04T10:58:37Z</time>
      </trkpt>
      <trkpt lat="38.348979" lon="-1.167315">
        <ele>494.3</ele>
        <time>2017-02-04T10:58:51Z</time>
      </trkpt>
      <trkpt lat="38.348857" lon="-1.167534">
        <ele>492.8</ele>
        <time>2017-02-04T10:59:08Z</time>
      </trkpt>
      <trkpt lat="38.348774" lon="-1.167694">
        <ele>493.8</ele>
        <time>2017-02-04T10:59:24Z</time>
      </trkpt>
      <trkpt lat="38.348693" lon="-1.167761">
        <ele>493.8</ele>
        <time>2017-02-04T10:59:36Z</time>
      </trkpt>
      <trkpt lat="38.348698" lon="-1.167761">
        <ele>493.3</ele>
        <time>2017-02-04T10:59:44Z</time>
      </trkpt>
      <trkpt lat="38.348635" lon="-1.167890">
        <ele>492.8</ele>
        <time>2017-02-04T10:59:56Z</time>
      </trkpt>
      <trkpt lat="38.348571" lon="-1.168003">
        <ele>492.8</ele>
        <time>2017-02-04T11:00:03Z</time>
      </trkpt>
      <trkpt lat="38.348506" lon="-1.168119">
        <ele>493.8</ele>
        <time>2017-02-04T11:00:11Z</time>
      </trkpt>
      <trkpt lat="38.348330" lon="-1.168406">
        <ele>492.8</ele>
        <time>2017-02-04T11:00:29Z</time>
      </trkpt>
      <trkpt lat="38.348284" lon="-1.168455">
        <ele>493.3</ele>
        <time>2017-02-04T11:00:34Z</time>
      </trkpt>
      <trkpt lat="38.348264" lon="-1.168485">
        <ele>492.3</ele>
        <time>2017-02-04T11:00:37Z</time>
      </trkpt>
      <trkpt lat="38.348239" lon="-1.168526">
        <ele>491.9</ele>
        <time>2017-02-04T11:00:41Z</time>
      </trkpt>
      <trkpt lat="38.348109" lon="-1.168700">
        <ele>491.4</ele>
        <time>2017-02-04T11:00:59Z</time>
      </trkpt>
      <trkpt lat="38.347938" lon="-1.168962">
        <ele>490.9</ele>
        <time>2017-02-04T11:01:20Z</time>
      </trkpt>
      <trkpt lat="38.347788" lon="-1.169123">
        <ele>489.9</ele>
        <time>2017-02-04T11:01:38Z</time>
      </trkpt>
      <trkpt lat="38.347625" lon="-1.169308">
        <ele>490.4</ele>
        <time>2017-02-04T11:01:54Z</time>
      </trkpt>
      <trkpt lat="38.347512" lon="-1.169422">
        <ele>490.4</ele>
        <time>2017-02-04T11:02:06Z</time>
      </trkpt>
      <trkpt lat="38.347442" lon="-1.169491">
        <ele>490.4</ele>
        <time>2017-02-04T11:02:18Z</time>
      </trkpt>
      <trkpt lat="38.347424" lon="-1.169497">
        <ele>490.4</ele>
        <time>2017-02-04T11:02:20Z</time>
      </trkpt>
      <trkpt lat="38.347344" lon="-1.169557">
        <ele>489.5</ele>
        <time>2017-02-04T11:02:28Z</time>
      </trkpt>
      <trkpt lat="38.347285" lon="-1.169671">
        <ele>495.2</ele>
        <time>2017-02-04T11:28:06Z</time>
      </trkpt>
      <trkpt lat="38.347275" lon="-1.169700">
        <ele>494.7</ele>
        <time>2017-02-04T11:28:08Z</time>
      </trkpt>
      <trkpt lat="38.347257" lon="-1.169717">
        <ele>493.8</ele>
        <time>2017-02-04T11:28:18Z</time>
      </trkpt>
      <trkpt lat="38.347249" lon="-1.169736">
        <ele>494.3</ele>
        <time>2017-02-04T11:28:19Z</time>
      </trkpt>
      <trkpt lat="38.347149" lon="-1.169969">
        <ele>492.8</ele>
        <time>2017-02-04T11:28:33Z</time>
      </trkpt>
      <trkpt lat="38.346934" lon="-1.170096">
        <ele>492.3</ele>
        <time>2017-02-04T11:28:49Z</time>
      </trkpt>
      <trkpt lat="38.346789" lon="-1.170235">
        <ele>492.3</ele>
        <time>2017-02-04T11:29:04Z</time>
      </trkpt>
      <trkpt lat="38.346724" lon="-1.170310">
        <ele>491.9</ele>
        <time>2017-02-04T11:29:10Z</time>
      </trkpt>
      <trkpt lat="38.346699" lon="-1.170386">
        <ele>491.9</ele>
        <time>2017-02-04T11:29:14Z</time>
      </trkpt>
      <trkpt lat="38.346556" lon="-1.170646">
        <ele>490.9</ele>
        <time>2017-02-04T11:29:31Z</time>
      </trkpt>
      <trkpt lat="38.346405" lon="-1.170925">
        <ele>489.0</ele>
        <time>2017-02-04T11:29:49Z</time>
      </trkpt>
      <trkpt lat="38.346226" lon="-1.171100">
        <ele>490.9</ele>
        <time>2017-02-04T11:30:04Z</time>
      </trkpt>
      <trkpt lat="38.346018" lon="-1.171322">
        <ele>490.4</ele>
        <time>2017-02-04T11:30:23Z</time>
      </trkpt>
      <trkpt lat="38.346008" lon="-1.171342">
        <ele>490.4</ele>
        <time>2017-02-04T11:30:25Z</time>
      </trkpt>
      <trkpt lat="38.345977" lon="-1.171435">
        <ele>489.9</ele>
        <time>2017-02-04T11:30:31Z</time>
      </trkpt>
      <trkpt lat="38.345913" lon="-1.171764">
        <ele>489.9</ele>
        <time>2017-02-04T11:30:49Z</time>
      </trkpt>
      <trkpt lat="38.345772" lon="-1.172007">
        <ele>489.9</ele>
        <time>2017-02-04T11:31:06Z</time>
      </trkpt>
      <trkpt lat="38.345619" lon="-1.172262">
        <ele>489.9</ele>
        <time>2017-02-04T11:31:23Z</time>
      </trkpt>
      <trkpt lat="38.345474" lon="-1.172516">
        <ele>489.5</ele>
        <time>2017-02-04T11:31:40Z</time>
      </trkpt>
      <trkpt lat="38.345290" lon="-1.172748">
        <ele>489.0</ele>
        <time>2017-02-04T11:31:58Z</time>
      </trkpt>
      <trkpt lat="38.345124" lon="-1.172939">
        <ele>489.0</ele>
        <time>2017-02-04T11:32:13Z</time>
      </trkpt>
      <trkpt lat="38.344945" lon="-1.173144">
        <ele>489.5</ele>
        <time>2017-02-04T11:32:29Z</time>
      </trkpt>
      <trkpt lat="38.344770" lon="-1.173401">
        <ele>490.9</ele>
        <time>2017-02-04T11:32:48Z</time>
      </trkpt>
      <trkpt lat="38.344748" lon="-1.173432">
        <ele>490.9</ele>
        <time>2017-02-04T11:32:50Z</time>
      </trkpt>
      <trkpt lat="38.344681" lon="-1.173594">
        <ele>492.3</ele>
        <time>2017-02-04T11:33:01Z</time>
      </trkpt>
      <trkpt lat="38.344612" lon="-1.173701">
        <ele>489.9</ele>
        <time>2017-02-04T11:33:12Z</time>
      </trkpt>
      <trkpt lat="38.344483" lon="-1.173868">
        <ele>489.0</ele>
        <time>2017-02-04T11:33:26Z</time>
      </trkpt>
      <trkpt lat="38.344387" lon="-1.174039">
        <ele>488.0</ele>
        <time>2017-02-04T11:33:41Z</time>
      </trkpt>
      <trkpt lat="38.344321" lon="-1.174184">
        <ele>487.5</ele>
        <time>2017-02-04T11:33:55Z</time>
      </trkpt>
      <trkpt lat="38.344236" lon="-1.174419">
        <ele>485.6</ele>
        <time>2017-02-04T11:34:09Z</time>
      </trkpt>
      <trkpt lat="38.344199" lon="-1.174740">
        <ele>484.2</ele>
        <time>2017-02-04T11:34:24Z</time>
      </trkpt>
      <trkpt lat="38.344200" lon="-1.174776">
        <ele>482.7</ele>
        <time>2017-02-04T11:34:26Z</time>
      </trkpt>
      <trkpt lat="38.344188" lon="-1.175054">
        <ele>484.6</ele>
        <time>2017-02-04T11:34:42Z</time>
      </trkpt>
      <trkpt lat="38.344183" lon="-1.175168">
        <ele>482.7</ele>
        <time>2017-02-04T11:34:49Z</time>
      </trkpt>
      <trkpt lat="38.344193" lon="-1.175263">
        <ele>482.7</ele>
        <time>2017-02-04T11:34:59Z</time>
      </trkpt>
      <trkpt lat="38.344192" lon="-1.175355">
        <ele>482.7</ele>
        <time>2017-02-04T11:35:05Z</time>
      </trkpt>
      <trkpt lat="38.344193" lon="-1.175395">
        <ele>484.2</ele>
        <time>2017-02-04T11:35:08Z</time>
      </trkpt>
      <trkpt lat="38.344190" lon="-1.175511">
        <ele>483.2</ele>
        <time>2017-02-04T11:35:15Z</time>
      </trkpt>
      <trkpt lat="38.344185" lon="-1.175830">
        <ele>481.8</ele>
        <time>2017-02-04T11:35:31Z</time>
      </trkpt>
      <trkpt lat="38.344204" lon="-1.175855">
        <ele>483.7</ele>
        <time>2017-02-04T11:35:34Z</time>
      </trkpt>
      <trkpt lat="38.344221" lon="-1.175886">
        <ele>484.2</ele>
        <time>2017-02-04T11:35:44Z</time>
      </trkpt>
      <trkpt lat="38.344217" lon="-1.175887">
        <ele>484.2</ele>
        <time>2017-02-04T11:35:45Z</time>
      </trkpt>
      <trkpt lat="38.344219" lon="-1.175938">
        <ele>483.2</ele>
        <time>2017-02-04T11:35:49Z</time>
      </trkpt>
      <trkpt lat="38.344194" lon="-1.176136">
        <ele>483.2</ele>
        <time>2017-02-04T11:36:02Z</time>
      </trkpt>
      <trkpt lat="38.344179" lon="-1.176387">
        <ele>482.7</ele>
        <time>2017-02-04T11:36:17Z</time>
      </trkpt>
      <trkpt lat="38.344196" lon="-1.176611">
        <ele>483.2</ele>
        <time>2017-02-04T11:36:31Z</time>
      </trkpt>
      <trkpt lat="38.344209" lon="-1.176841">
        <ele>484.2</ele>
        <time>2017-02-04T11:36:46Z</time>
      </trkpt>
      <trkpt lat="38.344218" lon="-1.177036">
        <ele>482.7</ele>
        <time>2017-02-04T11:37:00Z</time>
      </trkpt>
      <trkpt lat="38.344206" lon="-1.177262">
        <ele>482.7</ele>
        <time>2017-02-04T11:37:14Z</time>
      </trkpt>
      <trkpt lat="38.344172" lon="-1.177458">
        <ele>481.8</ele>
        <time>2017-02-04T11:37:27Z</time>
      </trkpt>
      <trkpt lat="38.344104" lon="-1.177699">
        <ele>481.3</ele>
        <time>2017-02-04T11:37:45Z</time>
      </trkpt>
      <trkpt lat="38.343979" lon="-1.177941">
        <ele>478.4</ele>
        <time>2017-02-04T11:38:04Z</time>
      </trkpt>
      <trkpt lat="38.343810" lon="-1.178172">
        <ele>477.9</ele>
        <time>2017-02-04T11:38:24Z</time>
      </trkpt>
      <trkpt lat="38.343732" lon="-1.178267">
        <ele>477.4</ele>
        <time>2017-02-04T11:38:37Z</time>
      </trkpt>
      <trkpt lat="38.343727" lon="-1.178277">
        <ele>478.9</ele>
        <time>2017-02-04T11:38:40Z</time>
      </trkpt>
      <trkpt lat="38.343682" lon="-1.178321">
        <ele>478.4</ele>
        <time>2017-02-04T11:39:08Z</time>
      </trkpt>
      <trkpt lat="38.343424" lon="-1.178642">
        <ele>476.5</ele>
        <time>2017-02-04T11:39:34Z</time>
      </trkpt>
      <trkpt lat="38.343284" lon="-1.178918">
        <ele>477.0</ele>
        <time>2017-02-04T11:39:53Z</time>
      </trkpt>
      <trkpt lat="38.343179" lon="-1.179181">
        <ele>476.5</ele>
        <time>2017-02-04T11:40:09Z</time>
      </trkpt>
      <trkpt lat="38.343129" lon="-1.179424">
        <ele>476.5</ele>
        <time>2017-02-04T11:40:24Z</time>
      </trkpt>
      <trkpt lat="38.343115" lon="-1.179610">
        <ele>476.0</ele>
        <time>2017-02-04T11:40:34Z</time>
      </trkpt>
      <trkpt lat="38.343115" lon="-1.179704">
        <ele>476.0</ele>
        <time>2017-02-04T11:40:43Z</time>
      </trkpt>
      <trkpt lat="38.343133" lon="-1.179800">
        <ele>476.0</ele>
        <time>2017-02-04T11:40:49Z</time>
      </trkpt>
      <trkpt lat="38.343260" lon="-1.180002">
        <ele>475.5</ele>
        <time>2017-02-04T11:41:05Z</time>
      </trkpt>
      <trkpt lat="38.343366" lon="-1.180162">
        <ele>474.5</ele>
        <time>2017-02-04T11:41:18Z</time>
      </trkpt>
      <trkpt lat="38.343493" lon="-1.180367">
        <ele>474.5</ele>
        <time>2017-02-04T11:41:33Z</time>
      </trkpt>
      <trkpt lat="38.343672" lon="-1.180628">
        <ele>474.5</ele>
        <time>2017-02-04T11:41:51Z</time>
      </trkpt>
      <trkpt lat="38.343738" lon="-1.180726">
        <ele>474.5</ele>
        <time>2017-02-04T11:42:01Z</time>
      </trkpt>
      <trkpt lat="38.343772" lon="-1.180772">
        <ele>474.1</ele>
        <time>2017-02-04T11:42:05Z</time>
      </trkpt>
      <trkpt lat="38.343895" lon="-1.181039">
        <ele>473.6</ele>
        <time>2017-02-04T11:42:22Z</time>
      </trkpt>
      <trkpt lat="38.343926" lon="-1.181085">
        <ele>473.6</ele>
        <time>2017-02-04T11:42:27Z</time>
      </trkpt>
      <trkpt lat="38.344064" lon="-1.181272">
        <ele>474.1</ele>
        <time>2017-02-04T11:42:42Z</time>
      </trkpt>
      <trkpt lat="38.344248" lon="-1.181545">
        <ele>474.1</ele>
        <time>2017-02-04T11:43:01Z</time>
      </trkpt>
      <trkpt lat="38.344412" lon="-1.181752">
        <ele>475.5</ele>
        <time>2017-02-04T11:43:17Z</time>
      </trkpt>
      <trkpt lat="38.344547" lon="-1.181912">
        <ele>476.5</ele>
        <time>2017-02-04T11:43:31Z</time>
      </trkpt>
      <trkpt lat="38.344612" lon="-1.181971">
        <ele>476.0</ele>
        <time>2017-02-04T11:43:45Z</time>
      </trkpt>
      <trkpt lat="38.344739" lon="-1.182075">
        <ele>476.5</ele>
        <time>2017-02-04T11:44:02Z</time>
      </trkpt>
      <trkpt lat="38.344924" lon="-1.182244">
        <ele>476.5</ele>
        <time>2017-02-04T11:44:18Z</time>
      </trkpt>
      <trkpt lat="38.345110" lon="-1.182345">
        <ele>476.0</ele>
        <time>2017-02-04T11:44:34Z</time>
      </trkpt>
      <trkpt lat="38.345137" lon="-1.182349">
        <ele>476.0</ele>
        <time>2017-02-04T11:44:37Z</time>
      </trkpt>
      <trkpt lat="38.345158" lon="-1.182347">
        <ele>476.0</ele>
        <time>2017-02-04T11:44:38Z</time>
      </trkpt>
      <trkpt lat="38.345180" lon="-1.182351">
        <ele>476.0</ele>
        <time>2017-02-04T11:44:39Z</time>
      </trkpt>
      <trkpt lat="38.345214" lon="-1.182360">
        <ele>474.5</ele>
        <time>2017-02-04T11:44:52Z</time>
      </trkpt>
      <trkpt lat="38.345229" lon="-1.182373">
        <ele>475.0</ele>
        <time>2017-02-04T11:45:23Z</time>
      </trkpt>
      <trkpt lat="38.345230" lon="-1.182366">
        <ele>474.1</ele>
        <time>2017-02-04T11:45:50Z</time>
      </trkpt>
      <trkpt lat="38.345238" lon="-1.182364">
        <ele>476.0</ele>
        <time>2017-02-04T11:45:52Z</time>
      </trkpt>
      <trkpt lat="38.345249" lon="-1.182373">
        <ele>475.5</ele>
        <time>2017-02-04T11:45:53Z</time>
      </trkpt>
      <trkpt lat="38.345265" lon="-1.182383">
        <ele>475.0</ele>
        <time>2017-02-04T11:45:54Z</time>
      </trkpt>
      <trkpt lat="38.345329" lon="-1.182441">
        <ele>475.5</ele>
        <time>2017-02-04T11:46:04Z</time>
      </trkpt>
      <trkpt lat="38.345375" lon="-1.182479">
        <ele>470.7</ele>
        <time>2017-02-04T11:46:09Z</time>
      </trkpt>
      <trkpt lat="38.345378" lon="-1.182481">
        <ele>474.1</ele>
        <time>2017-02-04T11:46:10Z</time>
      </trkpt>
      <trkpt lat="38.345375" lon="-1.182474">
        <ele>478.9</ele>
        <time>2017-02-04T11:46:11Z</time>
      </trkpt>
      <trkpt lat="38.345373" lon="-1.182471">
        <ele>474.1</ele>
        <time>2017-02-04T11:46:12Z</time>
      </trkpt>
      <trkpt lat="38.345367" lon="-1.182462">
        <ele>475.5</ele>
        <time>2017-02-04T11:46:15Z</time>
      </trkpt>
      <trkpt lat="38.345461" lon="-1.182511">
        <ele>477.0</ele>
        <time>2017-02-04T11:46:45Z</time>
      </trkpt>
      <trkpt lat="38.345675" lon="-1.182608">
        <ele>475.5</ele>
        <time>2017-02-04T11:47:00Z</time>
      </trkpt>
      <trkpt lat="38.345896" lon="-1.182540">
        <ele>476.5</ele>
        <time>2017-02-04T11:47:14Z</time>
      </trkpt>
      <trkpt lat="38.345970" lon="-1.182485">
        <ele>477.0</ele>
        <time>2017-02-04T11:47:20Z</time>
      </trkpt>
      <trkpt lat="38.345983" lon="-1.182474">
        <ele>477.0</ele>
        <time>2017-02-04T11:47:21Z</time>
      </trkpt>
      <trkpt lat="38.345997" lon="-1.182470">
        <ele>477.0</ele>
        <time>2017-02-04T11:47:22Z</time>
      </trkpt>
      <trkpt lat="38.346011" lon="-1.182464">
        <ele>477.4</ele>
        <time>2017-02-04T11:47:23Z</time>
      </trkpt>
      <trkpt lat="38.346025" lon="-1.182460">
        <ele>477.4</ele>
        <time>2017-02-04T11:47:24Z</time>
      </trkpt>
      <trkpt lat="38.346036" lon="-1.182456">
        <ele>477.0</ele>
        <time>2017-02-04T11:47:25Z</time>
      </trkpt>
      <trkpt lat="38.346297" lon="-1.182305">
        <ele>477.4</ele>
        <time>2017-02-04T11:47:44Z</time>
      </trkpt>
      <trkpt lat="38.346475" lon="-1.182201">
        <ele>477.9</ele>
        <time>2017-02-04T11:47:58Z</time>
      </trkpt>
      <trkpt lat="38.346654" lon="-1.182117">
        <ele>478.9</ele>
        <time>2017-02-04T11:48:11Z</time>
      </trkpt>
      <trkpt lat="38.346875" lon="-1.182013">
        <ele>479.8</ele>
        <time>2017-02-04T11:48:27Z</time>
      </trkpt>
      <trkpt lat="38.347072" lon="-1.181940">
        <ele>480.3</ele>
        <time>2017-02-04T11:48:41Z</time>
      </trkpt>
      <trkpt lat="38.347270" lon="-1.181851">
        <ele>481.8</ele>
        <time>2017-02-04T11:48:56Z</time>
      </trkpt>
      <trkpt lat="38.347281" lon="-1.181860">
        <ele>480.8</ele>
        <time>2017-02-04T11:48:57Z</time>
      </trkpt>
      <trkpt lat="38.347286" lon="-1.181875">
        <ele>480.8</ele>
        <time>2017-02-04T11:48:58Z</time>
      </trkpt>
      <trkpt lat="38.347287" lon="-1.181888">
        <ele>480.8</ele>
        <time>2017-02-04T11:48:59Z</time>
      </trkpt>
      <trkpt lat="38.347284" lon="-1.181899">
        <ele>481.3</ele>
        <time>2017-02-04T11:49:00Z</time>
      </trkpt>
      <trkpt lat="38.347278" lon="-1.181912">
        <ele>481.3</ele>
        <time>2017-02-04T11:49:01Z</time>
      </trkpt>
      <trkpt lat="38.347270" lon="-1.181924">
        <ele>481.3</ele>
        <time>2017-02-04T11:49:02Z</time>
      </trkpt>
      <trkpt lat="38.347260" lon="-1.181934">
        <ele>480.8</ele>
        <time>2017-02-04T11:49:03Z</time>
      </trkpt>
      <trkpt lat="38.347251" lon="-1.181948">
        <ele>481.3</ele>
        <time>2017-02-04T11:49:04Z</time>
      </trkpt>
      <trkpt lat="38.347244" lon="-1.181960">
        <ele>480.8</ele>
        <time>2017-02-04T11:49:05Z</time>
      </trkpt>
      <trkpt lat="38.347235" lon="-1.181968">
        <ele>480.8</ele>
        <time>2017-02-04T11:49:06Z</time>
      </trkpt>
      <trkpt lat="38.347062" lon="-1.182126">
        <ele>480.3</ele>
        <time>2017-02-04T11:49:22Z</time>
      </trkpt>
      <trkpt lat="38.346910" lon="-1.182293">
        <ele>479.4</ele>
        <time>2017-02-04T11:49:38Z</time>
      </trkpt>
      <trkpt lat="38.346856" lon="-1.182418">
        <ele>477.9</ele>
        <time>2017-02-04T11:49:47Z</time>
      </trkpt>
      <trkpt lat="38.346760" lon="-1.182663">
        <ele>475.5</ele>
        <time>2017-02-04T11:50:03Z</time>
      </trkpt>
      <trkpt lat="38.346753" lon="-1.182676">
        <ele>475.5</ele>
        <time>2017-02-04T11:50:04Z</time>
      </trkpt>
      <trkpt lat="38.346744" lon="-1.182687">
        <ele>475.5</ele>
        <time>2017-02-04T11:50:05Z</time>
      </trkpt>
      <trkpt lat="38.346735" lon="-1.182698">
        <ele>474.5</ele>
        <time>2017-02-04T11:50:06Z</time>
      </trkpt>
      <trkpt lat="38.346663" lon="-1.182753">
        <ele>474.1</ele>
        <time>2017-02-04T11:50:13Z</time>
      </trkpt>
      <trkpt lat="38.346547" lon="-1.182953">
        <ele>472.1</ele>
        <time>2017-02-04T11:50:29Z</time>
      </trkpt>
      <trkpt lat="38.346526" lon="-1.182990">
        <ele>473.1</ele>
        <time>2017-02-04T11:50:32Z</time>
      </trkpt>
      <trkpt lat="38.346514" lon="-1.182997">
        <ele>473.6</ele>
        <time>2017-02-04T11:50:33Z</time>
      </trkpt>
      <trkpt lat="38.346500" lon="-1.183005">
        <ele>473.6</ele>
        <time>2017-02-04T11:50:34Z</time>
      </trkpt>
      <trkpt lat="38.346485" lon="-1.183011">
        <ele>473.1</ele>
        <time>2017-02-04T11:50:35Z</time>
      </trkpt>
      <trkpt lat="38.346470" lon="-1.183016">
        <ele>473.6</ele>
        <time>2017-02-04T11:50:36Z</time>
      </trkpt>
      <trkpt lat="38.346456" lon="-1.183019">
        <ele>473.6</ele>
        <time>2017-02-04T11:50:37Z</time>
      </trkpt>
      <trkpt lat="38.346441" lon="-1.183023">
        <ele>473.6</ele>
        <time>2017-02-04T11:50:38Z</time>
      </trkpt>
      <trkpt lat="38.346426" lon="-1.183025">
        <ele>474.1</ele>
        <time>2017-02-04T11:50:39Z</time>
      </trkpt>
      <trkpt lat="38.346212" lon="-1.183059">
        <ele>473.6</ele>
        <time>2017-02-04T11:50:54Z</time>
      </trkpt>
      <trkpt lat="38.345969" lon="-1.183116">
        <ele>472.6</ele>
        <time>2017-02-04T11:51:11Z</time>
      </trkpt>
      <trkpt lat="38.345803" lon="-1.183250">
        <ele>473.1</ele>
        <time>2017-02-04T11:51:26Z</time>
      </trkpt>
      <trkpt lat="38.345800" lon="-1.183270">
        <ele>473.1</ele>
        <time>2017-02-04T11:51:27Z</time>
      </trkpt>
      <trkpt lat="38.345798" lon="-1.183289">
        <ele>472.6</ele>
        <time>2017-02-04T11:51:28Z</time>
      </trkpt>
      <trkpt lat="38.345793" lon="-1.183308">
        <ele>473.1</ele>
        <time>2017-02-04T11:51:29Z</time>
      </trkpt>
      <trkpt lat="38.345789" lon="-1.183326">
        <ele>473.1</ele>
        <time>2017-02-04T11:51:30Z</time>
      </trkpt>
      <trkpt lat="38.345784" lon="-1.183341">
        <ele>473.6</ele>
        <time>2017-02-04T11:51:31Z</time>
      </trkpt>
      <trkpt lat="38.345681" lon="-1.183573">
        <ele>474.5</ele>
        <time>2017-02-04T11:51:47Z</time>
      </trkpt>
      <trkpt lat="38.345653" lon="-1.183630">
        <ele>475.5</ele>
        <time>2017-02-04T11:51:52Z</time>
      </trkpt>
      <trkpt lat="38.345576" lon="-1.183725">
        <ele>476.0</ele>
        <time>2017-02-04T11:52:06Z</time>
      </trkpt>
      <trkpt lat="38.345367" lon="-1.183863">
        <ele>476.0</ele>
        <time>2017-02-04T11:52:23Z</time>
      </trkpt>
      <trkpt lat="38.345341" lon="-1.183880">
        <ele>476.5</ele>
        <time>2017-02-04T11:52:26Z</time>
      </trkpt>
      <trkpt lat="38.345326" lon="-1.183892">
        <ele>476.5</ele>
        <time>2017-02-04T11:52:27Z</time>
      </trkpt>
      <trkpt lat="38.345104" lon="-1.184052">
        <ele>476.0</ele>
        <time>2017-02-04T11:52:46Z</time>
      </trkpt>
      <trkpt lat="38.345059" lon="-1.184062">
        <ele>476.0</ele>
        <time>2017-02-04T11:53:00Z</time>
      </trkpt>
      <trkpt lat="38.345052" lon="-1.184081">
        <ele>476.0</ele>
        <time>2017-02-04T11:53:06Z</time>
      </trkpt>
      <trkpt lat="38.345042" lon="-1.184088">
        <ele>476.0</ele>
        <time>2017-02-04T11:53:07Z</time>
      </trkpt>
      <trkpt lat="38.345033" lon="-1.184098">
        <ele>475.5</ele>
        <time>2017-02-04T11:53:08Z</time>
      </trkpt>
      <trkpt lat="38.344802" lon="-1.184233">
        <ele>476.0</ele>
        <time>2017-02-04T11:53:26Z</time>
      </trkpt>
      <trkpt lat="38.344590" lon="-1.184337">
        <ele>477.0</ele>
        <time>2017-02-04T11:53:41Z</time>
      </trkpt>
      <trkpt lat="38.344550" lon="-1.184377">
        <ele>477.0</ele>
        <time>2017-02-04T11:53:47Z</time>
      </trkpt>
      <trkpt lat="38.344537" lon="-1.184381">
        <ele>476.5</ele>
        <time>2017-02-04T11:53:48Z</time>
      </trkpt>
      <trkpt lat="38.344523" lon="-1.184387">
        <ele>476.5</ele>
        <time>2017-02-04T11:53:49Z</time>
      </trkpt>
      <trkpt lat="38.344512" lon="-1.184394">
        <ele>476.5</ele>
        <time>2017-02-04T11:53:50Z</time>
      </trkpt>
      <trkpt lat="38.344500" lon="-1.184401">
        <ele>477.0</ele>
        <time>2017-02-04T11:53:51Z</time>
      </trkpt>
      <trkpt lat="38.344489" lon="-1.184409">
        <ele>477.4</ele>
        <time>2017-02-04T11:53:52Z</time>
      </trkpt>
      <trkpt lat="38.344438" lon="-1.184449">
        <ele>478.4</ele>
        <time>2017-02-04T11:53:58Z</time>
      </trkpt>
      <trkpt lat="38.344424" lon="-1.184450">
        <ele>478.4</ele>
        <time>2017-02-04T11:53:59Z</time>
      </trkpt>
      <trkpt lat="38.344410" lon="-1.184460">
        <ele>477.4</ele>
        <time>2017-02-04T11:54:00Z</time>
      </trkpt>
      <trkpt lat="38.344397" lon="-1.184471">
        <ele>477.9</ele>
        <time>2017-02-04T11:54:01Z</time>
      </trkpt>
      <trkpt lat="38.344382" lon="-1.184480">
        <ele>477.9</ele>
        <time>2017-02-04T11:54:02Z</time>
      </trkpt>
      <trkpt lat="38.344365" lon="-1.184489">
        <ele>478.4</ele>
        <time>2017-02-04T11:54:03Z</time>
      </trkpt>
      <trkpt lat="38.344338" lon="-1.184496">
        <ele>478.4</ele>
        <time>2017-02-04T11:54:05Z</time>
      </trkpt>
      <trkpt lat="38.344321" lon="-1.184492">
        <ele>478.9</ele>
        <time>2017-02-04T11:54:06Z</time>
      </trkpt>
      <trkpt lat="38.344304" lon="-1.184495">
        <ele>479.4</ele>
        <time>2017-02-04T11:54:17Z</time>
      </trkpt>
      <trkpt lat="38.344174" lon="-1.184560">
        <ele>478.9</ele>
        <time>2017-02-04T11:54:40Z</time>
      </trkpt>
      <trkpt lat="38.344052" lon="-1.184647">
        <ele>482.7</ele>
        <time>2017-02-04T11:54:53Z</time>
      </trkpt>
      <trkpt lat="38.343972" lon="-1.184661">
        <ele>481.3</ele>
        <time>2017-02-04T11:55:06Z</time>
      </trkpt>
      <trkpt lat="38.343958" lon="-1.184674">
        <ele>480.8</ele>
        <time>2017-02-04T11:55:08Z</time>
      </trkpt>
      <trkpt lat="38.343946" lon="-1.184682">
        <ele>482.2</ele>
        <time>2017-02-04T11:55:10Z</time>
      </trkpt>
      <trkpt lat="38.343936" lon="-1.184687">
        <ele>482.2</ele>
        <time>2017-02-04T11:55:11Z</time>
      </trkpt>
      <trkpt lat="38.343888" lon="-1.184730">
        <ele>480.3</ele>
        <time>2017-02-04T11:55:21Z</time>
      </trkpt>
      <trkpt lat="38.343877" lon="-1.184734">
        <ele>481.3</ele>
        <time>2017-02-04T11:55:22Z</time>
      </trkpt>
      <trkpt lat="38.343657" lon="-1.184829">
        <ele>479.4</ele>
        <time>2017-02-04T11:55:37Z</time>
      </trkpt>
      <trkpt lat="38.343612" lon="-1.184849">
        <ele>478.4</ele>
        <time>2017-02-04T11:55:40Z</time>
      </trkpt>
      <trkpt lat="38.343411" lon="-1.184940">
        <ele>478.9</ele>
        <time>2017-02-04T11:55:55Z</time>
      </trkpt>
      <trkpt lat="38.343397" lon="-1.184939">
        <ele>478.9</ele>
        <time>2017-02-04T11:55:56Z</time>
      </trkpt>
      <trkpt lat="38.343386" lon="-1.184943">
        <ele>478.4</ele>
        <time>2017-02-04T11:55:57Z</time>
      </trkpt>
      <trkpt lat="38.343374" lon="-1.184944">
        <ele>478.9</ele>
        <time>2017-02-04T11:55:58Z</time>
      </trkpt>
      <trkpt lat="38.343361" lon="-1.184943">
        <ele>479.4</ele>
        <time>2017-02-04T11:55:59Z</time>
      </trkpt>
      <trkpt lat="38.343081" lon="-1.184848">
        <ele>477.4</ele>
        <time>2017-02-04T11:56:17Z</time>
      </trkpt>
      <trkpt lat="38.342939" lon="-1.184824">
        <ele>476.0</ele>
        <time>2017-02-04T11:56:27Z</time>
      </trkpt>
      <trkpt lat="38.342923" lon="-1.184825">
        <ele>476.0</ele>
        <time>2017-02-04T11:56:28Z</time>
      </trkpt>
      <trkpt lat="38.342788" lon="-1.184848">
        <ele>476.0</ele>
        <time>2017-02-04T11:56:41Z</time>
      </trkpt>
      <trkpt lat="38.342748" lon="-1.184869">
        <ele>474.5</ele>
        <time>2017-02-04T11:56:53Z</time>
      </trkpt>
      <trkpt lat="38.342744" lon="-1.184878">
        <ele>474.5</ele>
        <time>2017-02-04T11:57:01Z</time>
      </trkpt>
      <trkpt lat="38.342734" lon="-1.184897">
        <ele>474.5</ele>
        <time>2017-02-04T11:57:08Z</time>
      </trkpt>
      <trkpt lat="38.342725" lon="-1.184907">
        <ele>473.6</ele>
        <time>2017-02-04T11:57:09Z</time>
      </trkpt>
      <trkpt lat="38.342709" lon="-1.184925">
        <ele>475.0</ele>
        <time>2017-02-04T11:57:12Z</time>
      </trkpt>
      <trkpt lat="38.342700" lon="-1.184952">
        <ele>473.1</ele>
        <time>2017-02-04T11:58:51Z</time>
      </trkpt>
      <trkpt lat="38.342556" lon="-1.185200">
        <ele>473.6</ele>
        <time>2017-02-04T11:59:07Z</time>
      </trkpt>
      <trkpt lat="38.342547" lon="-1.185214">
        <ele>473.6</ele>
        <time>2017-02-04T11:59:08Z</time>
      </trkpt>
      <trkpt lat="38.342541" lon="-1.185231">
        <ele>473.6</ele>
        <time>2017-02-04T11:59:09Z</time>
      </trkpt>
      <trkpt lat="38.342534" lon="-1.185245">
        <ele>473.6</ele>
        <time>2017-02-04T11:59:10Z</time>
      </trkpt>
      <trkpt lat="38.342524" lon="-1.185256">
        <ele>473.6</ele>
        <time>2017-02-04T11:59:11Z</time>
      </trkpt>
      <trkpt lat="38.342514" lon="-1.185267">
        <ele>474.1</ele>
        <time>2017-02-04T11:59:12Z</time>
      </trkpt>
      <trkpt lat="38.342502" lon="-1.185282">
        <ele>472.6</ele>
        <time>2017-02-04T11:59:13Z</time>
      </trkpt>
      <trkpt lat="38.342492" lon="-1.185297">
        <ele>472.6</ele>
        <time>2017-02-04T11:59:14Z</time>
      </trkpt>
      <trkpt lat="38.342371" lon="-1.185561">
        <ele>473.1</ele>
        <time>2017-02-04T11:59:30Z</time>
      </trkpt>
      <trkpt lat="38.342360" lon="-1.185572">
        <ele>473.1</ele>
        <time>2017-02-04T11:59:31Z</time>
      </trkpt>
      <trkpt lat="38.342348" lon="-1.185582">
        <ele>472.6</ele>
        <time>2017-02-04T11:59:32Z</time>
      </trkpt>
      <trkpt lat="38.342335" lon="-1.185592">
        <ele>471.7</ele>
        <time>2017-02-04T11:59:33Z</time>
      </trkpt>
      <trkpt lat="38.342324" lon="-1.185603">
        <ele>471.2</ele>
        <time>2017-02-04T11:59:34Z</time>
      </trkpt>
      <trkpt lat="38.342281" lon="-1.185679">
        <ele>472.6</ele>
        <time>2017-02-04T11:59:39Z</time>
      </trkpt>
      <trkpt lat="38.342271" lon="-1.185694">
        <ele>471.7</ele>
        <time>2017-02-04T11:59:40Z</time>
      </trkpt>
      <trkpt lat="38.342263" lon="-1.185709">
        <ele>471.7</ele>
        <time>2017-02-04T11:59:41Z</time>
      </trkpt>
      <trkpt lat="38.342255" lon="-1.185724">
        <ele>471.7</ele>
        <time>2017-02-04T11:59:42Z</time>
      </trkpt>
      <trkpt lat="38.342241" lon="-1.185739">
        <ele>472.1</ele>
        <time>2017-02-04T11:59:43Z</time>
      </trkpt>
      <trkpt lat="38.342233" lon="-1.185754">
        <ele>471.7</ele>
        <time>2017-02-04T11:59:44Z</time>
      </trkpt>
      <trkpt lat="38.342060" lon="-1.186049">
        <ele>470.7</ele>
        <time>2017-02-04T12:00:03Z</time>
      </trkpt>
      <trkpt lat="38.341850" lon="-1.186417">
        <ele>469.3</ele>
        <time>2017-02-04T12:00:28Z</time>
      </trkpt>
      <trkpt lat="38.341671" lon="-1.186712">
        <ele>470.7</ele>
        <time>2017-02-04T12:00:48Z</time>
      </trkpt>
      <trkpt lat="38.341629" lon="-1.186793">
        <ele>470.7</ele>
        <time>2017-02-04T12:00:54Z</time>
      </trkpt>
      <trkpt lat="38.341587" lon="-1.186866">
        <ele>468.8</ele>
        <time>2017-02-04T12:00:59Z</time>
      </trkpt>
      <trkpt lat="38.341455" lon="-1.187074">
        <ele>467.8</ele>
        <time>2017-02-04T12:01:15Z</time>
      </trkpt>
      <trkpt lat="38.341439" lon="-1.187105">
        <ele>466.9</ele>
        <time>2017-02-04T12:01:17Z</time>
      </trkpt>
      <trkpt lat="38.341238" lon="-1.187442">
        <ele>466.9</ele>
        <time>2017-02-04T12:01:42Z</time>
      </trkpt>
      <trkpt lat="38.341048" lon="-1.187760">
        <ele>466.4</ele>
        <time>2017-02-04T12:02:05Z</time>
      </trkpt>
      <trkpt lat="38.340832" lon="-1.188141">
        <ele>465.4</ele>
        <time>2017-02-04T12:02:34Z</time>
      </trkpt>
      <trkpt lat="38.340662" lon="-1.188442">
        <ele>464.0</ele>
        <time>2017-02-04T12:02:56Z</time>
      </trkpt>
      <trkpt lat="38.340546" lon="-1.188660">
        <ele>462.0</ele>
        <time>2017-02-04T12:03:11Z</time>
      </trkpt>
      <trkpt lat="38.340469" lon="-1.188812">
        <ele>464.0</ele>
        <time>2017-02-04T12:03:21Z</time>
      </trkpt>
      <trkpt lat="38.340289" lon="-1.188960">
        <ele>463.0</ele>
        <time>2017-02-04T12:03:37Z</time>
      </trkpt>
      <trkpt lat="38.340050" lon="-1.188959">
        <ele>462.0</ele>
        <time>2017-02-04T12:03:54Z</time>
      </trkpt>
      <trkpt lat="38.339829" lon="-1.188974">
        <ele>461.6</ele>
        <time>2017-02-04T12:04:11Z</time>
      </trkpt>
      <trkpt lat="38.339666" lon="-1.188996">
        <ele>460.6</ele>
        <time>2017-02-04T12:04:24Z</time>
      </trkpt>
      <trkpt lat="38.339446" lon="-1.189001">
        <ele>459.2</ele>
        <time>2017-02-04T12:04:40Z</time>
      </trkpt>
      <trkpt lat="38.339186" lon="-1.189014">
        <ele>459.2</ele>
        <time>2017-02-04T12:04:59Z</time>
      </trkpt>
      <trkpt lat="38.339162" lon="-1.189018">
        <ele>460.1</ele>
        <time>2017-02-04T12:05:01Z</time>
      </trkpt>
      <trkpt lat="38.339149" lon="-1.189018">
        <ele>460.1</ele>
        <time>2017-02-04T12:05:02Z</time>
      </trkpt>
      <trkpt lat="38.339135" lon="-1.189020">
        <ele>459.6</ele>
        <time>2017-02-04T12:05:03Z</time>
      </trkpt>
      <trkpt lat="38.339122" lon="-1.189020">
        <ele>459.6</ele>
        <time>2017-02-04T12:05:04Z</time>
      </trkpt>
      <trkpt lat="38.339109" lon="-1.189020">
        <ele>459.6</ele>
        <time>2017-02-04T12:05:05Z</time>
      </trkpt>
      <trkpt lat="38.339098" lon="-1.189021">
        <ele>459.6</ele>
        <time>2017-02-04T12:05:06Z</time>
      </trkpt>
      <trkpt lat="38.339083" lon="-1.189021">
        <ele>459.6</ele>
        <time>2017-02-04T12:05:07Z</time>
      </trkpt>
      <trkpt lat="38.338902" lon="-1.189028">
        <ele>460.6</ele>
        <time>2017-02-04T12:05:23Z</time>
      </trkpt>
      <trkpt lat="38.338882" lon="-1.189033">
        <ele>460.1</ele>
        <time>2017-02-04T12:05:28Z</time>
      </trkpt>
      <trkpt lat="38.338866" lon="-1.189033">
        <ele>459.2</ele>
        <time>2017-02-04T12:05:29Z</time>
      </trkpt>
      <trkpt lat="38.338648" lon="-1.189063">
        <ele>458.2</ele>
        <time>2017-02-04T12:05:45Z</time>
      </trkpt>
      <trkpt lat="38.338380" lon="-1.189118">
        <ele>458.2</ele>
        <time>2017-02-04T12:06:05Z</time>
      </trkpt>
      <trkpt lat="38.338276" lon="-1.189260">
        <ele>457.7</ele>
        <time>2017-02-04T12:06:19Z</time>
      </trkpt>
      <trkpt lat="38.338264" lon="-1.189289">
        <ele>458.2</ele>
        <time>2017-02-04T12:06:22Z</time>
      </trkpt>
      <trkpt lat="38.338246" lon="-1.189447">
        <ele>455.8</ele>
        <time>2017-02-04T12:06:31Z</time>
      </trkpt>
      <trkpt lat="38.338240" lon="-1.189557">
        <ele>455.3</ele>
        <time>2017-02-04T12:06:37Z</time>
      </trkpt>
      <trkpt lat="38.338217" lon="-1.189857">
        <ele>454.8</ele>
        <time>2017-02-04T12:06:55Z</time>
      </trkpt>
      <trkpt lat="38.338191" lon="-1.190133">
        <ele>451.5</ele>
        <time>2017-02-04T12:07:11Z</time>
      </trkpt>
      <trkpt lat="38.338088" lon="-1.190384">
        <ele>450.0</ele>
        <time>2017-02-04T12:07:29Z</time>
      </trkpt>
      <trkpt lat="38.337941" lon="-1.190621">
        <ele>448.1</ele>
        <time>2017-02-04T12:07:47Z</time>
      </trkpt>
      <trkpt lat="38.337870" lon="-1.190857">
        <ele>448.1</ele>
        <time>2017-02-04T12:08:02Z</time>
      </trkpt>
      <trkpt lat="38.337846" lon="-1.190949">
        <ele>447.6</ele>
        <time>2017-02-04T12:08:10Z</time>
      </trkpt>
      <trkpt lat="38.337845" lon="-1.190964">
        <ele>447.6</ele>
        <time>2017-02-04T12:08:11Z</time>
      </trkpt>
      <trkpt lat="38.337845" lon="-1.190978">
        <ele>447.1</ele>
        <time>2017-02-04T12:08:12Z</time>
      </trkpt>
      <trkpt lat="38.337827" lon="-1.191073">
        <ele>446.7</ele>
        <time>2017-02-04T12:08:18Z</time>
      </trkpt>
      <trkpt lat="38.337825" lon="-1.191090">
        <ele>446.7</ele>
        <time>2017-02-04T12:08:21Z</time>
      </trkpt>
      <trkpt lat="38.337824" lon="-1.191106">
        <ele>447.1</ele>
        <time>2017-02-04T12:08:22Z</time>
      </trkpt>
      <trkpt lat="38.337783" lon="-1.191440">
        <ele>446.2</ele>
        <time>2017-02-04T12:08:40Z</time>
      </trkpt>
      <trkpt lat="38.337758" lon="-1.191645">
        <ele>447.6</ele>
        <time>2017-02-04T12:08:55Z</time>
      </trkpt>
      <trkpt lat="38.337734" lon="-1.191938">
        <ele>446.7</ele>
        <time>2017-02-04T12:09:11Z</time>
      </trkpt>
      <trkpt lat="38.337730" lon="-1.191953">
        <ele>447.1</ele>
        <time>2017-02-04T12:09:12Z</time>
      </trkpt>
      <trkpt lat="38.337727" lon="-1.191967">
        <ele>447.1</ele>
        <time>2017-02-04T12:09:13Z</time>
      </trkpt>
      <trkpt lat="38.337726" lon="-1.191983">
        <ele>447.1</ele>
        <time>2017-02-04T12:09:14Z</time>
      </trkpt>
      <trkpt lat="38.337724" lon="-1.191999">
        <ele>447.1</ele>
        <time>2017-02-04T12:09:15Z</time>
      </trkpt>
      <trkpt lat="38.337721" lon="-1.192017">
        <ele>446.7</ele>
        <time>2017-02-04T12:09:16Z</time>
      </trkpt>
      <trkpt lat="38.337651" lon="-1.192339">
        <ele>446.2</ele>
        <time>2017-02-04T12:09:36Z</time>
      </trkpt>
      <trkpt lat="38.337603" lon="-1.192652">
        <ele>445.7</ele>
        <time>2017-02-04T12:09:54Z</time>
      </trkpt>
      <trkpt lat="38.337590" lon="-1.192800">
        <ele>446.7</ele>
        <time>2017-02-04T12:10:04Z</time>
      </trkpt>
      <trkpt lat="38.337541" lon="-1.193033">
        <ele>445.7</ele>
        <time>2017-02-04T12:10:18Z</time>
      </trkpt>
      <trkpt lat="38.337574" lon="-1.193291">
        <ele>445.7</ele>
        <time>2017-02-04T12:10:34Z</time>
      </trkpt>
      <trkpt lat="38.337630" lon="-1.193557">
        <ele>445.2</ele>
        <time>2017-02-04T12:10:52Z</time>
      </trkpt>
      <trkpt lat="38.337625" lon="-1.193587">
        <ele>445.2</ele>
        <time>2017-02-04T12:10:54Z</time>
      </trkpt>
      <trkpt lat="38.337621" lon="-1.193602">
        <ele>444.8</ele>
        <time>2017-02-04T12:10:55Z</time>
      </trkpt>
      <trkpt lat="38.337618" lon="-1.193618">
        <ele>445.7</ele>
        <time>2017-02-04T12:10:56Z</time>
      </trkpt>
      <trkpt lat="38.337615" lon="-1.193634">
        <ele>444.8</ele>
        <time>2017-02-04T12:10:57Z</time>
      </trkpt>
      <trkpt lat="38.337612" lon="-1.193652">
        <ele>445.2</ele>
        <time>2017-02-04T12:10:58Z</time>
      </trkpt>
      <trkpt lat="38.337613" lon="-1.193671">
        <ele>444.8</ele>
        <time>2017-02-04T12:10:59Z</time>
      </trkpt>
      <trkpt lat="38.337614" lon="-1.193690">
        <ele>444.3</ele>
        <time>2017-02-04T12:11:00Z</time>
      </trkpt>
      <trkpt lat="38.337611" lon="-1.193708">
        <ele>444.3</ele>
        <time>2017-02-04T12:11:01Z</time>
      </trkpt>
      <trkpt lat="38.337608" lon="-1.193722">
        <ele>444.8</ele>
        <time>2017-02-04T12:11:02Z</time>
      </trkpt>
      <trkpt lat="38.337605" lon="-1.193736">
        <ele>445.7</ele>
        <time>2017-02-04T12:11:03Z</time>
      </trkpt>
      <trkpt lat="38.337599" lon="-1.193749">
        <ele>445.2</ele>
        <time>2017-02-04T12:11:04Z</time>
      </trkpt>
      <trkpt lat="38.337609" lon="-1.193964">
        <ele>446.2</ele>
        <time>2017-02-04T12:11:18Z</time>
      </trkpt>
      <trkpt lat="38.337627" lon="-1.194001">
        <ele>444.3</ele>
        <time>2017-02-04T12:11:28Z</time>
      </trkpt>
      <trkpt lat="38.337632" lon="-1.194013">
        <ele>447.6</ele>
        <time>2017-02-04T12:11:29Z</time>
      </trkpt>
      <trkpt lat="38.337635" lon="-1.194026">
        <ele>446.2</ele>
        <time>2017-02-04T12:11:30Z</time>
      </trkpt>
      <trkpt lat="38.337640" lon="-1.194043">
        <ele>443.8</ele>
        <time>2017-02-04T12:11:36Z</time>
      </trkpt>
      <trkpt lat="38.337641" lon="-1.194050">
        <ele>449.1</ele>
        <time>2017-02-04T12:11:37Z</time>
      </trkpt>
      <trkpt lat="38.337638" lon="-1.194085">
        <ele>446.7</ele>
        <time>2017-02-04T12:11:44Z</time>
      </trkpt>
      <trkpt lat="38.337638" lon="-1.194109">
        <ele>447.1</ele>
        <time>2017-02-04T12:11:52Z</time>
      </trkpt>
      <trkpt lat="38.337638" lon="-1.194116">
        <ele>445.2</ele>
        <time>2017-02-04T12:11:54Z</time>
      </trkpt>
      <trkpt lat="38.337646" lon="-1.194126">
        <ele>445.2</ele>
        <time>2017-02-04T12:11:55Z</time>
      </trkpt>
      <trkpt lat="38.337651" lon="-1.194145">
        <ele>445.2</ele>
        <time>2017-02-04T12:11:56Z</time>
      </trkpt>
      <trkpt lat="38.337653" lon="-1.194165">
        <ele>445.7</ele>
        <time>2017-02-04T12:11:57Z</time>
      </trkpt>
      <trkpt lat="38.337652" lon="-1.194180">
        <ele>445.2</ele>
        <time>2017-02-04T12:11:58Z</time>
      </trkpt>
      <trkpt lat="38.337649" lon="-1.194193">
        <ele>446.2</ele>
        <time>2017-02-04T12:11:59Z</time>
      </trkpt>
      <trkpt lat="38.337646" lon="-1.194209">
        <ele>445.7</ele>
        <time>2017-02-04T12:12:00Z</time>
      </trkpt>
      <trkpt lat="38.337643" lon="-1.194229">
        <ele>445.2</ele>
        <time>2017-02-04T12:12:01Z</time>
      </trkpt>
      <trkpt lat="38.337655" lon="-1.194344">
        <ele>445.2</ele>
        <time>2017-02-04T12:12:07Z</time>
      </trkpt>
      <trkpt lat="38.337650" lon="-1.194431">
        <ele>445.2</ele>
        <time>2017-02-04T12:12:12Z</time>
      </trkpt>
      <trkpt lat="38.337646" lon="-1.194445">
        <ele>445.7</ele>
        <time>2017-02-04T12:12:13Z</time>
      </trkpt>
      <trkpt lat="38.337640" lon="-1.194459">
        <ele>445.2</ele>
        <time>2017-02-04T12:12:14Z</time>
      </trkpt>
      <trkpt lat="38.337633" lon="-1.194471">
        <ele>445.7</ele>
        <time>2017-02-04T12:12:15Z</time>
      </trkpt>
      <trkpt lat="38.337626" lon="-1.194488">
        <ele>446.2</ele>
        <time>2017-02-04T12:12:16Z</time>
      </trkpt>
      <trkpt lat="38.337608" lon="-1.194589">
        <ele>445.7</ele>
        <time>2017-02-04T12:12:22Z</time>
      </trkpt>
      <trkpt lat="38.337610" lon="-1.194603">
        <ele>445.7</ele>
        <time>2017-02-04T12:12:23Z</time>
      </trkpt>
      <trkpt lat="38.337611" lon="-1.194617">
        <ele>445.7</ele>
        <time>2017-02-04T12:12:24Z</time>
      </trkpt>
      <trkpt lat="38.337614" lon="-1.194632">
        <ele>446.7</ele>
        <time>2017-02-04T12:12:25Z</time>
      </trkpt>
      <trkpt lat="38.337618" lon="-1.194647">
        <ele>445.7</ele>
        <time>2017-02-04T12:12:26Z</time>
      </trkpt>
      <trkpt lat="38.337695" lon="-1.194813">
        <ele>446.7</ele>
        <time>2017-02-04T12:12:39Z</time>
      </trkpt>
      <trkpt lat="38.337724" lon="-1.194830">
        <ele>446.7</ele>
        <time>2017-02-04T12:12:43Z</time>
      </trkpt>
      <trkpt lat="38.337731" lon="-1.194851">
        <ele>446.7</ele>
        <time>2017-02-04T12:12:45Z</time>
      </trkpt>
      <trkpt lat="38.337733" lon="-1.194867">
        <ele>446.2</ele>
        <time>2017-02-04T12:12:46Z</time>
      </trkpt>
      <trkpt lat="38.337743" lon="-1.194894">
        <ele>446.7</ele>
        <time>2017-02-04T12:12:48Z</time>
      </trkpt>
      <trkpt lat="38.337765" lon="-1.194973">
        <ele>445.7</ele>
        <time>2017-02-04T12:12:53Z</time>
      </trkpt>
      <trkpt lat="38.337761" lon="-1.194984">
        <ele>446.2</ele>
        <time>2017-02-04T12:12:54Z</time>
      </trkpt>
      <trkpt lat="38.337760" lon="-1.195008">
        <ele>446.7</ele>
        <time>2017-02-04T12:12:56Z</time>
      </trkpt>
      <trkpt lat="38.337760" lon="-1.195038">
        <ele>447.1</ele>
        <time>2017-02-04T12:12:58Z</time>
      </trkpt>
      <trkpt lat="38.337734" lon="-1.195153">
        <ele>449.1</ele>
        <time>2017-02-04T12:13:08Z</time>
      </trkpt>
      <trkpt lat="38.337729" lon="-1.195165">
        <ele>449.5</ele>
        <time>2017-02-04T12:13:09Z</time>
      </trkpt>
      <trkpt lat="38.337724" lon="-1.195177">
        <ele>450.0</ele>
        <time>2017-02-04T12:13:10Z</time>
      </trkpt>
      <trkpt lat="38.337719" lon="-1.195204">
        <ele>450.0</ele>
        <time>2017-02-04T12:13:12Z</time>
      </trkpt>
      <trkpt lat="38.337724" lon="-1.195223">
        <ele>450.0</ele>
        <time>2017-02-04T12:13:13Z</time>
      </trkpt>
      <trkpt lat="38.337725" lon="-1.195241">
        <ele>450.5</ele>
        <time>2017-02-04T12:13:14Z</time>
      </trkpt>
      <trkpt lat="38.337719" lon="-1.195266">
        <ele>450.5</ele>
        <time>2017-02-04T12:13:16Z</time>
      </trkpt>
      <trkpt lat="38.337715" lon="-1.195280">
        <ele>450.5</ele>
        <time>2017-02-04T12:13:17Z</time>
      </trkpt>
      <trkpt lat="38.337714" lon="-1.195294">
        <ele>450.0</ele>
        <time>2017-02-04T12:13:18Z</time>
      </trkpt>
      <trkpt lat="38.337702" lon="-1.195310">
        <ele>451.5</ele>
        <time>2017-02-04T12:13:21Z</time>
      </trkpt>
      <trkpt lat="38.337685" lon="-1.195416">
        <ele>451.5</ele>
        <time>2017-02-04T12:13:30Z</time>
      </trkpt>
      <trkpt lat="38.337688" lon="-1.195432">
        <ele>452.0</ele>
        <time>2017-02-04T12:13:31Z</time>
      </trkpt>
      <trkpt lat="38.337684" lon="-1.195447">
        <ele>452.0</ele>
        <time>2017-02-04T12:13:32Z</time>
      </trkpt>
      <trkpt lat="38.337678" lon="-1.195459">
        <ele>452.0</ele>
        <time>2017-02-04T12:13:33Z</time>
      </trkpt>
      <trkpt lat="38.337668" lon="-1.195485">
        <ele>452.4</ele>
        <time>2017-02-04T12:13:35Z</time>
      </trkpt>
      <trkpt lat="38.337666" lon="-1.195498">
        <ele>452.9</ele>
        <time>2017-02-04T12:13:36Z</time>
      </trkpt>
      <trkpt lat="38.337663" lon="-1.195512">
        <ele>452.9</ele>
        <time>2017-02-04T12:13:37Z</time>
      </trkpt>
      <trkpt lat="38.337669" lon="-1.195538">
        <ele>453.4</ele>
        <time>2017-02-04T12:13:39Z</time>
      </trkpt>
      <trkpt lat="38.337672" lon="-1.195555">
        <ele>453.4</ele>
        <time>2017-02-04T12:13:40Z</time>
      </trkpt>
      <trkpt lat="38.337672" lon="-1.195572">
        <ele>453.9</ele>
        <time>2017-02-04T12:13:41Z</time>
      </trkpt>
      <trkpt lat="38.337667" lon="-1.195589">
        <ele>453.4</ele>
        <time>2017-02-04T12:13:42Z</time>
      </trkpt>
      <trkpt lat="38.337659" lon="-1.195631">
        <ele>453.9</ele>
        <time>2017-02-04T12:13:45Z</time>
      </trkpt>
      <trkpt lat="38.337650" lon="-1.195649">
        <ele>454.4</ele>
        <time>2017-02-04T12:13:47Z</time>
      </trkpt>
      <trkpt lat="38.337643" lon="-1.195672">
        <ele>453.9</ele>
        <time>2017-02-04T12:13:49Z</time>
      </trkpt>
      <trkpt lat="38.337637" lon="-1.195720">
        <ele>453.9</ele>
        <time>2017-02-04T12:14:01Z</time>
      </trkpt>
      <trkpt lat="38.337639" lon="-1.195724">
        <ele>454.4</ele>
        <time>2017-02-04T12:14:06Z</time>
      </trkpt>
      <trkpt lat="38.337651" lon="-1.195857">
        <ele>454.4</ele>
        <time>2017-02-04T12:14:14Z</time>
      </trkpt>
      <trkpt lat="38.337649" lon="-1.195874">
        <ele>454.4</ele>
        <time>2017-02-04T12:14:15Z</time>
      </trkpt>
      <trkpt lat="38.337648" lon="-1.195894">
        <ele>454.8</ele>
        <time>2017-02-04T12:14:16Z</time>
      </trkpt>
      <trkpt lat="38.337648" lon="-1.195911">
        <ele>454.4</ele>
        <time>2017-02-04T12:14:17Z</time>
      </trkpt>
      <trkpt lat="38.337639" lon="-1.195987">
        <ele>453.4</ele>
        <time>2017-02-04T12:14:22Z</time>
      </trkpt>
      <trkpt lat="38.337634" lon="-1.196005">
        <ele>453.9</ele>
        <time>2017-02-04T12:14:23Z</time>
      </trkpt>
      <trkpt lat="38.337628" lon="-1.196025">
        <ele>453.9</ele>
        <time>2017-02-04T12:14:24Z</time>
      </trkpt>
      <trkpt lat="38.337618" lon="-1.196121">
        <ele>449.1</ele>
        <time>2017-02-04T12:14:29Z</time>
      </trkpt>
      <trkpt lat="38.337617" lon="-1.196139">
        <ele>451.5</ele>
        <time>2017-02-04T12:14:30Z</time>
      </trkpt>
      <trkpt lat="38.337618" lon="-1.196148">
        <ele>457.7</ele>
        <time>2017-02-04T12:14:31Z</time>
      </trkpt>
      <trkpt lat="38.337618" lon="-1.196154">
        <ele>455.8</ele>
        <time>2017-02-04T12:14:32Z</time>
      </trkpt>
      <trkpt lat="38.337631" lon="-1.196146">
        <ele>453.9</ele>
        <time>2017-02-04T12:14:34Z</time>
      </trkpt>
      <trkpt lat="38.337631" lon="-1.196149">
        <ele>450.0</ele>
        <time>2017-02-04T12:14:37Z</time>
      </trkpt>
      <trkpt lat="38.337626" lon="-1.196176">
        <ele>453.4</ele>
        <time>2017-02-04T12:14:39Z</time>
      </trkpt>
      <trkpt lat="38.337607" lon="-1.196326">
        <ele>456.8</ele>
        <time>2017-02-04T12:14:47Z</time>
      </trkpt>
      <trkpt lat="38.337607" lon="-1.196338">
        <ele>456.3</ele>
        <time>2017-02-04T12:14:48Z</time>
      </trkpt>
      <trkpt lat="38.337604" lon="-1.196347">
        <ele>453.4</ele>
        <time>2017-02-04T12:14:50Z</time>
      </trkpt>
      <trkpt lat="38.337609" lon="-1.196345">
        <ele>453.4</ele>
        <time>2017-02-04T12:14:51Z</time>
      </trkpt>
      <trkpt lat="38.337589" lon="-1.196400">
        <ele>452.9</ele>
        <time>2017-02-04T12:15:03Z</time>
      </trkpt>
      <trkpt lat="38.337575" lon="-1.196493">
        <ele>453.9</ele>
        <time>2017-02-04T12:15:11Z</time>
      </trkpt>
      <trkpt lat="38.337570" lon="-1.196592">
        <ele>453.4</ele>
        <time>2017-02-04T12:15:20Z</time>
      </trkpt>
      <trkpt lat="38.337567" lon="-1.196606">
        <ele>452.4</ele>
        <time>2017-02-04T12:15:21Z</time>
      </trkpt>
      <trkpt lat="38.337565" lon="-1.196622">
        <ele>452.4</ele>
        <time>2017-02-04T12:15:22Z</time>
      </trkpt>
      <trkpt lat="38.337566" lon="-1.196639">
        <ele>452.9</ele>
        <time>2017-02-04T12:15:23Z</time>
      </trkpt>
      <trkpt lat="38.337564" lon="-1.196657">
        <ele>453.4</ele>
        <time>2017-02-04T12:15:24Z</time>
      </trkpt>
      <trkpt lat="38.337567" lon="-1.196691">
        <ele>453.4</ele>
        <time>2017-02-04T12:15:26Z</time>
      </trkpt>
      <trkpt lat="38.337576" lon="-1.196720">
        <ele>454.4</ele>
        <time>2017-02-04T12:15:33Z</time>
      </trkpt>
      <trkpt lat="38.337572" lon="-1.196736">
        <ele>454.4</ele>
        <time>2017-02-04T12:15:34Z</time>
      </trkpt>
      <trkpt lat="38.337567" lon="-1.196755">
        <ele>454.8</ele>
        <time>2017-02-04T12:15:35Z</time>
      </trkpt>
      <trkpt lat="38.337562" lon="-1.196895">
        <ele>454.8</ele>
        <time>2017-02-04T12:15:46Z</time>
      </trkpt>
      <trkpt lat="38.337557" lon="-1.197287">
        <ele>452.9</ele>
        <time>2017-02-04T12:16:08Z</time>
      </trkpt>
      <trkpt lat="38.337553" lon="-1.197445">
        <ele>451.5</ele>
        <time>2017-02-04T12:16:17Z</time>
      </trkpt>
      <trkpt lat="38.337547" lon="-1.197774">
        <ele>450.5</ele>
        <time>2017-02-04T12:16:35Z</time>
      </trkpt>
      <trkpt lat="38.337545" lon="-1.198036">
        <ele>450.5</ele>
        <time>2017-02-04T12:16:49Z</time>
      </trkpt>
      <trkpt lat="38.337543" lon="-1.198283">
        <ele>448.1</ele>
        <time>2017-02-04T12:17:03Z</time>
      </trkpt>
      <trkpt lat="38.337537" lon="-1.198499">
        <ele>448.6</ele>
        <time>2017-02-04T12:17:14Z</time>
      </trkpt>
      <trkpt lat="38.337525" lon="-1.198806">
        <ele>447.6</ele>
        <time>2017-02-04T12:17:31Z</time>
      </trkpt>
      <trkpt lat="38.337503" lon="-1.199165">
        <ele>446.7</ele>
        <time>2017-02-04T12:17:49Z</time>
      </trkpt>
      <trkpt lat="38.337496" lon="-1.199538">
        <ele>445.7</ele>
        <time>2017-02-04T12:18:09Z</time>
      </trkpt>
      <trkpt lat="38.337461" lon="-1.199807">
        <ele>446.2</ele>
        <time>2017-02-04T12:18:24Z</time>
      </trkpt>
      <trkpt lat="38.337449" lon="-1.200134">
        <ele>445.2</ele>
        <time>2017-02-04T12:18:41Z</time>
      </trkpt>
      <trkpt lat="38.337447" lon="-1.200153">
        <ele>444.8</ele>
        <time>2017-02-04T12:18:42Z</time>
      </trkpt>
      <trkpt lat="38.337441" lon="-1.200430">
        <ele>443.3</ele>
        <time>2017-02-04T12:18:57Z</time>
      </trkpt>
      <trkpt lat="38.337438" lon="-1.200649">
        <ele>444.8</ele>
        <time>2017-02-04T12:19:10Z</time>
      </trkpt>
      <trkpt lat="38.337416" lon="-1.200843">
        <ele>445.2</ele>
        <time>2017-02-04T12:19:23Z</time>
      </trkpt>
      <trkpt lat="38.337417" lon="-1.201018">
        <ele>443.8</ele>
        <time>2017-02-04T12:19:34Z</time>
      </trkpt>
      <trkpt lat="38.337381" lon="-1.201267">
        <ele>444.3</ele>
        <time>2017-02-04T12:19:49Z</time>
      </trkpt>
      <trkpt lat="38.337362" lon="-1.201430">
        <ele>445.2</ele>
        <time>2017-02-04T12:20:00Z</time>
      </trkpt>
      <trkpt lat="38.337353" lon="-1.201424">
        <ele>444.8</ele>
        <time>2017-02-04T12:20:02Z</time>
      </trkpt>
      <trkpt lat="38.337352" lon="-1.201447">
        <ele>444.3</ele>
        <time>2017-02-04T12:20:03Z</time>
      </trkpt>
      <trkpt lat="38.337351" lon="-1.201479">
        <ele>443.8</ele>
        <time>2017-02-04T12:20:04Z</time>
      </trkpt>
      <trkpt lat="38.337348" lon="-1.201542">
        <ele>442.8</ele>
        <time>2017-02-04T12:20:06Z</time>
      </trkpt>
      <trkpt lat="38.337347" lon="-1.201732">
        <ele>446.7</ele>
        <time>2017-02-04T12:20:13Z</time>
      </trkpt>
      <trkpt lat="38.337347" lon="-1.201749">
        <ele>446.2</ele>
        <time>2017-02-04T12:20:14Z</time>
      </trkpt>
      <trkpt lat="38.337334" lon="-1.201842">
        <ele>444.3</ele>
        <time>2017-02-04T12:20:19Z</time>
      </trkpt>
      <trkpt lat="38.337310" lon="-1.202163">
        <ele>444.3</ele>
        <time>2017-02-04T12:20:36Z</time>
      </trkpt>
      <trkpt lat="38.337287" lon="-1.202432">
        <ele>445.2</ele>
        <time>2017-02-04T12:20:54Z</time>
      </trkpt>
      <trkpt lat="38.337287" lon="-1.202472">
        <ele>443.8</ele>
        <time>2017-02-04T12:20:56Z</time>
      </trkpt>
      <trkpt lat="38.337290" lon="-1.202500">
        <ele>445.7</ele>
        <time>2017-02-04T12:20:59Z</time>
      </trkpt>
      <trkpt lat="38.337287" lon="-1.202506">
        <ele>445.2</ele>
        <time>2017-02-04T12:21:01Z</time>
      </trkpt>
      <trkpt lat="38.337286" lon="-1.202526">
        <ele>445.7</ele>
        <time>2017-02-04T12:21:02Z</time>
      </trkpt>
      <trkpt lat="38.337283" lon="-1.202555">
        <ele>443.8</ele>
        <time>2017-02-04T12:21:04Z</time>
      </trkpt>
      <trkpt lat="38.337284" lon="-1.202584">
        <ele>444.8</ele>
        <time>2017-02-04T12:21:06Z</time>
      </trkpt>
      <trkpt lat="38.337281" lon="-1.202899">
        <ele>442.8</ele>
        <time>2017-02-04T12:21:24Z</time>
      </trkpt>
      <trkpt lat="38.337267" lon="-1.203161">
        <ele>442.8</ele>
        <time>2017-02-04T12:21:39Z</time>
      </trkpt>
      <trkpt lat="38.337230" lon="-1.203509">
        <ele>442.3</ele>
        <time>2017-02-04T12:21:59Z</time>
      </trkpt>
      <trkpt lat="38.337218" lon="-1.203787">
        <ele>442.8</ele>
        <time>2017-02-04T12:22:15Z</time>
      </trkpt>
      <trkpt lat="38.337201" lon="-1.204083">
        <ele>443.3</ele>
        <time>2017-02-04T12:22:31Z</time>
      </trkpt>
      <trkpt lat="38.337180" lon="-1.204329">
        <ele>445.2</ele>
        <time>2017-02-04T12:22:46Z</time>
      </trkpt>
      <trkpt lat="38.337181" lon="-1.204345">
        <ele>443.8</ele>
        <time>2017-02-04T12:22:47Z</time>
      </trkpt>
      <trkpt lat="38.337169" lon="-1.204498">
        <ele>445.2</ele>
        <time>2017-02-04T12:22:56Z</time>
      </trkpt>
      <trkpt lat="38.337154" lon="-1.204729">
        <ele>447.1</ele>
        <time>2017-02-04T12:23:09Z</time>
      </trkpt>
      <trkpt lat="38.337160" lon="-1.204775">
        <ele>446.7</ele>
        <time>2017-02-04T12:23:12Z</time>
      </trkpt>
      <trkpt lat="38.337163" lon="-1.204877">
        <ele>448.6</ele>
        <time>2017-02-04T12:23:21Z</time>
      </trkpt>
      <trkpt lat="38.337161" lon="-1.204905">
        <ele>449.1</ele>
        <time>2017-02-04T12:23:30Z</time>
      </trkpt>
      <trkpt lat="38.337160" lon="-1.204917">
        <ele>447.1</ele>
        <time>2017-02-04T12:23:31Z</time>
      </trkpt>
      <trkpt lat="38.337169" lon="-1.204979">
        <ele>452.9</ele>
        <time>2017-02-04T12:23:41Z</time>
      </trkpt>
      <trkpt lat="38.337157" lon="-1.205081">
        <ele>448.6</ele>
        <time>2017-02-04T12:25:06Z</time>
      </trkpt>
      <trkpt lat="38.337161" lon="-1.205176">
        <ele>447.6</ele>
        <time>2017-02-04T12:27:07Z</time>
      </trkpt>
      <trkpt lat="38.337164" lon="-1.205193">
        <ele>447.6</ele>
        <time>2017-02-04T12:27:08Z</time>
      </trkpt>
      <trkpt lat="38.337166" lon="-1.205213">
        <ele>448.1</ele>
        <time>2017-02-04T12:27:09Z</time>
      </trkpt>
      <trkpt lat="38.337168" lon="-1.205233">
        <ele>447.6</ele>
        <time>2017-02-04T12:27:10Z</time>
      </trkpt>
      <trkpt lat="38.337160" lon="-1.205309">
        <ele>447.1</ele>
        <time>2017-02-04T12:27:14Z</time>
      </trkpt>
      <trkpt lat="38.337172" lon="-1.205431">
        <ele>447.1</ele>
        <time>2017-02-04T12:27:30Z</time>
      </trkpt>
      <trkpt lat="38.337193" lon="-1.205649">
        <ele>447.1</ele>
        <time>2017-02-04T12:27:50Z</time>
      </trkpt>
      <trkpt lat="38.337203" lon="-1.205724">
        <ele>447.1</ele>
        <time>2017-02-04T12:28:00Z</time>
      </trkpt>
      <trkpt lat="38.337203" lon="-1.205740">
        <ele>446.7</ele>
        <time>2017-02-04T12:28:01Z</time>
      </trkpt>
      <trkpt lat="38.337203" lon="-1.205915">
        <ele>446.2</ele>
        <time>2017-02-04T12:28:14Z</time>
      </trkpt>
      <trkpt lat="38.337215" lon="-1.206010">
        <ele>445.7</ele>
        <time>2017-02-04T12:28:24Z</time>
      </trkpt>
      <trkpt lat="38.337229" lon="-1.206344">
        <ele>445.2</ele>
        <time>2017-02-04T12:28:42Z</time>
      </trkpt>
      <trkpt lat="38.337249" lon="-1.206656">
        <ele>444.3</ele>
        <time>2017-02-04T12:29:00Z</time>
      </trkpt>
      <trkpt lat="38.337249" lon="-1.206920">
        <ele>443.3</ele>
        <time>2017-02-04T12:29:16Z</time>
      </trkpt>
      <trkpt lat="38.337247" lon="-1.206955">
        <ele>444.3</ele>
        <time>2017-02-04T12:29:18Z</time>
      </trkpt>
      <trkpt lat="38.337252" lon="-1.206973">
        <ele>443.8</ele>
        <time>2017-02-04T12:29:19Z</time>
      </trkpt>
      <trkpt lat="38.337257" lon="-1.206986">
        <ele>443.3</ele>
        <time>2017-02-04T12:29:20Z</time>
      </trkpt>
      <trkpt lat="38.337260" lon="-1.207000">
        <ele>443.8</ele>
        <time>2017-02-04T12:29:21Z</time>
      </trkpt>
      <trkpt lat="38.337262" lon="-1.207017">
        <ele>443.8</ele>
        <time>2017-02-04T12:29:22Z</time>
      </trkpt>
      <trkpt lat="38.337264" lon="-1.207032">
        <ele>444.8</ele>
        <time>2017-02-04T12:29:23Z</time>
      </trkpt>
      <trkpt lat="38.337264" lon="-1.207049">
        <ele>443.3</ele>
        <time>2017-02-04T12:29:24Z</time>
      </trkpt>
      <trkpt lat="38.337276" lon="-1.207055">
        <ele>445.7</ele>
        <time>2017-02-04T12:29:28Z</time>
      </trkpt>
      <trkpt lat="38.337275" lon="-1.207065">
        <ele>445.7</ele>
        <time>2017-02-04T12:29:29Z</time>
      </trkpt>
      <trkpt lat="38.337275" lon="-1.207083">
        <ele>445.7</ele>
        <time>2017-02-04T12:29:30Z</time>
      </trkpt>
      <trkpt lat="38.337294" lon="-1.207316">
        <ele>443.3</ele>
        <time>2017-02-04T12:29:43Z</time>
      </trkpt>
      <trkpt lat="38.337294" lon="-1.207574">
        <ele>443.8</ele>
        <time>2017-02-04T12:29:57Z</time>
      </trkpt>
      <trkpt lat="38.337320" lon="-1.207841">
        <ele>444.3</ele>
        <time>2017-02-04T12:30:12Z</time>
      </trkpt>
      <trkpt lat="38.337337" lon="-1.208147">
        <ele>444.3</ele>
        <time>2017-02-04T12:30:30Z</time>
      </trkpt>
      <trkpt lat="38.337333" lon="-1.208455">
        <ele>444.3</ele>
        <time>2017-02-04T12:30:48Z</time>
      </trkpt>
      <trkpt lat="38.337347" lon="-1.208737">
        <ele>442.8</ele>
        <time>2017-02-04T12:31:04Z</time>
      </trkpt>
      <trkpt lat="38.337359" lon="-1.209048">
        <ele>441.9</ele>
        <time>2017-02-04T12:31:21Z</time>
      </trkpt>
      <trkpt lat="38.337372" lon="-1.209379">
        <ele>441.4</ele>
        <time>2017-02-04T12:31:39Z</time>
      </trkpt>
      <trkpt lat="38.337382" lon="-1.209706">
        <ele>441.4</ele>
        <time>2017-02-04T12:31:58Z</time>
      </trkpt>
      <trkpt lat="38.337402" lon="-1.210036">
        <ele>440.9</ele>
        <time>2017-02-04T12:32:17Z</time>
      </trkpt>
      <trkpt lat="38.337410" lon="-1.210351">
        <ele>439.5</ele>
        <time>2017-02-04T12:32:35Z</time>
      </trkpt>
      <trkpt lat="38.337428" lon="-1.210635">
        <ele>441.4</ele>
        <time>2017-02-04T12:32:52Z</time>
      </trkpt>
      <trkpt lat="38.337437" lon="-1.210823">
        <ele>440.9</ele>
        <time>2017-02-04T12:33:03Z</time>
      </trkpt>
      <trkpt lat="38.337439" lon="-1.210842">
        <ele>440.9</ele>
        <time>2017-02-04T12:33:04Z</time>
      </trkpt>
      <trkpt lat="38.337447" lon="-1.211084">
        <ele>441.9</ele>
        <time>2017-02-04T12:33:19Z</time>
      </trkpt>
      <trkpt lat="38.337462" lon="-1.211246">
        <ele>440.9</ele>
        <time>2017-02-04T12:33:30Z</time>
      </trkpt>
      <trkpt lat="38.337465" lon="-1.211264">
        <ele>441.4</ele>
        <time>2017-02-04T12:33:31Z</time>
      </trkpt>
      <trkpt lat="38.337466" lon="-1.211279">
        <ele>440.4</ele>
        <time>2017-02-04T12:33:32Z</time>
      </trkpt>
      <trkpt lat="38.337462" lon="-1.211345">
        <ele>439.9</ele>
        <time>2017-02-04T12:33:36Z</time>
      </trkpt>
      <trkpt lat="38.337480" lon="-1.211629">
        <ele>440.9</ele>
        <time>2017-02-04T12:33:53Z</time>
      </trkpt>
      <trkpt lat="38.337494" lon="-1.211905">
        <ele>441.4</ele>
        <time>2017-02-04T12:34:10Z</time>
      </trkpt>
      <trkpt lat="38.337499" lon="-1.212170">
        <ele>440.9</ele>
        <time>2017-02-04T12:34:27Z</time>
      </trkpt>
      <trkpt lat="38.337501" lon="-1.212435">
        <ele>440.4</ele>
        <time>2017-02-04T12:34:44Z</time>
      </trkpt>
      <trkpt lat="38.337515" lon="-1.212683">
        <ele>441.9</ele>
        <time>2017-02-04T12:35:00Z</time>
      </trkpt>
      <trkpt lat="38.337523" lon="-1.212746">
        <ele>442.3</ele>
        <time>2017-02-04T12:35:06Z</time>
      </trkpt>
      <trkpt lat="38.337519" lon="-1.212762">
        <ele>441.9</ele>
        <time>2017-02-04T12:35:07Z</time>
      </trkpt>
      <trkpt lat="38.337520" lon="-1.212778">
        <ele>440.9</ele>
        <time>2017-02-04T12:35:08Z</time>
      </trkpt>
      <trkpt lat="38.337545" lon="-1.213048">
        <ele>439.0</ele>
        <time>2017-02-04T12:35:25Z</time>
      </trkpt>
      <trkpt lat="38.337548" lon="-1.213246">
        <ele>439.0</ele>
        <time>2017-02-04T12:35:38Z</time>
      </trkpt>
      <trkpt lat="38.337555" lon="-1.213493">
        <ele>438.5</ele>
        <time>2017-02-04T12:35:53Z</time>
      </trkpt>
      <trkpt lat="38.337556" lon="-1.213529">
        <ele>439.0</ele>
        <time>2017-02-04T12:35:55Z</time>
      </trkpt>
      <trkpt lat="38.337571" lon="-1.213756">
        <ele>439.5</ele>
        <time>2017-02-04T12:36:10Z</time>
      </trkpt>
      <trkpt lat="38.337573" lon="-1.213770">
        <ele>439.9</ele>
        <time>2017-02-04T12:36:11Z</time>
      </trkpt>
      <trkpt lat="38.337570" lon="-1.213784">
        <ele>439.9</ele>
        <time>2017-02-04T12:36:12Z</time>
      </trkpt>
      <trkpt lat="38.337567" lon="-1.213800">
        <ele>439.9</ele>
        <time>2017-02-04T12:36:13Z</time>
      </trkpt>
      <trkpt lat="38.337566" lon="-1.213817">
        <ele>439.9</ele>
        <time>2017-02-04T12:36:14Z</time>
      </trkpt>
      <trkpt lat="38.337572" lon="-1.213832">
        <ele>440.4</ele>
        <time>2017-02-04T12:36:15Z</time>
      </trkpt>
      <trkpt lat="38.337576" lon="-1.213847">
        <ele>440.4</ele>
        <time>2017-02-04T12:36:16Z</time>
      </trkpt>
      <trkpt lat="38.337579" lon="-1.213862">
        <ele>440.4</ele>
        <time>2017-02-04T12:36:17Z</time>
      </trkpt>
      <trkpt lat="38.337578" lon="-1.213877">
        <ele>440.4</ele>
        <time>2017-02-04T12:36:18Z</time>
      </trkpt>
      <trkpt lat="38.337576" lon="-1.213894">
        <ele>440.4</ele>
        <time>2017-02-04T12:36:19Z</time>
      </trkpt>
      <trkpt lat="38.337579" lon="-1.213910">
        <ele>440.9</ele>
        <time>2017-02-04T12:36:20Z</time>
      </trkpt>
      <trkpt lat="38.337582" lon="-1.213926">
        <ele>440.9</ele>
        <time>2017-02-04T12:36:21Z</time>
      </trkpt>
      <trkpt lat="38.337584" lon="-1.214162">
        <ele>441.9</ele>
        <time>2017-02-04T12:36:36Z</time>
      </trkpt>
      <trkpt lat="38.337604" lon="-1.214407">
        <ele>439.9</ele>
        <time>2017-02-04T12:36:51Z</time>
      </trkpt>
      <trkpt lat="38.337613" lon="-1.214747">
        <ele>439.5</ele>
        <time>2017-02-04T12:37:10Z</time>
      </trkpt>
      <trkpt lat="38.337616" lon="-1.215009">
        <ele>439.9</ele>
        <time>2017-02-04T12:37:25Z</time>
      </trkpt>
      <trkpt lat="38.337630" lon="-1.215332">
        <ele>439.5</ele>
        <time>2017-02-04T12:37:44Z</time>
      </trkpt>
      <trkpt lat="38.337643" lon="-1.215596">
        <ele>439.5</ele>
        <time>2017-02-04T12:38:00Z</time>
      </trkpt>
      <trkpt lat="38.337663" lon="-1.215838">
        <ele>439.5</ele>
        <time>2017-02-04T12:38:15Z</time>
      </trkpt>
      <trkpt lat="38.337677" lon="-1.216088">
        <ele>439.9</ele>
        <time>2017-02-04T12:38:30Z</time>
      </trkpt>
      <trkpt lat="38.337684" lon="-1.216345">
        <ele>441.9</ele>
        <time>2017-02-04T12:38:45Z</time>
      </trkpt>
      <trkpt lat="38.337683" lon="-1.216360">
        <ele>441.9</ele>
        <time>2017-02-04T12:38:46Z</time>
      </trkpt>
      <trkpt lat="38.337694" lon="-1.216453">
        <ele>439.0</ele>
        <time>2017-02-04T12:38:52Z</time>
      </trkpt>
      <trkpt lat="38.337697" lon="-1.216464">
        <ele>439.0</ele>
        <time>2017-02-04T12:38:53Z</time>
      </trkpt>
      <trkpt lat="38.337702" lon="-1.216471">
        <ele>442.8</ele>
        <time>2017-02-04T12:38:54Z</time>
      </trkpt>
      <trkpt lat="38.337693" lon="-1.216473">
        <ele>441.4</ele>
        <time>2017-02-04T12:39:03Z</time>
      </trkpt>
      <trkpt lat="38.337692" lon="-1.216489">
        <ele>440.9</ele>
        <time>2017-02-04T12:39:04Z</time>
      </trkpt>
      <trkpt lat="38.337689" lon="-1.216511">
        <ele>441.4</ele>
        <time>2017-02-04T12:39:05Z</time>
      </trkpt>
      <trkpt lat="38.337688" lon="-1.216532">
        <ele>440.4</ele>
        <time>2017-02-04T12:39:06Z</time>
      </trkpt>
      <trkpt lat="38.337687" lon="-1.216552">
        <ele>440.9</ele>
        <time>2017-02-04T12:39:07Z</time>
      </trkpt>
      <trkpt lat="38.337684" lon="-1.216576">
        <ele>441.4</ele>
        <time>2017-02-04T12:39:08Z</time>
      </trkpt>
      <trkpt lat="38.337685" lon="-1.216598">
        <ele>441.4</ele>
        <time>2017-02-04T12:39:09Z</time>
      </trkpt>
      <trkpt lat="38.337686" lon="-1.216617">
        <ele>441.9</ele>
        <time>2017-02-04T12:39:10Z</time>
      </trkpt>
      <trkpt lat="38.337684" lon="-1.216634">
        <ele>441.9</ele>
        <time>2017-02-04T12:39:11Z</time>
      </trkpt>
      <trkpt lat="38.337691" lon="-1.216738">
        <ele>440.4</ele>
        <time>2017-02-04T12:39:19Z</time>
      </trkpt>
      <trkpt lat="38.337690" lon="-1.216758">
        <ele>445.2</ele>
        <time>2017-02-04T12:39:20Z</time>
      </trkpt>
      <trkpt lat="38.337691" lon="-1.216779">
        <ele>445.2</ele>
        <time>2017-02-04T12:39:21Z</time>
      </trkpt>
      <trkpt lat="38.337692" lon="-1.216801">
        <ele>443.3</ele>
        <time>2017-02-04T12:39:22Z</time>
      </trkpt>
      <trkpt lat="38.337694" lon="-1.216818">
        <ele>441.9</ele>
        <time>2017-02-04T12:39:23Z</time>
      </trkpt>
      <trkpt lat="38.337691" lon="-1.216839">
        <ele>442.3</ele>
        <time>2017-02-04T12:39:24Z</time>
      </trkpt>
      <trkpt lat="38.337689" lon="-1.216858">
        <ele>442.3</ele>
        <time>2017-02-04T12:39:25Z</time>
      </trkpt>
      <trkpt lat="38.337683" lon="-1.216878">
        <ele>442.8</ele>
        <time>2017-02-04T12:39:26Z</time>
      </trkpt>
      <trkpt lat="38.337655" lon="-1.217004">
        <ele>442.8</ele>
        <time>2017-02-04T12:39:33Z</time>
      </trkpt>
      <trkpt lat="38.337657" lon="-1.217026">
        <ele>443.8</ele>
        <time>2017-02-04T12:39:35Z</time>
      </trkpt>
      <trkpt lat="38.337648" lon="-1.217040">
        <ele>443.3</ele>
        <time>2017-02-04T12:39:36Z</time>
      </trkpt>
      <trkpt lat="38.337631" lon="-1.217106">
        <ele>440.4</ele>
        <time>2017-02-04T12:39:40Z</time>
      </trkpt>
      <trkpt lat="38.337624" lon="-1.217124">
        <ele>445.2</ele>
        <time>2017-02-04T12:39:41Z</time>
      </trkpt>
      <trkpt lat="38.337622" lon="-1.217142">
        <ele>444.8</ele>
        <time>2017-02-04T12:39:42Z</time>
      </trkpt>
      <trkpt lat="38.337624" lon="-1.217337">
        <ele>442.3</ele>
        <time>2017-02-04T12:39:53Z</time>
      </trkpt>
      <trkpt lat="38.337577" lon="-1.217610">
        <ele>443.3</ele>
        <time>2017-02-04T12:40:29Z</time>
      </trkpt>
      <trkpt lat="38.337582" lon="-1.217663">
        <ele>443.8</ele>
        <time>2017-02-04T12:40:32Z</time>
      </trkpt>
      <trkpt lat="38.337578" lon="-1.217924">
        <ele>442.8</ele>
        <time>2017-02-04T12:40:48Z</time>
      </trkpt>
      <trkpt lat="38.337601" lon="-1.218170">
        <ele>442.8</ele>
        <time>2017-02-04T12:41:03Z</time>
      </trkpt>
      <trkpt lat="38.337679" lon="-1.218386">
        <ele>442.8</ele>
        <time>2017-02-04T12:41:17Z</time>
      </trkpt>
      <trkpt lat="38.337822" lon="-1.218596">
        <ele>442.3</ele>
        <time>2017-02-04T12:41:32Z</time>
      </trkpt>
      <trkpt lat="38.337922" lon="-1.218742">
        <ele>442.3</ele>
        <time>2017-02-04T12:41:44Z</time>
      </trkpt>
      <trkpt lat="38.337935" lon="-1.218784">
        <ele>441.9</ele>
        <time>2017-02-04T12:41:47Z</time>
      </trkpt>
      <trkpt lat="38.338010" lon="-1.219009">
        <ele>441.9</ele>
        <time>2017-02-04T12:42:01Z</time>
      </trkpt>
      <trkpt lat="38.338020" lon="-1.219278">
        <ele>441.4</ele>
        <time>2017-02-04T12:42:16Z</time>
      </trkpt>
      <trkpt lat="38.337948" lon="-1.219562">
        <ele>441.9</ele>
        <time>2017-02-04T12:42:33Z</time>
      </trkpt>
      <trkpt lat="38.337890" lon="-1.219816">
        <ele>442.8</ele>
        <time>2017-02-04T12:42:48Z</time>
      </trkpt>
      <trkpt lat="38.337826" lon="-1.220078">
        <ele>442.8</ele>
        <time>2017-02-04T12:43:04Z</time>
      </trkpt>
      <trkpt lat="38.337736" lon="-1.220344">
        <ele>442.8</ele>
        <time>2017-02-04T12:43:20Z</time>
      </trkpt>
      <trkpt lat="38.337642" lon="-1.220592">
        <ele>443.8</ele>
        <time>2017-02-04T12:43:36Z</time>
      </trkpt>
      <trkpt lat="38.337516" lon="-1.220825">
        <ele>442.3</ele>
        <time>2017-02-04T12:43:53Z</time>
      </trkpt>
      <trkpt lat="38.337382" lon="-1.221010">
        <ele>441.4</ele>
        <time>2017-02-04T12:44:07Z</time>
      </trkpt>
      <trkpt lat="38.337187" lon="-1.221252">
        <ele>441.4</ele>
        <time>2017-02-04T12:44:26Z</time>
      </trkpt>
      <trkpt lat="38.337039" lon="-1.221491">
        <ele>441.9</ele>
        <time>2017-02-04T12:44:44Z</time>
      </trkpt>
      <trkpt lat="38.336919" lon="-1.221757">
        <ele>441.4</ele>
        <time>2017-02-04T12:45:01Z</time>
      </trkpt>
      <trkpt lat="38.336692" lon="-1.221874">
        <ele>440.4</ele>
        <time>2017-02-04T12:45:19Z</time>
      </trkpt>
      <trkpt lat="38.336510" lon="-1.221990">
        <ele>439.5</ele>
        <time>2017-02-04T12:45:34Z</time>
      </trkpt>
      <trkpt lat="38.336367" lon="-1.222253">
        <ele>438.5</ele>
        <time>2017-02-04T12:45:53Z</time>
      </trkpt>
      <trkpt lat="38.336229" lon="-1.222518">
        <ele>438.5</ele>
        <time>2017-02-04T12:46:11Z</time>
      </trkpt>
      <trkpt lat="38.336078" lon="-1.222790">
        <ele>438.0</ele>
        <time>2017-02-04T12:46:31Z</time>
      </trkpt>
      <trkpt lat="38.335928" lon="-1.223019">
        <ele>437.1</ele>
        <time>2017-02-04T12:46:48Z</time>
      </trkpt>
      <trkpt lat="38.335758" lon="-1.223282">
        <ele>435.6</ele>
        <time>2017-02-04T12:47:08Z</time>
      </trkpt>
      <trkpt lat="38.335588" lon="-1.223490">
        <ele>435.6</ele>
        <time>2017-02-04T12:47:25Z</time>
      </trkpt>
      <trkpt lat="38.335593" lon="-1.223499">
        <ele>435.6</ele>
        <time>2017-02-04T12:47:33Z</time>
      </trkpt>
      <trkpt lat="38.335579" lon="-1.223511">
        <ele>435.1</ele>
        <time>2017-02-04T12:47:34Z</time>
      </trkpt>
      <trkpt lat="38.335545" lon="-1.223546">
        <ele>436.6</ele>
        <time>2017-02-04T12:47:37Z</time>
      </trkpt>
      <trkpt lat="38.335530" lon="-1.223571">
        <ele>435.1</ele>
        <time>2017-02-04T12:47:39Z</time>
      </trkpt>
      <trkpt lat="38.335389" lon="-1.223851">
        <ele>434.6</ele>
        <time>2017-02-04T12:47:59Z</time>
      </trkpt>
      <trkpt lat="38.335383" lon="-1.223865">
        <ele>435.1</ele>
        <time>2017-02-04T12:48:01Z</time>
      </trkpt>
      <trkpt lat="38.335386" lon="-1.223895">
        <ele>434.6</ele>
        <time>2017-02-04T12:48:11Z</time>
      </trkpt>
      <trkpt lat="38.335386" lon="-1.223910">
        <ele>434.6</ele>
        <time>2017-02-04T12:48:12Z</time>
      </trkpt>
      <trkpt lat="38.335388" lon="-1.223925">
        <ele>434.6</ele>
        <time>2017-02-04T12:48:19Z</time>
      </trkpt>
      <trkpt lat="38.335384" lon="-1.223939">
        <ele>435.1</ele>
        <time>2017-02-04T12:48:20Z</time>
      </trkpt>
      <trkpt lat="38.335382" lon="-1.224003">
        <ele>434.2</ele>
        <time>2017-02-04T12:48:23Z</time>
      </trkpt>
      <trkpt lat="38.335376" lon="-1.224022">
        <ele>434.2</ele>
        <time>2017-02-04T12:48:24Z</time>
      </trkpt>
      <trkpt lat="38.335371" lon="-1.224039">
        <ele>434.6</ele>
        <time>2017-02-04T12:48:25Z</time>
      </trkpt>
      <trkpt lat="38.335384" lon="-1.224353">
        <ele>433.2</ele>
        <time>2017-02-04T12:48:41Z</time>
      </trkpt>
      <trkpt lat="38.335373" lon="-1.224758">
        <ele>432.7</ele>
        <time>2017-02-04T12:49:01Z</time>
      </trkpt>
      <trkpt lat="38.335393" lon="-1.225122">
        <ele>433.2</ele>
        <time>2017-02-04T12:49:20Z</time>
      </trkpt>
      <trkpt lat="38.335388" lon="-1.225443">
        <ele>432.7</ele>
        <time>2017-02-04T12:49:38Z</time>
      </trkpt>
      <trkpt lat="38.335336" lon="-1.225714">
        <ele>433.2</ele>
        <time>2017-02-04T12:49:56Z</time>
      </trkpt>
      <trkpt lat="38.335327" lon="-1.225941">
        <ele>433.7</ele>
        <time>2017-02-04T12:50:11Z</time>
      </trkpt>
      <trkpt lat="38.335316" lon="-1.226242">
        <ele>434.2</ele>
        <time>2017-02-04T12:50:29Z</time>
      </trkpt>
      <trkpt lat="38.335301" lon="-1.226501">
        <ele>434.6</ele>
        <time>2017-02-04T12:50:46Z</time>
      </trkpt>
      <trkpt lat="38.335308" lon="-1.226784">
        <ele>434.6</ele>
        <time>2017-02-04T12:51:03Z</time>
      </trkpt>
      <trkpt lat="38.335287" lon="-1.226963">
        <ele>434.6</ele>
        <time>2017-02-04T12:51:13Z</time>
      </trkpt>
      <trkpt lat="38.335223" lon="-1.227292">
        <ele>435.6</ele>
        <time>2017-02-04T12:51:34Z</time>
      </trkpt>
      <trkpt lat="38.335116" lon="-1.227683">
        <ele>436.1</ele>
        <time>2017-02-04T12:51:58Z</time>
      </trkpt>
      <trkpt lat="38.335090" lon="-1.227842">
        <ele>437.5</ele>
        <time>2017-02-04T12:52:09Z</time>
      </trkpt>
      <trkpt lat="38.335090" lon="-1.227856">
        <ele>437.1</ele>
        <time>2017-02-04T12:52:10Z</time>
      </trkpt>
      <trkpt lat="38.335083" lon="-1.227873">
        <ele>436.6</ele>
        <time>2017-02-04T12:52:11Z</time>
      </trkpt>
      <trkpt lat="38.335080" lon="-1.227890">
        <ele>437.1</ele>
        <time>2017-02-04T12:52:12Z</time>
      </trkpt>
      <trkpt lat="38.335063" lon="-1.227972">
        <ele>437.1</ele>
        <time>2017-02-04T12:52:18Z</time>
      </trkpt>
      <trkpt lat="38.335060" lon="-1.227989">
        <ele>437.1</ele>
        <time>2017-02-04T12:52:19Z</time>
      </trkpt>
      <trkpt lat="38.334990" lon="-1.228271">
        <ele>438.0</ele>
        <time>2017-02-04T12:52:37Z</time>
      </trkpt>
      <trkpt lat="38.334950" lon="-1.228529">
        <ele>438.5</ele>
        <time>2017-02-04T12:52:54Z</time>
      </trkpt>
      <trkpt lat="38.334929" lon="-1.228818">
        <ele>438.5</ele>
        <time>2017-02-04T12:53:12Z</time>
      </trkpt>
      <trkpt lat="38.334933" lon="-1.229176">
        <ele>437.1</ele>
        <time>2017-02-04T12:53:35Z</time>
      </trkpt>
      <trkpt lat="38.334947" lon="-1.229585">
        <ele>438.5</ele>
        <time>2017-02-04T12:53:59Z</time>
      </trkpt>
      <trkpt lat="38.334938" lon="-1.230032">
        <ele>437.5</ele>
        <time>2017-02-04T12:54:25Z</time>
      </trkpt>
      <trkpt lat="38.334913" lon="-1.230260">
        <ele>439.0</ele>
        <time>2017-02-04T12:54:42Z</time>
      </trkpt>
      <trkpt lat="38.334870" lon="-1.230673">
        <ele>439.0</ele>
        <time>2017-02-04T12:55:07Z</time>
      </trkpt>
      <trkpt lat="38.334881" lon="-1.231084">
        <ele>440.4</ele>
        <time>2017-02-04T12:55:32Z</time>
      </trkpt>
      <trkpt lat="38.334884" lon="-1.231481">
        <ele>439.9</ele>
        <time>2017-02-04T12:55:56Z</time>
      </trkpt>
      <trkpt lat="38.334904" lon="-1.231875">
        <ele>439.5</ele>
        <time>2017-02-04T12:56:19Z</time>
      </trkpt>
      <trkpt lat="38.334895" lon="-1.232129">
        <ele>439.0</ele>
        <time>2017-02-04T12:56:34Z</time>
      </trkpt>
      <trkpt lat="38.334871" lon="-1.232389">
        <ele>439.5</ele>
        <time>2017-02-04T12:56:49Z</time>
      </trkpt>
      <trkpt lat="38.334809" lon="-1.232641">
        <ele>439.9</ele>
        <time>2017-02-04T12:57:04Z</time>
      </trkpt>
      <trkpt lat="38.334760" lon="-1.232926">
        <ele>439.5</ele>
        <time>2017-02-04T12:57:21Z</time>
      </trkpt>
      <trkpt lat="38.334709" lon="-1.233221">
        <ele>439.9</ele>
        <time>2017-02-04T12:57:39Z</time>
      </trkpt>
      <trkpt lat="38.334650" lon="-1.233568">
        <ele>439.0</ele>
        <time>2017-02-04T12:57:59Z</time>
      </trkpt>
      <trkpt lat="38.334577" lon="-1.233849">
        <ele>438.0</ele>
        <time>2017-02-04T12:58:17Z</time>
      </trkpt>
      <trkpt lat="38.334538" lon="-1.233964">
        <ele>438.0</ele>
        <time>2017-02-04T12:58:29Z</time>
      </trkpt>
      <trkpt lat="38.334450" lon="-1.234098">
        <ele>438.5</ele>
        <time>2017-02-04T12:58:41Z</time>
      </trkpt>
      <trkpt lat="38.334353" lon="-1.234325">
        <ele>438.5</ele>
        <time>2017-02-04T12:58:56Z</time>
      </trkpt>
      <trkpt lat="38.334291" lon="-1.234582">
        <ele>438.0</ele>
        <time>2017-02-04T12:59:11Z</time>
      </trkpt>
      <trkpt lat="38.334215" lon="-1.234880">
        <ele>437.5</ele>
        <time>2017-02-04T12:59:29Z</time>
      </trkpt>
      <trkpt lat="38.334152" lon="-1.235121">
        <ele>437.5</ele>
        <time>2017-02-04T12:59:44Z</time>
      </trkpt>
      <trkpt lat="38.334101" lon="-1.235532">
        <ele>436.1</ele>
        <time>2017-02-04T13:00:06Z</time>
      </trkpt>
      <trkpt lat="38.334051" lon="-1.235835">
        <ele>436.6</ele>
        <time>2017-02-04T13:00:24Z</time>
      </trkpt>
      <trkpt lat="38.334030" lon="-1.236024">
        <ele>436.1</ele>
        <time>2017-02-04T13:00:42Z</time>
      </trkpt>
      <trkpt lat="38.334036" lon="-1.236038">
        <ele>436.1</ele>
        <time>2017-02-04T13:00:43Z</time>
      </trkpt>
      <trkpt lat="38.334040" lon="-1.236053">
        <ele>436.1</ele>
        <time>2017-02-04T13:00:44Z</time>
      </trkpt>
      <trkpt lat="38.334043" lon="-1.236069">
        <ele>436.6</ele>
        <time>2017-02-04T13:00:45Z</time>
      </trkpt>
      <trkpt lat="38.334044" lon="-1.236087">
        <ele>436.6</ele>
        <time>2017-02-04T13:00:46Z</time>
      </trkpt>
      <trkpt lat="38.334039" lon="-1.236108">
        <ele>436.1</ele>
        <time>2017-02-04T13:00:47Z</time>
      </trkpt>
      <trkpt lat="38.334035" lon="-1.236129">
        <ele>435.6</ele>
        <time>2017-02-04T13:00:48Z</time>
      </trkpt>
      <trkpt lat="38.334028" lon="-1.236148">
        <ele>435.6</ele>
        <time>2017-02-04T13:00:49Z</time>
      </trkpt>
      <trkpt lat="38.333974" lon="-1.236483">
        <ele>434.2</ele>
        <time>2017-02-04T13:01:06Z</time>
      </trkpt>
      <trkpt lat="38.333962" lon="-1.236627">
        <ele>433.7</ele>
        <time>2017-02-04T13:01:21Z</time>
      </trkpt>
      <trkpt lat="38.333976" lon="-1.236833">
        <ele>433.2</ele>
        <time>2017-02-04T13:01:34Z</time>
      </trkpt>
      <trkpt lat="38.334017" lon="-1.237122">
        <ele>431.3</ele>
        <time>2017-02-04T13:01:50Z</time>
      </trkpt>
      <trkpt lat="38.334089" lon="-1.237374">
        <ele>430.3</ele>
        <time>2017-02-04T13:02:05Z</time>
      </trkpt>
      <trkpt lat="38.334099" lon="-1.237421">
        <ele>429.9</ele>
        <time>2017-02-04T13:02:08Z</time>
      </trkpt>
      <trkpt lat="38.334106" lon="-1.237434">
        <ele>430.3</ele>
        <time>2017-02-04T13:02:09Z</time>
      </trkpt>
      <trkpt lat="38.334114" lon="-1.237447">
        <ele>430.3</ele>
        <time>2017-02-04T13:02:10Z</time>
      </trkpt>
      <trkpt lat="38.334129" lon="-1.237467">
        <ele>430.8</ele>
        <time>2017-02-04T13:02:12Z</time>
      </trkpt>
      <trkpt lat="38.334208" lon="-1.237530">
        <ele>431.3</ele>
        <time>2017-02-04T13:02:18Z</time>
      </trkpt>
      <trkpt lat="38.334224" lon="-1.237542">
        <ele>431.8</ele>
        <time>2017-02-04T13:02:19Z</time>
      </trkpt>
      <trkpt lat="38.334239" lon="-1.237552">
        <ele>430.8</ele>
        <time>2017-02-04T13:02:20Z</time>
      </trkpt>
      <trkpt lat="38.334292" lon="-1.237657">
        <ele>432.2</ele>
        <time>2017-02-04T13:02:30Z</time>
      </trkpt>
      <trkpt lat="38.334359" lon="-1.237745">
        <ele>433.7</ele>
        <time>2017-02-04T13:02:41Z</time>
      </trkpt>
      <trkpt lat="38.334407" lon="-1.238034">
        <ele>434.2</ele>
        <time>2017-02-04T13:03:04Z</time>
      </trkpt>
      <trkpt lat="38.334427" lon="-1.238126">
        <ele>433.7</ele>
        <time>2017-02-04T13:03:13Z</time>
      </trkpt>
      <trkpt lat="38.334398" lon="-1.238290">
        <ele>434.2</ele>
        <time>2017-02-04T13:03:25Z</time>
      </trkpt>
      <trkpt lat="38.334290" lon="-1.238417">
        <ele>435.6</ele>
        <time>2017-02-04T13:03:37Z</time>
      </trkpt>
      <trkpt lat="38.334262" lon="-1.238481">
        <ele>435.6</ele>
        <time>2017-02-04T13:03:41Z</time>
      </trkpt>
      <trkpt lat="38.334262" lon="-1.238505">
        <ele>435.6</ele>
        <time>2017-02-04T13:03:42Z</time>
      </trkpt>
      <trkpt lat="38.334259" lon="-1.238525">
        <ele>435.6</ele>
        <time>2017-02-04T13:03:43Z</time>
      </trkpt>
      <trkpt lat="38.334254" lon="-1.238543">
        <ele>436.1</ele>
        <time>2017-02-04T13:03:44Z</time>
      </trkpt>
      <trkpt lat="38.334246" lon="-1.238696">
        <ele>436.1</ele>
        <time>2017-02-04T13:03:54Z</time>
      </trkpt>
      <trkpt lat="38.334245" lon="-1.238714">
        <ele>436.1</ele>
        <time>2017-02-04T13:03:55Z</time>
      </trkpt>
      <trkpt lat="38.334242" lon="-1.238734">
        <ele>436.1</ele>
        <time>2017-02-04T13:03:56Z</time>
      </trkpt>
      <trkpt lat="38.334251" lon="-1.238916">
        <ele>436.6</ele>
        <time>2017-02-04T13:04:10Z</time>
      </trkpt>
      <trkpt lat="38.334256" lon="-1.238935">
        <ele>436.6</ele>
        <time>2017-02-04T13:04:11Z</time>
      </trkpt>
      <trkpt lat="38.334261" lon="-1.238956">
        <ele>435.6</ele>
        <time>2017-02-04T13:04:12Z</time>
      </trkpt>
      <trkpt lat="38.334265" lon="-1.238979">
        <ele>435.6</ele>
        <time>2017-02-04T13:04:13Z</time>
      </trkpt>
      <trkpt lat="38.334273" lon="-1.238998">
        <ele>435.6</ele>
        <time>2017-02-04T13:04:14Z</time>
      </trkpt>
      <trkpt lat="38.334285" lon="-1.239014">
        <ele>436.1</ele>
        <time>2017-02-04T13:04:15Z</time>
      </trkpt>
      <trkpt lat="38.334296" lon="-1.239027">
        <ele>436.1</ele>
        <time>2017-02-04T13:04:16Z</time>
      </trkpt>
      <trkpt lat="38.334295" lon="-1.239150">
        <ele>436.1</ele>
        <time>2017-02-04T13:04:27Z</time>
      </trkpt>
      <trkpt lat="38.334294" lon="-1.239175">
        <ele>436.1</ele>
        <time>2017-02-04T13:04:28Z</time>
      </trkpt>
      <trkpt lat="38.334292" lon="-1.239195">
        <ele>436.1</ele>
        <time>2017-02-04T13:04:29Z</time>
      </trkpt>
      <trkpt lat="38.334288" lon="-1.239233">
        <ele>435.6</ele>
        <time>2017-02-04T13:04:31Z</time>
      </trkpt>
      <trkpt lat="38.334293" lon="-1.239242">
        <ele>436.1</ele>
        <time>2017-02-04T13:04:32Z</time>
      </trkpt>
      <trkpt lat="38.334298" lon="-1.239293">
        <ele>436.1</ele>
        <time>2017-02-04T13:04:36Z</time>
      </trkpt>
      <trkpt lat="38.334296" lon="-1.239315">
        <ele>436.1</ele>
        <time>2017-02-04T13:04:37Z</time>
      </trkpt>
      <trkpt lat="38.334297" lon="-1.239334">
        <ele>436.1</ele>
        <time>2017-02-04T13:04:38Z</time>
      </trkpt>
      <trkpt lat="38.334315" lon="-1.239552">
        <ele>436.1</ele>
        <time>2017-02-04T13:04:53Z</time>
      </trkpt>
      <trkpt lat="38.334322" lon="-1.239647">
        <ele>435.6</ele>
        <time>2017-02-04T13:05:55Z</time>
      </trkpt>
      <trkpt lat="38.334297" lon="-1.239758">
        <ele>436.1</ele>
        <time>2017-02-04T13:06:03Z</time>
      </trkpt>
      <trkpt lat="38.334277" lon="-1.239821">
        <ele>435.6</ele>
        <time>2017-02-04T13:06:06Z</time>
      </trkpt>
      <trkpt lat="38.334274" lon="-1.239840">
        <ele>435.1</ele>
        <time>2017-02-04T13:06:07Z</time>
      </trkpt>
      <trkpt lat="38.334283" lon="-1.239919">
        <ele>435.1</ele>
        <time>2017-02-04T13:06:13Z</time>
      </trkpt>
      <trkpt lat="38.334293" lon="-1.240156">
        <ele>434.2</ele>
        <time>2017-02-04T13:06:26Z</time>
      </trkpt>
      <trkpt lat="38.334286" lon="-1.240215">
        <ele>434.6</ele>
        <time>2017-02-04T13:06:29Z</time>
      </trkpt>
      <trkpt lat="38.334286" lon="-1.240229">
        <ele>434.6</ele>
        <time>2017-02-04T13:06:30Z</time>
      </trkpt>
      <trkpt lat="38.334316" lon="-1.240477">
        <ele>434.2</ele>
        <time>2017-02-04T13:06:46Z</time>
      </trkpt>
      <trkpt lat="38.334325" lon="-1.240567">
        <ele>435.1</ele>
        <time>2017-02-04T13:06:52Z</time>
      </trkpt>
      <trkpt lat="38.334330" lon="-1.240582">
        <ele>435.1</ele>
        <time>2017-02-04T13:06:53Z</time>
      </trkpt>
      <trkpt lat="38.334315" lon="-1.240830">
        <ele>436.1</ele>
        <time>2017-02-04T13:07:10Z</time>
      </trkpt>
      <trkpt lat="38.334334" lon="-1.241135">
        <ele>437.1</ele>
        <time>2017-02-04T13:07:27Z</time>
      </trkpt>
      <trkpt lat="38.334318" lon="-1.241310">
        <ele>437.5</ele>
        <time>2017-02-04T13:07:40Z</time>
      </trkpt>
      <trkpt lat="38.334308" lon="-1.241379">
        <ele>438.0</ele>
        <time>2017-02-04T13:07:45Z</time>
      </trkpt>
      <trkpt lat="38.334296" lon="-1.241578">
        <ele>438.5</ele>
        <time>2017-02-04T13:08:00Z</time>
      </trkpt>
      <trkpt lat="38.334265" lon="-1.241808">
        <ele>439.9</ele>
        <time>2017-02-04T13:08:16Z</time>
      </trkpt>
      <trkpt lat="38.334238" lon="-1.241881">
        <ele>439.9</ele>
        <time>2017-02-04T13:08:22Z</time>
      </trkpt>
      <trkpt lat="38.334231" lon="-1.241896">
        <ele>440.4</ele>
        <time>2017-02-04T13:08:23Z</time>
      </trkpt>
      <trkpt lat="38.334087" lon="-1.242115">
        <ele>440.9</ele>
        <time>2017-02-04T13:08:42Z</time>
      </trkpt>
      <trkpt lat="38.333955" lon="-1.242364">
        <ele>442.3</ele>
        <time>2017-02-04T13:09:02Z</time>
      </trkpt>
      <trkpt lat="38.333953" lon="-1.242379">
        <ele>441.9</ele>
        <time>2017-02-04T13:09:03Z</time>
      </trkpt>
      <trkpt lat="38.333937" lon="-1.242751">
        <ele>442.8</ele>
        <time>2017-02-04T13:09:25Z</time>
      </trkpt>
      <trkpt lat="38.333965" lon="-1.243019">
        <ele>444.3</ele>
        <time>2017-02-04T13:09:42Z</time>
      </trkpt>
      <trkpt lat="38.333999" lon="-1.243110">
        <ele>445.2</ele>
        <time>2017-02-04T13:09:49Z</time>
      </trkpt>
      <trkpt lat="38.333943" lon="-1.243281">
        <ele>446.7</ele>
        <time>2017-02-04T13:10:03Z</time>
      </trkpt>
      <trkpt lat="38.333850" lon="-1.243406">
        <ele>448.1</ele>
        <time>2017-02-04T13:10:17Z</time>
      </trkpt>
      <trkpt lat="38.333707" lon="-1.243626">
        <ele>450.0</ele>
        <time>2017-02-04T13:10:35Z</time>
      </trkpt>
      <trkpt lat="38.333703" lon="-1.243652">
        <ele>450.0</ele>
        <time>2017-02-04T13:10:40Z</time>
      </trkpt>
      <trkpt lat="38.333619" lon="-1.243817">
        <ele>450.5</ele>
        <time>2017-02-04T13:10:54Z</time>
      </trkpt>
      <trkpt lat="38.333604" lon="-1.243834">
        <ele>451.0</ele>
        <time>2017-02-04T13:10:56Z</time>
      </trkpt>
      <trkpt lat="38.333597" lon="-1.243848">
        <ele>451.0</ele>
        <time>2017-02-04T13:10:57Z</time>
      </trkpt>
      <trkpt lat="38.333589" lon="-1.243861">
        <ele>450.5</ele>
        <time>2017-02-04T13:10:58Z</time>
      </trkpt>
      <trkpt lat="38.333584" lon="-1.243875">
        <ele>450.5</ele>
        <time>2017-02-04T13:10:59Z</time>
      </trkpt>
      <trkpt lat="38.333579" lon="-1.243888">
        <ele>450.5</ele>
        <time>2017-02-04T13:11:00Z</time>
      </trkpt>
      <trkpt lat="38.333546" lon="-1.243953">
        <ele>452.4</ele>
        <time>2017-02-04T13:11:05Z</time>
      </trkpt>
      <trkpt lat="38.333534" lon="-1.243967">
        <ele>451.0</ele>
        <time>2017-02-04T13:11:06Z</time>
      </trkpt>
      <trkpt lat="38.333528" lon="-1.243983">
        <ele>451.5</ele>
        <time>2017-02-04T13:11:07Z</time>
      </trkpt>
      <trkpt lat="38.333521" lon="-1.243997">
        <ele>450.5</ele>
        <time>2017-02-04T13:11:08Z</time>
      </trkpt>
      <trkpt lat="38.333511" lon="-1.244010">
        <ele>450.5</ele>
        <time>2017-02-04T13:11:09Z</time>
      </trkpt>
      <trkpt lat="38.333505" lon="-1.244022">
        <ele>451.0</ele>
        <time>2017-02-04T13:11:10Z</time>
      </trkpt>
      <trkpt lat="38.333501" lon="-1.244035">
        <ele>451.0</ele>
        <time>2017-02-04T13:11:11Z</time>
      </trkpt>
      <trkpt lat="38.333498" lon="-1.244049">
        <ele>451.0</ele>
        <time>2017-02-04T13:11:12Z</time>
      </trkpt>
      <trkpt lat="38.333389" lon="-1.244295">
        <ele>452.0</ele>
        <time>2017-02-04T13:11:29Z</time>
      </trkpt>
      <trkpt lat="38.333277" lon="-1.244506">
        <ele>452.0</ele>
        <time>2017-02-04T13:11:45Z</time>
      </trkpt>
      <trkpt lat="38.333167" lon="-1.244812">
        <ele>452.0</ele>
        <time>2017-02-04T13:12:52Z</time>
      </trkpt>
      <trkpt lat="38.333124" lon="-1.245010">
        <ele>453.4</ele>
        <time>2017-02-04T13:13:06Z</time>
      </trkpt>
      <trkpt lat="38.333108" lon="-1.245109">
        <ele>453.9</ele>
        <time>2017-02-04T13:13:13Z</time>
      </trkpt>
      <trkpt lat="38.333093" lon="-1.245173">
        <ele>454.4</ele>
        <time>2017-02-04T13:13:18Z</time>
      </trkpt>
      <trkpt lat="38.333080" lon="-1.245252">
        <ele>454.4</ele>
        <time>2017-02-04T13:13:24Z</time>
      </trkpt>
      <trkpt lat="38.333009" lon="-1.245463">
        <ele>454.8</ele>
        <time>2017-02-04T13:13:37Z</time>
      </trkpt>
      <trkpt lat="38.332981" lon="-1.245615">
        <ele>455.3</ele>
        <time>2017-02-04T13:13:50Z</time>
      </trkpt>
      <trkpt lat="38.332906" lon="-1.245818">
        <ele>457.2</ele>
        <time>2017-02-04T13:14:05Z</time>
      </trkpt>
      <trkpt lat="38.332823" lon="-1.246079">
        <ele>457.2</ele>
        <time>2017-02-04T13:14:22Z</time>
      </trkpt>
      <trkpt lat="38.332693" lon="-1.246436">
        <ele>456.3</ele>
        <time>2017-02-04T13:14:42Z</time>
      </trkpt>
      <trkpt lat="38.332656" lon="-1.246559">
        <ele>456.3</ele>
        <time>2017-02-04T13:14:58Z</time>
      </trkpt>
      <trkpt lat="38.332501" lon="-1.246987">
        <ele>455.8</ele>
        <time>2017-02-04T13:16:09Z</time>
      </trkpt>
      <trkpt lat="38.332449" lon="-1.247115">
        <ele>454.4</ele>
        <time>2017-02-04T13:21:15Z</time>
      </trkpt>
      <trkpt lat="38.332349" lon="-1.247262">
        <ele>455.3</ele>
        <time>2017-02-04T13:21:31Z</time>
      </trkpt>
      <trkpt lat="38.332283" lon="-1.247435">
        <ele>455.3</ele>
        <time>2017-02-04T13:21:48Z</time>
      </trkpt>
      <trkpt lat="38.332165" lon="-1.247756">
        <ele>454.4</ele>
        <time>2017-02-04T13:22:14Z</time>
      </trkpt>
      <trkpt lat="38.332055" lon="-1.247991">
        <ele>454.4</ele>
        <time>2017-02-04T13:22:31Z</time>
      </trkpt>
      <trkpt lat="38.331981" lon="-1.248248">
        <ele>452.4</ele>
        <time>2017-02-04T13:22:48Z</time>
      </trkpt>
      <trkpt lat="38.331920" lon="-1.248447">
        <ele>451.5</ele>
        <time>2017-02-04T13:23:05Z</time>
      </trkpt>
      <trkpt lat="38.331919" lon="-1.248453">
        <ele>451.5</ele>
        <time>2017-02-04T13:23:08Z</time>
      </trkpt>
      <trkpt lat="38.331905" lon="-1.248504">
        <ele>451.0</ele>
        <time>2017-02-04T13:23:12Z</time>
      </trkpt>
      <trkpt lat="38.331812" lon="-1.248709">
        <ele>450.5</ele>
        <time>2017-02-04T13:23:28Z</time>
      </trkpt>
      <trkpt lat="38.331726" lon="-1.248861">
        <ele>450.5</ele>
        <time>2017-02-04T13:23:42Z</time>
      </trkpt>
      <trkpt lat="38.331602" lon="-1.249022">
        <ele>450.0</ele>
        <time>2017-02-04T13:23:58Z</time>
      </trkpt>
      <trkpt lat="38.331423" lon="-1.249232">
        <ele>448.1</ele>
        <time>2017-02-04T13:24:19Z</time>
      </trkpt>
      <trkpt lat="38.331240" lon="-1.249424">
        <ele>447.1</ele>
        <time>2017-02-04T13:24:41Z</time>
      </trkpt>
      <trkpt lat="38.331200" lon="-1.249458">
        <ele>446.2</ele>
        <time>2017-02-04T13:24:51Z</time>
      </trkpt>
      <trkpt lat="38.331060" lon="-1.249618">
        <ele>444.3</ele>
        <time>2017-02-04T13:25:08Z</time>
      </trkpt>
      <trkpt lat="38.330826" lon="-1.249888">
        <ele>441.9</ele>
        <time>2017-02-04T13:25:33Z</time>
      </trkpt>
      <trkpt lat="38.330603" lon="-1.250096">
        <ele>439.0</ele>
        <time>2017-02-04T13:25:57Z</time>
      </trkpt>
      <trkpt lat="38.330433" lon="-1.250290">
        <ele>436.1</ele>
        <time>2017-02-04T13:26:15Z</time>
      </trkpt>
      <trkpt lat="38.330233" lon="-1.250612">
        <ele>434.6</ele>
        <time>2017-02-04T13:26:42Z</time>
      </trkpt>
      <trkpt lat="38.330081" lon="-1.250907">
        <ele>434.2</ele>
        <time>2017-02-04T13:27:06Z</time>
      </trkpt>
      <trkpt lat="38.330035" lon="-1.251352">
        <ele>433.2</ele>
        <time>2017-02-04T13:27:33Z</time>
      </trkpt>
      <trkpt lat="38.330035" lon="-1.251695">
        <ele>433.2</ele>
        <time>2017-02-04T13:27:57Z</time>
      </trkpt>
      <trkpt lat="38.330027" lon="-1.251783">
        <ele>434.2</ele>
        <time>2017-02-04T13:28:03Z</time>
      </trkpt>
      <trkpt lat="38.330002" lon="-1.252012">
        <ele>435.1</ele>
        <time>2017-02-04T13:28:20Z</time>
      </trkpt>
      <trkpt lat="38.329979" lon="-1.252176">
        <ele>434.6</ele>
        <time>2017-02-04T13:28:35Z</time>
      </trkpt>
      <trkpt lat="38.329980" lon="-1.252212">
        <ele>434.2</ele>
        <time>2017-02-04T13:28:41Z</time>
      </trkpt>
      <trkpt lat="38.329991" lon="-1.252415">
        <ele>434.2</ele>
        <time>2017-02-04T13:29:32Z</time>
      </trkpt>
      <trkpt lat="38.330043" lon="-1.252711">
        <ele>431.8</ele>
        <time>2017-02-04T13:29:50Z</time>
      </trkpt>
      <trkpt lat="38.329965" lon="-1.253155">
        <ele>429.9</ele>
        <time>2017-02-04T13:30:18Z</time>
      </trkpt>
      <trkpt lat="38.329784" lon="-1.253539">
        <ele>427.4</ele>
        <time>2017-02-04T13:30:45Z</time>
      </trkpt>
      <trkpt lat="38.329684" lon="-1.253640">
        <ele>427.9</ele>
        <time>2017-02-04T13:31:06Z</time>
      </trkpt>
      <trkpt lat="38.329664" lon="-1.253688">
        <ele>426.5</ele>
        <time>2017-02-04T13:31:16Z</time>
      </trkpt>
      <trkpt lat="38.329472" lon="-1.253905">
        <ele>427.4</ele>
        <time>2017-02-04T13:31:33Z</time>
      </trkpt>
      <trkpt lat="38.329108" lon="-1.254148">
        <ele>427.4</ele>
        <time>2017-02-04T13:32:02Z</time>
      </trkpt>
      <trkpt lat="38.328844" lon="-1.254444">
        <ele>426.0</ele>
        <time>2017-02-04T13:32:30Z</time>
      </trkpt>
      <trkpt lat="38.328640" lon="-1.254663">
        <ele>423.1</ele>
        <time>2017-02-04T13:32:52Z</time>
      </trkpt>
      <trkpt lat="38.328413" lon="-1.254969">
        <ele>421.2</ele>
        <time>2017-02-04T13:33:18Z</time>
      </trkpt>
      <trkpt lat="38.328287" lon="-1.255362">
        <ele>420.2</ele>
        <time>2017-02-04T13:33:43Z</time>
      </trkpt>
      <trkpt lat="38.328133" lon="-1.255757">
        <ele>420.7</ele>
        <time>2017-02-04T13:34:09Z</time>
      </trkpt>
      <trkpt lat="38.327930" lon="-1.256113">
        <ele>420.7</ele>
        <time>2017-02-04T13:34:36Z</time>
      </trkpt>
      <trkpt lat="38.327853" lon="-1.256252">
        <ele>421.7</ele>
        <time>2017-02-04T13:34:45Z</time>
      </trkpt>
      <trkpt lat="38.327731" lon="-1.256452">
        <ele>423.1</ele>
        <time>2017-02-04T13:35:00Z</time>
      </trkpt>
      <trkpt lat="38.327723" lon="-1.256466">
        <ele>423.6</ele>
        <time>2017-02-04T13:35:07Z</time>
      </trkpt>
      <trkpt lat="38.327642" lon="-1.256556">
        <ele>424.1</ele>
        <time>2017-02-04T13:35:19Z</time>
      </trkpt>
      <trkpt lat="38.327498" lon="-1.256759">
        <ele>421.7</ele>
        <time>2017-02-04T13:35:35Z</time>
      </trkpt>
      <trkpt lat="38.327452" lon="-1.256838">
        <ele>421.2</ele>
        <time>2017-02-04T13:35:48Z</time>
      </trkpt>
      <trkpt lat="38.327436" lon="-1.256847">
        <ele>421.2</ele>
        <time>2017-02-04T13:35:49Z</time>
      </trkpt>
      <trkpt lat="38.327259" lon="-1.257052">
        <ele>418.8</ele>
        <time>2017-02-04T13:36:05Z</time>
      </trkpt>
      <trkpt lat="38.327074" lon="-1.257251">
        <ele>417.4</ele>
        <time>2017-02-04T13:36:21Z</time>
      </trkpt>
      <trkpt lat="38.326944" lon="-1.257465">
        <ele>417.4</ele>
        <time>2017-02-04T13:36:36Z</time>
      </trkpt>
      <trkpt lat="38.326812" lon="-1.257733">
        <ele>415.0</ele>
        <time>2017-02-04T13:36:53Z</time>
      </trkpt>
      <trkpt lat="38.326791" lon="-1.257871">
        <ele>415.4</ele>
        <time>2017-02-04T13:37:02Z</time>
      </trkpt>
      <trkpt lat="38.326774" lon="-1.257940">
        <ele>414.5</ele>
        <time>2017-02-04T13:37:07Z</time>
      </trkpt>
      <trkpt lat="38.326715" lon="-1.258035">
        <ele>412.1</ele>
        <time>2017-02-04T13:38:21Z</time>
      </trkpt>
      <trkpt lat="38.326715" lon="-1.258039">
        <ele>417.4</ele>
        <time>2017-02-04T13:38:22Z</time>
      </trkpt>
      <trkpt lat="38.326711" lon="-1.258048">
        <ele>415.9</ele>
        <time>2017-02-04T13:38:23Z</time>
      </trkpt>
      <trkpt lat="38.326705" lon="-1.258062">
        <ele>414.0</ele>
        <time>2017-02-04T13:38:24Z</time>
      </trkpt>
      <trkpt lat="38.326701" lon="-1.258073">
        <ele>415.0</ele>
        <time>2017-02-04T13:38:25Z</time>
      </trkpt>
      <trkpt lat="38.326602" lon="-1.258242">
        <ele>414.0</ele>
        <time>2017-02-04T13:38:37Z</time>
      </trkpt>
      <trkpt lat="38.326534" lon="-1.258504">
        <ele>414.0</ele>
        <time>2017-02-04T13:38:53Z</time>
      </trkpt>
      <trkpt lat="38.326518" lon="-1.258581">
        <ele>414.5</ele>
        <time>2017-02-04T13:38:58Z</time>
      </trkpt>
      <trkpt lat="38.326515" lon="-1.258616">
        <ele>414.5</ele>
        <time>2017-02-04T13:39:00Z</time>
      </trkpt>
      <trkpt lat="38.326523" lon="-1.258647">
        <ele>415.0</ele>
        <time>2017-02-04T13:39:02Z</time>
      </trkpt>
      <trkpt lat="38.326519" lon="-1.258666">
        <ele>415.0</ele>
        <time>2017-02-04T13:39:03Z</time>
      </trkpt>
      <trkpt lat="38.326512" lon="-1.258684">
        <ele>415.0</ele>
        <time>2017-02-04T13:39:04Z</time>
      </trkpt>
      <trkpt lat="38.326509" lon="-1.258701">
        <ele>415.0</ele>
        <time>2017-02-04T13:39:05Z</time>
      </trkpt>
      <trkpt lat="38.326526" lon="-1.258898">
        <ele>415.9</ele>
        <time>2017-02-04T13:39:18Z</time>
      </trkpt>
      <trkpt lat="38.326542" lon="-1.259087">
        <ele>415.0</ele>
        <time>2017-02-04T13:39:32Z</time>
      </trkpt>
      <trkpt lat="38.326532" lon="-1.259157">
        <ele>414.0</ele>
        <time>2017-02-04T13:39:37Z</time>
      </trkpt>
      <trkpt lat="38.326532" lon="-1.259173">
        <ele>414.5</ele>
        <time>2017-02-04T13:39:38Z</time>
      </trkpt>
      <trkpt lat="38.326532" lon="-1.259190">
        <ele>414.0</ele>
        <time>2017-02-04T13:39:39Z</time>
      </trkpt>
      <trkpt lat="38.326527" lon="-1.259211">
        <ele>414.0</ele>
        <time>2017-02-04T13:39:40Z</time>
      </trkpt>
      <trkpt lat="38.326527" lon="-1.259229">
        <ele>413.5</ele>
        <time>2017-02-04T13:39:41Z</time>
      </trkpt>
      <trkpt lat="38.326529" lon="-1.259244">
        <ele>414.5</ele>
        <time>2017-02-04T13:39:42Z</time>
      </trkpt>
      <trkpt lat="38.326527" lon="-1.259263">
        <ele>414.0</ele>
        <time>2017-02-04T13:39:43Z</time>
      </trkpt>
      <trkpt lat="38.326523" lon="-1.259283">
        <ele>414.0</ele>
        <time>2017-02-04T13:39:44Z</time>
      </trkpt>
      <trkpt lat="38.326517" lon="-1.259301">
        <ele>413.5</ele>
        <time>2017-02-04T13:39:45Z</time>
      </trkpt>
      <trkpt lat="38.326511" lon="-1.259317">
        <ele>413.5</ele>
        <time>2017-02-04T13:39:46Z</time>
      </trkpt>
      <trkpt lat="38.326499" lon="-1.259335">
        <ele>413.0</ele>
        <time>2017-02-04T13:39:47Z</time>
      </trkpt>
      <trkpt lat="38.326490" lon="-1.259353">
        <ele>412.5</ele>
        <time>2017-02-04T13:39:48Z</time>
      </trkpt>
      <trkpt lat="38.326483" lon="-1.259374">
        <ele>413.0</ele>
        <time>2017-02-04T13:39:49Z</time>
      </trkpt>
      <trkpt lat="38.326475" lon="-1.259393">
        <ele>412.5</ele>
        <time>2017-02-04T13:39:50Z</time>
      </trkpt>
      <trkpt lat="38.326467" lon="-1.259409">
        <ele>413.0</ele>
        <time>2017-02-04T13:39:51Z</time>
      </trkpt>
      <trkpt lat="38.326461" lon="-1.259423">
        <ele>412.5</ele>
        <time>2017-02-04T13:39:52Z</time>
      </trkpt>
      <trkpt lat="38.326456" lon="-1.259439">
        <ele>412.5</ele>
        <time>2017-02-04T13:39:53Z</time>
      </trkpt>
      <trkpt lat="38.326368" lon="-1.259675">
        <ele>411.1</ele>
        <time>2017-02-04T13:40:09Z</time>
      </trkpt>
      <trkpt lat="38.326309" lon="-1.259749">
        <ele>411.1</ele>
        <time>2017-02-04T13:40:25Z</time>
      </trkpt>
      <trkpt lat="38.326282" lon="-1.259803">
        <ele>410.6</ele>
        <time>2017-02-04T13:40:28Z</time>
      </trkpt>
      <trkpt lat="38.326277" lon="-1.259822">
        <ele>410.6</ele>
        <time>2017-02-04T13:40:29Z</time>
      </trkpt>
      <trkpt lat="38.325900" lon="-1.260716">
        <ele>410.0</ele>
        <time>2017-02-04T13:42:02Z</time>
      </trkpt>
      <trkpt lat="38.325683" lon="-1.260983">
        <ele>409.0</ele>
        <time>2017-02-04T13:42:36Z</time>
      </trkpt>
      <trkpt lat="38.325550" lon="-1.261300">
        <ele>408.0</ele>
        <time>2017-02-04T13:42:57Z</time>
      </trkpt>
      <trkpt lat="38.325466" lon="-1.261633">
        <ele>407.0</ele>
        <time>2017-02-04T13:43:18Z</time>
      </trkpt>
      <trkpt lat="38.325350" lon="-1.261833">
        <ele>406.0</ele>
        <time>2017-02-04T13:43:34Z</time>
      </trkpt>
      <trkpt lat="38.325150" lon="-1.262017">
        <ele>405.0</ele>
        <time>2017-02-04T13:43:53Z</time>
      </trkpt>
      <trkpt lat="38.324967" lon="-1.262217">
        <ele>404.0</ele>
        <time>2017-02-04T13:44:10Z</time>
      </trkpt>
      <trkpt lat="38.324950" lon="-1.262250">
        <ele>403.0</ele>
        <time>2017-02-04T13:44:12Z</time>
      </trkpt>
      <trkpt lat="38.324833" lon="-1.262500">
        <ele>402.0</ele>
        <time>2017-02-04T13:44:29Z</time>
      </trkpt>
      <trkpt lat="38.324766" lon="-1.262750">
        <ele>401.0</ele>
        <time>2017-02-04T13:44:42Z</time>
      </trkpt>
      <trkpt lat="38.324783" lon="-1.262983">
        <ele>400.0</ele>
        <time>2017-02-04T13:44:56Z</time>
      </trkpt>
      <trkpt lat="38.324783" lon="-1.262983">
        <ele>399.0</ele>
        <time>2017-02-04T13:44:57Z</time>
      </trkpt>
      <trkpt lat="38.324533" lon="-1.263733">
        <ele>399.0</ele>
        <time>2017-02-04T13:45:52Z</time>
      </trkpt>
      <trkpt lat="38.324483" lon="-1.263983">
        <ele>399.0</ele>
        <time>2017-02-04T13:46:06Z</time>
      </trkpt>
      <trkpt lat="38.324400" lon="-1.264267">
        <ele>399.0</ele>
        <time>2017-02-04T13:46:23Z</time>
      </trkpt>
      <trkpt lat="38.324400" lon="-1.264316">
        <ele>398.0</ele>
        <time>2017-02-04T13:46:31Z</time>
      </trkpt>
      <trkpt lat="38.324333" lon="-1.264516">
        <ele>399.0</ele>
        <time>2017-02-04T13:46:44Z</time>
      </trkpt>
      <trkpt lat="38.324300" lon="-1.264616">
        <ele>400.0</ele>
        <time>2017-02-04T13:47:04Z</time>
      </trkpt>
      <trkpt lat="38.324297" lon="-1.264610">
        <ele>400.0</ele>
        <time>2017-02-04T13:47:05Z</time>
      </trkpt>
      <trkpt lat="38.324293" lon="-1.264609">
        <ele>400.0</ele>
        <time>2017-02-04T13:47:06Z</time>
      </trkpt>
      <trkpt lat="38.324258" lon="-1.264867">
        <ele>399.1</ele>
        <time>2017-02-04T13:47:20Z</time>
      </trkpt>
      <trkpt lat="38.324309" lon="-1.265178">
        <ele>400.0</ele>
        <time>2017-02-04T13:47:38Z</time>
      </trkpt>
      <trkpt lat="38.324321" lon="-1.265208">
        <ele>396.7</ele>
        <time>2017-02-04T13:47:40Z</time>
      </trkpt>
      <trkpt lat="38.324326" lon="-1.265222">
        <ele>400.5</ele>
        <time>2017-02-04T13:47:41Z</time>
      </trkpt>
      <trkpt lat="38.324351" lon="-1.265506">
        <ele>400.5</ele>
        <time>2017-02-04T13:47:56Z</time>
      </trkpt>
      <trkpt lat="38.324323" lon="-1.265787">
        <ele>400.5</ele>
        <time>2017-02-04T13:48:11Z</time>
      </trkpt>
      <trkpt lat="38.324282" lon="-1.265910">
        <ele>401.5</ele>
        <time>2017-02-04T13:48:44Z</time>
      </trkpt>
      <trkpt lat="38.324233" lon="-1.266181">
        <ele>400.5</ele>
        <time>2017-02-04T13:49:01Z</time>
      </trkpt>
      <trkpt lat="38.324220" lon="-1.266489">
        <ele>399.6</ele>
        <time>2017-02-04T13:49:21Z</time>
      </trkpt>
      <trkpt lat="38.324141" lon="-1.266763">
        <ele>398.1</ele>
        <time>2017-02-04T13:49:39Z</time>
      </trkpt>
      <trkpt lat="38.324059" lon="-1.267062">
        <ele>398.6</ele>
        <time>2017-02-04T13:49:57Z</time>
      </trkpt>
      <trkpt lat="38.324010" lon="-1.267403">
        <ele>398.1</ele>
        <time>2017-02-04T13:50:16Z</time>
      </trkpt>
      <trkpt lat="38.323959" lon="-1.267806">
        <ele>398.6</ele>
        <time>2017-02-04T13:50:39Z</time>
      </trkpt>
      <trkpt lat="38.323951" lon="-1.267960">
        <ele>399.6</ele>
        <time>2017-02-04T13:50:48Z</time>
      </trkpt>
      <trkpt lat="38.323924" lon="-1.268016">
        <ele>399.1</ele>
        <time>2017-02-04T13:50:52Z</time>
      </trkpt>
      <trkpt lat="38.323928" lon="-1.268052">
        <ele>399.6</ele>
        <time>2017-02-04T13:50:54Z</time>
      </trkpt>
      <trkpt lat="38.323939" lon="-1.268229">
        <ele>397.6</ele>
        <time>2017-02-04T13:51:04Z</time>
      </trkpt>
      <trkpt lat="38.323966" lon="-1.268548">
        <ele>397.2</ele>
        <time>2017-02-04T13:51:20Z</time>
      </trkpt>
      <trkpt lat="38.323925" lon="-1.268830">
        <ele>396.2</ele>
        <time>2017-02-04T13:51:37Z</time>
      </trkpt>
      <trkpt lat="38.323910" lon="-1.269014">
        <ele>394.3</ele>
        <time>2017-02-04T13:51:48Z</time>
      </trkpt>
      <trkpt lat="38.323803" lon="-1.269322">
        <ele>391.4</ele>
        <time>2017-02-04T13:52:08Z</time>
      </trkpt>
      <trkpt lat="38.323767" lon="-1.269592">
        <ele>390.0</ele>
        <time>2017-02-04T13:52:23Z</time>
      </trkpt>
      <trkpt lat="38.323778" lon="-1.269885">
        <ele>390.0</ele>
        <time>2017-02-04T13:52:40Z</time>
      </trkpt>
      <trkpt lat="38.323783" lon="-1.270163">
        <ele>389.0</ele>
        <time>2017-02-04T13:52:55Z</time>
      </trkpt>
      <trkpt lat="38.323781" lon="-1.270446">
        <ele>389.0</ele>
        <time>2017-02-04T13:53:11Z</time>
      </trkpt>
      <trkpt lat="38.323757" lon="-1.270715">
        <ele>388.0</ele>
        <time>2017-02-04T13:53:25Z</time>
      </trkpt>
      <trkpt lat="38.323690" lon="-1.270967">
        <ele>387.1</ele>
        <time>2017-02-04T13:53:40Z</time>
      </trkpt>
      <trkpt lat="38.323635" lon="-1.271082">
        <ele>387.1</ele>
        <time>2017-02-04T13:53:47Z</time>
      </trkpt>
      <trkpt lat="38.323545" lon="-1.271401">
        <ele>387.5</ele>
        <time>2017-02-04T13:54:06Z</time>
      </trkpt>
      <trkpt lat="38.323465" lon="-1.271622">
        <ele>386.6</ele>
        <time>2017-02-04T13:54:20Z</time>
      </trkpt>
      <trkpt lat="38.323319" lon="-1.271853">
        <ele>386.1</ele>
        <time>2017-02-04T13:54:37Z</time>
      </trkpt>
      <trkpt lat="38.323209" lon="-1.272059">
        <ele>384.7</ele>
        <time>2017-02-04T13:54:52Z</time>
      </trkpt>
      <trkpt lat="38.323077" lon="-1.272327">
        <ele>383.7</ele>
        <time>2017-02-04T13:55:11Z</time>
      </trkpt>
      <trkpt lat="38.322965" lon="-1.272572">
        <ele>382.7</ele>
        <time>2017-02-04T13:55:28Z</time>
      </trkpt>
      <trkpt lat="38.322851" lon="-1.272843">
        <ele>382.3</ele>
        <time>2017-02-04T13:55:46Z</time>
      </trkpt>
      <trkpt lat="38.322783" lon="-1.273080">
        <ele>380.8</ele>
        <time>2017-02-04T13:56:00Z</time>
      </trkpt>
      <trkpt lat="38.322727" lon="-1.273339">
        <ele>380.8</ele>
        <time>2017-02-04T13:56:15Z</time>
      </trkpt>
      <trkpt lat="38.322649" lon="-1.273596">
        <ele>380.3</ele>
        <time>2017-02-04T13:56:30Z</time>
      </trkpt>
      <trkpt lat="38.322551" lon="-1.273807">
        <ele>381.3</ele>
        <time>2017-02-04T13:56:45Z</time>
      </trkpt>
      <trkpt lat="38.322452" lon="-1.274035">
        <ele>378.9</ele>
        <time>2017-02-04T13:56:59Z</time>
      </trkpt>
      <trkpt lat="38.322385" lon="-1.274363">
        <ele>377.5</ele>
        <time>2017-02-04T13:57:19Z</time>
      </trkpt>
      <trkpt lat="38.322298" lon="-1.274639">
        <ele>377.0</ele>
        <time>2017-02-04T13:57:35Z</time>
      </trkpt>
      <trkpt lat="38.322279" lon="-1.274950">
        <ele>375.5</ele>
        <time>2017-02-04T13:57:51Z</time>
      </trkpt>
      <trkpt lat="38.322270" lon="-1.275161">
        <ele>375.5</ele>
        <time>2017-02-04T13:58:03Z</time>
      </trkpt>
      <trkpt lat="38.322275" lon="-1.275254">
        <ele>375.0</ele>
        <time>2017-02-04T13:58:14Z</time>
      </trkpt>
      <trkpt lat="38.322289" lon="-1.275356">
        <ele>374.1</ele>
        <time>2017-02-04T13:58:29Z</time>
      </trkpt>
      <trkpt lat="38.322286" lon="-1.275378">
        <ele>375.0</ele>
        <time>2017-02-04T13:58:35Z</time>
      </trkpt>
      <trkpt lat="38.322237" lon="-1.275454">
        <ele>374.1</ele>
        <time>2017-02-04T13:58:41Z</time>
      </trkpt>
      <trkpt lat="38.322165" lon="-1.275722">
        <ele>373.1</ele>
        <time>2017-02-04T13:58:59Z</time>
      </trkpt>
      <trkpt lat="38.322078" lon="-1.275947">
        <ele>371.2</ele>
        <time>2017-02-04T13:59:15Z</time>
      </trkpt>
      <trkpt lat="38.322041" lon="-1.276215">
        <ele>371.2</ele>
        <time>2017-02-04T13:59:33Z</time>
      </trkpt>
      <trkpt lat="38.322031" lon="-1.276334">
        <ele>369.8</ele>
        <time>2017-02-04T13:59:46Z</time>
      </trkpt>
      <trkpt lat="38.322046" lon="-1.276574">
        <ele>369.8</ele>
        <time>2017-02-04T13:59:58Z</time>
      </trkpt>
      <trkpt lat="38.322046" lon="-1.276628">
        <ele>369.8</ele>
        <time>2017-02-04T14:00:02Z</time>
      </trkpt>
      <trkpt lat="38.322043" lon="-1.276642">
        <ele>369.3</ele>
        <time>2017-02-04T14:00:03Z</time>
      </trkpt>
      <trkpt lat="38.322044" lon="-1.276656">
        <ele>368.8</ele>
        <time>2017-02-04T14:00:04Z</time>
      </trkpt>
      <trkpt lat="38.322042" lon="-1.276668">
        <ele>368.8</ele>
        <time>2017-02-04T14:00:05Z</time>
      </trkpt>
      <trkpt lat="38.322028" lon="-1.276813">
        <ele>369.3</ele>
        <time>2017-02-04T14:00:15Z</time>
      </trkpt>
      <trkpt lat="38.322028" lon="-1.277031">
        <ele>368.8</ele>
        <time>2017-02-04T14:00:29Z</time>
      </trkpt>
      <trkpt lat="38.322022" lon="-1.277114">
        <ele>368.3</ele>
        <time>2017-02-04T14:00:35Z</time>
      </trkpt>
      <trkpt lat="38.322027" lon="-1.277131">
        <ele>368.3</ele>
        <time>2017-02-04T14:00:36Z</time>
      </trkpt>
      <trkpt lat="38.322030" lon="-1.277146">
        <ele>368.3</ele>
        <time>2017-02-04T14:00:37Z</time>
      </trkpt>
      <trkpt lat="38.322030" lon="-1.277163">
        <ele>368.3</ele>
        <time>2017-02-04T14:00:38Z</time>
      </trkpt>
      <trkpt lat="38.322032" lon="-1.277181">
        <ele>368.3</ele>
        <time>2017-02-04T14:00:39Z</time>
      </trkpt>
      <trkpt lat="38.322032" lon="-1.277197">
        <ele>368.3</ele>
        <time>2017-02-04T14:00:40Z</time>
      </trkpt>
      <trkpt lat="38.322032" lon="-1.277212">
        <ele>368.3</ele>
        <time>2017-02-04T14:00:41Z</time>
      </trkpt>
      <trkpt lat="38.322028" lon="-1.277229">
        <ele>368.3</ele>
        <time>2017-02-04T14:00:42Z</time>
      </trkpt>
      <trkpt lat="38.322008" lon="-1.277511">
        <ele>367.4</ele>
        <time>2017-02-04T14:01:00Z</time>
      </trkpt>
      <trkpt lat="38.322003" lon="-1.277781">
        <ele>367.4</ele>
        <time>2017-02-04T14:01:17Z</time>
      </trkpt>
      <trkpt lat="38.321996" lon="-1.277866">
        <ele>366.4</ele>
        <time>2017-02-04T14:01:23Z</time>
      </trkpt>
      <trkpt lat="38.322014" lon="-1.278162">
        <ele>366.9</ele>
        <time>2017-02-04T14:01:39Z</time>
      </trkpt>
      <trkpt lat="38.322024" lon="-1.278383">
        <ele>366.9</ele>
        <time>2017-02-04T14:01:53Z</time>
      </trkpt>
      <trkpt lat="38.322020" lon="-1.278589">
        <ele>366.4</ele>
        <time>2017-02-04T14:02:07Z</time>
      </trkpt>
      <trkpt lat="38.322004" lon="-1.278843">
        <ele>366.9</ele>
        <time>2017-02-04T14:02:23Z</time>
      </trkpt>
      <trkpt lat="38.322008" lon="-1.278860">
        <ele>366.9</ele>
        <time>2017-02-04T14:02:24Z</time>
      </trkpt>
      <trkpt lat="38.322007" lon="-1.278873">
        <ele>366.9</ele>
        <time>2017-02-04T14:02:25Z</time>
      </trkpt>
      <trkpt lat="38.321989" lon="-1.279112">
        <ele>367.4</ele>
        <time>2017-02-04T14:02:41Z</time>
      </trkpt>
      <trkpt lat="38.321978" lon="-1.279388">
        <ele>366.9</ele>
        <time>2017-02-04T14:02:58Z</time>
      </trkpt>
      <trkpt lat="38.321969" lon="-1.279681">
        <ele>367.4</ele>
        <time>2017-02-04T14:03:16Z</time>
      </trkpt>
      <trkpt lat="38.321949" lon="-1.279978">
        <ele>365.0</ele>
        <time>2017-02-04T14:03:34Z</time>
      </trkpt>
      <trkpt lat="38.321968" lon="-1.280268">
        <ele>364.5</ele>
        <time>2017-02-04T14:03:54Z</time>
      </trkpt>
      <trkpt lat="38.321986" lon="-1.280639">
        <ele>362.5</ele>
        <time>2017-02-04T14:04:19Z</time>
      </trkpt>
      <trkpt lat="38.322000" lon="-1.281005">
        <ele>362.1</ele>
        <time>2017-02-04T14:04:44Z</time>
      </trkpt>
      <trkpt lat="38.322028" lon="-1.281332">
        <ele>361.6</ele>
        <time>2017-02-04T14:05:09Z</time>
      </trkpt>
      <trkpt lat="38.322047" lon="-1.281695">
        <ele>361.1</ele>
        <time>2017-02-04T14:05:34Z</time>
      </trkpt>
      <trkpt lat="38.322105" lon="-1.282077">
        <ele>361.1</ele>
        <time>2017-02-04T14:05:59Z</time>
      </trkpt>
      <trkpt lat="38.322135" lon="-1.282419">
        <ele>360.6</ele>
        <time>2017-02-04T14:06:21Z</time>
      </trkpt>
      <trkpt lat="38.322137" lon="-1.282437">
        <ele>360.1</ele>
        <time>2017-02-04T14:06:22Z</time>
      </trkpt>
      <trkpt lat="38.322142" lon="-1.282452">
        <ele>360.6</ele>
        <time>2017-02-04T14:06:23Z</time>
      </trkpt>
      <trkpt lat="38.322208" lon="-1.282761">
        <ele>359.7</ele>
        <time>2017-02-04T14:06:46Z</time>
      </trkpt>
      <trkpt lat="38.322225" lon="-1.282921">
        <ele>360.1</ele>
        <time>2017-02-04T14:07:06Z</time>
      </trkpt>
      <trkpt lat="38.322233" lon="-1.282948">
        <ele>359.7</ele>
        <time>2017-02-04T14:07:22Z</time>
      </trkpt>
      <trkpt lat="38.322255" lon="-1.283001">
        <ele>359.7</ele>
        <time>2017-02-04T14:07:36Z</time>
      </trkpt>
      <trkpt lat="38.322331" lon="-1.283198">
        <ele>359.7</ele>
        <time>2017-02-04T14:07:53Z</time>
      </trkpt>
      <trkpt lat="38.322424" lon="-1.283217">
        <ele>360.6</ele>
        <time>2017-02-04T14:08:08Z</time>
      </trkpt>
      <trkpt lat="38.322477" lon="-1.283215">
        <ele>360.6</ele>
        <time>2017-02-04T14:08:16Z</time>
      </trkpt>
      <trkpt lat="38.322489" lon="-1.283217">
        <ele>360.6</ele>
        <time>2017-02-04T14:08:17Z</time>
      </trkpt>
      <trkpt lat="38.322501" lon="-1.283219">
        <ele>360.1</ele>
        <time>2017-02-04T14:08:18Z</time>
      </trkpt>
      <trkpt lat="38.322516" lon="-1.283221">
        <ele>361.1</ele>
        <time>2017-02-04T14:08:19Z</time>
      </trkpt>
      <trkpt lat="38.322532" lon="-1.283225">
        <ele>360.6</ele>
        <time>2017-02-04T14:08:20Z</time>
      </trkpt>
      <trkpt lat="38.322547" lon="-1.283228">
        <ele>360.6</ele>
        <time>2017-02-04T14:08:21Z</time>
      </trkpt>
      <trkpt lat="38.322561" lon="-1.283226">
        <ele>360.6</ele>
        <time>2017-02-04T14:08:22Z</time>
      </trkpt>
      <trkpt lat="38.322639" lon="-1.283218">
        <ele>360.6</ele>
        <time>2017-02-04T14:08:32Z</time>
      </trkpt>
      <trkpt lat="38.322724" lon="-1.283210">
        <ele>360.6</ele>
        <time>2017-02-04T14:08:39Z</time>
      </trkpt>
      <trkpt lat="38.322735" lon="-1.283206">
        <ele>361.1</ele>
        <time>2017-02-04T14:08:40Z</time>
      </trkpt>
      <trkpt lat="38.322746" lon="-1.283199">
        <ele>361.1</ele>
        <time>2017-02-04T14:08:41Z</time>
      </trkpt>
      <trkpt lat="38.322829" lon="-1.283191">
        <ele>362.1</ele>
        <time>2017-02-04T14:08:48Z</time>
      </trkpt>
      <trkpt lat="38.322846" lon="-1.283191">
        <ele>361.1</ele>
        <time>2017-02-04T14:08:50Z</time>
      </trkpt>
      <trkpt lat="38.322857" lon="-1.283196">
        <ele>361.1</ele>
        <time>2017-02-04T14:08:51Z</time>
      </trkpt>
      <trkpt lat="38.322921" lon="-1.283197">
        <ele>361.1</ele>
        <time>2017-02-04T14:08:58Z</time>
      </trkpt>
      <trkpt lat="38.323045" lon="-1.283181">
        <ele>361.6</ele>
        <time>2017-02-04T14:09:11Z</time>
      </trkpt>
      <trkpt lat="38.323238" lon="-1.283179">
        <ele>361.6</ele>
        <time>2017-02-04T14:09:27Z</time>
      </trkpt>
      <trkpt lat="38.323347" lon="-1.283168">
        <ele>362.1</ele>
        <time>2017-02-04T14:09:36Z</time>
      </trkpt>
      <trkpt lat="38.323377" lon="-1.283173">
        <ele>362.1</ele>
        <time>2017-02-04T14:09:38Z</time>
      </trkpt>
      <trkpt lat="38.323390" lon="-1.283173">
        <ele>362.1</ele>
        <time>2017-02-04T14:09:39Z</time>
      </trkpt>
      <trkpt lat="38.323404" lon="-1.283176">
        <ele>362.1</ele>
        <time>2017-02-04T14:09:40Z</time>
      </trkpt>
      <trkpt lat="38.323413" lon="-1.283176">
        <ele>362.1</ele>
        <time>2017-02-04T14:09:41Z</time>
      </trkpt>
      <trkpt lat="38.323425" lon="-1.283175">
        <ele>361.6</ele>
        <time>2017-02-04T14:09:42Z</time>
      </trkpt>
      <trkpt lat="38.323603" lon="-1.283179">
        <ele>362.1</ele>
        <time>2017-02-04T14:09:56Z</time>
      </trkpt>
      <trkpt lat="38.323784" lon="-1.283165">
        <ele>362.1</ele>
        <time>2017-02-04T14:10:11Z</time>
      </trkpt>
      <trkpt lat="38.323981" lon="-1.283164">
        <ele>362.5</ele>
        <time>2017-02-04T14:10:29Z</time>
      </trkpt>
      <trkpt lat="38.324118" lon="-1.283179">
        <ele>362.5</ele>
        <time>2017-02-04T14:10:44Z</time>
      </trkpt>
      <trkpt lat="38.324255" lon="-1.283163">
        <ele>363.0</ele>
        <time>2017-02-04T14:11:00Z</time>
      </trkpt>
      <trkpt lat="38.324386" lon="-1.283176">
        <ele>363.0</ele>
        <time>2017-02-04T14:11:16Z</time>
      </trkpt>
      <trkpt lat="38.324570" lon="-1.283169">
        <ele>362.5</ele>
        <time>2017-02-04T14:11:38Z</time>
      </trkpt>
      <trkpt lat="38.324857" lon="-1.283125">
        <ele>363.5</ele>
        <time>2017-02-04T14:12:02Z</time>
      </trkpt>
      <trkpt lat="38.325096" lon="-1.283090">
        <ele>363.0</ele>
        <time>2017-02-04T14:12:24Z</time>
      </trkpt>
      <trkpt lat="38.325105" lon="-1.283086">
        <ele>363.0</ele>
        <time>2017-02-04T14:12:25Z</time>
      </trkpt>
      <trkpt lat="38.325242" lon="-1.283038">
        <ele>362.1</ele>
        <time>2017-02-04T14:12:37Z</time>
      </trkpt>
      <trkpt lat="38.325355" lon="-1.283022">
        <ele>361.6</ele>
        <time>2017-02-04T14:12:51Z</time>
      </trkpt>
      <trkpt lat="38.325383" lon="-1.283017">
        <ele>361.1</ele>
        <time>2017-02-04T14:12:59Z</time>
      </trkpt>
      <trkpt lat="38.325451" lon="-1.282999">
        <ele>360.6</ele>
        <time>2017-02-04T14:13:58Z</time>
      </trkpt>
      <trkpt lat="38.325487" lon="-1.283056">
        <ele>360.6</ele>
        <time>2017-02-04T14:14:11Z</time>
      </trkpt>
      <trkpt lat="38.325527" lon="-1.283113">
        <ele>360.1</ele>
        <time>2017-02-04T14:14:16Z</time>
      </trkpt>
      <trkpt lat="38.325561" lon="-1.283222">
        <ele>359.7</ele>
        <time>2017-02-04T14:14:30Z</time>
      </trkpt>
      <trkpt lat="38.325565" lon="-1.283283">
        <ele>359.7</ele>
        <time>2017-02-04T14:14:44Z</time>
      </trkpt>
      <trkpt lat="38.325565" lon="-1.283299">
        <ele>358.7</ele>
        <time>2017-02-04T14:14:46Z</time>
      </trkpt>
      <trkpt lat="38.325580" lon="-1.283376">
        <ele>359.2</ele>
        <time>2017-02-04T14:14:54Z</time>
      </trkpt>
      <trkpt lat="38.325588" lon="-1.283499">
        <ele>358.2</ele>
        <time>2017-02-04T14:15:10Z</time>
      </trkpt>
      <trkpt lat="38.325578" lon="-1.283704">
        <ele>357.8</ele>
        <time>2017-02-04T14:15:26Z</time>
      </trkpt>
      <trkpt lat="38.325561" lon="-1.283803">
        <ele>357.3</ele>
        <time>2017-02-04T14:15:34Z</time>
      </trkpt>
      <trkpt lat="38.325532" lon="-1.284065">
        <ele>355.8</ele>
        <time>2017-02-04T14:15:53Z</time>
      </trkpt>
      <trkpt lat="38.325536" lon="-1.284144">
        <ele>354.9</ele>
        <time>2017-02-04T14:15:59Z</time>
      </trkpt>
      <trkpt lat="38.325551" lon="-1.284407">
        <ele>353.4</ele>
        <time>2017-02-04T14:16:16Z</time>
      </trkpt>
      <trkpt lat="38.325575" lon="-1.284506">
        <ele>352.9</ele>
        <time>2017-02-04T14:16:28Z</time>
      </trkpt>
      <trkpt lat="38.325584" lon="-1.284622">
        <ele>352.5</ele>
        <time>2017-02-04T14:16:36Z</time>
      </trkpt>
      <trkpt lat="38.325600" lon="-1.284792">
        <ele>351.5</ele>
        <time>2017-02-04T14:16:50Z</time>
      </trkpt>
      <trkpt lat="38.325590" lon="-1.284967">
        <ele>351.0</ele>
        <time>2017-02-04T14:17:03Z</time>
      </trkpt>
      <trkpt lat="38.325610" lon="-1.285197">
        <ele>350.5</ele>
        <time>2017-02-04T14:17:22Z</time>
      </trkpt>
      <trkpt lat="38.325641" lon="-1.285322">
        <ele>350.1</ele>
        <time>2017-02-04T14:17:47Z</time>
      </trkpt>
      <trkpt lat="38.325647" lon="-1.285535">
        <ele>349.6</ele>
        <time>2017-02-04T14:18:02Z</time>
      </trkpt>
      <trkpt lat="38.325651" lon="-1.285576">
        <ele>349.6</ele>
        <time>2017-02-04T14:18:05Z</time>
      </trkpt>
      <trkpt lat="38.325671" lon="-1.285718">
        <ele>348.1</ele>
        <time>2017-02-04T14:18:19Z</time>
      </trkpt>
      <trkpt lat="38.325671" lon="-1.285965">
        <ele>348.1</ele>
        <time>2017-02-04T14:18:35Z</time>
      </trkpt>
      <trkpt lat="38.325679" lon="-1.286204">
        <ele>346.7</ele>
        <time>2017-02-04T14:18:50Z</time>
      </trkpt>
      <trkpt lat="38.325681" lon="-1.286307">
        <ele>346.7</ele>
        <time>2017-02-04T14:18:57Z</time>
      </trkpt>
      <trkpt lat="38.325696" lon="-1.286550">
        <ele>346.7</ele>
        <time>2017-02-04T14:19:13Z</time>
      </trkpt>
      <trkpt lat="38.325713" lon="-1.286776">
        <ele>345.7</ele>
        <time>2017-02-04T14:19:28Z</time>
      </trkpt>
      <trkpt lat="38.325731" lon="-1.287026">
        <ele>344.8</ele>
        <time>2017-02-04T14:19:45Z</time>
      </trkpt>
      <trkpt lat="38.325727" lon="-1.287246">
        <ele>344.3</ele>
        <time>2017-02-04T14:20:01Z</time>
      </trkpt>
      <trkpt lat="38.325753" lon="-1.287401">
        <ele>344.3</ele>
        <time>2017-02-04T14:20:12Z</time>
      </trkpt>
      <trkpt lat="38.325769" lon="-1.287702">
        <ele>344.8</ele>
        <time>2017-02-04T14:20:31Z</time>
      </trkpt>
      <trkpt lat="38.325793" lon="-1.287940">
        <ele>343.3</ele>
        <time>2017-02-04T14:20:49Z</time>
      </trkpt>
      <trkpt lat="38.325853" lon="-1.288165">
        <ele>342.9</ele>
        <time>2017-02-04T14:21:04Z</time>
      </trkpt>
      <trkpt lat="38.325855" lon="-1.288162">
        <ele>343.3</ele>
        <time>2017-02-04T14:21:13Z</time>
      </trkpt>
      <trkpt lat="38.325859" lon="-1.288234">
        <ele>342.9</ele>
        <time>2017-02-04T14:21:17Z</time>
      </trkpt>
      <trkpt lat="38.325844" lon="-1.288438">
        <ele>342.4</ele>
        <time>2017-02-04T14:21:39Z</time>
      </trkpt>
      <trkpt lat="38.325868" lon="-1.288712">
        <ele>341.9</ele>
        <time>2017-02-04T14:21:55Z</time>
      </trkpt>
      <trkpt lat="38.325895" lon="-1.288977">
        <ele>341.9</ele>
        <time>2017-02-04T14:22:09Z</time>
      </trkpt>
      <trkpt lat="38.325911" lon="-1.289126">
        <ele>341.4</ele>
        <time>2017-02-04T14:22:18Z</time>
      </trkpt>
      <trkpt lat="38.325957" lon="-1.289497">
        <ele>341.4</ele>
        <time>2017-02-04T14:22:38Z</time>
      </trkpt>
      <trkpt lat="38.325976" lon="-1.289737">
        <ele>341.4</ele>
        <time>2017-02-04T14:22:51Z</time>
      </trkpt>
      <trkpt lat="38.325999" lon="-1.290072">
        <ele>341.4</ele>
        <time>2017-02-04T14:23:09Z</time>
      </trkpt>
      <trkpt lat="38.326019" lon="-1.290341">
        <ele>341.4</ele>
        <time>2017-02-04T14:23:24Z</time>
      </trkpt>
      <trkpt lat="38.326038" lon="-1.290644">
        <ele>340.9</ele>
        <time>2017-02-04T14:23:40Z</time>
      </trkpt>
      <trkpt lat="38.326051" lon="-1.290923">
        <ele>340.4</ele>
        <time>2017-02-04T14:23:56Z</time>
      </trkpt>
      <trkpt lat="38.326068" lon="-1.291294">
        <ele>340.9</ele>
        <time>2017-02-04T14:24:15Z</time>
      </trkpt>
      <trkpt lat="38.326077" lon="-1.291554">
        <ele>340.0</ele>
        <time>2017-02-04T14:24:29Z</time>
      </trkpt>
      <trkpt lat="38.326085" lon="-1.291769">
        <ele>340.0</ele>
        <time>2017-02-04T14:24:42Z</time>
      </trkpt>
      <trkpt lat="38.326105" lon="-1.291870">
        <ele>339.5</ele>
        <time>2017-02-04T14:24:48Z</time>
      </trkpt>
      <trkpt lat="38.326110" lon="-1.291962">
        <ele>340.0</ele>
        <time>2017-02-04T14:24:53Z</time>
      </trkpt>
      <trkpt lat="38.326128" lon="-1.292098">
        <ele>339.5</ele>
        <time>2017-02-04T14:25:03Z</time>
      </trkpt>
      <trkpt lat="38.326105" lon="-1.292235">
        <ele>339.5</ele>
        <time>2017-02-04T14:25:12Z</time>
      </trkpt>
      <trkpt lat="38.326077" lon="-1.292286">
        <ele>339.5</ele>
        <time>2017-02-04T14:25:17Z</time>
      </trkpt>
      <trkpt lat="38.325996" lon="-1.292383">
        <ele>340.4</ele>
        <time>2017-02-04T14:25:31Z</time>
      </trkpt>
      <trkpt lat="38.325973" lon="-1.292408">
        <ele>340.0</ele>
        <time>2017-02-04T14:25:41Z</time>
      </trkpt>
      <trkpt lat="38.325844" lon="-1.292573">
        <ele>340.4</ele>
        <time>2017-02-04T14:25:56Z</time>
      </trkpt>
      <trkpt lat="38.325700" lon="-1.292699">
        <ele>340.0</ele>
        <time>2017-02-04T14:26:12Z</time>
      </trkpt>
      <trkpt lat="38.325665" lon="-1.292719">
        <ele>339.5</ele>
        <time>2017-02-04T14:26:28Z</time>
      </trkpt>
      <trkpt lat="38.325576" lon="-1.292888">
        <ele>340.0</ele>
        <time>2017-02-04T14:26:41Z</time>
      </trkpt>
      <trkpt lat="38.325404" lon="-1.293115">
        <ele>340.0</ele>
        <time>2017-02-04T14:26:58Z</time>
      </trkpt>
      <trkpt lat="38.325254" lon="-1.293275">
        <ele>340.0</ele>
        <time>2017-02-04T14:27:12Z</time>
      </trkpt>
      <trkpt lat="38.325181" lon="-1.293370">
        <ele>340.0</ele>
        <time>2017-02-04T14:27:25Z</time>
      </trkpt>
      <trkpt lat="38.325110" lon="-1.293474">
        <ele>340.0</ele>
        <time>2017-02-04T14:27:37Z</time>
      </trkpt>
      <trkpt lat="38.325083" lon="-1.293501">
        <ele>340.0</ele>
        <time>2017-02-04T14:27:41Z</time>
      </trkpt>
      <trkpt lat="38.325058" lon="-1.293538">
        <ele>340.0</ele>
        <time>2017-02-04T14:27:45Z</time>
      </trkpt>
      <trkpt lat="38.325005" lon="-1.293603">
        <ele>340.0</ele>
        <time>2017-02-04T14:27:52Z</time>
      </trkpt>
      <trkpt lat="38.324967" lon="-1.293650">
        <ele>340.4</ele>
        <time>2017-02-04T14:27:56Z</time>
      </trkpt>
      <trkpt lat="38.324801" lon="-1.293852">
        <ele>340.0</ele>
        <time>2017-02-04T14:28:15Z</time>
      </trkpt>
      <trkpt lat="38.324741" lon="-1.293938">
        <ele>340.0</ele>
        <time>2017-02-04T14:29:09Z</time>
      </trkpt>
      <trkpt lat="38.324777" lon="-1.294041">
        <ele>339.5</ele>
        <time>2017-02-04T14:29:24Z</time>
      </trkpt>
      <trkpt lat="38.324806" lon="-1.294138">
        <ele>339.5</ele>
        <time>2017-02-04T14:29:38Z</time>
      </trkpt>
      <trkpt lat="38.324927" lon="-1.294310">
        <ele>338.5</ele>
        <time>2017-02-04T14:29:52Z</time>
      </trkpt>
      <trkpt lat="38.324953" lon="-1.294355">
        <ele>339.5</ele>
        <time>2017-02-04T14:29:56Z</time>
      </trkpt>
      <trkpt lat="38.324986" lon="-1.294450">
        <ele>339.0</ele>
        <time>2017-02-04T14:30:04Z</time>
      </trkpt>
      <trkpt lat="38.325038" lon="-1.294606">
        <ele>338.5</ele>
        <time>2017-02-04T14:30:15Z</time>
      </trkpt>
      <trkpt lat="38.325094" lon="-1.294762">
        <ele>339.0</ele>
        <time>2017-02-04T14:30:28Z</time>
      </trkpt>
      <trkpt lat="38.325131" lon="-1.294815">
        <ele>338.5</ele>
        <time>2017-02-04T14:30:33Z</time>
      </trkpt>
      <trkpt lat="38.325227" lon="-1.294963">
        <ele>339.5</ele>
        <time>2017-02-04T14:30:43Z</time>
      </trkpt>
      <trkpt lat="38.325287" lon="-1.294973">
        <ele>338.0</ele>
        <time>2017-02-04T14:30:57Z</time>
      </trkpt>
      <trkpt lat="38.325287" lon="-1.294969">
        <ele>339.5</ele>
        <time>2017-02-04T14:30:59Z</time>
      </trkpt>
      <trkpt lat="38.325290" lon="-1.295026">
        <ele>340.4</ele>
        <time>2017-02-12T08:12:48Z</time>
      </trkpt>
      <trkpt lat="38.325275" lon="-1.295104">
        <ele>340.0</ele>
        <time>2017-02-12T08:12:54Z</time>
      </trkpt>
      <trkpt lat="38.325291" lon="-1.295131">
        <ele>340.0</ele>
        <time>2017-02-12T08:13:00Z</time>
      </trkpt>
      <trkpt lat="38.325309" lon="-1.295194">
        <ele>340.4</ele>
        <time>2017-02-12T08:13:05Z</time>
      </trkpt>
      <trkpt lat="38.325314" lon="-1.295259">
        <ele>340.0</ele>
        <time>2017-02-12T08:13:12Z</time>
      </trkpt>
      <trkpt lat="38.325334" lon="-1.295290">
        <ele>340.4</ele>
        <time>2017-02-12T08:13:15Z</time>
      </trkpt>
      <trkpt lat="38.325353" lon="-1.295482">
        <ele>340.4</ele>
        <time>2017-02-12T08:13:31Z</time>
      </trkpt>
      <trkpt lat="38.325378" lon="-1.295732">
        <ele>340.0</ele>
        <time>2017-02-12T08:13:49Z</time>
      </trkpt>
      <trkpt lat="38.325449" lon="-1.295927">
        <ele>339.5</ele>
        <time>2017-02-12T08:14:05Z</time>
      </trkpt>
      <trkpt lat="38.325543" lon="-1.296143">
        <ele>340.0</ele>
        <time>2017-02-12T08:14:23Z</time>
      </trkpt>
      <trkpt lat="38.325669" lon="-1.296383">
        <ele>340.0</ele>
        <time>2017-02-12T08:14:42Z</time>
      </trkpt>
      <trkpt lat="38.325775" lon="-1.296612">
        <ele>340.0</ele>
        <time>2017-02-12T08:15:00Z</time>
      </trkpt>
      <trkpt lat="38.325893" lon="-1.296845">
        <ele>339.0</ele>
        <time>2017-02-12T08:15:19Z</time>
      </trkpt>
      <trkpt lat="38.326006" lon="-1.297080">
        <ele>338.0</ele>
        <time>2017-02-12T08:15:37Z</time>
      </trkpt>
      <trkpt lat="38.326053" lon="-1.297170">
        <ele>337.1</ele>
        <time>2017-02-12T08:15:45Z</time>
      </trkpt>
      <trkpt lat="38.326061" lon="-1.297197">
        <ele>340.0</ele>
        <time>2017-02-12T08:15:47Z</time>
      </trkpt>
      <trkpt lat="38.326074" lon="-1.297221">
        <ele>338.0</ele>
        <time>2017-02-12T08:15:49Z</time>
      </trkpt>
      <trkpt lat="38.326175" lon="-1.297480">
        <ele>338.0</ele>
        <time>2017-02-12T08:16:07Z</time>
      </trkpt>
      <trkpt lat="38.326243" lon="-1.297629">
        <ele>339.0</ele>
        <time>2017-02-12T08:16:19Z</time>
      </trkpt>
      <trkpt lat="38.326356" lon="-1.297863">
        <ele>338.5</ele>
        <time>2017-02-12T08:16:37Z</time>
      </trkpt>
      <trkpt lat="38.326465" lon="-1.298068">
        <ele>338.5</ele>
        <time>2017-02-12T08:16:52Z</time>
      </trkpt>
      <trkpt lat="38.326582" lon="-1.298222">
        <ele>338.5</ele>
        <time>2017-02-12T08:17:07Z</time>
      </trkpt>
      <trkpt lat="38.326781" lon="-1.298357">
        <ele>337.1</ele>
        <time>2017-02-12T08:17:24Z</time>
      </trkpt>
      <trkpt lat="38.326994" lon="-1.298437">
        <ele>337.6</ele>
        <time>2017-02-12T08:17:42Z</time>
      </trkpt>
      <trkpt lat="38.327192" lon="-1.298491">
        <ele>337.6</ele>
        <time>2017-02-12T08:17:59Z</time>
      </trkpt>
      <trkpt lat="38.327217" lon="-1.298499">
        <ele>337.1</ele>
        <time>2017-02-12T08:18:01Z</time>
      </trkpt>
      <trkpt lat="38.327447" lon="-1.298561">
        <ele>336.1</ele>
        <time>2017-02-12T08:18:20Z</time>
      </trkpt>
      <trkpt lat="38.327670" lon="-1.298650">
        <ele>336.6</ele>
        <time>2017-02-12T08:18:39Z</time>
      </trkpt>
      <trkpt lat="38.327891" lon="-1.298728">
        <ele>336.1</ele>
        <time>2017-02-12T08:18:57Z</time>
      </trkpt>
      <trkpt lat="38.328146" lon="-1.298809">
        <ele>336.1</ele>
        <time>2017-02-12T08:19:17Z</time>
      </trkpt>
      <trkpt lat="38.328411" lon="-1.298885">
        <ele>335.6</ele>
        <time>2017-02-12T08:19:37Z</time>
      </trkpt>
      <trkpt lat="38.328645" lon="-1.298963">
        <ele>335.6</ele>
        <time>2017-02-12T08:19:55Z</time>
      </trkpt>
      <trkpt lat="38.328868" lon="-1.299039">
        <ele>335.6</ele>
        <time>2017-02-12T08:20:13Z</time>
      </trkpt>
      <trkpt lat="38.329090" lon="-1.299112">
        <ele>335.2</ele>
        <time>2017-02-12T08:20:30Z</time>
      </trkpt>
      <trkpt lat="38.329344" lon="-1.299190">
        <ele>335.2</ele>
        <time>2017-02-12T08:20:49Z</time>
      </trkpt>
      <trkpt lat="38.329571" lon="-1.299285">
        <ele>335.2</ele>
        <time>2017-02-12T08:21:07Z</time>
      </trkpt>
      <trkpt lat="38.329826" lon="-1.299366">
        <ele>335.2</ele>
        <time>2017-02-12T08:21:27Z</time>
      </trkpt>
      <trkpt lat="38.330055" lon="-1.299445">
        <ele>335.2</ele>
        <time>2017-02-12T08:21:45Z</time>
      </trkpt>
      <trkpt lat="38.330276" lon="-1.299516">
        <ele>335.6</ele>
        <time>2017-02-12T08:22:02Z</time>
      </trkpt>
      <trkpt lat="38.330302" lon="-1.299532">
        <ele>332.3</ele>
        <time>2017-02-12T08:22:04Z</time>
      </trkpt>
      <trkpt lat="38.330327" lon="-1.299542">
        <ele>335.6</ele>
        <time>2017-02-12T08:22:06Z</time>
      </trkpt>
      <trkpt lat="38.330637" lon="-1.299637">
        <ele>336.1</ele>
        <time>2017-02-12T08:22:30Z</time>
      </trkpt>
      <trkpt lat="38.330926" lon="-1.299735">
        <ele>334.7</ele>
        <time>2017-02-12T08:22:53Z</time>
      </trkpt>
      <trkpt lat="38.331175" lon="-1.299825">
        <ele>335.2</ele>
        <time>2017-02-12T08:23:11Z</time>
      </trkpt>
      <trkpt lat="38.331393" lon="-1.300056">
        <ele>336.1</ele>
        <time>2017-02-12T08:23:32Z</time>
      </trkpt>
      <trkpt lat="38.331457" lon="-1.300380">
        <ele>335.6</ele>
        <time>2017-02-12T08:23:51Z</time>
      </trkpt>
      <trkpt lat="38.331481" lon="-1.300416">
        <ele>336.1</ele>
        <time>2017-02-12T08:24:02Z</time>
      </trkpt>
      <trkpt lat="38.331483" lon="-1.300574">
        <ele>336.1</ele>
        <time>2017-02-12T08:24:17Z</time>
      </trkpt>
      <trkpt lat="38.331492" lon="-1.300843">
        <ele>336.1</ele>
        <time>2017-02-12T08:24:33Z</time>
      </trkpt>
      <trkpt lat="38.331486" lon="-1.301127">
        <ele>337.6</ele>
        <time>2017-02-12T08:24:50Z</time>
      </trkpt>
      <trkpt lat="38.331506" lon="-1.301382">
        <ele>337.6</ele>
        <time>2017-02-12T08:25:06Z</time>
      </trkpt>
      <trkpt lat="38.331681" lon="-1.301609">
        <ele>338.0</ele>
        <time>2017-02-12T08:25:23Z</time>
      </trkpt>
      <trkpt lat="38.331857" lon="-1.301758">
        <ele>338.0</ele>
        <time>2017-02-12T08:25:38Z</time>
      </trkpt>
      <trkpt lat="38.332041" lon="-1.301903">
        <ele>338.5</ele>
        <time>2017-02-12T08:25:54Z</time>
      </trkpt>
      <trkpt lat="38.332258" lon="-1.302062">
        <ele>339.0</ele>
        <time>2017-02-12T08:26:12Z</time>
      </trkpt>
      <trkpt lat="38.332335" lon="-1.302106">
        <ele>339.0</ele>
        <time>2017-02-12T08:26:18Z</time>
      </trkpt>
      <trkpt lat="38.332559" lon="-1.302281">
        <ele>339.5</ele>
        <time>2017-02-12T08:26:37Z</time>
      </trkpt>
      <trkpt lat="38.332782" lon="-1.302436">
        <ele>340.0</ele>
        <time>2017-02-12T08:26:55Z</time>
      </trkpt>
      <trkpt lat="38.333016" lon="-1.302619">
        <ele>340.4</ele>
        <time>2017-02-12T08:27:15Z</time>
      </trkpt>
      <trkpt lat="38.333249" lon="-1.302782">
        <ele>341.4</ele>
        <time>2017-02-12T08:27:35Z</time>
      </trkpt>
      <trkpt lat="38.333420" lon="-1.302919">
        <ele>341.4</ele>
        <time>2017-02-12T08:27:50Z</time>
      </trkpt>
      <trkpt lat="38.333588" lon="-1.303048">
        <ele>342.4</ele>
        <time>2017-02-12T08:28:05Z</time>
      </trkpt>
      <trkpt lat="38.333781" lon="-1.303209">
        <ele>342.9</ele>
        <time>2017-02-12T08:28:22Z</time>
      </trkpt>
      <trkpt lat="38.333984" lon="-1.303355">
        <ele>343.3</ele>
        <time>2017-02-12T08:28:40Z</time>
      </trkpt>
      <trkpt lat="38.334178" lon="-1.303513">
        <ele>344.3</ele>
        <time>2017-02-12T08:28:57Z</time>
      </trkpt>
      <trkpt lat="38.334408" lon="-1.303646">
        <ele>344.3</ele>
        <time>2017-02-12T08:29:16Z</time>
      </trkpt>
      <trkpt lat="38.334680" lon="-1.303863">
        <ele>345.2</ele>
        <time>2017-02-12T08:29:40Z</time>
      </trkpt>
      <trkpt lat="38.334932" lon="-1.304039">
        <ele>346.2</ele>
        <time>2017-02-12T08:30:02Z</time>
      </trkpt>
      <trkpt lat="38.335157" lon="-1.304186">
        <ele>347.2</ele>
        <time>2017-02-12T08:30:21Z</time>
      </trkpt>
      <trkpt lat="38.335396" lon="-1.304377">
        <ele>348.1</ele>
        <time>2017-02-12T08:30:42Z</time>
      </trkpt>
      <trkpt lat="38.335442" lon="-1.304402">
        <ele>348.6</ele>
        <time>2017-02-12T08:30:48Z</time>
      </trkpt>
      <trkpt lat="38.335560" lon="-1.304498">
        <ele>348.6</ele>
        <time>2017-02-12T08:31:01Z</time>
      </trkpt>
      <trkpt lat="38.335727" lon="-1.304614">
        <ele>349.6</ele>
        <time>2017-02-12T08:31:16Z</time>
      </trkpt>
      <trkpt lat="38.335915" lon="-1.304774">
        <ele>350.1</ele>
        <time>2017-02-12T08:31:32Z</time>
      </trkpt>
      <trkpt lat="38.336085" lon="-1.304895">
        <ele>350.5</ele>
        <time>2017-02-12T08:31:47Z</time>
      </trkpt>
      <trkpt lat="38.336151" lon="-1.304902">
        <ele>350.5</ele>
        <time>2017-02-12T08:31:59Z</time>
      </trkpt>
      <trkpt lat="38.336149" lon="-1.304903">
        <ele>350.5</ele>
        <time>2017-02-12T08:32:06Z</time>
      </trkpt>
      <trkpt lat="38.336185" lon="-1.304922">
        <ele>350.5</ele>
        <time>2017-02-12T08:32:10Z</time>
      </trkpt>
      <trkpt lat="38.336309" lon="-1.305085">
        <ele>351.5</ele>
        <time>2017-02-12T08:32:24Z</time>
      </trkpt>
      <trkpt lat="38.336479" lon="-1.305254">
        <ele>352.0</ele>
        <time>2017-02-12T08:32:41Z</time>
      </trkpt>
      <trkpt lat="38.336624" lon="-1.305423">
        <ele>352.5</ele>
        <time>2017-02-12T08:32:56Z</time>
      </trkpt>
      <trkpt lat="38.336755" lon="-1.305597">
        <ele>352.9</ele>
        <time>2017-02-12T08:33:11Z</time>
      </trkpt>
      <trkpt lat="38.336790" lon="-1.305637">
        <ele>352.9</ele>
        <time>2017-02-12T08:33:15Z</time>
      </trkpt>
      <trkpt lat="38.336927" lon="-1.305855">
        <ele>353.4</ele>
        <time>2017-02-12T08:33:33Z</time>
      </trkpt>
      <trkpt lat="38.336944" lon="-1.305866">
        <ele>353.9</ele>
        <time>2017-02-12T08:33:36Z</time>
      </trkpt>
      <trkpt lat="38.337086" lon="-1.306100">
        <ele>353.9</ele>
        <time>2017-02-12T08:33:54Z</time>
      </trkpt>
      <trkpt lat="38.337214" lon="-1.306313">
        <ele>354.4</ele>
        <time>2017-02-12T08:34:10Z</time>
      </trkpt>
      <trkpt lat="38.337296" lon="-1.306496">
        <ele>354.9</ele>
        <time>2017-02-12T08:34:23Z</time>
      </trkpt>
      <trkpt lat="38.337433" lon="-1.306768">
        <ele>355.3</ele>
        <time>2017-02-12T08:34:42Z</time>
      </trkpt>
      <trkpt lat="38.337580" lon="-1.307011">
        <ele>356.3</ele>
        <time>2017-02-12T08:35:01Z</time>
      </trkpt>
      <trkpt lat="38.337704" lon="-1.307222">
        <ele>356.8</ele>
        <time>2017-02-12T08:35:19Z</time>
      </trkpt>
      <trkpt lat="38.337835" lon="-1.307482">
        <ele>357.3</ele>
        <time>2017-02-12T08:35:37Z</time>
      </trkpt>
      <trkpt lat="38.337933" lon="-1.307694">
        <ele>357.3</ele>
        <time>2017-02-12T08:35:53Z</time>
      </trkpt>
      <trkpt lat="38.338009" lon="-1.307923">
        <ele>357.8</ele>
        <time>2017-02-12T08:36:10Z</time>
      </trkpt>
      <trkpt lat="38.338071" lon="-1.308133">
        <ele>357.8</ele>
        <time>2017-02-12T08:36:25Z</time>
      </trkpt>
      <trkpt lat="38.338259" lon="-1.308377">
        <ele>358.7</ele>
        <time>2017-02-12T08:36:46Z</time>
      </trkpt>
      <trkpt lat="38.338451" lon="-1.308542">
        <ele>359.2</ele>
        <time>2017-02-12T08:37:04Z</time>
      </trkpt>
      <trkpt lat="38.338666" lon="-1.308679">
        <ele>359.2</ele>
        <time>2017-02-12T08:37:23Z</time>
      </trkpt>
      <trkpt lat="38.338918" lon="-1.308873">
        <ele>360.6</ele>
        <time>2017-02-12T08:37:46Z</time>
      </trkpt>
      <trkpt lat="38.339114" lon="-1.308974">
        <ele>360.6</ele>
        <time>2017-02-12T08:38:03Z</time>
      </trkpt>
      <trkpt lat="38.339355" lon="-1.309105">
        <ele>361.1</ele>
        <time>2017-02-12T08:38:23Z</time>
      </trkpt>
      <trkpt lat="38.339654" lon="-1.309222">
        <ele>361.1</ele>
        <time>2017-02-12T08:38:46Z</time>
      </trkpt>
      <trkpt lat="38.339841" lon="-1.309260">
        <ele>362.1</ele>
        <time>2017-02-12T08:39:01Z</time>
      </trkpt>
      <trkpt lat="38.340071" lon="-1.309328">
        <ele>362.5</ele>
        <time>2017-02-12T08:39:20Z</time>
      </trkpt>
      <trkpt lat="38.340311" lon="-1.309359">
        <ele>363.0</ele>
        <time>2017-02-12T08:39:39Z</time>
      </trkpt>
      <trkpt lat="38.340443" lon="-1.309373">
        <ele>363.0</ele>
        <time>2017-02-12T08:39:55Z</time>
      </trkpt>
      <trkpt lat="38.340670" lon="-1.309428">
        <ele>363.0</ele>
        <time>2017-02-12T08:40:12Z</time>
      </trkpt>
      <trkpt lat="38.340732" lon="-1.309439">
        <ele>363.5</ele>
        <time>2017-02-12T08:40:27Z</time>
      </trkpt>
      <trkpt lat="38.340744" lon="-1.309451">
        <ele>363.0</ele>
        <time>2017-02-12T08:40:35Z</time>
      </trkpt>
      <trkpt lat="38.340895" lon="-1.309514">
        <ele>364.0</ele>
        <time>2017-02-12T08:40:49Z</time>
      </trkpt>
      <trkpt lat="38.341042" lon="-1.309622">
        <ele>364.5</ele>
        <time>2017-02-12T08:41:03Z</time>
      </trkpt>
      <trkpt lat="38.341110" lon="-1.309685">
        <ele>365.0</ele>
        <time>2017-02-12T08:41:15Z</time>
      </trkpt>
      <trkpt lat="38.341197" lon="-1.309834">
        <ele>365.0</ele>
        <time>2017-02-12T08:41:27Z</time>
      </trkpt>
      <trkpt lat="38.341289" lon="-1.310017">
        <ele>365.9</ele>
        <time>2017-02-12T08:41:40Z</time>
      </trkpt>
      <trkpt lat="38.341297" lon="-1.310044">
        <ele>365.4</ele>
        <time>2017-02-12T08:41:42Z</time>
      </trkpt>
      <trkpt lat="38.341281" lon="-1.310130">
        <ele>365.9</ele>
        <time>2017-02-12T08:41:54Z</time>
      </trkpt>
      <trkpt lat="38.341287" lon="-1.310176">
        <ele>365.9</ele>
        <time>2017-02-12T08:42:06Z</time>
      </trkpt>
      <trkpt lat="38.341285" lon="-1.310264">
        <ele>366.4</ele>
        <time>2017-02-12T08:42:16Z</time>
      </trkpt>
      <trkpt lat="38.341279" lon="-1.310286">
        <ele>366.4</ele>
        <time>2017-02-12T08:42:26Z</time>
      </trkpt>
      <trkpt lat="38.341284" lon="-1.310486">
        <ele>365.9</ele>
        <time>2017-02-12T08:42:41Z</time>
      </trkpt>
      <trkpt lat="38.341325" lon="-1.310617">
        <ele>365.9</ele>
        <time>2017-02-12T08:42:59Z</time>
      </trkpt>
      <trkpt lat="38.341324" lon="-1.310625">
        <ele>366.4</ele>
        <time>2017-02-12T08:43:02Z</time>
      </trkpt>
      <trkpt lat="38.341340" lon="-1.310703">
        <ele>366.4</ele>
        <time>2017-02-12T08:43:08Z</time>
      </trkpt>
      <trkpt lat="38.341419" lon="-1.310909">
        <ele>366.4</ele>
        <time>2017-02-12T08:43:23Z</time>
      </trkpt>
      <trkpt lat="38.341443" lon="-1.310982">
        <ele>366.4</ele>
        <time>2017-02-12T08:43:28Z</time>
      </trkpt>
      <trkpt lat="38.341532" lon="-1.311224">
        <ele>367.4</ele>
        <time>2017-02-12T08:43:45Z</time>
      </trkpt>
      <trkpt lat="38.341605" lon="-1.311438">
        <ele>367.4</ele>
        <time>2017-02-12T08:44:00Z</time>
      </trkpt>
      <trkpt lat="38.341669" lon="-1.311614">
        <ele>368.3</ele>
        <time>2017-02-12T08:44:13Z</time>
      </trkpt>
      <trkpt lat="38.341730" lon="-1.311818">
        <ele>368.8</ele>
        <time>2017-02-12T08:44:29Z</time>
      </trkpt>
      <trkpt lat="38.341795" lon="-1.312004">
        <ele>369.8</ele>
        <time>2017-02-12T08:44:46Z</time>
      </trkpt>
      <trkpt lat="38.341869" lon="-1.312238">
        <ele>369.8</ele>
        <time>2017-02-12T08:45:02Z</time>
      </trkpt>
      <trkpt lat="38.341940" lon="-1.312448">
        <ele>370.7</ele>
        <time>2017-02-12T08:45:17Z</time>
      </trkpt>
      <trkpt lat="38.341981" lon="-1.312546">
        <ele>371.2</ele>
        <time>2017-02-12T08:45:25Z</time>
      </trkpt>
      <trkpt lat="38.342000" lon="-1.312596">
        <ele>371.7</ele>
        <time>2017-02-12T08:45:29Z</time>
      </trkpt>
      <trkpt lat="38.342068" lon="-1.312786">
        <ele>372.2</ele>
        <time>2017-02-12T08:45:43Z</time>
      </trkpt>
      <trkpt lat="38.342129" lon="-1.312893">
        <ele>372.6</ele>
        <time>2017-02-12T08:45:56Z</time>
      </trkpt>
      <trkpt lat="38.342125" lon="-1.312898">
        <ele>372.6</ele>
        <time>2017-02-12T08:46:02Z</time>
      </trkpt>
      <trkpt lat="38.342216" lon="-1.313249">
        <ele>373.6</ele>
        <time>2017-02-12T08:46:21Z</time>
      </trkpt>
      <trkpt lat="38.342370" lon="-1.313513">
        <ele>375.5</ele>
        <time>2017-02-12T08:46:38Z</time>
      </trkpt>
      <trkpt lat="38.342436" lon="-1.313569">
        <ele>376.0</ele>
        <time>2017-02-12T08:47:24Z</time>
      </trkpt>
      <trkpt lat="38.342509" lon="-1.313612">
        <ele>376.5</ele>
        <time>2017-02-12T08:47:29Z</time>
      </trkpt>
      <trkpt lat="38.342535" lon="-1.313613">
        <ele>376.5</ele>
        <time>2017-02-12T08:47:31Z</time>
      </trkpt>
      <trkpt lat="38.342760" lon="-1.313710">
        <ele>378.9</ele>
        <time>2017-02-12T08:47:48Z</time>
      </trkpt>
      <trkpt lat="38.342989" lon="-1.313885">
        <ele>379.4</ele>
        <time>2017-02-12T08:48:09Z</time>
      </trkpt>
      <trkpt lat="38.343130" lon="-1.314121">
        <ele>381.3</ele>
        <time>2017-02-12T08:48:26Z</time>
      </trkpt>
      <trkpt lat="38.343262" lon="-1.314368">
        <ele>381.3</ele>
        <time>2017-02-12T08:48:43Z</time>
      </trkpt>
      <trkpt lat="38.343391" lon="-1.314634">
        <ele>383.7</ele>
        <time>2017-02-12T08:49:01Z</time>
      </trkpt>
      <trkpt lat="38.343461" lon="-1.314801">
        <ele>384.7</ele>
        <time>2017-02-12T08:49:15Z</time>
      </trkpt>
      <trkpt lat="38.343529" lon="-1.314942">
        <ele>385.1</ele>
        <time>2017-02-12T08:49:28Z</time>
      </trkpt>
      <trkpt lat="38.343634" lon="-1.315236">
        <ele>386.1</ele>
        <time>2017-02-12T08:49:46Z</time>
      </trkpt>
      <trkpt lat="38.343772" lon="-1.315494">
        <ele>388.0</ele>
        <time>2017-02-12T08:50:04Z</time>
      </trkpt>
      <trkpt lat="38.343829" lon="-1.315765">
        <ele>388.0</ele>
        <time>2017-02-12T08:50:20Z</time>
      </trkpt>
      <trkpt lat="38.343876" lon="-1.316032">
        <ele>387.5</ele>
        <time>2017-02-12T08:50:36Z</time>
      </trkpt>
      <trkpt lat="38.343878" lon="-1.316050">
        <ele>386.6</ele>
        <time>2017-02-12T08:50:37Z</time>
      </trkpt>
      <trkpt lat="38.343877" lon="-1.316090">
        <ele>387.1</ele>
        <time>2017-02-12T08:50:47Z</time>
      </trkpt>
      <trkpt lat="38.343905" lon="-1.316197">
        <ele>386.6</ele>
        <time>2017-02-12T08:50:53Z</time>
      </trkpt>
      <trkpt lat="38.344055" lon="-1.316505">
        <ele>387.5</ele>
        <time>2017-02-12T08:51:11Z</time>
      </trkpt>
      <trkpt lat="38.344129" lon="-1.316630">
        <ele>387.5</ele>
        <time>2017-02-12T08:51:28Z</time>
      </trkpt>
      <trkpt lat="38.344228" lon="-1.316721">
        <ele>388.0</ele>
        <time>2017-02-12T08:51:39Z</time>
      </trkpt>
      <trkpt lat="38.344388" lon="-1.316969">
        <ele>387.5</ele>
        <time>2017-02-12T08:51:58Z</time>
      </trkpt>
      <trkpt lat="38.344510" lon="-1.317132">
        <ele>388.5</ele>
        <time>2017-02-12T08:52:13Z</time>
      </trkpt>
      <trkpt lat="38.344627" lon="-1.317265">
        <ele>389.0</ele>
        <time>2017-02-12T08:52:26Z</time>
      </trkpt>
      <trkpt lat="38.344781" lon="-1.317449">
        <ele>390.0</ele>
        <time>2017-02-12T08:52:42Z</time>
      </trkpt>
      <trkpt lat="38.344947" lon="-1.317632">
        <ele>390.4</ele>
        <time>2017-02-12T08:52:59Z</time>
      </trkpt>
      <trkpt lat="38.345100" lon="-1.317773">
        <ele>391.4</ele>
        <time>2017-02-12T08:53:14Z</time>
      </trkpt>
      <trkpt lat="38.345159" lon="-1.317818">
        <ele>391.9</ele>
        <time>2017-02-12T08:53:20Z</time>
      </trkpt>
      <trkpt lat="38.345304" lon="-1.317934">
        <ele>393.8</ele>
        <time>2017-02-12T08:53:34Z</time>
      </trkpt>
      <trkpt lat="38.345476" lon="-1.318081">
        <ele>395.7</ele>
        <time>2017-02-12T08:53:51Z</time>
      </trkpt>
      <trkpt lat="38.345486" lon="-1.318091">
        <ele>395.2</ele>
        <time>2017-02-12T08:53:52Z</time>
      </trkpt>
      <trkpt lat="38.345662" lon="-1.318234">
        <ele>396.2</ele>
        <time>2017-02-12T08:54:09Z</time>
      </trkpt>
      <trkpt lat="38.345834" lon="-1.318409">
        <ele>398.1</ele>
        <time>2017-02-12T08:54:27Z</time>
      </trkpt>
      <trkpt lat="38.345990" lon="-1.318569">
        <ele>399.1</ele>
        <time>2017-02-12T08:54:43Z</time>
      </trkpt>
      <trkpt lat="38.346228" lon="-1.318801">
        <ele>400.0</ele>
        <time>2017-02-12T08:55:07Z</time>
      </trkpt>
      <trkpt lat="38.346316" lon="-1.318963">
        <ele>401.0</ele>
        <time>2017-02-12T08:55:20Z</time>
      </trkpt>
      <trkpt lat="38.346272" lon="-1.319244">
        <ele>400.5</ele>
        <time>2017-02-12T08:55:39Z</time>
      </trkpt>
      <trkpt lat="38.346262" lon="-1.319268">
        <ele>401.0</ele>
        <time>2017-02-12T08:55:47Z</time>
      </trkpt>
      <trkpt lat="38.346202" lon="-1.319346">
        <ele>401.0</ele>
        <time>2017-02-12T08:55:54Z</time>
      </trkpt>
      <trkpt lat="38.346071" lon="-1.319518">
        <ele>401.5</ele>
        <time>2017-02-12T08:56:09Z</time>
      </trkpt>
      <trkpt lat="38.345986" lon="-1.319622">
        <ele>401.5</ele>
        <time>2017-02-12T08:56:18Z</time>
      </trkpt>
      <trkpt lat="38.345970" lon="-1.319642">
        <ele>401.5</ele>
        <time>2017-02-12T08:56:20Z</time>
      </trkpt>
      <trkpt lat="38.345840" lon="-1.319784">
        <ele>402.5</ele>
        <time>2017-02-12T08:56:35Z</time>
      </trkpt>
      <trkpt lat="38.345795" lon="-1.319879">
        <ele>403.4</ele>
        <time>2017-02-12T08:56:46Z</time>
      </trkpt>
      <trkpt lat="38.345718" lon="-1.320058">
        <ele>403.9</ele>
        <time>2017-02-12T08:57:00Z</time>
      </trkpt>
      <trkpt lat="38.345708" lon="-1.320260">
        <ele>405.8</ele>
        <time>2017-02-12T08:57:15Z</time>
      </trkpt>
      <trkpt lat="38.345731" lon="-1.320329">
        <ele>405.3</ele>
        <time>2017-02-12T08:57:22Z</time>
      </trkpt>
      <trkpt lat="38.345789" lon="-1.320478">
        <ele>406.3</ele>
        <time>2017-02-12T08:57:33Z</time>
      </trkpt>
      <trkpt lat="38.345824" lon="-1.320550">
        <ele>407.7</ele>
        <time>2017-02-12T08:57:39Z</time>
      </trkpt>
      <trkpt lat="38.345857" lon="-1.320687">
        <ele>409.2</ele>
        <time>2017-02-12T08:57:51Z</time>
      </trkpt>
      <trkpt lat="38.345888" lon="-1.320786">
        <ele>410.6</ele>
        <time>2017-02-12T08:58:01Z</time>
      </trkpt>
      <trkpt lat="38.345957" lon="-1.320919">
        <ele>411.1</ele>
        <time>2017-02-12T08:58:11Z</time>
      </trkpt>
      <trkpt lat="38.345980" lon="-1.320957">
        <ele>411.6</ele>
        <time>2017-02-12T08:58:14Z</time>
      </trkpt>
      <trkpt lat="38.346057" lon="-1.321017">
        <ele>411.6</ele>
        <time>2017-02-12T08:58:21Z</time>
      </trkpt>
      <trkpt lat="38.346213" lon="-1.321050">
        <ele>413.0</ele>
        <time>2017-02-12T08:58:36Z</time>
      </trkpt>
      <trkpt lat="38.346331" lon="-1.321034">
        <ele>414.5</ele>
        <time>2017-02-12T08:58:48Z</time>
      </trkpt>
      <trkpt lat="38.346454" lon="-1.321000">
        <ele>414.5</ele>
        <time>2017-02-12T08:58:59Z</time>
      </trkpt>
      <trkpt lat="38.346565" lon="-1.320986">
        <ele>414.5</ele>
        <time>2017-02-12T08:59:15Z</time>
      </trkpt>
      <trkpt lat="38.346613" lon="-1.320993">
        <ele>415.0</ele>
        <time>2017-02-12T08:59:27Z</time>
      </trkpt>
      <trkpt lat="38.346768" lon="-1.321048">
        <ele>415.0</ele>
        <time>2017-02-12T08:59:41Z</time>
      </trkpt>
      <trkpt lat="38.346930" lon="-1.321088">
        <ele>415.0</ele>
        <time>2017-02-12T08:59:56Z</time>
      </trkpt>
      <trkpt lat="38.346989" lon="-1.321102">
        <ele>415.4</ele>
        <time>2017-02-12T09:00:01Z</time>
      </trkpt>
      <trkpt lat="38.347038" lon="-1.321129">
        <ele>415.0</ele>
        <time>2017-02-12T09:00:11Z</time>
      </trkpt>
      <trkpt lat="38.347131" lon="-1.321132">
        <ele>415.4</ele>
        <time>2017-02-12T09:00:22Z</time>
      </trkpt>
      <trkpt lat="38.347209" lon="-1.321170">
        <ele>415.9</ele>
        <time>2017-02-12T09:00:29Z</time>
      </trkpt>
      <trkpt lat="38.347443" lon="-1.321278">
        <ele>416.4</ele>
        <time>2017-02-12T09:00:48Z</time>
      </trkpt>
      <trkpt lat="38.347641" lon="-1.321376">
        <ele>415.9</ele>
        <time>2017-02-12T09:01:04Z</time>
      </trkpt>
      <trkpt lat="38.347822" lon="-1.321486">
        <ele>416.9</ele>
        <time>2017-02-12T09:01:20Z</time>
      </trkpt>
      <trkpt lat="38.347964" lon="-1.321532">
        <ele>417.8</ele>
        <time>2017-02-12T09:01:34Z</time>
      </trkpt>
      <trkpt lat="38.348020" lon="-1.321567">
        <ele>417.4</ele>
        <time>2017-02-12T09:01:39Z</time>
      </trkpt>
      <trkpt lat="38.348180" lon="-1.321681">
        <ele>417.8</ele>
        <time>2017-02-12T09:01:55Z</time>
      </trkpt>
      <trkpt lat="38.348295" lon="-1.321809">
        <ele>417.8</ele>
        <time>2017-02-12T09:02:07Z</time>
      </trkpt>
      <trkpt lat="38.348336" lon="-1.321886">
        <ele>417.8</ele>
        <time>2017-02-12T09:02:13Z</time>
      </trkpt>
      <trkpt lat="38.348517" lon="-1.322085">
        <ele>418.8</ele>
        <time>2017-02-12T09:02:32Z</time>
      </trkpt>
      <trkpt lat="38.348663" lon="-1.322305">
        <ele>417.8</ele>
        <time>2017-02-12T09:02:50Z</time>
      </trkpt>
      <trkpt lat="38.348730" lon="-1.322472">
        <ele>418.3</ele>
        <time>2017-02-12T09:03:03Z</time>
      </trkpt>
      <trkpt lat="38.348818" lon="-1.322723">
        <ele>418.8</ele>
        <time>2017-02-12T09:03:20Z</time>
      </trkpt>
      <trkpt lat="38.348873" lon="-1.322989">
        <ele>419.3</ele>
        <time>2017-02-12T09:03:37Z</time>
      </trkpt>
      <trkpt lat="38.348898" lon="-1.323196">
        <ele>419.3</ele>
        <time>2017-02-12T09:03:52Z</time>
      </trkpt>
      <trkpt lat="38.348880" lon="-1.323218">
        <ele>419.3</ele>
        <time>2017-02-12T09:04:02Z</time>
      </trkpt>
      <trkpt lat="38.348816" lon="-1.323530">
        <ele>419.3</ele>
        <time>2017-02-12T09:04:18Z</time>
      </trkpt>
      <trkpt lat="38.348715" lon="-1.323770">
        <ele>419.8</ele>
        <time>2017-02-12T09:04:33Z</time>
      </trkpt>
      <trkpt lat="38.348663" lon="-1.323981">
        <ele>419.8</ele>
        <time>2017-02-12T09:04:46Z</time>
      </trkpt>
      <trkpt lat="38.348632" lon="-1.324232">
        <ele>421.2</ele>
        <time>2017-02-12T09:05:02Z</time>
      </trkpt>
      <trkpt lat="38.348659" lon="-1.324447">
        <ele>421.7</ele>
        <time>2017-02-12T09:05:16Z</time>
      </trkpt>
      <trkpt lat="38.348598" lon="-1.324643">
        <ele>422.2</ele>
        <time>2017-02-12T09:05:30Z</time>
      </trkpt>
      <trkpt lat="38.348487" lon="-1.324888">
        <ele>423.6</ele>
        <time>2017-02-12T09:05:47Z</time>
      </trkpt>
      <trkpt lat="38.348474" lon="-1.324905">
        <ele>424.1</ele>
        <time>2017-02-12T09:05:49Z</time>
      </trkpt>
      <trkpt lat="38.348458" lon="-1.324914">
        <ele>423.6</ele>
        <time>2017-02-12T09:05:51Z</time>
      </trkpt>
      <trkpt lat="38.348361" lon="-1.325056">
        <ele>424.6</ele>
        <time>2017-02-12T09:06:03Z</time>
      </trkpt>
      <trkpt lat="38.348316" lon="-1.325276">
        <ele>425.5</ele>
        <time>2017-02-12T09:06:17Z</time>
      </trkpt>
      <trkpt lat="38.348286" lon="-1.325396">
        <ele>427.0</ele>
        <time>2017-02-12T09:06:28Z</time>
      </trkpt>
      <trkpt lat="38.348304" lon="-1.325607">
        <ele>428.4</ele>
        <time>2017-02-12T09:06:44Z</time>
      </trkpt>
      <trkpt lat="38.348275" lon="-1.325943">
        <ele>429.9</ele>
        <time>2017-02-12T09:07:06Z</time>
      </trkpt>
      <trkpt lat="38.348291" lon="-1.325989">
        <ele>430.3</ele>
        <time>2017-02-12T09:07:09Z</time>
      </trkpt>
      <trkpt lat="38.348414" lon="-1.326130">
        <ele>432.2</ele>
        <time>2017-02-12T09:07:23Z</time>
      </trkpt>
      <trkpt lat="38.348485" lon="-1.326350">
        <ele>434.6</ele>
        <time>2017-02-12T09:07:38Z</time>
      </trkpt>
      <trkpt lat="38.348484" lon="-1.326378">
        <ele>434.6</ele>
        <time>2017-02-12T09:07:40Z</time>
      </trkpt>
      <trkpt lat="38.348400" lon="-1.326475">
        <ele>436.1</ele>
        <time>2017-02-12T09:07:54Z</time>
      </trkpt>
      <trkpt lat="38.348392" lon="-1.326491">
        <ele>436.1</ele>
        <time>2017-02-12T09:07:55Z</time>
      </trkpt>
      <trkpt lat="38.348290" lon="-1.326611">
        <ele>437.5</ele>
        <time>2017-02-12T09:08:09Z</time>
      </trkpt>
      <trkpt lat="38.348092" lon="-1.326752">
        <ele>439.5</ele>
        <time>2017-02-12T09:08:24Z</time>
      </trkpt>
      <trkpt lat="38.347924" lon="-1.326878">
        <ele>441.4</ele>
        <time>2017-02-12T09:08:38Z</time>
      </trkpt>
      <trkpt lat="38.347879" lon="-1.326916">
        <ele>441.4</ele>
        <time>2017-02-12T09:10:29Z</time>
      </trkpt>
      <trkpt lat="38.347709" lon="-1.327049">
        <ele>442.3</ele>
        <time>2017-02-12T09:10:44Z</time>
      </trkpt>
      <trkpt lat="38.347601" lon="-1.327156">
        <ele>442.3</ele>
        <time>2017-02-12T09:11:00Z</time>
      </trkpt>
      <trkpt lat="38.347439" lon="-1.327304">
        <ele>440.9</ele>
        <time>2017-02-12T09:11:14Z</time>
      </trkpt>
      <trkpt lat="38.347268" lon="-1.327524">
        <ele>439.9</ele>
        <time>2017-02-12T09:11:31Z</time>
      </trkpt>
      <trkpt lat="38.347106" lon="-1.327678">
        <ele>439.0</ele>
        <time>2017-02-12T09:11:46Z</time>
      </trkpt>
      <trkpt lat="38.346955" lon="-1.327911">
        <ele>438.5</ele>
        <time>2017-02-12T09:12:05Z</time>
      </trkpt>
      <trkpt lat="38.346904" lon="-1.327993">
        <ele>438.5</ele>
        <time>2017-02-12T09:12:11Z</time>
      </trkpt>
      <trkpt lat="38.346856" lon="-1.328093">
        <ele>439.0</ele>
        <time>2017-02-12T09:12:19Z</time>
      </trkpt>
      <trkpt lat="38.346845" lon="-1.328139">
        <ele>438.5</ele>
        <time>2017-02-12T09:12:22Z</time>
      </trkpt>
      <trkpt lat="38.346826" lon="-1.328218">
        <ele>438.0</ele>
        <time>2017-02-12T09:12:27Z</time>
      </trkpt>
      <trkpt lat="38.346740" lon="-1.328367">
        <ele>437.1</ele>
        <time>2017-02-12T09:12:39Z</time>
      </trkpt>
      <trkpt lat="38.346686" lon="-1.328457">
        <ele>436.6</ele>
        <time>2017-02-12T09:12:48Z</time>
      </trkpt>
      <trkpt lat="38.346669" lon="-1.328499">
        <ele>436.1</ele>
        <time>2017-02-12T09:12:51Z</time>
      </trkpt>
      <trkpt lat="38.346523" lon="-1.328641">
        <ele>435.6</ele>
        <time>2017-02-12T09:13:06Z</time>
      </trkpt>
      <trkpt lat="38.346441" lon="-1.328739">
        <ele>435.6</ele>
        <time>2017-02-12T09:13:16Z</time>
      </trkpt>
      <trkpt lat="38.346335" lon="-1.328835">
        <ele>435.1</ele>
        <time>2017-02-12T09:13:27Z</time>
      </trkpt>
      <trkpt lat="38.346282" lon="-1.328908">
        <ele>434.6</ele>
        <time>2017-02-12T09:13:41Z</time>
      </trkpt>
      <trkpt lat="38.346087" lon="-1.329148">
        <ele>434.2</ele>
        <time>2017-02-12T09:13:59Z</time>
      </trkpt>
      <trkpt lat="38.345962" lon="-1.329394">
        <ele>433.2</ele>
        <time>2017-02-12T09:14:16Z</time>
      </trkpt>
      <trkpt lat="38.345819" lon="-1.329547">
        <ele>432.7</ele>
        <time>2017-02-12T09:14:30Z</time>
      </trkpt>
      <trkpt lat="38.345649" lon="-1.329675">
        <ele>432.2</ele>
        <time>2017-02-12T09:14:44Z</time>
      </trkpt>
      <trkpt lat="38.345450" lon="-1.329816">
        <ele>431.8</ele>
        <time>2017-02-12T09:15:01Z</time>
      </trkpt>
      <trkpt lat="38.345205" lon="-1.329910">
        <ele>430.8</ele>
        <time>2017-02-12T09:15:21Z</time>
      </trkpt>
      <trkpt lat="38.345016" lon="-1.329970">
        <ele>429.9</ele>
        <time>2017-02-12T09:15:36Z</time>
      </trkpt>
      <trkpt lat="38.344936" lon="-1.330034">
        <ele>429.4</ele>
        <time>2017-02-12T09:15:43Z</time>
      </trkpt>
      <trkpt lat="38.344899" lon="-1.330076">
        <ele>429.4</ele>
        <time>2017-02-12T09:15:47Z</time>
      </trkpt>
      <trkpt lat="38.344785" lon="-1.330182">
        <ele>428.4</ele>
        <time>2017-02-12T09:15:59Z</time>
      </trkpt>
      <trkpt lat="38.344646" lon="-1.330347">
        <ele>427.9</ele>
        <time>2017-02-12T09:16:13Z</time>
      </trkpt>
      <trkpt lat="38.344599" lon="-1.330378">
        <ele>427.4</ele>
        <time>2017-02-12T09:16:17Z</time>
      </trkpt>
      <trkpt lat="38.344388" lon="-1.330546">
        <ele>427.4</ele>
        <time>2017-02-12T09:16:36Z</time>
      </trkpt>
      <trkpt lat="38.344248" lon="-1.330671">
        <ele>427.0</ele>
        <time>2017-02-12T09:16:50Z</time>
      </trkpt>
      <trkpt lat="38.344216" lon="-1.330705">
        <ele>427.0</ele>
        <time>2017-02-12T09:17:22Z</time>
      </trkpt>
      <trkpt lat="38.344145" lon="-1.330771">
        <ele>426.5</ele>
        <time>2017-02-12T09:17:29Z</time>
      </trkpt>
      <trkpt lat="38.344097" lon="-1.330854">
        <ele>426.5</ele>
        <time>2017-02-12T09:17:35Z</time>
      </trkpt>
      <trkpt lat="38.343940" lon="-1.331051">
        <ele>426.5</ele>
        <time>2017-02-12T09:17:51Z</time>
      </trkpt>
      <trkpt lat="38.343898" lon="-1.331127">
        <ele>426.5</ele>
        <time>2017-02-12T09:18:03Z</time>
      </trkpt>
      <trkpt lat="38.343881" lon="-1.331140">
        <ele>426.0</ele>
        <time>2017-02-12T09:18:06Z</time>
      </trkpt>
      <trkpt lat="38.343735" lon="-1.331335">
        <ele>425.5</ele>
        <time>2017-02-12T09:18:23Z</time>
      </trkpt>
      <trkpt lat="38.343616" lon="-1.331506">
        <ele>426.0</ele>
        <time>2017-02-12T09:18:37Z</time>
      </trkpt>
      <trkpt lat="38.343484" lon="-1.331793">
        <ele>425.5</ele>
        <time>2017-02-12T09:18:58Z</time>
      </trkpt>
      <trkpt lat="38.343365" lon="-1.332021">
        <ele>426.0</ele>
        <time>2017-02-12T09:19:16Z</time>
      </trkpt>
      <trkpt lat="38.343239" lon="-1.332304">
        <ele>426.0</ele>
        <time>2017-02-12T09:19:36Z</time>
      </trkpt>
      <trkpt lat="38.343115" lon="-1.332597">
        <ele>425.5</ele>
        <time>2017-02-12T09:19:57Z</time>
      </trkpt>
      <trkpt lat="38.342978" lon="-1.332881">
        <ele>426.0</ele>
        <time>2017-02-12T09:20:18Z</time>
      </trkpt>
      <trkpt lat="38.342824" lon="-1.333104">
        <ele>426.5</ele>
        <time>2017-02-12T09:20:37Z</time>
      </trkpt>
      <trkpt lat="38.342794" lon="-1.333173">
        <ele>427.0</ele>
        <time>2017-02-12T09:20:42Z</time>
      </trkpt>
      <trkpt lat="38.342771" lon="-1.333209">
        <ele>427.0</ele>
        <time>2017-02-12T09:20:50Z</time>
      </trkpt>
      <trkpt lat="38.342678" lon="-1.333331">
        <ele>426.5</ele>
        <time>2017-02-12T09:21:05Z</time>
      </trkpt>
      <trkpt lat="38.342583" lon="-1.333492">
        <ele>426.5</ele>
        <time>2017-02-12T09:21:19Z</time>
      </trkpt>
      <trkpt lat="38.342452" lon="-1.333672">
        <ele>426.5</ele>
        <time>2017-02-12T09:21:35Z</time>
      </trkpt>
      <trkpt lat="38.342346" lon="-1.333881">
        <ele>426.0</ele>
        <time>2017-02-12T09:21:50Z</time>
      </trkpt>
      <trkpt lat="38.342275" lon="-1.334004">
        <ele>426.0</ele>
        <time>2017-02-12T09:22:04Z</time>
      </trkpt>
      <trkpt lat="38.342169" lon="-1.334174">
        <ele>425.0</ele>
        <time>2017-02-12T09:22:19Z</time>
      </trkpt>
      <trkpt lat="38.342071" lon="-1.334335">
        <ele>424.6</ele>
        <time>2017-02-12T09:22:34Z</time>
      </trkpt>
      <trkpt lat="38.341970" lon="-1.334491">
        <ele>424.6</ele>
        <time>2017-02-12T09:22:48Z</time>
      </trkpt>
      <trkpt lat="38.341906" lon="-1.334650">
        <ele>424.1</ele>
        <time>2017-02-12T09:22:58Z</time>
      </trkpt>
      <trkpt lat="38.341908" lon="-1.334698">
        <ele>423.1</ele>
        <time>2017-02-12T09:23:01Z</time>
      </trkpt>
      <trkpt lat="38.341868" lon="-1.334772">
        <ele>424.1</ele>
        <time>2017-02-12T09:23:08Z</time>
      </trkpt>
      <trkpt lat="38.341847" lon="-1.334844">
        <ele>423.6</ele>
        <time>2017-02-12T09:23:13Z</time>
      </trkpt>
      <trkpt lat="38.341835" lon="-1.334875">
        <ele>423.6</ele>
        <time>2017-02-12T09:23:25Z</time>
      </trkpt>
      <trkpt lat="38.341837" lon="-1.334872">
        <ele>423.6</ele>
        <time>2017-02-12T09:23:50Z</time>
      </trkpt>
      <trkpt lat="38.341768" lon="-1.335157">
        <ele>423.1</ele>
        <time>2017-02-12T09:24:06Z</time>
      </trkpt>
      <trkpt lat="38.341720" lon="-1.335283">
        <ele>424.1</ele>
        <time>2017-02-12T09:24:15Z</time>
      </trkpt>
      <trkpt lat="38.341648" lon="-1.335478">
        <ele>424.1</ele>
        <time>2017-02-12T09:24:28Z</time>
      </trkpt>
      <trkpt lat="38.341617" lon="-1.335565">
        <ele>424.1</ele>
        <time>2017-02-12T09:24:34Z</time>
      </trkpt>
      <trkpt lat="38.341544" lon="-1.335800">
        <ele>424.1</ele>
        <time>2017-02-12T09:24:50Z</time>
      </trkpt>
      <trkpt lat="38.341470" lon="-1.336000">
        <ele>424.6</ele>
        <time>2017-02-12T09:25:05Z</time>
      </trkpt>
      <trkpt lat="38.341376" lon="-1.336224">
        <ele>425.5</ele>
        <time>2017-02-12T09:25:21Z</time>
      </trkpt>
      <trkpt lat="38.341308" lon="-1.336390">
        <ele>426.0</ele>
        <time>2017-02-12T09:25:33Z</time>
      </trkpt>
      <trkpt lat="38.341237" lon="-1.336546">
        <ele>427.4</ele>
        <time>2017-02-12T09:25:44Z</time>
      </trkpt>
      <trkpt lat="38.341155" lon="-1.336768">
        <ele>428.9</ele>
        <time>2017-02-12T09:26:00Z</time>
      </trkpt>
      <trkpt lat="38.341127" lon="-1.336902">
        <ele>428.9</ele>
        <time>2017-02-12T09:26:08Z</time>
      </trkpt>
      <trkpt lat="38.341098" lon="-1.337012">
        <ele>428.9</ele>
        <time>2017-02-12T09:26:40Z</time>
      </trkpt>
      <trkpt lat="38.341036" lon="-1.337133">
        <ele>429.9</ele>
        <time>2017-02-12T09:27:00Z</time>
      </trkpt>
      <trkpt lat="38.340942" lon="-1.337400">
        <ele>429.4</ele>
        <time>2017-02-12T09:27:18Z</time>
      </trkpt>
      <trkpt lat="38.340877" lon="-1.337615">
        <ele>428.4</ele>
        <time>2017-02-12T09:27:33Z</time>
      </trkpt>
      <trkpt lat="38.340825" lon="-1.337858">
        <ele>426.5</ele>
        <time>2017-02-12T09:27:49Z</time>
      </trkpt>
      <trkpt lat="38.340749" lon="-1.338102">
        <ele>427.9</ele>
        <time>2017-02-12T09:28:04Z</time>
      </trkpt>
      <trkpt lat="38.340704" lon="-1.338238">
        <ele>428.4</ele>
        <time>2017-02-12T09:28:27Z</time>
      </trkpt>
      <trkpt lat="38.340690" lon="-1.338299">
        <ele>427.4</ele>
        <time>2017-02-12T09:28:31Z</time>
      </trkpt>
      <trkpt lat="38.340639" lon="-1.338484">
        <ele>427.4</ele>
        <time>2017-02-12T09:28:46Z</time>
      </trkpt>
      <trkpt lat="38.340644" lon="-1.338611">
        <ele>427.0</ele>
        <time>2017-02-12T09:29:38Z</time>
      </trkpt>
      <trkpt lat="38.340634" lon="-1.338664">
        <ele>427.4</ele>
        <time>2017-02-12T09:29:42Z</time>
      </trkpt>
      <trkpt lat="38.340600" lon="-1.338735">
        <ele>427.4</ele>
        <time>2017-02-12T09:29:48Z</time>
      </trkpt>
      <trkpt lat="38.340461" lon="-1.338896">
        <ele>427.4</ele>
        <time>2017-02-12T09:30:04Z</time>
      </trkpt>
      <trkpt lat="38.340394" lon="-1.339048">
        <ele>427.4</ele>
        <time>2017-02-12T09:30:19Z</time>
      </trkpt>
      <trkpt lat="38.340392" lon="-1.339052">
        <ele>427.0</ele>
        <time>2017-02-12T09:30:46Z</time>
      </trkpt>
      <trkpt lat="38.340325" lon="-1.339186">
        <ele>426.5</ele>
        <time>2017-02-12T09:30:59Z</time>
      </trkpt>
      <trkpt lat="38.340320" lon="-1.339220">
        <ele>427.0</ele>
        <time>2017-02-12T09:31:01Z</time>
      </trkpt>
      <trkpt lat="38.340275" lon="-1.339337">
        <ele>426.0</ele>
        <time>2017-02-12T09:31:14Z</time>
      </trkpt>
      <trkpt lat="38.340233" lon="-1.339452">
        <ele>426.0</ele>
        <time>2017-02-12T09:31:22Z</time>
      </trkpt>
      <trkpt lat="38.340110" lon="-1.339770">
        <ele>425.0</ele>
        <time>2017-02-12T09:31:40Z</time>
      </trkpt>
      <trkpt lat="38.340063" lon="-1.339864">
        <ele>424.6</ele>
        <time>2017-02-12T09:31:55Z</time>
      </trkpt>
      <trkpt lat="38.340064" lon="-1.339864">
        <ele>425.0</ele>
        <time>2017-02-12T09:32:04Z</time>
      </trkpt>
      <trkpt lat="38.340042" lon="-1.339934">
        <ele>424.6</ele>
        <time>2017-02-12T09:32:08Z</time>
      </trkpt>
      <trkpt lat="38.340008" lon="-1.340048">
        <ele>424.6</ele>
        <time>2017-02-12T09:32:14Z</time>
      </trkpt>
      <trkpt lat="38.339996" lon="-1.340073">
        <ele>425.0</ele>
        <time>2017-02-12T09:32:17Z</time>
      </trkpt>
      <trkpt lat="38.339968" lon="-1.340162">
        <ele>425.0</ele>
        <time>2017-02-12T09:32:26Z</time>
      </trkpt>
      <trkpt lat="38.339906" lon="-1.340306">
        <ele>424.6</ele>
        <time>2017-02-12T09:32:38Z</time>
      </trkpt>
      <trkpt lat="38.339858" lon="-1.340420">
        <ele>424.6</ele>
        <time>2017-02-12T09:32:46Z</time>
      </trkpt>
      <trkpt lat="38.339763" lon="-1.340651">
        <ele>425.0</ele>
        <time>2017-02-12T09:33:02Z</time>
      </trkpt>
      <trkpt lat="38.339739" lon="-1.340709">
        <ele>425.5</ele>
        <time>2017-02-12T09:33:06Z</time>
      </trkpt>
      <trkpt lat="38.339717" lon="-1.340775">
        <ele>425.5</ele>
        <time>2017-02-12T09:33:10Z</time>
      </trkpt>
      <trkpt lat="38.339682" lon="-1.340853">
        <ele>426.0</ele>
        <time>2017-02-12T09:33:16Z</time>
      </trkpt>
      <trkpt lat="38.339601" lon="-1.341073">
        <ele>426.5</ele>
        <time>2017-02-12T09:33:31Z</time>
      </trkpt>
      <trkpt lat="38.339548" lon="-1.341191">
        <ele>427.0</ele>
        <time>2017-02-12T09:33:39Z</time>
      </trkpt>
      <trkpt lat="38.339505" lon="-1.341261">
        <ele>427.0</ele>
        <time>2017-02-12T09:33:44Z</time>
      </trkpt>
      <trkpt lat="38.339374" lon="-1.341489">
        <ele>427.0</ele>
        <time>2017-02-12T09:34:00Z</time>
      </trkpt>
      <trkpt lat="38.339325" lon="-1.341581">
        <ele>427.0</ele>
        <time>2017-02-12T09:34:07Z</time>
      </trkpt>
      <trkpt lat="38.339296" lon="-1.341624">
        <ele>427.4</ele>
        <time>2017-02-12T09:34:11Z</time>
      </trkpt>
      <trkpt lat="38.339218" lon="-1.341846">
        <ele>428.4</ele>
        <time>2017-02-12T09:34:26Z</time>
      </trkpt>
      <trkpt lat="38.339188" lon="-1.341915">
        <ele>429.4</ele>
        <time>2017-02-12T09:34:31Z</time>
      </trkpt>
      <trkpt lat="38.339098" lon="-1.342100">
        <ele>430.8</ele>
        <time>2017-02-12T09:34:45Z</time>
      </trkpt>
      <trkpt lat="38.338999" lon="-1.342286">
        <ele>432.2</ele>
        <time>2017-02-12T09:35:00Z</time>
      </trkpt>
      <trkpt lat="38.338938" lon="-1.342391">
        <ele>432.7</ele>
        <time>2017-02-12T09:35:09Z</time>
      </trkpt>
      <trkpt lat="38.338916" lon="-1.342430">
        <ele>432.7</ele>
        <time>2017-02-12T09:35:12Z</time>
      </trkpt>
      <trkpt lat="38.338842" lon="-1.342569">
        <ele>434.6</ele>
        <time>2017-02-12T09:35:23Z</time>
      </trkpt>
      <trkpt lat="38.338812" lon="-1.342617">
        <ele>434.6</ele>
        <time>2017-02-12T09:35:27Z</time>
      </trkpt>
      <trkpt lat="38.338783" lon="-1.342701">
        <ele>435.1</ele>
        <time>2017-02-12T09:35:32Z</time>
      </trkpt>
      <trkpt lat="38.338743" lon="-1.342765">
        <ele>434.6</ele>
        <time>2017-02-12T09:35:37Z</time>
      </trkpt>
      <trkpt lat="38.338651" lon="-1.343010">
        <ele>436.6</ele>
        <time>2017-02-12T09:35:53Z</time>
      </trkpt>
      <trkpt lat="38.338609" lon="-1.343091">
        <ele>437.1</ele>
        <time>2017-02-12T09:35:59Z</time>
      </trkpt>
      <trkpt lat="38.338602" lon="-1.343118">
        <ele>437.1</ele>
        <time>2017-02-12T09:36:01Z</time>
      </trkpt>
      <trkpt lat="38.338572" lon="-1.343173">
        <ele>437.5</ele>
        <time>2017-02-12T09:36:05Z</time>
      </trkpt>
      <trkpt lat="38.338460" lon="-1.343395">
        <ele>439.0</ele>
        <time>2017-02-12T09:36:21Z</time>
      </trkpt>
      <trkpt lat="38.338356" lon="-1.343586">
        <ele>440.9</ele>
        <time>2017-02-12T09:36:35Z</time>
      </trkpt>
      <trkpt lat="38.338263" lon="-1.343755">
        <ele>441.4</ele>
        <time>2017-02-12T09:36:49Z</time>
      </trkpt>
      <trkpt lat="38.338242" lon="-1.343789">
        <ele>441.4</ele>
        <time>2017-02-12T09:36:52Z</time>
      </trkpt>
      <trkpt lat="38.338165" lon="-1.343866">
        <ele>441.9</ele>
        <time>2017-02-12T09:37:00Z</time>
      </trkpt>
      <trkpt lat="38.338116" lon="-1.343914">
        <ele>441.9</ele>
        <time>2017-02-12T09:37:05Z</time>
      </trkpt>
      <trkpt lat="38.338043" lon="-1.343991">
        <ele>442.3</ele>
        <time>2017-02-12T09:37:13Z</time>
      </trkpt>
      <trkpt lat="38.337968" lon="-1.344058">
        <ele>444.3</ele>
        <time>2017-02-12T09:37:21Z</time>
      </trkpt>
      <trkpt lat="38.337928" lon="-1.344097">
        <ele>444.8</ele>
        <time>2017-02-12T09:37:25Z</time>
      </trkpt>
      <trkpt lat="38.337913" lon="-1.344121">
        <ele>444.8</ele>
        <time>2017-02-12T09:37:27Z</time>
      </trkpt>
      <trkpt lat="38.337864" lon="-1.344172">
        <ele>444.8</ele>
        <time>2017-02-12T09:37:32Z</time>
      </trkpt>
      <trkpt lat="38.337736" lon="-1.344338">
        <ele>446.2</ele>
        <time>2017-02-12T09:37:47Z</time>
      </trkpt>
      <trkpt lat="38.337722" lon="-1.344358">
        <ele>446.7</ele>
        <time>2017-02-12T09:37:49Z</time>
      </trkpt>
      <trkpt lat="38.337667" lon="-1.344424">
        <ele>447.1</ele>
        <time>2017-02-12T09:37:55Z</time>
      </trkpt>
      <trkpt lat="38.337549" lon="-1.344634">
        <ele>448.1</ele>
        <time>2017-02-12T09:38:11Z</time>
      </trkpt>
      <trkpt lat="38.337435" lon="-1.344827">
        <ele>447.6</ele>
        <time>2017-02-12T09:38:28Z</time>
      </trkpt>
      <trkpt lat="38.337402" lon="-1.344882">
        <ele>447.1</ele>
        <time>2017-02-12T09:38:34Z</time>
      </trkpt>
      <trkpt lat="38.337373" lon="-1.344931">
        <ele>447.1</ele>
        <time>2017-02-12T09:38:38Z</time>
      </trkpt>
      <trkpt lat="38.337339" lon="-1.344996">
        <ele>447.1</ele>
        <time>2017-02-12T09:38:42Z</time>
      </trkpt>
      <trkpt lat="38.337232" lon="-1.345115">
        <ele>447.1</ele>
        <time>2017-02-12T09:38:53Z</time>
      </trkpt>
      <trkpt lat="38.337100" lon="-1.345167">
        <ele>448.6</ele>
        <time>2017-02-12T09:39:04Z</time>
      </trkpt>
      <trkpt lat="38.337027" lon="-1.345201">
        <ele>448.6</ele>
        <time>2017-02-12T09:39:10Z</time>
      </trkpt>
      <trkpt lat="38.336989" lon="-1.345228">
        <ele>450.0</ele>
        <time>2017-02-12T09:39:14Z</time>
      </trkpt>
      <trkpt lat="38.336973" lon="-1.345276">
        <ele>448.1</ele>
        <time>2017-02-12T09:39:17Z</time>
      </trkpt>
      <trkpt lat="38.336958" lon="-1.345304">
        <ele>442.3</ele>
        <time>2017-02-12T09:39:21Z</time>
      </trkpt>
      <trkpt lat="38.336815" lon="-1.345438">
        <ele>447.6</ele>
        <time>2017-02-12T09:40:15Z</time>
      </trkpt>
      <trkpt lat="38.336714" lon="-1.345622">
        <ele>447.6</ele>
        <time>2017-02-12T09:40:29Z</time>
      </trkpt>
      <trkpt lat="38.336657" lon="-1.345802">
        <ele>448.6</ele>
        <time>2017-02-12T09:40:42Z</time>
      </trkpt>
      <trkpt lat="38.336654" lon="-1.345833">
        <ele>448.6</ele>
        <time>2017-02-12T09:40:44Z</time>
      </trkpt>
      <trkpt lat="38.336610" lon="-1.345936">
        <ele>449.1</ele>
        <time>2017-02-12T09:40:51Z</time>
      </trkpt>
      <trkpt lat="38.336598" lon="-1.345996">
        <ele>449.1</ele>
        <time>2017-02-12T09:40:55Z</time>
      </trkpt>
      <trkpt lat="38.336543" lon="-1.346213">
        <ele>450.0</ele>
        <time>2017-02-12T09:41:11Z</time>
      </trkpt>
      <trkpt lat="38.336457" lon="-1.346357">
        <ele>451.0</ele>
        <time>2017-02-12T09:41:23Z</time>
      </trkpt>
      <trkpt lat="38.336424" lon="-1.346384">
        <ele>451.5</ele>
        <time>2017-02-12T09:41:27Z</time>
      </trkpt>
      <trkpt lat="38.336392" lon="-1.346420">
        <ele>452.0</ele>
        <time>2017-02-12T09:41:31Z</time>
      </trkpt>
      <trkpt lat="38.336291" lon="-1.346488">
        <ele>452.0</ele>
        <time>2017-02-12T09:41:41Z</time>
      </trkpt>
      <trkpt lat="38.336264" lon="-1.346511">
        <ele>452.0</ele>
        <time>2017-02-12T09:41:44Z</time>
      </trkpt>
      <trkpt lat="38.336243" lon="-1.346552">
        <ele>452.4</ele>
        <time>2017-02-12T09:41:47Z</time>
      </trkpt>
      <trkpt lat="38.336210" lon="-1.346659">
        <ele>452.0</ele>
        <time>2017-02-12T09:41:55Z</time>
      </trkpt>
      <trkpt lat="38.336166" lon="-1.346790">
        <ele>454.4</ele>
        <time>2017-02-12T09:42:05Z</time>
      </trkpt>
      <trkpt lat="38.336112" lon="-1.346888">
        <ele>455.8</ele>
        <time>2017-02-12T09:42:14Z</time>
      </trkpt>
      <trkpt lat="38.336003" lon="-1.347047">
        <ele>457.2</ele>
        <time>2017-02-12T09:42:29Z</time>
      </trkpt>
      <trkpt lat="38.335975" lon="-1.347083">
        <ele>457.2</ele>
        <time>2017-02-12T09:42:33Z</time>
      </trkpt>
      <trkpt lat="38.335937" lon="-1.347098">
        <ele>458.2</ele>
        <time>2017-02-12T09:42:38Z</time>
      </trkpt>
      <trkpt lat="38.335919" lon="-1.347118">
        <ele>457.7</ele>
        <time>2017-02-12T09:42:40Z</time>
      </trkpt>
      <trkpt lat="38.335877" lon="-1.347180">
        <ele>458.7</ele>
        <time>2017-02-12T09:42:45Z</time>
      </trkpt>
      <trkpt lat="38.335723" lon="-1.347310">
        <ele>460.6</ele>
        <time>2017-02-12T09:43:01Z</time>
      </trkpt>
      <trkpt lat="38.335650" lon="-1.347389">
        <ele>462.0</ele>
        <time>2017-02-12T09:43:09Z</time>
      </trkpt>
      <trkpt lat="38.335516" lon="-1.347505">
        <ele>462.0</ele>
        <time>2017-02-12T09:43:22Z</time>
      </trkpt>
      <trkpt lat="38.335496" lon="-1.347526">
        <ele>462.5</ele>
        <time>2017-02-12T09:43:24Z</time>
      </trkpt>
      <trkpt lat="38.335462" lon="-1.347583">
        <ele>463.5</ele>
        <time>2017-02-12T09:43:28Z</time>
      </trkpt>
      <trkpt lat="38.335318" lon="-1.347734">
        <ele>462.5</ele>
        <time>2017-02-12T09:43:44Z</time>
      </trkpt>
      <trkpt lat="38.335181" lon="-1.347951">
        <ele>460.6</ele>
        <time>2017-02-12T09:44:00Z</time>
      </trkpt>
      <trkpt lat="38.335063" lon="-1.348095">
        <ele>460.1</ele>
        <time>2017-02-12T09:44:13Z</time>
      </trkpt>
      <trkpt lat="38.334999" lon="-1.348228">
        <ele>459.6</ele>
        <time>2017-02-12T09:44:23Z</time>
      </trkpt>
      <trkpt lat="38.334974" lon="-1.348270">
        <ele>458.7</ele>
        <time>2017-02-12T09:44:27Z</time>
      </trkpt>
      <trkpt lat="38.334866" lon="-1.348397">
        <ele>458.2</ele>
        <time>2017-02-12T09:44:44Z</time>
      </trkpt>
      <trkpt lat="38.334774" lon="-1.348527">
        <ele>457.7</ele>
        <time>2017-02-12T09:44:54Z</time>
      </trkpt>
      <trkpt lat="38.334733" lon="-1.348622">
        <ele>457.2</ele>
        <time>2017-02-12T09:45:01Z</time>
      </trkpt>
      <trkpt lat="38.334665" lon="-1.348730">
        <ele>456.8</ele>
        <time>2017-02-12T09:45:11Z</time>
      </trkpt>
      <trkpt lat="38.334643" lon="-1.348805">
        <ele>456.8</ele>
        <time>2017-02-12T09:45:16Z</time>
      </trkpt>
      <trkpt lat="38.334626" lon="-1.348856">
        <ele>456.8</ele>
        <time>2017-02-12T09:45:20Z</time>
      </trkpt>
      <trkpt lat="38.334499" lon="-1.349072">
        <ele>455.3</ele>
        <time>2017-02-12T09:45:37Z</time>
      </trkpt>
      <trkpt lat="38.334473" lon="-1.349122">
        <ele>455.3</ele>
        <time>2017-02-12T09:45:41Z</time>
      </trkpt>
      <trkpt lat="38.334342" lon="-1.349314">
        <ele>454.4</ele>
        <time>2017-02-12T09:45:58Z</time>
      </trkpt>
      <trkpt lat="38.334309" lon="-1.349355">
        <ele>453.9</ele>
        <time>2017-02-12T09:46:01Z</time>
      </trkpt>
      <trkpt lat="38.334202" lon="-1.349500">
        <ele>453.9</ele>
        <time>2017-02-12T09:46:13Z</time>
      </trkpt>
      <trkpt lat="38.334168" lon="-1.349525">
        <ele>453.4</ele>
        <time>2017-02-12T09:46:16Z</time>
      </trkpt>
      <trkpt lat="38.334067" lon="-1.349686">
        <ele>452.9</ele>
        <time>2017-02-12T09:46:29Z</time>
      </trkpt>
      <trkpt lat="38.333989" lon="-1.349835">
        <ele>452.9</ele>
        <time>2017-02-12T09:46:40Z</time>
      </trkpt>
      <trkpt lat="38.333956" lon="-1.349950">
        <ele>452.9</ele>
        <time>2017-02-12T09:46:47Z</time>
      </trkpt>
      <trkpt lat="38.333952" lon="-1.350001">
        <ele>452.4</ele>
        <time>2017-02-12T09:46:50Z</time>
      </trkpt>
      <trkpt lat="38.333945" lon="-1.350133">
        <ele>452.4</ele>
        <time>2017-02-12T09:46:58Z</time>
      </trkpt>
      <trkpt lat="38.333945" lon="-1.350240">
        <ele>452.9</ele>
        <time>2017-02-12T09:47:04Z</time>
      </trkpt>
      <trkpt lat="38.333926" lon="-1.350288">
        <ele>453.4</ele>
        <time>2017-02-12T09:47:08Z</time>
      </trkpt>
      <trkpt lat="38.333850" lon="-1.350358">
        <ele>452.4</ele>
        <time>2017-02-12T09:47:16Z</time>
      </trkpt>
      <trkpt lat="38.333779" lon="-1.350353">
        <ele>452.4</ele>
        <time>2017-02-12T09:47:21Z</time>
      </trkpt>
      <trkpt lat="38.333750" lon="-1.350359">
        <ele>452.0</ele>
        <time>2017-02-12T09:47:23Z</time>
      </trkpt>
      <trkpt lat="38.333537" lon="-1.350434">
        <ele>451.0</ele>
        <time>2017-02-12T09:47:40Z</time>
      </trkpt>
      <trkpt lat="38.333390" lon="-1.350456">
        <ele>450.5</ele>
        <time>2017-02-12T09:47:52Z</time>
      </trkpt>
      <trkpt lat="38.333318" lon="-1.350475">
        <ele>450.0</ele>
        <time>2017-02-12T09:48:05Z</time>
      </trkpt>
      <trkpt lat="38.333212" lon="-1.350484">
        <ele>450.0</ele>
        <time>2017-02-12T09:50:59Z</time>
      </trkpt>
      <trkpt lat="38.333091" lon="-1.350417">
        <ele>449.1</ele>
        <time>2017-02-12T09:51:14Z</time>
      </trkpt>
      <trkpt lat="38.333069" lon="-1.350370">
        <ele>450.0</ele>
        <time>2017-02-12T09:51:24Z</time>
      </trkpt>
      <trkpt lat="38.332898" lon="-1.350223">
        <ele>449.1</ele>
        <time>2017-02-12T09:51:40Z</time>
      </trkpt>
      <trkpt lat="38.332845" lon="-1.350197">
        <ele>449.1</ele>
        <time>2017-02-12T09:51:53Z</time>
      </trkpt>
      <trkpt lat="38.332811" lon="-1.350202">
        <ele>448.6</ele>
        <time>2017-02-12T09:52:00Z</time>
      </trkpt>
      <trkpt lat="38.332776" lon="-1.350206">
        <ele>448.6</ele>
        <time>2017-02-12T09:52:12Z</time>
      </trkpt>
      <trkpt lat="38.332732" lon="-1.350162">
        <ele>449.1</ele>
        <time>2017-02-12T09:52:19Z</time>
      </trkpt>
      <trkpt lat="38.332579" lon="-1.350032">
        <ele>448.6</ele>
        <time>2017-02-12T09:52:32Z</time>
      </trkpt>
      <trkpt lat="38.332408" lon="-1.349916">
        <ele>448.6</ele>
        <time>2017-02-12T09:52:56Z</time>
      </trkpt>
      <trkpt lat="38.332301" lon="-1.349855">
        <ele>448.6</ele>
        <time>2017-02-12T09:53:04Z</time>
      </trkpt>
      <trkpt lat="38.332289" lon="-1.349847">
        <ele>448.1</ele>
        <time>2017-02-12T09:53:05Z</time>
      </trkpt>
      <trkpt lat="38.332275" lon="-1.349837">
        <ele>448.1</ele>
        <time>2017-02-12T09:53:06Z</time>
      </trkpt>
      <trkpt lat="38.332264" lon="-1.349831">
        <ele>448.1</ele>
        <time>2017-02-12T09:53:07Z</time>
      </trkpt>
      <trkpt lat="38.332249" lon="-1.349820">
        <ele>448.1</ele>
        <time>2017-02-12T09:53:08Z</time>
      </trkpt>
      <trkpt lat="38.332211" lon="-1.349796">
        <ele>448.1</ele>
        <time>2017-02-12T09:53:11Z</time>
      </trkpt>
      <trkpt lat="38.332173" lon="-1.349773">
        <ele>447.6</ele>
        <time>2017-02-12T09:53:15Z</time>
      </trkpt>
      <trkpt lat="38.332160" lon="-1.349765">
        <ele>448.1</ele>
        <time>2017-02-12T09:53:16Z</time>
      </trkpt>
      <trkpt lat="38.332000" lon="-1.349649">
        <ele>448.1</ele>
        <time>2017-02-12T09:53:29Z</time>
      </trkpt>
      <trkpt lat="38.331845" lon="-1.349531">
        <ele>447.1</ele>
        <time>2017-02-12T09:53:42Z</time>
      </trkpt>
      <trkpt lat="38.331675" lon="-1.349403">
        <ele>446.7</ele>
        <time>2017-02-12T09:53:56Z</time>
      </trkpt>
      <trkpt lat="38.331560" lon="-1.349323">
        <ele>446.7</ele>
        <time>2017-02-12T09:54:06Z</time>
      </trkpt>
      <trkpt lat="38.331531" lon="-1.349298">
        <ele>446.7</ele>
        <time>2017-02-12T09:54:09Z</time>
      </trkpt>
      <trkpt lat="38.331519" lon="-1.349292">
        <ele>446.7</ele>
        <time>2017-02-12T09:54:10Z</time>
      </trkpt>
      <trkpt lat="38.331507" lon="-1.349285">
        <ele>446.7</ele>
        <time>2017-02-12T09:54:11Z</time>
      </trkpt>
      <trkpt lat="38.331496" lon="-1.349275">
        <ele>446.7</ele>
        <time>2017-02-12T09:54:12Z</time>
      </trkpt>
      <trkpt lat="38.331484" lon="-1.349267">
        <ele>446.7</ele>
        <time>2017-02-12T09:54:13Z</time>
      </trkpt>
      <trkpt lat="38.331474" lon="-1.349258">
        <ele>446.7</ele>
        <time>2017-02-12T09:54:14Z</time>
      </trkpt>
      <trkpt lat="38.331441" lon="-1.349226">
        <ele>446.7</ele>
        <time>2017-02-12T09:54:18Z</time>
      </trkpt>
      <trkpt lat="38.331430" lon="-1.349218">
        <ele>447.1</ele>
        <time>2017-02-12T09:54:19Z</time>
      </trkpt>
      <trkpt lat="38.331279" lon="-1.349063">
        <ele>447.1</ele>
        <time>2017-02-12T09:54:34Z</time>
      </trkpt>
      <trkpt lat="38.331241" lon="-1.349003">
        <ele>447.6</ele>
        <time>2017-02-12T09:54:39Z</time>
      </trkpt>
      <trkpt lat="38.331231" lon="-1.348989">
        <ele>447.6</ele>
        <time>2017-02-12T09:54:40Z</time>
      </trkpt>
      <trkpt lat="38.331222" lon="-1.348975">
        <ele>447.1</ele>
        <time>2017-02-12T09:54:41Z</time>
      </trkpt>
      <trkpt lat="38.331141" lon="-1.348844">
        <ele>446.7</ele>
        <time>2017-02-12T09:54:51Z</time>
      </trkpt>
      <trkpt lat="38.331109" lon="-1.348781">
        <ele>447.1</ele>
        <time>2017-02-12T09:54:56Z</time>
      </trkpt>
      <trkpt lat="38.331100" lon="-1.348771">
        <ele>447.1</ele>
        <time>2017-02-12T09:54:57Z</time>
      </trkpt>
      <trkpt lat="38.331091" lon="-1.348759">
        <ele>447.1</ele>
        <time>2017-02-12T09:54:58Z</time>
      </trkpt>
      <trkpt lat="38.331083" lon="-1.348742">
        <ele>447.6</ele>
        <time>2017-02-12T09:54:59Z</time>
      </trkpt>
      <trkpt lat="38.331021" lon="-1.348669">
        <ele>448.1</ele>
        <time>2017-02-12T09:55:06Z</time>
      </trkpt>
      <trkpt lat="38.331011" lon="-1.348661">
        <ele>447.6</ele>
        <time>2017-02-12T09:55:07Z</time>
      </trkpt>
      <trkpt lat="38.331004" lon="-1.348649">
        <ele>448.1</ele>
        <time>2017-02-12T09:55:08Z</time>
      </trkpt>
      <trkpt lat="38.330997" lon="-1.348636">
        <ele>448.1</ele>
        <time>2017-02-12T09:55:09Z</time>
      </trkpt>
      <trkpt lat="38.330855" lon="-1.348419">
        <ele>447.6</ele>
        <time>2017-02-12T09:55:26Z</time>
      </trkpt>
      <trkpt lat="38.330726" lon="-1.348239">
        <ele>447.6</ele>
        <time>2017-02-12T09:55:40Z</time>
      </trkpt>
      <trkpt lat="38.330613" lon="-1.348070">
        <ele>448.1</ele>
        <time>2017-02-12T09:55:53Z</time>
      </trkpt>
      <trkpt lat="38.330457" lon="-1.347867">
        <ele>448.1</ele>
        <time>2017-02-12T09:56:11Z</time>
      </trkpt>
      <trkpt lat="38.330327" lon="-1.347673">
        <ele>448.6</ele>
        <time>2017-02-12T09:56:25Z</time>
      </trkpt>
      <trkpt lat="38.330273" lon="-1.347578">
        <ele>448.6</ele>
        <time>2017-02-12T09:56:33Z</time>
      </trkpt>
      <trkpt lat="38.330264" lon="-1.347562">
        <ele>448.6</ele>
        <time>2017-02-12T09:56:34Z</time>
      </trkpt>
      <trkpt lat="38.330251" lon="-1.347554">
        <ele>448.6</ele>
        <time>2017-02-12T09:56:35Z</time>
      </trkpt>
      <trkpt lat="38.330239" lon="-1.347545">
        <ele>449.1</ele>
        <time>2017-02-12T09:56:36Z</time>
      </trkpt>
      <trkpt lat="38.330228" lon="-1.347533">
        <ele>448.6</ele>
        <time>2017-02-12T09:56:37Z</time>
      </trkpt>
      <trkpt lat="38.330217" lon="-1.347519">
        <ele>449.1</ele>
        <time>2017-02-12T09:56:38Z</time>
      </trkpt>
      <trkpt lat="38.330205" lon="-1.347504">
        <ele>449.1</ele>
        <time>2017-02-12T09:56:39Z</time>
      </trkpt>
      <trkpt lat="38.330197" lon="-1.347490">
        <ele>449.1</ele>
        <time>2017-02-12T09:56:40Z</time>
      </trkpt>
      <trkpt lat="38.330170" lon="-1.347445">
        <ele>449.1</ele>
        <time>2017-02-12T09:56:44Z</time>
      </trkpt>
      <trkpt lat="38.330160" lon="-1.347431">
        <ele>448.6</ele>
        <time>2017-02-12T09:56:45Z</time>
      </trkpt>
      <trkpt lat="38.330148" lon="-1.347414">
        <ele>448.6</ele>
        <time>2017-02-12T09:56:46Z</time>
      </trkpt>
      <trkpt lat="38.330039" lon="-1.347263">
        <ele>449.1</ele>
        <time>2017-02-12T09:56:58Z</time>
      </trkpt>
      <trkpt lat="38.329918" lon="-1.347108">
        <ele>449.5</ele>
        <time>2017-02-12T09:57:11Z</time>
      </trkpt>
      <trkpt lat="38.329908" lon="-1.347098">
        <ele>449.5</ele>
        <time>2017-02-12T09:57:12Z</time>
      </trkpt>
      <trkpt lat="38.329822" lon="-1.346944">
        <ele>450.5</ele>
        <time>2017-02-12T09:57:24Z</time>
      </trkpt>
      <trkpt lat="38.329708" lon="-1.346780">
        <ele>451.0</ele>
        <time>2017-02-12T09:57:39Z</time>
      </trkpt>
      <trkpt lat="38.329587" lon="-1.346601">
        <ele>451.5</ele>
        <time>2017-02-12T09:57:53Z</time>
      </trkpt>
      <trkpt lat="38.329464" lon="-1.346408">
        <ele>452.0</ele>
        <time>2017-02-12T09:58:08Z</time>
      </trkpt>
      <trkpt lat="38.329376" lon="-1.346294">
        <ele>451.5</ele>
        <time>2017-02-12T09:58:17Z</time>
      </trkpt>
      <trkpt lat="38.329319" lon="-1.346219">
        <ele>452.0</ele>
        <time>2017-02-12T09:58:24Z</time>
      </trkpt>
      <trkpt lat="38.329294" lon="-1.346172">
        <ele>451.5</ele>
        <time>2017-02-12T09:58:28Z</time>
      </trkpt>
      <trkpt lat="38.329190" lon="-1.346019">
        <ele>452.0</ele>
        <time>2017-02-12T09:58:42Z</time>
      </trkpt>
      <trkpt lat="38.329124" lon="-1.345915">
        <ele>452.0</ele>
        <time>2017-02-12T09:58:51Z</time>
      </trkpt>
      <trkpt lat="38.329033" lon="-1.345773">
        <ele>452.0</ele>
        <time>2017-02-12T09:59:01Z</time>
      </trkpt>
      <trkpt lat="38.328913" lon="-1.345615">
        <ele>452.0</ele>
        <time>2017-02-12T09:59:15Z</time>
      </trkpt>
      <trkpt lat="38.328799" lon="-1.345441">
        <ele>452.4</ele>
        <time>2017-02-12T09:59:29Z</time>
      </trkpt>
      <trkpt lat="38.328662" lon="-1.345271">
        <ele>452.0</ele>
        <time>2017-02-12T09:59:45Z</time>
      </trkpt>
      <trkpt lat="38.328612" lon="-1.345170">
        <ele>452.0</ele>
        <time>2017-02-12T09:59:52Z</time>
      </trkpt>
      <trkpt lat="38.328585" lon="-1.345135">
        <ele>452.4</ele>
        <time>2017-02-12T09:59:55Z</time>
      </trkpt>
      <trkpt lat="38.328567" lon="-1.345108">
        <ele>452.0</ele>
        <time>2017-02-12T09:59:57Z</time>
      </trkpt>
      <trkpt lat="38.328559" lon="-1.345092">
        <ele>452.0</ele>
        <time>2017-02-12T09:59:58Z</time>
      </trkpt>
      <trkpt lat="38.328488" lon="-1.344964">
        <ele>452.0</ele>
        <time>2017-02-12T10:00:07Z</time>
      </trkpt>
      <trkpt lat="38.328370" lon="-1.344803">
        <ele>452.0</ele>
        <time>2017-02-12T10:00:21Z</time>
      </trkpt>
      <trkpt lat="38.328243" lon="-1.344619">
        <ele>451.5</ele>
        <time>2017-02-12T10:00:36Z</time>
      </trkpt>
      <trkpt lat="38.328136" lon="-1.344464">
        <ele>451.5</ele>
        <time>2017-02-12T10:00:47Z</time>
      </trkpt>
      <trkpt lat="38.328020" lon="-1.344303">
        <ele>452.0</ele>
        <time>2017-02-12T10:01:00Z</time>
      </trkpt>
      <trkpt lat="38.327889" lon="-1.344145">
        <ele>452.0</ele>
        <time>2017-02-12T10:01:14Z</time>
      </trkpt>
      <trkpt lat="38.327809" lon="-1.344066">
        <ele>451.5</ele>
        <time>2017-02-12T10:01:23Z</time>
      </trkpt>
      <trkpt lat="38.327797" lon="-1.344071">
        <ele>451.5</ele>
        <time>2017-02-12T10:01:24Z</time>
      </trkpt>
      <trkpt lat="38.327788" lon="-1.344067">
        <ele>451.5</ele>
        <time>2017-02-12T10:01:25Z</time>
      </trkpt>
      <trkpt lat="38.327773" lon="-1.344065">
        <ele>452.0</ele>
        <time>2017-02-12T10:01:26Z</time>
      </trkpt>
      <trkpt lat="38.327761" lon="-1.344060">
        <ele>451.0</ele>
        <time>2017-02-12T10:01:27Z</time>
      </trkpt>
      <trkpt lat="38.327750" lon="-1.344055">
        <ele>451.5</ele>
        <time>2017-02-12T10:01:28Z</time>
      </trkpt>
      <trkpt lat="38.327739" lon="-1.344048">
        <ele>452.0</ele>
        <time>2017-02-12T10:01:29Z</time>
      </trkpt>
      <trkpt lat="38.327680" lon="-1.344029">
        <ele>451.5</ele>
        <time>2017-02-12T10:01:34Z</time>
      </trkpt>
      <trkpt lat="38.327664" lon="-1.344027">
        <ele>451.5</ele>
        <time>2017-02-12T10:01:35Z</time>
      </trkpt>
      <trkpt lat="38.327651" lon="-1.344027">
        <ele>451.0</ele>
        <time>2017-02-12T10:01:36Z</time>
      </trkpt>
      <trkpt lat="38.327639" lon="-1.344024">
        <ele>451.5</ele>
        <time>2017-02-12T10:01:37Z</time>
      </trkpt>
      <trkpt lat="38.327623" lon="-1.344025">
        <ele>451.5</ele>
        <time>2017-02-12T10:01:38Z</time>
      </trkpt>
      <trkpt lat="38.327610" lon="-1.344029">
        <ele>451.5</ele>
        <time>2017-02-12T10:01:39Z</time>
      </trkpt>
      <trkpt lat="38.327596" lon="-1.344029">
        <ele>451.0</ele>
        <time>2017-02-12T10:01:40Z</time>
      </trkpt>
      <trkpt lat="38.327583" lon="-1.344032">
        <ele>451.0</ele>
        <time>2017-02-12T10:01:41Z</time>
      </trkpt>
      <trkpt lat="38.327570" lon="-1.344036">
        <ele>451.0</ele>
        <time>2017-02-12T10:01:42Z</time>
      </trkpt>
      <trkpt lat="38.327557" lon="-1.344040">
        <ele>451.0</ele>
        <time>2017-02-12T10:01:43Z</time>
      </trkpt>
      <trkpt lat="38.327548" lon="-1.344048">
        <ele>451.0</ele>
        <time>2017-02-12T10:01:44Z</time>
      </trkpt>
      <trkpt lat="38.327504" lon="-1.344089">
        <ele>451.0</ele>
        <time>2017-02-12T10:01:48Z</time>
      </trkpt>
      <trkpt lat="38.327501" lon="-1.344112">
        <ele>451.0</ele>
        <time>2017-02-12T10:01:49Z</time>
      </trkpt>
      <trkpt lat="38.327463" lon="-1.344334">
        <ele>451.0</ele>
        <time>2017-02-12T10:02:02Z</time>
      </trkpt>
      <trkpt lat="38.327455" lon="-1.344391">
        <ele>451.0</ele>
        <time>2017-02-12T10:02:05Z</time>
      </trkpt>
      <trkpt lat="38.327447" lon="-1.344407">
        <ele>451.0</ele>
        <time>2017-02-12T10:02:06Z</time>
      </trkpt>
      <trkpt lat="38.327441" lon="-1.344421">
        <ele>451.0</ele>
        <time>2017-02-12T10:02:07Z</time>
      </trkpt>
      <trkpt lat="38.327437" lon="-1.344436">
        <ele>451.0</ele>
        <time>2017-02-12T10:02:08Z</time>
      </trkpt>
      <trkpt lat="38.327436" lon="-1.344451">
        <ele>450.5</ele>
        <time>2017-02-12T10:02:09Z</time>
      </trkpt>
      <trkpt lat="38.327401" lon="-1.344665">
        <ele>450.5</ele>
        <time>2017-02-12T10:02:23Z</time>
      </trkpt>
      <trkpt lat="38.327358" lon="-1.344873">
        <ele>450.5</ele>
        <time>2017-02-12T10:02:38Z</time>
      </trkpt>
      <trkpt lat="38.327307" lon="-1.345125">
        <ele>450.5</ele>
        <time>2017-02-12T10:02:53Z</time>
      </trkpt>
      <trkpt lat="38.327290" lon="-1.345177">
        <ele>450.5</ele>
        <time>2017-02-12T10:02:57Z</time>
      </trkpt>
      <trkpt lat="38.327247" lon="-1.345333">
        <ele>451.0</ele>
        <time>2017-02-12T10:03:10Z</time>
      </trkpt>
      <trkpt lat="38.327229" lon="-1.345575">
        <ele>450.5</ele>
        <time>2017-02-12T10:03:48Z</time>
      </trkpt>
      <trkpt lat="38.327177" lon="-1.345859">
        <ele>450.0</ele>
        <time>2017-02-12T10:04:06Z</time>
      </trkpt>
      <trkpt lat="38.327162" lon="-1.345912">
        <ele>450.0</ele>
        <time>2017-02-12T10:04:09Z</time>
      </trkpt>
      <trkpt lat="38.327087" lon="-1.346179">
        <ele>449.5</ele>
        <time>2017-02-12T10:04:26Z</time>
      </trkpt>
      <trkpt lat="38.327035" lon="-1.346413">
        <ele>449.5</ele>
        <time>2017-02-12T10:04:42Z</time>
      </trkpt>
      <trkpt lat="38.326987" lon="-1.346619">
        <ele>449.1</ele>
        <time>2017-02-12T10:04:55Z</time>
      </trkpt>
      <trkpt lat="38.326930" lon="-1.346831">
        <ele>448.6</ele>
        <time>2017-02-12T10:05:09Z</time>
      </trkpt>
      <trkpt lat="38.326916" lon="-1.346945">
        <ele>448.6</ele>
        <time>2017-02-12T10:05:15Z</time>
      </trkpt>
      <trkpt lat="38.326877" lon="-1.347110">
        <ele>448.1</ele>
        <time>2017-02-12T10:05:30Z</time>
      </trkpt>
      <trkpt lat="38.326879" lon="-1.347114">
        <ele>448.1</ele>
        <time>2017-02-12T10:05:31Z</time>
      </trkpt>
      <trkpt lat="38.326873" lon="-1.347142">
        <ele>448.1</ele>
        <time>2017-02-12T10:05:33Z</time>
      </trkpt>
      <trkpt lat="38.326839" lon="-1.347339">
        <ele>447.1</ele>
        <time>2017-02-12T10:05:46Z</time>
      </trkpt>
      <trkpt lat="38.326818" lon="-1.347396">
        <ele>447.1</ele>
        <time>2017-02-12T10:05:50Z</time>
      </trkpt>
      <trkpt lat="38.326799" lon="-1.347470">
        <ele>446.7</ele>
        <time>2017-02-12T10:05:55Z</time>
      </trkpt>
      <trkpt lat="38.326747" lon="-1.347696">
        <ele>445.7</ele>
        <time>2017-02-12T10:06:09Z</time>
      </trkpt>
      <trkpt lat="38.326740" lon="-1.347725">
        <ele>445.7</ele>
        <time>2017-02-12T10:06:11Z</time>
      </trkpt>
      <trkpt lat="38.326713" lon="-1.347902">
        <ele>445.2</ele>
        <time>2017-02-12T10:06:25Z</time>
      </trkpt>
      <trkpt lat="38.326677" lon="-1.348013">
        <ele>443.8</ele>
        <time>2017-02-12T10:06:32Z</time>
      </trkpt>
      <trkpt lat="38.326668" lon="-1.348102">
        <ele>443.8</ele>
        <time>2017-02-12T10:06:37Z</time>
      </trkpt>
      <trkpt lat="38.326628" lon="-1.348174">
        <ele>443.3</ele>
        <time>2017-02-12T10:06:46Z</time>
      </trkpt>
      <trkpt lat="38.326613" lon="-1.348199">
        <ele>443.8</ele>
        <time>2017-02-12T10:27:14Z</time>
      </trkpt>
      <trkpt lat="38.326599" lon="-1.348242">
        <ele>439.9</ele>
        <time>2017-02-12T10:27:25Z</time>
      </trkpt>
      <trkpt lat="38.326588" lon="-1.348267">
        <ele>443.3</ele>
        <time>2017-02-12T10:28:04Z</time>
      </trkpt>
      <trkpt lat="38.326574" lon="-1.348318">
        <ele>443.8</ele>
        <time>2017-02-12T10:28:09Z</time>
      </trkpt>
      <trkpt lat="38.326540" lon="-1.348433">
        <ele>443.3</ele>
        <time>2017-02-12T10:28:21Z</time>
      </trkpt>
      <trkpt lat="38.326516" lon="-1.348451">
        <ele>443.3</ele>
        <time>2017-02-12T10:28:25Z</time>
      </trkpt>
      <trkpt lat="38.326508" lon="-1.348462">
        <ele>443.3</ele>
        <time>2017-02-12T10:28:26Z</time>
      </trkpt>
      <trkpt lat="38.326499" lon="-1.348473">
        <ele>443.3</ele>
        <time>2017-02-12T10:28:27Z</time>
      </trkpt>
      <trkpt lat="38.326369" lon="-1.348698">
        <ele>442.8</ele>
        <time>2017-02-12T10:28:42Z</time>
      </trkpt>
      <trkpt lat="38.326359" lon="-1.348712">
        <ele>442.8</ele>
        <time>2017-02-12T10:28:43Z</time>
      </trkpt>
      <trkpt lat="38.326192" lon="-1.348952">
        <ele>442.8</ele>
        <time>2017-02-12T10:28:58Z</time>
      </trkpt>
      <trkpt lat="38.326011" lon="-1.349175">
        <ele>441.9</ele>
        <time>2017-02-12T10:29:14Z</time>
      </trkpt>
      <trkpt lat="38.325808" lon="-1.349399">
        <ele>440.9</ele>
        <time>2017-02-12T10:29:31Z</time>
      </trkpt>
      <trkpt lat="38.325622" lon="-1.349712">
        <ele>439.9</ele>
        <time>2017-02-12T10:29:52Z</time>
      </trkpt>
      <trkpt lat="38.325610" lon="-1.349724">
        <ele>439.9</ele>
        <time>2017-02-12T10:29:53Z</time>
      </trkpt>
      <trkpt lat="38.325453" lon="-1.349876">
        <ele>439.5</ele>
        <time>2017-02-12T10:30:05Z</time>
      </trkpt>
      <trkpt lat="38.325451" lon="-1.349908">
        <ele>440.4</ele>
        <time>2017-02-12T10:30:08Z</time>
      </trkpt>
      <trkpt lat="38.325446" lon="-1.349920">
        <ele>439.9</ele>
        <time>2017-02-12T10:30:09Z</time>
      </trkpt>
      <trkpt lat="38.325439" lon="-1.349932">
        <ele>439.9</ele>
        <time>2017-02-12T10:30:10Z</time>
      </trkpt>
      <trkpt lat="38.325433" lon="-1.349945">
        <ele>439.9</ele>
        <time>2017-02-12T10:30:11Z</time>
      </trkpt>
      <trkpt lat="38.325423" lon="-1.349957">
        <ele>439.5</ele>
        <time>2017-02-12T10:30:12Z</time>
      </trkpt>
      <trkpt lat="38.325415" lon="-1.349970">
        <ele>440.4</ele>
        <time>2017-02-12T10:30:13Z</time>
      </trkpt>
      <trkpt lat="38.325405" lon="-1.349984">
        <ele>439.9</ele>
        <time>2017-02-12T10:30:14Z</time>
      </trkpt>
      <trkpt lat="38.325392" lon="-1.349995">
        <ele>439.9</ele>
        <time>2017-02-12T10:30:15Z</time>
      </trkpt>
      <trkpt lat="38.325379" lon="-1.350005">
        <ele>440.4</ele>
        <time>2017-02-12T10:30:16Z</time>
      </trkpt>
      <trkpt lat="38.325365" lon="-1.350010">
        <ele>439.9</ele>
        <time>2017-02-12T10:30:17Z</time>
      </trkpt>
      <trkpt lat="38.325355" lon="-1.350025">
        <ele>439.9</ele>
        <time>2017-02-12T10:30:18Z</time>
      </trkpt>
      <trkpt lat="38.325334" lon="-1.350080">
        <ele>439.5</ele>
        <time>2017-02-12T10:30:22Z</time>
      </trkpt>
      <trkpt lat="38.325319" lon="-1.350084">
        <ele>439.5</ele>
        <time>2017-02-12T10:30:23Z</time>
      </trkpt>
      <trkpt lat="38.325302" lon="-1.350097">
        <ele>439.9</ele>
        <time>2017-02-12T10:30:24Z</time>
      </trkpt>
      <trkpt lat="38.325201" lon="-1.350277">
        <ele>439.5</ele>
        <time>2017-02-12T10:30:38Z</time>
      </trkpt>
      <trkpt lat="38.325183" lon="-1.350294">
        <ele>439.5</ele>
        <time>2017-02-12T10:30:40Z</time>
      </trkpt>
      <trkpt lat="38.325172" lon="-1.350309">
        <ele>439.5</ele>
        <time>2017-02-12T10:30:41Z</time>
      </trkpt>
      <trkpt lat="38.325162" lon="-1.350321">
        <ele>439.5</ele>
        <time>2017-02-12T10:30:42Z</time>
      </trkpt>
      <trkpt lat="38.325152" lon="-1.350330">
        <ele>439.5</ele>
        <time>2017-02-12T10:30:43Z</time>
      </trkpt>
      <trkpt lat="38.325142" lon="-1.350341">
        <ele>439.5</ele>
        <time>2017-02-12T10:30:44Z</time>
      </trkpt>
      <trkpt lat="38.325135" lon="-1.350352">
        <ele>439.5</ele>
        <time>2017-02-12T10:30:45Z</time>
      </trkpt>
      <trkpt lat="38.325071" lon="-1.350418">
        <ele>439.5</ele>
        <time>2017-02-12T10:30:51Z</time>
      </trkpt>
      <trkpt lat="38.325063" lon="-1.350428">
        <ele>439.0</ele>
        <time>2017-02-12T10:30:52Z</time>
      </trkpt>
      <trkpt lat="38.324922" lon="-1.350579">
        <ele>439.0</ele>
        <time>2017-02-12T10:31:04Z</time>
      </trkpt>
      <trkpt lat="38.324894" lon="-1.350682">
        <ele>439.0</ele>
        <time>2017-02-12T10:31:11Z</time>
      </trkpt>
      <trkpt lat="38.324884" lon="-1.350690">
        <ele>438.5</ele>
        <time>2017-02-12T10:31:12Z</time>
      </trkpt>
      <trkpt lat="38.324871" lon="-1.350699">
        <ele>438.5</ele>
        <time>2017-02-12T10:31:13Z</time>
      </trkpt>
      <trkpt lat="38.324721" lon="-1.350871">
        <ele>438.0</ele>
        <time>2017-02-12T10:31:30Z</time>
      </trkpt>
      <trkpt lat="38.324557" lon="-1.351070">
        <ele>437.5</ele>
        <time>2017-02-12T10:31:47Z</time>
      </trkpt>
      <trkpt lat="38.324534" lon="-1.351116">
        <ele>437.1</ele>
        <time>2017-02-12T10:31:50Z</time>
      </trkpt>
      <trkpt lat="38.324402" lon="-1.351273">
        <ele>437.1</ele>
        <time>2017-02-12T10:32:16Z</time>
      </trkpt>
      <trkpt lat="38.324398" lon="-1.351288">
        <ele>437.1</ele>
        <time>2017-02-12T10:32:17Z</time>
      </trkpt>
      <trkpt lat="38.324389" lon="-1.351300">
        <ele>437.1</ele>
        <time>2017-02-12T10:32:18Z</time>
      </trkpt>
      <trkpt lat="38.324286" lon="-1.351392">
        <ele>437.1</ele>
        <time>2017-02-12T10:32:30Z</time>
      </trkpt>
      <trkpt lat="38.324280" lon="-1.351412">
        <ele>437.1</ele>
        <time>2017-02-12T10:32:31Z</time>
      </trkpt>
      <trkpt lat="38.324273" lon="-1.351434">
        <ele>436.6</ele>
        <time>2017-02-12T10:32:32Z</time>
      </trkpt>
      <trkpt lat="38.324263" lon="-1.351452">
        <ele>436.6</ele>
        <time>2017-02-12T10:32:33Z</time>
      </trkpt>
      <trkpt lat="38.324249" lon="-1.351468">
        <ele>437.1</ele>
        <time>2017-02-12T10:32:34Z</time>
      </trkpt>
      <trkpt lat="38.324231" lon="-1.351480">
        <ele>436.6</ele>
        <time>2017-02-12T10:32:35Z</time>
      </trkpt>
      <trkpt lat="38.324044" lon="-1.351739">
        <ele>436.6</ele>
        <time>2017-02-12T10:33:17Z</time>
      </trkpt>
      <trkpt lat="38.324033" lon="-1.351750">
        <ele>436.6</ele>
        <time>2017-02-12T10:33:18Z</time>
      </trkpt>
      <trkpt lat="38.323894" lon="-1.351935">
        <ele>436.1</ele>
        <time>2017-02-12T10:33:32Z</time>
      </trkpt>
      <trkpt lat="38.323869" lon="-1.351949">
        <ele>436.1</ele>
        <time>2017-02-12T10:33:35Z</time>
      </trkpt>
      <trkpt lat="38.323852" lon="-1.351957">
        <ele>435.6</ele>
        <time>2017-02-12T10:33:36Z</time>
      </trkpt>
      <trkpt lat="38.323840" lon="-1.351971">
        <ele>435.6</ele>
        <time>2017-02-12T10:33:37Z</time>
      </trkpt>
      <trkpt lat="38.323751" lon="-1.352130">
        <ele>435.1</ele>
        <time>2017-02-12T10:33:49Z</time>
      </trkpt>
      <trkpt lat="38.323742" lon="-1.352137">
        <ele>434.6</ele>
        <time>2017-02-12T10:33:50Z</time>
      </trkpt>
      <trkpt lat="38.323732" lon="-1.352145">
        <ele>434.6</ele>
        <time>2017-02-12T10:33:51Z</time>
      </trkpt>
      <trkpt lat="38.323721" lon="-1.352155">
        <ele>435.1</ele>
        <time>2017-02-12T10:33:52Z</time>
      </trkpt>
      <trkpt lat="38.323711" lon="-1.352168">
        <ele>434.6</ele>
        <time>2017-02-12T10:33:53Z</time>
      </trkpt>
      <trkpt lat="38.323702" lon="-1.352184">
        <ele>434.6</ele>
        <time>2017-02-12T10:33:54Z</time>
      </trkpt>
      <trkpt lat="38.323644" lon="-1.352276">
        <ele>434.2</ele>
        <time>2017-02-12T10:34:02Z</time>
      </trkpt>
      <trkpt lat="38.323632" lon="-1.352290">
        <ele>433.7</ele>
        <time>2017-02-12T10:34:04Z</time>
      </trkpt>
      <trkpt lat="38.323622" lon="-1.352301">
        <ele>433.2</ele>
        <time>2017-02-12T10:34:05Z</time>
      </trkpt>
      <trkpt lat="38.323615" lon="-1.352316">
        <ele>433.7</ele>
        <time>2017-02-12T10:34:06Z</time>
      </trkpt>
      <trkpt lat="38.323607" lon="-1.352333">
        <ele>433.7</ele>
        <time>2017-02-12T10:34:07Z</time>
      </trkpt>
      <trkpt lat="38.323597" lon="-1.352345">
        <ele>433.2</ele>
        <time>2017-02-12T10:34:08Z</time>
      </trkpt>
      <trkpt lat="38.323583" lon="-1.352357">
        <ele>433.7</ele>
        <time>2017-02-12T10:34:09Z</time>
      </trkpt>
      <trkpt lat="38.323541" lon="-1.352393">
        <ele>432.7</ele>
        <time>2017-02-12T10:34:14Z</time>
      </trkpt>
      <trkpt lat="38.323530" lon="-1.352403">
        <ele>432.7</ele>
        <time>2017-02-12T10:34:15Z</time>
      </trkpt>
      <trkpt lat="38.323514" lon="-1.352416">
        <ele>432.7</ele>
        <time>2017-02-12T10:34:16Z</time>
      </trkpt>
      <trkpt lat="38.323499" lon="-1.352427">
        <ele>432.7</ele>
        <time>2017-02-12T10:34:17Z</time>
      </trkpt>
      <trkpt lat="38.323489" lon="-1.352437">
        <ele>432.2</ele>
        <time>2017-02-12T10:34:18Z</time>
      </trkpt>
      <trkpt lat="38.323385" lon="-1.352595">
        <ele>432.7</ele>
        <time>2017-02-12T10:34:32Z</time>
      </trkpt>
      <trkpt lat="38.323326" lon="-1.352670">
        <ele>432.2</ele>
        <time>2017-02-12T10:34:38Z</time>
      </trkpt>
      <trkpt lat="38.323255" lon="-1.352754">
        <ele>431.3</ele>
        <time>2017-02-12T10:34:46Z</time>
      </trkpt>
      <trkpt lat="38.323246" lon="-1.352768">
        <ele>431.8</ele>
        <time>2017-02-12T10:34:47Z</time>
      </trkpt>
      <trkpt lat="38.323235" lon="-1.352778">
        <ele>431.8</ele>
        <time>2017-02-12T10:34:48Z</time>
      </trkpt>
      <trkpt lat="38.323224" lon="-1.352790">
        <ele>431.8</ele>
        <time>2017-02-12T10:34:49Z</time>
      </trkpt>
      <trkpt lat="38.323214" lon="-1.352803">
        <ele>431.3</ele>
        <time>2017-02-12T10:34:50Z</time>
      </trkpt>
      <trkpt lat="38.323097" lon="-1.352950">
        <ele>430.8</ele>
        <time>2017-02-12T10:35:03Z</time>
      </trkpt>
      <trkpt lat="38.322993" lon="-1.353099">
        <ele>430.3</ele>
        <time>2017-02-12T10:35:16Z</time>
      </trkpt>
      <trkpt lat="38.322879" lon="-1.353251">
        <ele>429.9</ele>
        <time>2017-02-12T10:35:34Z</time>
      </trkpt>
      <trkpt lat="38.322866" lon="-1.353258">
        <ele>429.9</ele>
        <time>2017-02-12T10:35:35Z</time>
      </trkpt>
      <trkpt lat="38.322767" lon="-1.353355">
        <ele>429.4</ele>
        <time>2017-02-12T10:35:46Z</time>
      </trkpt>
      <trkpt lat="38.322646" lon="-1.353496">
        <ele>428.4</ele>
        <time>2017-02-12T10:35:59Z</time>
      </trkpt>
      <trkpt lat="38.322523" lon="-1.353662">
        <ele>428.4</ele>
        <time>2017-02-12T10:36:14Z</time>
      </trkpt>
      <trkpt lat="38.322369" lon="-1.353837">
        <ele>428.4</ele>
        <time>2017-02-12T10:36:31Z</time>
      </trkpt>
      <trkpt lat="38.322235" lon="-1.354019">
        <ele>428.4</ele>
        <time>2017-02-12T10:36:48Z</time>
      </trkpt>
      <trkpt lat="38.322057" lon="-1.354226">
        <ele>428.4</ele>
        <time>2017-02-12T10:37:07Z</time>
      </trkpt>
      <trkpt lat="38.322023" lon="-1.354341">
        <ele>428.4</ele>
        <time>2017-02-12T10:37:16Z</time>
      </trkpt>
      <trkpt lat="38.322013" lon="-1.354346">
        <ele>428.4</ele>
        <time>2017-02-12T10:37:17Z</time>
      </trkpt>
      <trkpt lat="38.321978" lon="-1.354407">
        <ele>428.4</ele>
        <time>2017-02-12T10:37:25Z</time>
      </trkpt>
      <trkpt lat="38.321968" lon="-1.354414">
        <ele>427.9</ele>
        <time>2017-02-12T10:37:26Z</time>
      </trkpt>
      <trkpt lat="38.321961" lon="-1.354416">
        <ele>428.4</ele>
        <time>2017-02-12T10:37:27Z</time>
      </trkpt>
      <trkpt lat="38.321951" lon="-1.354425">
        <ele>427.9</ele>
        <time>2017-02-12T10:37:28Z</time>
      </trkpt>
      <trkpt lat="38.321942" lon="-1.354432">
        <ele>428.4</ele>
        <time>2017-02-12T10:37:29Z</time>
      </trkpt>
      <trkpt lat="38.321932" lon="-1.354443">
        <ele>428.9</ele>
        <time>2017-02-12T10:37:30Z</time>
      </trkpt>
      <trkpt lat="38.321912" lon="-1.354463">
        <ele>428.4</ele>
        <time>2017-02-12T10:37:32Z</time>
      </trkpt>
      <trkpt lat="38.321870" lon="-1.354518">
        <ele>428.4</ele>
        <time>2017-02-12T10:37:38Z</time>
      </trkpt>
      <trkpt lat="38.321830" lon="-1.354561">
        <ele>427.9</ele>
        <time>2017-02-12T10:37:42Z</time>
      </trkpt>
      <trkpt lat="38.321817" lon="-1.354567">
        <ele>427.9</ele>
        <time>2017-02-12T10:37:43Z</time>
      </trkpt>
      <trkpt lat="38.321809" lon="-1.354578">
        <ele>427.9</ele>
        <time>2017-02-12T10:37:44Z</time>
      </trkpt>
      <trkpt lat="38.321805" lon="-1.354598">
        <ele>428.4</ele>
        <time>2017-02-12T10:37:45Z</time>
      </trkpt>
      <trkpt lat="38.321736" lon="-1.354747">
        <ele>427.9</ele>
        <time>2017-02-12T10:37:58Z</time>
      </trkpt>
      <trkpt lat="38.321670" lon="-1.354881">
        <ele>428.9</ele>
        <time>2017-02-12T10:38:09Z</time>
      </trkpt>
      <trkpt lat="38.321666" lon="-1.354899">
        <ele>428.4</ele>
        <time>2017-02-12T10:38:10Z</time>
      </trkpt>
      <trkpt lat="38.321660" lon="-1.354916">
        <ele>428.9</ele>
        <time>2017-02-12T10:38:11Z</time>
      </trkpt>
      <trkpt lat="38.321653" lon="-1.354934">
        <ele>428.9</ele>
        <time>2017-02-12T10:38:12Z</time>
      </trkpt>
      <trkpt lat="38.321649" lon="-1.354952">
        <ele>428.4</ele>
        <time>2017-02-12T10:38:13Z</time>
      </trkpt>
      <trkpt lat="38.321631" lon="-1.354995">
        <ele>429.9</ele>
        <time>2017-02-12T10:38:16Z</time>
      </trkpt>
      <trkpt lat="38.321627" lon="-1.355012">
        <ele>429.4</ele>
        <time>2017-02-12T10:38:17Z</time>
      </trkpt>
      <trkpt lat="38.321625" lon="-1.355028">
        <ele>429.4</ele>
        <time>2017-02-12T10:38:18Z</time>
      </trkpt>
      <trkpt lat="38.321609" lon="-1.355055">
        <ele>429.4</ele>
        <time>2017-02-12T10:38:25Z</time>
      </trkpt>
      <trkpt lat="38.321603" lon="-1.355067">
        <ele>429.4</ele>
        <time>2017-02-12T10:38:26Z</time>
      </trkpt>
      <trkpt lat="38.321583" lon="-1.355150">
        <ele>429.4</ele>
        <time>2017-02-12T10:38:38Z</time>
      </trkpt>
      <trkpt lat="38.321590" lon="-1.355158">
        <ele>429.4</ele>
        <time>2017-02-12T10:38:49Z</time>
      </trkpt>
      <trkpt lat="38.321587" lon="-1.355168">
        <ele>428.4</ele>
        <time>2017-02-12T10:38:50Z</time>
      </trkpt>
      <trkpt lat="38.321576" lon="-1.355173">
        <ele>428.9</ele>
        <time>2017-02-12T10:38:51Z</time>
      </trkpt>
      <trkpt lat="38.321536" lon="-1.355278">
        <ele>428.9</ele>
        <time>2017-02-12T10:39:03Z</time>
      </trkpt>
      <trkpt lat="38.321454" lon="-1.355478">
        <ele>428.4</ele>
        <time>2017-02-12T10:39:17Z</time>
      </trkpt>
      <trkpt lat="38.321394" lon="-1.355618">
        <ele>427.9</ele>
        <time>2017-02-12T10:39:30Z</time>
      </trkpt>
      <trkpt lat="38.321236" lon="-1.356117">
        <ele>427.4</ele>
        <time>2017-02-12T10:40:24Z</time>
      </trkpt>
      <trkpt lat="38.321216" lon="-1.356158">
        <ele>427.4</ele>
        <time>2017-02-12T10:40:30Z</time>
      </trkpt>
      <trkpt lat="38.321207" lon="-1.356171">
        <ele>427.4</ele>
        <time>2017-02-12T10:40:31Z</time>
      </trkpt>
      <trkpt lat="38.321198" lon="-1.356180">
        <ele>427.4</ele>
        <time>2017-02-12T10:40:32Z</time>
      </trkpt>
      <trkpt lat="38.321189" lon="-1.356188">
        <ele>427.4</ele>
        <time>2017-02-12T10:40:33Z</time>
      </trkpt>
      <trkpt lat="38.321184" lon="-1.356202">
        <ele>427.4</ele>
        <time>2017-02-12T10:40:34Z</time>
      </trkpt>
      <trkpt lat="38.321180" lon="-1.356215">
        <ele>427.0</ele>
        <time>2017-02-12T10:40:35Z</time>
      </trkpt>
      <trkpt lat="38.321173" lon="-1.356229">
        <ele>427.4</ele>
        <time>2017-02-12T10:40:36Z</time>
      </trkpt>
      <trkpt lat="38.321169" lon="-1.356242">
        <ele>427.0</ele>
        <time>2017-02-12T10:40:37Z</time>
      </trkpt>
      <trkpt lat="38.321164" lon="-1.356260">
        <ele>427.0</ele>
        <time>2017-02-12T10:40:38Z</time>
      </trkpt>
      <trkpt lat="38.321160" lon="-1.356279">
        <ele>427.0</ele>
        <time>2017-02-12T10:40:39Z</time>
      </trkpt>
      <trkpt lat="38.321075" lon="-1.356503">
        <ele>426.0</ele>
        <time>2017-02-12T10:40:53Z</time>
      </trkpt>
      <trkpt lat="38.321029" lon="-1.356661">
        <ele>425.0</ele>
        <time>2017-02-12T10:41:05Z</time>
      </trkpt>
      <trkpt lat="38.320917" lon="-1.356950">
        <ele>425.0</ele>
        <time>2017-02-12T10:41:22Z</time>
      </trkpt>
      <trkpt lat="38.320910" lon="-1.356992">
        <ele>424.6</ele>
        <time>2017-02-12T10:41:25Z</time>
      </trkpt>
      <trkpt lat="38.320902" lon="-1.357005">
        <ele>424.6</ele>
        <time>2017-02-12T10:41:26Z</time>
      </trkpt>
      <trkpt lat="38.320892" lon="-1.357021">
        <ele>425.0</ele>
        <time>2017-02-12T10:41:27Z</time>
      </trkpt>
      <trkpt lat="38.320884" lon="-1.357040">
        <ele>424.6</ele>
        <time>2017-02-12T10:41:28Z</time>
      </trkpt>
      <trkpt lat="38.320878" lon="-1.357056">
        <ele>425.0</ele>
        <time>2017-02-12T10:41:29Z</time>
      </trkpt>
      <trkpt lat="38.320802" lon="-1.357290">
        <ele>425.0</ele>
        <time>2017-02-12T10:41:43Z</time>
      </trkpt>
      <trkpt lat="38.320798" lon="-1.357303">
        <ele>425.0</ele>
        <time>2017-02-12T10:41:44Z</time>
      </trkpt>
      <trkpt lat="38.320699" lon="-1.357534">
        <ele>425.0</ele>
        <time>2017-02-12T10:42:00Z</time>
      </trkpt>
      <trkpt lat="38.320610" lon="-1.357734">
        <ele>424.6</ele>
        <time>2017-02-12T10:42:16Z</time>
      </trkpt>
      <trkpt lat="38.320528" lon="-1.357980">
        <ele>423.6</ele>
        <time>2017-02-12T10:42:32Z</time>
      </trkpt>
      <trkpt lat="38.320453" lon="-1.358195">
        <ele>422.2</ele>
        <time>2017-02-12T10:42:48Z</time>
      </trkpt>
      <trkpt lat="38.320423" lon="-1.358262">
        <ele>422.2</ele>
        <time>2017-02-12T10:43:02Z</time>
      </trkpt>
      <trkpt lat="38.320301" lon="-1.358454">
        <ele>420.2</ele>
        <time>2017-02-12T10:43:16Z</time>
      </trkpt>
      <trkpt lat="38.320280" lon="-1.358521">
        <ele>420.2</ele>
        <time>2017-02-12T10:43:20Z</time>
      </trkpt>
      <trkpt lat="38.320270" lon="-1.358532">
        <ele>420.2</ele>
        <time>2017-02-12T10:43:21Z</time>
      </trkpt>
      <trkpt lat="38.320262" lon="-1.358546">
        <ele>420.2</ele>
        <time>2017-02-12T10:43:22Z</time>
      </trkpt>
      <trkpt lat="38.320254" lon="-1.358565">
        <ele>420.2</ele>
        <time>2017-02-12T10:43:23Z</time>
      </trkpt>
      <trkpt lat="38.320247" lon="-1.358588">
        <ele>420.2</ele>
        <time>2017-02-12T10:43:24Z</time>
      </trkpt>
      <trkpt lat="38.320238" lon="-1.358604">
        <ele>420.7</ele>
        <time>2017-02-12T10:43:25Z</time>
      </trkpt>
      <trkpt lat="38.320230" lon="-1.358620">
        <ele>419.8</ele>
        <time>2017-02-12T10:43:26Z</time>
      </trkpt>
      <trkpt lat="38.320220" lon="-1.358636">
        <ele>419.8</ele>
        <time>2017-02-12T10:43:27Z</time>
      </trkpt>
      <trkpt lat="38.320079" lon="-1.358835">
        <ele>418.8</ele>
        <time>2017-02-12T10:43:42Z</time>
      </trkpt>
      <trkpt lat="38.319927" lon="-1.359044">
        <ele>417.4</ele>
        <time>2017-02-12T10:43:58Z</time>
      </trkpt>
      <trkpt lat="38.319920" lon="-1.359050">
        <ele>417.4</ele>
        <time>2017-02-12T10:43:59Z</time>
      </trkpt>
      <trkpt lat="38.319912" lon="-1.359057">
        <ele>417.4</ele>
        <time>2017-02-12T10:44:00Z</time>
      </trkpt>
      <trkpt lat="38.319756" lon="-1.359207">
        <ele>416.4</ele>
        <time>2017-02-12T10:44:14Z</time>
      </trkpt>
      <trkpt lat="38.319746" lon="-1.359218">
        <ele>416.4</ele>
        <time>2017-02-12T10:44:15Z</time>
      </trkpt>
      <trkpt lat="38.319738" lon="-1.359232">
        <ele>416.9</ele>
        <time>2017-02-12T10:44:16Z</time>
      </trkpt>
      <trkpt lat="38.319729" lon="-1.359245">
        <ele>416.9</ele>
        <time>2017-02-12T10:44:17Z</time>
      </trkpt>
      <trkpt lat="38.319648" lon="-1.359324">
        <ele>416.4</ele>
        <time>2017-02-12T10:44:24Z</time>
      </trkpt>
      <trkpt lat="38.319465" lon="-1.359454">
        <ele>415.9</ele>
        <time>2017-02-12T10:44:38Z</time>
      </trkpt>
      <trkpt lat="38.319304" lon="-1.359567">
        <ele>415.4</ele>
        <time>2017-02-12T10:44:52Z</time>
      </trkpt>
      <trkpt lat="38.319115" lon="-1.359740">
        <ele>413.5</ele>
        <time>2017-02-12T10:45:09Z</time>
      </trkpt>
      <trkpt lat="38.318912" lon="-1.359896">
        <ele>414.0</ele>
        <time>2017-02-12T10:45:25Z</time>
      </trkpt>
      <trkpt lat="38.318718" lon="-1.360055">
        <ele>412.5</ele>
        <time>2017-02-12T10:45:42Z</time>
      </trkpt>
      <trkpt lat="38.318658" lon="-1.360096">
        <ele>412.5</ele>
        <time>2017-02-12T10:45:47Z</time>
      </trkpt>
      <trkpt lat="38.318648" lon="-1.360104">
        <ele>412.5</ele>
        <time>2017-02-12T10:45:48Z</time>
      </trkpt>
      <trkpt lat="38.318531" lon="-1.360236">
        <ele>412.1</ele>
        <time>2017-02-12T10:46:02Z</time>
      </trkpt>
      <trkpt lat="38.318390" lon="-1.360321">
        <ele>411.6</ele>
        <time>2017-02-12T10:46:16Z</time>
      </trkpt>
      <trkpt lat="38.318221" lon="-1.360455">
        <ele>411.1</ele>
        <time>2017-02-12T10:46:30Z</time>
      </trkpt>
      <trkpt lat="38.318209" lon="-1.360458">
        <ele>411.1</ele>
        <time>2017-02-12T10:46:31Z</time>
      </trkpt>
      <trkpt lat="38.318196" lon="-1.360462">
        <ele>411.1</ele>
        <time>2017-02-12T10:46:32Z</time>
      </trkpt>
      <trkpt lat="38.318185" lon="-1.360467">
        <ele>411.1</ele>
        <time>2017-02-12T10:46:33Z</time>
      </trkpt>
      <trkpt lat="38.318173" lon="-1.360471">
        <ele>411.6</ele>
        <time>2017-02-12T10:46:34Z</time>
      </trkpt>
      <trkpt lat="38.318160" lon="-1.360479">
        <ele>411.1</ele>
        <time>2017-02-12T10:46:35Z</time>
      </trkpt>
      <trkpt lat="38.318151" lon="-1.360491">
        <ele>410.6</ele>
        <time>2017-02-12T10:46:36Z</time>
      </trkpt>
      <trkpt lat="38.317978" lon="-1.360668">
        <ele>410.1</ele>
        <time>2017-02-12T10:46:52Z</time>
      </trkpt>
      <trkpt lat="38.317816" lon="-1.360790">
        <ele>409.2</ele>
        <time>2017-02-12T10:47:06Z</time>
      </trkpt>
      <trkpt lat="38.317755" lon="-1.360868">
        <ele>409.7</ele>
        <time>2017-02-12T10:47:13Z</time>
      </trkpt>
      <trkpt lat="38.317743" lon="-1.360875">
        <ele>409.2</ele>
        <time>2017-02-12T10:47:14Z</time>
      </trkpt>
      <trkpt lat="38.317731" lon="-1.360883">
        <ele>409.2</ele>
        <time>2017-02-12T10:47:15Z</time>
      </trkpt>
      <trkpt lat="38.317717" lon="-1.360889">
        <ele>408.7</ele>
        <time>2017-02-12T10:47:16Z</time>
      </trkpt>
      <trkpt lat="38.317706" lon="-1.360898">
        <ele>409.2</ele>
        <time>2017-02-12T10:47:17Z</time>
      </trkpt>
      <trkpt lat="38.317697" lon="-1.360908">
        <ele>408.7</ele>
        <time>2017-02-12T10:47:18Z</time>
      </trkpt>
      <trkpt lat="38.317685" lon="-1.360918">
        <ele>409.2</ele>
        <time>2017-02-12T10:47:19Z</time>
      </trkpt>
      <trkpt lat="38.317672" lon="-1.360925">
        <ele>409.2</ele>
        <time>2017-02-12T10:47:20Z</time>
      </trkpt>
      <trkpt lat="38.317659" lon="-1.360933">
        <ele>409.2</ele>
        <time>2017-02-12T10:47:21Z</time>
      </trkpt>
      <trkpt lat="38.317478" lon="-1.361048">
        <ele>408.2</ele>
        <time>2017-02-12T10:47:35Z</time>
      </trkpt>
      <trkpt lat="38.317294" lon="-1.361214">
        <ele>406.8</ele>
        <time>2017-02-12T10:47:52Z</time>
      </trkpt>
      <trkpt lat="38.317214" lon="-1.361276">
        <ele>406.3</ele>
        <time>2017-02-12T10:47:59Z</time>
      </trkpt>
      <trkpt lat="38.317207" lon="-1.361289">
        <ele>406.3</ele>
        <time>2017-02-12T10:48:00Z</time>
      </trkpt>
      <trkpt lat="38.317198" lon="-1.361298">
        <ele>405.8</ele>
        <time>2017-02-12T10:48:01Z</time>
      </trkpt>
      <trkpt lat="38.317190" lon="-1.361309">
        <ele>406.3</ele>
        <time>2017-02-12T10:48:02Z</time>
      </trkpt>
      <trkpt lat="38.317181" lon="-1.361318">
        <ele>406.3</ele>
        <time>2017-02-12T10:48:03Z</time>
      </trkpt>
      <trkpt lat="38.317037" lon="-1.361441">
        <ele>404.9</ele>
        <time>2017-02-12T10:48:16Z</time>
      </trkpt>
      <trkpt lat="38.317023" lon="-1.361449">
        <ele>404.4</ele>
        <time>2017-02-12T10:48:17Z</time>
      </trkpt>
      <trkpt lat="38.317007" lon="-1.361454">
        <ele>404.4</ele>
        <time>2017-02-12T10:48:18Z</time>
      </trkpt>
      <trkpt lat="38.316788" lon="-1.361628">
        <ele>403.4</ele>
        <time>2017-02-12T10:48:37Z</time>
      </trkpt>
      <trkpt lat="38.316599" lon="-1.361746">
        <ele>402.5</ele>
        <time>2017-02-12T10:48:54Z</time>
      </trkpt>
      <trkpt lat="38.316508" lon="-1.361826">
        <ele>402.9</ele>
        <time>2017-02-12T10:49:02Z</time>
      </trkpt>
      <trkpt lat="38.316499" lon="-1.361835">
        <ele>402.5</ele>
        <time>2017-02-12T10:49:03Z</time>
      </trkpt>
      <trkpt lat="38.316485" lon="-1.361846">
        <ele>402.9</ele>
        <time>2017-02-12T10:49:04Z</time>
      </trkpt>
      <trkpt lat="38.316474" lon="-1.361858">
        <ele>402.9</ele>
        <time>2017-02-12T10:49:05Z</time>
      </trkpt>
      <trkpt lat="38.316463" lon="-1.361868">
        <ele>402.5</ele>
        <time>2017-02-12T10:49:06Z</time>
      </trkpt>
      <trkpt lat="38.316306" lon="-1.361993">
        <ele>402.5</ele>
        <time>2017-02-12T10:49:19Z</time>
      </trkpt>
      <trkpt lat="38.316107" lon="-1.362142">
        <ele>402.9</ele>
        <time>2017-02-12T10:49:35Z</time>
      </trkpt>
      <trkpt lat="38.315963" lon="-1.362252">
        <ele>402.9</ele>
        <time>2017-02-12T10:49:48Z</time>
      </trkpt>
      <trkpt lat="38.315804" lon="-1.362399">
        <ele>404.4</ele>
        <time>2017-02-12T10:50:02Z</time>
      </trkpt>
      <trkpt lat="38.315620" lon="-1.362532">
        <ele>403.9</ele>
        <time>2017-02-12T10:50:17Z</time>
      </trkpt>
      <trkpt lat="38.315483" lon="-1.362644">
        <ele>403.4</ele>
        <time>2017-02-12T10:50:29Z</time>
      </trkpt>
      <trkpt lat="38.315473" lon="-1.362654">
        <ele>403.4</ele>
        <time>2017-02-12T10:50:30Z</time>
      </trkpt>
      <trkpt lat="38.315381" lon="-1.362710">
        <ele>402.9</ele>
        <time>2017-02-12T10:50:38Z</time>
      </trkpt>
      <trkpt lat="38.315250" lon="-1.362800">
        <ele>402.0</ele>
        <time>2017-02-12T10:50:51Z</time>
      </trkpt>
      <trkpt lat="38.315056" lon="-1.362867">
        <ele>401.5</ele>
        <time>2017-02-12T10:51:06Z</time>
      </trkpt>
      <trkpt lat="38.314909" lon="-1.362946">
        <ele>400.5</ele>
        <time>2017-02-12T10:51:21Z</time>
      </trkpt>
      <trkpt lat="38.314706" lon="-1.363077">
        <ele>399.6</ele>
        <time>2017-02-12T10:51:38Z</time>
      </trkpt>
      <trkpt lat="38.314542" lon="-1.363169">
        <ele>398.6</ele>
        <time>2017-02-12T10:51:53Z</time>
      </trkpt>
      <trkpt lat="38.314416" lon="-1.363252">
        <ele>399.1</ele>
        <time>2017-02-12T10:52:08Z</time>
      </trkpt>
      <trkpt lat="38.314394" lon="-1.363270">
        <ele>399.1</ele>
        <time>2017-02-12T10:52:17Z</time>
      </trkpt>
      <trkpt lat="38.314376" lon="-1.363274">
        <ele>398.6</ele>
        <time>2017-02-12T10:52:18Z</time>
      </trkpt>
      <trkpt lat="38.314251" lon="-1.363336">
        <ele>398.6</ele>
        <time>2017-02-12T10:52:31Z</time>
      </trkpt>
      <trkpt lat="38.314241" lon="-1.363335">
        <ele>398.6</ele>
        <time>2017-02-12T10:52:32Z</time>
      </trkpt>
      <trkpt lat="38.314230" lon="-1.363337">
        <ele>399.1</ele>
        <time>2017-02-12T10:52:33Z</time>
      </trkpt>
      <trkpt lat="38.314220" lon="-1.363342">
        <ele>398.6</ele>
        <time>2017-02-12T10:52:34Z</time>
      </trkpt>
      <trkpt lat="38.314211" lon="-1.363349">
        <ele>398.6</ele>
        <time>2017-02-12T10:52:35Z</time>
      </trkpt>
      <trkpt lat="38.314201" lon="-1.363352">
        <ele>398.6</ele>
        <time>2017-02-12T10:52:36Z</time>
      </trkpt>
      <trkpt lat="38.314190" lon="-1.363359">
        <ele>398.6</ele>
        <time>2017-02-12T10:52:37Z</time>
      </trkpt>
      <trkpt lat="38.314178" lon="-1.363366">
        <ele>398.6</ele>
        <time>2017-02-12T10:52:38Z</time>
      </trkpt>
      <trkpt lat="38.314167" lon="-1.363370">
        <ele>399.1</ele>
        <time>2017-02-12T10:52:39Z</time>
      </trkpt>
      <trkpt lat="38.314153" lon="-1.363373">
        <ele>398.6</ele>
        <time>2017-02-12T10:52:40Z</time>
      </trkpt>
      <trkpt lat="38.314141" lon="-1.363376">
        <ele>399.1</ele>
        <time>2017-02-12T10:52:41Z</time>
      </trkpt>
      <trkpt lat="38.314129" lon="-1.363384">
        <ele>398.6</ele>
        <time>2017-02-12T10:52:42Z</time>
      </trkpt>
      <trkpt lat="38.314074" lon="-1.363420">
        <ele>399.1</ele>
        <time>2017-02-12T10:52:48Z</time>
      </trkpt>
      <trkpt lat="38.313875" lon="-1.363479">
        <ele>398.6</ele>
        <time>2017-02-12T10:53:04Z</time>
      </trkpt>
      <trkpt lat="38.313746" lon="-1.363526">
        <ele>398.1</ele>
        <time>2017-02-12T10:53:15Z</time>
      </trkpt>
      <trkpt lat="38.313737" lon="-1.363543">
        <ele>398.1</ele>
        <time>2017-02-12T10:53:16Z</time>
      </trkpt>
      <trkpt lat="38.313564" lon="-1.363667">
        <ele>398.1</ele>
        <time>2017-02-12T10:53:31Z</time>
      </trkpt>
      <trkpt lat="38.313376" lon="-1.363761">
        <ele>397.6</ele>
        <time>2017-02-12T10:53:46Z</time>
      </trkpt>
      <trkpt lat="38.313229" lon="-1.363862">
        <ele>397.6</ele>
        <time>2017-02-12T10:54:02Z</time>
      </trkpt>
      <trkpt lat="38.313217" lon="-1.363865">
        <ele>397.6</ele>
        <time>2017-02-12T10:54:03Z</time>
      </trkpt>
      <trkpt lat="38.313202" lon="-1.363869">
        <ele>397.6</ele>
        <time>2017-02-12T10:54:04Z</time>
      </trkpt>
      <trkpt lat="38.313186" lon="-1.363875">
        <ele>397.2</ele>
        <time>2017-02-12T10:54:05Z</time>
      </trkpt>
      <trkpt lat="38.313173" lon="-1.363883">
        <ele>397.2</ele>
        <time>2017-02-12T10:54:06Z</time>
      </trkpt>
      <trkpt lat="38.313165" lon="-1.363893">
        <ele>397.6</ele>
        <time>2017-02-12T10:54:07Z</time>
      </trkpt>
      <trkpt lat="38.313025" lon="-1.363974">
        <ele>397.2</ele>
        <time>2017-02-12T10:54:19Z</time>
      </trkpt>
      <trkpt lat="38.312882" lon="-1.364095">
        <ele>397.2</ele>
        <time>2017-02-12T10:54:33Z</time>
      </trkpt>
      <trkpt lat="38.312710" lon="-1.364257">
        <ele>396.2</ele>
        <time>2017-02-12T10:54:49Z</time>
      </trkpt>
      <trkpt lat="38.312534" lon="-1.364424">
        <ele>396.2</ele>
        <time>2017-02-12T10:55:05Z</time>
      </trkpt>
      <trkpt lat="38.312364" lon="-1.364591">
        <ele>396.2</ele>
        <time>2017-02-12T10:55:21Z</time>
      </trkpt>
      <trkpt lat="38.312231" lon="-1.364804">
        <ele>396.7</ele>
        <time>2017-02-12T10:55:37Z</time>
      </trkpt>
      <trkpt lat="38.312107" lon="-1.365039">
        <ele>396.2</ele>
        <time>2017-02-12T10:55:53Z</time>
      </trkpt>
      <trkpt lat="38.311999" lon="-1.365206">
        <ele>395.2</ele>
        <time>2017-02-12T10:56:05Z</time>
      </trkpt>
      <trkpt lat="38.311992" lon="-1.365218">
        <ele>395.7</ele>
        <time>2017-02-12T10:56:06Z</time>
      </trkpt>
      <trkpt lat="38.311987" lon="-1.365232">
        <ele>394.8</ele>
        <time>2017-02-12T10:56:07Z</time>
      </trkpt>
      <trkpt lat="38.311980" lon="-1.365245">
        <ele>395.2</ele>
        <time>2017-02-12T10:56:08Z</time>
      </trkpt>
      <trkpt lat="38.311973" lon="-1.365259">
        <ele>394.8</ele>
        <time>2017-02-12T10:56:09Z</time>
      </trkpt>
      <trkpt lat="38.311967" lon="-1.365276">
        <ele>394.8</ele>
        <time>2017-02-12T10:56:10Z</time>
      </trkpt>
      <trkpt lat="38.311962" lon="-1.365291">
        <ele>394.8</ele>
        <time>2017-02-12T10:56:11Z</time>
      </trkpt>
      <trkpt lat="38.311850" lon="-1.365522">
        <ele>394.3</ele>
        <time>2017-02-12T10:56:27Z</time>
      </trkpt>
      <trkpt lat="38.311784" lon="-1.365753">
        <ele>395.2</ele>
        <time>2017-02-12T10:56:42Z</time>
      </trkpt>
      <trkpt lat="38.311731" lon="-1.365951">
        <ele>395.7</ele>
        <time>2017-02-12T10:56:55Z</time>
      </trkpt>
      <trkpt lat="38.311669" lon="-1.366175">
        <ele>394.8</ele>
        <time>2017-02-12T10:57:09Z</time>
      </trkpt>
      <trkpt lat="38.311662" lon="-1.366192">
        <ele>394.8</ele>
        <time>2017-02-12T10:57:10Z</time>
      </trkpt>
      <trkpt lat="38.311653" lon="-1.366207">
        <ele>394.8</ele>
        <time>2017-02-12T10:57:11Z</time>
      </trkpt>
      <trkpt lat="38.311647" lon="-1.366221">
        <ele>394.3</ele>
        <time>2017-02-12T10:57:12Z</time>
      </trkpt>
      <trkpt lat="38.311641" lon="-1.366235">
        <ele>393.8</ele>
        <time>2017-02-12T10:57:13Z</time>
      </trkpt>
      <trkpt lat="38.311634" lon="-1.366247">
        <ele>394.3</ele>
        <time>2017-02-12T10:57:14Z</time>
      </trkpt>
      <trkpt lat="38.311628" lon="-1.366257">
        <ele>393.8</ele>
        <time>2017-02-12T10:57:15Z</time>
      </trkpt>
      <trkpt lat="38.311624" lon="-1.366272">
        <ele>394.3</ele>
        <time>2017-02-12T10:57:16Z</time>
      </trkpt>
      <trkpt lat="38.311549" lon="-1.366578">
        <ele>391.9</ele>
        <time>2017-02-12T10:57:35Z</time>
      </trkpt>
      <trkpt lat="38.311471" lon="-1.366820">
        <ele>391.4</ele>
        <time>2017-02-12T10:57:53Z</time>
      </trkpt>
      <trkpt lat="38.311416" lon="-1.367151">
        <ele>391.4</ele>
        <time>2017-02-12T10:58:11Z</time>
      </trkpt>
      <trkpt lat="38.311374" lon="-1.367383">
        <ele>391.4</ele>
        <time>2017-02-12T10:58:25Z</time>
      </trkpt>
      <trkpt lat="38.311275" lon="-1.367575">
        <ele>390.9</ele>
        <time>2017-02-12T10:58:39Z</time>
      </trkpt>
      <trkpt lat="38.311092" lon="-1.367685">
        <ele>390.0</ele>
        <time>2017-02-12T10:58:54Z</time>
      </trkpt>
      <trkpt lat="38.310941" lon="-1.367802">
        <ele>389.5</ele>
        <time>2017-02-12T10:59:08Z</time>
      </trkpt>
      <trkpt lat="38.310776" lon="-1.367909">
        <ele>389.0</ele>
        <time>2017-02-12T10:59:21Z</time>
      </trkpt>
      <trkpt lat="38.310612" lon="-1.368030">
        <ele>389.0</ele>
        <time>2017-02-12T10:59:35Z</time>
      </trkpt>
      <trkpt lat="38.310407" lon="-1.368127">
        <ele>389.5</ele>
        <time>2017-02-12T10:59:53Z</time>
      </trkpt>
      <trkpt lat="38.310348" lon="-1.368128">
        <ele>389.5</ele>
        <time>2017-02-12T11:00:08Z</time>
      </trkpt>
      <trkpt lat="38.310332" lon="-1.368150">
        <ele>389.5</ele>
        <time>2017-02-12T11:00:37Z</time>
      </trkpt>
      <trkpt lat="38.310113" lon="-1.368192">
        <ele>388.0</ele>
        <time>2017-02-12T11:00:55Z</time>
      </trkpt>
      <trkpt lat="38.310082" lon="-1.368212">
        <ele>388.5</ele>
        <time>2017-02-12T11:00:58Z</time>
      </trkpt>
      <trkpt lat="38.309916" lon="-1.368229">
        <ele>387.5</ele>
        <time>2017-02-12T11:01:12Z</time>
      </trkpt>
      <trkpt lat="38.309808" lon="-1.368252">
        <ele>387.5</ele>
        <time>2017-02-12T11:01:24Z</time>
      </trkpt>
      <trkpt lat="38.309799" lon="-1.368256">
        <ele>387.1</ele>
        <time>2017-02-12T11:01:25Z</time>
      </trkpt>
      <trkpt lat="38.309716" lon="-1.368290">
        <ele>387.5</ele>
        <time>2017-02-12T11:01:34Z</time>
      </trkpt>
      <trkpt lat="38.309502" lon="-1.368343">
        <ele>388.0</ele>
        <time>2017-02-12T11:01:52Z</time>
      </trkpt>
      <trkpt lat="38.309369" lon="-1.368386">
        <ele>387.5</ele>
        <time>2017-02-12T11:02:06Z</time>
      </trkpt>
      <trkpt lat="38.309136" lon="-1.368451">
        <ele>388.0</ele>
        <time>2017-02-12T11:02:24Z</time>
      </trkpt>
      <trkpt lat="38.308971" lon="-1.368499">
        <ele>388.5</ele>
        <time>2017-02-12T11:02:38Z</time>
      </trkpt>
      <trkpt lat="38.308788" lon="-1.368514">
        <ele>388.5</ele>
        <time>2017-02-12T11:02:52Z</time>
      </trkpt>
      <trkpt lat="38.308549" lon="-1.368513">
        <ele>387.5</ele>
        <time>2017-02-12T11:03:10Z</time>
      </trkpt>
      <trkpt lat="38.308343" lon="-1.368519">
        <ele>386.6</ele>
        <time>2017-02-12T11:03:27Z</time>
      </trkpt>
      <trkpt lat="38.308180" lon="-1.368550">
        <ele>385.6</ele>
        <time>2017-02-12T11:03:42Z</time>
      </trkpt>
      <trkpt lat="38.308019" lon="-1.368735">
        <ele>384.7</ele>
        <time>2017-02-12T11:03:58Z</time>
      </trkpt>
      <trkpt lat="38.308001" lon="-1.368965">
        <ele>384.7</ele>
        <time>2017-02-12T11:04:12Z</time>
      </trkpt>
      <trkpt lat="38.308054" lon="-1.369223">
        <ele>384.7</ele>
        <time>2017-02-12T11:04:28Z</time>
      </trkpt>
      <trkpt lat="38.308035" lon="-1.369421">
        <ele>384.7</ele>
        <time>2017-02-12T11:04:40Z</time>
      </trkpt>
      <trkpt lat="38.308028" lon="-1.369434">
        <ele>384.7</ele>
        <time>2017-02-12T11:04:41Z</time>
      </trkpt>
      <trkpt lat="38.308020" lon="-1.369449">
        <ele>384.7</ele>
        <time>2017-02-12T11:04:42Z</time>
      </trkpt>
      <trkpt lat="38.308015" lon="-1.369465">
        <ele>384.7</ele>
        <time>2017-02-12T11:04:43Z</time>
      </trkpt>
      <trkpt lat="38.308009" lon="-1.369481">
        <ele>384.2</ele>
        <time>2017-02-12T11:04:44Z</time>
      </trkpt>
      <trkpt lat="38.308005" lon="-1.369500">
        <ele>384.2</ele>
        <time>2017-02-12T11:04:45Z</time>
      </trkpt>
      <trkpt lat="38.307996" lon="-1.369525">
        <ele>384.2</ele>
        <time>2017-02-12T11:04:47Z</time>
      </trkpt>
      <trkpt lat="38.307989" lon="-1.369539">
        <ele>383.7</ele>
        <time>2017-02-12T11:04:48Z</time>
      </trkpt>
      <trkpt lat="38.307979" lon="-1.369552">
        <ele>384.7</ele>
        <time>2017-02-12T11:04:49Z</time>
      </trkpt>
      <trkpt lat="38.307785" lon="-1.369747">
        <ele>383.2</ele>
        <time>2017-02-12T11:05:08Z</time>
      </trkpt>
      <trkpt lat="38.307625" lon="-1.369857">
        <ele>381.8</ele>
        <time>2017-02-12T11:05:22Z</time>
      </trkpt>
      <trkpt lat="38.307616" lon="-1.369869">
        <ele>381.8</ele>
        <time>2017-02-12T11:05:23Z</time>
      </trkpt>
      <trkpt lat="38.307448" lon="-1.369993">
        <ele>380.3</ele>
        <time>2017-02-12T11:05:38Z</time>
      </trkpt>
      <trkpt lat="38.307289" lon="-1.370136">
        <ele>378.9</ele>
        <time>2017-02-12T11:05:53Z</time>
      </trkpt>
      <trkpt lat="38.307115" lon="-1.370288">
        <ele>378.4</ele>
        <time>2017-02-12T11:06:09Z</time>
      </trkpt>
      <trkpt lat="38.306923" lon="-1.370462">
        <ele>376.5</ele>
        <time>2017-02-12T11:06:27Z</time>
      </trkpt>
      <trkpt lat="38.306763" lon="-1.370619">
        <ele>376.0</ele>
        <time>2017-02-12T11:06:43Z</time>
      </trkpt>
      <trkpt lat="38.306609" lon="-1.370796">
        <ele>374.6</ele>
        <time>2017-02-12T11:06:59Z</time>
      </trkpt>
      <trkpt lat="38.306520" lon="-1.370883">
        <ele>374.1</ele>
        <time>2017-02-12T11:07:08Z</time>
      </trkpt>
      <trkpt lat="38.306507" lon="-1.370889">
        <ele>374.1</ele>
        <time>2017-02-12T11:07:09Z</time>
      </trkpt>
      <trkpt lat="38.306340" lon="-1.371061">
        <ele>373.6</ele>
        <time>2017-02-12T11:07:25Z</time>
      </trkpt>
      <trkpt lat="38.306169" lon="-1.371287">
        <ele>373.1</ele>
        <time>2017-02-12T11:07:44Z</time>
      </trkpt>
      <trkpt lat="38.306031" lon="-1.371483">
        <ele>372.6</ele>
        <time>2017-02-12T11:08:00Z</time>
      </trkpt>
      <trkpt lat="38.305904" lon="-1.371644">
        <ele>372.2</ele>
        <time>2017-02-12T11:08:14Z</time>
      </trkpt>
      <trkpt lat="38.305747" lon="-1.371803">
        <ele>371.7</ele>
        <time>2017-02-12T11:08:30Z</time>
      </trkpt>
      <trkpt lat="38.305729" lon="-1.371844">
        <ele>371.7</ele>
        <time>2017-02-12T11:08:33Z</time>
      </trkpt>
      <trkpt lat="38.305720" lon="-1.371850">
        <ele>371.7</ele>
        <time>2017-02-12T11:08:34Z</time>
      </trkpt>
      <trkpt lat="38.305709" lon="-1.371857">
        <ele>371.2</ele>
        <time>2017-02-12T11:08:35Z</time>
      </trkpt>
      <trkpt lat="38.305697" lon="-1.371865">
        <ele>371.7</ele>
        <time>2017-02-12T11:08:36Z</time>
      </trkpt>
      <trkpt lat="38.305686" lon="-1.371876">
        <ele>371.2</ele>
        <time>2017-02-12T11:08:37Z</time>
      </trkpt>
      <trkpt lat="38.305676" lon="-1.371888">
        <ele>371.2</ele>
        <time>2017-02-12T11:08:38Z</time>
      </trkpt>
      <trkpt lat="38.305666" lon="-1.371898">
        <ele>371.7</ele>
        <time>2017-02-12T11:08:39Z</time>
      </trkpt>
      <trkpt lat="38.305656" lon="-1.371908">
        <ele>371.7</ele>
        <time>2017-02-12T11:08:40Z</time>
      </trkpt>
      <trkpt lat="38.305648" lon="-1.371921">
        <ele>371.2</ele>
        <time>2017-02-12T11:08:41Z</time>
      </trkpt>
      <trkpt lat="38.305641" lon="-1.371930">
        <ele>371.2</ele>
        <time>2017-02-12T11:08:42Z</time>
      </trkpt>
      <trkpt lat="38.305632" lon="-1.371937">
        <ele>371.7</ele>
        <time>2017-02-12T11:08:43Z</time>
      </trkpt>
      <trkpt lat="38.305627" lon="-1.371945">
        <ele>371.7</ele>
        <time>2017-02-12T11:08:44Z</time>
      </trkpt>
      <trkpt lat="38.305470" lon="-1.372105">
        <ele>371.7</ele>
        <time>2017-02-12T11:08:59Z</time>
      </trkpt>
      <trkpt lat="38.305385" lon="-1.372165">
        <ele>371.2</ele>
        <time>2017-02-12T11:09:08Z</time>
      </trkpt>
      <trkpt lat="38.305375" lon="-1.372178">
        <ele>371.2</ele>
        <time>2017-02-12T11:09:09Z</time>
      </trkpt>
      <trkpt lat="38.305363" lon="-1.372192">
        <ele>370.7</ele>
        <time>2017-02-12T11:09:10Z</time>
      </trkpt>
      <trkpt lat="38.305183" lon="-1.372310">
        <ele>370.7</ele>
        <time>2017-02-12T11:09:25Z</time>
      </trkpt>
      <trkpt lat="38.305015" lon="-1.372390">
        <ele>371.2</ele>
        <time>2017-02-12T11:09:39Z</time>
      </trkpt>
      <trkpt lat="38.304821" lon="-1.372437">
        <ele>371.2</ele>
        <time>2017-02-12T11:09:54Z</time>
      </trkpt>
      <trkpt lat="38.304642" lon="-1.372469">
        <ele>370.7</ele>
        <time>2017-02-12T11:10:08Z</time>
      </trkpt>
      <trkpt lat="38.304435" lon="-1.372519">
        <ele>369.8</ele>
        <time>2017-02-12T11:10:24Z</time>
      </trkpt>
      <trkpt lat="38.304237" lon="-1.372561">
        <ele>368.8</ele>
        <time>2017-02-12T11:10:39Z</time>
      </trkpt>
      <trkpt lat="38.303989" lon="-1.372598">
        <ele>367.8</ele>
        <time>2017-02-12T11:10:56Z</time>
      </trkpt>
      <trkpt lat="38.303841" lon="-1.372636">
        <ele>367.4</ele>
        <time>2017-02-12T11:11:09Z</time>
      </trkpt>
      <trkpt lat="38.303673" lon="-1.372679">
        <ele>366.9</ele>
        <time>2017-02-12T11:11:22Z</time>
      </trkpt>
      <trkpt lat="38.303559" lon="-1.372697">
        <ele>366.9</ele>
        <time>2017-02-12T11:11:31Z</time>
      </trkpt>
      <trkpt lat="38.303544" lon="-1.372695">
        <ele>366.9</ele>
        <time>2017-02-12T11:11:32Z</time>
      </trkpt>
      <trkpt lat="38.303311" lon="-1.372717">
        <ele>365.4</ele>
        <time>2017-02-12T11:11:48Z</time>
      </trkpt>
      <trkpt lat="38.303082" lon="-1.372715">
        <ele>365.4</ele>
        <time>2017-02-12T11:12:04Z</time>
      </trkpt>
      <trkpt lat="38.302860" lon="-1.372704">
        <ele>365.4</ele>
        <time>2017-02-12T11:12:21Z</time>
      </trkpt>
      <trkpt lat="38.302669" lon="-1.372571">
        <ele>365.0</ele>
        <time>2017-02-12T11:12:36Z</time>
      </trkpt>
      <trkpt lat="38.302522" lon="-1.372371">
        <ele>364.0</ele>
        <time>2017-02-12T11:12:50Z</time>
      </trkpt>
      <trkpt lat="38.302401" lon="-1.372245">
        <ele>362.5</ele>
        <time>2017-02-12T11:13:01Z</time>
      </trkpt>
      <trkpt lat="38.302234" lon="-1.372267">
        <ele>361.1</ele>
        <time>2017-02-12T11:13:14Z</time>
      </trkpt>
      <trkpt lat="38.302222" lon="-1.372278">
        <ele>361.6</ele>
        <time>2017-02-12T11:13:15Z</time>
      </trkpt>
      <trkpt lat="38.302172" lon="-1.372381">
        <ele>362.1</ele>
        <time>2017-02-12T11:13:22Z</time>
      </trkpt>
      <trkpt lat="38.302165" lon="-1.372395">
        <ele>362.1</ele>
        <time>2017-02-12T11:13:23Z</time>
      </trkpt>
      <trkpt lat="38.302158" lon="-1.372410">
        <ele>362.5</ele>
        <time>2017-02-12T11:13:24Z</time>
      </trkpt>
      <trkpt lat="38.302150" lon="-1.372424">
        <ele>362.1</ele>
        <time>2017-02-12T11:13:25Z</time>
      </trkpt>
      <trkpt lat="38.302140" lon="-1.372438">
        <ele>362.5</ele>
        <time>2017-02-12T11:13:26Z</time>
      </trkpt>
      <trkpt lat="38.302017" lon="-1.372622">
        <ele>363.5</ele>
        <time>2017-02-12T11:13:40Z</time>
      </trkpt>
      <trkpt lat="38.301820" lon="-1.372753">
        <ele>364.0</ele>
        <time>2017-02-12T11:13:57Z</time>
      </trkpt>
      <trkpt lat="38.301618" lon="-1.372780">
        <ele>365.0</ele>
        <time>2017-02-12T11:14:12Z</time>
      </trkpt>
      <trkpt lat="38.301392" lon="-1.372750">
        <ele>364.5</ele>
        <time>2017-02-12T11:14:29Z</time>
      </trkpt>
      <trkpt lat="38.301172" lon="-1.372754">
        <ele>363.5</ele>
        <time>2017-02-12T11:14:44Z</time>
      </trkpt>
      <trkpt lat="38.300917" lon="-1.372918">
        <ele>365.0</ele>
        <time>2017-02-12T11:15:05Z</time>
      </trkpt>
      <trkpt lat="38.300751" lon="-1.373099">
        <ele>365.9</ele>
        <time>2017-02-12T11:15:21Z</time>
      </trkpt>
      <trkpt lat="38.300570" lon="-1.373209">
        <ele>365.4</ele>
        <time>2017-02-12T11:15:36Z</time>
      </trkpt>
      <trkpt lat="38.300321" lon="-1.373270">
        <ele>365.9</ele>
        <time>2017-02-12T11:15:54Z</time>
      </trkpt>
      <trkpt lat="38.300085" lon="-1.373336">
        <ele>365.4</ele>
        <time>2017-02-12T11:16:12Z</time>
      </trkpt>
      <trkpt lat="38.299844" lon="-1.373402">
        <ele>365.4</ele>
        <time>2017-02-12T11:16:30Z</time>
      </trkpt>
      <trkpt lat="38.299625" lon="-1.373481">
        <ele>365.4</ele>
        <time>2017-02-12T11:16:47Z</time>
      </trkpt>
      <trkpt lat="38.299365" lon="-1.373544">
        <ele>365.4</ele>
        <time>2017-02-12T11:17:06Z</time>
      </trkpt>
      <trkpt lat="38.299129" lon="-1.373607">
        <ele>365.0</ele>
        <time>2017-02-12T11:17:24Z</time>
      </trkpt>
      <trkpt lat="38.298896" lon="-1.373665">
        <ele>365.0</ele>
        <time>2017-02-12T11:17:41Z</time>
      </trkpt>
      <trkpt lat="38.298667" lon="-1.373690">
        <ele>365.0</ele>
        <time>2017-02-12T11:17:58Z</time>
      </trkpt>
      <trkpt lat="38.298460" lon="-1.373699">
        <ele>364.5</ele>
        <time>2017-02-12T11:18:14Z</time>
      </trkpt>
      <trkpt lat="38.298340" lon="-1.373689">
        <ele>365.0</ele>
        <time>2017-02-12T11:18:29Z</time>
      </trkpt>
      <trkpt lat="38.298271" lon="-1.373701">
        <ele>364.0</ele>
        <time>2017-02-12T11:18:41Z</time>
      </trkpt>
      <trkpt lat="38.298049" lon="-1.373751">
        <ele>365.0</ele>
        <time>2017-02-12T11:18:58Z</time>
      </trkpt>
      <trkpt lat="38.297823" lon="-1.373882">
        <ele>364.5</ele>
        <time>2017-02-12T11:19:15Z</time>
      </trkpt>
      <trkpt lat="38.297654" lon="-1.374082">
        <ele>364.5</ele>
        <time>2017-02-12T11:19:31Z</time>
      </trkpt>
      <trkpt lat="38.297514" lon="-1.374288">
        <ele>365.0</ele>
        <time>2017-02-12T11:19:46Z</time>
      </trkpt>
      <trkpt lat="38.297318" lon="-1.374392">
        <ele>365.4</ele>
        <time>2017-02-12T11:20:01Z</time>
      </trkpt>
      <trkpt lat="38.297099" lon="-1.374268">
        <ele>365.9</ele>
        <time>2017-02-12T11:20:19Z</time>
      </trkpt>
      <trkpt lat="38.296932" lon="-1.373986">
        <ele>366.9</ele>
        <time>2017-02-12T11:20:39Z</time>
      </trkpt>
      <trkpt lat="38.296897" lon="-1.373752">
        <ele>366.9</ele>
        <time>2017-02-12T11:20:53Z</time>
      </trkpt>
      <trkpt lat="38.296890" lon="-1.373676">
        <ele>366.9</ele>
        <time>2017-02-12T11:20:57Z</time>
      </trkpt>
      <trkpt lat="38.296883" lon="-1.373663">
        <ele>366.9</ele>
        <time>2017-02-12T11:20:58Z</time>
      </trkpt>
      <trkpt lat="38.296853" lon="-1.373635">
        <ele>366.9</ele>
        <time>2017-02-12T11:21:05Z</time>
      </trkpt>
      <trkpt lat="38.296854" lon="-1.373600">
        <ele>366.9</ele>
        <time>2017-02-12T11:21:06Z</time>
      </trkpt>
      <trkpt lat="38.296851" lon="-1.373566">
        <ele>366.9</ele>
        <time>2017-02-12T11:21:07Z</time>
      </trkpt>
      <trkpt lat="38.296770" lon="-1.373305">
        <ele>365.9</ele>
        <time>2017-02-12T11:21:21Z</time>
      </trkpt>
      <trkpt lat="38.296749" lon="-1.373229">
        <ele>365.4</ele>
        <time>2017-02-12T11:21:29Z</time>
      </trkpt>
      <trkpt lat="38.296747" lon="-1.373208">
        <ele>365.0</ele>
        <time>2017-02-12T11:21:30Z</time>
      </trkpt>
      <trkpt lat="38.296745" lon="-1.373192">
        <ele>365.0</ele>
        <time>2017-02-12T11:21:31Z</time>
      </trkpt>
      <trkpt lat="38.296742" lon="-1.373177">
        <ele>365.0</ele>
        <time>2017-02-12T11:21:32Z</time>
      </trkpt>
      <trkpt lat="38.296742" lon="-1.373166">
        <ele>365.4</ele>
        <time>2017-02-12T11:21:33Z</time>
      </trkpt>
      <trkpt lat="38.296739" lon="-1.373155">
        <ele>365.0</ele>
        <time>2017-02-12T11:21:34Z</time>
      </trkpt>
      <trkpt lat="38.296693" lon="-1.373097">
        <ele>364.5</ele>
        <time>2017-02-12T11:21:46Z</time>
      </trkpt>
      <trkpt lat="38.296682" lon="-1.373088">
        <ele>364.5</ele>
        <time>2017-02-12T11:21:48Z</time>
      </trkpt>
      <trkpt lat="38.296675" lon="-1.373086">
        <ele>363.5</ele>
        <time>2017-02-12T11:21:49Z</time>
      </trkpt>
      <trkpt lat="38.296666" lon="-1.373079">
        <ele>363.5</ele>
        <time>2017-02-12T11:21:50Z</time>
      </trkpt>
      <trkpt lat="38.296655" lon="-1.373067">
        <ele>363.5</ele>
        <time>2017-02-12T11:21:51Z</time>
      </trkpt>
      <trkpt lat="38.296645" lon="-1.373052">
        <ele>363.5</ele>
        <time>2017-02-12T11:21:52Z</time>
      </trkpt>
      <trkpt lat="38.296633" lon="-1.373034">
        <ele>363.5</ele>
        <time>2017-02-12T11:21:53Z</time>
      </trkpt>
      <trkpt lat="38.296480" lon="-1.372835">
        <ele>361.6</ele>
        <time>2017-02-12T11:22:07Z</time>
      </trkpt>
      <trkpt lat="38.296349" lon="-1.372763">
        <ele>359.2</ele>
        <time>2017-02-12T11:22:18Z</time>
      </trkpt>
      <trkpt lat="38.296083" lon="-1.372681">
        <ele>358.7</ele>
        <time>2017-02-12T11:22:36Z</time>
      </trkpt>
      <trkpt lat="38.295842" lon="-1.372663">
        <ele>360.1</ele>
        <time>2017-02-12T11:22:53Z</time>
      </trkpt>
      <trkpt lat="38.295663" lon="-1.372513">
        <ele>363.0</ele>
        <time>2017-02-12T11:23:08Z</time>
      </trkpt>
      <trkpt lat="38.295654" lon="-1.372469">
        <ele>363.0</ele>
        <time>2017-02-12T11:23:11Z</time>
      </trkpt>
      <trkpt lat="38.295655" lon="-1.372455">
        <ele>363.0</ele>
        <time>2017-02-12T11:23:12Z</time>
      </trkpt>
      <trkpt lat="38.295655" lon="-1.372439">
        <ele>363.5</ele>
        <time>2017-02-12T11:23:13Z</time>
      </trkpt>
      <trkpt lat="38.295655" lon="-1.372425">
        <ele>363.0</ele>
        <time>2017-02-12T11:23:14Z</time>
      </trkpt>
      <trkpt lat="38.295657" lon="-1.372409">
        <ele>363.0</ele>
        <time>2017-02-12T11:23:15Z</time>
      </trkpt>
      <trkpt lat="38.295660" lon="-1.372392">
        <ele>363.5</ele>
        <time>2017-02-12T11:23:16Z</time>
      </trkpt>
      <trkpt lat="38.295664" lon="-1.372375">
        <ele>363.5</ele>
        <time>2017-02-12T11:23:17Z</time>
      </trkpt>
      <trkpt lat="38.295671" lon="-1.372360">
        <ele>363.0</ele>
        <time>2017-02-12T11:23:18Z</time>
      </trkpt>
      <trkpt lat="38.295677" lon="-1.372345">
        <ele>363.5</ele>
        <time>2017-02-12T11:23:19Z</time>
      </trkpt>
      <trkpt lat="38.295683" lon="-1.372330">
        <ele>363.5</ele>
        <time>2017-02-12T11:23:20Z</time>
      </trkpt>
      <trkpt lat="38.295743" lon="-1.372076">
        <ele>365.0</ele>
        <time>2017-02-12T11:23:36Z</time>
      </trkpt>
      <trkpt lat="38.295767" lon="-1.371977">
        <ele>365.4</ele>
        <time>2017-02-12T11:23:47Z</time>
      </trkpt>
      <trkpt lat="38.295766" lon="-1.371961">
        <ele>365.4</ele>
        <time>2017-02-12T11:23:48Z</time>
      </trkpt>
      <trkpt lat="38.295767" lon="-1.371940">
        <ele>365.4</ele>
        <time>2017-02-12T11:23:49Z</time>
      </trkpt>
      <trkpt lat="38.295767" lon="-1.371920">
        <ele>365.9</ele>
        <time>2017-02-12T11:23:50Z</time>
      </trkpt>
      <trkpt lat="38.295780" lon="-1.371778">
        <ele>366.4</ele>
        <time>2017-02-12T11:24:01Z</time>
      </trkpt>
      <trkpt lat="38.295824" lon="-1.371522">
        <ele>366.9</ele>
        <time>2017-02-12T11:24:15Z</time>
      </trkpt>
      <trkpt lat="38.295846" lon="-1.371405">
        <ele>367.4</ele>
        <time>2017-02-12T11:24:23Z</time>
      </trkpt>
      <trkpt lat="38.295845" lon="-1.371388">
        <ele>367.4</ele>
        <time>2017-02-12T11:24:24Z</time>
      </trkpt>
      <trkpt lat="38.295844" lon="-1.371368">
        <ele>367.4</ele>
        <time>2017-02-12T11:24:25Z</time>
      </trkpt>
      <trkpt lat="38.295842" lon="-1.371348">
        <ele>367.4</ele>
        <time>2017-02-12T11:24:26Z</time>
      </trkpt>
      <trkpt lat="38.295841" lon="-1.371324">
        <ele>366.9</ele>
        <time>2017-02-12T11:24:27Z</time>
      </trkpt>
      <trkpt lat="38.295738" lon="-1.371022">
        <ele>367.8</ele>
        <time>2017-02-12T11:24:44Z</time>
      </trkpt>
      <trkpt lat="38.295728" lon="-1.371015">
        <ele>367.8</ele>
        <time>2017-02-12T11:24:45Z</time>
      </trkpt>
      <trkpt lat="38.295715" lon="-1.371005">
        <ele>368.3</ele>
        <time>2017-02-12T11:24:46Z</time>
      </trkpt>
      <trkpt lat="38.295704" lon="-1.370993">
        <ele>367.8</ele>
        <time>2017-02-12T11:24:47Z</time>
      </trkpt>
      <trkpt lat="38.295692" lon="-1.370983">
        <ele>368.3</ele>
        <time>2017-02-12T11:24:48Z</time>
      </trkpt>
      <trkpt lat="38.295675" lon="-1.370959">
        <ele>368.3</ele>
        <time>2017-02-12T11:24:50Z</time>
      </trkpt>
      <trkpt lat="38.295668" lon="-1.370942">
        <ele>368.8</ele>
        <time>2017-02-12T11:24:51Z</time>
      </trkpt>
      <trkpt lat="38.295659" lon="-1.370927">
        <ele>368.8</ele>
        <time>2017-02-12T11:24:52Z</time>
      </trkpt>
      <trkpt lat="38.295649" lon="-1.370918">
        <ele>368.8</ele>
        <time>2017-02-12T11:24:53Z</time>
      </trkpt>
      <trkpt lat="38.295638" lon="-1.370910">
        <ele>369.3</ele>
        <time>2017-02-12T11:24:54Z</time>
      </trkpt>
      <trkpt lat="38.295628" lon="-1.370903">
        <ele>368.8</ele>
        <time>2017-02-12T11:24:55Z</time>
      </trkpt>
      <trkpt lat="38.295619" lon="-1.370892">
        <ele>369.3</ele>
        <time>2017-02-12T11:24:56Z</time>
      </trkpt>
      <trkpt lat="38.295613" lon="-1.370879">
        <ele>369.3</ele>
        <time>2017-02-12T11:24:57Z</time>
      </trkpt>
      <trkpt lat="38.295604" lon="-1.370870">
        <ele>369.3</ele>
        <time>2017-02-12T11:24:58Z</time>
      </trkpt>
      <trkpt lat="38.295593" lon="-1.370863">
        <ele>369.8</ele>
        <time>2017-02-12T11:24:59Z</time>
      </trkpt>
      <trkpt lat="38.295583" lon="-1.370855">
        <ele>369.8</ele>
        <time>2017-02-12T11:25:00Z</time>
      </trkpt>
      <trkpt lat="38.295566" lon="-1.370838">
        <ele>369.8</ele>
        <time>2017-02-12T11:25:02Z</time>
      </trkpt>
      <trkpt lat="38.295559" lon="-1.370822">
        <ele>370.2</ele>
        <time>2017-02-12T11:25:03Z</time>
      </trkpt>
      <trkpt lat="38.295552" lon="-1.370803">
        <ele>370.2</ele>
        <time>2017-02-12T11:25:04Z</time>
      </trkpt>
      <trkpt lat="38.295546" lon="-1.370789">
        <ele>369.8</ele>
        <time>2017-02-12T11:25:05Z</time>
      </trkpt>
      <trkpt lat="38.295483" lon="-1.370590">
        <ele>371.2</ele>
        <time>2017-02-12T11:25:18Z</time>
      </trkpt>
      <trkpt lat="38.295445" lon="-1.370368">
        <ele>372.2</ele>
        <time>2017-02-12T11:25:32Z</time>
      </trkpt>
      <trkpt lat="38.295421" lon="-1.370141">
        <ele>374.1</ele>
        <time>2017-02-12T11:25:47Z</time>
      </trkpt>
      <trkpt lat="38.295419" lon="-1.369919">
        <ele>375.5</ele>
        <time>2017-02-12T11:26:01Z</time>
      </trkpt>
      <trkpt lat="38.295393" lon="-1.369712">
        <ele>377.0</ele>
        <time>2017-02-12T11:26:14Z</time>
      </trkpt>
      <trkpt lat="38.295363" lon="-1.369488">
        <ele>377.9</ele>
        <time>2017-02-12T11:26:28Z</time>
      </trkpt>
      <trkpt lat="38.295356" lon="-1.369423">
        <ele>377.9</ele>
        <time>2017-02-12T11:26:32Z</time>
      </trkpt>
      <trkpt lat="38.295352" lon="-1.369412">
        <ele>377.9</ele>
        <time>2017-02-12T11:26:33Z</time>
      </trkpt>
      <trkpt lat="38.295308" lon="-1.369303">
        <ele>378.4</ele>
        <time>2017-02-12T11:26:40Z</time>
      </trkpt>
      <trkpt lat="38.295298" lon="-1.369294">
        <ele>378.4</ele>
        <time>2017-02-12T11:26:41Z</time>
      </trkpt>
      <trkpt lat="38.295287" lon="-1.369284">
        <ele>378.9</ele>
        <time>2017-02-12T11:26:42Z</time>
      </trkpt>
      <trkpt lat="38.295276" lon="-1.369272">
        <ele>379.4</ele>
        <time>2017-02-12T11:26:43Z</time>
      </trkpt>
      <trkpt lat="38.295267" lon="-1.369261">
        <ele>378.9</ele>
        <time>2017-02-12T11:26:44Z</time>
      </trkpt>
      <trkpt lat="38.295255" lon="-1.369252">
        <ele>378.9</ele>
        <time>2017-02-12T11:26:45Z</time>
      </trkpt>
      <trkpt lat="38.295244" lon="-1.369245">
        <ele>378.9</ele>
        <time>2017-02-12T11:26:46Z</time>
      </trkpt>
      <trkpt lat="38.295233" lon="-1.369239">
        <ele>379.9</ele>
        <time>2017-02-12T11:26:47Z</time>
      </trkpt>
      <trkpt lat="38.295222" lon="-1.369232">
        <ele>379.4</ele>
        <time>2017-02-12T11:26:48Z</time>
      </trkpt>
      <trkpt lat="38.295094" lon="-1.369187">
        <ele>380.8</ele>
        <time>2017-02-12T11:26:59Z</time>
      </trkpt>
      <trkpt lat="38.295061" lon="-1.369176">
        <ele>381.3</ele>
        <time>2017-02-12T11:27:02Z</time>
      </trkpt>
      <trkpt lat="38.294921" lon="-1.369167">
        <ele>382.3</ele>
        <time>2017-02-12T11:27:14Z</time>
      </trkpt>
      <trkpt lat="38.294910" lon="-1.369158">
        <ele>381.8</ele>
        <time>2017-02-12T11:27:15Z</time>
      </trkpt>
      <trkpt lat="38.294899" lon="-1.369154">
        <ele>382.3</ele>
        <time>2017-02-12T11:27:16Z</time>
      </trkpt>
      <trkpt lat="38.294835" lon="-1.369142">
        <ele>381.8</ele>
        <time>2017-02-12T11:27:22Z</time>
      </trkpt>
      <trkpt lat="38.294823" lon="-1.369142">
        <ele>381.8</ele>
        <time>2017-02-12T11:27:23Z</time>
      </trkpt>
      <trkpt lat="38.294813" lon="-1.369142">
        <ele>382.3</ele>
        <time>2017-02-12T11:27:24Z</time>
      </trkpt>
      <trkpt lat="38.294484" lon="-1.369192">
        <ele>382.3</ele>
        <time>2017-02-12T11:27:49Z</time>
      </trkpt>
      <trkpt lat="38.294101" lon="-1.369331">
        <ele>382.7</ele>
        <time>2017-02-12T11:28:19Z</time>
      </trkpt>
      <trkpt lat="38.293804" lon="-1.369415">
        <ele>382.3</ele>
        <time>2017-02-12T11:28:41Z</time>
      </trkpt>
      <trkpt lat="38.293579" lon="-1.369500">
        <ele>382.3</ele>
        <time>2017-02-12T11:28:58Z</time>
      </trkpt>
      <trkpt lat="38.293371" lon="-1.369579">
        <ele>382.3</ele>
        <time>2017-02-12T11:29:14Z</time>
      </trkpt>
      <trkpt lat="38.293269" lon="-1.369615">
        <ele>382.3</ele>
        <time>2017-02-12T11:29:22Z</time>
      </trkpt>
      <trkpt lat="38.293256" lon="-1.369610">
        <ele>381.8</ele>
        <time>2017-02-12T11:29:23Z</time>
      </trkpt>
      <trkpt lat="38.293242" lon="-1.369609">
        <ele>382.3</ele>
        <time>2017-02-12T11:29:24Z</time>
      </trkpt>
      <trkpt lat="38.293229" lon="-1.369610">
        <ele>382.3</ele>
        <time>2017-02-12T11:29:25Z</time>
      </trkpt>
      <trkpt lat="38.293215" lon="-1.369613">
        <ele>381.8</ele>
        <time>2017-02-12T11:29:26Z</time>
      </trkpt>
      <trkpt lat="38.293202" lon="-1.369617">
        <ele>382.3</ele>
        <time>2017-02-12T11:29:27Z</time>
      </trkpt>
      <trkpt lat="38.293187" lon="-1.369621">
        <ele>381.8</ele>
        <time>2017-02-12T11:29:28Z</time>
      </trkpt>
      <trkpt lat="38.293000" lon="-1.369626">
        <ele>379.4</ele>
        <time>2017-02-12T11:29:44Z</time>
      </trkpt>
      <trkpt lat="38.292964" lon="-1.369632">
        <ele>378.9</ele>
        <time>2017-02-12T11:30:39Z</time>
      </trkpt>
      <trkpt lat="38.292955" lon="-1.369615">
        <ele>378.4</ele>
        <time>2017-02-12T11:30:40Z</time>
      </trkpt>
      <trkpt lat="38.292937" lon="-1.369603">
        <ele>378.4</ele>
        <time>2017-02-12T11:30:41Z</time>
      </trkpt>
      <trkpt lat="38.292914" lon="-1.369591">
        <ele>378.9</ele>
        <time>2017-02-12T11:30:42Z</time>
      </trkpt>
      <trkpt lat="38.292897" lon="-1.369588">
        <ele>378.4</ele>
        <time>2017-02-12T11:30:43Z</time>
      </trkpt>
      <trkpt lat="38.292879" lon="-1.369590">
        <ele>378.4</ele>
        <time>2017-02-12T11:30:44Z</time>
      </trkpt>
      <trkpt lat="38.292863" lon="-1.369590">
        <ele>378.4</ele>
        <time>2017-02-12T11:30:45Z</time>
      </trkpt>
      <trkpt lat="38.292847" lon="-1.369590">
        <ele>377.9</ele>
        <time>2017-02-12T11:30:46Z</time>
      </trkpt>
      <trkpt lat="38.292831" lon="-1.369591">
        <ele>377.5</ele>
        <time>2017-02-12T11:30:47Z</time>
      </trkpt>
      <trkpt lat="38.292816" lon="-1.369592">
        <ele>378.4</ele>
        <time>2017-02-12T11:30:48Z</time>
      </trkpt>
      <trkpt lat="38.292799" lon="-1.369593">
        <ele>377.5</ele>
        <time>2017-02-12T11:30:49Z</time>
      </trkpt>
      <trkpt lat="38.292787" lon="-1.369592">
        <ele>377.5</ele>
        <time>2017-02-12T11:30:50Z</time>
      </trkpt>
      <trkpt lat="38.292527" lon="-1.369558">
        <ele>375.5</ele>
        <time>2017-02-12T11:31:08Z</time>
      </trkpt>
      <trkpt lat="38.292389" lon="-1.369527">
        <ele>373.6</ele>
        <time>2017-02-12T11:31:13Z</time>
      </trkpt>
      <trkpt lat="38.292358" lon="-1.369522">
        <ele>369.8</ele>
        <time>2017-02-12T11:31:14Z</time>
      </trkpt>
      <trkpt lat="38.292330" lon="-1.369516">
        <ele>369.8</ele>
        <time>2017-02-12T11:31:15Z</time>
      </trkpt>
      <trkpt lat="38.292303" lon="-1.369512">
        <ele>375.0</ele>
        <time>2017-02-12T11:31:16Z</time>
      </trkpt>
      <trkpt lat="38.292276" lon="-1.369508">
        <ele>373.6</ele>
        <time>2017-02-12T11:31:17Z</time>
      </trkpt>
      <trkpt lat="38.292104" lon="-1.369488">
        <ele>370.7</ele>
        <time>2017-02-12T11:31:23Z</time>
      </trkpt>
      <trkpt lat="38.291739" lon="-1.369443">
        <ele>371.2</ele>
        <time>2017-02-12T11:31:36Z</time>
      </trkpt>
      <trkpt lat="38.291373" lon="-1.369327">
        <ele>370.2</ele>
        <time>2017-02-12T11:31:50Z</time>
      </trkpt>
      <trkpt lat="38.291200" lon="-1.369182">
        <ele>368.8</ele>
        <time>2017-02-12T11:32:01Z</time>
      </trkpt>
      <trkpt lat="38.291188" lon="-1.369173">
        <ele>368.8</ele>
        <time>2017-02-12T11:32:02Z</time>
      </trkpt>
      <trkpt lat="38.290980" lon="-1.368946">
        <ele>367.8</ele>
        <time>2017-02-12T11:32:23Z</time>
      </trkpt>
      <trkpt lat="38.290794" lon="-1.368747">
        <ele>368.3</ele>
        <time>2017-02-12T11:32:40Z</time>
      </trkpt>
      <trkpt lat="38.290634" lon="-1.368668">
        <ele>368.8</ele>
        <time>2017-02-12T11:32:53Z</time>
      </trkpt>
      <trkpt lat="38.290622" lon="-1.368673">
        <ele>368.8</ele>
        <time>2017-02-12T11:32:54Z</time>
      </trkpt>
      <trkpt lat="38.290610" lon="-1.368676">
        <ele>368.3</ele>
        <time>2017-02-12T11:32:55Z</time>
      </trkpt>
      <trkpt lat="38.290597" lon="-1.368680">
        <ele>368.3</ele>
        <time>2017-02-12T11:32:56Z</time>
      </trkpt>
      <trkpt lat="38.290584" lon="-1.368685">
        <ele>368.3</ele>
        <time>2017-02-12T11:32:57Z</time>
      </trkpt>
      <trkpt lat="38.290362" lon="-1.368773">
        <ele>368.3</ele>
        <time>2017-02-12T11:33:14Z</time>
      </trkpt>
      <trkpt lat="38.290158" lon="-1.368778">
        <ele>367.8</ele>
        <time>2017-02-12T11:33:29Z</time>
      </trkpt>
      <trkpt lat="38.289957" lon="-1.368771">
        <ele>367.4</ele>
        <time>2017-02-12T11:33:45Z</time>
      </trkpt>
      <trkpt lat="38.289736" lon="-1.368797">
        <ele>366.4</ele>
        <time>2017-02-12T11:34:02Z</time>
      </trkpt>
      <trkpt lat="38.289565" lon="-1.368836">
        <ele>365.9</ele>
        <time>2017-02-12T11:34:17Z</time>
      </trkpt>
      <trkpt lat="38.289543" lon="-1.368837">
        <ele>365.0</ele>
        <time>2017-02-12T11:34:21Z</time>
      </trkpt>
      <trkpt lat="38.289528" lon="-1.368836">
        <ele>365.0</ele>
        <time>2017-02-12T11:34:22Z</time>
      </trkpt>
      <trkpt lat="38.289512" lon="-1.368834">
        <ele>365.0</ele>
        <time>2017-02-12T11:34:23Z</time>
      </trkpt>
      <trkpt lat="38.289273" lon="-1.368852">
        <ele>363.5</ele>
        <time>2017-02-12T11:34:40Z</time>
      </trkpt>
      <trkpt lat="38.289082" lon="-1.368898">
        <ele>362.1</ele>
        <time>2017-02-12T11:34:54Z</time>
      </trkpt>
      <trkpt lat="38.288879" lon="-1.369049">
        <ele>361.6</ele>
        <time>2017-02-12T11:35:11Z</time>
      </trkpt>
      <trkpt lat="38.288692" lon="-1.369104">
        <ele>359.7</ele>
        <time>2017-02-12T11:35:28Z</time>
      </trkpt>
      <trkpt lat="38.288680" lon="-1.369094">
        <ele>359.7</ele>
        <time>2017-02-12T11:35:30Z</time>
      </trkpt>
      <trkpt lat="38.288664" lon="-1.369088">
        <ele>359.7</ele>
        <time>2017-02-12T11:35:31Z</time>
      </trkpt>
      <trkpt lat="38.288645" lon="-1.369088">
        <ele>359.2</ele>
        <time>2017-02-12T11:35:32Z</time>
      </trkpt>
      <trkpt lat="38.288410" lon="-1.369116">
        <ele>357.3</ele>
        <time>2017-02-12T11:35:49Z</time>
      </trkpt>
      <trkpt lat="38.288154" lon="-1.369135">
        <ele>355.3</ele>
        <time>2017-02-12T11:36:08Z</time>
      </trkpt>
      <trkpt lat="38.287923" lon="-1.369169">
        <ele>352.9</ele>
        <time>2017-02-12T11:37:57Z</time>
      </trkpt>
      <trkpt lat="38.287520" lon="-1.369161">
        <ele>351.0</ele>
        <time>2017-02-12T11:55:29Z</time>
      </trkpt>
      <trkpt lat="38.287361" lon="-1.368948">
        <ele>352.0</ele>
        <time>2017-02-12T11:55:58Z</time>
      </trkpt>
      <trkpt lat="38.287328" lon="-1.368878">
        <ele>352.0</ele>
        <time>2017-02-12T11:56:09Z</time>
      </trkpt>
      <trkpt lat="38.287267" lon="-1.368816">
        <ele>352.0</ele>
        <time>2017-02-12T11:56:15Z</time>
      </trkpt>
      <trkpt lat="38.287255" lon="-1.368803">
        <ele>352.0</ele>
        <time>2017-02-12T11:56:16Z</time>
      </trkpt>
      <trkpt lat="38.287246" lon="-1.368790">
        <ele>352.0</ele>
        <time>2017-02-12T11:56:17Z</time>
      </trkpt>
      <trkpt lat="38.287238" lon="-1.368780">
        <ele>352.9</ele>
        <time>2017-02-12T11:56:18Z</time>
      </trkpt>
      <trkpt lat="38.287228" lon="-1.368769">
        <ele>352.5</ele>
        <time>2017-02-12T11:56:19Z</time>
      </trkpt>
      <trkpt lat="38.287123" lon="-1.368632">
        <ele>352.5</ele>
        <time>2017-02-12T11:56:31Z</time>
      </trkpt>
      <trkpt lat="38.287103" lon="-1.368614">
        <ele>352.5</ele>
        <time>2017-02-12T11:56:34Z</time>
      </trkpt>
      <trkpt lat="38.286969" lon="-1.368438">
        <ele>352.9</ele>
        <time>2017-02-12T11:56:48Z</time>
      </trkpt>
      <trkpt lat="38.286847" lon="-1.368270">
        <ele>352.5</ele>
        <time>2017-02-12T11:57:01Z</time>
      </trkpt>
      <trkpt lat="38.286845" lon="-1.368263">
        <ele>352.5</ele>
        <time>2017-02-12T11:57:04Z</time>
      </trkpt>
      <trkpt lat="38.286838" lon="-1.368249">
        <ele>352.5</ele>
        <time>2017-02-12T11:57:05Z</time>
      </trkpt>
      <trkpt lat="38.286826" lon="-1.368231">
        <ele>352.5</ele>
        <time>2017-02-12T11:57:06Z</time>
      </trkpt>
      <trkpt lat="38.286710" lon="-1.368036">
        <ele>352.5</ele>
        <time>2017-02-12T11:57:20Z</time>
      </trkpt>
      <trkpt lat="38.286637" lon="-1.367955">
        <ele>352.5</ele>
        <time>2017-02-12T11:57:27Z</time>
      </trkpt>
      <trkpt lat="38.286631" lon="-1.367941">
        <ele>352.5</ele>
        <time>2017-02-12T11:57:28Z</time>
      </trkpt>
      <trkpt lat="38.286580" lon="-1.367850">
        <ele>351.5</ele>
        <time>2017-02-12T11:57:35Z</time>
      </trkpt>
      <trkpt lat="38.286576" lon="-1.367835">
        <ele>352.5</ele>
        <time>2017-02-12T11:57:36Z</time>
      </trkpt>
      <trkpt lat="38.286567" lon="-1.367820">
        <ele>352.0</ele>
        <time>2017-02-12T11:57:37Z</time>
      </trkpt>
      <trkpt lat="38.286433" lon="-1.367629">
        <ele>351.5</ele>
        <time>2017-02-12T11:57:52Z</time>
      </trkpt>
      <trkpt lat="38.286281" lon="-1.367445">
        <ele>351.5</ele>
        <time>2017-02-12T11:58:07Z</time>
      </trkpt>
      <trkpt lat="38.286272" lon="-1.367444">
        <ele>351.5</ele>
        <time>2017-02-12T11:58:09Z</time>
      </trkpt>
      <trkpt lat="38.286263" lon="-1.367435">
        <ele>352.0</ele>
        <time>2017-02-12T11:58:10Z</time>
      </trkpt>
      <trkpt lat="38.286101" lon="-1.367238">
        <ele>351.0</ele>
        <time>2017-02-12T11:58:25Z</time>
      </trkpt>
      <trkpt lat="38.285939" lon="-1.367058">
        <ele>350.5</ele>
        <time>2017-02-12T11:58:40Z</time>
      </trkpt>
      <trkpt lat="38.285840" lon="-1.366936">
        <ele>350.5</ele>
        <time>2017-02-12T11:58:49Z</time>
      </trkpt>
      <trkpt lat="38.285824" lon="-1.366929">
        <ele>350.1</ele>
        <time>2017-02-12T11:58:50Z</time>
      </trkpt>
      <trkpt lat="38.285808" lon="-1.366925">
        <ele>350.1</ele>
        <time>2017-02-12T11:58:51Z</time>
      </trkpt>
      <trkpt lat="38.285795" lon="-1.366918">
        <ele>350.1</ele>
        <time>2017-02-12T11:58:52Z</time>
      </trkpt>
      <trkpt lat="38.285784" lon="-1.366909">
        <ele>350.1</ele>
        <time>2017-02-12T11:58:53Z</time>
      </trkpt>
      <trkpt lat="38.285774" lon="-1.366899">
        <ele>350.1</ele>
        <time>2017-02-12T11:58:54Z</time>
      </trkpt>
      <trkpt lat="38.285762" lon="-1.366890">
        <ele>349.6</ele>
        <time>2017-02-12T11:58:55Z</time>
      </trkpt>
      <trkpt lat="38.285755" lon="-1.366877">
        <ele>350.1</ele>
        <time>2017-02-12T11:58:56Z</time>
      </trkpt>
      <trkpt lat="38.285745" lon="-1.366864">
        <ele>349.6</ele>
        <time>2017-02-12T11:58:57Z</time>
      </trkpt>
      <trkpt lat="38.285739" lon="-1.366851">
        <ele>349.6</ele>
        <time>2017-02-12T11:58:58Z</time>
      </trkpt>
      <trkpt lat="38.285728" lon="-1.366841">
        <ele>350.1</ele>
        <time>2017-02-12T11:58:59Z</time>
      </trkpt>
      <trkpt lat="38.285665" lon="-1.366732">
        <ele>349.6</ele>
        <time>2017-02-12T11:59:07Z</time>
      </trkpt>
      <trkpt lat="38.285654" lon="-1.366723">
        <ele>349.6</ele>
        <time>2017-02-12T11:59:08Z</time>
      </trkpt>
      <trkpt lat="38.285527" lon="-1.366563">
        <ele>349.6</ele>
        <time>2017-02-12T11:59:21Z</time>
      </trkpt>
      <trkpt lat="38.285515" lon="-1.366555">
        <ele>349.6</ele>
        <time>2017-02-12T11:59:22Z</time>
      </trkpt>
      <trkpt lat="38.285504" lon="-1.366542">
        <ele>349.6</ele>
        <time>2017-02-12T11:59:23Z</time>
      </trkpt>
      <trkpt lat="38.285495" lon="-1.366532">
        <ele>349.6</ele>
        <time>2017-02-12T11:59:24Z</time>
      </trkpt>
      <trkpt lat="38.285487" lon="-1.366519">
        <ele>350.1</ele>
        <time>2017-02-12T11:59:25Z</time>
      </trkpt>
      <trkpt lat="38.285476" lon="-1.366508">
        <ele>349.6</ele>
        <time>2017-02-12T11:59:26Z</time>
      </trkpt>
      <trkpt lat="38.285466" lon="-1.366497">
        <ele>349.6</ele>
        <time>2017-02-12T11:59:27Z</time>
      </trkpt>
      <trkpt lat="38.285454" lon="-1.366489">
        <ele>350.1</ele>
        <time>2017-02-12T11:59:28Z</time>
      </trkpt>
      <trkpt lat="38.285440" lon="-1.366480">
        <ele>349.1</ele>
        <time>2017-02-12T11:59:29Z</time>
      </trkpt>
      <trkpt lat="38.285427" lon="-1.366473">
        <ele>349.6</ele>
        <time>2017-02-12T11:59:30Z</time>
      </trkpt>
      <trkpt lat="38.285262" lon="-1.366362">
        <ele>349.6</ele>
        <time>2017-02-12T11:59:45Z</time>
      </trkpt>
      <trkpt lat="38.285216" lon="-1.366335">
        <ele>350.1</ele>
        <time>2017-02-12T11:59:50Z</time>
      </trkpt>
      <trkpt lat="38.285202" lon="-1.366333">
        <ele>350.1</ele>
        <time>2017-02-12T11:59:51Z</time>
      </trkpt>
      <trkpt lat="38.285185" lon="-1.366331">
        <ele>349.6</ele>
        <time>2017-02-12T11:59:52Z</time>
      </trkpt>
      <trkpt lat="38.285000" lon="-1.366252">
        <ele>350.1</ele>
        <time>2017-02-12T12:00:06Z</time>
      </trkpt>
      <trkpt lat="38.284798" lon="-1.366184">
        <ele>351.0</ele>
        <time>2017-02-12T12:00:22Z</time>
      </trkpt>
      <trkpt lat="38.284752" lon="-1.366174">
        <ele>351.0</ele>
        <time>2017-02-12T12:00:28Z</time>
      </trkpt>
      <trkpt lat="38.284738" lon="-1.366168">
        <ele>352.0</ele>
        <time>2017-02-12T12:00:29Z</time>
      </trkpt>
      <trkpt lat="38.284726" lon="-1.366158">
        <ele>352.0</ele>
        <time>2017-02-12T12:00:30Z</time>
      </trkpt>
      <trkpt lat="38.284713" lon="-1.366148">
        <ele>351.5</ele>
        <time>2017-02-12T12:00:31Z</time>
      </trkpt>
      <trkpt lat="38.284700" lon="-1.366140">
        <ele>351.0</ele>
        <time>2017-02-12T12:00:32Z</time>
      </trkpt>
      <trkpt lat="38.284508" lon="-1.366089">
        <ele>352.5</ele>
        <time>2017-02-12T12:00:45Z</time>
      </trkpt>
      <trkpt lat="38.284402" lon="-1.366056">
        <ele>352.9</ele>
        <time>2017-02-12T12:00:53Z</time>
      </trkpt>
      <trkpt lat="38.284386" lon="-1.366060">
        <ele>352.9</ele>
        <time>2017-02-12T12:00:54Z</time>
      </trkpt>
      <trkpt lat="38.284367" lon="-1.366061">
        <ele>352.9</ele>
        <time>2017-02-12T12:00:55Z</time>
      </trkpt>
      <trkpt lat="38.284352" lon="-1.366059">
        <ele>352.9</ele>
        <time>2017-02-12T12:00:56Z</time>
      </trkpt>
      <trkpt lat="38.284338" lon="-1.366056">
        <ele>353.4</ele>
        <time>2017-02-12T12:00:57Z</time>
      </trkpt>
      <trkpt lat="38.284325" lon="-1.366054">
        <ele>353.4</ele>
        <time>2017-02-12T12:00:58Z</time>
      </trkpt>
      <trkpt lat="38.284313" lon="-1.366052">
        <ele>353.4</ele>
        <time>2017-02-12T12:00:59Z</time>
      </trkpt>
      <trkpt lat="38.284300" lon="-1.366050">
        <ele>353.4</ele>
        <time>2017-02-12T12:01:00Z</time>
      </trkpt>
      <trkpt lat="38.284289" lon="-1.366049">
        <ele>353.4</ele>
        <time>2017-02-12T12:01:01Z</time>
      </trkpt>
      <trkpt lat="38.284277" lon="-1.366048">
        <ele>353.4</ele>
        <time>2017-02-12T12:01:02Z</time>
      </trkpt>
      <trkpt lat="38.284214" lon="-1.366036">
        <ele>353.9</ele>
        <time>2017-02-12T12:01:07Z</time>
      </trkpt>
      <trkpt lat="38.284201" lon="-1.366034">
        <ele>353.9</ele>
        <time>2017-02-12T12:01:08Z</time>
      </trkpt>
      <trkpt lat="38.284187" lon="-1.366034">
        <ele>353.9</ele>
        <time>2017-02-12T12:01:09Z</time>
      </trkpt>
      <trkpt lat="38.284158" lon="-1.366034">
        <ele>354.4</ele>
        <time>2017-02-12T12:01:11Z</time>
      </trkpt>
      <trkpt lat="38.284148" lon="-1.366038">
        <ele>353.9</ele>
        <time>2017-02-12T12:01:12Z</time>
      </trkpt>
      <trkpt lat="38.284135" lon="-1.366039">
        <ele>354.4</ele>
        <time>2017-02-12T12:01:13Z</time>
      </trkpt>
      <trkpt lat="38.284122" lon="-1.366039">
        <ele>354.4</ele>
        <time>2017-02-12T12:01:14Z</time>
      </trkpt>
      <trkpt lat="38.284109" lon="-1.366039">
        <ele>354.4</ele>
        <time>2017-02-12T12:01:15Z</time>
      </trkpt>
      <trkpt lat="38.284094" lon="-1.366035">
        <ele>353.9</ele>
        <time>2017-02-12T12:01:16Z</time>
      </trkpt>
      <trkpt lat="38.284081" lon="-1.366029">
        <ele>353.9</ele>
        <time>2017-02-12T12:01:17Z</time>
      </trkpt>
      <trkpt lat="38.284065" lon="-1.366024">
        <ele>354.4</ele>
        <time>2017-02-12T12:01:18Z</time>
      </trkpt>
      <trkpt lat="38.284037" lon="-1.366017">
        <ele>354.9</ele>
        <time>2017-02-12T12:01:20Z</time>
      </trkpt>
      <trkpt lat="38.283997" lon="-1.366017">
        <ele>354.9</ele>
        <time>2017-02-12T12:01:24Z</time>
      </trkpt>
      <trkpt lat="38.283987" lon="-1.366019">
        <ele>355.3</ele>
        <time>2017-02-12T12:01:25Z</time>
      </trkpt>
      <trkpt lat="38.283972" lon="-1.366021">
        <ele>355.3</ele>
        <time>2017-02-12T12:01:26Z</time>
      </trkpt>
      <trkpt lat="38.283959" lon="-1.366020">
        <ele>355.3</ele>
        <time>2017-02-12T12:01:27Z</time>
      </trkpt>
      <trkpt lat="38.283950" lon="-1.366020">
        <ele>355.3</ele>
        <time>2017-02-12T12:01:28Z</time>
      </trkpt>
      <trkpt lat="38.283749" lon="-1.366047">
        <ele>356.3</ele>
        <time>2017-02-12T12:01:43Z</time>
      </trkpt>
      <trkpt lat="38.283548" lon="-1.366071">
        <ele>357.3</ele>
        <time>2017-02-12T12:01:59Z</time>
      </trkpt>
      <trkpt lat="38.283514" lon="-1.366075">
        <ele>357.8</ele>
        <time>2017-02-12T12:02:02Z</time>
      </trkpt>
      <trkpt lat="38.283502" lon="-1.366076">
        <ele>357.8</ele>
        <time>2017-02-12T12:02:03Z</time>
      </trkpt>
      <trkpt lat="38.283309" lon="-1.366087">
        <ele>358.2</ele>
        <time>2017-02-12T12:02:19Z</time>
      </trkpt>
      <trkpt lat="38.283103" lon="-1.366096">
        <ele>359.2</ele>
        <time>2017-02-12T12:02:35Z</time>
      </trkpt>
      <trkpt lat="38.282905" lon="-1.366110">
        <ele>359.2</ele>
        <time>2017-02-12T12:02:50Z</time>
      </trkpt>
      <trkpt lat="38.282732" lon="-1.366140">
        <ele>359.7</ele>
        <time>2017-02-12T12:03:04Z</time>
      </trkpt>
      <trkpt lat="38.282508" lon="-1.366187">
        <ele>360.1</ele>
        <time>2017-02-12T12:03:22Z</time>
      </trkpt>
      <trkpt lat="38.282451" lon="-1.366222">
        <ele>360.6</ele>
        <time>2017-02-12T12:03:28Z</time>
      </trkpt>
      <trkpt lat="38.282442" lon="-1.366230">
        <ele>360.6</ele>
        <time>2017-02-12T12:03:29Z</time>
      </trkpt>
      <trkpt lat="38.282251" lon="-1.366326">
        <ele>361.1</ele>
        <time>2017-02-12T12:03:45Z</time>
      </trkpt>
      <trkpt lat="38.282044" lon="-1.366423">
        <ele>363.0</ele>
        <time>2017-02-12T12:04:03Z</time>
      </trkpt>
      <trkpt lat="38.281923" lon="-1.366476">
        <ele>364.0</ele>
        <time>2017-02-12T12:04:15Z</time>
      </trkpt>
      <trkpt lat="38.281787" lon="-1.366620">
        <ele>365.4</ele>
        <time>2017-02-12T12:04:31Z</time>
      </trkpt>
      <trkpt lat="38.281689" lon="-1.366808">
        <ele>366.9</ele>
        <time>2017-02-12T12:04:45Z</time>
      </trkpt>
      <trkpt lat="38.281637" lon="-1.366917">
        <ele>367.8</ele>
        <time>2017-02-12T12:04:54Z</time>
      </trkpt>
      <trkpt lat="38.281632" lon="-1.366929">
        <ele>367.4</ele>
        <time>2017-02-12T12:04:55Z</time>
      </trkpt>
      <trkpt lat="38.281624" lon="-1.366939">
        <ele>367.8</ele>
        <time>2017-02-12T12:04:56Z</time>
      </trkpt>
      <trkpt lat="38.281618" lon="-1.366951">
        <ele>368.3</ele>
        <time>2017-02-12T12:04:57Z</time>
      </trkpt>
      <trkpt lat="38.281613" lon="-1.366964">
        <ele>368.3</ele>
        <time>2017-02-12T12:04:58Z</time>
      </trkpt>
      <trkpt lat="38.281609" lon="-1.366978">
        <ele>367.8</ele>
        <time>2017-02-12T12:04:59Z</time>
      </trkpt>
      <trkpt lat="38.281602" lon="-1.366995">
        <ele>368.3</ele>
        <time>2017-02-12T12:05:00Z</time>
      </trkpt>
      <trkpt lat="38.281507" lon="-1.367190">
        <ele>369.3</ele>
        <time>2017-02-12T12:05:15Z</time>
      </trkpt>
      <trkpt lat="38.281404" lon="-1.367372">
        <ele>370.7</ele>
        <time>2017-02-12T12:05:29Z</time>
      </trkpt>
      <trkpt lat="38.281257" lon="-1.367552">
        <ele>371.7</ele>
        <time>2017-02-12T12:05:44Z</time>
      </trkpt>
      <trkpt lat="38.281114" lon="-1.367737">
        <ele>372.2</ele>
        <time>2017-02-12T12:05:58Z</time>
      </trkpt>
      <trkpt lat="38.280947" lon="-1.367939">
        <ele>373.6</ele>
        <time>2017-02-12T12:06:13Z</time>
      </trkpt>
      <trkpt lat="38.280937" lon="-1.367948">
        <ele>373.1</ele>
        <time>2017-02-12T12:06:14Z</time>
      </trkpt>
      <trkpt lat="38.280842" lon="-1.368034">
        <ele>373.1</ele>
        <time>2017-02-12T12:06:29Z</time>
      </trkpt>
      <trkpt lat="38.280760" lon="-1.368073">
        <ele>374.1</ele>
        <time>2017-02-12T12:06:41Z</time>
      </trkpt>
      <trkpt lat="38.280717" lon="-1.368074">
        <ele>374.1</ele>
        <time>2017-02-12T12:06:52Z</time>
      </trkpt>
      <trkpt lat="38.280706" lon="-1.368068">
        <ele>373.6</ele>
        <time>2017-02-12T12:06:53Z</time>
      </trkpt>
      <trkpt lat="38.280692" lon="-1.368067">
        <ele>373.6</ele>
        <time>2017-02-12T12:06:54Z</time>
      </trkpt>
      <trkpt lat="38.280685" lon="-1.368082">
        <ele>373.6</ele>
        <time>2017-02-12T12:07:03Z</time>
      </trkpt>
      <trkpt lat="38.280670" lon="-1.368084">
        <ele>373.6</ele>
        <time>2017-02-12T12:07:04Z</time>
      </trkpt>
      <trkpt lat="38.280423" lon="-1.368057">
        <ele>374.1</ele>
        <time>2017-02-12T12:07:22Z</time>
      </trkpt>
      <trkpt lat="38.280164" lon="-1.367935">
        <ele>374.1</ele>
        <time>2017-02-12T12:07:41Z</time>
      </trkpt>
      <trkpt lat="38.280111" lon="-1.367956">
        <ele>374.6</ele>
        <time>2017-02-12T12:07:48Z</time>
      </trkpt>
      <trkpt lat="38.280096" lon="-1.367963">
        <ele>374.6</ele>
        <time>2017-02-12T12:07:49Z</time>
      </trkpt>
      <trkpt lat="38.280044" lon="-1.368003">
        <ele>374.6</ele>
        <time>2017-02-12T12:07:56Z</time>
      </trkpt>
      <trkpt lat="38.280032" lon="-1.368010">
        <ele>374.1</ele>
        <time>2017-02-12T12:07:57Z</time>
      </trkpt>
      <trkpt lat="38.279866" lon="-1.368236">
        <ele>374.6</ele>
        <time>2017-02-12T12:08:13Z</time>
      </trkpt>
      <trkpt lat="38.279728" lon="-1.368526">
        <ele>375.0</ele>
        <time>2017-02-12T12:08:31Z</time>
      </trkpt>
      <trkpt lat="38.279630" lon="-1.368806">
        <ele>376.0</ele>
        <time>2017-02-12T12:08:47Z</time>
      </trkpt>
      <trkpt lat="38.279551" lon="-1.369011">
        <ele>376.5</ele>
        <time>2017-02-12T12:09:01Z</time>
      </trkpt>
      <trkpt lat="38.279564" lon="-1.369129">
        <ele>377.0</ele>
        <time>2017-02-12T12:09:10Z</time>
      </trkpt>
      <trkpt lat="38.279563" lon="-1.369146">
        <ele>376.5</ele>
        <time>2017-02-12T12:09:11Z</time>
      </trkpt>
      <trkpt lat="38.279561" lon="-1.369164">
        <ele>377.0</ele>
        <time>2017-02-12T12:09:12Z</time>
      </trkpt>
      <trkpt lat="38.279559" lon="-1.369183">
        <ele>377.0</ele>
        <time>2017-02-12T12:09:13Z</time>
      </trkpt>
      <trkpt lat="38.279555" lon="-1.369203">
        <ele>376.5</ele>
        <time>2017-02-12T12:09:14Z</time>
      </trkpt>
      <trkpt lat="38.279552" lon="-1.369221">
        <ele>377.5</ele>
        <time>2017-02-12T12:09:15Z</time>
      </trkpt>
      <trkpt lat="38.279502" lon="-1.369428">
        <ele>377.5</ele>
        <time>2017-02-12T12:09:28Z</time>
      </trkpt>
      <trkpt lat="38.279489" lon="-1.369525">
        <ele>378.4</ele>
        <time>2017-02-12T12:09:33Z</time>
      </trkpt>
      <trkpt lat="38.279491" lon="-1.369541">
        <ele>378.4</ele>
        <time>2017-02-12T12:09:34Z</time>
      </trkpt>
      <trkpt lat="38.279492" lon="-1.369561">
        <ele>378.4</ele>
        <time>2017-02-12T12:09:35Z</time>
      </trkpt>
      <trkpt lat="38.279497" lon="-1.369580">
        <ele>378.4</ele>
        <time>2017-02-12T12:09:36Z</time>
      </trkpt>
      <trkpt lat="38.279503" lon="-1.369600">
        <ele>377.9</ele>
        <time>2017-02-12T12:09:37Z</time>
      </trkpt>
      <trkpt lat="38.279507" lon="-1.369620">
        <ele>378.4</ele>
        <time>2017-02-12T12:09:38Z</time>
      </trkpt>
      <trkpt lat="38.279508" lon="-1.369641">
        <ele>378.4</ele>
        <time>2017-02-12T12:09:39Z</time>
      </trkpt>
      <trkpt lat="38.279508" lon="-1.369660">
        <ele>377.9</ele>
        <time>2017-02-12T12:09:40Z</time>
      </trkpt>
      <trkpt lat="38.279512" lon="-1.369680">
        <ele>378.9</ele>
        <time>2017-02-12T12:09:41Z</time>
      </trkpt>
      <trkpt lat="38.279519" lon="-1.369700">
        <ele>378.4</ele>
        <time>2017-02-12T12:09:42Z</time>
      </trkpt>
      <trkpt lat="38.279521" lon="-1.369720">
        <ele>378.4</ele>
        <time>2017-02-12T12:09:43Z</time>
      </trkpt>
      <trkpt lat="38.279523" lon="-1.369740">
        <ele>378.4</ele>
        <time>2017-02-12T12:09:44Z</time>
      </trkpt>
      <trkpt lat="38.279514" lon="-1.370048">
        <ele>379.9</ele>
        <time>2017-02-12T12:10:01Z</time>
      </trkpt>
      <trkpt lat="38.279504" lon="-1.370069">
        <ele>379.9</ele>
        <time>2017-02-12T12:10:02Z</time>
      </trkpt>
      <trkpt lat="38.279495" lon="-1.370088">
        <ele>379.4</ele>
        <time>2017-02-12T12:10:03Z</time>
      </trkpt>
      <trkpt lat="38.279342" lon="-1.370382">
        <ele>379.9</ele>
        <time>2017-02-12T12:10:21Z</time>
      </trkpt>
      <trkpt lat="38.279252" lon="-1.370738">
        <ele>379.9</ele>
        <time>2017-02-12T12:10:40Z</time>
      </trkpt>
      <trkpt lat="38.279250" lon="-1.370876">
        <ele>380.8</ele>
        <time>2017-02-12T12:10:48Z</time>
      </trkpt>
      <trkpt lat="38.279254" lon="-1.370892">
        <ele>380.3</ele>
        <time>2017-02-12T12:10:49Z</time>
      </trkpt>
      <trkpt lat="38.279254" lon="-1.370911">
        <ele>380.3</ele>
        <time>2017-02-12T12:10:50Z</time>
      </trkpt>
      <trkpt lat="38.279254" lon="-1.370933">
        <ele>380.3</ele>
        <time>2017-02-12T12:10:51Z</time>
      </trkpt>
      <trkpt lat="38.279257" lon="-1.370955">
        <ele>380.8</ele>
        <time>2017-02-12T12:10:52Z</time>
      </trkpt>
      <trkpt lat="38.279261" lon="-1.370979">
        <ele>380.8</ele>
        <time>2017-02-12T12:10:53Z</time>
      </trkpt>
      <trkpt lat="38.279268" lon="-1.370999">
        <ele>380.8</ele>
        <time>2017-02-12T12:10:54Z</time>
      </trkpt>
      <trkpt lat="38.279288" lon="-1.371110">
        <ele>381.3</ele>
        <time>2017-02-12T12:10:59Z</time>
      </trkpt>
      <trkpt lat="38.279294" lon="-1.371128">
        <ele>381.3</ele>
        <time>2017-02-12T12:11:00Z</time>
      </trkpt>
      <trkpt lat="38.279294" lon="-1.371148">
        <ele>381.3</ele>
        <time>2017-02-12T12:11:01Z</time>
      </trkpt>
      <trkpt lat="38.279299" lon="-1.371166">
        <ele>381.8</ele>
        <time>2017-02-12T12:11:02Z</time>
      </trkpt>
      <trkpt lat="38.279304" lon="-1.371182">
        <ele>381.8</ele>
        <time>2017-02-12T12:11:03Z</time>
      </trkpt>
      <trkpt lat="38.279308" lon="-1.371199">
        <ele>381.3</ele>
        <time>2017-02-12T12:11:04Z</time>
      </trkpt>
      <trkpt lat="38.279317" lon="-1.371303">
        <ele>381.8</ele>
        <time>2017-02-12T12:11:10Z</time>
      </trkpt>
      <trkpt lat="38.279337" lon="-1.371424">
        <ele>381.8</ele>
        <time>2017-02-12T12:11:17Z</time>
      </trkpt>
      <trkpt lat="38.279313" lon="-1.371453">
        <ele>382.7</ele>
        <time>2017-02-12T12:11:20Z</time>
      </trkpt>
      <trkpt lat="38.279180" lon="-1.371711">
        <ele>380.3</ele>
        <time>2017-02-12T12:11:37Z</time>
      </trkpt>
      <trkpt lat="38.278971" lon="-1.371863">
        <ele>378.9</ele>
        <time>2017-02-12T12:11:53Z</time>
      </trkpt>
      <trkpt lat="38.278822" lon="-1.371990">
        <ele>378.4</ele>
        <time>2017-02-12T12:12:06Z</time>
      </trkpt>
      <trkpt lat="38.278702" lon="-1.372156">
        <ele>377.9</ele>
        <time>2017-02-12T12:12:18Z</time>
      </trkpt>
      <trkpt lat="38.278599" lon="-1.372492">
        <ele>377.9</ele>
        <time>2017-02-12T12:12:33Z</time>
      </trkpt>
      <trkpt lat="38.278604" lon="-1.372746">
        <ele>378.9</ele>
        <time>2017-02-12T12:12:47Z</time>
      </trkpt>
      <trkpt lat="38.278604" lon="-1.372763">
        <ele>378.9</ele>
        <time>2017-02-12T12:12:48Z</time>
      </trkpt>
      <trkpt lat="38.278603" lon="-1.372779">
        <ele>379.4</ele>
        <time>2017-02-12T12:12:49Z</time>
      </trkpt>
      <trkpt lat="38.278604" lon="-1.372808">
        <ele>378.9</ele>
        <time>2017-02-12T12:12:51Z</time>
      </trkpt>
      <trkpt lat="38.278604" lon="-1.372826">
        <ele>379.4</ele>
        <time>2017-02-12T12:12:52Z</time>
      </trkpt>
      <trkpt lat="38.278605" lon="-1.372842">
        <ele>379.4</ele>
        <time>2017-02-12T12:12:53Z</time>
      </trkpt>
      <trkpt lat="38.278606" lon="-1.372922">
        <ele>379.4</ele>
        <time>2017-02-12T12:12:58Z</time>
      </trkpt>
      <trkpt lat="38.278608" lon="-1.372933">
        <ele>379.4</ele>
        <time>2017-02-12T12:12:59Z</time>
      </trkpt>
      <trkpt lat="38.278612" lon="-1.372946">
        <ele>379.9</ele>
        <time>2017-02-12T12:13:00Z</time>
      </trkpt>
      <trkpt lat="38.278619" lon="-1.372961">
        <ele>379.9</ele>
        <time>2017-02-12T12:13:01Z</time>
      </trkpt>
      <trkpt lat="38.278626" lon="-1.372978">
        <ele>379.9</ele>
        <time>2017-02-12T12:13:02Z</time>
      </trkpt>
      <trkpt lat="38.278634" lon="-1.372996">
        <ele>379.4</ele>
        <time>2017-02-12T12:13:03Z</time>
      </trkpt>
      <trkpt lat="38.278638" lon="-1.373017">
        <ele>380.3</ele>
        <time>2017-02-12T12:13:04Z</time>
      </trkpt>
      <trkpt lat="38.278640" lon="-1.373035">
        <ele>379.9</ele>
        <time>2017-02-12T12:13:05Z</time>
      </trkpt>
      <trkpt lat="38.278639" lon="-1.373052">
        <ele>379.4</ele>
        <time>2017-02-12T12:13:06Z</time>
      </trkpt>
      <trkpt lat="38.278636" lon="-1.373070">
        <ele>379.9</ele>
        <time>2017-02-12T12:13:07Z</time>
      </trkpt>
      <trkpt lat="38.278634" lon="-1.373088">
        <ele>379.9</ele>
        <time>2017-02-12T12:13:08Z</time>
      </trkpt>
      <trkpt lat="38.278630" lon="-1.373143">
        <ele>379.9</ele>
        <time>2017-02-12T12:13:11Z</time>
      </trkpt>
      <trkpt lat="38.278629" lon="-1.373356">
        <ele>380.8</ele>
        <time>2017-02-12T12:13:23Z</time>
      </trkpt>
      <trkpt lat="38.278646" lon="-1.373411">
        <ele>380.3</ele>
        <time>2017-02-12T12:13:27Z</time>
      </trkpt>
      <trkpt lat="38.278657" lon="-1.373423">
        <ele>380.8</ele>
        <time>2017-02-12T12:13:28Z</time>
      </trkpt>
      <trkpt lat="38.278665" lon="-1.373439">
        <ele>380.3</ele>
        <time>2017-02-12T12:13:29Z</time>
      </trkpt>
      <trkpt lat="38.278668" lon="-1.373458">
        <ele>380.3</ele>
        <time>2017-02-12T12:13:30Z</time>
      </trkpt>
      <trkpt lat="38.278668" lon="-1.373475">
        <ele>380.8</ele>
        <time>2017-02-12T12:13:31Z</time>
      </trkpt>
      <trkpt lat="38.278666" lon="-1.373493">
        <ele>380.8</ele>
        <time>2017-02-12T12:13:32Z</time>
      </trkpt>
      <trkpt lat="38.278662" lon="-1.373512">
        <ele>380.8</ele>
        <time>2017-02-12T12:13:33Z</time>
      </trkpt>
      <trkpt lat="38.278659" lon="-1.373532">
        <ele>380.8</ele>
        <time>2017-02-12T12:13:34Z</time>
      </trkpt>
      <trkpt lat="38.278656" lon="-1.373552">
        <ele>380.8</ele>
        <time>2017-02-12T12:13:35Z</time>
      </trkpt>
      <trkpt lat="38.278664" lon="-1.373642">
        <ele>380.8</ele>
        <time>2017-02-12T12:13:40Z</time>
      </trkpt>
      <trkpt lat="38.278675" lon="-1.373656">
        <ele>380.8</ele>
        <time>2017-02-12T12:13:41Z</time>
      </trkpt>
      <trkpt lat="38.278681" lon="-1.373673">
        <ele>380.8</ele>
        <time>2017-02-12T12:13:42Z</time>
      </trkpt>
      <trkpt lat="38.278683" lon="-1.373689">
        <ele>380.8</ele>
        <time>2017-02-12T12:13:43Z</time>
      </trkpt>
      <trkpt lat="38.278682" lon="-1.373706">
        <ele>380.3</ele>
        <time>2017-02-12T12:13:44Z</time>
      </trkpt>
      <trkpt lat="38.278685" lon="-1.373725">
        <ele>380.8</ele>
        <time>2017-02-12T12:13:45Z</time>
      </trkpt>
      <trkpt lat="38.278686" lon="-1.373745">
        <ele>381.3</ele>
        <time>2017-02-12T12:13:46Z</time>
      </trkpt>
      <trkpt lat="38.278682" lon="-1.373766">
        <ele>380.8</ele>
        <time>2017-02-12T12:13:47Z</time>
      </trkpt>
      <trkpt lat="38.278683" lon="-1.373784">
        <ele>381.3</ele>
        <time>2017-02-12T12:13:48Z</time>
      </trkpt>
      <trkpt lat="38.278687" lon="-1.373801">
        <ele>380.8</ele>
        <time>2017-02-12T12:13:49Z</time>
      </trkpt>
      <trkpt lat="38.278692" lon="-1.373818">
        <ele>380.8</ele>
        <time>2017-02-12T12:13:50Z</time>
      </trkpt>
      <trkpt lat="38.278696" lon="-1.373835">
        <ele>380.8</ele>
        <time>2017-02-12T12:13:51Z</time>
      </trkpt>
      <trkpt lat="38.278699" lon="-1.373852">
        <ele>380.8</ele>
        <time>2017-02-12T12:13:52Z</time>
      </trkpt>
      <trkpt lat="38.278700" lon="-1.373870">
        <ele>381.3</ele>
        <time>2017-02-12T12:13:53Z</time>
      </trkpt>
      <trkpt lat="38.278699" lon="-1.373889">
        <ele>380.8</ele>
        <time>2017-02-12T12:13:54Z</time>
      </trkpt>
      <trkpt lat="38.278691" lon="-1.373929">
        <ele>380.8</ele>
        <time>2017-02-12T12:13:56Z</time>
      </trkpt>
      <trkpt lat="38.278676" lon="-1.374126">
        <ele>380.3</ele>
        <time>2017-02-12T12:14:07Z</time>
      </trkpt>
      <trkpt lat="38.278679" lon="-1.374177">
        <ele>379.9</ele>
        <time>2017-02-12T12:14:10Z</time>
      </trkpt>
      <trkpt lat="38.278672" lon="-1.374201">
        <ele>379.9</ele>
        <time>2017-02-12T12:14:11Z</time>
      </trkpt>
      <trkpt lat="38.278666" lon="-1.374223">
        <ele>380.3</ele>
        <time>2017-02-12T12:14:12Z</time>
      </trkpt>
      <trkpt lat="38.278668" lon="-1.374310">
        <ele>380.3</ele>
        <time>2017-02-12T12:14:17Z</time>
      </trkpt>
      <trkpt lat="38.278666" lon="-1.374327">
        <ele>379.9</ele>
        <time>2017-02-12T12:14:18Z</time>
      </trkpt>
      <trkpt lat="38.278646" lon="-1.374456">
        <ele>380.3</ele>
        <time>2017-02-12T12:14:25Z</time>
      </trkpt>
      <trkpt lat="38.278668" lon="-1.374731">
        <ele>379.9</ele>
        <time>2017-02-12T12:14:40Z</time>
      </trkpt>
      <trkpt lat="38.278666" lon="-1.374954">
        <ele>379.4</ele>
        <time>2017-02-12T12:14:52Z</time>
      </trkpt>
      <trkpt lat="38.278659" lon="-1.375175">
        <ele>378.4</ele>
        <time>2017-02-12T12:15:04Z</time>
      </trkpt>
      <trkpt lat="38.278648" lon="-1.375317">
        <ele>377.9</ele>
        <time>2017-02-12T12:15:11Z</time>
      </trkpt>
      <trkpt lat="38.278652" lon="-1.375333">
        <ele>377.9</ele>
        <time>2017-02-12T12:15:12Z</time>
      </trkpt>
      <trkpt lat="38.278659" lon="-1.375627">
        <ele>376.5</ele>
        <time>2017-02-12T12:15:28Z</time>
      </trkpt>
      <trkpt lat="38.278670" lon="-1.375957">
        <ele>375.0</ele>
        <time>2017-02-12T12:15:46Z</time>
      </trkpt>
      <trkpt lat="38.278650" lon="-1.376153">
        <ele>374.1</ele>
        <time>2017-02-12T12:15:56Z</time>
      </trkpt>
      <trkpt lat="38.278682" lon="-1.376386">
        <ele>373.1</ele>
        <time>2017-02-12T12:16:10Z</time>
      </trkpt>
      <trkpt lat="38.278685" lon="-1.376493">
        <ele>372.6</ele>
        <time>2017-02-12T12:16:16Z</time>
      </trkpt>
      <trkpt lat="38.278687" lon="-1.376510">
        <ele>373.1</ele>
        <time>2017-02-12T12:16:17Z</time>
      </trkpt>
      <trkpt lat="38.278684" lon="-1.376527">
        <ele>372.6</ele>
        <time>2017-02-12T12:16:18Z</time>
      </trkpt>
      <trkpt lat="38.278681" lon="-1.376545">
        <ele>372.6</ele>
        <time>2017-02-12T12:16:19Z</time>
      </trkpt>
      <trkpt lat="38.278679" lon="-1.376567">
        <ele>372.6</ele>
        <time>2017-02-12T12:16:20Z</time>
      </trkpt>
      <trkpt lat="38.278673" lon="-1.376587">
        <ele>372.6</ele>
        <time>2017-02-12T12:16:21Z</time>
      </trkpt>
      <trkpt lat="38.278672" lon="-1.376606">
        <ele>372.6</ele>
        <time>2017-02-12T12:16:22Z</time>
      </trkpt>
      <trkpt lat="38.278670" lon="-1.376623">
        <ele>372.2</ele>
        <time>2017-02-12T12:16:23Z</time>
      </trkpt>
      <trkpt lat="38.278672" lon="-1.376642">
        <ele>372.2</ele>
        <time>2017-02-12T12:16:24Z</time>
      </trkpt>
      <trkpt lat="38.278678" lon="-1.376658">
        <ele>372.6</ele>
        <time>2017-02-12T12:16:25Z</time>
      </trkpt>
      <trkpt lat="38.278683" lon="-1.376676">
        <ele>372.6</ele>
        <time>2017-02-12T12:16:26Z</time>
      </trkpt>
      <trkpt lat="38.278682" lon="-1.376698">
        <ele>372.2</ele>
        <time>2017-02-12T12:16:27Z</time>
      </trkpt>
      <trkpt lat="38.278691" lon="-1.376895">
        <ele>372.2</ele>
        <time>2017-02-12T12:16:37Z</time>
      </trkpt>
      <trkpt lat="38.278695" lon="-1.376911">
        <ele>372.2</ele>
        <time>2017-02-12T12:16:38Z</time>
      </trkpt>
      <trkpt lat="38.278698" lon="-1.376930">
        <ele>372.2</ele>
        <time>2017-02-12T12:16:39Z</time>
      </trkpt>
      <trkpt lat="38.278703" lon="-1.376947">
        <ele>372.6</ele>
        <time>2017-02-12T12:16:40Z</time>
      </trkpt>
      <trkpt lat="38.278704" lon="-1.376963">
        <ele>372.2</ele>
        <time>2017-02-12T12:16:41Z</time>
      </trkpt>
      <trkpt lat="38.278703" lon="-1.376980">
        <ele>372.6</ele>
        <time>2017-02-12T12:16:42Z</time>
      </trkpt>
      <trkpt lat="38.278704" lon="-1.376997">
        <ele>372.6</ele>
        <time>2017-02-12T12:16:43Z</time>
      </trkpt>
      <trkpt lat="38.278705" lon="-1.377031">
        <ele>372.2</ele>
        <time>2017-02-12T12:16:45Z</time>
      </trkpt>
      <trkpt lat="38.278709" lon="-1.377046">
        <ele>372.2</ele>
        <time>2017-02-12T12:16:46Z</time>
      </trkpt>
      <trkpt lat="38.278708" lon="-1.377063">
        <ele>372.6</ele>
        <time>2017-02-12T12:16:47Z</time>
      </trkpt>
      <trkpt lat="38.278706" lon="-1.377081">
        <ele>372.6</ele>
        <time>2017-02-12T12:16:48Z</time>
      </trkpt>
      <trkpt lat="38.278704" lon="-1.377098">
        <ele>372.6</ele>
        <time>2017-02-12T12:16:49Z</time>
      </trkpt>
      <trkpt lat="38.278701" lon="-1.377115">
        <ele>372.2</ele>
        <time>2017-02-12T12:16:50Z</time>
      </trkpt>
      <trkpt lat="38.278702" lon="-1.377132">
        <ele>372.2</ele>
        <time>2017-02-12T12:16:51Z</time>
      </trkpt>
      <trkpt lat="38.278704" lon="-1.377149">
        <ele>372.6</ele>
        <time>2017-02-12T12:16:52Z</time>
      </trkpt>
      <trkpt lat="38.278726" lon="-1.377247">
        <ele>372.2</ele>
        <time>2017-02-12T12:16:58Z</time>
      </trkpt>
      <trkpt lat="38.278726" lon="-1.377266">
        <ele>372.2</ele>
        <time>2017-02-12T12:16:59Z</time>
      </trkpt>
      <trkpt lat="38.278714" lon="-1.377341">
        <ele>372.2</ele>
        <time>2017-02-12T12:17:03Z</time>
      </trkpt>
      <trkpt lat="38.278718" lon="-1.377359">
        <ele>372.2</ele>
        <time>2017-02-12T12:17:04Z</time>
      </trkpt>
      <trkpt lat="38.278721" lon="-1.377379">
        <ele>372.2</ele>
        <time>2017-02-12T12:17:05Z</time>
      </trkpt>
      <trkpt lat="38.278724" lon="-1.377398">
        <ele>372.2</ele>
        <time>2017-02-12T12:17:06Z</time>
      </trkpt>
      <trkpt lat="38.278725" lon="-1.377415">
        <ele>372.2</ele>
        <time>2017-02-12T12:17:07Z</time>
      </trkpt>
      <trkpt lat="38.278729" lon="-1.377431">
        <ele>372.2</ele>
        <time>2017-02-12T12:17:08Z</time>
      </trkpt>
      <trkpt lat="38.278735" lon="-1.377444">
        <ele>372.2</ele>
        <time>2017-02-12T12:17:09Z</time>
      </trkpt>
      <trkpt lat="38.278743" lon="-1.377498">
        <ele>371.2</ele>
        <time>2017-02-12T12:17:12Z</time>
      </trkpt>
      <trkpt lat="38.278743" lon="-1.377515">
        <ele>371.7</ele>
        <time>2017-02-12T12:17:13Z</time>
      </trkpt>
      <trkpt lat="38.278743" lon="-1.377535">
        <ele>371.2</ele>
        <time>2017-02-12T12:17:14Z</time>
      </trkpt>
      <trkpt lat="38.278740" lon="-1.377557">
        <ele>371.2</ele>
        <time>2017-02-12T12:17:15Z</time>
      </trkpt>
      <trkpt lat="38.278736" lon="-1.377579">
        <ele>371.2</ele>
        <time>2017-02-12T12:17:16Z</time>
      </trkpt>
      <trkpt lat="38.278743" lon="-1.377892">
        <ele>369.8</ele>
        <time>2017-02-12T12:17:33Z</time>
      </trkpt>
      <trkpt lat="38.278748" lon="-1.378033">
        <ele>368.8</ele>
        <time>2017-02-12T12:17:41Z</time>
      </trkpt>
      <trkpt lat="38.278754" lon="-1.378050">
        <ele>368.8</ele>
        <time>2017-02-12T12:17:42Z</time>
      </trkpt>
      <trkpt lat="38.278760" lon="-1.378066">
        <ele>368.8</ele>
        <time>2017-02-12T12:17:43Z</time>
      </trkpt>
      <trkpt lat="38.278765" lon="-1.378082">
        <ele>368.8</ele>
        <time>2017-02-12T12:17:44Z</time>
      </trkpt>
      <trkpt lat="38.278766" lon="-1.378098">
        <ele>368.8</ele>
        <time>2017-02-12T12:17:45Z</time>
      </trkpt>
      <trkpt lat="38.278767" lon="-1.378116">
        <ele>368.8</ele>
        <time>2017-02-12T12:17:46Z</time>
      </trkpt>
      <trkpt lat="38.278768" lon="-1.378133">
        <ele>367.8</ele>
        <time>2017-02-12T12:17:47Z</time>
      </trkpt>
      <trkpt lat="38.278769" lon="-1.378148">
        <ele>368.3</ele>
        <time>2017-02-12T12:17:48Z</time>
      </trkpt>
      <trkpt lat="38.278769" lon="-1.378167">
        <ele>368.3</ele>
        <time>2017-02-12T12:17:49Z</time>
      </trkpt>
      <trkpt lat="38.278768" lon="-1.378185">
        <ele>367.8</ele>
        <time>2017-02-12T12:17:50Z</time>
      </trkpt>
      <trkpt lat="38.278766" lon="-1.378382">
        <ele>366.9</ele>
        <time>2017-02-12T12:18:01Z</time>
      </trkpt>
      <trkpt lat="38.278768" lon="-1.378402">
        <ele>366.4</ele>
        <time>2017-02-12T12:18:02Z</time>
      </trkpt>
      <trkpt lat="38.278763" lon="-1.378442">
        <ele>366.9</ele>
        <time>2017-02-12T12:18:04Z</time>
      </trkpt>
      <trkpt lat="38.278763" lon="-1.378462">
        <ele>366.4</ele>
        <time>2017-02-12T12:18:05Z</time>
      </trkpt>
      <trkpt lat="38.278765" lon="-1.378480">
        <ele>366.4</ele>
        <time>2017-02-12T12:18:06Z</time>
      </trkpt>
      <trkpt lat="38.278770" lon="-1.378545">
        <ele>365.4</ele>
        <time>2017-02-12T12:18:10Z</time>
      </trkpt>
      <trkpt lat="38.278773" lon="-1.378562">
        <ele>365.9</ele>
        <time>2017-02-12T12:18:11Z</time>
      </trkpt>
      <trkpt lat="38.278774" lon="-1.378580">
        <ele>365.4</ele>
        <time>2017-02-12T12:18:12Z</time>
      </trkpt>
      <trkpt lat="38.278775" lon="-1.378599">
        <ele>365.4</ele>
        <time>2017-02-12T12:18:13Z</time>
      </trkpt>
      <trkpt lat="38.278775" lon="-1.378619">
        <ele>365.0</ele>
        <time>2017-02-12T12:18:14Z</time>
      </trkpt>
      <trkpt lat="38.278780" lon="-1.378652">
        <ele>365.4</ele>
        <time>2017-02-12T12:18:16Z</time>
      </trkpt>
      <trkpt lat="38.278783" lon="-1.378670">
        <ele>365.0</ele>
        <time>2017-02-12T12:18:17Z</time>
      </trkpt>
      <trkpt lat="38.278784" lon="-1.378689">
        <ele>365.0</ele>
        <time>2017-02-12T12:18:18Z</time>
      </trkpt>
      <trkpt lat="38.278785" lon="-1.378706">
        <ele>365.0</ele>
        <time>2017-02-12T12:18:19Z</time>
      </trkpt>
      <trkpt lat="38.278788" lon="-1.378720">
        <ele>364.5</ele>
        <time>2017-02-12T12:18:20Z</time>
      </trkpt>
      <trkpt lat="38.278787" lon="-1.378735">
        <ele>364.0</ele>
        <time>2017-02-12T12:18:21Z</time>
      </trkpt>
      <trkpt lat="38.278786" lon="-1.378752">
        <ele>364.5</ele>
        <time>2017-02-12T12:18:22Z</time>
      </trkpt>
      <trkpt lat="38.278785" lon="-1.378770">
        <ele>364.0</ele>
        <time>2017-02-12T12:18:23Z</time>
      </trkpt>
      <trkpt lat="38.278785" lon="-1.378789">
        <ele>364.5</ele>
        <time>2017-02-12T12:18:24Z</time>
      </trkpt>
      <trkpt lat="38.278789" lon="-1.378810">
        <ele>364.0</ele>
        <time>2017-02-12T12:18:25Z</time>
      </trkpt>
      <trkpt lat="38.278793" lon="-1.378831">
        <ele>363.5</ele>
        <time>2017-02-12T12:18:26Z</time>
      </trkpt>
      <trkpt lat="38.278792" lon="-1.378855">
        <ele>363.5</ele>
        <time>2017-02-12T12:18:27Z</time>
      </trkpt>
      <trkpt lat="38.278791" lon="-1.378877">
        <ele>363.5</ele>
        <time>2017-02-12T12:18:28Z</time>
      </trkpt>
      <trkpt lat="38.278790" lon="-1.378897">
        <ele>363.0</ele>
        <time>2017-02-12T12:18:29Z</time>
      </trkpt>
      <trkpt lat="38.278789" lon="-1.378918">
        <ele>363.0</ele>
        <time>2017-02-12T12:18:30Z</time>
      </trkpt>
      <trkpt lat="38.278789" lon="-1.378938">
        <ele>363.5</ele>
        <time>2017-02-12T12:18:31Z</time>
      </trkpt>
      <trkpt lat="38.278805" lon="-1.379283">
        <ele>362.1</ele>
        <time>2017-02-12T12:18:42Z</time>
      </trkpt>
      <trkpt lat="38.278824" lon="-1.379398">
        <ele>361.6</ele>
        <time>2017-02-12T12:18:52Z</time>
      </trkpt>
      <trkpt lat="38.278823" lon="-1.379420">
        <ele>361.6</ele>
        <time>2017-02-12T12:18:53Z</time>
      </trkpt>
      <trkpt lat="38.278822" lon="-1.379441">
        <ele>362.1</ele>
        <time>2017-02-12T12:18:54Z</time>
      </trkpt>
      <trkpt lat="38.278815" lon="-1.379491">
        <ele>362.1</ele>
        <time>2017-02-12T12:18:58Z</time>
      </trkpt>
      <trkpt lat="38.278814" lon="-1.379513">
        <ele>362.1</ele>
        <time>2017-02-12T12:18:59Z</time>
      </trkpt>
      <trkpt lat="38.278816" lon="-1.379536">
        <ele>362.1</ele>
        <time>2017-02-12T12:19:00Z</time>
      </trkpt>
      <trkpt lat="38.278819" lon="-1.379557">
        <ele>361.6</ele>
        <time>2017-02-12T12:19:01Z</time>
      </trkpt>
      <trkpt lat="38.278825" lon="-1.379580">
        <ele>362.1</ele>
        <time>2017-02-12T12:19:02Z</time>
      </trkpt>
      <trkpt lat="38.278834" lon="-1.379608">
        <ele>361.6</ele>
        <time>2017-02-12T12:19:03Z</time>
      </trkpt>
      <trkpt lat="38.278844" lon="-1.379642">
        <ele>361.6</ele>
        <time>2017-02-12T12:19:04Z</time>
      </trkpt>
      <trkpt lat="38.278856" lon="-1.379676">
        <ele>361.1</ele>
        <time>2017-02-12T12:19:05Z</time>
      </trkpt>
      <trkpt lat="38.278872" lon="-1.379709">
        <ele>361.1</ele>
        <time>2017-02-12T12:19:06Z</time>
      </trkpt>
      <trkpt lat="38.278888" lon="-1.379739">
        <ele>361.1</ele>
        <time>2017-02-12T12:19:07Z</time>
      </trkpt>
      <trkpt lat="38.278895" lon="-1.379767">
        <ele>361.1</ele>
        <time>2017-02-12T12:19:08Z</time>
      </trkpt>
      <trkpt lat="38.278890" lon="-1.379792">
        <ele>361.1</ele>
        <time>2017-02-12T12:19:09Z</time>
      </trkpt>
      <trkpt lat="38.278963" lon="-1.379794">
        <ele>361.6</ele>
        <time>2017-02-12T12:19:16Z</time>
      </trkpt>
      <trkpt lat="38.278970" lon="-1.379807">
        <ele>360.6</ele>
        <time>2017-02-12T12:19:17Z</time>
      </trkpt>
      <trkpt lat="38.278977" lon="-1.379825">
        <ele>361.1</ele>
        <time>2017-02-12T12:19:18Z</time>
      </trkpt>
      <trkpt lat="38.278980" lon="-1.379846">
        <ele>361.1</ele>
        <time>2017-02-12T12:19:19Z</time>
      </trkpt>
      <trkpt lat="38.278982" lon="-1.379869">
        <ele>360.6</ele>
        <time>2017-02-12T12:19:20Z</time>
      </trkpt>
      <trkpt lat="38.278987" lon="-1.379894">
        <ele>361.1</ele>
        <time>2017-02-12T12:19:21Z</time>
      </trkpt>
      <trkpt lat="38.278993" lon="-1.379916">
        <ele>360.6</ele>
        <time>2017-02-12T12:19:22Z</time>
      </trkpt>
      <trkpt lat="38.278999" lon="-1.379939">
        <ele>360.6</ele>
        <time>2017-02-12T12:19:23Z</time>
      </trkpt>
      <trkpt lat="38.279009" lon="-1.379963">
        <ele>360.1</ele>
        <time>2017-02-12T12:19:24Z</time>
      </trkpt>
      <trkpt lat="38.279078" lon="-1.380275">
        <ele>358.7</ele>
        <time>2017-02-12T12:19:39Z</time>
      </trkpt>
      <trkpt lat="38.279051" lon="-1.380448">
        <ele>357.8</ele>
        <time>2017-02-12T12:19:47Z</time>
      </trkpt>
      <trkpt lat="38.279008" lon="-1.380576">
        <ele>356.8</ele>
        <time>2017-02-12T12:19:57Z</time>
      </trkpt>
      <trkpt lat="38.279008" lon="-1.380593">
        <ele>356.8</ele>
        <time>2017-02-12T12:19:58Z</time>
      </trkpt>
      <trkpt lat="38.279007" lon="-1.380613">
        <ele>356.8</ele>
        <time>2017-02-12T12:19:59Z</time>
      </trkpt>
      <trkpt lat="38.279006" lon="-1.380634">
        <ele>356.8</ele>
        <time>2017-02-12T12:20:00Z</time>
      </trkpt>
      <trkpt lat="38.279007" lon="-1.380653">
        <ele>355.8</ele>
        <time>2017-02-12T12:20:01Z</time>
      </trkpt>
      <trkpt lat="38.279007" lon="-1.380671">
        <ele>356.3</ele>
        <time>2017-02-12T12:20:02Z</time>
      </trkpt>
      <trkpt lat="38.278987" lon="-1.380946">
        <ele>353.4</ele>
        <time>2017-02-12T12:20:12Z</time>
      </trkpt>
      <trkpt lat="38.278824" lon="-1.381693">
        <ele>351.0</ele>
        <time>2017-02-12T12:20:31Z</time>
      </trkpt>
      <trkpt lat="38.278854" lon="-1.381909">
        <ele>350.5</ele>
        <time>2017-02-12T12:20:42Z</time>
      </trkpt>
      <trkpt lat="38.278861" lon="-1.381926">
        <ele>350.1</ele>
        <time>2017-02-12T12:20:43Z</time>
      </trkpt>
      <trkpt lat="38.278870" lon="-1.381944">
        <ele>350.5</ele>
        <time>2017-02-12T12:20:44Z</time>
      </trkpt>
      <trkpt lat="38.278876" lon="-1.381964">
        <ele>350.1</ele>
        <time>2017-02-12T12:20:45Z</time>
      </trkpt>
      <trkpt lat="38.278878" lon="-1.381981">
        <ele>350.1</ele>
        <time>2017-02-12T12:20:46Z</time>
      </trkpt>
      <trkpt lat="38.278885" lon="-1.381997">
        <ele>349.6</ele>
        <time>2017-02-12T12:20:47Z</time>
      </trkpt>
      <trkpt lat="38.278890" lon="-1.382015">
        <ele>349.6</ele>
        <time>2017-02-12T12:20:48Z</time>
      </trkpt>
      <trkpt lat="38.278893" lon="-1.382031">
        <ele>349.6</ele>
        <time>2017-02-12T12:20:49Z</time>
      </trkpt>
      <trkpt lat="38.278897" lon="-1.382048">
        <ele>350.1</ele>
        <time>2017-02-12T12:20:50Z</time>
      </trkpt>
      <trkpt lat="38.278901" lon="-1.382064">
        <ele>349.6</ele>
        <time>2017-02-12T12:20:51Z</time>
      </trkpt>
      <trkpt lat="38.278905" lon="-1.382078">
        <ele>349.6</ele>
        <time>2017-02-12T12:20:52Z</time>
      </trkpt>
      <trkpt lat="38.278911" lon="-1.382097">
        <ele>349.6</ele>
        <time>2017-02-12T12:20:53Z</time>
      </trkpt>
      <trkpt lat="38.278917" lon="-1.382116">
        <ele>350.1</ele>
        <time>2017-02-12T12:20:54Z</time>
      </trkpt>
      <trkpt lat="38.278923" lon="-1.382135">
        <ele>349.6</ele>
        <time>2017-02-12T12:20:55Z</time>
      </trkpt>
      <trkpt lat="38.278927" lon="-1.382157">
        <ele>349.6</ele>
        <time>2017-02-12T12:20:56Z</time>
      </trkpt>
      <trkpt lat="38.278927" lon="-1.382177">
        <ele>349.1</ele>
        <time>2017-02-12T12:20:57Z</time>
      </trkpt>
      <trkpt lat="38.278930" lon="-1.382198">
        <ele>349.1</ele>
        <time>2017-02-12T12:20:58Z</time>
      </trkpt>
      <trkpt lat="38.278933" lon="-1.382216">
        <ele>349.1</ele>
        <time>2017-02-12T12:20:59Z</time>
      </trkpt>
      <trkpt lat="38.278937" lon="-1.382310">
        <ele>348.6</ele>
        <time>2017-02-12T12:21:05Z</time>
      </trkpt>
      <trkpt lat="38.278944" lon="-1.382329">
        <ele>348.1</ele>
        <time>2017-02-12T12:21:06Z</time>
      </trkpt>
      <trkpt lat="38.278954" lon="-1.382347">
        <ele>348.1</ele>
        <time>2017-02-12T12:21:07Z</time>
      </trkpt>
      <trkpt lat="38.278964" lon="-1.382364">
        <ele>347.6</ele>
        <time>2017-02-12T12:21:08Z</time>
      </trkpt>
      <trkpt lat="38.278973" lon="-1.382379">
        <ele>348.1</ele>
        <time>2017-02-12T12:21:09Z</time>
      </trkpt>
      <trkpt lat="38.279000" lon="-1.382461">
        <ele>348.1</ele>
        <time>2017-02-12T12:21:14Z</time>
      </trkpt>
      <trkpt lat="38.279003" lon="-1.382479">
        <ele>347.2</ele>
        <time>2017-02-12T12:21:15Z</time>
      </trkpt>
      <trkpt lat="38.279035" lon="-1.382587">
        <ele>347.2</ele>
        <time>2017-02-12T12:21:22Z</time>
      </trkpt>
      <trkpt lat="38.279043" lon="-1.382602">
        <ele>347.2</ele>
        <time>2017-02-12T12:21:23Z</time>
      </trkpt>
      <trkpt lat="38.279051" lon="-1.382617">
        <ele>347.6</ele>
        <time>2017-02-12T12:21:24Z</time>
      </trkpt>
      <trkpt lat="38.279059" lon="-1.382633">
        <ele>347.2</ele>
        <time>2017-02-12T12:21:25Z</time>
      </trkpt>
      <trkpt lat="38.279069" lon="-1.382650">
        <ele>347.2</ele>
        <time>2017-02-12T12:21:26Z</time>
      </trkpt>
      <trkpt lat="38.279078" lon="-1.382667">
        <ele>346.7</ele>
        <time>2017-02-12T12:21:27Z</time>
      </trkpt>
      <trkpt lat="38.279086" lon="-1.382684">
        <ele>347.2</ele>
        <time>2017-02-12T12:21:28Z</time>
      </trkpt>
      <trkpt lat="38.279159" lon="-1.382887">
        <ele>346.7</ele>
        <time>2017-02-12T12:21:42Z</time>
      </trkpt>
      <trkpt lat="38.279203" lon="-1.382982">
        <ele>346.2</ele>
        <time>2017-02-12T12:21:48Z</time>
      </trkpt>
      <trkpt lat="38.279213" lon="-1.382995">
        <ele>346.7</ele>
        <time>2017-02-12T12:21:49Z</time>
      </trkpt>
      <trkpt lat="38.279220" lon="-1.383012">
        <ele>346.2</ele>
        <time>2017-02-12T12:21:50Z</time>
      </trkpt>
      <trkpt lat="38.279227" lon="-1.383028">
        <ele>346.2</ele>
        <time>2017-02-12T12:21:51Z</time>
      </trkpt>
      <trkpt lat="38.279235" lon="-1.383046">
        <ele>346.7</ele>
        <time>2017-02-12T12:21:52Z</time>
      </trkpt>
      <trkpt lat="38.279243" lon="-1.383063">
        <ele>346.2</ele>
        <time>2017-02-12T12:21:53Z</time>
      </trkpt>
      <trkpt lat="38.279250" lon="-1.383080">
        <ele>346.2</ele>
        <time>2017-02-12T12:21:54Z</time>
      </trkpt>
      <trkpt lat="38.279281" lon="-1.383186">
        <ele>345.7</ele>
        <time>2017-02-12T12:22:00Z</time>
      </trkpt>
      <trkpt lat="38.279354" lon="-1.383363">
        <ele>346.2</ele>
        <time>2017-02-12T12:22:12Z</time>
      </trkpt>
      <trkpt lat="38.279358" lon="-1.383384">
        <ele>346.2</ele>
        <time>2017-02-12T12:22:13Z</time>
      </trkpt>
      <trkpt lat="38.279399" lon="-1.383506">
        <ele>346.2</ele>
        <time>2017-02-12T12:22:20Z</time>
      </trkpt>
      <trkpt lat="38.279402" lon="-1.383523">
        <ele>346.2</ele>
        <time>2017-02-12T12:22:21Z</time>
      </trkpt>
      <trkpt lat="38.279403" lon="-1.383672">
        <ele>346.2</ele>
        <time>2017-02-12T12:22:29Z</time>
      </trkpt>
      <trkpt lat="38.279398" lon="-1.383689">
        <ele>346.7</ele>
        <time>2017-02-12T12:22:30Z</time>
      </trkpt>
      <trkpt lat="38.279394" lon="-1.383705">
        <ele>346.7</ele>
        <time>2017-02-12T12:22:31Z</time>
      </trkpt>
      <trkpt lat="38.279390" lon="-1.383722">
        <ele>346.7</ele>
        <time>2017-02-12T12:22:32Z</time>
      </trkpt>
      <trkpt lat="38.279384" lon="-1.383737">
        <ele>346.2</ele>
        <time>2017-02-12T12:22:33Z</time>
      </trkpt>
      <trkpt lat="38.279274" lon="-1.383918">
        <ele>345.2</ele>
        <time>2017-02-12T12:22:46Z</time>
      </trkpt>
      <trkpt lat="38.279123" lon="-1.384091">
        <ele>343.8</ele>
        <time>2017-02-12T12:23:01Z</time>
      </trkpt>
      <trkpt lat="38.279066" lon="-1.384266">
        <ele>343.8</ele>
        <time>2017-02-12T12:23:11Z</time>
      </trkpt>
      <trkpt lat="38.279062" lon="-1.384286">
        <ele>343.3</ele>
        <time>2017-02-12T12:23:12Z</time>
      </trkpt>
      <trkpt lat="38.279011" lon="-1.384512">
        <ele>343.8</ele>
        <time>2017-02-12T12:23:24Z</time>
      </trkpt>
      <trkpt lat="38.279013" lon="-1.384528">
        <ele>343.8</ele>
        <time>2017-02-12T12:23:25Z</time>
      </trkpt>
      <trkpt lat="38.279033" lon="-1.384606">
        <ele>343.8</ele>
        <time>2017-02-12T12:23:30Z</time>
      </trkpt>
      <trkpt lat="38.279060" lon="-1.384769">
        <ele>344.3</ele>
        <time>2017-02-12T12:23:40Z</time>
      </trkpt>
      <trkpt lat="38.279066" lon="-1.384782">
        <ele>344.3</ele>
        <time>2017-02-12T12:23:41Z</time>
      </trkpt>
      <trkpt lat="38.279068" lon="-1.384801">
        <ele>344.3</ele>
        <time>2017-02-12T12:23:42Z</time>
      </trkpt>
      <trkpt lat="38.279067" lon="-1.384820">
        <ele>344.8</ele>
        <time>2017-02-12T12:23:43Z</time>
      </trkpt>
      <trkpt lat="38.279069" lon="-1.384836">
        <ele>344.8</ele>
        <time>2017-02-12T12:23:44Z</time>
      </trkpt>
      <trkpt lat="38.279073" lon="-1.384851">
        <ele>344.8</ele>
        <time>2017-02-12T12:23:45Z</time>
      </trkpt>
      <trkpt lat="38.279076" lon="-1.384888">
        <ele>345.2</ele>
        <time>2017-02-12T12:23:47Z</time>
      </trkpt>
      <trkpt lat="38.279078" lon="-1.384920">
        <ele>345.2</ele>
        <time>2017-02-12T12:23:49Z</time>
      </trkpt>
      <trkpt lat="38.279079" lon="-1.384953">
        <ele>344.8</ele>
        <time>2017-02-12T12:23:51Z</time>
      </trkpt>
      <trkpt lat="38.279079" lon="-1.384971">
        <ele>345.2</ele>
        <time>2017-02-12T12:23:52Z</time>
      </trkpt>
      <trkpt lat="38.279101" lon="-1.385108">
        <ele>345.7</ele>
        <time>2017-02-12T12:24:00Z</time>
      </trkpt>
      <trkpt lat="38.279098" lon="-1.385130">
        <ele>346.2</ele>
        <time>2017-02-12T12:24:01Z</time>
      </trkpt>
      <trkpt lat="38.279097" lon="-1.385150">
        <ele>346.2</ele>
        <time>2017-02-12T12:24:02Z</time>
      </trkpt>
      <trkpt lat="38.279103" lon="-1.385261">
        <ele>346.2</ele>
        <time>2017-02-12T12:24:08Z</time>
      </trkpt>
      <trkpt lat="38.279104" lon="-1.385277">
        <ele>346.2</ele>
        <time>2017-02-12T12:24:09Z</time>
      </trkpt>
      <trkpt lat="38.279064" lon="-1.385465">
        <ele>343.3</ele>
        <time>2017-02-12T12:24:20Z</time>
      </trkpt>
      <trkpt lat="38.279055" lon="-1.385478">
        <ele>348.6</ele>
        <time>2017-02-12T12:24:21Z</time>
      </trkpt>
      <trkpt lat="38.279035" lon="-1.385522">
        <ele>345.7</ele>
        <time>2017-02-12T12:24:24Z</time>
      </trkpt>
      <trkpt lat="38.279007" lon="-1.385591">
        <ele>343.3</ele>
        <time>2017-02-12T12:24:29Z</time>
      </trkpt>
      <trkpt lat="38.278996" lon="-1.385606">
        <ele>347.2</ele>
        <time>2017-02-12T12:24:30Z</time>
      </trkpt>
      <trkpt lat="38.278960" lon="-1.385664">
        <ele>344.8</ele>
        <time>2017-02-12T12:24:33Z</time>
      </trkpt>
      <trkpt lat="38.278852" lon="-1.385866">
        <ele>344.8</ele>
        <time>2017-02-12T12:24:46Z</time>
      </trkpt>
      <trkpt lat="38.278788" lon="-1.386017">
        <ele>344.8</ele>
        <time>2017-02-12T12:24:55Z</time>
      </trkpt>
      <trkpt lat="38.278788" lon="-1.386033">
        <ele>344.8</ele>
        <time>2017-02-12T12:24:56Z</time>
      </trkpt>
      <trkpt lat="38.278788" lon="-1.386047">
        <ele>344.8</ele>
        <time>2017-02-12T12:24:57Z</time>
      </trkpt>
      <trkpt lat="38.278783" lon="-1.386063">
        <ele>344.8</ele>
        <time>2017-02-12T12:24:58Z</time>
      </trkpt>
      <trkpt lat="38.278775" lon="-1.386076">
        <ele>344.3</ele>
        <time>2017-02-12T12:24:59Z</time>
      </trkpt>
      <trkpt lat="38.278770" lon="-1.386091">
        <ele>344.3</ele>
        <time>2017-02-12T12:25:00Z</time>
      </trkpt>
      <trkpt lat="38.278767" lon="-1.386109">
        <ele>344.3</ele>
        <time>2017-02-12T12:25:01Z</time>
      </trkpt>
      <trkpt lat="38.278766" lon="-1.386128">
        <ele>344.8</ele>
        <time>2017-02-12T12:25:02Z</time>
      </trkpt>
      <trkpt lat="38.278764" lon="-1.386147">
        <ele>344.8</ele>
        <time>2017-02-12T12:25:03Z</time>
      </trkpt>
      <trkpt lat="38.278757" lon="-1.386164">
        <ele>344.8</ele>
        <time>2017-02-12T12:25:04Z</time>
      </trkpt>
      <trkpt lat="38.278748" lon="-1.386181">
        <ele>344.8</ele>
        <time>2017-02-12T12:25:05Z</time>
      </trkpt>
      <trkpt lat="38.278727" lon="-1.386222">
        <ele>344.8</ele>
        <time>2017-02-12T12:25:08Z</time>
      </trkpt>
      <trkpt lat="38.278716" lon="-1.386235">
        <ele>344.8</ele>
        <time>2017-02-12T12:25:09Z</time>
      </trkpt>
      <trkpt lat="38.278706" lon="-1.386248">
        <ele>344.3</ele>
        <time>2017-02-12T12:25:10Z</time>
      </trkpt>
      <trkpt lat="38.278589" lon="-1.386472">
        <ele>343.8</ele>
        <time>2017-02-12T12:25:24Z</time>
      </trkpt>
      <trkpt lat="38.278584" lon="-1.386490">
        <ele>343.8</ele>
        <time>2017-02-12T12:25:25Z</time>
      </trkpt>
      <trkpt lat="38.278577" lon="-1.386506">
        <ele>343.8</ele>
        <time>2017-02-12T12:25:26Z</time>
      </trkpt>
      <trkpt lat="38.278441" lon="-1.386753">
        <ele>341.9</ele>
        <time>2017-02-12T12:25:43Z</time>
      </trkpt>
      <trkpt lat="38.278345" lon="-1.387010">
        <ele>341.9</ele>
        <time>2017-02-12T12:25:58Z</time>
      </trkpt>
      <trkpt lat="38.278297" lon="-1.387191">
        <ele>341.9</ele>
        <time>2017-02-12T12:26:09Z</time>
      </trkpt>
      <trkpt lat="38.278293" lon="-1.387208">
        <ele>341.9</ele>
        <time>2017-02-12T12:26:10Z</time>
      </trkpt>
      <trkpt lat="38.278244" lon="-1.387411">
        <ele>341.9</ele>
        <time>2017-02-12T12:26:22Z</time>
      </trkpt>
      <trkpt lat="38.278236" lon="-1.387506">
        <ele>341.9</ele>
        <time>2017-02-12T12:26:28Z</time>
      </trkpt>
      <trkpt lat="38.278220" lon="-1.387544">
        <ele>341.4</ele>
        <time>2017-02-12T12:26:30Z</time>
      </trkpt>
      <trkpt lat="38.278211" lon="-1.387562">
        <ele>341.9</ele>
        <time>2017-02-12T12:26:31Z</time>
      </trkpt>
      <trkpt lat="38.278176" lon="-1.387684">
        <ele>342.4</ele>
        <time>2017-02-12T12:26:38Z</time>
      </trkpt>
      <trkpt lat="38.278176" lon="-1.387705">
        <ele>342.4</ele>
        <time>2017-02-12T12:26:39Z</time>
      </trkpt>
      <trkpt lat="38.278176" lon="-1.387723">
        <ele>342.4</ele>
        <time>2017-02-12T12:26:40Z</time>
      </trkpt>
      <trkpt lat="38.278171" lon="-1.387741">
        <ele>342.4</ele>
        <time>2017-02-12T12:26:41Z</time>
      </trkpt>
      <trkpt lat="38.278153" lon="-1.387983">
        <ele>341.9</ele>
        <time>2017-02-12T12:26:55Z</time>
      </trkpt>
      <trkpt lat="38.278096" lon="-1.388232">
        <ele>341.4</ele>
        <time>2017-02-12T12:27:08Z</time>
      </trkpt>
      <trkpt lat="38.278097" lon="-1.388291">
        <ele>340.9</ele>
        <time>2017-02-12T12:27:12Z</time>
      </trkpt>
      <trkpt lat="38.278096" lon="-1.388309">
        <ele>340.9</ele>
        <time>2017-02-12T12:27:13Z</time>
      </trkpt>
      <trkpt lat="38.278091" lon="-1.388327">
        <ele>341.4</ele>
        <time>2017-02-12T12:27:14Z</time>
      </trkpt>
      <trkpt lat="38.278074" lon="-1.388464">
        <ele>340.9</ele>
        <time>2017-02-12T12:27:22Z</time>
      </trkpt>
      <trkpt lat="38.278070" lon="-1.388482">
        <ele>340.9</ele>
        <time>2017-02-12T12:27:23Z</time>
      </trkpt>
      <trkpt lat="38.278064" lon="-1.388682">
        <ele>340.9</ele>
        <time>2017-02-12T12:27:35Z</time>
      </trkpt>
      <trkpt lat="38.277987" lon="-1.388971">
        <ele>340.9</ele>
        <time>2017-02-12T12:27:51Z</time>
      </trkpt>
      <trkpt lat="38.277971" lon="-1.389010">
        <ele>340.0</ele>
        <time>2017-02-12T12:27:53Z</time>
      </trkpt>
      <trkpt lat="38.277962" lon="-1.389028">
        <ele>340.9</ele>
        <time>2017-02-12T12:27:54Z</time>
      </trkpt>
      <trkpt lat="38.277957" lon="-1.389044">
        <ele>340.0</ele>
        <time>2017-02-12T12:27:55Z</time>
      </trkpt>
      <trkpt lat="38.277955" lon="-1.389064">
        <ele>340.0</ele>
        <time>2017-02-12T12:27:56Z</time>
      </trkpt>
      <trkpt lat="38.277947" lon="-1.389162">
        <ele>340.4</ele>
        <time>2017-02-12T12:28:02Z</time>
      </trkpt>
      <trkpt lat="38.277951" lon="-1.389175">
        <ele>340.4</ele>
        <time>2017-02-12T12:28:03Z</time>
      </trkpt>
      <trkpt lat="38.277955" lon="-1.389223">
        <ele>340.4</ele>
        <time>2017-02-12T12:28:06Z</time>
      </trkpt>
      <trkpt lat="38.277952" lon="-1.389240">
        <ele>340.4</ele>
        <time>2017-02-12T12:28:07Z</time>
      </trkpt>
      <trkpt lat="38.277927" lon="-1.389402">
        <ele>340.9</ele>
        <time>2017-02-12T12:28:15Z</time>
      </trkpt>
      <trkpt lat="38.277925" lon="-1.389421">
        <ele>340.9</ele>
        <time>2017-02-12T12:28:16Z</time>
      </trkpt>
      <trkpt lat="38.277926" lon="-1.389442">
        <ele>340.9</ele>
        <time>2017-02-12T12:28:17Z</time>
      </trkpt>
      <trkpt lat="38.277923" lon="-1.389460">
        <ele>340.9</ele>
        <time>2017-02-12T12:28:18Z</time>
      </trkpt>
      <trkpt lat="38.277924" lon="-1.389475">
        <ele>341.4</ele>
        <time>2017-02-12T12:28:19Z</time>
      </trkpt>
      <trkpt lat="38.277925" lon="-1.389491">
        <ele>341.4</ele>
        <time>2017-02-12T12:28:20Z</time>
      </trkpt>
      <trkpt lat="38.277929" lon="-1.389508">
        <ele>341.4</ele>
        <time>2017-02-12T12:28:21Z</time>
      </trkpt>
      <trkpt lat="38.277934" lon="-1.389523">
        <ele>341.4</ele>
        <time>2017-02-12T12:28:22Z</time>
      </trkpt>
      <trkpt lat="38.277950" lon="-1.389673">
        <ele>341.9</ele>
        <time>2017-02-12T12:28:31Z</time>
      </trkpt>
      <trkpt lat="38.277946" lon="-1.389693">
        <ele>341.4</ele>
        <time>2017-02-12T12:28:32Z</time>
      </trkpt>
      <trkpt lat="38.277941" lon="-1.389728">
        <ele>341.9</ele>
        <time>2017-02-12T12:28:34Z</time>
      </trkpt>
      <trkpt lat="38.277943" lon="-1.389746">
        <ele>341.9</ele>
        <time>2017-02-12T12:28:35Z</time>
      </trkpt>
      <trkpt lat="38.277949" lon="-1.389800">
        <ele>341.9</ele>
        <time>2017-02-12T12:28:38Z</time>
      </trkpt>
      <trkpt lat="38.277949" lon="-1.389818">
        <ele>341.9</ele>
        <time>2017-02-12T12:28:39Z</time>
      </trkpt>
      <trkpt lat="38.277955" lon="-1.389876">
        <ele>341.4</ele>
        <time>2017-02-12T12:28:42Z</time>
      </trkpt>
      <trkpt lat="38.277952" lon="-1.389893">
        <ele>341.9</ele>
        <time>2017-02-12T12:28:43Z</time>
      </trkpt>
      <trkpt lat="38.277956" lon="-1.389960">
        <ele>341.9</ele>
        <time>2017-02-12T12:28:47Z</time>
      </trkpt>
      <trkpt lat="38.277953" lon="-1.389978">
        <ele>341.9</ele>
        <time>2017-02-12T12:28:48Z</time>
      </trkpt>
      <trkpt lat="38.277953" lon="-1.389993">
        <ele>341.9</ele>
        <time>2017-02-12T12:28:49Z</time>
      </trkpt>
      <trkpt lat="38.277956" lon="-1.390105">
        <ele>341.9</ele>
        <time>2017-02-12T12:28:56Z</time>
      </trkpt>
      <trkpt lat="38.277956" lon="-1.390138">
        <ele>342.4</ele>
        <time>2017-02-12T12:28:58Z</time>
      </trkpt>
      <trkpt lat="38.277959" lon="-1.390157">
        <ele>341.4</ele>
        <time>2017-02-12T12:28:59Z</time>
      </trkpt>
      <trkpt lat="38.277972" lon="-1.390445">
        <ele>340.4</ele>
        <time>2017-02-12T12:29:14Z</time>
      </trkpt>
      <trkpt lat="38.277990" lon="-1.390674">
        <ele>340.0</ele>
        <time>2017-02-12T12:29:27Z</time>
      </trkpt>
      <trkpt lat="38.277989" lon="-1.390749">
        <ele>340.0</ele>
        <time>2017-02-12T12:29:31Z</time>
      </trkpt>
      <trkpt lat="38.277995" lon="-1.390762">
        <ele>339.0</ele>
        <time>2017-02-12T12:29:32Z</time>
      </trkpt>
      <trkpt lat="38.278008" lon="-1.390822">
        <ele>339.0</ele>
        <time>2017-02-12T12:29:36Z</time>
      </trkpt>
      <trkpt lat="38.277991" lon="-1.390882">
        <ele>339.0</ele>
        <time>2017-02-12T12:29:40Z</time>
      </trkpt>
      <trkpt lat="38.277962" lon="-1.390922">
        <ele>339.5</ele>
        <time>2017-02-12T12:29:44Z</time>
      </trkpt>
      <trkpt lat="38.277954" lon="-1.390934">
        <ele>339.0</ele>
        <time>2017-02-12T12:29:45Z</time>
      </trkpt>
      <trkpt lat="38.277942" lon="-1.390942">
        <ele>339.0</ele>
        <time>2017-02-12T12:29:46Z</time>
      </trkpt>
      <trkpt lat="38.277930" lon="-1.390952">
        <ele>339.0</ele>
        <time>2017-02-12T12:29:47Z</time>
      </trkpt>
      <trkpt lat="38.277917" lon="-1.390964">
        <ele>339.5</ele>
        <time>2017-02-12T12:29:48Z</time>
      </trkpt>
      <trkpt lat="38.277903" lon="-1.390974">
        <ele>339.5</ele>
        <time>2017-02-12T12:29:49Z</time>
      </trkpt>
      <trkpt lat="38.277760" lon="-1.391070">
        <ele>340.4</ele>
        <time>2017-02-12T12:30:01Z</time>
      </trkpt>
      <trkpt lat="38.277699" lon="-1.391108">
        <ele>340.4</ele>
        <time>2017-02-12T12:30:06Z</time>
      </trkpt>
      <trkpt lat="38.277689" lon="-1.391118">
        <ele>340.4</ele>
        <time>2017-02-12T12:30:07Z</time>
      </trkpt>
      <trkpt lat="38.277679" lon="-1.391128">
        <ele>340.9</ele>
        <time>2017-02-12T12:30:08Z</time>
      </trkpt>
      <trkpt lat="38.277550" lon="-1.391234">
        <ele>341.4</ele>
        <time>2017-02-12T12:30:21Z</time>
      </trkpt>
      <trkpt lat="38.277406" lon="-1.391358">
        <ele>342.4</ele>
        <time>2017-02-12T12:30:34Z</time>
      </trkpt>
      <trkpt lat="38.277343" lon="-1.391481">
        <ele>342.9</ele>
        <time>2017-02-12T12:30:42Z</time>
      </trkpt>
      <trkpt lat="38.277333" lon="-1.391498">
        <ele>342.9</ele>
        <time>2017-02-12T12:30:43Z</time>
      </trkpt>
      <trkpt lat="38.277326" lon="-1.391517">
        <ele>342.9</ele>
        <time>2017-02-12T12:30:44Z</time>
      </trkpt>
      <trkpt lat="38.277328" lon="-1.391536">
        <ele>342.9</ele>
        <time>2017-02-12T12:30:45Z</time>
      </trkpt>
      <trkpt lat="38.277320" lon="-1.391556">
        <ele>342.9</ele>
        <time>2017-02-12T12:30:46Z</time>
      </trkpt>
      <trkpt lat="38.277314" lon="-1.391575">
        <ele>342.9</ele>
        <time>2017-02-12T12:30:47Z</time>
      </trkpt>
      <trkpt lat="38.277305" lon="-1.391626">
        <ele>342.9</ele>
        <time>2017-02-12T12:30:50Z</time>
      </trkpt>
      <trkpt lat="38.277309" lon="-1.391644">
        <ele>342.9</ele>
        <time>2017-02-12T12:30:51Z</time>
      </trkpt>
      <trkpt lat="38.277312" lon="-1.391665">
        <ele>342.9</ele>
        <time>2017-02-12T12:30:52Z</time>
      </trkpt>
      <trkpt lat="38.277312" lon="-1.391685">
        <ele>342.9</ele>
        <time>2017-02-12T12:30:53Z</time>
      </trkpt>
      <trkpt lat="38.277314" lon="-1.391700">
        <ele>342.9</ele>
        <time>2017-02-12T12:30:54Z</time>
      </trkpt>
      <trkpt lat="38.277326" lon="-1.391794">
        <ele>342.9</ele>
        <time>2017-02-12T12:31:00Z</time>
      </trkpt>
      <trkpt lat="38.277331" lon="-1.391805">
        <ele>342.9</ele>
        <time>2017-02-12T12:31:01Z</time>
      </trkpt>
      <trkpt lat="38.277330" lon="-1.391823">
        <ele>342.9</ele>
        <time>2017-02-12T12:31:02Z</time>
      </trkpt>
      <trkpt lat="38.277330" lon="-1.391839">
        <ele>342.9</ele>
        <time>2017-02-12T12:31:03Z</time>
      </trkpt>
      <trkpt lat="38.277332" lon="-1.391853">
        <ele>342.4</ele>
        <time>2017-02-12T12:31:04Z</time>
      </trkpt>
      <trkpt lat="38.277335" lon="-1.391885">
        <ele>342.4</ele>
        <time>2017-02-12T12:31:06Z</time>
      </trkpt>
      <trkpt lat="38.277337" lon="-1.391901">
        <ele>342.4</ele>
        <time>2017-02-12T12:31:07Z</time>
      </trkpt>
      <trkpt lat="38.277377" lon="-1.392095">
        <ele>342.4</ele>
        <time>2017-02-12T12:31:21Z</time>
      </trkpt>
      <trkpt lat="38.277382" lon="-1.392106">
        <ele>342.4</ele>
        <time>2017-02-12T12:31:22Z</time>
      </trkpt>
      <trkpt lat="38.277440" lon="-1.392312">
        <ele>340.9</ele>
        <time>2017-02-12T12:31:36Z</time>
      </trkpt>
      <trkpt lat="38.277513" lon="-1.392524">
        <ele>340.4</ele>
        <time>2017-02-12T12:31:50Z</time>
      </trkpt>
      <trkpt lat="38.277617" lon="-1.392798">
        <ele>339.0</ele>
        <time>2017-02-12T12:32:07Z</time>
      </trkpt>
      <trkpt lat="38.277680" lon="-1.392995">
        <ele>338.0</ele>
        <time>2017-02-12T12:32:18Z</time>
      </trkpt>
      <trkpt lat="38.277682" lon="-1.393013">
        <ele>338.0</ele>
        <time>2017-02-12T12:32:19Z</time>
      </trkpt>
      <trkpt lat="38.277687" lon="-1.393029">
        <ele>338.0</ele>
        <time>2017-02-12T12:32:20Z</time>
      </trkpt>
      <trkpt lat="38.277687" lon="-1.393046">
        <ele>338.0</ele>
        <time>2017-02-12T12:32:21Z</time>
      </trkpt>
      <trkpt lat="38.277687" lon="-1.393063">
        <ele>338.0</ele>
        <time>2017-02-12T12:32:22Z</time>
      </trkpt>
      <trkpt lat="38.277687" lon="-1.393081">
        <ele>338.0</ele>
        <time>2017-02-12T12:32:23Z</time>
      </trkpt>
      <trkpt lat="38.277695" lon="-1.393095">
        <ele>337.6</ele>
        <time>2017-02-12T12:32:24Z</time>
      </trkpt>
      <trkpt lat="38.277703" lon="-1.393111">
        <ele>337.6</ele>
        <time>2017-02-12T12:32:25Z</time>
      </trkpt>
      <trkpt lat="38.277710" lon="-1.393124">
        <ele>337.6</ele>
        <time>2017-02-12T12:32:26Z</time>
      </trkpt>
      <trkpt lat="38.277715" lon="-1.393138">
        <ele>337.6</ele>
        <time>2017-02-12T12:32:27Z</time>
      </trkpt>
      <trkpt lat="38.277719" lon="-1.393154">
        <ele>337.6</ele>
        <time>2017-02-12T12:32:28Z</time>
      </trkpt>
      <trkpt lat="38.277719" lon="-1.393176">
        <ele>338.0</ele>
        <time>2017-02-12T12:32:29Z</time>
      </trkpt>
      <trkpt lat="38.277719" lon="-1.393196">
        <ele>338.0</ele>
        <time>2017-02-12T12:32:30Z</time>
      </trkpt>
      <trkpt lat="38.277721" lon="-1.393216">
        <ele>337.6</ele>
        <time>2017-02-12T12:32:31Z</time>
      </trkpt>
      <trkpt lat="38.277723" lon="-1.393236">
        <ele>337.6</ele>
        <time>2017-02-12T12:32:32Z</time>
      </trkpt>
      <trkpt lat="38.277728" lon="-1.393253">
        <ele>337.6</ele>
        <time>2017-02-12T12:32:33Z</time>
      </trkpt>
      <trkpt lat="38.277735" lon="-1.393272">
        <ele>337.6</ele>
        <time>2017-02-12T12:32:34Z</time>
      </trkpt>
      <trkpt lat="38.277741" lon="-1.393291">
        <ele>337.6</ele>
        <time>2017-02-12T12:32:35Z</time>
      </trkpt>
      <trkpt lat="38.277741" lon="-1.393309">
        <ele>337.6</ele>
        <time>2017-02-12T12:32:36Z</time>
      </trkpt>
      <trkpt lat="38.277746" lon="-1.393324">
        <ele>337.6</ele>
        <time>2017-02-12T12:32:37Z</time>
      </trkpt>
      <trkpt lat="38.277752" lon="-1.393339">
        <ele>337.1</ele>
        <time>2017-02-12T12:32:38Z</time>
      </trkpt>
      <trkpt lat="38.277756" lon="-1.393355">
        <ele>337.6</ele>
        <time>2017-02-12T12:32:39Z</time>
      </trkpt>
      <trkpt lat="38.277761" lon="-1.393372">
        <ele>337.1</ele>
        <time>2017-02-12T12:32:40Z</time>
      </trkpt>
      <trkpt lat="38.277766" lon="-1.393390">
        <ele>337.1</ele>
        <time>2017-02-12T12:32:41Z</time>
      </trkpt>
      <trkpt lat="38.277773" lon="-1.393405">
        <ele>337.1</ele>
        <time>2017-02-12T12:32:42Z</time>
      </trkpt>
      <trkpt lat="38.277779" lon="-1.393421">
        <ele>337.1</ele>
        <time>2017-02-12T12:32:43Z</time>
      </trkpt>
      <trkpt lat="38.277782" lon="-1.393438">
        <ele>337.1</ele>
        <time>2017-02-12T12:32:44Z</time>
      </trkpt>
      <trkpt lat="38.277787" lon="-1.393453">
        <ele>336.6</ele>
        <time>2017-02-12T12:32:45Z</time>
      </trkpt>
      <trkpt lat="38.277870" lon="-1.393700">
        <ele>336.1</ele>
        <time>2017-02-12T12:33:01Z</time>
      </trkpt>
      <trkpt lat="38.277927" lon="-1.393928">
        <ele>335.2</ele>
        <time>2017-02-12T12:33:14Z</time>
      </trkpt>
      <trkpt lat="38.277977" lon="-1.394161">
        <ele>335.2</ele>
        <time>2017-02-12T12:33:28Z</time>
      </trkpt>
      <trkpt lat="38.278029" lon="-1.394375">
        <ele>334.7</ele>
        <time>2017-02-12T12:33:41Z</time>
      </trkpt>
      <trkpt lat="38.278039" lon="-1.394410">
        <ele>334.7</ele>
        <time>2017-02-12T12:33:43Z</time>
      </trkpt>
      <trkpt lat="38.278049" lon="-1.394424">
        <ele>334.2</ele>
        <time>2017-02-12T12:33:44Z</time>
      </trkpt>
      <trkpt lat="38.278059" lon="-1.394457">
        <ele>334.2</ele>
        <time>2017-02-12T12:33:46Z</time>
      </trkpt>
      <trkpt lat="38.278066" lon="-1.394506">
        <ele>334.7</ele>
        <time>2017-02-12T12:33:49Z</time>
      </trkpt>
      <trkpt lat="38.278064" lon="-1.394527">
        <ele>334.2</ele>
        <time>2017-02-12T12:33:50Z</time>
      </trkpt>
      <trkpt lat="38.278066" lon="-1.394549">
        <ele>334.2</ele>
        <time>2017-02-12T12:33:51Z</time>
      </trkpt>
      <trkpt lat="38.278067" lon="-1.394572">
        <ele>334.2</ele>
        <time>2017-02-12T12:33:52Z</time>
      </trkpt>
      <trkpt lat="38.278071" lon="-1.394592">
        <ele>334.2</ele>
        <time>2017-02-12T12:33:53Z</time>
      </trkpt>
      <trkpt lat="38.278149" lon="-1.394845">
        <ele>333.7</ele>
        <time>2017-02-12T12:34:08Z</time>
      </trkpt>
      <trkpt lat="38.278202" lon="-1.395118">
        <ele>333.2</ele>
        <time>2017-02-12T12:34:24Z</time>
      </trkpt>
      <trkpt lat="38.278243" lon="-1.395336">
        <ele>332.3</ele>
        <time>2017-02-12T12:34:36Z</time>
      </trkpt>
      <trkpt lat="38.278250" lon="-1.395346">
        <ele>332.8</ele>
        <time>2017-02-12T12:34:37Z</time>
      </trkpt>
      <trkpt lat="38.278255" lon="-1.395357">
        <ele>332.8</ele>
        <time>2017-02-12T12:34:38Z</time>
      </trkpt>
      <trkpt lat="38.278284" lon="-1.395515">
        <ele>332.3</ele>
        <time>2017-02-12T12:34:47Z</time>
      </trkpt>
      <trkpt lat="38.278286" lon="-1.395534">
        <ele>332.3</ele>
        <time>2017-02-12T12:34:48Z</time>
      </trkpt>
      <trkpt lat="38.278287" lon="-1.395551">
        <ele>332.3</ele>
        <time>2017-02-12T12:34:49Z</time>
      </trkpt>
      <trkpt lat="38.278292" lon="-1.395566">
        <ele>332.3</ele>
        <time>2017-02-12T12:34:50Z</time>
      </trkpt>
      <trkpt lat="38.278297" lon="-1.395582">
        <ele>331.8</ele>
        <time>2017-02-12T12:34:51Z</time>
      </trkpt>
      <trkpt lat="38.278321" lon="-1.395844">
        <ele>331.8</ele>
        <time>2017-02-12T12:35:06Z</time>
      </trkpt>
      <trkpt lat="38.278309" lon="-1.396033">
        <ele>331.3</ele>
        <time>2017-02-12T12:35:19Z</time>
      </trkpt>
      <trkpt lat="38.278305" lon="-1.396045">
        <ele>331.3</ele>
        <time>2017-02-12T12:35:20Z</time>
      </trkpt>
      <trkpt lat="38.278235" lon="-1.396308">
        <ele>330.4</ele>
        <time>2017-02-12T12:35:36Z</time>
      </trkpt>
      <trkpt lat="38.278123" lon="-1.396584">
        <ele>329.4</ele>
        <time>2017-02-12T12:35:54Z</time>
      </trkpt>
      <trkpt lat="38.278018" lon="-1.396883">
        <ele>328.0</ele>
        <time>2017-02-12T12:36:13Z</time>
      </trkpt>
      <trkpt lat="38.277901" lon="-1.397148">
        <ele>326.5</ele>
        <time>2017-02-12T12:36:30Z</time>
      </trkpt>
      <trkpt lat="38.277773" lon="-1.397381">
        <ele>326.0</ele>
        <time>2017-02-12T12:36:45Z</time>
      </trkpt>
      <trkpt lat="38.277687" lon="-1.397603">
        <ele>325.5</ele>
        <time>2017-02-12T12:36:59Z</time>
      </trkpt>
      <trkpt lat="38.277589" lon="-1.397849">
        <ele>325.1</ele>
        <time>2017-02-12T12:37:14Z</time>
      </trkpt>
      <trkpt lat="38.277510" lon="-1.398099">
        <ele>324.1</ele>
        <time>2017-02-12T12:37:29Z</time>
      </trkpt>
      <trkpt lat="38.277472" lon="-1.398406">
        <ele>322.7</ele>
        <time>2017-02-12T12:37:45Z</time>
      </trkpt>
      <trkpt lat="38.277465" lon="-1.398635">
        <ele>323.1</ele>
        <time>2017-02-12T12:37:57Z</time>
      </trkpt>
      <trkpt lat="38.277485" lon="-1.398838">
        <ele>322.7</ele>
        <time>2017-02-12T12:38:11Z</time>
      </trkpt>
      <trkpt lat="38.277481" lon="-1.398923">
        <ele>322.2</ele>
        <time>2017-02-12T12:38:16Z</time>
      </trkpt>
      <trkpt lat="38.277486" lon="-1.398939">
        <ele>322.2</ele>
        <time>2017-02-12T12:38:17Z</time>
      </trkpt>
      <trkpt lat="38.277488" lon="-1.398954">
        <ele>322.7</ele>
        <time>2017-02-12T12:38:18Z</time>
      </trkpt>
      <trkpt lat="38.277518" lon="-1.399154">
        <ele>321.2</ele>
        <time>2017-02-12T12:38:31Z</time>
      </trkpt>
      <trkpt lat="38.277532" lon="-1.399339">
        <ele>321.2</ele>
        <time>2017-02-12T12:38:43Z</time>
      </trkpt>
      <trkpt lat="38.277531" lon="-1.399379">
        <ele>320.7</ele>
        <time>2017-02-12T12:38:47Z</time>
      </trkpt>
      <trkpt lat="38.277534" lon="-1.399393">
        <ele>321.2</ele>
        <time>2017-02-12T12:38:48Z</time>
      </trkpt>
      <trkpt lat="38.277535" lon="-1.399408">
        <ele>320.7</ele>
        <time>2017-02-12T12:38:49Z</time>
      </trkpt>
      <trkpt lat="38.277535" lon="-1.399425">
        <ele>321.2</ele>
        <time>2017-02-12T12:38:50Z</time>
      </trkpt>
      <trkpt lat="38.277535" lon="-1.399443">
        <ele>320.7</ele>
        <time>2017-02-12T12:38:51Z</time>
      </trkpt>
      <trkpt lat="38.277536" lon="-1.399460">
        <ele>320.7</ele>
        <time>2017-02-12T12:38:52Z</time>
      </trkpt>
      <trkpt lat="38.277567" lon="-1.399713">
        <ele>319.8</ele>
        <time>2017-02-12T12:39:08Z</time>
      </trkpt>
      <trkpt lat="38.277582" lon="-1.400002">
        <ele>318.8</ele>
        <time>2017-02-12T12:39:25Z</time>
      </trkpt>
      <trkpt lat="38.277604" lon="-1.400296">
        <ele>318.3</ele>
        <time>2017-02-12T12:39:42Z</time>
      </trkpt>
      <trkpt lat="38.277608" lon="-1.400314">
        <ele>318.3</ele>
        <time>2017-02-12T12:39:43Z</time>
      </trkpt>
      <trkpt lat="38.277642" lon="-1.400602">
        <ele>317.4</ele>
        <time>2017-02-12T12:40:00Z</time>
      </trkpt>
      <trkpt lat="38.277636" lon="-1.400680">
        <ele>317.4</ele>
        <time>2017-02-12T12:40:04Z</time>
      </trkpt>
      <trkpt lat="38.277659" lon="-1.400951">
        <ele>316.9</ele>
        <time>2017-02-12T12:40:20Z</time>
      </trkpt>
      <trkpt lat="38.277698" lon="-1.401137">
        <ele>316.4</ele>
        <time>2017-02-12T12:40:32Z</time>
      </trkpt>
      <trkpt lat="38.277708" lon="-1.401153">
        <ele>316.4</ele>
        <time>2017-02-12T12:40:33Z</time>
      </trkpt>
      <trkpt lat="38.277752" lon="-1.401363">
        <ele>317.4</ele>
        <time>2017-02-12T12:40:45Z</time>
      </trkpt>
      <trkpt lat="38.277753" lon="-1.401383">
        <ele>317.4</ele>
        <time>2017-02-12T12:40:46Z</time>
      </trkpt>
      <trkpt lat="38.277773" lon="-1.401506">
        <ele>316.4</ele>
        <time>2017-02-12T12:40:54Z</time>
      </trkpt>
      <trkpt lat="38.277779" lon="-1.401524">
        <ele>316.9</ele>
        <time>2017-02-12T12:40:55Z</time>
      </trkpt>
      <trkpt lat="38.277784" lon="-1.401545">
        <ele>315.9</ele>
        <time>2017-02-12T12:40:56Z</time>
      </trkpt>
      <trkpt lat="38.277788" lon="-1.401564">
        <ele>315.9</ele>
        <time>2017-02-12T12:40:57Z</time>
      </trkpt>
      <trkpt lat="38.277791" lon="-1.401579">
        <ele>315.9</ele>
        <time>2017-02-12T12:40:58Z</time>
      </trkpt>
      <trkpt lat="38.277793" lon="-1.401594">
        <ele>316.4</ele>
        <time>2017-02-12T12:40:59Z</time>
      </trkpt>
      <trkpt lat="38.277811" lon="-1.401835">
        <ele>315.5</ele>
        <time>2017-02-12T12:41:13Z</time>
      </trkpt>
      <trkpt lat="38.277724" lon="-1.402063">
        <ele>315.0</ele>
        <time>2017-02-12T12:41:29Z</time>
      </trkpt>
      <trkpt lat="38.277552" lon="-1.402257">
        <ele>314.5</ele>
        <time>2017-02-12T12:41:47Z</time>
      </trkpt>
      <trkpt lat="38.277353" lon="-1.402442">
        <ele>314.5</ele>
        <time>2017-02-12T12:42:05Z</time>
      </trkpt>
      <trkpt lat="38.277169" lon="-1.402643">
        <ele>314.5</ele>
        <time>2017-02-12T12:42:22Z</time>
      </trkpt>
      <trkpt lat="38.276993" lon="-1.402838">
        <ele>314.5</ele>
        <time>2017-02-12T12:42:39Z</time>
      </trkpt>
      <trkpt lat="38.276852" lon="-1.403096">
        <ele>315.0</ele>
        <time>2017-02-12T12:42:55Z</time>
      </trkpt>
      <trkpt lat="38.276753" lon="-1.403343">
        <ele>315.0</ele>
        <time>2017-02-12T12:43:10Z</time>
      </trkpt>
      <trkpt lat="38.276665" lon="-1.403588">
        <ele>315.5</ele>
        <time>2017-02-12T12:43:25Z</time>
      </trkpt>
      <trkpt lat="38.276567" lon="-1.403852">
        <ele>317.4</ele>
        <time>2017-02-12T12:43:42Z</time>
      </trkpt>
      <trkpt lat="38.276451" lon="-1.404122">
        <ele>317.4</ele>
        <time>2017-02-12T12:43:59Z</time>
      </trkpt>
      <trkpt lat="38.276357" lon="-1.404400">
        <ele>316.4</ele>
        <time>2017-02-12T12:44:16Z</time>
      </trkpt>
      <trkpt lat="38.276327" lon="-1.404452">
        <ele>315.0</ele>
        <time>2017-02-12T12:44:19Z</time>
      </trkpt>
      <trkpt lat="38.276229" lon="-1.404699">
        <ele>315.0</ele>
        <time>2017-02-12T12:44:34Z</time>
      </trkpt>
      <trkpt lat="38.276165" lon="-1.404971">
        <ele>313.5</ele>
        <time>2017-02-12T12:44:49Z</time>
      </trkpt>
      <trkpt lat="38.276139" lon="-1.405099">
        <ele>313.5</ele>
        <time>2017-02-12T12:44:56Z</time>
      </trkpt>
      <trkpt lat="38.276140" lon="-1.405119">
        <ele>313.0</ele>
        <time>2017-02-12T12:44:57Z</time>
      </trkpt>
      <trkpt lat="38.276137" lon="-1.405140">
        <ele>313.0</ele>
        <time>2017-02-12T12:44:58Z</time>
      </trkpt>
      <trkpt lat="38.276135" lon="-1.405160">
        <ele>313.0</ele>
        <time>2017-02-12T12:44:59Z</time>
      </trkpt>
      <trkpt lat="38.276132" lon="-1.405178">
        <ele>313.0</ele>
        <time>2017-02-12T12:45:00Z</time>
      </trkpt>
      <trkpt lat="38.276126" lon="-1.405196">
        <ele>313.0</ele>
        <time>2017-02-12T12:45:01Z</time>
      </trkpt>
      <trkpt lat="38.276118" lon="-1.405213">
        <ele>313.0</ele>
        <time>2017-02-12T12:45:02Z</time>
      </trkpt>
      <trkpt lat="38.276078" lon="-1.405505">
        <ele>312.6</ele>
        <time>2017-02-12T12:45:18Z</time>
      </trkpt>
      <trkpt lat="38.276054" lon="-1.405717">
        <ele>312.1</ele>
        <time>2017-02-12T12:45:30Z</time>
      </trkpt>
      <trkpt lat="38.276054" lon="-1.405737">
        <ele>312.1</ele>
        <time>2017-02-12T12:45:31Z</time>
      </trkpt>
      <trkpt lat="38.276017" lon="-1.406082">
        <ele>310.6</ele>
        <time>2017-02-12T12:45:50Z</time>
      </trkpt>
      <trkpt lat="38.276003" lon="-1.406157">
        <ele>310.6</ele>
        <time>2017-02-12T12:45:54Z</time>
      </trkpt>
      <trkpt lat="38.276004" lon="-1.406176">
        <ele>310.6</ele>
        <time>2017-02-12T12:45:55Z</time>
      </trkpt>
      <trkpt lat="38.276004" lon="-1.406194">
        <ele>310.2</ele>
        <time>2017-02-12T12:45:56Z</time>
      </trkpt>
      <trkpt lat="38.276003" lon="-1.406212">
        <ele>310.2</ele>
        <time>2017-02-12T12:45:57Z</time>
      </trkpt>
      <trkpt lat="38.276001" lon="-1.406229">
        <ele>310.6</ele>
        <time>2017-02-12T12:45:58Z</time>
      </trkpt>
      <trkpt lat="38.275997" lon="-1.406262">
        <ele>310.6</ele>
        <time>2017-02-12T12:46:00Z</time>
      </trkpt>
      <trkpt lat="38.276039" lon="-1.406442">
        <ele>309.7</ele>
        <time>2017-02-12T12:46:10Z</time>
      </trkpt>
      <trkpt lat="38.276049" lon="-1.406455">
        <ele>309.2</ele>
        <time>2017-02-12T12:46:11Z</time>
      </trkpt>
      <trkpt lat="38.276061" lon="-1.406465">
        <ele>309.2</ele>
        <time>2017-02-12T12:46:12Z</time>
      </trkpt>
      <trkpt lat="38.276075" lon="-1.406476">
        <ele>309.2</ele>
        <time>2017-02-12T12:46:13Z</time>
      </trkpt>
      <trkpt lat="38.276088" lon="-1.406489">
        <ele>309.2</ele>
        <time>2017-02-12T12:46:14Z</time>
      </trkpt>
      <trkpt lat="38.276229" lon="-1.406624">
        <ele>307.8</ele>
        <time>2017-02-12T12:46:27Z</time>
      </trkpt>
      <trkpt lat="38.276386" lon="-1.406785">
        <ele>307.3</ele>
        <time>2017-02-12T12:46:42Z</time>
      </trkpt>
      <trkpt lat="38.276546" lon="-1.406969">
        <ele>305.4</ele>
        <time>2017-02-12T12:46:57Z</time>
      </trkpt>
      <trkpt lat="38.276692" lon="-1.407139">
        <ele>303.9</ele>
        <time>2017-02-12T12:47:11Z</time>
      </trkpt>
      <trkpt lat="38.276859" lon="-1.407314">
        <ele>302.5</ele>
        <time>2017-02-12T12:47:26Z</time>
      </trkpt>
      <trkpt lat="38.276905" lon="-1.407374">
        <ele>302.0</ele>
        <time>2017-02-12T12:47:31Z</time>
      </trkpt>
      <trkpt lat="38.276919" lon="-1.407383">
        <ele>302.5</ele>
        <time>2017-02-12T12:47:32Z</time>
      </trkpt>
      <trkpt lat="38.276933" lon="-1.407393">
        <ele>302.5</ele>
        <time>2017-02-12T12:47:33Z</time>
      </trkpt>
      <trkpt lat="38.276981" lon="-1.407449">
        <ele>302.0</ele>
        <time>2017-02-12T12:47:37Z</time>
      </trkpt>
      <trkpt lat="38.277005" lon="-1.407466">
        <ele>302.0</ele>
        <time>2017-02-12T12:47:39Z</time>
      </trkpt>
      <trkpt lat="38.277014" lon="-1.407477">
        <ele>302.0</ele>
        <time>2017-02-12T12:47:40Z</time>
      </trkpt>
      <trkpt lat="38.277025" lon="-1.407487">
        <ele>302.5</ele>
        <time>2017-02-12T12:47:41Z</time>
      </trkpt>
      <trkpt lat="38.277078" lon="-1.407532">
        <ele>301.5</ele>
        <time>2017-02-12T12:47:45Z</time>
      </trkpt>
      <trkpt lat="38.277090" lon="-1.407541">
        <ele>302.0</ele>
        <time>2017-02-12T12:47:46Z</time>
      </trkpt>
      <trkpt lat="38.277099" lon="-1.407553">
        <ele>302.0</ele>
        <time>2017-02-12T12:47:47Z</time>
      </trkpt>
      <trkpt lat="38.277107" lon="-1.407566">
        <ele>301.5</ele>
        <time>2017-02-12T12:47:48Z</time>
      </trkpt>
      <trkpt lat="38.277115" lon="-1.407579">
        <ele>302.0</ele>
        <time>2017-02-12T12:47:49Z</time>
      </trkpt>
      <trkpt lat="38.277125" lon="-1.407589">
        <ele>302.0</ele>
        <time>2017-02-12T12:47:50Z</time>
      </trkpt>
      <trkpt lat="38.277137" lon="-1.407597">
        <ele>301.5</ele>
        <time>2017-02-12T12:47:51Z</time>
      </trkpt>
      <trkpt lat="38.277299" lon="-1.407794">
        <ele>300.1</ele>
        <time>2017-02-12T12:48:07Z</time>
      </trkpt>
      <trkpt lat="38.277411" lon="-1.407958">
        <ele>299.1</ele>
        <time>2017-02-12T12:48:19Z</time>
      </trkpt>
      <trkpt lat="38.277418" lon="-1.407975">
        <ele>299.1</ele>
        <time>2017-02-12T12:48:20Z</time>
      </trkpt>
      <trkpt lat="38.277584" lon="-1.408150">
        <ele>298.1</ele>
        <time>2017-02-12T12:48:36Z</time>
      </trkpt>
      <trkpt lat="38.277787" lon="-1.408286">
        <ele>296.7</ele>
        <time>2017-02-12T12:48:52Z</time>
      </trkpt>
      <trkpt lat="38.277805" lon="-1.408309">
        <ele>296.7</ele>
        <time>2017-02-12T12:48:54Z</time>
      </trkpt>
      <trkpt lat="38.277812" lon="-1.408325">
        <ele>296.7</ele>
        <time>2017-02-12T12:48:55Z</time>
      </trkpt>
      <trkpt lat="38.277818" lon="-1.408339">
        <ele>296.7</ele>
        <time>2017-02-12T12:48:56Z</time>
      </trkpt>
      <trkpt lat="38.277831" lon="-1.408354">
        <ele>296.7</ele>
        <time>2017-02-12T12:48:57Z</time>
      </trkpt>
      <trkpt lat="38.277839" lon="-1.408369">
        <ele>296.7</ele>
        <time>2017-02-12T12:48:58Z</time>
      </trkpt>
      <trkpt lat="38.277847" lon="-1.408382">
        <ele>296.7</ele>
        <time>2017-02-12T12:48:59Z</time>
      </trkpt>
      <trkpt lat="38.277855" lon="-1.408399">
        <ele>296.7</ele>
        <time>2017-02-12T12:49:00Z</time>
      </trkpt>
      <trkpt lat="38.277864" lon="-1.408416">
        <ele>296.7</ele>
        <time>2017-02-12T12:49:01Z</time>
      </trkpt>
      <trkpt lat="38.277876" lon="-1.408430">
        <ele>296.7</ele>
        <time>2017-02-12T12:49:02Z</time>
      </trkpt>
      <trkpt lat="38.278063" lon="-1.408615">
        <ele>296.2</ele>
        <time>2017-02-12T12:49:18Z</time>
      </trkpt>
      <trkpt lat="38.278227" lon="-1.408846">
        <ele>294.3</ele>
        <time>2017-02-12T12:49:34Z</time>
      </trkpt>
      <trkpt lat="38.278238" lon="-1.408853">
        <ele>293.8</ele>
        <time>2017-02-12T12:49:35Z</time>
      </trkpt>
      <trkpt lat="38.278375" lon="-1.409066">
        <ele>293.3</ele>
        <time>2017-02-12T12:49:50Z</time>
      </trkpt>
      <trkpt lat="38.278424" lon="-1.409284">
        <ele>291.9</ele>
        <time>2017-02-12T12:50:06Z</time>
      </trkpt>
      <trkpt lat="38.278428" lon="-1.409563">
        <ele>291.4</ele>
        <time>2017-02-12T12:50:22Z</time>
      </trkpt>
      <trkpt lat="38.278408" lon="-1.409807">
        <ele>290.9</ele>
        <time>2017-02-12T12:50:36Z</time>
      </trkpt>
      <trkpt lat="38.278370" lon="-1.410026">
        <ele>290.5</ele>
        <time>2017-02-12T12:50:47Z</time>
      </trkpt>
      <trkpt lat="38.278371" lon="-1.410281">
        <ele>289.5</ele>
        <time>2017-02-12T12:51:02Z</time>
      </trkpt>
      <trkpt lat="38.278373" lon="-1.410321">
        <ele>289.5</ele>
        <time>2017-02-12T12:51:05Z</time>
      </trkpt>
      <trkpt lat="38.278328" lon="-1.410490">
        <ele>289.0</ele>
        <time>2017-02-12T12:51:21Z</time>
      </trkpt>
      <trkpt lat="38.278319" lon="-1.410583">
        <ele>288.5</ele>
        <time>2017-02-12T12:57:39Z</time>
      </trkpt>
      <trkpt lat="38.278277" lon="-1.410656">
        <ele>288.5</ele>
        <time>2017-02-12T12:57:58Z</time>
      </trkpt>
      <trkpt lat="38.278234" lon="-1.410794">
        <ele>288.0</ele>
        <time>2017-02-12T12:58:13Z</time>
      </trkpt>
      <trkpt lat="38.278213" lon="-1.410820">
        <ele>288.0</ele>
        <time>2017-02-12T12:58:16Z</time>
      </trkpt>
      <trkpt lat="38.278152" lon="-1.410869">
        <ele>287.6</ele>
        <time>2017-02-12T12:58:22Z</time>
      </trkpt>
      <trkpt lat="38.278114" lon="-1.410947">
        <ele>287.1</ele>
        <time>2017-02-12T12:58:30Z</time>
      </trkpt>
      <trkpt lat="38.278022" lon="-1.411094">
        <ele>286.6</ele>
        <time>2017-02-12T12:58:44Z</time>
      </trkpt>
      <trkpt lat="38.277942" lon="-1.411267">
        <ele>285.6</ele>
        <time>2017-02-12T12:58:57Z</time>
      </trkpt>
      <trkpt lat="38.277803" lon="-1.411484">
        <ele>285.2</ele>
        <time>2017-02-12T12:59:15Z</time>
      </trkpt>
      <trkpt lat="38.277707" lon="-1.411619">
        <ele>285.6</ele>
        <time>2017-02-12T12:59:27Z</time>
      </trkpt>
      <trkpt lat="38.277691" lon="-1.411647">
        <ele>284.2</ele>
        <time>2017-02-12T12:59:29Z</time>
      </trkpt>
      <trkpt lat="38.277626" lon="-1.411802">
        <ele>283.7</ele>
        <time>2017-02-12T12:59:40Z</time>
      </trkpt>
      <trkpt lat="38.277616" lon="-1.411829">
        <ele>284.2</ele>
        <time>2017-02-12T12:59:42Z</time>
      </trkpt>
      <trkpt lat="38.277609" lon="-1.411841">
        <ele>284.7</ele>
        <time>2017-02-12T12:59:43Z</time>
      </trkpt>
      <trkpt lat="38.277602" lon="-1.411853">
        <ele>284.7</ele>
        <time>2017-02-12T12:59:44Z</time>
      </trkpt>
      <trkpt lat="38.277529" lon="-1.411995">
        <ele>284.2</ele>
        <time>2017-02-12T12:59:56Z</time>
      </trkpt>
      <trkpt lat="38.277436" lon="-1.412191">
        <ele>283.7</ele>
        <time>2017-02-12T13:00:11Z</time>
      </trkpt>
      <trkpt lat="38.277357" lon="-1.412346">
        <ele>283.7</ele>
        <time>2017-02-12T13:00:24Z</time>
      </trkpt>
      <trkpt lat="38.277292" lon="-1.412509">
        <ele>283.2</ele>
        <time>2017-02-12T13:00:36Z</time>
      </trkpt>
      <trkpt lat="38.277291" lon="-1.412525">
        <ele>283.2</ele>
        <time>2017-02-12T13:00:37Z</time>
      </trkpt>
      <trkpt lat="38.277188" lon="-1.412803">
        <ele>282.8</ele>
        <time>2017-02-12T13:00:54Z</time>
      </trkpt>
      <trkpt lat="38.277071" lon="-1.413089">
        <ele>281.8</ele>
        <time>2017-02-12T13:01:12Z</time>
      </trkpt>
      <trkpt lat="38.276963" lon="-1.413343">
        <ele>281.8</ele>
        <time>2017-02-12T13:01:29Z</time>
      </trkpt>
      <trkpt lat="38.276938" lon="-1.413468">
        <ele>282.3</ele>
        <time>2017-02-12T13:01:53Z</time>
      </trkpt>
      <trkpt lat="38.276924" lon="-1.413534">
        <ele>282.3</ele>
        <time>2017-02-12T13:02:06Z</time>
      </trkpt>
      <trkpt lat="38.276712" lon="-1.413957">
        <ele>281.8</ele>
        <time>2017-02-12T13:03:48Z</time>
      </trkpt>
      <trkpt lat="38.276652" lon="-1.414170">
        <ele>281.3</ele>
        <time>2017-02-12T13:04:08Z</time>
      </trkpt>
      <trkpt lat="38.276526" lon="-1.414454">
        <ele>281.3</ele>
        <time>2017-02-12T13:04:31Z</time>
      </trkpt>
      <trkpt lat="38.276389" lon="-1.414775">
        <ele>280.8</ele>
        <time>2017-02-12T13:04:54Z</time>
      </trkpt>
      <trkpt lat="38.276220" lon="-1.415025">
        <ele>280.8</ele>
        <time>2017-02-12T13:05:14Z</time>
      </trkpt>
      <trkpt lat="38.276155" lon="-1.415149">
        <ele>280.8</ele>
        <time>2017-02-12T13:05:23Z</time>
      </trkpt>
      <trkpt lat="38.276155" lon="-1.415181">
        <ele>280.8</ele>
        <time>2017-02-12T13:05:38Z</time>
      </trkpt>
      <trkpt lat="38.275924" lon="-1.415703">
        <ele>280.4</ele>
        <time>2017-02-12T13:07:22Z</time>
      </trkpt>
      <trkpt lat="38.275763" lon="-1.415962">
        <ele>279.9</ele>
        <time>2017-02-12T13:07:39Z</time>
      </trkpt>
      <trkpt lat="38.275697" lon="-1.416080">
        <ele>279.9</ele>
        <time>2017-02-12T13:07:47Z</time>
      </trkpt>
      <trkpt lat="38.275584" lon="-1.416338">
        <ele>279.4</ele>
        <time>2017-02-12T13:08:03Z</time>
      </trkpt>
      <trkpt lat="38.275472" lon="-1.416687">
        <ele>278.9</ele>
        <time>2017-02-12T13:08:23Z</time>
      </trkpt>
      <trkpt lat="38.275344" lon="-1.416961">
        <ele>278.9</ele>
        <time>2017-02-12T13:08:40Z</time>
      </trkpt>
      <trkpt lat="38.275252" lon="-1.417256">
        <ele>278.4</ele>
        <time>2017-02-12T13:08:56Z</time>
      </trkpt>
      <trkpt lat="38.275164" lon="-1.417552">
        <ele>277.0</ele>
        <time>2017-02-12T13:09:13Z</time>
      </trkpt>
      <trkpt lat="38.275115" lon="-1.417813">
        <ele>277.0</ele>
        <time>2017-02-12T13:09:27Z</time>
      </trkpt>
      <trkpt lat="38.275007" lon="-1.418095">
        <ele>276.5</ele>
        <time>2017-02-12T13:09:43Z</time>
      </trkpt>
      <trkpt lat="38.274933" lon="-1.418334">
        <ele>276.0</ele>
        <time>2017-02-12T13:09:57Z</time>
      </trkpt>
      <trkpt lat="38.274851" lon="-1.418447">
        <ele>275.1</ele>
        <time>2017-02-12T13:10:05Z</time>
      </trkpt>
      <trkpt lat="38.274719" lon="-1.418802">
        <ele>275.1</ele>
        <time>2017-02-12T13:10:25Z</time>
      </trkpt>
      <trkpt lat="38.274578" lon="-1.419135">
        <ele>275.1</ele>
        <time>2017-02-12T13:10:45Z</time>
      </trkpt>
      <trkpt lat="38.274449" lon="-1.419411">
        <ele>274.6</ele>
        <time>2017-02-12T13:11:02Z</time>
      </trkpt>
      <trkpt lat="38.274327" lon="-1.419672">
        <ele>275.1</ele>
        <time>2017-02-12T13:11:18Z</time>
      </trkpt>
      <trkpt lat="38.274158" lon="-1.419915">
        <ele>274.6</ele>
        <time>2017-02-12T13:11:36Z</time>
      </trkpt>
      <trkpt lat="38.274040" lon="-1.420220">
        <ele>275.1</ele>
        <time>2017-02-12T13:11:54Z</time>
      </trkpt>
      <trkpt lat="38.274016" lon="-1.420296">
        <ele>275.1</ele>
        <time>2017-02-12T13:12:05Z</time>
      </trkpt>
      <trkpt lat="38.274007" lon="-1.420311">
        <ele>274.6</ele>
        <time>2017-02-12T13:12:06Z</time>
      </trkpt>
      <trkpt lat="38.273998" lon="-1.420327">
        <ele>275.1</ele>
        <time>2017-02-12T13:12:07Z</time>
      </trkpt>
      <trkpt lat="38.273950" lon="-1.420349">
        <ele>275.1</ele>
        <time>2017-02-12T13:12:15Z</time>
      </trkpt>
      <trkpt lat="38.273945" lon="-1.420363">
        <ele>275.1</ele>
        <time>2017-02-12T13:12:16Z</time>
      </trkpt>
      <trkpt lat="38.273868" lon="-1.420525">
        <ele>275.1</ele>
        <time>2017-02-12T13:12:28Z</time>
      </trkpt>
      <trkpt lat="38.273814" lon="-1.420717">
        <ele>275.1</ele>
        <time>2017-02-12T13:12:39Z</time>
      </trkpt>
      <trkpt lat="38.273809" lon="-1.420732">
        <ele>275.1</ele>
        <time>2017-02-12T13:12:40Z</time>
      </trkpt>
      <trkpt lat="38.273728" lon="-1.420938">
        <ele>275.6</ele>
        <time>2017-02-12T13:12:52Z</time>
      </trkpt>
      <trkpt lat="38.273628" lon="-1.421159">
        <ele>274.6</ele>
        <time>2017-02-12T13:13:06Z</time>
      </trkpt>
      <trkpt lat="38.273515" lon="-1.421442">
        <ele>275.1</ele>
        <time>2017-02-12T13:13:23Z</time>
      </trkpt>
      <trkpt lat="38.273424" lon="-1.421801">
        <ele>274.6</ele>
        <time>2017-02-12T13:13:41Z</time>
      </trkpt>
      <trkpt lat="38.273327" lon="-1.422100">
        <ele>274.6</ele>
        <time>2017-02-12T13:13:56Z</time>
      </trkpt>
      <trkpt lat="38.273259" lon="-1.422269">
        <ele>274.6</ele>
        <time>2017-02-12T13:14:08Z</time>
      </trkpt>
      <trkpt lat="38.273165" lon="-1.422559">
        <ele>274.6</ele>
        <time>2017-02-12T13:14:24Z</time>
      </trkpt>
      <trkpt lat="38.273158" lon="-1.422656">
        <ele>274.6</ele>
        <time>2017-02-12T13:14:28Z</time>
      </trkpt>
      <trkpt lat="38.273118" lon="-1.422769">
        <ele>274.1</ele>
        <time>2017-02-12T13:14:34Z</time>
      </trkpt>
      <trkpt lat="38.273115" lon="-1.422787">
        <ele>274.6</ele>
        <time>2017-02-12T13:14:35Z</time>
      </trkpt>
      <trkpt lat="38.273108" lon="-1.422804">
        <ele>274.1</ele>
        <time>2017-02-12T13:14:36Z</time>
      </trkpt>
      <trkpt lat="38.273009" lon="-1.423093">
        <ele>273.1</ele>
        <time>2017-02-12T13:14:52Z</time>
      </trkpt>
      <trkpt lat="38.272928" lon="-1.423348">
        <ele>272.7</ele>
        <time>2017-02-12T13:15:07Z</time>
      </trkpt>
      <trkpt lat="38.272914" lon="-1.423395">
        <ele>272.2</ele>
        <time>2017-02-12T13:15:10Z</time>
      </trkpt>
      <trkpt lat="38.272904" lon="-1.423411">
        <ele>272.2</ele>
        <time>2017-02-12T13:15:11Z</time>
      </trkpt>
      <trkpt lat="38.272897" lon="-1.423430">
        <ele>272.2</ele>
        <time>2017-02-12T13:15:12Z</time>
      </trkpt>
      <trkpt lat="38.272890" lon="-1.423447">
        <ele>272.2</ele>
        <time>2017-02-12T13:15:13Z</time>
      </trkpt>
      <trkpt lat="38.272883" lon="-1.423465">
        <ele>272.2</ele>
        <time>2017-02-12T13:15:14Z</time>
      </trkpt>
      <trkpt lat="38.272877" lon="-1.423484">
        <ele>272.2</ele>
        <time>2017-02-12T13:15:15Z</time>
      </trkpt>
      <trkpt lat="38.272873" lon="-1.423503">
        <ele>271.7</ele>
        <time>2017-02-12T13:15:16Z</time>
      </trkpt>
      <trkpt lat="38.272871" lon="-1.423521">
        <ele>271.7</ele>
        <time>2017-02-12T13:15:17Z</time>
      </trkpt>
      <trkpt lat="38.272867" lon="-1.423539">
        <ele>272.2</ele>
        <time>2017-02-12T13:15:18Z</time>
      </trkpt>
      <trkpt lat="38.272862" lon="-1.423556">
        <ele>272.2</ele>
        <time>2017-02-12T13:15:19Z</time>
      </trkpt>
      <trkpt lat="38.272856" lon="-1.423575">
        <ele>272.7</ele>
        <time>2017-02-12T13:15:20Z</time>
      </trkpt>
      <trkpt lat="38.272850" lon="-1.423594">
        <ele>272.2</ele>
        <time>2017-02-12T13:15:21Z</time>
      </trkpt>
      <trkpt lat="38.272845" lon="-1.423612">
        <ele>272.2</ele>
        <time>2017-02-12T13:15:22Z</time>
      </trkpt>
      <trkpt lat="38.272840" lon="-1.423631">
        <ele>272.7</ele>
        <time>2017-02-12T13:15:23Z</time>
      </trkpt>
      <trkpt lat="38.272786" lon="-1.423851">
        <ele>271.7</ele>
        <time>2017-02-12T13:15:38Z</time>
      </trkpt>
      <trkpt lat="38.272767" lon="-1.423868">
        <ele>271.2</ele>
        <time>2017-02-12T13:15:44Z</time>
      </trkpt>
      <trkpt lat="38.272762" lon="-1.423889">
        <ele>271.2</ele>
        <time>2017-02-12T13:15:45Z</time>
      </trkpt>
      <trkpt lat="38.272758" lon="-1.423910">
        <ele>271.2</ele>
        <time>2017-02-12T13:15:46Z</time>
      </trkpt>
      <trkpt lat="38.272754" lon="-1.423929">
        <ele>270.8</ele>
        <time>2017-02-12T13:15:47Z</time>
      </trkpt>
      <trkpt lat="38.272751" lon="-1.423951">
        <ele>270.8</ele>
        <time>2017-02-12T13:15:48Z</time>
      </trkpt>
      <trkpt lat="38.272743" lon="-1.423966">
        <ele>270.8</ele>
        <time>2017-02-12T13:15:49Z</time>
      </trkpt>
      <trkpt lat="38.272735" lon="-1.423983">
        <ele>270.3</ele>
        <time>2017-02-12T13:15:50Z</time>
      </trkpt>
      <trkpt lat="38.272730" lon="-1.423996">
        <ele>270.8</ele>
        <time>2017-02-12T13:15:51Z</time>
      </trkpt>
      <trkpt lat="38.272726" lon="-1.424010">
        <ele>271.2</ele>
        <time>2017-02-12T13:15:52Z</time>
      </trkpt>
      <trkpt lat="38.272716" lon="-1.424029">
        <ele>271.2</ele>
        <time>2017-02-12T13:15:53Z</time>
      </trkpt>
      <trkpt lat="38.272707" lon="-1.424048">
        <ele>271.7</ele>
        <time>2017-02-12T13:15:54Z</time>
      </trkpt>
      <trkpt lat="38.272698" lon="-1.424066">
        <ele>271.2</ele>
        <time>2017-02-12T13:15:55Z</time>
      </trkpt>
      <trkpt lat="38.272671" lon="-1.424120">
        <ele>271.2</ele>
        <time>2017-02-12T13:15:58Z</time>
      </trkpt>
      <trkpt lat="38.272662" lon="-1.424136">
        <ele>271.2</ele>
        <time>2017-02-12T13:15:59Z</time>
      </trkpt>
      <trkpt lat="38.272655" lon="-1.424153">
        <ele>270.8</ele>
        <time>2017-02-12T13:16:00Z</time>
      </trkpt>
      <trkpt lat="38.272595" lon="-1.424275">
        <ele>270.8</ele>
        <time>2017-02-12T13:16:12Z</time>
      </trkpt>
      <trkpt lat="38.272589" lon="-1.424292">
        <ele>270.3</ele>
        <time>2017-02-12T13:16:13Z</time>
      </trkpt>
      <trkpt lat="38.272581" lon="-1.424310">
        <ele>269.8</ele>
        <time>2017-02-12T13:16:14Z</time>
      </trkpt>
      <trkpt lat="38.272378" lon="-1.424560">
        <ele>269.3</ele>
        <time>2017-02-12T13:16:33Z</time>
      </trkpt>
      <trkpt lat="38.272197" lon="-1.424787">
        <ele>267.9</ele>
        <time>2017-02-12T13:16:50Z</time>
      </trkpt>
      <trkpt lat="38.272000" lon="-1.425020">
        <ele>266.9</ele>
        <time>2017-02-12T13:17:08Z</time>
      </trkpt>
      <trkpt lat="38.271988" lon="-1.425034">
        <ele>267.4</ele>
        <time>2017-02-12T13:17:09Z</time>
      </trkpt>
      <trkpt lat="38.271806" lon="-1.425302">
        <ele>266.4</ele>
        <time>2017-02-12T13:17:27Z</time>
      </trkpt>
      <trkpt lat="38.271799" lon="-1.425321">
        <ele>266.4</ele>
        <time>2017-02-12T13:17:28Z</time>
      </trkpt>
      <trkpt lat="38.271790" lon="-1.425339">
        <ele>266.4</ele>
        <time>2017-02-12T13:17:29Z</time>
      </trkpt>
      <trkpt lat="38.271777" lon="-1.425355">
        <ele>266.9</ele>
        <time>2017-02-12T13:17:30Z</time>
      </trkpt>
      <trkpt lat="38.271667" lon="-1.425665">
        <ele>264.0</ele>
        <time>2017-02-12T13:17:46Z</time>
      </trkpt>
      <trkpt lat="38.271650" lon="-1.425702">
        <ele>265.5</ele>
        <time>2017-02-12T13:17:48Z</time>
      </trkpt>
      <trkpt lat="38.271473" lon="-1.426052">
        <ele>265.0</ele>
        <time>2017-02-12T13:18:09Z</time>
      </trkpt>
      <trkpt lat="38.271297" lon="-1.426388">
        <ele>265.9</ele>
        <time>2017-02-12T13:18:31Z</time>
      </trkpt>
      <trkpt lat="38.271163" lon="-1.426599">
        <ele>264.0</ele>
        <time>2017-02-12T13:18:46Z</time>
      </trkpt>
      <trkpt lat="38.271019" lon="-1.426853">
        <ele>263.5</ele>
        <time>2017-02-12T13:19:03Z</time>
      </trkpt>
      <trkpt lat="38.270853" lon="-1.427020">
        <ele>263.5</ele>
        <time>2017-02-12T13:19:19Z</time>
      </trkpt>
      <trkpt lat="38.270796" lon="-1.427054">
        <ele>264.0</ele>
        <time>2017-02-12T13:19:24Z</time>
      </trkpt>
      <trkpt lat="38.270539" lon="-1.427403">
        <ele>263.5</ele>
        <time>2017-02-12T13:19:36Z</time>
      </trkpt>
      <trkpt lat="38.270403" lon="-1.427585">
        <ele>263.5</ele>
        <time>2017-02-12T13:19:47Z</time>
      </trkpt>
      <trkpt lat="38.270282" lon="-1.427697">
        <ele>263.1</ele>
        <time>2017-02-12T13:19:57Z</time>
      </trkpt>
      <trkpt lat="38.270057" lon="-1.427949">
        <ele>263.1</ele>
        <time>2017-02-12T13:20:17Z</time>
      </trkpt>
      <trkpt lat="38.269947" lon="-1.428091">
        <ele>263.1</ele>
        <time>2017-02-12T13:20:28Z</time>
      </trkpt>
      <trkpt lat="38.269941" lon="-1.428103">
        <ele>263.1</ele>
        <time>2017-02-12T13:20:29Z</time>
      </trkpt>
      <trkpt lat="38.269933" lon="-1.428117">
        <ele>263.5</ele>
        <time>2017-02-12T13:20:30Z</time>
      </trkpt>
      <trkpt lat="38.269924" lon="-1.428131">
        <ele>263.1</ele>
        <time>2017-02-12T13:20:31Z</time>
      </trkpt>
      <trkpt lat="38.269913" lon="-1.428142">
        <ele>263.1</ele>
        <time>2017-02-12T13:20:32Z</time>
      </trkpt>
      <trkpt lat="38.269903" lon="-1.428152">
        <ele>263.1</ele>
        <time>2017-02-12T13:20:33Z</time>
      </trkpt>
      <trkpt lat="38.269892" lon="-1.428162">
        <ele>262.6</ele>
        <time>2017-02-12T13:20:34Z</time>
      </trkpt>
      <trkpt lat="38.269875" lon="-1.428172">
        <ele>263.1</ele>
        <time>2017-02-12T13:20:35Z</time>
      </trkpt>
      <trkpt lat="38.269859" lon="-1.428183">
        <ele>263.1</ele>
        <time>2017-02-12T13:20:36Z</time>
      </trkpt>
      <trkpt lat="38.269846" lon="-1.428195">
        <ele>263.1</ele>
        <time>2017-02-12T13:20:37Z</time>
      </trkpt>
      <trkpt lat="38.269835" lon="-1.428209">
        <ele>263.1</ele>
        <time>2017-02-12T13:20:38Z</time>
      </trkpt>
      <trkpt lat="38.269655" lon="-1.428394">
        <ele>263.1</ele>
        <time>2017-02-12T13:20:53Z</time>
      </trkpt>
      <trkpt lat="38.269447" lon="-1.428558">
        <ele>263.1</ele>
        <time>2017-02-12T13:21:10Z</time>
      </trkpt>
      <trkpt lat="38.269258" lon="-1.428692">
        <ele>262.1</ele>
        <time>2017-02-12T13:21:25Z</time>
      </trkpt>
      <trkpt lat="38.269059" lon="-1.428824">
        <ele>262.1</ele>
        <time>2017-02-12T13:21:40Z</time>
      </trkpt>
      <trkpt lat="38.268875" lon="-1.428880">
        <ele>261.6</ele>
        <time>2017-02-12T13:21:55Z</time>
      </trkpt>
      <trkpt lat="38.268666" lon="-1.428937">
        <ele>261.1</ele>
        <time>2017-02-12T13:22:09Z</time>
      </trkpt>
      <trkpt lat="38.268476" lon="-1.428949">
        <ele>260.2</ele>
        <time>2017-02-12T13:22:20Z</time>
      </trkpt>
      <trkpt lat="38.268302" lon="-1.428939">
        <ele>260.6</ele>
        <time>2017-02-12T13:22:33Z</time>
      </trkpt>
      <trkpt lat="38.268012" lon="-1.428883">
        <ele>261.6</ele>
        <time>2017-02-12T13:22:52Z</time>
      </trkpt>
      <trkpt lat="38.267794" lon="-1.428885">
        <ele>260.6</ele>
        <time>2017-02-12T13:23:08Z</time>
      </trkpt>
      <trkpt lat="38.267542" lon="-1.428896">
        <ele>261.6</ele>
        <time>2017-02-12T13:23:25Z</time>
      </trkpt>
      <trkpt lat="38.267353" lon="-1.428888">
        <ele>261.6</ele>
        <time>2017-02-12T13:23:39Z</time>
      </trkpt>
      <trkpt lat="38.267077" lon="-1.428898">
        <ele>261.6</ele>
        <time>2017-02-12T13:23:57Z</time>
      </trkpt>
      <trkpt lat="38.266843" lon="-1.428897">
        <ele>261.6</ele>
        <time>2017-02-12T13:24:14Z</time>
      </trkpt>
      <trkpt lat="38.266651" lon="-1.428927">
        <ele>261.6</ele>
        <time>2017-02-12T13:24:28Z</time>
      </trkpt>
      <trkpt lat="38.266416" lon="-1.428935">
        <ele>262.1</ele>
        <time>2017-02-12T13:24:44Z</time>
      </trkpt>
      <trkpt lat="38.266218" lon="-1.428961">
        <ele>261.6</ele>
        <time>2017-02-12T13:24:57Z</time>
      </trkpt>
      <trkpt lat="38.266192" lon="-1.428962">
        <ele>262.1</ele>
        <time>2017-02-12T13:24:59Z</time>
      </trkpt>
      <trkpt lat="38.266179" lon="-1.428964">
        <ele>262.1</ele>
        <time>2017-02-12T13:25:00Z</time>
      </trkpt>
      <trkpt lat="38.266007" lon="-1.428988">
        <ele>261.6</ele>
        <time>2017-02-12T13:25:12Z</time>
      </trkpt>
      <trkpt lat="38.265774" lon="-1.429012">
        <ele>261.6</ele>
        <time>2017-02-12T13:25:27Z</time>
      </trkpt>
      <trkpt lat="38.265511" lon="-1.429025">
        <ele>259.2</ele>
        <time>2017-02-12T13:25:46Z</time>
      </trkpt>
      <trkpt lat="38.265311" lon="-1.429044">
        <ele>258.7</ele>
        <time>2017-02-12T13:25:58Z</time>
      </trkpt>
      <trkpt lat="38.265062" lon="-1.429076">
        <ele>258.2</ele>
        <time>2017-02-12T13:26:16Z</time>
      </trkpt>
      <trkpt lat="38.264828" lon="-1.429093">
        <ele>257.8</ele>
        <time>2017-02-12T13:26:32Z</time>
      </trkpt>
      <trkpt lat="38.264554" lon="-1.429111">
        <ele>257.3</ele>
        <time>2017-02-12T13:26:50Z</time>
      </trkpt>
      <trkpt lat="38.264321" lon="-1.429127">
        <ele>257.3</ele>
        <time>2017-02-12T13:27:06Z</time>
      </trkpt>
      <trkpt lat="38.264069" lon="-1.429135">
        <ele>257.3</ele>
        <time>2017-02-12T13:27:24Z</time>
      </trkpt>
      <trkpt lat="38.263831" lon="-1.429149">
        <ele>256.8</ele>
        <time>2017-02-12T13:27:41Z</time>
      </trkpt>
      <trkpt lat="38.263622" lon="-1.429143">
        <ele>257.3</ele>
        <time>2017-02-12T13:27:56Z</time>
      </trkpt>
      <trkpt lat="38.263381" lon="-1.429142">
        <ele>257.3</ele>
        <time>2017-02-12T13:28:14Z</time>
      </trkpt>
      <trkpt lat="38.263142" lon="-1.429136">
        <ele>256.8</ele>
        <time>2017-02-12T13:28:31Z</time>
      </trkpt>
      <trkpt lat="38.262927" lon="-1.429142">
        <ele>256.3</ele>
        <time>2017-02-12T13:28:47Z</time>
      </trkpt>
      <trkpt lat="38.262691" lon="-1.429179">
        <ele>255.9</ele>
        <time>2017-02-12T13:29:04Z</time>
      </trkpt>
      <trkpt lat="38.262454" lon="-1.429225">
        <ele>255.9</ele>
        <time>2017-02-12T13:29:22Z</time>
      </trkpt>
      <trkpt lat="38.262239" lon="-1.429284">
        <ele>255.4</ele>
        <time>2017-02-12T13:29:38Z</time>
      </trkpt>
      <trkpt lat="38.262043" lon="-1.429327">
        <ele>255.4</ele>
        <time>2017-02-12T13:29:53Z</time>
      </trkpt>
      <trkpt lat="38.261817" lon="-1.429377">
        <ele>254.9</ele>
        <time>2017-02-12T13:30:09Z</time>
      </trkpt>
      <trkpt lat="38.261602" lon="-1.429432">
        <ele>254.9</ele>
        <time>2017-02-12T13:30:25Z</time>
      </trkpt>
      <trkpt lat="38.261380" lon="-1.429470">
        <ele>254.9</ele>
        <time>2017-02-12T13:30:41Z</time>
      </trkpt>
      <trkpt lat="38.261174" lon="-1.429516">
        <ele>254.4</ele>
        <time>2017-02-12T13:30:58Z</time>
      </trkpt>
      <trkpt lat="38.260997" lon="-1.429562">
        <ele>253.4</ele>
        <time>2017-02-12T13:31:11Z</time>
      </trkpt>
      <trkpt lat="38.260982" lon="-1.429571">
        <ele>253.9</ele>
        <time>2017-02-12T13:31:12Z</time>
      </trkpt>
      <trkpt lat="38.260968" lon="-1.429580">
        <ele>253.4</ele>
        <time>2017-02-12T13:31:13Z</time>
      </trkpt>
      <trkpt lat="38.260738" lon="-1.429683">
        <ele>253.4</ele>
        <time>2017-02-12T13:31:30Z</time>
      </trkpt>
      <trkpt lat="38.260580" lon="-1.429736">
        <ele>253.0</ele>
        <time>2017-02-12T13:31:45Z</time>
      </trkpt>
      <trkpt lat="38.260566" lon="-1.429739">
        <ele>253.0</ele>
        <time>2017-02-12T13:31:46Z</time>
      </trkpt>
      <trkpt lat="38.260334" lon="-1.429789">
        <ele>253.0</ele>
        <time>2017-02-12T13:32:03Z</time>
      </trkpt>
      <trkpt lat="38.260053" lon="-1.429840">
        <ele>251.5</ele>
        <time>2017-02-12T13:32:24Z</time>
      </trkpt>
      <trkpt lat="38.259855" lon="-1.429866">
        <ele>251.5</ele>
        <time>2017-02-12T13:32:38Z</time>
      </trkpt>
      <trkpt lat="38.259645" lon="-1.429914">
        <ele>251.0</ele>
        <time>2017-02-12T13:32:55Z</time>
      </trkpt>
      <trkpt lat="38.259473" lon="-1.429950">
        <ele>250.1</ele>
        <time>2017-02-12T13:33:09Z</time>
      </trkpt>
      <trkpt lat="38.259203" lon="-1.430011">
        <ele>249.6</ele>
        <time>2017-02-12T13:33:28Z</time>
      </trkpt>
      <trkpt lat="38.259015" lon="-1.430053">
        <ele>248.6</ele>
        <time>2017-02-12T13:33:42Z</time>
      </trkpt>
      <trkpt lat="38.258771" lon="-1.430117">
        <ele>247.7</ele>
        <time>2017-02-12T13:34:00Z</time>
      </trkpt>
      <trkpt lat="38.258563" lon="-1.430197">
        <ele>247.7</ele>
        <time>2017-02-12T13:34:17Z</time>
      </trkpt>
      <trkpt lat="38.258384" lon="-1.430275">
        <ele>247.7</ele>
        <time>2017-02-12T13:34:32Z</time>
      </trkpt>
      <trkpt lat="38.258276" lon="-1.430316">
        <ele>247.7</ele>
        <time>2017-02-12T13:34:42Z</time>
      </trkpt>
      <trkpt lat="38.258055" lon="-1.430383">
        <ele>246.7</ele>
        <time>2017-02-12T13:34:59Z</time>
      </trkpt>
      <trkpt lat="38.257844" lon="-1.430456">
        <ele>245.8</ele>
        <time>2017-02-12T13:35:16Z</time>
      </trkpt>
      <trkpt lat="38.257663" lon="-1.430536">
        <ele>245.3</ele>
        <time>2017-02-12T13:35:31Z</time>
      </trkpt>
      <trkpt lat="38.257431" lon="-1.430636">
        <ele>244.8</ele>
        <time>2017-02-12T13:35:49Z</time>
      </trkpt>
      <trkpt lat="38.257247" lon="-1.430673">
        <ele>245.3</ele>
        <time>2017-02-12T13:36:03Z</time>
      </trkpt>
      <trkpt lat="38.257128" lon="-1.430685">
        <ele>245.3</ele>
        <time>2017-02-12T13:36:12Z</time>
      </trkpt>
      <trkpt lat="38.257112" lon="-1.430683">
        <ele>245.8</ele>
        <time>2017-02-12T13:36:13Z</time>
      </trkpt>
      <trkpt lat="38.256958" lon="-1.430717">
        <ele>245.3</ele>
        <time>2017-02-12T13:36:26Z</time>
      </trkpt>
      <trkpt lat="38.256863" lon="-1.430734">
        <ele>245.8</ele>
        <time>2017-02-12T13:36:37Z</time>
      </trkpt>
      <trkpt lat="38.256710" lon="-1.430690">
        <ele>245.3</ele>
        <time>2017-02-12T13:36:50Z</time>
      </trkpt>
      <trkpt lat="38.256696" lon="-1.430678">
        <ele>245.3</ele>
        <time>2017-02-12T13:36:51Z</time>
      </trkpt>
      <trkpt lat="38.256530" lon="-1.430555">
        <ele>244.8</ele>
        <time>2017-02-12T13:37:06Z</time>
      </trkpt>
      <trkpt lat="38.256401" lon="-1.430453">
        <ele>244.3</ele>
        <time>2017-02-12T13:37:19Z</time>
      </trkpt>
      <trkpt lat="38.256385" lon="-1.430446">
        <ele>244.3</ele>
        <time>2017-02-12T13:37:20Z</time>
      </trkpt>
      <trkpt lat="38.256302" lon="-1.430363">
        <ele>244.3</ele>
        <time>2017-02-12T13:37:26Z</time>
      </trkpt>
      <trkpt lat="38.256291" lon="-1.430347">
        <ele>243.8</ele>
        <time>2017-02-12T13:37:27Z</time>
      </trkpt>
      <trkpt lat="38.256281" lon="-1.430336">
        <ele>243.8</ele>
        <time>2017-02-12T13:37:28Z</time>
      </trkpt>
      <trkpt lat="38.256153" lon="-1.430203">
        <ele>242.9</ele>
        <time>2017-02-12T13:37:41Z</time>
      </trkpt>
      <trkpt lat="38.256038" lon="-1.429971">
        <ele>241.9</ele>
        <time>2017-02-12T13:37:56Z</time>
      </trkpt>
      <trkpt lat="38.256014" lon="-1.429905">
        <ele>240.9</ele>
        <time>2017-02-12T13:38:02Z</time>
      </trkpt>
      <trkpt lat="38.256010" lon="-1.429886">
        <ele>240.5</ele>
        <time>2017-02-12T13:38:03Z</time>
      </trkpt>
      <trkpt lat="38.256004" lon="-1.429867">
        <ele>240.5</ele>
        <time>2017-02-12T13:38:04Z</time>
      </trkpt>
      <trkpt lat="38.255929" lon="-1.429614">
        <ele>238.1</ele>
        <time>2017-02-12T13:38:20Z</time>
      </trkpt>
      <trkpt lat="38.255870" lon="-1.429358">
        <ele>238.1</ele>
        <time>2017-02-12T13:38:34Z</time>
      </trkpt>
      <trkpt lat="38.255817" lon="-1.429036">
        <ele>236.6</ele>
        <time>2017-02-12T13:38:53Z</time>
      </trkpt>
      <trkpt lat="38.255797" lon="-1.428789">
        <ele>235.2</ele>
        <time>2017-02-12T13:39:08Z</time>
      </trkpt>
      <trkpt lat="38.255774" lon="-1.428551">
        <ele>235.2</ele>
        <time>2017-02-12T13:39:24Z</time>
      </trkpt>
      <trkpt lat="38.255733" lon="-1.428311">
        <ele>233.3</ele>
        <time>2017-02-12T13:39:39Z</time>
      </trkpt>
      <trkpt lat="38.255736" lon="-1.428242">
        <ele>232.8</ele>
        <time>2017-02-12T13:39:45Z</time>
      </trkpt>
      <trkpt lat="38.255726" lon="-1.428226">
        <ele>232.8</ele>
        <time>2017-02-12T13:39:46Z</time>
      </trkpt>
      <trkpt lat="38.255665" lon="-1.428059">
        <ele>232.3</ele>
        <time>2017-02-12T13:39:56Z</time>
      </trkpt>
      <trkpt lat="38.255640" lon="-1.427922">
        <ele>231.3</ele>
        <time>2017-02-12T13:40:05Z</time>
      </trkpt>
      <trkpt lat="38.255635" lon="-1.427901">
        <ele>231.3</ele>
        <time>2017-02-12T13:40:06Z</time>
      </trkpt>
      <trkpt lat="38.255508" lon="-1.427751">
        <ele>230.9</ele>
        <time>2017-02-12T13:40:19Z</time>
      </trkpt>
      <trkpt lat="38.255403" lon="-1.427634">
        <ele>229.9</ele>
        <time>2017-02-12T13:40:35Z</time>
      </trkpt>
      <trkpt lat="38.255393" lon="-1.427623">
        <ele>229.9</ele>
        <time>2017-02-12T13:40:36Z</time>
      </trkpt>
      <trkpt lat="38.255379" lon="-1.427611">
        <ele>230.4</ele>
        <time>2017-02-12T13:40:40Z</time>
      </trkpt>
      <trkpt lat="38.255372" lon="-1.427597">
        <ele>230.4</ele>
        <time>2017-02-12T13:40:41Z</time>
      </trkpt>
      <trkpt lat="38.255232" lon="-1.427433">
        <ele>229.4</ele>
        <time>2017-02-12T13:40:54Z</time>
      </trkpt>
      <trkpt lat="38.255217" lon="-1.427432">
        <ele>229.4</ele>
        <time>2017-02-12T13:40:55Z</time>
      </trkpt>
      <trkpt lat="38.255187" lon="-1.427433">
        <ele>228.9</ele>
        <time>2017-02-12T13:40:57Z</time>
      </trkpt>
      <trkpt lat="38.255173" lon="-1.427427">
        <ele>228.4</ele>
        <time>2017-02-12T13:40:58Z</time>
      </trkpt>
      <trkpt lat="38.255157" lon="-1.427424">
        <ele>229.9</ele>
        <time>2017-02-12T13:40:59Z</time>
      </trkpt>
      <trkpt lat="38.255042" lon="-1.427417">
        <ele>227.0</ele>
        <time>2017-02-12T13:41:08Z</time>
      </trkpt>
      <trkpt lat="38.254843" lon="-1.427451">
        <ele>227.0</ele>
        <time>2017-02-12T13:41:23Z</time>
      </trkpt>
      <trkpt lat="38.254738" lon="-1.427485">
        <ele>226.5</ele>
        <time>2017-02-12T13:41:32Z</time>
      </trkpt>
      <trkpt lat="38.254586" lon="-1.427485">
        <ele>225.6</ele>
        <time>2017-02-12T13:41:45Z</time>
      </trkpt>
      <trkpt lat="38.254572" lon="-1.427482">
        <ele>225.6</ele>
        <time>2017-02-12T13:41:46Z</time>
      </trkpt>
      <trkpt lat="38.254559" lon="-1.427478">
        <ele>225.6</ele>
        <time>2017-02-12T13:41:47Z</time>
      </trkpt>
      <trkpt lat="38.254545" lon="-1.427475">
        <ele>225.1</ele>
        <time>2017-02-12T13:41:48Z</time>
      </trkpt>
      <trkpt lat="38.254532" lon="-1.427474">
        <ele>225.1</ele>
        <time>2017-02-12T13:41:49Z</time>
      </trkpt>
      <trkpt lat="38.254518" lon="-1.427474">
        <ele>225.1</ele>
        <time>2017-02-12T13:41:50Z</time>
      </trkpt>
      <trkpt lat="38.254504" lon="-1.427472">
        <ele>225.1</ele>
        <time>2017-02-12T13:41:51Z</time>
      </trkpt>
      <trkpt lat="38.254289" lon="-1.427442">
        <ele>224.1</ele>
        <time>2017-02-12T13:42:07Z</time>
      </trkpt>
      <trkpt lat="38.254121" lon="-1.427377">
        <ele>223.6</ele>
        <time>2017-02-12T13:42:21Z</time>
      </trkpt>
      <trkpt lat="38.253948" lon="-1.427291">
        <ele>221.7</ele>
        <time>2017-02-12T13:42:37Z</time>
      </trkpt>
      <trkpt lat="38.253762" lon="-1.427200">
        <ele>221.2</ele>
        <time>2017-02-12T13:42:52Z</time>
      </trkpt>
      <trkpt lat="38.253745" lon="-1.427187">
        <ele>220.3</ele>
        <time>2017-02-12T13:42:54Z</time>
      </trkpt>
      <trkpt lat="38.253732" lon="-1.427180">
        <ele>220.8</ele>
        <time>2017-02-12T13:42:55Z</time>
      </trkpt>
      <trkpt lat="38.253640" lon="-1.427191">
        <ele>221.2</ele>
        <time>2017-02-12T13:43:03Z</time>
      </trkpt>
      <trkpt lat="38.253625" lon="-1.427221">
        <ele>220.8</ele>
        <time>2017-02-12T13:43:05Z</time>
      </trkpt>
      <trkpt lat="38.253452" lon="-1.427246">
        <ele>218.8</ele>
        <time>2017-02-12T13:43:19Z</time>
      </trkpt>
      <trkpt lat="38.253215" lon="-1.427191">
        <ele>218.4</ele>
        <time>2017-02-12T13:43:34Z</time>
      </trkpt>
      <trkpt lat="38.253018" lon="-1.427159">
        <ele>217.4</ele>
        <time>2017-02-12T13:43:48Z</time>
      </trkpt>
      <trkpt lat="38.252813" lon="-1.427081">
        <ele>215.9</ele>
        <time>2017-02-12T13:44:06Z</time>
      </trkpt>
      <trkpt lat="38.252559" lon="-1.426973">
        <ele>215.0</ele>
        <time>2017-02-12T13:44:24Z</time>
      </trkpt>
      <trkpt lat="38.252366" lon="-1.426900">
        <ele>212.6</ele>
        <time>2017-02-12T13:44:38Z</time>
      </trkpt>
      <trkpt lat="38.252124" lon="-1.426937">
        <ele>211.6</ele>
        <time>2017-02-12T13:44:54Z</time>
      </trkpt>
      <trkpt lat="38.251974" lon="-1.426999">
        <ele>210.7</ele>
        <time>2017-02-12T13:45:04Z</time>
      </trkpt>
      <trkpt lat="38.251803" lon="-1.427077">
        <ele>211.6</ele>
        <time>2017-02-12T13:45:16Z</time>
      </trkpt>
      <trkpt lat="38.251789" lon="-1.427083">
        <ele>212.1</ele>
        <time>2017-02-12T13:45:17Z</time>
      </trkpt>
      <trkpt lat="38.251775" lon="-1.427092">
        <ele>212.1</ele>
        <time>2017-02-12T13:45:18Z</time>
      </trkpt>
      <trkpt lat="38.251759" lon="-1.427098">
        <ele>212.1</ele>
        <time>2017-02-12T13:45:19Z</time>
      </trkpt>
      <trkpt lat="38.251745" lon="-1.427106">
        <ele>211.6</ele>
        <time>2017-02-12T13:45:20Z</time>
      </trkpt>
      <trkpt lat="38.251729" lon="-1.427112">
        <ele>211.6</ele>
        <time>2017-02-12T13:45:21Z</time>
      </trkpt>
      <trkpt lat="38.251712" lon="-1.427115">
        <ele>211.1</ele>
        <time>2017-02-12T13:45:22Z</time>
      </trkpt>
      <trkpt lat="38.251608" lon="-1.427152">
        <ele>210.7</ele>
        <time>2017-02-12T13:45:30Z</time>
      </trkpt>
      <trkpt lat="38.251596" lon="-1.427156">
        <ele>210.7</ele>
        <time>2017-02-12T13:45:31Z</time>
      </trkpt>
      <trkpt lat="38.251584" lon="-1.427159">
        <ele>211.1</ele>
        <time>2017-02-12T13:45:32Z</time>
      </trkpt>
      <trkpt lat="38.251567" lon="-1.427161">
        <ele>211.1</ele>
        <time>2017-02-12T13:45:33Z</time>
      </trkpt>
      <trkpt lat="38.251551" lon="-1.427164">
        <ele>211.1</ele>
        <time>2017-02-12T13:45:34Z</time>
      </trkpt>
      <trkpt lat="38.251341" lon="-1.427291">
        <ele>209.7</ele>
        <time>2017-02-12T13:45:48Z</time>
      </trkpt>
      <trkpt lat="38.251286" lon="-1.427350">
        <ele>209.7</ele>
        <time>2017-02-12T13:45:53Z</time>
      </trkpt>
      <trkpt lat="38.251249" lon="-1.427380">
        <ele>209.7</ele>
        <time>2017-02-12T13:45:56Z</time>
      </trkpt>
      <trkpt lat="38.251205" lon="-1.427438">
        <ele>209.2</ele>
        <time>2017-02-12T13:46:08Z</time>
      </trkpt>
      <trkpt lat="38.251210" lon="-1.427446">
        <ele>209.7</ele>
        <time>2017-02-12T13:46:09Z</time>
      </trkpt>
      <trkpt lat="38.251212" lon="-1.427462">
        <ele>209.7</ele>
        <time>2017-02-12T13:46:10Z</time>
      </trkpt>
      <trkpt lat="38.251214" lon="-1.427480">
        <ele>209.2</ele>
        <time>2017-02-12T13:46:11Z</time>
      </trkpt>
      <trkpt lat="38.251214" lon="-1.427503">
        <ele>208.7</ele>
        <time>2017-02-12T13:46:12Z</time>
      </trkpt>
      <trkpt lat="38.251154" lon="-1.427535">
        <ele>208.3</ele>
        <time>2017-02-12T13:46:13Z</time>
      </trkpt>
      <trkpt lat="38.251105" lon="-1.427568">
        <ele>208.3</ele>
        <time>2017-02-12T13:46:14Z</time>
      </trkpt>
      <trkpt lat="38.251063" lon="-1.427605">
        <ele>209.2</ele>
        <time>2017-02-12T13:46:15Z</time>
      </trkpt>
      <trkpt lat="38.251034" lon="-1.427643">
        <ele>208.7</ele>
        <time>2017-02-12T13:46:16Z</time>
      </trkpt>
      <trkpt lat="38.251010" lon="-1.427688">
        <ele>208.3</ele>
        <time>2017-02-12T13:46:17Z</time>
      </trkpt>
      <trkpt lat="38.250984" lon="-1.427680">
        <ele>208.7</ele>
        <time>2017-02-12T13:46:24Z</time>
      </trkpt>
      <trkpt lat="38.250896" lon="-1.427724">
        <ele>206.8</ele>
        <time>2017-02-12T13:46:31Z</time>
      </trkpt>
      <trkpt lat="38.250887" lon="-1.427727">
        <ele>207.8</ele>
        <time>2017-02-12T13:46:32Z</time>
      </trkpt>
      <trkpt lat="38.250874" lon="-1.427730">
        <ele>207.8</ele>
        <time>2017-02-12T13:46:33Z</time>
      </trkpt>
      <trkpt lat="38.250862" lon="-1.427734">
        <ele>207.8</ele>
        <time>2017-02-12T13:46:34Z</time>
      </trkpt>
      <trkpt lat="38.250804" lon="-1.427755">
        <ele>208.7</ele>
        <time>2017-02-12T13:46:38Z</time>
      </trkpt>
      <trkpt lat="38.250789" lon="-1.427756">
        <ele>207.8</ele>
        <time>2017-02-12T13:46:39Z</time>
      </trkpt>
      <trkpt lat="38.250628" lon="-1.427696">
        <ele>207.3</ele>
        <time>2017-02-12T13:46:51Z</time>
      </trkpt>
      <trkpt lat="38.250464" lon="-1.427664">
        <ele>205.9</ele>
        <time>2017-02-12T13:47:05Z</time>
      </trkpt>
      <trkpt lat="38.250253" lon="-1.427621">
        <ele>205.9</ele>
        <time>2017-02-12T13:47:23Z</time>
      </trkpt>
      <trkpt lat="38.250236" lon="-1.427607">
        <ele>205.4</ele>
        <time>2017-02-12T13:47:27Z</time>
      </trkpt>
      <trkpt lat="38.250222" lon="-1.427598">
        <ele>204.9</ele>
        <time>2017-02-12T13:47:28Z</time>
      </trkpt>
      <trkpt lat="38.249981" lon="-1.427472">
        <ele>204.9</ele>
        <time>2017-02-12T13:47:45Z</time>
      </trkpt>
      <trkpt lat="38.249797" lon="-1.427390">
        <ele>204.4</ele>
        <time>2017-02-12T13:48:00Z</time>
      </trkpt>
      <trkpt lat="38.249676" lon="-1.427355">
        <ele>203.9</ele>
        <time>2017-02-12T13:48:15Z</time>
      </trkpt>
      <trkpt lat="38.249607" lon="-1.427316">
        <ele>203.0</ele>
        <time>2017-02-12T13:48:31Z</time>
      </trkpt>
      <trkpt lat="38.249550" lon="-1.427284">
        <ele>203.0</ele>
        <time>2017-02-12T13:48:43Z</time>
      </trkpt>
      <trkpt lat="38.249349" lon="-1.427214">
        <ele>202.0</ele>
        <time>2017-02-12T13:48:58Z</time>
      </trkpt>
      <trkpt lat="38.249337" lon="-1.427215">
        <ele>202.0</ele>
        <time>2017-02-12T13:48:59Z</time>
      </trkpt>
      <trkpt lat="38.249291" lon="-1.427202">
        <ele>202.0</ele>
        <time>2017-02-12T13:49:02Z</time>
      </trkpt>
      <trkpt lat="38.249276" lon="-1.427191">
        <ele>202.0</ele>
        <time>2017-02-12T13:49:03Z</time>
      </trkpt>
      <trkpt lat="38.249261" lon="-1.427182">
        <ele>202.5</ele>
        <time>2017-02-12T13:49:04Z</time>
      </trkpt>
      <trkpt lat="38.249071" lon="-1.427059">
        <ele>202.0</ele>
        <time>2017-02-12T13:49:16Z</time>
      </trkpt>
      <trkpt lat="38.249032" lon="-1.427044">
        <ele>201.1</ele>
        <time>2017-02-12T13:49:19Z</time>
      </trkpt>
      <trkpt lat="38.248904" lon="-1.426964">
        <ele>200.6</ele>
        <time>2017-02-12T13:49:28Z</time>
      </trkpt>
      <trkpt lat="38.248728" lon="-1.426921">
        <ele>200.6</ele>
        <time>2017-02-12T13:49:41Z</time>
      </trkpt>
      <trkpt lat="38.248693" lon="-1.426911">
        <ele>201.5</ele>
        <time>2017-02-12T13:49:43Z</time>
      </trkpt>
      <trkpt lat="38.248521" lon="-1.426817">
        <ele>200.6</ele>
        <time>2017-02-12T13:49:56Z</time>
      </trkpt>
      <trkpt lat="38.248466" lon="-1.426791">
        <ele>201.1</ele>
        <time>2017-02-12T13:50:00Z</time>
      </trkpt>
      <trkpt lat="38.248451" lon="-1.426785">
        <ele>201.1</ele>
        <time>2017-02-12T13:50:01Z</time>
      </trkpt>
      <trkpt lat="38.248439" lon="-1.426782">
        <ele>200.6</ele>
        <time>2017-02-12T13:50:02Z</time>
      </trkpt>
      <trkpt lat="38.248394" lon="-1.426759">
        <ele>200.6</ele>
        <time>2017-02-12T13:50:05Z</time>
      </trkpt>
      <trkpt lat="38.248381" lon="-1.426754">
        <ele>201.1</ele>
        <time>2017-02-12T13:50:06Z</time>
      </trkpt>
      <trkpt lat="38.248366" lon="-1.426749">
        <ele>201.1</ele>
        <time>2017-02-12T13:50:07Z</time>
      </trkpt>
      <trkpt lat="38.248297" lon="-1.426688">
        <ele>201.1</ele>
        <time>2017-02-12T13:50:15Z</time>
      </trkpt>
      <trkpt lat="38.248285" lon="-1.426683">
        <ele>200.6</ele>
        <time>2017-02-12T13:50:16Z</time>
      </trkpt>
      <trkpt lat="38.248234" lon="-1.426656">
        <ele>201.1</ele>
        <time>2017-02-12T13:50:21Z</time>
      </trkpt>
      <trkpt lat="38.248221" lon="-1.426648">
        <ele>200.6</ele>
        <time>2017-02-12T13:50:22Z</time>
      </trkpt>
      <trkpt lat="38.248024" lon="-1.426570">
        <ele>200.1</ele>
        <time>2017-02-12T13:50:35Z</time>
      </trkpt>
      <trkpt lat="38.247830" lon="-1.426478">
        <ele>199.6</ele>
        <time>2017-02-12T13:50:52Z</time>
      </trkpt>
      <trkpt lat="38.247637" lon="-1.426350">
        <ele>200.1</ele>
        <time>2017-02-12T13:51:08Z</time>
      </trkpt>
      <trkpt lat="38.247417" lon="-1.426228">
        <ele>199.6</ele>
        <time>2017-02-12T13:51:25Z</time>
      </trkpt>
      <trkpt lat="38.247261" lon="-1.426169">
        <ele>199.6</ele>
        <time>2017-02-12T13:51:40Z</time>
      </trkpt>
      <trkpt lat="38.247105" lon="-1.426076">
        <ele>199.1</ele>
        <time>2017-02-12T13:51:55Z</time>
      </trkpt>
      <trkpt lat="38.247094" lon="-1.426066">
        <ele>199.1</ele>
        <time>2017-02-12T13:51:56Z</time>
      </trkpt>
      <trkpt lat="38.247083" lon="-1.426057">
        <ele>198.2</ele>
        <time>2017-02-12T13:51:57Z</time>
      </trkpt>
      <trkpt lat="38.247071" lon="-1.426048">
        <ele>199.1</ele>
        <time>2017-02-12T13:51:58Z</time>
      </trkpt>
      <trkpt lat="38.247060" lon="-1.426037">
        <ele>199.1</ele>
        <time>2017-02-12T13:51:59Z</time>
      </trkpt>
      <trkpt lat="38.247050" lon="-1.426026">
        <ele>199.1</ele>
        <time>2017-02-12T13:52:00Z</time>
      </trkpt>
      <trkpt lat="38.246846" lon="-1.425892">
        <ele>199.6</ele>
        <time>2017-02-12T13:52:17Z</time>
      </trkpt>
      <trkpt lat="38.246762" lon="-1.425850">
        <ele>198.6</ele>
        <time>2017-02-12T13:52:24Z</time>
      </trkpt>
      <trkpt lat="38.246749" lon="-1.425848">
        <ele>198.2</ele>
        <time>2017-02-12T13:52:25Z</time>
      </trkpt>
      <trkpt lat="38.246736" lon="-1.425844">
        <ele>198.6</ele>
        <time>2017-02-12T13:52:26Z</time>
      </trkpt>
      <trkpt lat="38.246554" lon="-1.425671">
        <ele>198.2</ele>
        <time>2017-02-12T13:52:45Z</time>
      </trkpt>
      <trkpt lat="38.246385" lon="-1.425482">
        <ele>197.2</ele>
        <time>2017-02-12T13:53:03Z</time>
      </trkpt>
      <trkpt lat="38.246217" lon="-1.425306">
        <ele>196.7</ele>
        <time>2017-02-12T13:53:20Z</time>
      </trkpt>
      <trkpt lat="38.246026" lon="-1.425090">
        <ele>197.2</ele>
        <time>2017-02-12T13:53:40Z</time>
      </trkpt>
      <trkpt lat="38.246015" lon="-1.425078">
        <ele>196.2</ele>
        <time>2017-02-12T13:53:41Z</time>
      </trkpt>
      <trkpt lat="38.246005" lon="-1.425066">
        <ele>196.2</ele>
        <time>2017-02-12T13:53:42Z</time>
      </trkpt>
      <trkpt lat="38.245902" lon="-1.424856">
        <ele>196.7</ele>
        <time>2017-02-12T13:53:58Z</time>
      </trkpt>
      <trkpt lat="38.245769" lon="-1.424653">
        <ele>196.7</ele>
        <time>2017-02-12T13:54:14Z</time>
      </trkpt>
      <trkpt lat="38.245619" lon="-1.424478">
        <ele>196.7</ele>
        <time>2017-02-12T13:54:28Z</time>
      </trkpt>
      <trkpt lat="38.245498" lon="-1.424346">
        <ele>196.7</ele>
        <time>2017-02-12T13:54:41Z</time>
      </trkpt>
      <trkpt lat="38.245336" lon="-1.424145">
        <ele>197.2</ele>
        <time>2017-02-12T13:54:59Z</time>
      </trkpt>
      <trkpt lat="38.245163" lon="-1.423985">
        <ele>196.7</ele>
        <time>2017-02-12T13:55:17Z</time>
      </trkpt>
      <trkpt lat="38.245030" lon="-1.423827">
        <ele>196.7</ele>
        <time>2017-02-12T13:55:32Z</time>
      </trkpt>
      <trkpt lat="38.244894" lon="-1.423682">
        <ele>195.8</ele>
        <time>2017-02-12T13:55:47Z</time>
      </trkpt>
      <trkpt lat="38.244802" lon="-1.423602">
        <ele>196.7</ele>
        <time>2017-02-12T13:55:56Z</time>
      </trkpt>
      <trkpt lat="38.244790" lon="-1.423591">
        <ele>196.7</ele>
        <time>2017-02-12T13:55:57Z</time>
      </trkpt>
      <trkpt lat="38.244724" lon="-1.423558">
        <ele>197.2</ele>
        <time>2017-02-12T13:56:03Z</time>
      </trkpt>
      <trkpt lat="38.244640" lon="-1.423510">
        <ele>196.7</ele>
        <time>2017-02-12T13:56:13Z</time>
      </trkpt>
      <trkpt lat="38.244597" lon="-1.423469">
        <ele>197.2</ele>
        <time>2017-02-12T13:56:20Z</time>
      </trkpt>
      <trkpt lat="38.244586" lon="-1.423459">
        <ele>196.7</ele>
        <time>2017-02-12T13:56:21Z</time>
      </trkpt>
      <trkpt lat="38.244489" lon="-1.423417">
        <ele>196.7</ele>
        <time>2017-02-12T13:56:33Z</time>
      </trkpt>
      <trkpt lat="38.244446" lon="-1.423376">
        <ele>196.7</ele>
        <time>2017-02-12T13:56:46Z</time>
      </trkpt>
      <trkpt lat="38.244321" lon="-1.423311">
        <ele>196.7</ele>
        <time>2017-02-12T13:56:57Z</time>
      </trkpt>
      <trkpt lat="38.244209" lon="-1.423225">
        <ele>196.2</ele>
        <time>2017-02-12T13:57:07Z</time>
      </trkpt>
      <trkpt lat="38.244101" lon="-1.423094">
        <ele>196.7</ele>
        <time>2017-02-12T13:57:20Z</time>
      </trkpt>
      <trkpt lat="38.243988" lon="-1.423032">
        <ele>196.2</ele>
        <time>2017-02-12T13:57:33Z</time>
      </trkpt>
      <trkpt lat="38.243973" lon="-1.423034">
        <ele>196.2</ele>
        <time>2017-02-12T13:57:35Z</time>
      </trkpt>
      <trkpt lat="38.243962" lon="-1.423038">
        <ele>196.2</ele>
        <time>2017-02-12T13:57:36Z</time>
      </trkpt>
      <trkpt lat="38.243884" lon="-1.422963">
        <ele>196.2</ele>
        <time>2017-02-12T13:57:49Z</time>
      </trkpt>
      <trkpt lat="38.243790" lon="-1.422804">
        <ele>195.8</ele>
        <time>2017-02-12T13:58:06Z</time>
      </trkpt>
      <trkpt lat="38.243674" lon="-1.422680">
        <ele>198.2</ele>
        <time>2017-02-12T14:00:18Z</time>
      </trkpt>
      <trkpt lat="38.243475" lon="-1.422607">
        <ele>197.2</ele>
        <time>2017-02-12T14:00:27Z</time>
      </trkpt>
      <trkpt lat="38.243444" lon="-1.422614">
        <ele>196.7</ele>
        <time>2017-02-12T14:00:31Z</time>
      </trkpt>
      <trkpt lat="38.243394" lon="-1.422599">
        <ele>197.7</ele>
        <time>2017-02-12T14:00:43Z</time>
      </trkpt>
      <trkpt lat="38.243353" lon="-1.422584">
        <ele>197.7</ele>
        <time>2017-02-12T14:00:48Z</time>
      </trkpt>
      <trkpt lat="38.243326" lon="-1.422523">
        <ele>197.7</ele>
        <time>2017-02-12T14:00:50Z</time>
      </trkpt>
      <trkpt lat="38.243179" lon="-1.422337">
        <ele>198.2</ele>
        <time>2017-02-12T14:01:02Z</time>
      </trkpt>
      <trkpt lat="38.242929" lon="-1.422307">
        <ele>203.0</ele>
        <time>2017-02-12T14:03:32Z</time>
      </trkpt>
      <trkpt lat="38.242886" lon="-1.422308">
        <ele>203.0</ele>
        <time>2017-02-12T14:03:53Z</time>
      </trkpt>
      <trkpt lat="38.242809" lon="-1.422269">
        <ele>202.5</ele>
        <time>2017-02-12T14:03:58Z</time>
      </trkpt>
      <trkpt lat="38.242687" lon="-1.422218">
        <ele>202.5</ele>
        <time>2017-02-12T14:04:09Z</time>
      </trkpt>
      <trkpt lat="38.242661" lon="-1.422219">
        <ele>202.5</ele>
        <time>2017-02-12T14:04:11Z</time>
      </trkpt>
      <trkpt lat="38.242569" lon="-1.422216">
        <ele>202.5</ele>
        <time>2017-02-12T14:04:20Z</time>
      </trkpt>
      <trkpt lat="38.242472" lon="-1.422247">
        <ele>202.0</ele>
        <time>2017-02-12T14:04:29Z</time>
      </trkpt>
      <trkpt lat="38.242348" lon="-1.422499">
        <ele>201.5</ele>
        <time>2017-02-12T14:04:44Z</time>
      </trkpt>
      <trkpt lat="38.242193" lon="-1.422612">
        <ele>201.5</ele>
        <time>2017-02-12T14:04:56Z</time>
      </trkpt>
      <trkpt lat="38.242159" lon="-1.422653">
        <ele>201.5</ele>
        <time>2017-02-12T14:05:00Z</time>
      </trkpt>
      <trkpt lat="38.242150" lon="-1.422664">
        <ele>201.1</ele>
        <time>2017-02-12T14:05:01Z</time>
      </trkpt>
      <trkpt lat="38.242135" lon="-1.422690">
        <ele>201.5</ele>
        <time>2017-02-12T14:05:03Z</time>
      </trkpt>
      <trkpt lat="38.242106" lon="-1.422883">
        <ele>201.5</ele>
        <time>2017-02-12T14:05:12Z</time>
      </trkpt>
      <trkpt lat="38.242063" lon="-1.422975">
        <ele>201.1</ele>
        <time>2017-02-12T14:05:18Z</time>
      </trkpt>
      <trkpt lat="38.242015" lon="-1.423208">
        <ele>200.6</ele>
        <time>2017-02-12T14:05:30Z</time>
      </trkpt>
      <trkpt lat="38.242006" lon="-1.423251">
        <ele>200.6</ele>
        <time>2017-02-12T14:05:32Z</time>
      </trkpt>
      <trkpt lat="38.241960" lon="-1.423460">
        <ele>200.1</ele>
        <time>2017-02-12T14:05:42Z</time>
      </trkpt>
      <trkpt lat="38.241866" lon="-1.423715">
        <ele>200.1</ele>
        <time>2017-02-12T14:05:58Z</time>
      </trkpt>
      <trkpt lat="38.241739" lon="-1.423780">
        <ele>200.6</ele>
        <time>2017-02-12T14:06:11Z</time>
      </trkpt>
      <trkpt lat="38.241697" lon="-1.423812">
        <ele>199.6</ele>
        <time>2017-02-12T14:06:14Z</time>
      </trkpt>
      <trkpt lat="38.241681" lon="-1.423816">
        <ele>199.1</ele>
        <time>2017-02-12T14:06:15Z</time>
      </trkpt>
      <trkpt lat="38.241656" lon="-1.423829">
        <ele>199.6</ele>
        <time>2017-02-12T14:06:17Z</time>
      </trkpt>
      <trkpt lat="38.241562" lon="-1.423868">
        <ele>199.1</ele>
        <time>2017-02-12T14:06:25Z</time>
      </trkpt>
      <trkpt lat="38.241543" lon="-1.423905">
        <ele>199.1</ele>
        <time>2017-02-12T14:06:26Z</time>
      </trkpt>
      <trkpt lat="38.241527" lon="-1.423934">
        <ele>198.6</ele>
        <time>2017-02-12T14:06:27Z</time>
      </trkpt>
      <trkpt lat="38.241237" lon="-1.424032">
        <ele>198.6</ele>
        <time>2017-02-12T14:06:43Z</time>
      </trkpt>
      <trkpt lat="38.240979" lon="-1.424074">
        <ele>198.2</ele>
        <time>2017-02-12T14:06:57Z</time>
      </trkpt>
      <trkpt lat="38.240831" lon="-1.424095">
        <ele>198.2</ele>
        <time>2017-02-12T14:07:07Z</time>
      </trkpt>
      <trkpt lat="38.240737" lon="-1.424111">
        <ele>198.2</ele>
        <time>2017-02-12T14:07:13Z</time>
      </trkpt>
      <trkpt lat="38.240687" lon="-1.424105">
        <ele>198.6</ele>
        <time>2017-02-12T14:07:16Z</time>
      </trkpt>
      <trkpt lat="38.240654" lon="-1.424110">
        <ele>198.2</ele>
        <time>2017-02-12T14:07:18Z</time>
      </trkpt>
      <trkpt lat="38.240426" lon="-1.424130">
        <ele>197.7</ele>
        <time>2017-02-12T14:07:34Z</time>
      </trkpt>
      <trkpt lat="38.240405" lon="-1.424122">
        <ele>197.7</ele>
        <time>2017-02-12T14:07:36Z</time>
      </trkpt>
      <trkpt lat="38.240392" lon="-1.424117">
        <ele>197.7</ele>
        <time>2017-02-12T14:07:37Z</time>
      </trkpt>
      <trkpt lat="38.240379" lon="-1.424113">
        <ele>197.2</ele>
        <time>2017-02-12T14:07:38Z</time>
      </trkpt>
      <trkpt lat="38.240363" lon="-1.424110">
        <ele>197.7</ele>
        <time>2017-02-12T14:07:39Z</time>
      </trkpt>
      <trkpt lat="38.240348" lon="-1.424107">
        <ele>197.2</ele>
        <time>2017-02-12T14:07:40Z</time>
      </trkpt>
      <trkpt lat="38.240334" lon="-1.424104">
        <ele>197.2</ele>
        <time>2017-02-12T14:07:41Z</time>
      </trkpt>
      <trkpt lat="38.240320" lon="-1.424105">
        <ele>197.2</ele>
        <time>2017-02-12T14:07:42Z</time>
      </trkpt>
      <trkpt lat="38.240291" lon="-1.424100">
        <ele>197.7</ele>
        <time>2017-02-12T14:07:44Z</time>
      </trkpt>
      <trkpt lat="38.240267" lon="-1.424083">
        <ele>197.7</ele>
        <time>2017-02-12T14:07:46Z</time>
      </trkpt>
      <trkpt lat="38.240237" lon="-1.424084">
        <ele>197.2</ele>
        <time>2017-02-12T14:07:48Z</time>
      </trkpt>
      <trkpt lat="38.240223" lon="-1.424086">
        <ele>197.2</ele>
        <time>2017-02-12T14:07:49Z</time>
      </trkpt>
      <trkpt lat="38.240030" lon="-1.424094">
        <ele>199.1</ele>
        <time>2017-02-12T14:08:02Z</time>
      </trkpt>
      <trkpt lat="38.240018" lon="-1.424103">
        <ele>196.2</ele>
        <time>2017-02-12T14:08:03Z</time>
      </trkpt>
      <trkpt lat="38.240005" lon="-1.424125">
        <ele>199.1</ele>
        <time>2017-02-12T14:08:04Z</time>
      </trkpt>
      <trkpt lat="38.239889" lon="-1.424128">
        <ele>197.7</ele>
        <time>2017-02-12T14:08:14Z</time>
      </trkpt>
      <trkpt lat="38.239697" lon="-1.424122">
        <ele>198.2</ele>
        <time>2017-02-12T14:08:27Z</time>
      </trkpt>
      <trkpt lat="38.239686" lon="-1.424118">
        <ele>198.6</ele>
        <time>2017-02-12T14:08:28Z</time>
      </trkpt>
      <trkpt lat="38.239672" lon="-1.424118">
        <ele>198.2</ele>
        <time>2017-02-12T14:08:29Z</time>
      </trkpt>
      <trkpt lat="38.239658" lon="-1.424118">
        <ele>198.2</ele>
        <time>2017-02-12T14:08:30Z</time>
      </trkpt>
      <trkpt lat="38.239644" lon="-1.424117">
        <ele>198.6</ele>
        <time>2017-02-12T14:08:31Z</time>
      </trkpt>
      <trkpt lat="38.239483" lon="-1.424194">
        <ele>198.2</ele>
        <time>2017-02-12T14:08:45Z</time>
      </trkpt>
      <trkpt lat="38.239360" lon="-1.424296">
        <ele>198.6</ele>
        <time>2017-02-12T14:08:53Z</time>
      </trkpt>
      <trkpt lat="38.239338" lon="-1.424303">
        <ele>198.6</ele>
        <time>2017-02-12T14:08:54Z</time>
      </trkpt>
      <trkpt lat="38.239198" lon="-1.424432">
        <ele>199.1</ele>
        <time>2017-02-12T14:09:04Z</time>
      </trkpt>
      <trkpt lat="38.239080" lon="-1.424624">
        <ele>200.1</ele>
        <time>2017-02-12T14:09:17Z</time>
      </trkpt>
      <trkpt lat="38.239072" lon="-1.424848">
        <ele>189.5</ele>
        <time>2017-02-25T06:47:16Z</time>
      </trkpt>
      <trkpt lat="38.239065" lon="-1.424963">
        <ele>189.0</ele>
        <time>2017-02-25T06:47:23Z</time>
      </trkpt>
      <trkpt lat="38.239037" lon="-1.425085">
        <ele>189.5</ele>
        <time>2017-02-25T06:47:32Z</time>
      </trkpt>
      <trkpt lat="38.239021" lon="-1.425128">
        <ele>189.0</ele>
        <time>2017-02-25T06:47:36Z</time>
      </trkpt>
      <trkpt lat="38.239009" lon="-1.425221">
        <ele>189.0</ele>
        <time>2017-02-25T06:47:43Z</time>
      </trkpt>
      <trkpt lat="38.238917" lon="-1.425398">
        <ele>187.6</ele>
        <time>2017-02-25T06:47:58Z</time>
      </trkpt>
      <trkpt lat="38.238843" lon="-1.425627">
        <ele>187.6</ele>
        <time>2017-02-25T06:48:12Z</time>
      </trkpt>
      <trkpt lat="38.238750" lon="-1.425830">
        <ele>188.1</ele>
        <time>2017-02-25T06:48:25Z</time>
      </trkpt>
      <trkpt lat="38.238669" lon="-1.426031">
        <ele>189.0</ele>
        <time>2017-02-25T06:48:39Z</time>
      </trkpt>
      <trkpt lat="38.238600" lon="-1.426292">
        <ele>190.5</ele>
        <time>2017-02-25T06:48:55Z</time>
      </trkpt>
      <trkpt lat="38.238557" lon="-1.426468">
        <ele>190.5</ele>
        <time>2017-02-25T06:49:07Z</time>
      </trkpt>
      <trkpt lat="38.238451" lon="-1.426711">
        <ele>188.6</ele>
        <time>2017-02-25T06:49:21Z</time>
      </trkpt>
      <trkpt lat="38.238341" lon="-1.426852">
        <ele>187.6</ele>
        <time>2017-02-25T06:49:34Z</time>
      </trkpt>
      <trkpt lat="38.238294" lon="-1.427068">
        <ele>185.7</ele>
        <time>2017-02-25T06:49:48Z</time>
      </trkpt>
      <trkpt lat="38.238191" lon="-1.427328">
        <ele>184.7</ele>
        <time>2017-02-25T06:50:03Z</time>
      </trkpt>
      <trkpt lat="38.238085" lon="-1.427368">
        <ele>184.7</ele>
        <time>2017-02-25T06:50:09Z</time>
      </trkpt>
      <trkpt lat="38.238043" lon="-1.427399">
        <ele>185.2</ele>
        <time>2017-02-25T06:50:13Z</time>
      </trkpt>
      <trkpt lat="38.237957" lon="-1.427654">
        <ele>184.2</ele>
        <time>2017-02-25T06:50:30Z</time>
      </trkpt>
      <trkpt lat="38.237879" lon="-1.427797">
        <ele>183.8</ele>
        <time>2017-02-25T06:50:41Z</time>
      </trkpt>
      <trkpt lat="38.237727" lon="-1.428045">
        <ele>182.8</ele>
        <time>2017-02-25T06:51:00Z</time>
      </trkpt>
      <trkpt lat="38.237638" lon="-1.428239">
        <ele>180.9</ele>
        <time>2017-02-25T06:51:15Z</time>
      </trkpt>
      <trkpt lat="38.237534" lon="-1.428458">
        <ele>179.9</ele>
        <time>2017-02-25T06:51:30Z</time>
      </trkpt>
      <trkpt lat="38.237465" lon="-1.428809">
        <ele>178.0</ele>
        <time>2017-02-25T06:51:50Z</time>
      </trkpt>
      <trkpt lat="38.237469" lon="-1.428966">
        <ele>174.6</ele>
        <time>2017-02-25T06:51:58Z</time>
      </trkpt>
      <trkpt lat="38.237468" lon="-1.428984">
        <ele>178.5</ele>
        <time>2017-02-25T06:51:59Z</time>
      </trkpt>
      <trkpt lat="38.237467" lon="-1.429026">
        <ele>175.1</ele>
        <time>2017-02-25T06:52:01Z</time>
      </trkpt>
      <trkpt lat="38.237465" lon="-1.429065">
        <ele>178.0</ele>
        <time>2017-02-25T06:52:03Z</time>
      </trkpt>
      <trkpt lat="38.237466" lon="-1.429083">
        <ele>181.8</ele>
        <time>2017-02-25T06:52:04Z</time>
      </trkpt>
      <trkpt lat="38.237463" lon="-1.429099">
        <ele>177.0</ele>
        <time>2017-02-25T06:52:05Z</time>
      </trkpt>
      <trkpt lat="38.237452" lon="-1.429152">
        <ele>176.5</ele>
        <time>2017-02-25T06:52:08Z</time>
      </trkpt>
      <trkpt lat="38.237409" lon="-1.429281">
        <ele>176.5</ele>
        <time>2017-02-25T06:52:16Z</time>
      </trkpt>
      <trkpt lat="38.237363" lon="-1.429357">
        <ele>176.1</ele>
        <time>2017-02-25T06:52:21Z</time>
      </trkpt>
      <trkpt lat="38.237301" lon="-1.429562">
        <ele>175.6</ele>
        <time>2017-02-25T06:52:32Z</time>
      </trkpt>
      <trkpt lat="38.237274" lon="-1.429589">
        <ele>175.6</ele>
        <time>2017-02-25T06:53:10Z</time>
      </trkpt>
      <trkpt lat="38.237229" lon="-1.429659">
        <ele>175.6</ele>
        <time>2017-02-25T06:53:19Z</time>
      </trkpt>
      <trkpt lat="38.237185" lon="-1.429708">
        <ele>175.1</ele>
        <time>2017-02-25T06:53:29Z</time>
      </trkpt>
      <trkpt lat="38.237148" lon="-1.429738">
        <ele>175.6</ele>
        <time>2017-02-25T06:53:32Z</time>
      </trkpt>
      <trkpt lat="38.237137" lon="-1.429750">
        <ele>175.1</ele>
        <time>2017-02-25T06:53:33Z</time>
      </trkpt>
      <trkpt lat="38.237127" lon="-1.429760">
        <ele>175.1</ele>
        <time>2017-02-25T06:53:34Z</time>
      </trkpt>
      <trkpt lat="38.237113" lon="-1.429771">
        <ele>175.1</ele>
        <time>2017-02-25T06:53:35Z</time>
      </trkpt>
      <trkpt lat="38.237100" lon="-1.429781">
        <ele>175.1</ele>
        <time>2017-02-25T06:53:36Z</time>
      </trkpt>
      <trkpt lat="38.236978" lon="-1.429950">
        <ele>175.1</ele>
        <time>2017-02-25T06:53:51Z</time>
      </trkpt>
      <trkpt lat="38.236894" lon="-1.430094">
        <ele>174.6</ele>
        <time>2017-02-25T06:54:03Z</time>
      </trkpt>
      <trkpt lat="38.236754" lon="-1.430230">
        <ele>175.1</ele>
        <time>2017-02-25T06:54:17Z</time>
      </trkpt>
      <trkpt lat="38.236721" lon="-1.430269">
        <ele>174.1</ele>
        <time>2017-02-25T06:54:22Z</time>
      </trkpt>
      <trkpt lat="38.236707" lon="-1.430271">
        <ele>174.6</ele>
        <time>2017-02-25T06:54:23Z</time>
      </trkpt>
      <trkpt lat="38.236689" lon="-1.430273">
        <ele>174.1</ele>
        <time>2017-02-25T06:54:24Z</time>
      </trkpt>
      <trkpt lat="38.236589" lon="-1.430296">
        <ele>174.6</ele>
        <time>2017-02-25T06:54:33Z</time>
      </trkpt>
      <trkpt lat="38.236575" lon="-1.430295">
        <ele>174.1</ele>
        <time>2017-02-25T06:54:34Z</time>
      </trkpt>
      <trkpt lat="38.236548" lon="-1.430298">
        <ele>172.7</ele>
        <time>2017-02-25T06:54:36Z</time>
      </trkpt>
      <trkpt lat="38.236536" lon="-1.430300">
        <ele>179.4</ele>
        <time>2017-02-25T06:54:37Z</time>
      </trkpt>
      <trkpt lat="38.236522" lon="-1.430303">
        <ele>175.6</ele>
        <time>2017-02-25T06:54:38Z</time>
      </trkpt>
      <trkpt lat="38.236494" lon="-1.430309">
        <ele>174.1</ele>
        <time>2017-02-25T06:54:40Z</time>
      </trkpt>
      <trkpt lat="38.236288" lon="-1.430340">
        <ele>173.7</ele>
        <time>2017-02-25T06:54:57Z</time>
      </trkpt>
      <trkpt lat="38.236084" lon="-1.430256">
        <ele>174.1</ele>
        <time>2017-02-25T06:55:14Z</time>
      </trkpt>
      <trkpt lat="38.235872" lon="-1.430069">
        <ele>173.2</ele>
        <time>2017-02-25T06:55:32Z</time>
      </trkpt>
      <trkpt lat="38.235652" lon="-1.429841">
        <ele>172.7</ele>
        <time>2017-02-25T06:55:49Z</time>
      </trkpt>
      <trkpt lat="38.235452" lon="-1.429625">
        <ele>172.2</ele>
        <time>2017-02-25T06:56:06Z</time>
      </trkpt>
      <trkpt lat="38.235227" lon="-1.429367">
        <ele>171.7</ele>
        <time>2017-02-25T06:56:26Z</time>
      </trkpt>
      <trkpt lat="38.234976" lon="-1.429195">
        <ele>172.2</ele>
        <time>2017-02-25T06:56:45Z</time>
      </trkpt>
      <trkpt lat="38.234798" lon="-1.429019">
        <ele>172.7</ele>
        <time>2017-02-25T06:57:01Z</time>
      </trkpt>
      <trkpt lat="38.234765" lon="-1.428987">
        <ele>172.7</ele>
        <time>2017-02-25T06:57:04Z</time>
      </trkpt>
      <trkpt lat="38.234643" lon="-1.428785">
        <ele>172.7</ele>
        <time>2017-02-25T06:57:21Z</time>
      </trkpt>
      <trkpt lat="38.234572" lon="-1.428674">
        <ele>173.2</ele>
        <time>2017-02-25T06:57:32Z</time>
      </trkpt>
      <trkpt lat="38.234521" lon="-1.428477">
        <ele>173.7</ele>
        <time>2017-02-25T06:57:49Z</time>
      </trkpt>
      <trkpt lat="38.234455" lon="-1.428257">
        <ele>173.2</ele>
        <time>2017-02-25T06:58:04Z</time>
      </trkpt>
      <trkpt lat="38.234387" lon="-1.428097">
        <ele>173.2</ele>
        <time>2017-02-25T06:58:16Z</time>
      </trkpt>
      <trkpt lat="38.234316" lon="-1.427870">
        <ele>173.2</ele>
        <time>2017-02-25T06:58:33Z</time>
      </trkpt>
      <trkpt lat="38.234236" lon="-1.427597">
        <ele>172.7</ele>
        <time>2017-02-25T06:58:50Z</time>
      </trkpt>
      <trkpt lat="38.234118" lon="-1.427017">
        <ele>171.7</ele>
        <time>2017-02-25T06:59:33Z</time>
      </trkpt>
      <trkpt lat="38.234155" lon="-1.426866">
        <ele>172.2</ele>
        <time>2017-02-25T06:59:48Z</time>
      </trkpt>
      <trkpt lat="38.234178" lon="-1.426720">
        <ele>171.2</ele>
        <time>2017-02-25T07:00:00Z</time>
      </trkpt>
      <trkpt lat="38.234228" lon="-1.426606">
        <ele>171.7</ele>
        <time>2017-02-25T07:00:14Z</time>
      </trkpt>
      <trkpt lat="38.234307" lon="-1.426411">
        <ele>171.2</ele>
        <time>2017-02-25T07:00:26Z</time>
      </trkpt>
      <trkpt lat="38.234315" lon="-1.426401">
        <ele>171.2</ele>
        <time>2017-02-25T07:00:27Z</time>
      </trkpt>
      <trkpt lat="38.234325" lon="-1.426381">
        <ele>171.2</ele>
        <time>2017-02-25T07:00:28Z</time>
      </trkpt>
      <trkpt lat="38.234331" lon="-1.426360">
        <ele>170.8</ele>
        <time>2017-02-25T07:00:29Z</time>
      </trkpt>
      <trkpt lat="38.234336" lon="-1.426341">
        <ele>171.2</ele>
        <time>2017-02-25T07:00:30Z</time>
      </trkpt>
      <trkpt lat="38.234344" lon="-1.426326">
        <ele>171.7</ele>
        <time>2017-02-25T07:00:31Z</time>
      </trkpt>
      <trkpt lat="38.234353" lon="-1.426308">
        <ele>171.2</ele>
        <time>2017-02-25T07:00:32Z</time>
      </trkpt>
      <trkpt lat="38.234505" lon="-1.426044">
        <ele>171.2</ele>
        <time>2017-02-25T07:00:49Z</time>
      </trkpt>
      <trkpt lat="38.234509" lon="-1.426019">
        <ele>171.2</ele>
        <time>2017-02-25T07:00:53Z</time>
      </trkpt>
      <trkpt lat="38.234516" lon="-1.426005">
        <ele>170.8</ele>
        <time>2017-02-25T07:00:54Z</time>
      </trkpt>
      <trkpt lat="38.234521" lon="-1.425994">
        <ele>170.8</ele>
        <time>2017-02-25T07:00:55Z</time>
      </trkpt>
      <trkpt lat="38.234525" lon="-1.425979">
        <ele>171.2</ele>
        <time>2017-02-25T07:00:56Z</time>
      </trkpt>
      <trkpt lat="38.234528" lon="-1.425961">
        <ele>171.2</ele>
        <time>2017-02-25T07:00:57Z</time>
      </trkpt>
      <trkpt lat="38.234530" lon="-1.425945">
        <ele>171.2</ele>
        <time>2017-02-25T07:00:58Z</time>
      </trkpt>
      <trkpt lat="38.234515" lon="-1.425921">
        <ele>170.8</ele>
        <time>2017-02-25T07:01:00Z</time>
      </trkpt>
      <trkpt lat="38.234435" lon="-1.425860">
        <ele>170.8</ele>
        <time>2017-02-25T07:01:15Z</time>
      </trkpt>
      <trkpt lat="38.234256" lon="-1.425696">
        <ele>170.3</ele>
        <time>2017-02-25T07:01:32Z</time>
      </trkpt>
      <trkpt lat="38.234100" lon="-1.425539">
        <ele>170.3</ele>
        <time>2017-02-25T07:01:46Z</time>
      </trkpt>
      <trkpt lat="38.233932" lon="-1.425371">
        <ele>170.3</ele>
        <time>2017-02-25T07:02:03Z</time>
      </trkpt>
      <trkpt lat="38.233742" lon="-1.425169">
        <ele>170.3</ele>
        <time>2017-02-25T07:02:21Z</time>
      </trkpt>
      <trkpt lat="38.233552" lon="-1.424969">
        <ele>169.8</ele>
        <time>2017-02-25T07:02:38Z</time>
      </trkpt>
      <trkpt lat="38.233417" lon="-1.424793">
        <ele>170.8</ele>
        <time>2017-02-25T07:02:53Z</time>
      </trkpt>
      <trkpt lat="38.233397" lon="-1.424746">
        <ele>171.2</ele>
        <time>2017-02-25T07:03:05Z</time>
      </trkpt>
      <trkpt lat="38.233376" lon="-1.424745">
        <ele>171.7</ele>
        <time>2017-02-25T07:03:24Z</time>
      </trkpt>
      <trkpt lat="38.233293" lon="-1.424733">
        <ele>168.9</ele>
        <time>2017-02-25T07:05:01Z</time>
      </trkpt>
      <trkpt lat="38.233286" lon="-1.424727">
        <ele>174.1</ele>
        <time>2017-02-25T07:05:04Z</time>
      </trkpt>
      <trkpt lat="38.233283" lon="-1.424729">
        <ele>170.8</ele>
        <time>2017-02-25T07:05:05Z</time>
      </trkpt>
      <trkpt lat="38.233295" lon="-1.424722">
        <ele>170.3</ele>
        <time>2017-02-25T07:05:15Z</time>
      </trkpt>
      <trkpt lat="38.233254" lon="-1.424698">
        <ele>169.8</ele>
        <time>2017-02-25T07:05:18Z</time>
      </trkpt>
      <trkpt lat="38.233069" lon="-1.424671">
        <ele>170.8</ele>
        <time>2017-02-25T07:05:30Z</time>
      </trkpt>
      <trkpt lat="38.233010" lon="-1.424672">
        <ele>170.8</ele>
        <time>2017-02-25T07:05:37Z</time>
      </trkpt>
      <trkpt lat="38.233016" lon="-1.424658">
        <ele>171.2</ele>
        <time>2017-02-25T07:05:38Z</time>
      </trkpt>
      <trkpt lat="38.233023" lon="-1.424647">
        <ele>170.3</ele>
        <time>2017-02-25T07:05:39Z</time>
      </trkpt>
      <trkpt lat="38.233026" lon="-1.424633">
        <ele>170.3</ele>
        <time>2017-02-25T07:05:40Z</time>
      </trkpt>
      <trkpt lat="38.233015" lon="-1.424510">
        <ele>170.3</ele>
        <time>2017-02-25T07:06:04Z</time>
      </trkpt>
      <trkpt lat="38.233048" lon="-1.424250">
        <ele>169.8</ele>
        <time>2017-02-25T07:06:18Z</time>
      </trkpt>
      <trkpt lat="38.233042" lon="-1.424219">
        <ele>169.8</ele>
        <time>2017-02-25T07:06:20Z</time>
      </trkpt>
      <trkpt lat="38.233001" lon="-1.424026">
        <ele>169.3</ele>
        <time>2017-02-25T07:06:33Z</time>
      </trkpt>
      <trkpt lat="38.232956" lon="-1.423933">
        <ele>168.9</ele>
        <time>2017-02-25T07:06:40Z</time>
      </trkpt>
      <trkpt lat="38.232951" lon="-1.423919">
        <ele>169.3</ele>
        <time>2017-02-25T07:06:41Z</time>
      </trkpt>
      <trkpt lat="38.232947" lon="-1.423899">
        <ele>168.9</ele>
        <time>2017-02-25T07:06:42Z</time>
      </trkpt>
      <trkpt lat="38.232926" lon="-1.423855">
        <ele>169.3</ele>
        <time>2017-02-25T07:06:45Z</time>
      </trkpt>
      <trkpt lat="38.232915" lon="-1.423847">
        <ele>168.4</ele>
        <time>2017-02-25T07:06:46Z</time>
      </trkpt>
      <trkpt lat="38.232899" lon="-1.423839">
        <ele>168.9</ele>
        <time>2017-02-25T07:06:47Z</time>
      </trkpt>
      <trkpt lat="38.232717" lon="-1.423847">
        <ele>168.4</ele>
        <time>2017-02-25T07:07:01Z</time>
      </trkpt>
      <trkpt lat="38.232639" lon="-1.423839">
        <ele>168.9</ele>
        <time>2017-02-25T07:07:07Z</time>
      </trkpt>
      <trkpt lat="38.232451" lon="-1.423843">
        <ele>169.3</ele>
        <time>2017-02-25T07:07:22Z</time>
      </trkpt>
      <trkpt lat="38.232273" lon="-1.423842">
        <ele>169.3</ele>
        <time>2017-02-25T07:07:36Z</time>
      </trkpt>
      <trkpt lat="38.232131" lon="-1.423838">
        <ele>169.3</ele>
        <time>2017-02-25T07:07:48Z</time>
      </trkpt>
      <trkpt lat="38.231970" lon="-1.423831">
        <ele>170.3</ele>
        <time>2017-02-25T07:08:02Z</time>
      </trkpt>
      <trkpt lat="38.231802" lon="-1.423858">
        <ele>170.8</ele>
        <time>2017-02-25T07:08:17Z</time>
      </trkpt>
      <trkpt lat="38.231619" lon="-1.423878">
        <ele>172.2</ele>
        <time>2017-02-25T07:08:34Z</time>
      </trkpt>
      <trkpt lat="38.231428" lon="-1.423868">
        <ele>174.1</ele>
        <time>2017-02-25T07:08:50Z</time>
      </trkpt>
      <trkpt lat="38.231386" lon="-1.423834">
        <ele>175.6</ele>
        <time>2017-02-25T07:08:56Z</time>
      </trkpt>
      <trkpt lat="38.231299" lon="-1.423737">
        <ele>177.5</ele>
        <time>2017-02-25T07:09:06Z</time>
      </trkpt>
      <trkpt lat="38.231273" lon="-1.423705">
        <ele>178.0</ele>
        <time>2017-02-25T07:09:09Z</time>
      </trkpt>
      <trkpt lat="38.231225" lon="-1.423666">
        <ele>178.0</ele>
        <time>2017-02-25T07:09:13Z</time>
      </trkpt>
      <trkpt lat="38.231124" lon="-1.423623">
        <ele>179.9</ele>
        <time>2017-02-25T07:09:20Z</time>
      </trkpt>
      <trkpt lat="38.231110" lon="-1.423621">
        <ele>179.9</ele>
        <time>2017-02-25T07:09:21Z</time>
      </trkpt>
      <trkpt lat="38.231094" lon="-1.423617">
        <ele>179.4</ele>
        <time>2017-02-25T07:09:22Z</time>
      </trkpt>
      <trkpt lat="38.231079" lon="-1.423612">
        <ele>179.9</ele>
        <time>2017-02-25T07:09:23Z</time>
      </trkpt>
      <trkpt lat="38.231067" lon="-1.423607">
        <ele>179.9</ele>
        <time>2017-02-25T07:09:24Z</time>
      </trkpt>
      <trkpt lat="38.231054" lon="-1.423601">
        <ele>179.9</ele>
        <time>2017-02-25T07:09:25Z</time>
      </trkpt>
      <trkpt lat="38.231042" lon="-1.423597">
        <ele>180.4</ele>
        <time>2017-02-25T07:09:26Z</time>
      </trkpt>
      <trkpt lat="38.231030" lon="-1.423595">
        <ele>180.4</ele>
        <time>2017-02-25T07:09:27Z</time>
      </trkpt>
      <trkpt lat="38.231015" lon="-1.423591">
        <ele>180.4</ele>
        <time>2017-02-25T07:09:28Z</time>
      </trkpt>
      <trkpt lat="38.231001" lon="-1.423587">
        <ele>180.9</ele>
        <time>2017-02-25T07:09:29Z</time>
      </trkpt>
      <trkpt lat="38.230904" lon="-1.423545">
        <ele>182.3</ele>
        <time>2017-02-25T07:09:38Z</time>
      </trkpt>
      <trkpt lat="38.230890" lon="-1.423543">
        <ele>182.3</ele>
        <time>2017-02-25T07:09:39Z</time>
      </trkpt>
      <trkpt lat="38.230835" lon="-1.423529">
        <ele>183.8</ele>
        <time>2017-02-25T07:09:44Z</time>
      </trkpt>
      <trkpt lat="38.230821" lon="-1.423526">
        <ele>183.8</ele>
        <time>2017-02-25T07:09:45Z</time>
      </trkpt>
      <trkpt lat="38.230738" lon="-1.423491">
        <ele>185.2</ele>
        <time>2017-02-25T07:09:52Z</time>
      </trkpt>
      <trkpt lat="38.230728" lon="-1.423481">
        <ele>185.2</ele>
        <time>2017-02-25T07:09:53Z</time>
      </trkpt>
      <trkpt lat="38.230709" lon="-1.423474">
        <ele>185.7</ele>
        <time>2017-02-25T07:09:55Z</time>
      </trkpt>
      <trkpt lat="38.230618" lon="-1.423459">
        <ele>188.1</ele>
        <time>2017-02-25T07:10:03Z</time>
      </trkpt>
      <trkpt lat="38.230590" lon="-1.423445">
        <ele>188.6</ele>
        <time>2017-02-25T07:10:14Z</time>
      </trkpt>
      <trkpt lat="38.230575" lon="-1.423406">
        <ele>188.6</ele>
        <time>2017-02-25T07:10:24Z</time>
      </trkpt>
      <trkpt lat="38.230558" lon="-1.423370">
        <ele>189.5</ele>
        <time>2017-02-25T07:10:29Z</time>
      </trkpt>
      <trkpt lat="38.230553" lon="-1.423355">
        <ele>190.0</ele>
        <time>2017-02-25T07:10:30Z</time>
      </trkpt>
      <trkpt lat="38.230545" lon="-1.423340">
        <ele>189.5</ele>
        <time>2017-02-25T07:10:31Z</time>
      </trkpt>
      <trkpt lat="38.230518" lon="-1.423355">
        <ele>191.0</ele>
        <time>2017-02-25T07:10:36Z</time>
      </trkpt>
      <trkpt lat="38.230515" lon="-1.423385">
        <ele>190.5</ele>
        <time>2017-02-25T07:10:38Z</time>
      </trkpt>
      <trkpt lat="38.230511" lon="-1.423421">
        <ele>191.4</ele>
        <time>2017-02-25T07:10:41Z</time>
      </trkpt>
      <trkpt lat="38.230525" lon="-1.423593">
        <ele>191.9</ele>
        <time>2017-02-25T07:11:02Z</time>
      </trkpt>
      <trkpt lat="38.230517" lon="-1.423721">
        <ele>195.3</ele>
        <time>2017-02-25T07:11:11Z</time>
      </trkpt>
      <trkpt lat="38.230511" lon="-1.423833">
        <ele>196.7</ele>
        <time>2017-02-25T07:11:19Z</time>
      </trkpt>
      <trkpt lat="38.230470" lon="-1.423942">
        <ele>198.2</ele>
        <time>2017-02-25T07:11:30Z</time>
      </trkpt>
      <trkpt lat="38.230449" lon="-1.423994">
        <ele>198.2</ele>
        <time>2017-02-25T07:11:34Z</time>
      </trkpt>
      <trkpt lat="38.230428" lon="-1.424065">
        <ele>199.1</ele>
        <time>2017-02-25T07:11:51Z</time>
      </trkpt>
      <trkpt lat="38.230358" lon="-1.424108">
        <ele>199.6</ele>
        <time>2017-02-25T07:11:57Z</time>
      </trkpt>
      <trkpt lat="38.230351" lon="-1.424122">
        <ele>199.6</ele>
        <time>2017-02-25T07:11:58Z</time>
      </trkpt>
      <trkpt lat="38.230343" lon="-1.424136">
        <ele>199.6</ele>
        <time>2017-02-25T07:11:59Z</time>
      </trkpt>
      <trkpt lat="38.230338" lon="-1.424149">
        <ele>199.6</ele>
        <time>2017-02-25T07:12:00Z</time>
      </trkpt>
      <trkpt lat="38.230339" lon="-1.424179">
        <ele>199.6</ele>
        <time>2017-02-25T07:12:03Z</time>
      </trkpt>
      <trkpt lat="38.230369" lon="-1.424207">
        <ele>199.1</ele>
        <time>2017-02-25T07:12:06Z</time>
      </trkpt>
      <trkpt lat="38.230441" lon="-1.424296">
        <ele>200.6</ele>
        <time>2017-02-25T07:12:16Z</time>
      </trkpt>
      <trkpt lat="38.230483" lon="-1.424338">
        <ele>201.1</ele>
        <time>2017-02-25T07:12:21Z</time>
      </trkpt>
      <trkpt lat="38.230492" lon="-1.424347">
        <ele>201.1</ele>
        <time>2017-02-25T07:12:22Z</time>
      </trkpt>
      <trkpt lat="38.230541" lon="-1.424399">
        <ele>202.5</ele>
        <time>2017-02-25T07:12:28Z</time>
      </trkpt>
      <trkpt lat="38.230580" lon="-1.424486">
        <ele>202.0</ele>
        <time>2017-02-25T07:12:35Z</time>
      </trkpt>
      <trkpt lat="38.230578" lon="-1.424502">
        <ele>202.5</ele>
        <time>2017-02-25T07:12:36Z</time>
      </trkpt>
      <trkpt lat="38.230572" lon="-1.424568">
        <ele>203.5</ele>
        <time>2017-02-25T07:12:45Z</time>
      </trkpt>
      <trkpt lat="38.230534" lon="-1.424737">
        <ele>204.9</ele>
        <time>2017-02-25T07:12:56Z</time>
      </trkpt>
      <trkpt lat="38.230486" lon="-1.424836">
        <ele>205.9</ele>
        <time>2017-02-25T07:13:04Z</time>
      </trkpt>
      <trkpt lat="38.230480" lon="-1.424848">
        <ele>206.3</ele>
        <time>2017-02-25T07:13:05Z</time>
      </trkpt>
      <trkpt lat="38.230451" lon="-1.424883">
        <ele>206.8</ele>
        <time>2017-02-25T07:13:08Z</time>
      </trkpt>
      <trkpt lat="38.230433" lon="-1.424903">
        <ele>206.3</ele>
        <time>2017-02-25T07:13:10Z</time>
      </trkpt>
      <trkpt lat="38.230427" lon="-1.424918">
        <ele>207.3</ele>
        <time>2017-02-25T07:13:11Z</time>
      </trkpt>
      <trkpt lat="38.230403" lon="-1.424965">
        <ele>207.8</ele>
        <time>2017-02-25T07:13:15Z</time>
      </trkpt>
      <trkpt lat="38.230345" lon="-1.425056">
        <ele>208.7</ele>
        <time>2017-02-25T07:13:22Z</time>
      </trkpt>
      <trkpt lat="38.230337" lon="-1.425069">
        <ele>208.7</ele>
        <time>2017-02-25T07:13:23Z</time>
      </trkpt>
      <trkpt lat="38.230327" lon="-1.425080">
        <ele>208.7</ele>
        <time>2017-02-25T07:13:24Z</time>
      </trkpt>
      <trkpt lat="38.230197" lon="-1.425202">
        <ele>210.2</ele>
        <time>2017-02-25T07:13:38Z</time>
      </trkpt>
      <trkpt lat="38.230205" lon="-1.425142">
        <ele>212.1</ele>
        <time>2017-02-25T07:13:47Z</time>
      </trkpt>
      <trkpt lat="38.230215" lon="-1.425127">
        <ele>212.1</ele>
        <time>2017-02-25T07:13:48Z</time>
      </trkpt>
      <trkpt lat="38.230221" lon="-1.425112">
        <ele>212.1</ele>
        <time>2017-02-25T07:13:49Z</time>
      </trkpt>
      <trkpt lat="38.230231" lon="-1.425099">
        <ele>212.1</ele>
        <time>2017-02-25T07:13:50Z</time>
      </trkpt>
      <trkpt lat="38.230260" lon="-1.425050">
        <ele>212.6</ele>
        <time>2017-02-25T07:13:54Z</time>
      </trkpt>
      <trkpt lat="38.230275" lon="-1.425022">
        <ele>213.1</ele>
        <time>2017-02-25T07:13:56Z</time>
      </trkpt>
      <trkpt lat="38.230295" lon="-1.424983">
        <ele>214.5</ele>
        <time>2017-02-25T07:13:59Z</time>
      </trkpt>
      <trkpt lat="38.230300" lon="-1.424969">
        <ele>214.5</ele>
        <time>2017-02-25T07:14:00Z</time>
      </trkpt>
      <trkpt lat="38.230318" lon="-1.424899">
        <ele>215.0</ele>
        <time>2017-02-25T07:14:06Z</time>
      </trkpt>
      <trkpt lat="38.230343" lon="-1.424697">
        <ele>216.9</ele>
        <time>2017-02-25T07:14:19Z</time>
      </trkpt>
      <trkpt lat="38.230272" lon="-1.424691">
        <ele>217.9</ele>
        <time>2017-02-25T07:14:29Z</time>
      </trkpt>
      <trkpt lat="38.230266" lon="-1.424708">
        <ele>217.9</ele>
        <time>2017-02-25T07:14:30Z</time>
      </trkpt>
      <trkpt lat="38.230165" lon="-1.424858">
        <ele>219.8</ele>
        <time>2017-02-25T07:14:44Z</time>
      </trkpt>
      <trkpt lat="38.230111" lon="-1.424959">
        <ele>220.8</ele>
        <time>2017-02-25T07:14:52Z</time>
      </trkpt>
      <trkpt lat="38.230094" lon="-1.424975">
        <ele>221.2</ele>
        <time>2017-02-25T07:14:54Z</time>
      </trkpt>
      <trkpt lat="38.230041" lon="-1.425021">
        <ele>222.2</ele>
        <time>2017-02-25T07:14:59Z</time>
      </trkpt>
      <trkpt lat="38.229985" lon="-1.425092">
        <ele>223.2</ele>
        <time>2017-02-25T07:15:06Z</time>
      </trkpt>
      <trkpt lat="38.229871" lon="-1.425211">
        <ele>224.1</ele>
        <time>2017-02-25T07:15:20Z</time>
      </trkpt>
      <trkpt lat="38.229811" lon="-1.425284">
        <ele>225.6</ele>
        <time>2017-02-25T07:15:27Z</time>
      </trkpt>
      <trkpt lat="38.229797" lon="-1.425257">
        <ele>225.6</ele>
        <time>2017-02-25T07:15:29Z</time>
      </trkpt>
      <trkpt lat="38.229801" lon="-1.425200">
        <ele>227.0</ele>
        <time>2017-02-25T07:15:33Z</time>
      </trkpt>
      <trkpt lat="38.229807" lon="-1.425074">
        <ele>227.5</ele>
        <time>2017-02-25T07:15:41Z</time>
      </trkpt>
      <trkpt lat="38.229827" lon="-1.424998">
        <ele>228.4</ele>
        <time>2017-02-25T07:15:46Z</time>
      </trkpt>
      <trkpt lat="38.229780" lon="-1.425012">
        <ele>229.4</ele>
        <time>2017-02-25T07:15:56Z</time>
      </trkpt>
      <trkpt lat="38.229769" lon="-1.425036">
        <ele>229.9</ele>
        <time>2017-02-25T07:15:58Z</time>
      </trkpt>
      <trkpt lat="38.229720" lon="-1.425139">
        <ele>231.3</ele>
        <time>2017-02-25T07:16:06Z</time>
      </trkpt>
      <trkpt lat="38.229687" lon="-1.425196">
        <ele>232.3</ele>
        <time>2017-02-25T07:16:11Z</time>
      </trkpt>
      <trkpt lat="38.229644" lon="-1.425286">
        <ele>234.2</ele>
        <time>2017-02-25T07:16:19Z</time>
      </trkpt>
      <trkpt lat="38.229620" lon="-1.425321">
        <ele>234.2</ele>
        <time>2017-02-25T07:16:22Z</time>
      </trkpt>
      <trkpt lat="38.229611" lon="-1.425348">
        <ele>234.7</ele>
        <time>2017-02-25T07:16:24Z</time>
      </trkpt>
      <trkpt lat="38.229579" lon="-1.425376">
        <ele>235.2</ele>
        <time>2017-02-25T07:16:27Z</time>
      </trkpt>
      <trkpt lat="38.229445" lon="-1.425404">
        <ele>236.6</ele>
        <time>2017-02-25T07:16:40Z</time>
      </trkpt>
      <trkpt lat="38.229402" lon="-1.425442">
        <ele>237.6</ele>
        <time>2017-02-25T07:16:45Z</time>
      </trkpt>
      <trkpt lat="38.229389" lon="-1.425503">
        <ele>237.6</ele>
        <time>2017-02-25T07:16:50Z</time>
      </trkpt>
      <trkpt lat="38.229445" lon="-1.425658">
        <ele>239.5</ele>
        <time>2017-02-25T07:17:01Z</time>
      </trkpt>
      <trkpt lat="38.229452" lon="-1.425685">
        <ele>239.5</ele>
        <time>2017-02-25T07:17:03Z</time>
      </trkpt>
      <trkpt lat="38.229457" lon="-1.425708">
        <ele>240.0</ele>
        <time>2017-02-25T07:17:05Z</time>
      </trkpt>
      <trkpt lat="38.229479" lon="-1.425749">
        <ele>240.5</ele>
        <time>2017-02-25T07:17:09Z</time>
      </trkpt>
      <trkpt lat="38.229535" lon="-1.425819">
        <ele>241.4</ele>
        <time>2017-02-25T07:17:17Z</time>
      </trkpt>
      <trkpt lat="38.229556" lon="-1.425850">
        <ele>241.9</ele>
        <time>2017-02-25T07:17:20Z</time>
      </trkpt>
      <trkpt lat="38.229474" lon="-1.425832">
        <ele>243.4</ele>
        <time>2017-02-25T07:17:31Z</time>
      </trkpt>
      <trkpt lat="38.229461" lon="-1.425828">
        <ele>243.4</ele>
        <time>2017-02-25T07:17:32Z</time>
      </trkpt>
      <trkpt lat="38.229435" lon="-1.425821">
        <ele>243.8</ele>
        <time>2017-02-25T07:17:34Z</time>
      </trkpt>
      <trkpt lat="38.229307" lon="-1.425715">
        <ele>242.9</ele>
        <time>2017-02-25T07:17:46Z</time>
      </trkpt>
      <trkpt lat="38.229298" lon="-1.425702">
        <ele>250.1</ele>
        <time>2017-02-25T07:17:47Z</time>
      </trkpt>
      <trkpt lat="38.229290" lon="-1.425688">
        <ele>245.8</ele>
        <time>2017-02-25T07:17:48Z</time>
      </trkpt>
      <trkpt lat="38.229229" lon="-1.425628">
        <ele>247.2</ele>
        <time>2017-02-25T07:17:58Z</time>
      </trkpt>
      <trkpt lat="38.229309" lon="-1.425794">
        <ele>249.1</ele>
        <time>2017-02-25T07:18:22Z</time>
      </trkpt>
      <trkpt lat="38.229372" lon="-1.425916">
        <ele>250.6</ele>
        <time>2017-02-25T07:18:30Z</time>
      </trkpt>
      <trkpt lat="38.229355" lon="-1.426036">
        <ele>251.5</ele>
        <time>2017-02-25T07:18:38Z</time>
      </trkpt>
      <trkpt lat="38.229261" lon="-1.426193">
        <ele>254.4</ele>
        <time>2017-02-25T07:18:51Z</time>
      </trkpt>
      <trkpt lat="38.229212" lon="-1.426280">
        <ele>255.4</ele>
        <time>2017-02-25T07:18:58Z</time>
      </trkpt>
      <trkpt lat="38.229143" lon="-1.426358">
        <ele>256.8</ele>
        <time>2017-02-25T07:19:05Z</time>
      </trkpt>
      <trkpt lat="38.229066" lon="-1.426483">
        <ele>258.2</ele>
        <time>2017-02-25T07:19:14Z</time>
      </trkpt>
      <trkpt lat="38.229006" lon="-1.426602">
        <ele>259.2</ele>
        <time>2017-02-25T07:19:22Z</time>
      </trkpt>
      <trkpt lat="38.228974" lon="-1.426554">
        <ele>260.6</ele>
        <time>2017-02-25T07:19:30Z</time>
      </trkpt>
      <trkpt lat="38.228964" lon="-1.426441">
        <ele>262.1</ele>
        <time>2017-02-25T07:19:38Z</time>
      </trkpt>
      <trkpt lat="38.228944" lon="-1.426308">
        <ele>263.1</ele>
        <time>2017-02-25T07:20:54Z</time>
      </trkpt>
      <trkpt lat="38.228945" lon="-1.426263">
        <ele>263.5</ele>
        <time>2017-02-25T07:20:56Z</time>
      </trkpt>
      <trkpt lat="38.228972" lon="-1.426170">
        <ele>264.0</ele>
        <time>2017-02-25T07:21:01Z</time>
      </trkpt>
      <trkpt lat="38.228984" lon="-1.426078">
        <ele>265.0</ele>
        <time>2017-02-25T07:21:07Z</time>
      </trkpt>
      <trkpt lat="38.228969" lon="-1.426023">
        <ele>265.5</ele>
        <time>2017-02-25T07:21:11Z</time>
      </trkpt>
      <trkpt lat="38.228940" lon="-1.425985">
        <ele>266.4</ele>
        <time>2017-02-25T07:21:15Z</time>
      </trkpt>
      <trkpt lat="38.228916" lon="-1.425960">
        <ele>266.9</ele>
        <time>2017-02-25T07:21:18Z</time>
      </trkpt>
      <trkpt lat="38.228784" lon="-1.425921">
        <ele>268.8</ele>
        <time>2017-02-25T07:21:31Z</time>
      </trkpt>
      <trkpt lat="38.228750" lon="-1.425956">
        <ele>269.8</ele>
        <time>2017-02-25T07:21:35Z</time>
      </trkpt>
      <trkpt lat="38.228660" lon="-1.426125">
        <ele>271.2</ele>
        <time>2017-02-25T07:21:48Z</time>
      </trkpt>
      <trkpt lat="38.228622" lon="-1.426238">
        <ele>272.2</ele>
        <time>2017-02-25T07:21:56Z</time>
      </trkpt>
      <trkpt lat="38.228528" lon="-1.426400">
        <ele>273.1</ele>
        <time>2017-02-25T07:22:11Z</time>
      </trkpt>
      <trkpt lat="38.228372" lon="-1.426413">
        <ele>275.1</ele>
        <time>2017-02-25T07:22:25Z</time>
      </trkpt>
      <trkpt lat="38.228222" lon="-1.426462">
        <ele>277.0</ele>
        <time>2017-02-25T07:22:39Z</time>
      </trkpt>
      <trkpt lat="38.228164" lon="-1.426504">
        <ele>278.0</ele>
        <time>2017-02-25T07:22:46Z</time>
      </trkpt>
      <trkpt lat="38.228054" lon="-1.426622">
        <ele>279.9</ele>
        <time>2017-02-25T07:23:01Z</time>
      </trkpt>
      <trkpt lat="38.227955" lon="-1.426724">
        <ele>282.3</ele>
        <time>2017-02-25T07:23:16Z</time>
      </trkpt>
      <trkpt lat="38.227891" lon="-1.426748">
        <ele>282.8</ele>
        <time>2017-02-25T07:23:21Z</time>
      </trkpt>
      <trkpt lat="38.227762" lon="-1.426832">
        <ele>284.7</ele>
        <time>2017-02-25T07:23:35Z</time>
      </trkpt>
      <trkpt lat="38.227662" lon="-1.426907">
        <ele>286.6</ele>
        <time>2017-02-25T07:23:46Z</time>
      </trkpt>
      <trkpt lat="38.227613" lon="-1.427033">
        <ele>287.6</ele>
        <time>2017-02-25T07:23:57Z</time>
      </trkpt>
      <trkpt lat="38.227556" lon="-1.427208">
        <ele>290.0</ele>
        <time>2017-02-25T07:24:10Z</time>
      </trkpt>
      <trkpt lat="38.227461" lon="-1.427358">
        <ele>291.9</ele>
        <time>2017-02-25T07:24:25Z</time>
      </trkpt>
      <trkpt lat="38.227454" lon="-1.427383">
        <ele>292.9</ele>
        <time>2017-02-25T07:24:27Z</time>
      </trkpt>
      <trkpt lat="38.227386" lon="-1.427492">
        <ele>294.3</ele>
        <time>2017-02-25T07:24:41Z</time>
      </trkpt>
      <trkpt lat="38.227381" lon="-1.427498">
        <ele>293.8</ele>
        <time>2017-02-25T07:24:42Z</time>
      </trkpt>
      <trkpt lat="38.227348" lon="-1.427543">
        <ele>294.3</ele>
        <time>2017-02-25T07:24:46Z</time>
      </trkpt>
      <trkpt lat="38.227306" lon="-1.427645">
        <ele>295.7</ele>
        <time>2017-02-25T07:24:53Z</time>
      </trkpt>
      <trkpt lat="38.227266" lon="-1.427779">
        <ele>297.2</ele>
        <time>2017-02-25T07:25:02Z</time>
      </trkpt>
      <trkpt lat="38.227234" lon="-1.428005">
        <ele>298.6</ele>
        <time>2017-02-25T07:25:19Z</time>
      </trkpt>
      <trkpt lat="38.227331" lon="-1.428108">
        <ele>300.1</ele>
        <time>2017-02-25T07:25:32Z</time>
      </trkpt>
      <trkpt lat="38.227348" lon="-1.428127">
        <ele>300.1</ele>
        <time>2017-02-25T07:25:34Z</time>
      </trkpt>
      <trkpt lat="38.227403" lon="-1.428202">
        <ele>301.0</ele>
        <time>2017-02-25T07:25:42Z</time>
      </trkpt>
      <trkpt lat="38.227274" lon="-1.428191">
        <ele>302.0</ele>
        <time>2017-02-25T07:25:55Z</time>
      </trkpt>
      <trkpt lat="38.227210" lon="-1.428169">
        <ele>302.0</ele>
        <time>2017-02-25T07:26:06Z</time>
      </trkpt>
      <trkpt lat="38.227198" lon="-1.428167">
        <ele>302.0</ele>
        <time>2017-02-25T07:26:07Z</time>
      </trkpt>
      <trkpt lat="38.227085" lon="-1.428060">
        <ele>303.9</ele>
        <time>2017-02-25T07:26:20Z</time>
      </trkpt>
      <trkpt lat="38.227083" lon="-1.428049">
        <ele>303.9</ele>
        <time>2017-02-25T07:26:21Z</time>
      </trkpt>
      <trkpt lat="38.227059" lon="-1.427932">
        <ele>305.4</ele>
        <time>2017-02-25T07:26:32Z</time>
      </trkpt>
      <trkpt lat="38.227059" lon="-1.427920">
        <ele>305.4</ele>
        <time>2017-02-25T07:26:33Z</time>
      </trkpt>
      <trkpt lat="38.227079" lon="-1.427825">
        <ele>305.8</ele>
        <time>2017-02-25T07:26:40Z</time>
      </trkpt>
      <trkpt lat="38.227078" lon="-1.427798">
        <ele>306.3</ele>
        <time>2017-02-25T07:26:42Z</time>
      </trkpt>
      <trkpt lat="38.227091" lon="-1.427733">
        <ele>306.8</ele>
        <time>2017-02-25T07:26:47Z</time>
      </trkpt>
      <trkpt lat="38.227064" lon="-1.427641">
        <ele>307.8</ele>
        <time>2017-02-25T07:26:55Z</time>
      </trkpt>
      <trkpt lat="38.227046" lon="-1.427549">
        <ele>308.7</ele>
        <time>2017-02-25T07:27:01Z</time>
      </trkpt>
      <trkpt lat="38.227043" lon="-1.427415">
        <ele>309.7</ele>
        <time>2017-02-25T07:27:10Z</time>
      </trkpt>
      <trkpt lat="38.227044" lon="-1.427234">
        <ele>310.6</ele>
        <time>2017-02-25T07:27:23Z</time>
      </trkpt>
      <trkpt lat="38.226979" lon="-1.427268">
        <ele>312.1</ele>
        <time>2017-02-25T07:27:35Z</time>
      </trkpt>
      <trkpt lat="38.226952" lon="-1.427318">
        <ele>312.6</ele>
        <time>2017-02-25T07:27:39Z</time>
      </trkpt>
      <trkpt lat="38.226920" lon="-1.427394">
        <ele>313.5</ele>
        <time>2017-02-25T07:27:45Z</time>
      </trkpt>
      <trkpt lat="38.226902" lon="-1.427436">
        <ele>314.0</ele>
        <time>2017-02-25T07:27:49Z</time>
      </trkpt>
      <trkpt lat="38.226866" lon="-1.427587">
        <ele>315.5</ele>
        <time>2017-02-25T07:28:00Z</time>
      </trkpt>
      <trkpt lat="38.226839" lon="-1.427695">
        <ele>316.9</ele>
        <time>2017-02-25T07:28:07Z</time>
      </trkpt>
      <trkpt lat="38.226810" lon="-1.427788">
        <ele>317.9</ele>
        <time>2017-02-25T07:28:14Z</time>
      </trkpt>
      <trkpt lat="38.226744" lon="-1.427949">
        <ele>320.3</ele>
        <time>2017-02-25T07:28:27Z</time>
      </trkpt>
      <trkpt lat="38.226689" lon="-1.428108">
        <ele>322.2</ele>
        <time>2017-02-25T07:28:39Z</time>
      </trkpt>
      <trkpt lat="38.226659" lon="-1.428132">
        <ele>322.7</ele>
        <time>2017-02-25T07:28:45Z</time>
      </trkpt>
      <trkpt lat="38.226666" lon="-1.428072">
        <ele>323.1</ele>
        <time>2017-02-25T07:28:50Z</time>
      </trkpt>
      <trkpt lat="38.226664" lon="-1.427986">
        <ele>324.6</ele>
        <time>2017-02-25T07:28:56Z</time>
      </trkpt>
      <trkpt lat="38.226661" lon="-1.427926">
        <ele>325.1</ele>
        <time>2017-02-25T07:29:01Z</time>
      </trkpt>
      <trkpt lat="38.226663" lon="-1.427863">
        <ele>326.0</ele>
        <time>2017-02-25T07:29:06Z</time>
      </trkpt>
      <trkpt lat="38.226658" lon="-1.427839">
        <ele>326.0</ele>
        <time>2017-02-25T07:29:08Z</time>
      </trkpt>
      <trkpt lat="38.226647" lon="-1.427718">
        <ele>327.0</ele>
        <time>2017-02-25T07:29:18Z</time>
      </trkpt>
      <trkpt lat="38.226634" lon="-1.427541">
        <ele>328.9</ele>
        <time>2017-02-25T07:29:30Z</time>
      </trkpt>
      <trkpt lat="38.226651" lon="-1.427413">
        <ele>330.8</ele>
        <time>2017-02-25T07:29:40Z</time>
      </trkpt>
      <trkpt lat="38.226652" lon="-1.427401">
        <ele>330.8</ele>
        <time>2017-02-25T07:29:41Z</time>
      </trkpt>
      <trkpt lat="38.226643" lon="-1.427337">
        <ele>330.8</ele>
        <time>2017-02-25T07:29:45Z</time>
      </trkpt>
      <trkpt lat="38.226595" lon="-1.427329">
        <ele>332.3</ele>
        <time>2017-02-25T07:29:57Z</time>
      </trkpt>
      <trkpt lat="38.226574" lon="-1.427448">
        <ele>333.7</ele>
        <time>2017-02-25T07:30:05Z</time>
      </trkpt>
      <trkpt lat="38.226565" lon="-1.427613">
        <ele>335.2</ele>
        <time>2017-02-25T07:30:17Z</time>
      </trkpt>
      <trkpt lat="38.226564" lon="-1.427626">
        <ele>335.2</ele>
        <time>2017-02-25T07:30:18Z</time>
      </trkpt>
      <trkpt lat="38.226516" lon="-1.427739">
        <ele>336.6</ele>
        <time>2017-02-25T07:30:28Z</time>
      </trkpt>
      <trkpt lat="38.226463" lon="-1.427892">
        <ele>338.0</ele>
        <time>2017-02-25T07:30:39Z</time>
      </trkpt>
      <trkpt lat="38.226434" lon="-1.427961">
        <ele>338.5</ele>
        <time>2017-02-25T07:30:44Z</time>
      </trkpt>
      <trkpt lat="38.226373" lon="-1.428076">
        <ele>340.4</ele>
        <time>2017-02-25T07:30:54Z</time>
      </trkpt>
      <trkpt lat="38.226298" lon="-1.428165">
        <ele>340.9</ele>
        <time>2017-02-25T07:31:03Z</time>
      </trkpt>
      <trkpt lat="38.226257" lon="-1.428247">
        <ele>341.9</ele>
        <time>2017-02-25T07:31:10Z</time>
      </trkpt>
      <trkpt lat="38.226237" lon="-1.428277">
        <ele>342.9</ele>
        <time>2017-02-25T07:31:13Z</time>
      </trkpt>
      <trkpt lat="38.226229" lon="-1.428300">
        <ele>343.3</ele>
        <time>2017-02-25T07:31:15Z</time>
      </trkpt>
      <trkpt lat="38.226154" lon="-1.428385">
        <ele>345.7</ele>
        <time>2017-02-25T07:31:29Z</time>
      </trkpt>
      <trkpt lat="38.226083" lon="-1.428457">
        <ele>345.2</ele>
        <time>2017-02-25T07:33:30Z</time>
      </trkpt>
      <trkpt lat="38.226174" lon="-1.428503">
        <ele>345.7</ele>
        <time>2017-02-25T07:36:00Z</time>
      </trkpt>
      <trkpt lat="38.226230" lon="-1.428550">
        <ele>345.7</ele>
        <time>2017-02-25T07:36:13Z</time>
      </trkpt>
      <trkpt lat="38.226286" lon="-1.428614">
        <ele>346.2</ele>
        <time>2017-02-25T07:36:19Z</time>
      </trkpt>
      <trkpt lat="38.226296" lon="-1.428623">
        <ele>346.2</ele>
        <time>2017-02-25T07:36:20Z</time>
      </trkpt>
      <trkpt lat="38.226323" lon="-1.428648">
        <ele>345.7</ele>
        <time>2017-02-25T07:36:23Z</time>
      </trkpt>
      <trkpt lat="38.226334" lon="-1.428655">
        <ele>346.2</ele>
        <time>2017-02-25T07:36:24Z</time>
      </trkpt>
      <trkpt lat="38.226441" lon="-1.428789">
        <ele>346.2</ele>
        <time>2017-02-25T07:36:39Z</time>
      </trkpt>
      <trkpt lat="38.226448" lon="-1.428805">
        <ele>346.2</ele>
        <time>2017-02-25T07:36:40Z</time>
      </trkpt>
      <trkpt lat="38.226455" lon="-1.428819">
        <ele>346.7</ele>
        <time>2017-02-25T07:36:41Z</time>
      </trkpt>
      <trkpt lat="38.226463" lon="-1.428832">
        <ele>346.7</ele>
        <time>2017-02-25T07:36:42Z</time>
      </trkpt>
      <trkpt lat="38.226469" lon="-1.428846">
        <ele>345.7</ele>
        <time>2017-02-25T07:36:43Z</time>
      </trkpt>
      <trkpt lat="38.226474" lon="-1.428861">
        <ele>346.7</ele>
        <time>2017-02-25T07:36:44Z</time>
      </trkpt>
      <trkpt lat="38.226483" lon="-1.428875">
        <ele>346.7</ele>
        <time>2017-02-25T07:36:45Z</time>
      </trkpt>
      <trkpt lat="38.226495" lon="-1.428885">
        <ele>346.2</ele>
        <time>2017-02-25T07:36:46Z</time>
      </trkpt>
      <trkpt lat="38.226505" lon="-1.428894">
        <ele>346.2</ele>
        <time>2017-02-25T07:36:47Z</time>
      </trkpt>
      <trkpt lat="38.226522" lon="-1.428914">
        <ele>346.7</ele>
        <time>2017-02-25T07:36:58Z</time>
      </trkpt>
      <trkpt lat="38.226512" lon="-1.428898">
        <ele>346.2</ele>
        <time>2017-02-25T07:37:15Z</time>
      </trkpt>
      <trkpt lat="38.226534" lon="-1.428911">
        <ele>346.2</ele>
        <time>2017-02-25T07:37:16Z</time>
      </trkpt>
      <trkpt lat="38.226553" lon="-1.428927">
        <ele>346.2</ele>
        <time>2017-02-25T07:37:17Z</time>
      </trkpt>
      <trkpt lat="38.226567" lon="-1.428943">
        <ele>346.2</ele>
        <time>2017-02-25T07:37:18Z</time>
      </trkpt>
      <trkpt lat="38.226582" lon="-1.428956">
        <ele>346.2</ele>
        <time>2017-02-25T07:37:19Z</time>
      </trkpt>
      <trkpt lat="38.226599" lon="-1.428968">
        <ele>346.2</ele>
        <time>2017-02-25T07:37:20Z</time>
      </trkpt>
      <trkpt lat="38.226613" lon="-1.428977">
        <ele>346.2</ele>
        <time>2017-02-25T07:37:21Z</time>
      </trkpt>
      <trkpt lat="38.226627" lon="-1.428987">
        <ele>346.2</ele>
        <time>2017-02-25T07:37:22Z</time>
      </trkpt>
      <trkpt lat="38.226765" lon="-1.429107">
        <ele>344.3</ele>
        <time>2017-02-25T07:37:38Z</time>
      </trkpt>
      <trkpt lat="38.226783" lon="-1.429142">
        <ele>347.6</ele>
        <time>2017-02-25T07:37:41Z</time>
      </trkpt>
      <trkpt lat="38.226821" lon="-1.429157">
        <ele>345.7</ele>
        <time>2017-02-25T07:37:44Z</time>
      </trkpt>
      <trkpt lat="38.226832" lon="-1.429167">
        <ele>346.2</ele>
        <time>2017-02-25T07:37:45Z</time>
      </trkpt>
      <trkpt lat="38.226955" lon="-1.429250">
        <ele>345.7</ele>
        <time>2017-02-25T07:37:56Z</time>
      </trkpt>
      <trkpt lat="38.226968" lon="-1.429261">
        <ele>346.2</ele>
        <time>2017-02-25T07:37:57Z</time>
      </trkpt>
      <trkpt lat="38.226979" lon="-1.429269">
        <ele>346.2</ele>
        <time>2017-02-25T07:37:58Z</time>
      </trkpt>
      <trkpt lat="38.226988" lon="-1.429282">
        <ele>346.2</ele>
        <time>2017-02-25T07:37:59Z</time>
      </trkpt>
      <trkpt lat="38.226999" lon="-1.429291">
        <ele>346.2</ele>
        <time>2017-02-25T07:38:00Z</time>
      </trkpt>
      <trkpt lat="38.227163" lon="-1.429410">
        <ele>346.7</ele>
        <time>2017-02-25T07:38:16Z</time>
      </trkpt>
      <trkpt lat="38.227320" lon="-1.429482">
        <ele>346.2</ele>
        <time>2017-02-25T07:38:28Z</time>
      </trkpt>
      <trkpt lat="38.227330" lon="-1.429488">
        <ele>347.2</ele>
        <time>2017-02-25T07:38:29Z</time>
      </trkpt>
      <trkpt lat="38.227341" lon="-1.429495">
        <ele>346.2</ele>
        <time>2017-02-25T07:38:30Z</time>
      </trkpt>
      <trkpt lat="38.227351" lon="-1.429504">
        <ele>346.7</ele>
        <time>2017-02-25T07:38:31Z</time>
      </trkpt>
      <trkpt lat="38.227361" lon="-1.429512">
        <ele>346.7</ele>
        <time>2017-02-25T07:38:32Z</time>
      </trkpt>
      <trkpt lat="38.227373" lon="-1.429518">
        <ele>346.2</ele>
        <time>2017-02-25T07:38:33Z</time>
      </trkpt>
      <trkpt lat="38.227386" lon="-1.429524">
        <ele>346.7</ele>
        <time>2017-02-25T07:38:34Z</time>
      </trkpt>
      <trkpt lat="38.227398" lon="-1.429528">
        <ele>346.2</ele>
        <time>2017-02-25T07:38:35Z</time>
      </trkpt>
      <trkpt lat="38.227551" lon="-1.429551">
        <ele>346.7</ele>
        <time>2017-02-25T07:38:49Z</time>
      </trkpt>
      <trkpt lat="38.227604" lon="-1.429573">
        <ele>346.7</ele>
        <time>2017-02-25T07:38:54Z</time>
      </trkpt>
      <trkpt lat="38.227611" lon="-1.429584">
        <ele>347.2</ele>
        <time>2017-02-25T07:38:55Z</time>
      </trkpt>
      <trkpt lat="38.227619" lon="-1.429596">
        <ele>347.2</ele>
        <time>2017-02-25T07:38:56Z</time>
      </trkpt>
      <trkpt lat="38.227742" lon="-1.429715">
        <ele>347.2</ele>
        <time>2017-02-25T07:39:10Z</time>
      </trkpt>
      <trkpt lat="38.227857" lon="-1.429874">
        <ele>348.1</ele>
        <time>2017-02-25T07:39:23Z</time>
      </trkpt>
      <trkpt lat="38.227878" lon="-1.429925">
        <ele>348.6</ele>
        <time>2017-02-25T07:39:26Z</time>
      </trkpt>
      <trkpt lat="38.227883" lon="-1.429987">
        <ele>348.6</ele>
        <time>2017-02-25T07:39:30Z</time>
      </trkpt>
      <trkpt lat="38.227902" lon="-1.430047">
        <ele>348.6</ele>
        <time>2017-02-25T07:39:34Z</time>
      </trkpt>
      <trkpt lat="38.227944" lon="-1.430133">
        <ele>349.1</ele>
        <time>2017-02-25T07:39:40Z</time>
      </trkpt>
      <trkpt lat="38.228073" lon="-1.430305">
        <ele>349.6</ele>
        <time>2017-02-25T07:39:54Z</time>
      </trkpt>
      <trkpt lat="38.228141" lon="-1.430426">
        <ele>350.5</ele>
        <time>2017-02-25T07:40:04Z</time>
      </trkpt>
      <trkpt lat="38.228211" lon="-1.430647">
        <ele>350.5</ele>
        <time>2017-02-25T07:40:18Z</time>
      </trkpt>
      <trkpt lat="38.228323" lon="-1.430787">
        <ele>351.0</ele>
        <time>2017-02-25T07:40:30Z</time>
      </trkpt>
      <trkpt lat="38.228384" lon="-1.430881">
        <ele>351.5</ele>
        <time>2017-02-25T07:40:38Z</time>
      </trkpt>
      <trkpt lat="38.228393" lon="-1.430896">
        <ele>351.5</ele>
        <time>2017-02-25T07:40:39Z</time>
      </trkpt>
      <trkpt lat="38.228513" lon="-1.431086">
        <ele>352.0</ele>
        <time>2017-02-25T07:40:54Z</time>
      </trkpt>
      <trkpt lat="38.228566" lon="-1.431211">
        <ele>352.5</ele>
        <time>2017-02-25T07:41:05Z</time>
      </trkpt>
      <trkpt lat="38.228576" lon="-1.431313">
        <ele>352.9</ele>
        <time>2017-02-25T07:41:10Z</time>
      </trkpt>
      <trkpt lat="38.228603" lon="-1.431532">
        <ele>353.4</ele>
        <time>2017-02-25T07:41:23Z</time>
      </trkpt>
      <trkpt lat="38.228637" lon="-1.431627">
        <ele>353.9</ele>
        <time>2017-02-25T07:41:29Z</time>
      </trkpt>
      <trkpt lat="38.228654" lon="-1.431702">
        <ele>353.9</ele>
        <time>2017-02-25T07:41:34Z</time>
      </trkpt>
      <trkpt lat="38.228683" lon="-1.431766">
        <ele>354.4</ele>
        <time>2017-02-25T07:41:38Z</time>
      </trkpt>
      <trkpt lat="38.228757" lon="-1.431938">
        <ele>354.9</ele>
        <time>2017-02-25T07:41:51Z</time>
      </trkpt>
      <trkpt lat="38.228850" lon="-1.432077">
        <ele>355.8</ele>
        <time>2017-02-25T07:42:02Z</time>
      </trkpt>
      <trkpt lat="38.228943" lon="-1.432227">
        <ele>355.8</ele>
        <time>2017-02-25T07:42:15Z</time>
      </trkpt>
      <trkpt lat="38.229002" lon="-1.432342">
        <ele>356.8</ele>
        <time>2017-02-25T07:42:24Z</time>
      </trkpt>
      <trkpt lat="38.229048" lon="-1.432406">
        <ele>356.3</ele>
        <time>2017-02-25T07:42:29Z</time>
      </trkpt>
      <trkpt lat="38.229134" lon="-1.432443">
        <ele>357.3</ele>
        <time>2017-02-25T07:42:40Z</time>
      </trkpt>
      <trkpt lat="38.229155" lon="-1.432497">
        <ele>357.8</ele>
        <time>2017-02-25T07:42:45Z</time>
      </trkpt>
      <trkpt lat="38.229196" lon="-1.432679">
        <ele>357.8</ele>
        <time>2017-02-25T07:42:57Z</time>
      </trkpt>
      <trkpt lat="38.229261" lon="-1.432869">
        <ele>358.2</ele>
        <time>2017-02-25T07:43:09Z</time>
      </trkpt>
      <trkpt lat="38.229334" lon="-1.433035">
        <ele>357.8</ele>
        <time>2017-02-25T07:43:21Z</time>
      </trkpt>
      <trkpt lat="38.229369" lon="-1.433080">
        <ele>358.2</ele>
        <time>2017-02-25T07:43:25Z</time>
      </trkpt>
      <trkpt lat="38.229379" lon="-1.433107">
        <ele>358.7</ele>
        <time>2017-02-25T07:43:27Z</time>
      </trkpt>
      <trkpt lat="38.229397" lon="-1.433152">
        <ele>358.2</ele>
        <time>2017-02-25T07:43:30Z</time>
      </trkpt>
      <trkpt lat="38.229423" lon="-1.433228">
        <ele>358.2</ele>
        <time>2017-02-25T07:43:45Z</time>
      </trkpt>
      <trkpt lat="38.229440" lon="-1.433290">
        <ele>358.2</ele>
        <time>2017-02-25T07:43:49Z</time>
      </trkpt>
      <trkpt lat="38.229448" lon="-1.433336">
        <ele>358.2</ele>
        <time>2017-02-25T07:43:52Z</time>
      </trkpt>
      <trkpt lat="38.229475" lon="-1.433422">
        <ele>358.7</ele>
        <time>2017-02-25T07:43:57Z</time>
      </trkpt>
      <trkpt lat="38.229497" lon="-1.433528">
        <ele>358.2</ele>
        <time>2017-02-25T07:44:27Z</time>
      </trkpt>
      <trkpt lat="38.229564" lon="-1.433727">
        <ele>358.2</ele>
        <time>2017-02-25T07:44:39Z</time>
      </trkpt>
      <trkpt lat="38.229658" lon="-1.433934">
        <ele>356.8</ele>
        <time>2017-02-25T07:44:53Z</time>
      </trkpt>
      <trkpt lat="38.229792" lon="-1.434097">
        <ele>356.3</ele>
        <time>2017-02-25T07:45:06Z</time>
      </trkpt>
      <trkpt lat="38.229911" lon="-1.434183">
        <ele>355.3</ele>
        <time>2017-02-25T07:45:17Z</time>
      </trkpt>
      <trkpt lat="38.229961" lon="-1.434393">
        <ele>353.9</ele>
        <time>2017-02-25T07:45:35Z</time>
      </trkpt>
      <trkpt lat="38.229929" lon="-1.434556">
        <ele>353.9</ele>
        <time>2017-02-25T07:45:49Z</time>
      </trkpt>
      <trkpt lat="38.229895" lon="-1.434624">
        <ele>353.4</ele>
        <time>2017-02-25T07:45:55Z</time>
      </trkpt>
      <trkpt lat="38.229827" lon="-1.434833">
        <ele>352.5</ele>
        <time>2017-02-25T07:46:10Z</time>
      </trkpt>
      <trkpt lat="38.229759" lon="-1.435006">
        <ele>352.0</ele>
        <time>2017-02-25T07:46:22Z</time>
      </trkpt>
      <trkpt lat="38.229759" lon="-1.435057">
        <ele>350.5</ele>
        <time>2017-02-25T07:46:26Z</time>
      </trkpt>
      <trkpt lat="38.229774" lon="-1.435273">
        <ele>350.1</ele>
        <time>2017-02-25T07:46:38Z</time>
      </trkpt>
      <trkpt lat="38.229780" lon="-1.435320">
        <ele>350.1</ele>
        <time>2017-02-25T07:46:42Z</time>
      </trkpt>
      <trkpt lat="38.229796" lon="-1.435391">
        <ele>349.6</ele>
        <time>2017-02-25T07:46:47Z</time>
      </trkpt>
      <trkpt lat="38.229837" lon="-1.435539">
        <ele>350.1</ele>
        <time>2017-02-25T07:46:57Z</time>
      </trkpt>
      <trkpt lat="38.229876" lon="-1.435622">
        <ele>349.1</ele>
        <time>2017-02-25T07:47:03Z</time>
      </trkpt>
      <trkpt lat="38.229903" lon="-1.435689">
        <ele>349.1</ele>
        <time>2017-02-25T07:47:07Z</time>
      </trkpt>
      <trkpt lat="38.229919" lon="-1.435727">
        <ele>348.1</ele>
        <time>2017-02-25T07:47:10Z</time>
      </trkpt>
      <trkpt lat="38.229974" lon="-1.435793">
        <ele>348.1</ele>
        <time>2017-02-25T07:47:16Z</time>
      </trkpt>
      <trkpt lat="38.230048" lon="-1.435986">
        <ele>347.6</ele>
        <time>2017-02-25T07:47:30Z</time>
      </trkpt>
      <trkpt lat="38.230101" lon="-1.436120">
        <ele>346.7</ele>
        <time>2017-02-25T07:47:40Z</time>
      </trkpt>
      <trkpt lat="38.230117" lon="-1.436203">
        <ele>346.2</ele>
        <time>2017-02-25T07:47:46Z</time>
      </trkpt>
      <trkpt lat="38.230140" lon="-1.436373">
        <ele>345.7</ele>
        <time>2017-02-25T07:47:58Z</time>
      </trkpt>
      <trkpt lat="38.230149" lon="-1.436427">
        <ele>345.7</ele>
        <time>2017-02-25T07:48:02Z</time>
      </trkpt>
      <trkpt lat="38.230169" lon="-1.436505">
        <ele>345.2</ele>
        <time>2017-02-25T07:48:16Z</time>
      </trkpt>
      <trkpt lat="38.230170" lon="-1.436538">
        <ele>344.8</ele>
        <time>2017-02-25T07:48:24Z</time>
      </trkpt>
      <trkpt lat="38.230199" lon="-1.436580">
        <ele>344.8</ele>
        <time>2017-02-25T07:48:32Z</time>
      </trkpt>
      <trkpt lat="38.230260" lon="-1.436627">
        <ele>344.3</ele>
        <time>2017-02-25T07:48:40Z</time>
      </trkpt>
      <trkpt lat="38.230311" lon="-1.436684">
        <ele>343.3</ele>
        <time>2017-02-25T07:48:47Z</time>
      </trkpt>
      <trkpt lat="38.230354" lon="-1.436769">
        <ele>343.3</ele>
        <time>2017-02-25T07:48:53Z</time>
      </trkpt>
      <trkpt lat="38.230371" lon="-1.436789">
        <ele>339.0</ele>
        <time>2017-02-25T07:48:55Z</time>
      </trkpt>
      <trkpt lat="38.230380" lon="-1.436795">
        <ele>342.4</ele>
        <time>2017-02-25T07:48:56Z</time>
      </trkpt>
      <trkpt lat="38.230423" lon="-1.436824">
        <ele>342.4</ele>
        <time>2017-02-25T07:49:02Z</time>
      </trkpt>
      <trkpt lat="38.230447" lon="-1.436883">
        <ele>343.3</ele>
        <time>2017-02-25T07:49:04Z</time>
      </trkpt>
      <trkpt lat="38.230464" lon="-1.436930">
        <ele>341.9</ele>
        <time>2017-02-25T07:49:06Z</time>
      </trkpt>
      <trkpt lat="38.230558" lon="-1.437081">
        <ele>340.9</ele>
        <time>2017-02-25T07:49:19Z</time>
      </trkpt>
      <trkpt lat="38.230674" lon="-1.437224">
        <ele>340.0</ele>
        <time>2017-02-25T07:49:32Z</time>
      </trkpt>
      <trkpt lat="38.230817" lon="-1.437298">
        <ele>339.0</ele>
        <time>2017-02-25T07:49:44Z</time>
      </trkpt>
      <trkpt lat="38.230946" lon="-1.437456">
        <ele>337.1</ele>
        <time>2017-02-25T07:49:59Z</time>
      </trkpt>
      <trkpt lat="38.231042" lon="-1.437588">
        <ele>336.1</ele>
        <time>2017-02-25T07:50:12Z</time>
      </trkpt>
      <trkpt lat="38.231064" lon="-1.437648">
        <ele>335.6</ele>
        <time>2017-02-25T07:50:16Z</time>
      </trkpt>
      <trkpt lat="38.231185" lon="-1.437875">
        <ele>333.2</ele>
        <time>2017-02-25T07:50:31Z</time>
      </trkpt>
      <trkpt lat="38.231219" lon="-1.437933">
        <ele>333.2</ele>
        <time>2017-02-25T07:50:36Z</time>
      </trkpt>
      <trkpt lat="38.231255" lon="-1.438139">
        <ele>332.3</ele>
        <time>2017-02-25T07:50:51Z</time>
      </trkpt>
      <trkpt lat="38.231174" lon="-1.438392">
        <ele>331.3</ele>
        <time>2017-02-25T07:51:08Z</time>
      </trkpt>
      <trkpt lat="38.231121" lon="-1.438480">
        <ele>330.8</ele>
        <time>2017-02-25T07:51:16Z</time>
      </trkpt>
      <trkpt lat="38.231113" lon="-1.438507">
        <ele>330.4</ele>
        <time>2017-02-25T07:51:18Z</time>
      </trkpt>
      <trkpt lat="38.231088" lon="-1.438553">
        <ele>329.9</ele>
        <time>2017-02-25T07:51:22Z</time>
      </trkpt>
      <trkpt lat="38.230965" lon="-1.438787">
        <ele>328.9</ele>
        <time>2017-02-25T07:51:40Z</time>
      </trkpt>
      <trkpt lat="38.230884" lon="-1.438967">
        <ele>328.0</ele>
        <time>2017-02-25T07:51:55Z</time>
      </trkpt>
      <trkpt lat="38.230797" lon="-1.439156">
        <ele>327.0</ele>
        <time>2017-02-25T07:52:09Z</time>
      </trkpt>
      <trkpt lat="38.230715" lon="-1.439344">
        <ele>326.0</ele>
        <time>2017-02-25T07:52:23Z</time>
      </trkpt>
      <trkpt lat="38.230603" lon="-1.439560">
        <ele>324.1</ele>
        <time>2017-02-25T07:52:41Z</time>
      </trkpt>
      <trkpt lat="38.230508" lon="-1.439742">
        <ele>322.7</ele>
        <time>2017-02-25T07:52:55Z</time>
      </trkpt>
      <trkpt lat="38.230448" lon="-1.439852">
        <ele>317.9</ele>
        <time>2017-02-25T07:53:04Z</time>
      </trkpt>
      <trkpt lat="38.230439" lon="-1.439867">
        <ele>323.1</ele>
        <time>2017-02-25T07:53:05Z</time>
      </trkpt>
      <trkpt lat="38.230430" lon="-1.439881">
        <ele>322.7</ele>
        <time>2017-02-25T07:53:06Z</time>
      </trkpt>
      <trkpt lat="38.230281" lon="-1.440045">
        <ele>320.3</ele>
        <time>2017-02-25T07:53:21Z</time>
      </trkpt>
      <trkpt lat="38.230187" lon="-1.440070">
        <ele>319.3</ele>
        <time>2017-02-25T07:53:29Z</time>
      </trkpt>
      <trkpt lat="38.230165" lon="-1.440062">
        <ele>319.3</ele>
        <time>2017-02-25T07:53:31Z</time>
      </trkpt>
      <trkpt lat="38.230111" lon="-1.440026">
        <ele>318.8</ele>
        <time>2017-02-25T07:53:37Z</time>
      </trkpt>
      <trkpt lat="38.230035" lon="-1.439853">
        <ele>317.4</ele>
        <time>2017-02-25T07:53:51Z</time>
      </trkpt>
      <trkpt lat="38.229897" lon="-1.439667">
        <ele>315.5</ele>
        <time>2017-02-25T07:54:07Z</time>
      </trkpt>
      <trkpt lat="38.229742" lon="-1.439738">
        <ele>314.5</ele>
        <time>2017-02-25T07:54:21Z</time>
      </trkpt>
      <trkpt lat="38.229621" lon="-1.439911">
        <ele>312.6</ele>
        <time>2017-02-25T07:54:37Z</time>
      </trkpt>
      <trkpt lat="38.229576" lon="-1.439958">
        <ele>311.6</ele>
        <time>2017-02-25T07:54:42Z</time>
      </trkpt>
      <trkpt lat="38.229475" lon="-1.440069">
        <ele>310.2</ele>
        <time>2017-02-25T07:54:53Z</time>
      </trkpt>
      <trkpt lat="38.229367" lon="-1.440229">
        <ele>308.7</ele>
        <time>2017-02-25T07:55:07Z</time>
      </trkpt>
      <trkpt lat="38.229342" lon="-1.440301">
        <ele>307.8</ele>
        <time>2017-02-25T07:55:12Z</time>
      </trkpt>
      <trkpt lat="38.229321" lon="-1.440473">
        <ele>306.3</ele>
        <time>2017-02-25T07:55:24Z</time>
      </trkpt>
      <trkpt lat="38.229326" lon="-1.440492">
        <ele>305.8</ele>
        <time>2017-02-25T07:55:26Z</time>
      </trkpt>
      <trkpt lat="38.229331" lon="-1.440599">
        <ele>305.4</ele>
        <time>2017-02-25T07:55:32Z</time>
      </trkpt>
      <trkpt lat="38.229331" lon="-1.440825">
        <ele>303.4</ele>
        <time>2017-02-25T07:55:45Z</time>
      </trkpt>
      <trkpt lat="38.229372" lon="-1.441004">
        <ele>301.5</ele>
        <time>2017-02-25T07:55:57Z</time>
      </trkpt>
      <trkpt lat="38.229374" lon="-1.441020">
        <ele>301.5</ele>
        <time>2017-02-25T07:55:58Z</time>
      </trkpt>
      <trkpt lat="38.229378" lon="-1.441056">
        <ele>301.0</ele>
        <time>2017-02-25T07:56:00Z</time>
      </trkpt>
      <trkpt lat="38.229426" lon="-1.441246">
        <ele>299.6</ele>
        <time>2017-02-25T07:56:12Z</time>
      </trkpt>
      <trkpt lat="38.229459" lon="-1.441359">
        <ele>298.1</ele>
        <time>2017-02-25T07:56:19Z</time>
      </trkpt>
      <trkpt lat="38.229482" lon="-1.441592">
        <ele>296.7</ele>
        <time>2017-02-25T07:56:34Z</time>
      </trkpt>
      <trkpt lat="38.229493" lon="-1.441756">
        <ele>294.8</ele>
        <time>2017-02-25T07:56:46Z</time>
      </trkpt>
      <trkpt lat="38.229484" lon="-1.441934">
        <ele>293.3</ele>
        <time>2017-02-25T07:56:56Z</time>
      </trkpt>
      <trkpt lat="38.229489" lon="-1.441981">
        <ele>293.3</ele>
        <time>2017-02-25T07:57:06Z</time>
      </trkpt>
      <trkpt lat="38.229465" lon="-1.442006">
        <ele>292.9</ele>
        <time>2017-02-25T07:57:12Z</time>
      </trkpt>
      <trkpt lat="38.229393" lon="-1.442086">
        <ele>289.5</ele>
        <time>2017-02-25T07:57:19Z</time>
      </trkpt>
      <trkpt lat="38.229387" lon="-1.442089">
        <ele>292.9</ele>
        <time>2017-02-25T07:57:20Z</time>
      </trkpt>
      <trkpt lat="38.229352" lon="-1.442091">
        <ele>291.9</ele>
        <time>2017-02-25T07:57:23Z</time>
      </trkpt>
      <trkpt lat="38.229292" lon="-1.442111">
        <ele>291.4</ele>
        <time>2017-02-25T07:57:30Z</time>
      </trkpt>
      <trkpt lat="38.229256" lon="-1.442251">
        <ele>292.9</ele>
        <time>2017-02-25T07:57:44Z</time>
      </trkpt>
      <trkpt lat="38.229210" lon="-1.442453">
        <ele>296.7</ele>
        <time>2017-02-25T07:58:00Z</time>
      </trkpt>
      <trkpt lat="38.229193" lon="-1.442548">
        <ele>297.2</ele>
        <time>2017-02-25T07:58:07Z</time>
      </trkpt>
      <trkpt lat="38.229105" lon="-1.442590">
        <ele>298.1</ele>
        <time>2017-02-25T07:58:15Z</time>
      </trkpt>
      <trkpt lat="38.229038" lon="-1.442559">
        <ele>301.5</ele>
        <time>2017-02-25T07:58:23Z</time>
      </trkpt>
      <trkpt lat="38.229020" lon="-1.442551">
        <ele>300.5</ele>
        <time>2017-02-25T07:58:28Z</time>
      </trkpt>
      <trkpt lat="38.229003" lon="-1.442526">
        <ele>301.5</ele>
        <time>2017-02-25T07:58:31Z</time>
      </trkpt>
      <trkpt lat="38.228947" lon="-1.442422">
        <ele>303.9</ele>
        <time>2017-02-25T07:58:43Z</time>
      </trkpt>
      <trkpt lat="38.228937" lon="-1.442348">
        <ele>305.8</ele>
        <time>2017-02-25T07:58:49Z</time>
      </trkpt>
      <trkpt lat="38.228946" lon="-1.442300">
        <ele>306.8</ele>
        <time>2017-02-25T07:58:54Z</time>
      </trkpt>
      <trkpt lat="38.228965" lon="-1.442245">
        <ele>307.8</ele>
        <time>2017-02-25T07:58:59Z</time>
      </trkpt>
      <trkpt lat="38.228948" lon="-1.442134">
        <ele>308.7</ele>
        <time>2017-02-25T07:59:11Z</time>
      </trkpt>
      <trkpt lat="38.228920" lon="-1.442144">
        <ele>308.7</ele>
        <time>2017-02-25T07:59:15Z</time>
      </trkpt>
      <trkpt lat="38.228843" lon="-1.442170">
        <ele>310.6</ele>
        <time>2017-02-25T07:59:23Z</time>
      </trkpt>
      <trkpt lat="38.228749" lon="-1.442205">
        <ele>311.6</ele>
        <time>2017-02-25T07:59:34Z</time>
      </trkpt>
      <trkpt lat="38.228695" lon="-1.442217">
        <ele>311.6</ele>
        <time>2017-02-25T07:59:38Z</time>
      </trkpt>
      <trkpt lat="38.228561" lon="-1.442288">
        <ele>312.6</ele>
        <time>2017-02-25T07:59:51Z</time>
      </trkpt>
      <trkpt lat="38.228409" lon="-1.442349">
        <ele>315.5</ele>
        <time>2017-02-25T08:00:07Z</time>
      </trkpt>
      <trkpt lat="38.228317" lon="-1.442384">
        <ele>317.4</ele>
        <time>2017-02-25T08:00:20Z</time>
      </trkpt>
      <trkpt lat="38.228228" lon="-1.442418">
        <ele>318.3</ele>
        <time>2017-02-25T08:00:29Z</time>
      </trkpt>
      <trkpt lat="38.228114" lon="-1.442487">
        <ele>320.7</ele>
        <time>2017-02-25T08:00:43Z</time>
      </trkpt>
      <trkpt lat="38.228098" lon="-1.442513">
        <ele>321.2</ele>
        <time>2017-02-25T08:00:47Z</time>
      </trkpt>
      <trkpt lat="38.228111" lon="-1.442569">
        <ele>321.7</ele>
        <time>2017-02-25T08:00:50Z</time>
      </trkpt>
      <trkpt lat="38.228104" lon="-1.442625">
        <ele>321.7</ele>
        <time>2017-02-25T08:00:55Z</time>
      </trkpt>
      <trkpt lat="38.228113" lon="-1.442690">
        <ele>322.2</ele>
        <time>2017-02-25T08:01:00Z</time>
      </trkpt>
      <trkpt lat="38.228135" lon="-1.442785">
        <ele>322.2</ele>
        <time>2017-02-25T08:01:07Z</time>
      </trkpt>
      <trkpt lat="38.228137" lon="-1.442833">
        <ele>322.7</ele>
        <time>2017-02-25T08:01:10Z</time>
      </trkpt>
      <trkpt lat="38.228138" lon="-1.442939">
        <ele>323.1</ele>
        <time>2017-02-25T08:01:16Z</time>
      </trkpt>
      <trkpt lat="38.228175" lon="-1.443087">
        <ele>323.1</ele>
        <time>2017-02-25T08:01:27Z</time>
      </trkpt>
      <trkpt lat="38.228194" lon="-1.443275">
        <ele>322.7</ele>
        <time>2017-02-25T08:01:39Z</time>
      </trkpt>
      <trkpt lat="38.228194" lon="-1.443491">
        <ele>321.7</ele>
        <time>2017-02-25T08:01:53Z</time>
      </trkpt>
      <trkpt lat="38.228134" lon="-1.443662">
        <ele>320.3</ele>
        <time>2017-02-25T08:02:07Z</time>
      </trkpt>
      <trkpt lat="38.228122" lon="-1.443701">
        <ele>320.3</ele>
        <time>2017-02-25T08:02:09Z</time>
      </trkpt>
      <trkpt lat="38.228078" lon="-1.443813">
        <ele>319.3</ele>
        <time>2017-02-25T08:02:25Z</time>
      </trkpt>
      <trkpt lat="38.228087" lon="-1.443826">
        <ele>320.7</ele>
        <time>2017-02-25T08:02:32Z</time>
      </trkpt>
      <trkpt lat="38.227994" lon="-1.444138">
        <ele>321.2</ele>
        <time>2017-02-25T08:02:49Z</time>
      </trkpt>
      <trkpt lat="38.227960" lon="-1.444233">
        <ele>318.3</ele>
        <time>2017-02-25T08:02:55Z</time>
      </trkpt>
      <trkpt lat="38.227902" lon="-1.444453">
        <ele>318.8</ele>
        <time>2017-02-25T08:03:09Z</time>
      </trkpt>
      <trkpt lat="38.227900" lon="-1.444471">
        <ele>318.8</ele>
        <time>2017-02-25T08:03:10Z</time>
      </trkpt>
      <trkpt lat="38.227917" lon="-1.444565">
        <ele>318.3</ele>
        <time>2017-02-25T08:03:16Z</time>
      </trkpt>
      <trkpt lat="38.227959" lon="-1.444701">
        <ele>318.3</ele>
        <time>2017-02-25T08:03:26Z</time>
      </trkpt>
      <trkpt lat="38.228032" lon="-1.444790">
        <ele>317.4</ele>
        <time>2017-02-25T08:03:41Z</time>
      </trkpt>
      <trkpt lat="38.228031" lon="-1.444795">
        <ele>316.9</ele>
        <time>2017-02-25T08:03:42Z</time>
      </trkpt>
      <trkpt lat="38.228050" lon="-1.444927">
        <ele>316.4</ele>
        <time>2017-02-25T08:03:55Z</time>
      </trkpt>
      <trkpt lat="38.228078" lon="-1.444922">
        <ele>315.5</ele>
        <time>2017-02-25T08:04:00Z</time>
      </trkpt>
      <trkpt lat="38.228169" lon="-1.444858">
        <ele>312.6</ele>
        <time>2017-02-25T08:04:07Z</time>
      </trkpt>
      <trkpt lat="38.228179" lon="-1.444851">
        <ele>315.9</ele>
        <time>2017-02-25T08:04:08Z</time>
      </trkpt>
      <trkpt lat="38.228275" lon="-1.444814">
        <ele>312.6</ele>
        <time>2017-02-25T08:04:15Z</time>
      </trkpt>
      <trkpt lat="38.228378" lon="-1.444937">
        <ele>310.6</ele>
        <time>2017-02-25T08:04:26Z</time>
      </trkpt>
      <trkpt lat="38.228354" lon="-1.445162">
        <ele>308.2</ele>
        <time>2017-02-25T08:04:40Z</time>
      </trkpt>
      <trkpt lat="38.228343" lon="-1.445230">
        <ele>308.2</ele>
        <time>2017-02-25T08:05:25Z</time>
      </trkpt>
      <trkpt lat="38.228201" lon="-1.445455">
        <ele>306.8</ele>
        <time>2017-02-25T08:05:39Z</time>
      </trkpt>
      <trkpt lat="38.228169" lon="-1.445716">
        <ele>304.9</ele>
        <time>2017-02-25T08:05:53Z</time>
      </trkpt>
      <trkpt lat="38.228071" lon="-1.445917">
        <ele>303.4</ele>
        <time>2017-02-25T08:06:06Z</time>
      </trkpt>
      <trkpt lat="38.227845" lon="-1.446051">
        <ele>302.0</ele>
        <time>2017-02-25T08:07:01Z</time>
      </trkpt>
      <trkpt lat="38.227772" lon="-1.446064">
        <ele>301.5</ele>
        <time>2017-02-25T08:07:15Z</time>
      </trkpt>
      <trkpt lat="38.227703" lon="-1.446079">
        <ele>301.0</ele>
        <time>2017-02-25T08:07:21Z</time>
      </trkpt>
      <trkpt lat="38.227487" lon="-1.446188">
        <ele>299.6</ele>
        <time>2017-02-25T08:07:36Z</time>
      </trkpt>
      <trkpt lat="38.227392" lon="-1.446353">
        <ele>298.6</ele>
        <time>2017-02-25T08:07:48Z</time>
      </trkpt>
      <trkpt lat="38.227282" lon="-1.446570">
        <ele>297.7</ele>
        <time>2017-02-25T08:08:01Z</time>
      </trkpt>
      <trkpt lat="38.227182" lon="-1.446767">
        <ele>296.7</ele>
        <time>2017-02-25T08:08:14Z</time>
      </trkpt>
      <trkpt lat="38.227176" lon="-1.446801">
        <ele>296.7</ele>
        <time>2017-02-25T08:08:16Z</time>
      </trkpt>
      <trkpt lat="38.227135" lon="-1.447038">
        <ele>295.7</ele>
        <time>2017-02-25T08:08:29Z</time>
      </trkpt>
      <trkpt lat="38.227046" lon="-1.447315">
        <ele>292.4</ele>
        <time>2017-02-25T08:08:44Z</time>
      </trkpt>
      <trkpt lat="38.226953" lon="-1.447605">
        <ele>290.9</ele>
        <time>2017-02-25T08:08:59Z</time>
      </trkpt>
      <trkpt lat="38.226919" lon="-1.447688">
        <ele>290.0</ele>
        <time>2017-02-25T08:09:04Z</time>
      </trkpt>
      <trkpt lat="38.226909" lon="-1.447744">
        <ele>289.5</ele>
        <time>2017-02-25T08:09:07Z</time>
      </trkpt>
      <trkpt lat="38.226875" lon="-1.447814">
        <ele>288.5</ele>
        <time>2017-02-25T08:09:12Z</time>
      </trkpt>
      <trkpt lat="38.226903" lon="-1.447856">
        <ele>287.6</ele>
        <time>2017-02-25T08:09:16Z</time>
      </trkpt>
      <trkpt lat="38.226945" lon="-1.447833">
        <ele>287.1</ele>
        <time>2017-02-25T08:09:30Z</time>
      </trkpt>
      <trkpt lat="38.226956" lon="-1.447859">
        <ele>287.1</ele>
        <time>2017-02-25T08:09:37Z</time>
      </trkpt>
      <trkpt lat="38.226999" lon="-1.447908">
        <ele>286.1</ele>
        <time>2017-02-25T08:09:41Z</time>
      </trkpt>
      <trkpt lat="38.227172" lon="-1.448035">
        <ele>282.8</ele>
        <time>2017-02-25T08:09:54Z</time>
      </trkpt>
      <trkpt lat="38.227263" lon="-1.448073">
        <ele>280.8</ele>
        <time>2017-02-25T08:10:01Z</time>
      </trkpt>
      <trkpt lat="38.227340" lon="-1.448164">
        <ele>278.9</ele>
        <time>2017-02-25T08:10:10Z</time>
      </trkpt>
      <trkpt lat="38.227234" lon="-1.448386">
        <ele>276.5</ele>
        <time>2017-02-25T08:10:24Z</time>
      </trkpt>
      <trkpt lat="38.227212" lon="-1.448491">
        <ele>276.0</ele>
        <time>2017-02-25T08:10:30Z</time>
      </trkpt>
      <trkpt lat="38.227263" lon="-1.448569">
        <ele>274.6</ele>
        <time>2017-02-25T08:10:36Z</time>
      </trkpt>
      <trkpt lat="38.227338" lon="-1.448690">
        <ele>272.7</ele>
        <time>2017-02-25T08:10:44Z</time>
      </trkpt>
      <trkpt lat="38.227427" lon="-1.448814">
        <ele>270.3</ele>
        <time>2017-02-25T08:10:53Z</time>
      </trkpt>
      <trkpt lat="38.227465" lon="-1.448863">
        <ele>269.3</ele>
        <time>2017-02-25T08:10:57Z</time>
      </trkpt>
      <trkpt lat="38.227433" lon="-1.448978">
        <ele>268.8</ele>
        <time>2017-02-25T08:11:08Z</time>
      </trkpt>
      <trkpt lat="38.227393" lon="-1.449065">
        <ele>268.4</ele>
        <time>2017-02-25T08:11:15Z</time>
      </trkpt>
      <trkpt lat="38.227313" lon="-1.449122">
        <ele>267.4</ele>
        <time>2017-02-25T08:11:22Z</time>
      </trkpt>
      <trkpt lat="38.227231" lon="-1.449186">
        <ele>266.4</ele>
        <time>2017-02-25T08:11:28Z</time>
      </trkpt>
      <trkpt lat="38.227160" lon="-1.449355">
        <ele>266.9</ele>
        <time>2017-02-25T08:11:41Z</time>
      </trkpt>
      <trkpt lat="38.227156" lon="-1.449371">
        <ele>266.9</ele>
        <time>2017-02-25T08:11:50Z</time>
      </trkpt>
      <trkpt lat="38.227413" lon="-1.449623">
        <ele>265.5</ele>
        <time>2017-02-25T08:12:11Z</time>
      </trkpt>
      <trkpt lat="38.227627" lon="-1.449856">
        <ele>262.1</ele>
        <time>2017-02-25T08:12:29Z</time>
      </trkpt>
      <trkpt lat="38.227884" lon="-1.450083">
        <ele>259.2</ele>
        <time>2017-02-25T08:12:49Z</time>
      </trkpt>
      <trkpt lat="38.228109" lon="-1.450256">
        <ele>258.2</ele>
        <time>2017-02-25T08:13:06Z</time>
      </trkpt>
      <trkpt lat="38.228364" lon="-1.450352">
        <ele>257.3</ele>
        <time>2017-02-25T08:13:24Z</time>
      </trkpt>
      <trkpt lat="38.228594" lon="-1.450408">
        <ele>255.9</ele>
        <time>2017-02-25T08:13:40Z</time>
      </trkpt>
      <trkpt lat="38.228626" lon="-1.450449">
        <ele>255.9</ele>
        <time>2017-02-25T08:13:44Z</time>
      </trkpt>
      <trkpt lat="38.228614" lon="-1.450567">
        <ele>255.9</ele>
        <time>2017-02-25T08:13:58Z</time>
      </trkpt>
      <trkpt lat="38.228613" lon="-1.450583">
        <ele>255.9</ele>
        <time>2017-02-25T08:14:02Z</time>
      </trkpt>
      <trkpt lat="38.228517" lon="-1.450865">
        <ele>255.4</ele>
        <time>2017-02-25T08:14:19Z</time>
      </trkpt>
      <trkpt lat="38.228427" lon="-1.451081">
        <ele>255.4</ele>
        <time>2017-02-25T08:14:37Z</time>
      </trkpt>
      <trkpt lat="38.228430" lon="-1.451077">
        <ele>255.4</ele>
        <time>2017-02-25T08:14:40Z</time>
      </trkpt>
      <trkpt lat="38.228362" lon="-1.451234">
        <ele>254.9</ele>
        <time>2017-02-25T08:14:51Z</time>
      </trkpt>
      <trkpt lat="38.228250" lon="-1.451277">
        <ele>255.4</ele>
        <time>2017-02-25T08:15:04Z</time>
      </trkpt>
      <trkpt lat="38.228177" lon="-1.451268">
        <ele>254.9</ele>
        <time>2017-02-25T08:15:16Z</time>
      </trkpt>
      <trkpt lat="38.228041" lon="-1.451256">
        <ele>251.5</ele>
        <time>2017-02-25T08:15:25Z</time>
      </trkpt>
      <trkpt lat="38.228025" lon="-1.451254">
        <ele>255.9</ele>
        <time>2017-02-25T08:15:26Z</time>
      </trkpt>
      <trkpt lat="38.227979" lon="-1.451247">
        <ele>260.2</ele>
        <time>2017-02-25T08:15:29Z</time>
      </trkpt>
      <trkpt lat="38.227966" lon="-1.451245">
        <ele>256.3</ele>
        <time>2017-02-25T08:15:30Z</time>
      </trkpt>
      <trkpt lat="38.227677" lon="-1.451267">
        <ele>257.8</ele>
        <time>2017-02-25T08:15:48Z</time>
      </trkpt>
      <trkpt lat="38.227650" lon="-1.451264">
        <ele>257.8</ele>
        <time>2017-02-25T08:15:51Z</time>
      </trkpt>
      <trkpt lat="38.227314" lon="-1.451205">
        <ele>260.2</ele>
        <time>2017-02-25T08:16:12Z</time>
      </trkpt>
      <trkpt lat="38.227116" lon="-1.451263">
        <ele>260.6</ele>
        <time>2017-02-25T08:16:25Z</time>
      </trkpt>
      <trkpt lat="38.227073" lon="-1.451506">
        <ele>261.6</ele>
        <time>2017-02-25T08:16:38Z</time>
      </trkpt>
      <trkpt lat="38.226988" lon="-1.451784">
        <ele>262.6</ele>
        <time>2017-02-25T08:16:53Z</time>
      </trkpt>
      <trkpt lat="38.226895" lon="-1.452039">
        <ele>262.6</ele>
        <time>2017-02-25T08:17:08Z</time>
      </trkpt>
      <trkpt lat="38.226783" lon="-1.452223">
        <ele>264.0</ele>
        <time>2017-02-25T08:17:22Z</time>
      </trkpt>
      <trkpt lat="38.226734" lon="-1.452341">
        <ele>265.5</ele>
        <time>2017-02-25T08:17:30Z</time>
      </trkpt>
      <trkpt lat="38.226617" lon="-1.452526">
        <ele>266.4</ele>
        <time>2017-02-25T08:17:44Z</time>
      </trkpt>
      <trkpt lat="38.226592" lon="-1.452552">
        <ele>266.9</ele>
        <time>2017-02-25T08:17:47Z</time>
      </trkpt>
      <trkpt lat="38.226467" lon="-1.452677">
        <ele>267.9</ele>
        <time>2017-02-25T08:17:59Z</time>
      </trkpt>
      <trkpt lat="38.226270" lon="-1.452825">
        <ele>268.8</ele>
        <time>2017-02-25T08:18:16Z</time>
      </trkpt>
      <trkpt lat="38.226124" lon="-1.453003">
        <ele>270.8</ele>
        <time>2017-02-25T08:18:32Z</time>
      </trkpt>
      <trkpt lat="38.226115" lon="-1.453015">
        <ele>270.8</ele>
        <time>2017-02-25T08:18:33Z</time>
      </trkpt>
      <trkpt lat="38.226080" lon="-1.453036">
        <ele>269.8</ele>
        <time>2017-02-25T08:18:38Z</time>
      </trkpt>
      <trkpt lat="38.226019" lon="-1.453139">
        <ele>270.3</ele>
        <time>2017-02-25T08:18:48Z</time>
      </trkpt>
      <trkpt lat="38.225836" lon="-1.453274">
        <ele>271.7</ele>
        <time>2017-02-25T08:20:25Z</time>
      </trkpt>
      <trkpt lat="38.225673" lon="-1.453409">
        <ele>271.2</ele>
        <time>2017-02-25T08:20:38Z</time>
      </trkpt>
      <trkpt lat="38.225472" lon="-1.453578">
        <ele>273.6</ele>
        <time>2017-02-25T08:20:53Z</time>
      </trkpt>
      <trkpt lat="38.225292" lon="-1.453752">
        <ele>274.1</ele>
        <time>2017-02-25T08:21:08Z</time>
      </trkpt>
      <trkpt lat="38.225117" lon="-1.453880">
        <ele>275.1</ele>
        <time>2017-02-25T08:21:24Z</time>
      </trkpt>
      <trkpt lat="38.225028" lon="-1.453915">
        <ele>275.6</ele>
        <time>2017-02-25T08:21:31Z</time>
      </trkpt>
      <trkpt lat="38.224976" lon="-1.453944">
        <ele>275.6</ele>
        <time>2017-02-25T08:21:35Z</time>
      </trkpt>
      <trkpt lat="38.224772" lon="-1.454024">
        <ele>276.5</ele>
        <time>2017-02-25T08:21:52Z</time>
      </trkpt>
      <trkpt lat="38.224675" lon="-1.454083">
        <ele>277.0</ele>
        <time>2017-02-25T08:22:01Z</time>
      </trkpt>
      <trkpt lat="38.224463" lon="-1.454160">
        <ele>277.5</ele>
        <time>2017-02-25T08:22:18Z</time>
      </trkpt>
      <trkpt lat="38.224280" lon="-1.454219">
        <ele>278.4</ele>
        <time>2017-02-25T08:22:33Z</time>
      </trkpt>
      <trkpt lat="38.224079" lon="-1.454295">
        <ele>278.9</ele>
        <time>2017-02-25T08:22:49Z</time>
      </trkpt>
      <trkpt lat="38.223859" lon="-1.454384">
        <ele>279.4</ele>
        <time>2017-02-25T08:23:06Z</time>
      </trkpt>
      <trkpt lat="38.223840" lon="-1.454392">
        <ele>278.4</ele>
        <time>2017-02-25T08:23:08Z</time>
      </trkpt>
      <trkpt lat="38.223819" lon="-1.454396">
        <ele>279.4</ele>
        <time>2017-02-25T08:23:10Z</time>
      </trkpt>
      <trkpt lat="38.223582" lon="-1.454478">
        <ele>279.9</ele>
        <time>2017-02-25T08:23:29Z</time>
      </trkpt>
      <trkpt lat="38.223396" lon="-1.454584">
        <ele>280.4</ele>
        <time>2017-02-25T08:23:44Z</time>
      </trkpt>
      <trkpt lat="38.223278" lon="-1.454640">
        <ele>281.3</ele>
        <time>2017-02-25T08:23:54Z</time>
      </trkpt>
      <trkpt lat="38.223265" lon="-1.454650">
        <ele>280.8</ele>
        <time>2017-02-25T08:23:55Z</time>
      </trkpt>
      <trkpt lat="38.223113" lon="-1.454751">
        <ele>281.3</ele>
        <time>2017-02-25T08:24:09Z</time>
      </trkpt>
      <trkpt lat="38.222953" lon="-1.454827">
        <ele>281.8</ele>
        <time>2017-02-25T08:24:23Z</time>
      </trkpt>
      <trkpt lat="38.222949" lon="-1.454834">
        <ele>282.3</ele>
        <time>2017-02-25T08:24:24Z</time>
      </trkpt>
      <trkpt lat="38.222942" lon="-1.454842">
        <ele>282.8</ele>
        <time>2017-02-25T08:24:25Z</time>
      </trkpt>
      <trkpt lat="38.222934" lon="-1.454847">
        <ele>281.8</ele>
        <time>2017-02-25T08:24:26Z</time>
      </trkpt>
      <trkpt lat="38.222926" lon="-1.454853">
        <ele>281.8</ele>
        <time>2017-02-25T08:24:27Z</time>
      </trkpt>
      <trkpt lat="38.222919" lon="-1.454854">
        <ele>281.8</ele>
        <time>2017-02-25T08:24:28Z</time>
      </trkpt>
      <trkpt lat="38.222910" lon="-1.454860">
        <ele>281.8</ele>
        <time>2017-02-25T08:24:29Z</time>
      </trkpt>
      <trkpt lat="38.222779" lon="-1.454915">
        <ele>283.2</ele>
        <time>2017-02-25T08:24:43Z</time>
      </trkpt>
      <trkpt lat="38.222566" lon="-1.454964">
        <ele>284.7</ele>
        <time>2017-02-25T08:25:01Z</time>
      </trkpt>
      <trkpt lat="38.222347" lon="-1.454976">
        <ele>285.6</ele>
        <time>2017-02-25T08:25:18Z</time>
      </trkpt>
      <trkpt lat="38.222170" lon="-1.454960">
        <ele>288.0</ele>
        <time>2017-02-25T08:25:32Z</time>
      </trkpt>
      <trkpt lat="38.221969" lon="-1.454938">
        <ele>289.5</ele>
        <time>2017-02-25T08:25:48Z</time>
      </trkpt>
      <trkpt lat="38.221852" lon="-1.454914">
        <ele>290.0</ele>
        <time>2017-02-25T08:25:58Z</time>
      </trkpt>
      <trkpt lat="38.221797" lon="-1.454911">
        <ele>290.0</ele>
        <time>2017-02-25T08:26:05Z</time>
      </trkpt>
      <trkpt lat="38.221784" lon="-1.454946">
        <ele>290.5</ele>
        <time>2017-02-25T08:26:15Z</time>
      </trkpt>
      <trkpt lat="38.221765" lon="-1.454940">
        <ele>290.9</ele>
        <time>2017-02-25T08:26:26Z</time>
      </trkpt>
      <trkpt lat="38.221734" lon="-1.454926">
        <ele>290.5</ele>
        <time>2017-02-25T08:26:39Z</time>
      </trkpt>
      <trkpt lat="38.221724" lon="-1.454921">
        <ele>290.0</ele>
        <time>2017-02-25T08:26:40Z</time>
      </trkpt>
      <trkpt lat="38.221713" lon="-1.454915">
        <ele>290.9</ele>
        <time>2017-02-25T08:26:41Z</time>
      </trkpt>
      <trkpt lat="38.221699" lon="-1.454912">
        <ele>290.5</ele>
        <time>2017-02-25T08:26:42Z</time>
      </trkpt>
      <trkpt lat="38.221688" lon="-1.454908">
        <ele>290.9</ele>
        <time>2017-02-25T08:26:43Z</time>
      </trkpt>
      <trkpt lat="38.221679" lon="-1.454903">
        <ele>290.9</ele>
        <time>2017-02-25T08:26:44Z</time>
      </trkpt>
      <trkpt lat="38.221669" lon="-1.454901">
        <ele>290.9</ele>
        <time>2017-02-25T08:26:45Z</time>
      </trkpt>
      <trkpt lat="38.221656" lon="-1.454902">
        <ele>290.9</ele>
        <time>2017-02-25T08:26:46Z</time>
      </trkpt>
      <trkpt lat="38.221497" lon="-1.454945">
        <ele>292.9</ele>
        <time>2017-02-25T08:27:00Z</time>
      </trkpt>
      <trkpt lat="38.221337" lon="-1.455045">
        <ele>293.3</ele>
        <time>2017-02-25T08:27:15Z</time>
      </trkpt>
      <trkpt lat="38.221130" lon="-1.455169">
        <ele>293.3</ele>
        <time>2017-02-25T08:27:32Z</time>
      </trkpt>
      <trkpt lat="38.220992" lon="-1.455354">
        <ele>293.3</ele>
        <time>2017-02-25T08:27:47Z</time>
      </trkpt>
      <trkpt lat="38.220937" lon="-1.455567">
        <ele>292.9</ele>
        <time>2017-02-25T08:28:01Z</time>
      </trkpt>
      <trkpt lat="38.220891" lon="-1.455815">
        <ele>290.9</ele>
        <time>2017-02-25T08:28:17Z</time>
      </trkpt>
      <trkpt lat="38.220835" lon="-1.456079">
        <ele>290.0</ele>
        <time>2017-02-25T08:28:33Z</time>
      </trkpt>
      <trkpt lat="38.220764" lon="-1.456294">
        <ele>288.5</ele>
        <time>2017-02-25T08:28:49Z</time>
      </trkpt>
      <trkpt lat="38.220734" lon="-1.456397">
        <ele>286.6</ele>
        <time>2017-02-25T08:28:57Z</time>
      </trkpt>
      <trkpt lat="38.220726" lon="-1.456416">
        <ele>288.5</ele>
        <time>2017-02-25T08:28:59Z</time>
      </trkpt>
      <trkpt lat="38.220688" lon="-1.456543">
        <ele>288.0</ele>
        <time>2017-02-25T08:29:13Z</time>
      </trkpt>
      <trkpt lat="38.220659" lon="-1.456654">
        <ele>287.6</ele>
        <time>2017-02-25T08:29:25Z</time>
      </trkpt>
      <trkpt lat="38.220671" lon="-1.456658">
        <ele>287.6</ele>
        <time>2017-02-25T08:29:39Z</time>
      </trkpt>
      <trkpt lat="38.220643" lon="-1.456670">
        <ele>287.6</ele>
        <time>2017-02-25T08:29:58Z</time>
      </trkpt>
      <trkpt lat="38.220628" lon="-1.456680">
        <ele>287.6</ele>
        <time>2017-02-25T08:29:59Z</time>
      </trkpt>
      <trkpt lat="38.220615" lon="-1.456693">
        <ele>287.1</ele>
        <time>2017-02-25T08:30:00Z</time>
      </trkpt>
      <trkpt lat="38.220607" lon="-1.456707">
        <ele>287.1</ele>
        <time>2017-02-25T08:30:01Z</time>
      </trkpt>
      <trkpt lat="38.220600" lon="-1.456722">
        <ele>287.1</ele>
        <time>2017-02-25T08:30:02Z</time>
      </trkpt>
      <trkpt lat="38.220543" lon="-1.456825">
        <ele>286.6</ele>
        <time>2017-02-25T08:30:12Z</time>
      </trkpt>
      <trkpt lat="38.220528" lon="-1.456953">
        <ele>286.1</ele>
        <time>2017-02-25T08:31:20Z</time>
      </trkpt>
      <trkpt lat="38.220522" lon="-1.456964">
        <ele>286.1</ele>
        <time>2017-02-25T08:31:22Z</time>
      </trkpt>
      <trkpt lat="38.220493" lon="-1.457063">
        <ele>287.1</ele>
        <time>2017-02-25T08:31:32Z</time>
      </trkpt>
      <trkpt lat="38.220462" lon="-1.457121">
        <ele>286.6</ele>
        <time>2017-02-25T08:31:36Z</time>
      </trkpt>
      <trkpt lat="38.220420" lon="-1.457164">
        <ele>287.1</ele>
        <time>2017-02-25T08:31:44Z</time>
      </trkpt>
      <trkpt lat="38.220400" lon="-1.457242">
        <ele>287.6</ele>
        <time>2017-02-25T08:31:48Z</time>
      </trkpt>
      <trkpt lat="38.220352" lon="-1.457319">
        <ele>288.5</ele>
        <time>2017-02-25T08:32:00Z</time>
      </trkpt>
      <trkpt lat="38.220308" lon="-1.457441">
        <ele>289.0</ele>
        <time>2017-02-25T08:32:26Z</time>
      </trkpt>
      <trkpt lat="38.220291" lon="-1.457472">
        <ele>290.0</ele>
        <time>2017-02-25T08:32:29Z</time>
      </trkpt>
      <trkpt lat="38.220269" lon="-1.457545">
        <ele>291.4</ele>
        <time>2017-02-25T08:32:34Z</time>
      </trkpt>
      <trkpt lat="38.220161" lon="-1.457772">
        <ele>294.8</ele>
        <time>2017-02-25T08:32:49Z</time>
      </trkpt>
      <trkpt lat="38.220080" lon="-1.457843">
        <ele>295.3</ele>
        <time>2017-02-25T08:32:57Z</time>
      </trkpt>
      <trkpt lat="38.219889" lon="-1.457945">
        <ele>297.7</ele>
        <time>2017-02-25T08:33:13Z</time>
      </trkpt>
      <trkpt lat="38.219887" lon="-1.457939">
        <ele>298.1</ele>
        <time>2017-02-25T08:33:15Z</time>
      </trkpt>
      <trkpt lat="38.219717" lon="-1.458022">
        <ele>299.1</ele>
        <time>2017-02-25T08:33:28Z</time>
      </trkpt>
      <trkpt lat="38.219572" lon="-1.458120">
        <ele>301.0</ele>
        <time>2017-02-25T08:34:14Z</time>
      </trkpt>
      <trkpt lat="38.219460" lon="-1.458180">
        <ele>300.5</ele>
        <time>2017-02-25T08:34:22Z</time>
      </trkpt>
      <trkpt lat="38.219255" lon="-1.458302">
        <ele>302.0</ele>
        <time>2017-02-25T08:34:38Z</time>
      </trkpt>
      <trkpt lat="38.219162" lon="-1.458418">
        <ele>303.0</ele>
        <time>2017-02-25T08:34:47Z</time>
      </trkpt>
      <trkpt lat="38.219061" lon="-1.458640">
        <ele>303.4</ele>
        <time>2017-02-25T08:35:01Z</time>
      </trkpt>
      <trkpt lat="38.219016" lon="-1.458774">
        <ele>305.4</ele>
        <time>2017-02-25T08:35:09Z</time>
      </trkpt>
      <trkpt lat="38.219019" lon="-1.458844">
        <ele>305.4</ele>
        <time>2017-02-25T08:35:13Z</time>
      </trkpt>
      <trkpt lat="38.219005" lon="-1.458865">
        <ele>306.3</ele>
        <time>2017-02-25T08:35:15Z</time>
      </trkpt>
      <trkpt lat="38.218986" lon="-1.458919">
        <ele>305.8</ele>
        <time>2017-02-25T08:35:39Z</time>
      </trkpt>
      <trkpt lat="38.218934" lon="-1.458995">
        <ele>307.8</ele>
        <time>2017-02-25T08:35:45Z</time>
      </trkpt>
      <trkpt lat="38.218905" lon="-1.459056">
        <ele>307.8</ele>
        <time>2017-02-25T08:35:50Z</time>
      </trkpt>
      <trkpt lat="38.218836" lon="-1.459159">
        <ele>308.2</ele>
        <time>2017-02-25T08:35:58Z</time>
      </trkpt>
      <trkpt lat="38.218804" lon="-1.459198">
        <ele>308.7</ele>
        <time>2017-02-25T08:36:02Z</time>
      </trkpt>
      <trkpt lat="38.218726" lon="-1.459311">
        <ele>310.6</ele>
        <time>2017-02-25T08:36:12Z</time>
      </trkpt>
      <trkpt lat="38.218640" lon="-1.459422">
        <ele>311.6</ele>
        <time>2017-02-25T08:36:21Z</time>
      </trkpt>
      <trkpt lat="38.218612" lon="-1.459464">
        <ele>312.1</ele>
        <time>2017-02-25T08:36:25Z</time>
      </trkpt>
      <trkpt lat="38.218518" lon="-1.459629">
        <ele>313.5</ele>
        <time>2017-02-25T08:36:38Z</time>
      </trkpt>
      <trkpt lat="38.218494" lon="-1.459678">
        <ele>314.0</ele>
        <time>2017-02-25T08:36:42Z</time>
      </trkpt>
      <trkpt lat="38.218410" lon="-1.459813">
        <ele>315.0</ele>
        <time>2017-02-25T08:36:54Z</time>
      </trkpt>
      <trkpt lat="38.218327" lon="-1.459991">
        <ele>315.5</ele>
        <time>2017-02-25T08:37:08Z</time>
      </trkpt>
      <trkpt lat="38.218211" lon="-1.460190">
        <ele>316.4</ele>
        <time>2017-02-25T08:37:23Z</time>
      </trkpt>
      <trkpt lat="38.218113" lon="-1.460373">
        <ele>316.9</ele>
        <time>2017-02-25T08:37:37Z</time>
      </trkpt>
      <trkpt lat="38.218055" lon="-1.460534">
        <ele>317.9</ele>
        <time>2017-02-25T08:37:51Z</time>
      </trkpt>
      <trkpt lat="38.218032" lon="-1.460590">
        <ele>318.3</ele>
        <time>2017-02-25T08:37:55Z</time>
      </trkpt>
      <trkpt lat="38.218023" lon="-1.460634">
        <ele>319.3</ele>
        <time>2017-02-25T08:37:58Z</time>
      </trkpt>
      <trkpt lat="38.218008" lon="-1.460671">
        <ele>319.3</ele>
        <time>2017-02-25T08:38:01Z</time>
      </trkpt>
      <trkpt lat="38.218001" lon="-1.460696">
        <ele>319.8</ele>
        <time>2017-02-25T08:38:03Z</time>
      </trkpt>
      <trkpt lat="38.217977" lon="-1.460744">
        <ele>320.3</ele>
        <time>2017-02-25T08:38:07Z</time>
      </trkpt>
      <trkpt lat="38.217955" lon="-1.460811">
        <ele>320.7</ele>
        <time>2017-02-25T08:38:12Z</time>
      </trkpt>
      <trkpt lat="38.217840" lon="-1.461049">
        <ele>320.7</ele>
        <time>2017-02-25T08:38:31Z</time>
      </trkpt>
      <trkpt lat="38.217817" lon="-1.461078">
        <ele>320.7</ele>
        <time>2017-02-25T08:38:34Z</time>
      </trkpt>
      <trkpt lat="38.217808" lon="-1.461103">
        <ele>320.7</ele>
        <time>2017-02-25T08:38:36Z</time>
      </trkpt>
      <trkpt lat="38.217725" lon="-1.461225">
        <ele>322.2</ele>
        <time>2017-02-25T08:38:47Z</time>
      </trkpt>
      <trkpt lat="38.217720" lon="-1.461255">
        <ele>323.1</ele>
        <time>2017-02-25T08:38:49Z</time>
      </trkpt>
      <trkpt lat="38.217719" lon="-1.461297">
        <ele>324.6</ele>
        <time>2017-02-25T08:38:53Z</time>
      </trkpt>
      <trkpt lat="38.217710" lon="-1.461522">
        <ele>325.5</ele>
        <time>2017-02-25T08:39:07Z</time>
      </trkpt>
      <trkpt lat="38.217680" lon="-1.461722">
        <ele>326.0</ele>
        <time>2017-02-25T08:39:20Z</time>
      </trkpt>
      <trkpt lat="38.217667" lon="-1.461766">
        <ele>328.0</ele>
        <time>2017-02-25T08:39:23Z</time>
      </trkpt>
      <trkpt lat="38.217658" lon="-1.461786">
        <ele>327.0</ele>
        <time>2017-02-25T08:39:25Z</time>
      </trkpt>
      <trkpt lat="38.217627" lon="-1.461870">
        <ele>328.0</ele>
        <time>2017-02-25T08:39:32Z</time>
      </trkpt>
      <trkpt lat="38.217542" lon="-1.462045">
        <ele>328.9</ele>
        <time>2017-02-25T08:39:47Z</time>
      </trkpt>
      <trkpt lat="38.217519" lon="-1.462095">
        <ele>328.9</ele>
        <time>2017-02-25T08:39:51Z</time>
      </trkpt>
      <trkpt lat="38.217498" lon="-1.462115">
        <ele>329.9</ele>
        <time>2017-02-25T08:39:53Z</time>
      </trkpt>
      <trkpt lat="38.217465" lon="-1.462144">
        <ele>329.9</ele>
        <time>2017-02-25T08:39:56Z</time>
      </trkpt>
      <trkpt lat="38.217395" lon="-1.462264">
        <ele>330.8</ele>
        <time>2017-02-25T08:40:06Z</time>
      </trkpt>
      <trkpt lat="38.217343" lon="-1.462372">
        <ele>331.8</ele>
        <time>2017-02-25T08:40:13Z</time>
      </trkpt>
      <trkpt lat="38.217298" lon="-1.462448">
        <ele>331.8</ele>
        <time>2017-02-25T08:40:18Z</time>
      </trkpt>
      <trkpt lat="38.217180" lon="-1.462553">
        <ele>333.2</ele>
        <time>2017-02-25T08:40:32Z</time>
      </trkpt>
      <trkpt lat="38.217138" lon="-1.462593">
        <ele>333.2</ele>
        <time>2017-02-25T08:40:37Z</time>
      </trkpt>
      <trkpt lat="38.217109" lon="-1.462615">
        <ele>333.2</ele>
        <time>2017-02-25T08:40:40Z</time>
      </trkpt>
      <trkpt lat="38.216971" lon="-1.462746">
        <ele>334.2</ele>
        <time>2017-02-25T08:40:54Z</time>
      </trkpt>
      <trkpt lat="38.216828" lon="-1.462903">
        <ele>335.6</ele>
        <time>2017-02-25T08:41:09Z</time>
      </trkpt>
      <trkpt lat="38.216759" lon="-1.462997">
        <ele>336.1</ele>
        <time>2017-02-25T08:41:18Z</time>
      </trkpt>
      <trkpt lat="38.216736" lon="-1.463028">
        <ele>336.1</ele>
        <time>2017-02-25T08:41:21Z</time>
      </trkpt>
      <trkpt lat="38.216678" lon="-1.463090">
        <ele>336.6</ele>
        <time>2017-02-25T08:41:27Z</time>
      </trkpt>
      <trkpt lat="38.216670" lon="-1.463099">
        <ele>337.1</ele>
        <time>2017-02-25T08:41:32Z</time>
      </trkpt>
      <trkpt lat="38.216561" lon="-1.463149">
        <ele>338.0</ele>
        <time>2017-02-25T08:41:43Z</time>
      </trkpt>
      <trkpt lat="38.216528" lon="-1.463160">
        <ele>338.0</ele>
        <time>2017-02-25T08:41:46Z</time>
      </trkpt>
      <trkpt lat="38.216480" lon="-1.463205">
        <ele>339.0</ele>
        <time>2017-02-25T08:41:51Z</time>
      </trkpt>
      <trkpt lat="38.216462" lon="-1.463216">
        <ele>339.5</ele>
        <time>2017-02-25T08:41:53Z</time>
      </trkpt>
      <trkpt lat="38.216377" lon="-1.463388">
        <ele>340.0</ele>
        <time>2017-02-25T08:42:06Z</time>
      </trkpt>
      <trkpt lat="38.216288" lon="-1.463554">
        <ele>340.9</ele>
        <time>2017-02-25T08:42:19Z</time>
      </trkpt>
      <trkpt lat="38.216224" lon="-1.463701">
        <ele>341.9</ele>
        <time>2017-02-25T08:42:31Z</time>
      </trkpt>
      <trkpt lat="38.216195" lon="-1.463733">
        <ele>342.9</ele>
        <time>2017-02-25T08:42:35Z</time>
      </trkpt>
      <trkpt lat="38.216050" lon="-1.463794">
        <ele>343.8</ele>
        <time>2017-02-25T08:42:49Z</time>
      </trkpt>
      <trkpt lat="38.215901" lon="-1.463886">
        <ele>344.8</ele>
        <time>2017-02-25T08:43:03Z</time>
      </trkpt>
      <trkpt lat="38.215826" lon="-1.463992">
        <ele>344.3</ele>
        <time>2017-02-25T08:43:11Z</time>
      </trkpt>
      <trkpt lat="38.215820" lon="-1.464064">
        <ele>344.3</ele>
        <time>2017-02-25T08:43:15Z</time>
      </trkpt>
      <trkpt lat="38.215840" lon="-1.464320">
        <ele>344.3</ele>
        <time>2017-02-25T08:43:32Z</time>
      </trkpt>
      <trkpt lat="38.215859" lon="-1.464507">
        <ele>343.8</ele>
        <time>2017-02-25T08:43:45Z</time>
      </trkpt>
      <trkpt lat="38.215888" lon="-1.464764">
        <ele>342.9</ele>
        <time>2017-02-25T08:44:01Z</time>
      </trkpt>
      <trkpt lat="38.215889" lon="-1.464941">
        <ele>343.8</ele>
        <time>2017-02-25T08:44:13Z</time>
      </trkpt>
      <trkpt lat="38.215910" lon="-1.465146">
        <ele>344.8</ele>
        <time>2017-02-25T08:44:27Z</time>
      </trkpt>
      <trkpt lat="38.215899" lon="-1.465357">
        <ele>345.2</ele>
        <time>2017-02-25T08:44:41Z</time>
      </trkpt>
      <trkpt lat="38.215837" lon="-1.465541">
        <ele>345.2</ele>
        <time>2017-02-25T08:44:54Z</time>
      </trkpt>
      <trkpt lat="38.215757" lon="-1.465748">
        <ele>345.2</ele>
        <time>2017-02-25T08:45:08Z</time>
      </trkpt>
      <trkpt lat="38.215749" lon="-1.465865">
        <ele>345.7</ele>
        <time>2017-02-25T08:45:16Z</time>
      </trkpt>
      <trkpt lat="38.215750" lon="-1.466008">
        <ele>346.2</ele>
        <time>2017-02-25T08:45:25Z</time>
      </trkpt>
      <trkpt lat="38.215753" lon="-1.466183">
        <ele>347.2</ele>
        <time>2017-02-25T08:45:39Z</time>
      </trkpt>
      <trkpt lat="38.215745" lon="-1.466208">
        <ele>348.1</ele>
        <time>2017-02-25T08:45:41Z</time>
      </trkpt>
      <trkpt lat="38.215729" lon="-1.466255">
        <ele>348.6</ele>
        <time>2017-02-25T08:45:45Z</time>
      </trkpt>
      <trkpt lat="38.215719" lon="-1.466294">
        <ele>348.6</ele>
        <time>2017-02-25T08:45:48Z</time>
      </trkpt>
      <trkpt lat="38.215622" lon="-1.466425">
        <ele>349.1</ele>
        <time>2017-02-25T08:46:01Z</time>
      </trkpt>
      <trkpt lat="38.215562" lon="-1.466482">
        <ele>349.6</ele>
        <time>2017-02-25T08:46:07Z</time>
      </trkpt>
      <trkpt lat="38.215523" lon="-1.466528">
        <ele>348.6</ele>
        <time>2017-02-25T08:46:11Z</time>
      </trkpt>
      <trkpt lat="38.215498" lon="-1.466554">
        <ele>349.1</ele>
        <time>2017-02-25T08:46:14Z</time>
      </trkpt>
      <trkpt lat="38.215441" lon="-1.466632">
        <ele>349.1</ele>
        <time>2017-02-25T08:46:21Z</time>
      </trkpt>
      <trkpt lat="38.215354" lon="-1.466737">
        <ele>349.6</ele>
        <time>2017-02-25T08:46:31Z</time>
      </trkpt>
      <trkpt lat="38.215188" lon="-1.466889">
        <ele>349.6</ele>
        <time>2017-02-25T08:46:48Z</time>
      </trkpt>
      <trkpt lat="38.215093" lon="-1.466961">
        <ele>349.1</ele>
        <time>2017-02-25T08:46:58Z</time>
      </trkpt>
      <trkpt lat="38.215078" lon="-1.466981">
        <ele>349.1</ele>
        <time>2017-02-25T08:47:00Z</time>
      </trkpt>
      <trkpt lat="38.215039" lon="-1.467003">
        <ele>349.6</ele>
        <time>2017-02-25T08:47:04Z</time>
      </trkpt>
      <trkpt lat="38.214980" lon="-1.467012">
        <ele>349.6</ele>
        <time>2017-02-25T08:47:17Z</time>
      </trkpt>
      <trkpt lat="38.214974" lon="-1.467027">
        <ele>350.5</ele>
        <time>2017-02-25T08:47:29Z</time>
      </trkpt>
      <trkpt lat="38.214888" lon="-1.467130">
        <ele>349.6</ele>
        <time>2017-02-25T08:47:39Z</time>
      </trkpt>
      <trkpt lat="38.214803" lon="-1.467329">
        <ele>349.1</ele>
        <time>2017-02-25T08:47:50Z</time>
      </trkpt>
      <trkpt lat="38.214853" lon="-1.467513">
        <ele>351.0</ele>
        <time>2017-02-25T08:48:03Z</time>
      </trkpt>
      <trkpt lat="38.214878" lon="-1.467526">
        <ele>350.5</ele>
        <time>2017-02-25T08:48:05Z</time>
      </trkpt>
      <trkpt lat="38.215069" lon="-1.467606">
        <ele>351.5</ele>
        <time>2017-02-25T08:48:22Z</time>
      </trkpt>
      <trkpt lat="38.215110" lon="-1.467626">
        <ele>351.5</ele>
        <time>2017-02-25T08:48:26Z</time>
      </trkpt>
      <trkpt lat="38.215138" lon="-1.467662">
        <ele>352.0</ele>
        <time>2017-02-25T08:48:37Z</time>
      </trkpt>
      <trkpt lat="38.215183" lon="-1.467723">
        <ele>351.5</ele>
        <time>2017-02-25T08:48:45Z</time>
      </trkpt>
      <trkpt lat="38.215285" lon="-1.467939">
        <ele>350.1</ele>
        <time>2017-02-25T08:49:01Z</time>
      </trkpt>
      <trkpt lat="38.215288" lon="-1.467954">
        <ele>350.5</ele>
        <time>2017-02-25T08:49:12Z</time>
      </trkpt>
      <trkpt lat="38.215371" lon="-1.468076">
        <ele>350.1</ele>
        <time>2017-02-25T08:49:27Z</time>
      </trkpt>
      <trkpt lat="38.215432" lon="-1.468162">
        <ele>346.2</ele>
        <time>2017-02-25T08:49:33Z</time>
      </trkpt>
      <trkpt lat="38.215444" lon="-1.468177">
        <ele>349.6</ele>
        <time>2017-02-25T08:49:34Z</time>
      </trkpt>
      <trkpt lat="38.215467" lon="-1.468208">
        <ele>351.0</ele>
        <time>2017-02-25T08:49:36Z</time>
      </trkpt>
      <trkpt lat="38.215486" lon="-1.468241">
        <ele>349.1</ele>
        <time>2017-02-25T08:49:38Z</time>
      </trkpt>
      <trkpt lat="38.215572" lon="-1.468444">
        <ele>350.5</ele>
        <time>2017-02-25T08:49:52Z</time>
      </trkpt>
      <trkpt lat="38.215565" lon="-1.468436">
        <ele>349.1</ele>
        <time>2017-02-25T08:49:54Z</time>
      </trkpt>
      <trkpt lat="38.215578" lon="-1.468431">
        <ele>349.1</ele>
        <time>2017-02-25T08:50:03Z</time>
      </trkpt>
      <trkpt lat="38.215555" lon="-1.468611">
        <ele>348.1</ele>
        <time>2017-02-25T08:50:13Z</time>
      </trkpt>
      <trkpt lat="38.215539" lon="-1.468684">
        <ele>345.2</ele>
        <time>2017-02-25T08:50:17Z</time>
      </trkpt>
      <trkpt lat="38.215526" lon="-1.468721">
        <ele>352.9</ele>
        <time>2017-02-25T08:50:19Z</time>
      </trkpt>
      <trkpt lat="38.215521" lon="-1.468739">
        <ele>348.1</ele>
        <time>2017-02-25T08:50:20Z</time>
      </trkpt>
      <trkpt lat="38.215515" lon="-1.468777">
        <ele>347.6</ele>
        <time>2017-02-25T08:50:22Z</time>
      </trkpt>
      <trkpt lat="38.215492" lon="-1.469062">
        <ele>346.7</ele>
        <time>2017-02-25T08:50:38Z</time>
      </trkpt>
      <trkpt lat="38.215476" lon="-1.469358">
        <ele>346.2</ele>
        <time>2017-02-25T08:50:56Z</time>
      </trkpt>
      <trkpt lat="38.215440" lon="-1.469608">
        <ele>345.2</ele>
        <time>2017-02-25T08:51:10Z</time>
      </trkpt>
      <trkpt lat="38.215343" lon="-1.469901">
        <ele>345.2</ele>
        <time>2017-02-25T08:51:27Z</time>
      </trkpt>
      <trkpt lat="38.215261" lon="-1.470132">
        <ele>344.3</ele>
        <time>2017-02-25T08:51:41Z</time>
      </trkpt>
      <trkpt lat="38.215168" lon="-1.470399">
        <ele>344.8</ele>
        <time>2017-02-25T08:51:58Z</time>
      </trkpt>
      <trkpt lat="38.215094" lon="-1.470505">
        <ele>345.2</ele>
        <time>2017-02-25T08:52:07Z</time>
      </trkpt>
      <trkpt lat="38.215057" lon="-1.470565">
        <ele>345.2</ele>
        <time>2017-02-25T08:52:12Z</time>
      </trkpt>
      <trkpt lat="38.215039" lon="-1.470597">
        <ele>345.2</ele>
        <time>2017-02-25T08:52:14Z</time>
      </trkpt>
      <trkpt lat="38.214994" lon="-1.470817">
        <ele>343.8</ele>
        <time>2017-02-25T08:52:28Z</time>
      </trkpt>
      <trkpt lat="38.214950" lon="-1.471014">
        <ele>343.3</ele>
        <time>2017-02-25T08:52:40Z</time>
      </trkpt>
      <trkpt lat="38.214908" lon="-1.471140">
        <ele>343.3</ele>
        <time>2017-02-25T08:52:48Z</time>
      </trkpt>
      <trkpt lat="38.214846" lon="-1.471339">
        <ele>343.8</ele>
        <time>2017-02-25T08:53:01Z</time>
      </trkpt>
      <trkpt lat="38.214830" lon="-1.471401">
        <ele>343.8</ele>
        <time>2017-02-25T08:53:05Z</time>
      </trkpt>
      <trkpt lat="38.214698" lon="-1.471654">
        <ele>344.8</ele>
        <time>2017-02-25T08:53:22Z</time>
      </trkpt>
      <trkpt lat="38.214557" lon="-1.471903">
        <ele>345.2</ele>
        <time>2017-02-25T08:53:41Z</time>
      </trkpt>
      <trkpt lat="38.214400" lon="-1.472094">
        <ele>343.3</ele>
        <time>2017-02-25T08:53:57Z</time>
      </trkpt>
      <trkpt lat="38.214296" lon="-1.472306">
        <ele>343.8</ele>
        <time>2017-02-25T08:54:12Z</time>
      </trkpt>
      <trkpt lat="38.214290" lon="-1.472322">
        <ele>344.3</ele>
        <time>2017-02-25T08:54:13Z</time>
      </trkpt>
      <trkpt lat="38.214281" lon="-1.472391">
        <ele>344.3</ele>
        <time>2017-02-25T08:54:18Z</time>
      </trkpt>
      <trkpt lat="38.214250" lon="-1.472526">
        <ele>345.7</ele>
        <time>2017-02-25T08:54:27Z</time>
      </trkpt>
      <trkpt lat="38.214248" lon="-1.472524">
        <ele>346.2</ele>
        <time>2017-02-25T08:54:38Z</time>
      </trkpt>
      <trkpt lat="38.214250" lon="-1.472567">
        <ele>346.2</ele>
        <time>2017-02-25T08:54:51Z</time>
      </trkpt>
      <trkpt lat="38.214227" lon="-1.472633">
        <ele>346.2</ele>
        <time>2017-02-25T08:55:05Z</time>
      </trkpt>
      <trkpt lat="38.214222" lon="-1.472809">
        <ele>348.1</ele>
        <time>2017-02-25T08:55:16Z</time>
      </trkpt>
      <trkpt lat="38.214227" lon="-1.472841">
        <ele>347.6</ele>
        <time>2017-02-25T08:55:18Z</time>
      </trkpt>
      <trkpt lat="38.214236" lon="-1.472926">
        <ele>348.1</ele>
        <time>2017-02-25T08:55:23Z</time>
      </trkpt>
      <trkpt lat="38.214243" lon="-1.473120">
        <ele>348.1</ele>
        <time>2017-02-25T08:55:36Z</time>
      </trkpt>
      <trkpt lat="38.214245" lon="-1.473221">
        <ele>347.6</ele>
        <time>2017-02-25T08:55:42Z</time>
      </trkpt>
      <trkpt lat="38.214265" lon="-1.473476">
        <ele>348.1</ele>
        <time>2017-02-25T08:55:58Z</time>
      </trkpt>
      <trkpt lat="38.214269" lon="-1.473492">
        <ele>348.1</ele>
        <time>2017-02-25T08:55:59Z</time>
      </trkpt>
      <trkpt lat="38.214275" lon="-1.473562">
        <ele>348.1</ele>
        <time>2017-02-25T08:56:03Z</time>
      </trkpt>
      <trkpt lat="38.214264" lon="-1.473674">
        <ele>348.1</ele>
        <time>2017-02-25T08:56:09Z</time>
      </trkpt>
      <trkpt lat="38.214270" lon="-1.473774">
        <ele>348.1</ele>
        <time>2017-02-25T08:56:15Z</time>
      </trkpt>
      <trkpt lat="38.214264" lon="-1.473903">
        <ele>348.6</ele>
        <time>2017-02-25T08:56:22Z</time>
      </trkpt>
      <trkpt lat="38.214256" lon="-1.474144">
        <ele>348.6</ele>
        <time>2017-02-25T08:56:37Z</time>
      </trkpt>
      <trkpt lat="38.214258" lon="-1.474438">
        <ele>348.6</ele>
        <time>2017-02-25T08:56:55Z</time>
      </trkpt>
      <trkpt lat="38.214264" lon="-1.474454">
        <ele>348.6</ele>
        <time>2017-02-25T08:57:01Z</time>
      </trkpt>
      <trkpt lat="38.214257" lon="-1.474516">
        <ele>349.6</ele>
        <time>2017-02-25T08:57:16Z</time>
      </trkpt>
      <trkpt lat="38.214262" lon="-1.474541">
        <ele>349.1</ele>
        <time>2017-02-25T08:57:30Z</time>
      </trkpt>
      <trkpt lat="38.214262" lon="-1.474534">
        <ele>349.1</ele>
        <time>2017-02-25T08:57:35Z</time>
      </trkpt>
      <trkpt lat="38.214267" lon="-1.474585">
        <ele>348.6</ele>
        <time>2017-02-25T08:57:45Z</time>
      </trkpt>
      <trkpt lat="38.214263" lon="-1.474860">
        <ele>348.6</ele>
        <time>2017-02-25T08:58:01Z</time>
      </trkpt>
      <trkpt lat="38.214276" lon="-1.475135">
        <ele>348.6</ele>
        <time>2017-02-25T08:58:18Z</time>
      </trkpt>
      <trkpt lat="38.214270" lon="-1.475374">
        <ele>348.6</ele>
        <time>2017-02-25T08:58:32Z</time>
      </trkpt>
      <trkpt lat="38.214268" lon="-1.475639">
        <ele>349.1</ele>
        <time>2017-02-25T08:58:48Z</time>
      </trkpt>
      <trkpt lat="38.214287" lon="-1.475854">
        <ele>349.1</ele>
        <time>2017-02-25T08:59:02Z</time>
      </trkpt>
      <trkpt lat="38.214287" lon="-1.475869">
        <ele>349.1</ele>
        <time>2017-02-25T08:59:03Z</time>
      </trkpt>
      <trkpt lat="38.214283" lon="-1.475900">
        <ele>349.1</ele>
        <time>2017-02-25T08:59:05Z</time>
      </trkpt>
      <trkpt lat="38.214294" lon="-1.476164">
        <ele>349.6</ele>
        <time>2017-02-25T08:59:22Z</time>
      </trkpt>
      <trkpt lat="38.214309" lon="-1.476416">
        <ele>349.1</ele>
        <time>2017-02-25T08:59:37Z</time>
      </trkpt>
      <trkpt lat="38.214302" lon="-1.476643">
        <ele>350.5</ele>
        <time>2017-02-25T08:59:51Z</time>
      </trkpt>
      <trkpt lat="38.214313" lon="-1.476867">
        <ele>349.1</ele>
        <time>2017-02-25T09:00:05Z</time>
      </trkpt>
      <trkpt lat="38.214315" lon="-1.476934">
        <ele>348.6</ele>
        <time>2017-02-25T09:00:09Z</time>
      </trkpt>
      <trkpt lat="38.214316" lon="-1.476974">
        <ele>349.1</ele>
        <time>2017-02-25T09:00:12Z</time>
      </trkpt>
      <trkpt lat="38.214322" lon="-1.477134">
        <ele>349.6</ele>
        <time>2017-02-25T09:00:22Z</time>
      </trkpt>
      <trkpt lat="38.214315" lon="-1.477222">
        <ele>349.6</ele>
        <time>2017-02-25T09:00:27Z</time>
      </trkpt>
      <trkpt lat="38.214318" lon="-1.477348">
        <ele>349.6</ele>
        <time>2017-02-25T09:00:35Z</time>
      </trkpt>
      <trkpt lat="38.214307" lon="-1.477411">
        <ele>350.1</ele>
        <time>2017-02-25T09:00:39Z</time>
      </trkpt>
      <trkpt lat="38.214314" lon="-1.477545">
        <ele>349.6</ele>
        <time>2017-02-25T09:00:47Z</time>
      </trkpt>
      <trkpt lat="38.214311" lon="-1.477589">
        <ele>350.1</ele>
        <time>2017-02-25T09:00:50Z</time>
      </trkpt>
      <trkpt lat="38.214314" lon="-1.477864">
        <ele>350.1</ele>
        <time>2017-02-25T09:01:05Z</time>
      </trkpt>
      <trkpt lat="38.214305" lon="-1.478115">
        <ele>349.6</ele>
        <time>2017-02-25T09:01:19Z</time>
      </trkpt>
      <trkpt lat="38.214279" lon="-1.478332">
        <ele>350.1</ele>
        <time>2017-02-25T09:01:32Z</time>
      </trkpt>
      <trkpt lat="38.214280" lon="-1.478412">
        <ele>349.6</ele>
        <time>2017-02-25T09:01:37Z</time>
      </trkpt>
      <trkpt lat="38.214252" lon="-1.478573">
        <ele>349.6</ele>
        <time>2017-02-25T09:01:46Z</time>
      </trkpt>
      <trkpt lat="38.214235" lon="-1.478837">
        <ele>349.6</ele>
        <time>2017-02-25T09:02:00Z</time>
      </trkpt>
      <trkpt lat="38.214210" lon="-1.479067">
        <ele>349.1</ele>
        <time>2017-02-25T09:02:13Z</time>
      </trkpt>
      <trkpt lat="38.214190" lon="-1.479289">
        <ele>348.6</ele>
        <time>2017-02-25T09:02:26Z</time>
      </trkpt>
      <trkpt lat="38.214184" lon="-1.479310">
        <ele>349.1</ele>
        <time>2017-02-25T09:02:27Z</time>
      </trkpt>
      <trkpt lat="38.214188" lon="-1.479378">
        <ele>349.1</ele>
        <time>2017-02-25T09:02:31Z</time>
      </trkpt>
      <trkpt lat="38.214170" lon="-1.479474">
        <ele>349.6</ele>
        <time>2017-02-25T09:02:37Z</time>
      </trkpt>
      <trkpt lat="38.214141" lon="-1.479733">
        <ele>349.1</ele>
        <time>2017-02-25T09:02:51Z</time>
      </trkpt>
      <trkpt lat="38.214220" lon="-1.479943">
        <ele>348.1</ele>
        <time>2017-02-25T09:03:06Z</time>
      </trkpt>
      <trkpt lat="38.214235" lon="-1.479951">
        <ele>348.6</ele>
        <time>2017-02-25T09:03:07Z</time>
      </trkpt>
      <trkpt lat="38.214247" lon="-1.479961">
        <ele>348.1</ele>
        <time>2017-02-25T09:03:08Z</time>
      </trkpt>
      <trkpt lat="38.214258" lon="-1.479970">
        <ele>347.6</ele>
        <time>2017-02-25T09:03:09Z</time>
      </trkpt>
      <trkpt lat="38.214267" lon="-1.479979">
        <ele>347.6</ele>
        <time>2017-02-25T09:03:10Z</time>
      </trkpt>
      <trkpt lat="38.214278" lon="-1.479990">
        <ele>348.1</ele>
        <time>2017-02-25T09:03:11Z</time>
      </trkpt>
      <trkpt lat="38.214289" lon="-1.480001">
        <ele>347.6</ele>
        <time>2017-02-25T09:03:12Z</time>
      </trkpt>
      <trkpt lat="38.214301" lon="-1.480013">
        <ele>347.2</ele>
        <time>2017-02-25T09:03:13Z</time>
      </trkpt>
      <trkpt lat="38.214457" lon="-1.480178">
        <ele>346.7</ele>
        <time>2017-02-25T09:03:28Z</time>
      </trkpt>
      <trkpt lat="38.214607" lon="-1.480366">
        <ele>346.7</ele>
        <time>2017-02-25T09:03:43Z</time>
      </trkpt>
      <trkpt lat="38.214796" lon="-1.480547">
        <ele>346.2</ele>
        <time>2017-02-25T09:04:00Z</time>
      </trkpt>
      <trkpt lat="38.214915" lon="-1.480670">
        <ele>346.7</ele>
        <time>2017-02-25T09:04:42Z</time>
      </trkpt>
      <trkpt lat="38.214921" lon="-1.480744">
        <ele>347.2</ele>
        <time>2017-02-25T09:05:09Z</time>
      </trkpt>
      <trkpt lat="38.214916" lon="-1.480755">
        <ele>347.2</ele>
        <time>2017-02-25T09:05:10Z</time>
      </trkpt>
      <trkpt lat="38.214886" lon="-1.480841">
        <ele>347.2</ele>
        <time>2017-02-25T09:05:18Z</time>
      </trkpt>
      <trkpt lat="38.214880" lon="-1.480855">
        <ele>347.2</ele>
        <time>2017-02-25T09:05:19Z</time>
      </trkpt>
      <trkpt lat="38.214873" lon="-1.480871">
        <ele>347.2</ele>
        <time>2017-02-25T09:05:20Z</time>
      </trkpt>
      <trkpt lat="38.214792" lon="-1.481080">
        <ele>348.1</ele>
        <time>2017-02-25T09:05:34Z</time>
      </trkpt>
      <trkpt lat="38.214717" lon="-1.481302">
        <ele>349.1</ele>
        <time>2017-02-25T09:05:49Z</time>
      </trkpt>
      <trkpt lat="38.214703" lon="-1.481358">
        <ele>349.1</ele>
        <time>2017-02-25T09:05:54Z</time>
      </trkpt>
      <trkpt lat="38.214698" lon="-1.481372">
        <ele>349.1</ele>
        <time>2017-02-25T09:05:55Z</time>
      </trkpt>
      <trkpt lat="38.214639" lon="-1.481501">
        <ele>349.6</ele>
        <time>2017-02-25T09:06:04Z</time>
      </trkpt>
      <trkpt lat="38.214539" lon="-1.481665">
        <ele>350.1</ele>
        <time>2017-02-25T09:06:18Z</time>
      </trkpt>
      <trkpt lat="38.214378" lon="-1.481817">
        <ele>350.1</ele>
        <time>2017-02-25T09:06:34Z</time>
      </trkpt>
      <trkpt lat="38.214208" lon="-1.481943">
        <ele>351.0</ele>
        <time>2017-02-25T09:06:50Z</time>
      </trkpt>
      <trkpt lat="38.214006" lon="-1.482060">
        <ele>352.0</ele>
        <time>2017-02-25T09:07:08Z</time>
      </trkpt>
      <trkpt lat="38.213792" lon="-1.482161">
        <ele>352.5</ele>
        <time>2017-02-25T09:07:26Z</time>
      </trkpt>
      <trkpt lat="38.213587" lon="-1.482268">
        <ele>352.9</ele>
        <time>2017-02-25T09:07:43Z</time>
      </trkpt>
      <trkpt lat="38.213404" lon="-1.482365">
        <ele>354.4</ele>
        <time>2017-02-25T09:07:59Z</time>
      </trkpt>
      <trkpt lat="38.213392" lon="-1.482377">
        <ele>354.4</ele>
        <time>2017-02-25T09:08:00Z</time>
      </trkpt>
      <trkpt lat="38.213381" lon="-1.482388">
        <ele>354.4</ele>
        <time>2017-02-25T09:08:01Z</time>
      </trkpt>
      <trkpt lat="38.213194" lon="-1.482512">
        <ele>354.9</ele>
        <time>2017-02-25T09:08:17Z</time>
      </trkpt>
      <trkpt lat="38.213159" lon="-1.482583">
        <ele>355.3</ele>
        <time>2017-02-25T09:08:22Z</time>
      </trkpt>
      <trkpt lat="38.213157" lon="-1.482598">
        <ele>355.3</ele>
        <time>2017-02-25T09:08:23Z</time>
      </trkpt>
      <trkpt lat="38.213119" lon="-1.482732">
        <ele>354.9</ele>
        <time>2017-02-25T09:08:36Z</time>
      </trkpt>
      <trkpt lat="38.213095" lon="-1.482835">
        <ele>354.9</ele>
        <time>2017-02-25T09:08:51Z</time>
      </trkpt>
      <trkpt lat="38.213069" lon="-1.482918">
        <ele>354.9</ele>
        <time>2017-02-25T09:09:02Z</time>
      </trkpt>
      <trkpt lat="38.213066" lon="-1.482947">
        <ele>356.3</ele>
        <time>2017-02-25T09:15:57Z</time>
      </trkpt>
      <trkpt lat="38.213063" lon="-1.482963">
        <ele>356.3</ele>
        <time>2017-02-25T09:15:58Z</time>
      </trkpt>
      <trkpt lat="38.213059" lon="-1.482979">
        <ele>356.3</ele>
        <time>2017-02-25T09:15:59Z</time>
      </trkpt>
      <trkpt lat="38.213055" lon="-1.482994">
        <ele>356.8</ele>
        <time>2017-02-25T09:16:00Z</time>
      </trkpt>
      <trkpt lat="38.213046" lon="-1.483008">
        <ele>356.3</ele>
        <time>2017-02-25T09:16:01Z</time>
      </trkpt>
      <trkpt lat="38.212974" lon="-1.483179">
        <ele>356.3</ele>
        <time>2017-02-25T09:16:16Z</time>
      </trkpt>
      <trkpt lat="38.212949" lon="-1.483226">
        <ele>357.3</ele>
        <time>2017-02-25T09:16:21Z</time>
      </trkpt>
      <trkpt lat="38.212942" lon="-1.483237">
        <ele>356.3</ele>
        <time>2017-02-25T09:16:22Z</time>
      </trkpt>
      <trkpt lat="38.212928" lon="-1.483338">
        <ele>356.8</ele>
        <time>2017-02-25T09:16:29Z</time>
      </trkpt>
      <trkpt lat="38.212925" lon="-1.483353">
        <ele>356.8</ele>
        <time>2017-02-25T09:16:30Z</time>
      </trkpt>
      <trkpt lat="38.212877" lon="-1.483575">
        <ele>357.8</ele>
        <time>2017-02-25T09:16:45Z</time>
      </trkpt>
      <trkpt lat="38.212833" lon="-1.483699">
        <ele>351.5</ele>
        <time>2017-02-25T09:16:53Z</time>
      </trkpt>
      <trkpt lat="38.212826" lon="-1.483713">
        <ele>362.1</ele>
        <time>2017-02-25T09:16:54Z</time>
      </trkpt>
      <trkpt lat="38.212821" lon="-1.483725">
        <ele>359.2</ele>
        <time>2017-02-25T09:16:55Z</time>
      </trkpt>
      <trkpt lat="38.212812" lon="-1.483749">
        <ele>357.8</ele>
        <time>2017-02-25T09:16:57Z</time>
      </trkpt>
      <trkpt lat="38.212740" lon="-1.484009">
        <ele>358.2</ele>
        <time>2017-02-25T09:17:15Z</time>
      </trkpt>
      <trkpt lat="38.212669" lon="-1.484265">
        <ele>358.7</ele>
        <time>2017-02-25T09:17:31Z</time>
      </trkpt>
      <trkpt lat="38.212610" lon="-1.484484">
        <ele>359.2</ele>
        <time>2017-02-25T09:17:45Z</time>
      </trkpt>
      <trkpt lat="38.212546" lon="-1.484714">
        <ele>360.1</ele>
        <time>2017-02-25T09:17:59Z</time>
      </trkpt>
      <trkpt lat="38.212515" lon="-1.484838">
        <ele>359.7</ele>
        <time>2017-02-25T09:18:06Z</time>
      </trkpt>
      <trkpt lat="38.212510" lon="-1.484848">
        <ele>360.1</ele>
        <time>2017-02-25T09:18:07Z</time>
      </trkpt>
      <trkpt lat="38.212502" lon="-1.484879">
        <ele>360.1</ele>
        <time>2017-02-25T09:18:09Z</time>
      </trkpt>
      <trkpt lat="38.212500" lon="-1.484894">
        <ele>360.1</ele>
        <time>2017-02-25T09:18:10Z</time>
      </trkpt>
      <trkpt lat="38.212446" lon="-1.485144">
        <ele>360.1</ele>
        <time>2017-02-25T09:18:25Z</time>
      </trkpt>
      <trkpt lat="38.212378" lon="-1.485391">
        <ele>360.6</ele>
        <time>2017-02-25T09:18:41Z</time>
      </trkpt>
      <trkpt lat="38.212314" lon="-1.485641">
        <ele>361.1</ele>
        <time>2017-02-25T09:18:56Z</time>
      </trkpt>
      <trkpt lat="38.212220" lon="-1.485875">
        <ele>361.1</ele>
        <time>2017-02-25T09:19:12Z</time>
      </trkpt>
      <trkpt lat="38.212191" lon="-1.485925">
        <ele>361.6</ele>
        <time>2017-02-25T09:19:16Z</time>
      </trkpt>
      <trkpt lat="38.212182" lon="-1.485937">
        <ele>361.6</ele>
        <time>2017-02-25T09:19:17Z</time>
      </trkpt>
      <trkpt lat="38.212174" lon="-1.485953">
        <ele>361.6</ele>
        <time>2017-02-25T09:19:18Z</time>
      </trkpt>
      <trkpt lat="38.212165" lon="-1.485970">
        <ele>361.6</ele>
        <time>2017-02-25T09:19:19Z</time>
      </trkpt>
      <trkpt lat="38.212158" lon="-1.485985">
        <ele>361.1</ele>
        <time>2017-02-25T09:19:20Z</time>
      </trkpt>
      <trkpt lat="38.212150" lon="-1.485999">
        <ele>361.1</ele>
        <time>2017-02-25T09:19:21Z</time>
      </trkpt>
      <trkpt lat="38.212142" lon="-1.486013">
        <ele>361.1</ele>
        <time>2017-02-25T09:19:22Z</time>
      </trkpt>
      <trkpt lat="38.212136" lon="-1.486025">
        <ele>361.1</ele>
        <time>2017-02-25T09:19:23Z</time>
      </trkpt>
      <trkpt lat="38.212131" lon="-1.486038">
        <ele>361.1</ele>
        <time>2017-02-25T09:19:24Z</time>
      </trkpt>
      <trkpt lat="38.212126" lon="-1.486054">
        <ele>360.6</ele>
        <time>2017-02-25T09:19:25Z</time>
      </trkpt>
      <trkpt lat="38.212120" lon="-1.486072">
        <ele>361.1</ele>
        <time>2017-02-25T09:19:26Z</time>
      </trkpt>
      <trkpt lat="38.212114" lon="-1.486089">
        <ele>361.1</ele>
        <time>2017-02-25T09:19:27Z</time>
      </trkpt>
      <trkpt lat="38.212012" lon="-1.486308">
        <ele>361.1</ele>
        <time>2017-02-25T09:19:41Z</time>
      </trkpt>
      <trkpt lat="38.212005" lon="-1.486324">
        <ele>360.6</ele>
        <time>2017-02-25T09:19:42Z</time>
      </trkpt>
      <trkpt lat="38.211997" lon="-1.486337">
        <ele>361.1</ele>
        <time>2017-02-25T09:19:43Z</time>
      </trkpt>
      <trkpt lat="38.211989" lon="-1.486351">
        <ele>361.1</ele>
        <time>2017-02-25T09:19:44Z</time>
      </trkpt>
      <trkpt lat="38.211982" lon="-1.486366">
        <ele>361.1</ele>
        <time>2017-02-25T09:19:45Z</time>
      </trkpt>
      <trkpt lat="38.211976" lon="-1.486379">
        <ele>361.1</ele>
        <time>2017-02-25T09:19:46Z</time>
      </trkpt>
      <trkpt lat="38.211834" lon="-1.486608">
        <ele>361.6</ele>
        <time>2017-02-25T09:20:03Z</time>
      </trkpt>
      <trkpt lat="38.211711" lon="-1.486852">
        <ele>361.1</ele>
        <time>2017-02-25T09:20:19Z</time>
      </trkpt>
      <trkpt lat="38.211579" lon="-1.487160">
        <ele>360.6</ele>
        <time>2017-02-25T09:20:39Z</time>
      </trkpt>
      <trkpt lat="38.211478" lon="-1.487468">
        <ele>361.1</ele>
        <time>2017-02-25T09:20:58Z</time>
      </trkpt>
      <trkpt lat="38.211357" lon="-1.487752">
        <ele>360.6</ele>
        <time>2017-02-25T09:21:16Z</time>
      </trkpt>
      <trkpt lat="38.211324" lon="-1.487834">
        <ele>361.1</ele>
        <time>2017-02-25T09:21:21Z</time>
      </trkpt>
      <trkpt lat="38.211314" lon="-1.487849">
        <ele>361.1</ele>
        <time>2017-02-25T09:21:22Z</time>
      </trkpt>
      <trkpt lat="38.211306" lon="-1.487864">
        <ele>361.1</ele>
        <time>2017-02-25T09:21:23Z</time>
      </trkpt>
      <trkpt lat="38.211181" lon="-1.488112">
        <ele>361.6</ele>
        <time>2017-02-25T09:21:40Z</time>
      </trkpt>
      <trkpt lat="38.211077" lon="-1.488323">
        <ele>361.1</ele>
        <time>2017-02-25T09:21:55Z</time>
      </trkpt>
      <trkpt lat="38.210960" lon="-1.488590">
        <ele>361.1</ele>
        <time>2017-02-25T09:22:14Z</time>
      </trkpt>
      <trkpt lat="38.210866" lon="-1.488786">
        <ele>360.6</ele>
        <time>2017-02-25T09:22:28Z</time>
      </trkpt>
      <trkpt lat="38.210724" lon="-1.489182">
        <ele>360.1</ele>
        <time>2017-02-25T09:22:52Z</time>
      </trkpt>
      <trkpt lat="38.210626" lon="-1.489437">
        <ele>359.2</ele>
        <time>2017-02-25T09:23:08Z</time>
      </trkpt>
      <trkpt lat="38.210503" lon="-1.489716">
        <ele>360.1</ele>
        <time>2017-02-25T09:23:27Z</time>
      </trkpt>
      <trkpt lat="38.210495" lon="-1.489743">
        <ele>360.1</ele>
        <time>2017-02-25T09:23:29Z</time>
      </trkpt>
      <trkpt lat="38.210400" lon="-1.489960">
        <ele>359.7</ele>
        <time>2017-02-25T09:23:43Z</time>
      </trkpt>
      <trkpt lat="38.210392" lon="-1.489974">
        <ele>359.7</ele>
        <time>2017-02-25T09:23:44Z</time>
      </trkpt>
      <trkpt lat="38.210328" lon="-1.490202">
        <ele>358.7</ele>
        <time>2017-02-25T09:23:57Z</time>
      </trkpt>
      <trkpt lat="38.210290" lon="-1.490464">
        <ele>358.2</ele>
        <time>2017-02-25T09:24:12Z</time>
      </trkpt>
      <trkpt lat="38.210280" lon="-1.490760">
        <ele>358.2</ele>
        <time>2017-02-25T09:24:29Z</time>
      </trkpt>
      <trkpt lat="38.210274" lon="-1.490803">
        <ele>357.8</ele>
        <time>2017-02-25T09:24:33Z</time>
      </trkpt>
      <trkpt lat="38.210276" lon="-1.490820">
        <ele>358.2</ele>
        <time>2017-02-25T09:24:34Z</time>
      </trkpt>
      <trkpt lat="38.210273" lon="-1.490838">
        <ele>358.2</ele>
        <time>2017-02-25T09:24:35Z</time>
      </trkpt>
      <trkpt lat="38.210272" lon="-1.490855">
        <ele>357.8</ele>
        <time>2017-02-25T09:24:36Z</time>
      </trkpt>
      <trkpt lat="38.210271" lon="-1.490870">
        <ele>357.8</ele>
        <time>2017-02-25T09:24:37Z</time>
      </trkpt>
      <trkpt lat="38.210265" lon="-1.490892">
        <ele>357.8</ele>
        <time>2017-02-25T09:24:39Z</time>
      </trkpt>
      <trkpt lat="38.210259" lon="-1.490906">
        <ele>358.2</ele>
        <time>2017-02-25T09:24:40Z</time>
      </trkpt>
      <trkpt lat="38.210187" lon="-1.491144">
        <ele>356.8</ele>
        <time>2017-02-25T09:24:56Z</time>
      </trkpt>
      <trkpt lat="38.210078" lon="-1.491401">
        <ele>357.3</ele>
        <time>2017-02-25T09:25:15Z</time>
      </trkpt>
      <trkpt lat="38.210037" lon="-1.491458">
        <ele>357.3</ele>
        <time>2017-02-25T09:25:20Z</time>
      </trkpt>
      <trkpt lat="38.209874" lon="-1.491634">
        <ele>357.3</ele>
        <time>2017-02-25T09:25:36Z</time>
      </trkpt>
      <trkpt lat="38.209697" lon="-1.491867">
        <ele>356.8</ele>
        <time>2017-02-25T09:25:54Z</time>
      </trkpt>
      <trkpt lat="38.209707" lon="-1.492093">
        <ele>356.8</ele>
        <time>2017-02-25T09:26:09Z</time>
      </trkpt>
      <trkpt lat="38.209725" lon="-1.492129">
        <ele>356.3</ele>
        <time>2017-02-25T09:26:12Z</time>
      </trkpt>
      <trkpt lat="38.209729" lon="-1.492143">
        <ele>357.8</ele>
        <time>2017-02-25T09:26:13Z</time>
      </trkpt>
      <trkpt lat="38.209735" lon="-1.492152">
        <ele>356.8</ele>
        <time>2017-02-25T09:26:14Z</time>
      </trkpt>
      <trkpt lat="38.209741" lon="-1.492164">
        <ele>357.3</ele>
        <time>2017-02-25T09:26:15Z</time>
      </trkpt>
      <trkpt lat="38.209830" lon="-1.492382">
        <ele>355.8</ele>
        <time>2017-02-25T09:26:30Z</time>
      </trkpt>
      <trkpt lat="38.209838" lon="-1.492396">
        <ele>356.3</ele>
        <time>2017-02-25T09:26:31Z</time>
      </trkpt>
      <trkpt lat="38.209849" lon="-1.492408">
        <ele>355.8</ele>
        <time>2017-02-25T09:26:32Z</time>
      </trkpt>
      <trkpt lat="38.209857" lon="-1.492420">
        <ele>355.8</ele>
        <time>2017-02-25T09:26:33Z</time>
      </trkpt>
      <trkpt lat="38.209866" lon="-1.492431">
        <ele>355.8</ele>
        <time>2017-02-25T09:26:34Z</time>
      </trkpt>
      <trkpt lat="38.209875" lon="-1.492445">
        <ele>356.3</ele>
        <time>2017-02-25T09:26:35Z</time>
      </trkpt>
      <trkpt lat="38.209881" lon="-1.492458">
        <ele>355.8</ele>
        <time>2017-02-25T09:26:36Z</time>
      </trkpt>
      <trkpt lat="38.209887" lon="-1.492471">
        <ele>355.8</ele>
        <time>2017-02-25T09:26:37Z</time>
      </trkpt>
      <trkpt lat="38.210000" lon="-1.492713">
        <ele>354.9</ele>
        <time>2017-02-25T09:26:53Z</time>
      </trkpt>
      <trkpt lat="38.210129" lon="-1.492946">
        <ele>353.9</ele>
        <time>2017-02-25T09:27:09Z</time>
      </trkpt>
      <trkpt lat="38.210284" lon="-1.493157">
        <ele>352.0</ele>
        <time>2017-02-25T09:27:24Z</time>
      </trkpt>
      <trkpt lat="38.210327" lon="-1.493211">
        <ele>350.5</ele>
        <time>2017-02-25T09:27:27Z</time>
      </trkpt>
      <trkpt lat="38.210351" lon="-1.493267">
        <ele>350.1</ele>
        <time>2017-02-25T09:27:30Z</time>
      </trkpt>
      <trkpt lat="38.210364" lon="-1.493280">
        <ele>349.6</ele>
        <time>2017-02-25T09:27:31Z</time>
      </trkpt>
      <trkpt lat="38.210376" lon="-1.493294">
        <ele>349.1</ele>
        <time>2017-02-25T09:27:32Z</time>
      </trkpt>
      <trkpt lat="38.210388" lon="-1.493310">
        <ele>348.6</ele>
        <time>2017-02-25T09:27:33Z</time>
      </trkpt>
      <trkpt lat="38.210401" lon="-1.493321">
        <ele>348.6</ele>
        <time>2017-02-25T09:27:34Z</time>
      </trkpt>
      <trkpt lat="38.210411" lon="-1.493337">
        <ele>348.6</ele>
        <time>2017-02-25T09:27:47Z</time>
      </trkpt>
      <trkpt lat="38.210413" lon="-1.493346">
        <ele>348.1</ele>
        <time>2017-02-25T09:27:49Z</time>
      </trkpt>
      <trkpt lat="38.210420" lon="-1.493377">
        <ele>348.6</ele>
        <time>2017-02-25T09:27:51Z</time>
      </trkpt>
      <trkpt lat="38.210557" lon="-1.493596">
        <ele>346.7</ele>
        <time>2017-02-25T09:29:19Z</time>
      </trkpt>
      <trkpt lat="38.210561" lon="-1.493612">
        <ele>346.7</ele>
        <time>2017-02-25T09:29:20Z</time>
      </trkpt>
      <trkpt lat="38.210568" lon="-1.493639">
        <ele>347.2</ele>
        <time>2017-02-25T09:29:31Z</time>
      </trkpt>
      <trkpt lat="38.210568" lon="-1.493646">
        <ele>346.7</ele>
        <time>2017-02-25T09:29:53Z</time>
      </trkpt>
      <trkpt lat="38.210566" lon="-1.493638">
        <ele>346.7</ele>
        <time>2017-02-25T09:30:12Z</time>
      </trkpt>
      <trkpt lat="38.210571" lon="-1.493642">
        <ele>346.7</ele>
        <time>2017-02-25T09:30:36Z</time>
      </trkpt>
      <trkpt lat="38.210577" lon="-1.493664">
        <ele>346.7</ele>
        <time>2017-02-25T09:30:46Z</time>
      </trkpt>
      <trkpt lat="38.210585" lon="-1.493673">
        <ele>346.2</ele>
        <time>2017-02-25T09:30:47Z</time>
      </trkpt>
      <trkpt lat="38.210597" lon="-1.493691">
        <ele>346.2</ele>
        <time>2017-02-25T09:30:48Z</time>
      </trkpt>
      <trkpt lat="38.210657" lon="-1.493755">
        <ele>346.7</ele>
        <time>2017-02-25T09:30:57Z</time>
      </trkpt>
      <trkpt lat="38.210663" lon="-1.493771">
        <ele>346.7</ele>
        <time>2017-02-25T09:30:58Z</time>
      </trkpt>
      <trkpt lat="38.210768" lon="-1.494004">
        <ele>346.7</ele>
        <time>2017-02-25T09:31:12Z</time>
      </trkpt>
      <trkpt lat="38.210818" lon="-1.494252">
        <ele>346.7</ele>
        <time>2017-02-25T09:31:27Z</time>
      </trkpt>
      <trkpt lat="38.210833" lon="-1.494524">
        <ele>346.7</ele>
        <time>2017-02-25T09:31:42Z</time>
      </trkpt>
      <trkpt lat="38.210821" lon="-1.494759">
        <ele>346.2</ele>
        <time>2017-02-25T09:31:56Z</time>
      </trkpt>
      <trkpt lat="38.210810" lon="-1.495015">
        <ele>347.2</ele>
        <time>2017-02-25T09:32:12Z</time>
      </trkpt>
      <trkpt lat="38.210802" lon="-1.495234">
        <ele>348.6</ele>
        <time>2017-02-25T09:32:25Z</time>
      </trkpt>
      <trkpt lat="38.210784" lon="-1.495520">
        <ele>347.6</ele>
        <time>2017-02-25T09:32:41Z</time>
      </trkpt>
      <trkpt lat="38.210763" lon="-1.495821">
        <ele>347.6</ele>
        <time>2017-02-25T09:32:58Z</time>
      </trkpt>
      <trkpt lat="38.210751" lon="-1.496087">
        <ele>347.6</ele>
        <time>2017-02-25T09:33:13Z</time>
      </trkpt>
      <trkpt lat="38.210770" lon="-1.496367">
        <ele>346.7</ele>
        <time>2017-02-25T09:33:30Z</time>
      </trkpt>
      <trkpt lat="38.210802" lon="-1.496617">
        <ele>346.7</ele>
        <time>2017-02-25T09:33:47Z</time>
      </trkpt>
      <trkpt lat="38.210819" lon="-1.496695">
        <ele>346.7</ele>
        <time>2017-02-25T09:33:52Z</time>
      </trkpt>
      <trkpt lat="38.210815" lon="-1.496713">
        <ele>346.7</ele>
        <time>2017-02-25T09:33:53Z</time>
      </trkpt>
      <trkpt lat="38.210813" lon="-1.496732">
        <ele>346.7</ele>
        <time>2017-02-25T09:33:54Z</time>
      </trkpt>
      <trkpt lat="38.210817" lon="-1.496749">
        <ele>346.2</ele>
        <time>2017-02-25T09:33:55Z</time>
      </trkpt>
      <trkpt lat="38.210819" lon="-1.496764">
        <ele>346.2</ele>
        <time>2017-02-25T09:33:56Z</time>
      </trkpt>
      <trkpt lat="38.210821" lon="-1.496779">
        <ele>346.2</ele>
        <time>2017-02-25T09:33:57Z</time>
      </trkpt>
      <trkpt lat="38.210821" lon="-1.496793">
        <ele>346.2</ele>
        <time>2017-02-25T09:33:58Z</time>
      </trkpt>
      <trkpt lat="38.210822" lon="-1.496807">
        <ele>346.2</ele>
        <time>2017-02-25T09:33:59Z</time>
      </trkpt>
      <trkpt lat="38.210826" lon="-1.496822">
        <ele>345.7</ele>
        <time>2017-02-25T09:34:00Z</time>
      </trkpt>
      <trkpt lat="38.210830" lon="-1.496839">
        <ele>345.7</ele>
        <time>2017-02-25T09:34:01Z</time>
      </trkpt>
      <trkpt lat="38.210835" lon="-1.496854">
        <ele>345.7</ele>
        <time>2017-02-25T09:34:02Z</time>
      </trkpt>
      <trkpt lat="38.210837" lon="-1.496870">
        <ele>345.7</ele>
        <time>2017-02-25T09:34:03Z</time>
      </trkpt>
      <trkpt lat="38.210839" lon="-1.496886">
        <ele>345.7</ele>
        <time>2017-02-25T09:34:04Z</time>
      </trkpt>
      <trkpt lat="38.210840" lon="-1.496901">
        <ele>345.7</ele>
        <time>2017-02-25T09:34:05Z</time>
      </trkpt>
      <trkpt lat="38.210855" lon="-1.497175">
        <ele>344.3</ele>
        <time>2017-02-25T09:34:22Z</time>
      </trkpt>
      <trkpt lat="38.210862" lon="-1.497343">
        <ele>343.3</ele>
        <time>2017-02-25T09:34:33Z</time>
      </trkpt>
      <trkpt lat="38.210856" lon="-1.497360">
        <ele>343.8</ele>
        <time>2017-02-25T09:34:34Z</time>
      </trkpt>
      <trkpt lat="38.210856" lon="-1.497377">
        <ele>343.3</ele>
        <time>2017-02-25T09:34:35Z</time>
      </trkpt>
      <trkpt lat="38.210856" lon="-1.497396">
        <ele>342.9</ele>
        <time>2017-02-25T09:34:36Z</time>
      </trkpt>
      <trkpt lat="38.210856" lon="-1.497414">
        <ele>342.9</ele>
        <time>2017-02-25T09:34:37Z</time>
      </trkpt>
      <trkpt lat="38.210869" lon="-1.497692">
        <ele>342.9</ele>
        <time>2017-02-25T09:34:55Z</time>
      </trkpt>
      <trkpt lat="38.210872" lon="-1.497969">
        <ele>342.4</ele>
        <time>2017-02-25T09:35:11Z</time>
      </trkpt>
      <trkpt lat="38.210931" lon="-1.498231">
        <ele>341.9</ele>
        <time>2017-02-25T09:35:27Z</time>
      </trkpt>
      <trkpt lat="38.211040" lon="-1.498341">
        <ele>342.4</ele>
        <time>2017-02-25T09:35:37Z</time>
      </trkpt>
      <trkpt lat="38.211051" lon="-1.498362">
        <ele>341.9</ele>
        <time>2017-02-25T09:35:39Z</time>
      </trkpt>
      <trkpt lat="38.211114" lon="-1.498495">
        <ele>342.4</ele>
        <time>2017-02-25T09:35:48Z</time>
      </trkpt>
      <trkpt lat="38.211111" lon="-1.498513">
        <ele>342.4</ele>
        <time>2017-02-25T09:35:49Z</time>
      </trkpt>
      <trkpt lat="38.211082" lon="-1.498668">
        <ele>342.9</ele>
        <time>2017-02-25T09:36:01Z</time>
      </trkpt>
      <trkpt lat="38.211067" lon="-1.498692">
        <ele>342.9</ele>
        <time>2017-02-25T09:36:09Z</time>
      </trkpt>
      <trkpt lat="38.211060" lon="-1.498711">
        <ele>342.9</ele>
        <time>2017-02-25T09:36:10Z</time>
      </trkpt>
      <trkpt lat="38.211051" lon="-1.498729">
        <ele>342.9</ele>
        <time>2017-02-25T09:36:11Z</time>
      </trkpt>
      <trkpt lat="38.211039" lon="-1.498746">
        <ele>342.9</ele>
        <time>2017-02-25T09:36:12Z</time>
      </trkpt>
      <trkpt lat="38.211032" lon="-1.498764">
        <ele>342.9</ele>
        <time>2017-02-25T09:36:13Z</time>
      </trkpt>
      <trkpt lat="38.211025" lon="-1.498784">
        <ele>342.4</ele>
        <time>2017-02-25T09:36:14Z</time>
      </trkpt>
      <trkpt lat="38.211017" lon="-1.498801">
        <ele>342.9</ele>
        <time>2017-02-25T09:36:15Z</time>
      </trkpt>
      <trkpt lat="38.211008" lon="-1.498814">
        <ele>343.3</ele>
        <time>2017-02-25T09:36:16Z</time>
      </trkpt>
      <trkpt lat="38.210808" lon="-1.499013">
        <ele>342.4</ele>
        <time>2017-02-25T09:36:34Z</time>
      </trkpt>
      <trkpt lat="38.210643" lon="-1.499249">
        <ele>342.4</ele>
        <time>2017-02-25T09:36:50Z</time>
      </trkpt>
      <trkpt lat="38.210608" lon="-1.499513">
        <ele>342.4</ele>
        <time>2017-02-25T09:37:05Z</time>
      </trkpt>
      <trkpt lat="38.210577" lon="-1.499774">
        <ele>341.9</ele>
        <time>2017-02-25T09:37:21Z</time>
      </trkpt>
      <trkpt lat="38.210565" lon="-1.500043">
        <ele>342.4</ele>
        <time>2017-02-25T09:37:37Z</time>
      </trkpt>
      <trkpt lat="38.210567" lon="-1.500059">
        <ele>342.4</ele>
        <time>2017-02-25T09:37:38Z</time>
      </trkpt>
      <trkpt lat="38.210567" lon="-1.500077">
        <ele>341.9</ele>
        <time>2017-02-25T09:37:39Z</time>
      </trkpt>
      <trkpt lat="38.210568" lon="-1.500093">
        <ele>341.9</ele>
        <time>2017-02-25T09:37:40Z</time>
      </trkpt>
      <trkpt lat="38.210567" lon="-1.500109">
        <ele>341.4</ele>
        <time>2017-02-25T09:37:41Z</time>
      </trkpt>
      <trkpt lat="38.210567" lon="-1.500125">
        <ele>341.9</ele>
        <time>2017-02-25T09:37:42Z</time>
      </trkpt>
      <trkpt lat="38.210567" lon="-1.500141">
        <ele>341.9</ele>
        <time>2017-02-25T09:37:43Z</time>
      </trkpt>
      <trkpt lat="38.210564" lon="-1.500329">
        <ele>341.4</ele>
        <time>2017-02-25T09:37:57Z</time>
      </trkpt>
      <trkpt lat="38.210564" lon="-1.500430">
        <ele>341.9</ele>
        <time>2017-02-25T09:38:08Z</time>
      </trkpt>
      <trkpt lat="38.210566" lon="-1.500454">
        <ele>340.9</ele>
        <time>2017-02-25T09:38:18Z</time>
      </trkpt>
      <trkpt lat="38.210564" lon="-1.500473">
        <ele>340.9</ele>
        <time>2017-02-25T09:38:19Z</time>
      </trkpt>
      <trkpt lat="38.210562" lon="-1.500494">
        <ele>340.9</ele>
        <time>2017-02-25T09:38:20Z</time>
      </trkpt>
      <trkpt lat="38.210560" lon="-1.500775">
        <ele>340.9</ele>
        <time>2017-02-25T09:38:39Z</time>
      </trkpt>
      <trkpt lat="38.210552" lon="-1.500890">
        <ele>340.9</ele>
        <time>2017-02-25T09:38:52Z</time>
      </trkpt>
      <trkpt lat="38.210544" lon="-1.500979">
        <ele>340.4</ele>
        <time>2017-02-25T09:39:02Z</time>
      </trkpt>
      <trkpt lat="38.210552" lon="-1.500997">
        <ele>340.0</ele>
        <time>2017-02-25T09:39:03Z</time>
      </trkpt>
      <trkpt lat="38.210547" lon="-1.501065">
        <ele>340.9</ele>
        <time>2017-02-25T09:39:07Z</time>
      </trkpt>
      <trkpt lat="38.210563" lon="-1.501189">
        <ele>340.0</ele>
        <time>2017-02-25T09:39:15Z</time>
      </trkpt>
      <trkpt lat="38.210537" lon="-1.501462">
        <ele>339.0</ele>
        <time>2017-02-25T09:39:32Z</time>
      </trkpt>
      <trkpt lat="38.210510" lon="-1.501702">
        <ele>338.0</ele>
        <time>2017-02-25T09:39:47Z</time>
      </trkpt>
      <trkpt lat="38.210502" lon="-1.501961">
        <ele>337.1</ele>
        <time>2017-02-25T09:40:02Z</time>
      </trkpt>
      <trkpt lat="38.210501" lon="-1.502205">
        <ele>336.1</ele>
        <time>2017-02-25T09:40:18Z</time>
      </trkpt>
      <trkpt lat="38.210497" lon="-1.502462">
        <ele>335.6</ele>
        <time>2017-02-25T09:40:33Z</time>
      </trkpt>
      <trkpt lat="38.210498" lon="-1.502756">
        <ele>335.2</ele>
        <time>2017-02-25T09:40:50Z</time>
      </trkpt>
      <trkpt lat="38.210517" lon="-1.503014">
        <ele>334.2</ele>
        <time>2017-02-25T09:41:06Z</time>
      </trkpt>
      <trkpt lat="38.210530" lon="-1.503167">
        <ele>333.7</ele>
        <time>2017-02-25T09:41:15Z</time>
      </trkpt>
      <trkpt lat="38.210525" lon="-1.503188">
        <ele>333.7</ele>
        <time>2017-02-25T09:41:16Z</time>
      </trkpt>
      <trkpt lat="38.210525" lon="-1.503206">
        <ele>333.2</ele>
        <time>2017-02-25T09:41:17Z</time>
      </trkpt>
      <trkpt lat="38.210546" lon="-1.503337">
        <ele>333.2</ele>
        <time>2017-02-25T09:41:28Z</time>
      </trkpt>
      <trkpt lat="38.210556" lon="-1.503569">
        <ele>332.3</ele>
        <time>2017-02-25T09:41:43Z</time>
      </trkpt>
      <trkpt lat="38.210544" lon="-1.503885">
        <ele>331.8</ele>
        <time>2017-02-25T09:42:11Z</time>
      </trkpt>
      <trkpt lat="38.210535" lon="-1.503932">
        <ele>331.3</ele>
        <time>2017-02-25T09:42:14Z</time>
      </trkpt>
      <trkpt lat="38.210532" lon="-1.503979">
        <ele>330.4</ele>
        <time>2017-02-25T09:43:06Z</time>
      </trkpt>
      <trkpt lat="38.210535" lon="-1.504001">
        <ele>330.4</ele>
        <time>2017-02-25T09:43:07Z</time>
      </trkpt>
      <trkpt lat="38.210512" lon="-1.504192">
        <ele>330.4</ele>
        <time>2017-02-25T09:43:17Z</time>
      </trkpt>
      <trkpt lat="38.210461" lon="-1.504476">
        <ele>328.4</ele>
        <time>2017-02-25T09:43:34Z</time>
      </trkpt>
      <trkpt lat="38.210401" lon="-1.504789">
        <ele>327.0</ele>
        <time>2017-02-25T09:43:51Z</time>
      </trkpt>
      <trkpt lat="38.210370" lon="-1.505102">
        <ele>324.6</ele>
        <time>2017-02-25T09:44:10Z</time>
      </trkpt>
      <trkpt lat="38.210332" lon="-1.505447">
        <ele>323.1</ele>
        <time>2017-02-25T09:44:28Z</time>
      </trkpt>
      <trkpt lat="38.210324" lon="-1.505708">
        <ele>322.2</ele>
        <time>2017-02-25T09:44:43Z</time>
      </trkpt>
      <trkpt lat="38.210304" lon="-1.506061">
        <ele>320.7</ele>
        <time>2017-02-25T09:45:04Z</time>
      </trkpt>
      <trkpt lat="38.210291" lon="-1.506364">
        <ele>318.8</ele>
        <time>2017-02-25T09:45:21Z</time>
      </trkpt>
      <trkpt lat="38.210286" lon="-1.506430">
        <ele>318.3</ele>
        <time>2017-02-25T09:45:25Z</time>
      </trkpt>
      <trkpt lat="38.210282" lon="-1.506447">
        <ele>317.9</ele>
        <time>2017-02-25T09:45:26Z</time>
      </trkpt>
      <trkpt lat="38.210233" lon="-1.506669">
        <ele>317.4</ele>
        <time>2017-02-25T09:45:40Z</time>
      </trkpt>
      <trkpt lat="38.210068" lon="-1.506815">
        <ele>316.9</ele>
        <time>2017-02-25T09:45:55Z</time>
      </trkpt>
      <trkpt lat="38.209890" lon="-1.506952">
        <ele>316.9</ele>
        <time>2017-02-25T09:46:10Z</time>
      </trkpt>
      <trkpt lat="38.209706" lon="-1.507120">
        <ele>316.4</ele>
        <time>2017-02-25T09:46:25Z</time>
      </trkpt>
      <trkpt lat="38.209554" lon="-1.507383">
        <ele>315.9</ele>
        <time>2017-02-25T09:46:43Z</time>
      </trkpt>
      <trkpt lat="38.209440" lon="-1.507572">
        <ele>315.5</ele>
        <time>2017-02-25T09:46:57Z</time>
      </trkpt>
      <trkpt lat="38.209290" lon="-1.507858">
        <ele>314.0</ele>
        <time>2017-02-25T09:47:15Z</time>
      </trkpt>
      <trkpt lat="38.209184" lon="-1.508090">
        <ele>313.0</ele>
        <time>2017-02-25T09:47:29Z</time>
      </trkpt>
      <trkpt lat="38.209143" lon="-1.508206">
        <ele>311.1</ele>
        <time>2017-02-25T09:47:40Z</time>
      </trkpt>
      <trkpt lat="38.208929" lon="-1.508382">
        <ele>310.6</ele>
        <time>2017-02-25T09:47:54Z</time>
      </trkpt>
      <trkpt lat="38.208829" lon="-1.508554">
        <ele>310.6</ele>
        <time>2017-02-25T09:48:05Z</time>
      </trkpt>
      <trkpt lat="38.208815" lon="-1.508661">
        <ele>310.2</ele>
        <time>2017-02-25T09:48:15Z</time>
      </trkpt>
      <trkpt lat="38.208943" lon="-1.508960">
        <ele>308.2</ele>
        <time>2017-02-25T09:48:29Z</time>
      </trkpt>
      <trkpt lat="38.208975" lon="-1.509061">
        <ele>307.8</ele>
        <time>2017-02-25T09:48:35Z</time>
      </trkpt>
      <trkpt lat="38.208982" lon="-1.509078">
        <ele>307.3</ele>
        <time>2017-02-25T09:48:36Z</time>
      </trkpt>
      <trkpt lat="38.209108" lon="-1.509295">
        <ele>305.4</ele>
        <time>2017-02-25T09:48:51Z</time>
      </trkpt>
      <trkpt lat="38.209138" lon="-1.509364">
        <ele>304.9</ele>
        <time>2017-02-25T09:48:56Z</time>
      </trkpt>
      <trkpt lat="38.209142" lon="-1.509383">
        <ele>304.4</ele>
        <time>2017-02-25T09:48:57Z</time>
      </trkpt>
      <trkpt lat="38.209191" lon="-1.509533">
        <ele>303.9</ele>
        <time>2017-02-25T09:49:07Z</time>
      </trkpt>
      <trkpt lat="38.209196" lon="-1.509553">
        <ele>303.4</ele>
        <time>2017-02-25T09:49:08Z</time>
      </trkpt>
      <trkpt lat="38.209204" lon="-1.509568">
        <ele>303.0</ele>
        <time>2017-02-25T09:49:09Z</time>
      </trkpt>
      <trkpt lat="38.209210" lon="-1.509581">
        <ele>303.4</ele>
        <time>2017-02-25T09:49:10Z</time>
      </trkpt>
      <trkpt lat="38.209214" lon="-1.509600">
        <ele>303.4</ele>
        <time>2017-02-25T09:49:11Z</time>
      </trkpt>
      <trkpt lat="38.209221" lon="-1.509616">
        <ele>303.0</ele>
        <time>2017-02-25T09:49:12Z</time>
      </trkpt>
      <trkpt lat="38.209228" lon="-1.509634">
        <ele>303.0</ele>
        <time>2017-02-25T09:49:13Z</time>
      </trkpt>
      <trkpt lat="38.209236" lon="-1.509647">
        <ele>302.5</ele>
        <time>2017-02-25T09:49:14Z</time>
      </trkpt>
      <trkpt lat="38.209250" lon="-1.509734">
        <ele>302.5</ele>
        <time>2017-02-25T09:49:23Z</time>
      </trkpt>
      <trkpt lat="38.209245" lon="-1.509875">
        <ele>302.5</ele>
        <time>2017-02-25T09:49:32Z</time>
      </trkpt>
      <trkpt lat="38.209247" lon="-1.510045">
        <ele>299.1</ele>
        <time>2017-02-25T09:49:43Z</time>
      </trkpt>
      <trkpt lat="38.209254" lon="-1.510076">
        <ele>299.1</ele>
        <time>2017-02-25T09:49:45Z</time>
      </trkpt>
      <trkpt lat="38.209255" lon="-1.510090">
        <ele>299.1</ele>
        <time>2017-02-25T09:49:46Z</time>
      </trkpt>
      <trkpt lat="38.209284" lon="-1.510295">
        <ele>297.7</ele>
        <time>2017-02-25T09:50:00Z</time>
      </trkpt>
      <trkpt lat="38.209304" lon="-1.510467">
        <ele>296.2</ele>
        <time>2017-02-25T09:50:12Z</time>
      </trkpt>
      <trkpt lat="38.209315" lon="-1.510557">
        <ele>295.7</ele>
        <time>2017-02-25T09:50:17Z</time>
      </trkpt>
      <trkpt lat="38.209362" lon="-1.510819">
        <ele>293.8</ele>
        <time>2017-02-25T09:50:32Z</time>
      </trkpt>
      <trkpt lat="38.209419" lon="-1.511049">
        <ele>292.9</ele>
        <time>2017-02-25T09:50:47Z</time>
      </trkpt>
      <trkpt lat="38.209515" lon="-1.511254">
        <ele>290.5</ele>
        <time>2017-02-25T09:51:00Z</time>
      </trkpt>
      <trkpt lat="38.209517" lon="-1.511270">
        <ele>290.5</ele>
        <time>2017-02-25T09:51:01Z</time>
      </trkpt>
      <trkpt lat="38.209521" lon="-1.511287">
        <ele>290.0</ele>
        <time>2017-02-25T09:51:02Z</time>
      </trkpt>
      <trkpt lat="38.209523" lon="-1.511307">
        <ele>289.5</ele>
        <time>2017-02-25T09:51:03Z</time>
      </trkpt>
      <trkpt lat="38.209528" lon="-1.511326">
        <ele>290.0</ele>
        <time>2017-02-25T09:51:04Z</time>
      </trkpt>
      <trkpt lat="38.209472" lon="-1.511556">
        <ele>288.5</ele>
        <time>2017-02-25T09:51:17Z</time>
      </trkpt>
      <trkpt lat="38.209467" lon="-1.511574">
        <ele>288.0</ele>
        <time>2017-02-25T09:51:18Z</time>
      </trkpt>
      <trkpt lat="38.209463" lon="-1.511592">
        <ele>288.0</ele>
        <time>2017-02-25T09:51:19Z</time>
      </trkpt>
      <trkpt lat="38.209456" lon="-1.511608">
        <ele>288.0</ele>
        <time>2017-02-25T09:51:20Z</time>
      </trkpt>
      <trkpt lat="38.209451" lon="-1.511622">
        <ele>287.6</ele>
        <time>2017-02-25T09:51:21Z</time>
      </trkpt>
      <trkpt lat="38.209447" lon="-1.511639">
        <ele>287.6</ele>
        <time>2017-02-25T09:51:22Z</time>
      </trkpt>
      <trkpt lat="38.209443" lon="-1.511670">
        <ele>287.1</ele>
        <time>2017-02-25T09:51:24Z</time>
      </trkpt>
      <trkpt lat="38.209445" lon="-1.511684">
        <ele>287.6</ele>
        <time>2017-02-25T09:51:25Z</time>
      </trkpt>
      <trkpt lat="38.209445" lon="-1.511702">
        <ele>287.1</ele>
        <time>2017-02-25T09:51:26Z</time>
      </trkpt>
      <trkpt lat="38.209445" lon="-1.511717">
        <ele>287.1</ele>
        <time>2017-02-25T09:51:27Z</time>
      </trkpt>
      <trkpt lat="38.209444" lon="-1.511733">
        <ele>287.1</ele>
        <time>2017-02-25T09:51:28Z</time>
      </trkpt>
      <trkpt lat="38.209444" lon="-1.511749">
        <ele>287.1</ele>
        <time>2017-02-25T09:51:29Z</time>
      </trkpt>
      <trkpt lat="38.209445" lon="-1.511765">
        <ele>287.1</ele>
        <time>2017-02-25T09:51:30Z</time>
      </trkpt>
      <trkpt lat="38.209449" lon="-1.511780">
        <ele>286.6</ele>
        <time>2017-02-25T09:51:31Z</time>
      </trkpt>
      <trkpt lat="38.209456" lon="-1.511796">
        <ele>287.1</ele>
        <time>2017-02-25T09:51:32Z</time>
      </trkpt>
      <trkpt lat="38.209461" lon="-1.511812">
        <ele>287.1</ele>
        <time>2017-02-25T09:51:33Z</time>
      </trkpt>
      <trkpt lat="38.209464" lon="-1.511829">
        <ele>286.1</ele>
        <time>2017-02-25T09:51:34Z</time>
      </trkpt>
      <trkpt lat="38.209468" lon="-1.511847">
        <ele>286.6</ele>
        <time>2017-02-25T09:51:35Z</time>
      </trkpt>
      <trkpt lat="38.209472" lon="-1.511862">
        <ele>286.6</ele>
        <time>2017-02-25T09:51:36Z</time>
      </trkpt>
      <trkpt lat="38.209559" lon="-1.512083">
        <ele>285.2</ele>
        <time>2017-02-25T09:51:50Z</time>
      </trkpt>
      <trkpt lat="38.209559" lon="-1.512103">
        <ele>285.2</ele>
        <time>2017-02-25T09:51:51Z</time>
      </trkpt>
      <trkpt lat="38.209560" lon="-1.512118">
        <ele>285.6</ele>
        <time>2017-02-25T09:51:52Z</time>
      </trkpt>
      <trkpt lat="38.209563" lon="-1.512136">
        <ele>285.2</ele>
        <time>2017-02-25T09:51:53Z</time>
      </trkpt>
      <trkpt lat="38.209566" lon="-1.512152">
        <ele>285.2</ele>
        <time>2017-02-25T09:51:54Z</time>
      </trkpt>
      <trkpt lat="38.209568" lon="-1.512170">
        <ele>285.2</ele>
        <time>2017-02-25T09:51:55Z</time>
      </trkpt>
      <trkpt lat="38.209565" lon="-1.512189">
        <ele>284.7</ele>
        <time>2017-02-25T09:51:56Z</time>
      </trkpt>
      <trkpt lat="38.209498" lon="-1.512526">
        <ele>283.2</ele>
        <time>2017-02-25T09:52:14Z</time>
      </trkpt>
      <trkpt lat="38.209490" lon="-1.512540">
        <ele>282.8</ele>
        <time>2017-02-25T09:52:15Z</time>
      </trkpt>
      <trkpt lat="38.209484" lon="-1.512557">
        <ele>282.8</ele>
        <time>2017-02-25T09:52:16Z</time>
      </trkpt>
      <trkpt lat="38.209479" lon="-1.512571">
        <ele>282.8</ele>
        <time>2017-02-25T09:52:17Z</time>
      </trkpt>
      <trkpt lat="38.209472" lon="-1.512587">
        <ele>282.8</ele>
        <time>2017-02-25T09:52:18Z</time>
      </trkpt>
      <trkpt lat="38.209468" lon="-1.512604">
        <ele>282.8</ele>
        <time>2017-02-25T09:52:19Z</time>
      </trkpt>
      <trkpt lat="38.209341" lon="-1.512892">
        <ele>281.8</ele>
        <time>2017-02-25T09:52:37Z</time>
      </trkpt>
      <trkpt lat="38.209269" lon="-1.513077">
        <ele>280.4</ele>
        <time>2017-02-25T09:52:48Z</time>
      </trkpt>
      <trkpt lat="38.209266" lon="-1.513097">
        <ele>280.4</ele>
        <time>2017-02-25T09:52:49Z</time>
      </trkpt>
      <trkpt lat="38.209262" lon="-1.513118">
        <ele>280.8</ele>
        <time>2017-02-25T09:52:50Z</time>
      </trkpt>
      <trkpt lat="38.209236" lon="-1.513401">
        <ele>278.9</ele>
        <time>2017-02-25T09:53:06Z</time>
      </trkpt>
      <trkpt lat="38.209166" lon="-1.513667">
        <ele>277.5</ele>
        <time>2017-02-25T09:53:21Z</time>
      </trkpt>
      <trkpt lat="38.209165" lon="-1.513688">
        <ele>278.0</ele>
        <time>2017-02-25T09:53:22Z</time>
      </trkpt>
      <trkpt lat="38.209162" lon="-1.513705">
        <ele>278.0</ele>
        <time>2017-02-25T09:53:23Z</time>
      </trkpt>
      <trkpt lat="38.209089" lon="-1.513952">
        <ele>276.0</ele>
        <time>2017-02-25T09:53:39Z</time>
      </trkpt>
      <trkpt lat="38.208999" lon="-1.514154">
        <ele>273.6</ele>
        <time>2017-02-25T09:53:54Z</time>
      </trkpt>
      <trkpt lat="38.208962" lon="-1.514230">
        <ele>272.2</ele>
        <time>2017-02-25T09:53:59Z</time>
      </trkpt>
      <trkpt lat="38.208832" lon="-1.514477">
        <ele>269.3</ele>
        <time>2017-02-25T09:54:16Z</time>
      </trkpt>
      <trkpt lat="38.208736" lon="-1.514703">
        <ele>267.4</ele>
        <time>2017-02-25T09:54:30Z</time>
      </trkpt>
      <trkpt lat="38.208684" lon="-1.514989">
        <ele>265.5</ele>
        <time>2017-02-25T09:54:46Z</time>
      </trkpt>
      <trkpt lat="38.208687" lon="-1.515026">
        <ele>265.5</ele>
        <time>2017-02-25T09:54:48Z</time>
      </trkpt>
      <trkpt lat="38.208619" lon="-1.515282">
        <ele>263.1</ele>
        <time>2017-02-25T09:55:02Z</time>
      </trkpt>
      <trkpt lat="38.208518" lon="-1.515542">
        <ele>264.0</ele>
        <time>2017-02-25T09:55:18Z</time>
      </trkpt>
      <trkpt lat="38.208489" lon="-1.515695">
        <ele>264.5</ele>
        <time>2017-02-25T09:55:27Z</time>
      </trkpt>
      <trkpt lat="38.208491" lon="-1.515713">
        <ele>265.0</ele>
        <time>2017-02-25T09:55:28Z</time>
      </trkpt>
      <trkpt lat="38.208498" lon="-1.515730">
        <ele>264.5</ele>
        <time>2017-02-25T09:55:29Z</time>
      </trkpt>
      <trkpt lat="38.208613" lon="-1.515902">
        <ele>265.9</ele>
        <time>2017-02-25T09:55:41Z</time>
      </trkpt>
      <trkpt lat="38.208793" lon="-1.515963">
        <ele>266.9</ele>
        <time>2017-02-25T09:55:55Z</time>
      </trkpt>
      <trkpt lat="38.208936" lon="-1.516016">
        <ele>267.9</ele>
        <time>2017-02-25T09:56:08Z</time>
      </trkpt>
      <trkpt lat="38.208917" lon="-1.516004">
        <ele>268.4</ele>
        <time>2017-02-25T09:56:20Z</time>
      </trkpt>
      <trkpt lat="38.208936" lon="-1.516011">
        <ele>268.4</ele>
        <time>2017-02-25T09:56:34Z</time>
      </trkpt>
      <trkpt lat="38.209083" lon="-1.516121">
        <ele>268.8</ele>
        <time>2017-02-25T09:56:49Z</time>
      </trkpt>
      <trkpt lat="38.209180" lon="-1.516186">
        <ele>269.8</ele>
        <time>2017-02-25T09:57:02Z</time>
      </trkpt>
      <trkpt lat="38.209185" lon="-1.516198">
        <ele>269.8</ele>
        <time>2017-02-25T09:57:03Z</time>
      </trkpt>
      <trkpt lat="38.209187" lon="-1.516215">
        <ele>269.8</ele>
        <time>2017-02-25T09:57:04Z</time>
      </trkpt>
      <trkpt lat="38.209192" lon="-1.516233">
        <ele>269.8</ele>
        <time>2017-02-25T09:57:05Z</time>
      </trkpt>
      <trkpt lat="38.209258" lon="-1.516504">
        <ele>270.3</ele>
        <time>2017-02-25T09:57:22Z</time>
      </trkpt>
      <trkpt lat="38.209259" lon="-1.516509">
        <ele>270.8</ele>
        <time>2017-02-25T09:57:28Z</time>
      </trkpt>
      <trkpt lat="38.209265" lon="-1.516524">
        <ele>270.8</ele>
        <time>2017-02-25T09:57:29Z</time>
      </trkpt>
      <trkpt lat="38.209305" lon="-1.516751">
        <ele>271.2</ele>
        <time>2017-02-25T09:57:41Z</time>
      </trkpt>
      <trkpt lat="38.209300" lon="-1.516781">
        <ele>271.2</ele>
        <time>2017-02-25T09:57:43Z</time>
      </trkpt>
      <trkpt lat="38.209300" lon="-1.516798">
        <ele>271.2</ele>
        <time>2017-02-25T09:57:44Z</time>
      </trkpt>
      <trkpt lat="38.209300" lon="-1.516817">
        <ele>271.7</ele>
        <time>2017-02-25T09:57:45Z</time>
      </trkpt>
      <trkpt lat="38.209303" lon="-1.516837">
        <ele>271.7</ele>
        <time>2017-02-25T09:57:46Z</time>
      </trkpt>
      <trkpt lat="38.209305" lon="-1.516855">
        <ele>271.2</ele>
        <time>2017-02-25T09:57:47Z</time>
      </trkpt>
      <trkpt lat="38.209308" lon="-1.516875">
        <ele>271.2</ele>
        <time>2017-02-25T09:57:48Z</time>
      </trkpt>
      <trkpt lat="38.209313" lon="-1.516896">
        <ele>271.7</ele>
        <time>2017-02-25T09:57:49Z</time>
      </trkpt>
      <trkpt lat="38.209319" lon="-1.516930">
        <ele>272.2</ele>
        <time>2017-02-25T09:57:51Z</time>
      </trkpt>
      <trkpt lat="38.209326" lon="-1.516957">
        <ele>272.2</ele>
        <time>2017-02-25T09:57:53Z</time>
      </trkpt>
      <trkpt lat="38.209327" lon="-1.516976">
        <ele>271.7</ele>
        <time>2017-02-25T09:57:54Z</time>
      </trkpt>
      <trkpt lat="38.209331" lon="-1.516998">
        <ele>271.7</ele>
        <time>2017-02-25T09:57:55Z</time>
      </trkpt>
      <trkpt lat="38.209335" lon="-1.517020">
        <ele>271.7</ele>
        <time>2017-02-25T09:57:56Z</time>
      </trkpt>
      <trkpt lat="38.209342" lon="-1.517041">
        <ele>272.2</ele>
        <time>2017-02-25T09:57:57Z</time>
      </trkpt>
      <trkpt lat="38.209393" lon="-1.517362">
        <ele>274.1</ele>
        <time>2017-02-25T09:58:14Z</time>
      </trkpt>
      <trkpt lat="38.209298" lon="-1.517533">
        <ele>276.5</ele>
        <time>2017-02-25T09:58:28Z</time>
      </trkpt>
      <trkpt lat="38.209117" lon="-1.517568">
        <ele>278.9</ele>
        <time>2017-02-25T09:58:43Z</time>
      </trkpt>
      <trkpt lat="38.208907" lon="-1.517546">
        <ele>279.9</ele>
        <time>2017-02-25T09:59:00Z</time>
      </trkpt>
      <trkpt lat="38.208770" lon="-1.517456">
        <ele>281.3</ele>
        <time>2017-02-25T09:59:13Z</time>
      </trkpt>
      <trkpt lat="38.208693" lon="-1.517410">
        <ele>281.8</ele>
        <time>2017-02-25T09:59:19Z</time>
      </trkpt>
      <trkpt lat="38.208679" lon="-1.517400">
        <ele>281.8</ele>
        <time>2017-02-25T09:59:20Z</time>
      </trkpt>
      <trkpt lat="38.208663" lon="-1.517397">
        <ele>282.3</ele>
        <time>2017-02-25T09:59:21Z</time>
      </trkpt>
      <trkpt lat="38.208489" lon="-1.517349">
        <ele>283.7</ele>
        <time>2017-02-25T09:59:35Z</time>
      </trkpt>
      <trkpt lat="38.208403" lon="-1.517318">
        <ele>284.7</ele>
        <time>2017-02-25T09:59:44Z</time>
      </trkpt>
      <trkpt lat="38.208391" lon="-1.517318">
        <ele>285.2</ele>
        <time>2017-02-25T09:59:45Z</time>
      </trkpt>
      <trkpt lat="38.208379" lon="-1.517316">
        <ele>285.2</ele>
        <time>2017-02-25T09:59:46Z</time>
      </trkpt>
      <trkpt lat="38.208361" lon="-1.517313">
        <ele>285.6</ele>
        <time>2017-02-25T09:59:48Z</time>
      </trkpt>
      <trkpt lat="38.208315" lon="-1.517280">
        <ele>285.6</ele>
        <time>2017-02-25T09:59:54Z</time>
      </trkpt>
      <trkpt lat="38.208268" lon="-1.517247">
        <ele>286.6</ele>
        <time>2017-02-25T09:59:59Z</time>
      </trkpt>
      <trkpt lat="38.208238" lon="-1.517203">
        <ele>286.6</ele>
        <time>2017-02-25T10:00:04Z</time>
      </trkpt>
      <trkpt lat="38.208148" lon="-1.517091">
        <ele>288.0</ele>
        <time>2017-02-25T10:00:16Z</time>
      </trkpt>
      <trkpt lat="38.208075" lon="-1.517001">
        <ele>288.5</ele>
        <time>2017-02-25T10:00:26Z</time>
      </trkpt>
      <trkpt lat="38.208064" lon="-1.516988">
        <ele>289.0</ele>
        <time>2017-02-25T10:00:27Z</time>
      </trkpt>
      <trkpt lat="38.208018" lon="-1.516943">
        <ele>289.0</ele>
        <time>2017-02-25T10:00:32Z</time>
      </trkpt>
      <trkpt lat="38.208006" lon="-1.516937">
        <ele>289.0</ele>
        <time>2017-02-25T10:00:33Z</time>
      </trkpt>
      <trkpt lat="38.207994" lon="-1.516928">
        <ele>289.0</ele>
        <time>2017-02-25T10:00:34Z</time>
      </trkpt>
      <trkpt lat="38.207791" lon="-1.516934">
        <ele>290.5</ele>
        <time>2017-02-25T10:00:50Z</time>
      </trkpt>
      <trkpt lat="38.207715" lon="-1.517112">
        <ele>291.9</ele>
        <time>2017-02-25T10:01:03Z</time>
      </trkpt>
      <trkpt lat="38.207715" lon="-1.517133">
        <ele>291.9</ele>
        <time>2017-02-25T10:01:04Z</time>
      </trkpt>
      <trkpt lat="38.207714" lon="-1.517150">
        <ele>291.9</ele>
        <time>2017-02-25T10:01:05Z</time>
      </trkpt>
      <trkpt lat="38.207693" lon="-1.517382">
        <ele>293.3</ele>
        <time>2017-02-25T10:01:20Z</time>
      </trkpt>
      <trkpt lat="38.207700" lon="-1.517395">
        <ele>293.8</ele>
        <time>2017-02-25T10:01:23Z</time>
      </trkpt>
      <trkpt lat="38.207694" lon="-1.517409">
        <ele>293.8</ele>
        <time>2017-02-25T10:01:24Z</time>
      </trkpt>
      <trkpt lat="38.207693" lon="-1.517426">
        <ele>293.8</ele>
        <time>2017-02-25T10:01:25Z</time>
      </trkpt>
      <trkpt lat="38.207694" lon="-1.517445">
        <ele>293.8</ele>
        <time>2017-02-25T10:01:26Z</time>
      </trkpt>
      <trkpt lat="38.207693" lon="-1.517465">
        <ele>293.8</ele>
        <time>2017-02-25T10:01:27Z</time>
      </trkpt>
      <trkpt lat="38.207701" lon="-1.517651">
        <ele>295.3</ele>
        <time>2017-02-25T10:01:38Z</time>
      </trkpt>
      <trkpt lat="38.207704" lon="-1.517670">
        <ele>294.8</ele>
        <time>2017-02-25T10:01:39Z</time>
      </trkpt>
      <trkpt lat="38.207698" lon="-1.517784">
        <ele>295.7</ele>
        <time>2017-02-25T10:01:46Z</time>
      </trkpt>
      <trkpt lat="38.207700" lon="-1.517800">
        <ele>294.8</ele>
        <time>2017-02-25T10:01:47Z</time>
      </trkpt>
      <trkpt lat="38.207713" lon="-1.518037">
        <ele>296.2</ele>
        <time>2017-02-25T10:02:01Z</time>
      </trkpt>
      <trkpt lat="38.207712" lon="-1.518305">
        <ele>297.7</ele>
        <time>2017-02-25T10:02:16Z</time>
      </trkpt>
      <trkpt lat="38.207701" lon="-1.518657">
        <ele>298.1</ele>
        <time>2017-02-25T10:02:36Z</time>
      </trkpt>
      <trkpt lat="38.207618" lon="-1.518954">
        <ele>297.2</ele>
        <time>2017-02-25T10:02:55Z</time>
      </trkpt>
      <trkpt lat="38.207484" lon="-1.519221">
        <ele>296.7</ele>
        <time>2017-02-25T10:03:12Z</time>
      </trkpt>
      <trkpt lat="38.207380" lon="-1.519493">
        <ele>296.2</ele>
        <time>2017-02-25T10:03:28Z</time>
      </trkpt>
      <trkpt lat="38.207266" lon="-1.519807">
        <ele>297.2</ele>
        <time>2017-02-25T10:03:46Z</time>
      </trkpt>
      <trkpt lat="38.207167" lon="-1.520084">
        <ele>297.7</ele>
        <time>2017-02-25T10:04:03Z</time>
      </trkpt>
      <trkpt lat="38.207085" lon="-1.520332">
        <ele>298.6</ele>
        <time>2017-02-25T10:04:18Z</time>
      </trkpt>
      <trkpt lat="38.206931" lon="-1.520526">
        <ele>298.6</ele>
        <time>2017-02-25T10:04:35Z</time>
      </trkpt>
      <trkpt lat="38.206744" lon="-1.520418">
        <ele>299.1</ele>
        <time>2017-02-25T10:04:51Z</time>
      </trkpt>
      <trkpt lat="38.206580" lon="-1.520276">
        <ele>299.6</ele>
        <time>2017-02-25T10:05:05Z</time>
      </trkpt>
      <trkpt lat="38.206568" lon="-1.520270">
        <ele>299.6</ele>
        <time>2017-02-25T10:05:06Z</time>
      </trkpt>
      <trkpt lat="38.206557" lon="-1.520260">
        <ele>300.1</ele>
        <time>2017-02-25T10:05:07Z</time>
      </trkpt>
      <trkpt lat="38.206546" lon="-1.520251">
        <ele>300.1</ele>
        <time>2017-02-25T10:05:08Z</time>
      </trkpt>
      <trkpt lat="38.206535" lon="-1.520238">
        <ele>300.1</ele>
        <time>2017-02-25T10:05:09Z</time>
      </trkpt>
      <trkpt lat="38.206523" lon="-1.520226">
        <ele>300.5</ele>
        <time>2017-02-25T10:05:10Z</time>
      </trkpt>
      <trkpt lat="38.206346" lon="-1.520119">
        <ele>300.5</ele>
        <time>2017-02-25T10:05:24Z</time>
      </trkpt>
      <trkpt lat="38.206142" lon="-1.520048">
        <ele>301.5</ele>
        <time>2017-02-25T10:05:39Z</time>
      </trkpt>
      <trkpt lat="38.205910" lon="-1.520012">
        <ele>302.5</ele>
        <time>2017-02-25T10:05:55Z</time>
      </trkpt>
      <trkpt lat="38.205725" lon="-1.520074">
        <ele>303.0</ele>
        <time>2017-02-25T10:06:09Z</time>
      </trkpt>
      <trkpt lat="38.205514" lon="-1.520221">
        <ele>303.9</ele>
        <time>2017-02-25T10:06:25Z</time>
      </trkpt>
      <trkpt lat="38.205358" lon="-1.520376">
        <ele>303.4</ele>
        <time>2017-02-25T10:06:39Z</time>
      </trkpt>
      <trkpt lat="38.205162" lon="-1.520498">
        <ele>304.4</ele>
        <time>2017-02-25T10:06:55Z</time>
      </trkpt>
      <trkpt lat="38.204926" lon="-1.520583">
        <ele>303.4</ele>
        <time>2017-02-25T10:07:13Z</time>
      </trkpt>
      <trkpt lat="38.204695" lon="-1.520575">
        <ele>303.0</ele>
        <time>2017-02-25T10:07:30Z</time>
      </trkpt>
      <trkpt lat="38.204433" lon="-1.520487">
        <ele>302.0</ele>
        <time>2017-02-25T10:07:48Z</time>
      </trkpt>
      <trkpt lat="38.204185" lon="-1.520523">
        <ele>301.0</ele>
        <time>2017-02-25T10:08:06Z</time>
      </trkpt>
      <trkpt lat="38.203653" lon="-1.520523">
        <ele>299.6</ele>
        <time>2017-02-25T10:09:11Z</time>
      </trkpt>
      <trkpt lat="38.203546" lon="-1.520549">
        <ele>298.6</ele>
        <time>2017-02-25T10:09:43Z</time>
      </trkpt>
      <trkpt lat="38.203269" lon="-1.520540">
        <ele>303.4</ele>
        <time>2017-02-25T10:11:17Z</time>
      </trkpt>
      <trkpt lat="38.203259" lon="-1.520541">
        <ele>301.5</ele>
        <time>2017-02-25T10:11:18Z</time>
      </trkpt>
      <trkpt lat="38.203098" lon="-1.520564">
        <ele>303.9</ele>
        <time>2017-02-25T10:11:33Z</time>
      </trkpt>
      <trkpt lat="38.202937" lon="-1.520577">
        <ele>304.9</ele>
        <time>2017-02-25T10:11:46Z</time>
      </trkpt>
      <trkpt lat="38.202925" lon="-1.520581">
        <ele>304.9</ele>
        <time>2017-02-25T10:11:47Z</time>
      </trkpt>
      <trkpt lat="38.202903" lon="-1.520580">
        <ele>305.4</ele>
        <time>2017-02-25T10:11:49Z</time>
      </trkpt>
      <trkpt lat="38.202892" lon="-1.520579">
        <ele>305.8</ele>
        <time>2017-02-25T10:11:50Z</time>
      </trkpt>
      <trkpt lat="38.202806" lon="-1.520585">
        <ele>307.3</ele>
        <time>2017-02-25T10:11:58Z</time>
      </trkpt>
      <trkpt lat="38.202795" lon="-1.520589">
        <ele>307.3</ele>
        <time>2017-02-25T10:11:59Z</time>
      </trkpt>
      <trkpt lat="38.202783" lon="-1.520591">
        <ele>307.8</ele>
        <time>2017-02-25T10:12:00Z</time>
      </trkpt>
      <trkpt lat="38.202772" lon="-1.520589">
        <ele>307.8</ele>
        <time>2017-02-25T10:12:01Z</time>
      </trkpt>
      <trkpt lat="38.202761" lon="-1.520589">
        <ele>307.8</ele>
        <time>2017-02-25T10:12:02Z</time>
      </trkpt>
      <trkpt lat="38.202750" lon="-1.520594">
        <ele>307.8</ele>
        <time>2017-02-25T10:12:03Z</time>
      </trkpt>
      <trkpt lat="38.202651" lon="-1.520595">
        <ele>309.2</ele>
        <time>2017-02-25T10:12:14Z</time>
      </trkpt>
      <trkpt lat="38.202558" lon="-1.520597">
        <ele>310.2</ele>
        <time>2017-02-25T10:12:23Z</time>
      </trkpt>
      <trkpt lat="38.202539" lon="-1.520594">
        <ele>310.6</ele>
        <time>2017-02-25T10:12:25Z</time>
      </trkpt>
      <trkpt lat="38.202530" lon="-1.520592">
        <ele>311.1</ele>
        <time>2017-02-25T10:12:26Z</time>
      </trkpt>
      <trkpt lat="38.202518" lon="-1.520593">
        <ele>310.6</ele>
        <time>2017-02-25T10:12:27Z</time>
      </trkpt>
      <trkpt lat="38.202506" lon="-1.520595">
        <ele>311.6</ele>
        <time>2017-02-25T10:12:28Z</time>
      </trkpt>
      <trkpt lat="38.202447" lon="-1.520591">
        <ele>312.6</ele>
        <time>2017-02-25T10:12:34Z</time>
      </trkpt>
      <trkpt lat="38.202302" lon="-1.520594">
        <ele>313.5</ele>
        <time>2017-02-25T10:12:48Z</time>
      </trkpt>
      <trkpt lat="38.202162" lon="-1.520636">
        <ele>315.0</ele>
        <time>2017-02-25T10:13:01Z</time>
      </trkpt>
      <trkpt lat="38.202151" lon="-1.520639">
        <ele>315.0</ele>
        <time>2017-02-25T10:13:02Z</time>
      </trkpt>
      <trkpt lat="38.202140" lon="-1.520645">
        <ele>315.0</ele>
        <time>2017-02-25T10:13:03Z</time>
      </trkpt>
      <trkpt lat="38.202130" lon="-1.520652">
        <ele>315.0</ele>
        <time>2017-02-25T10:13:04Z</time>
      </trkpt>
      <trkpt lat="38.202117" lon="-1.520657">
        <ele>315.0</ele>
        <time>2017-02-25T10:13:05Z</time>
      </trkpt>
      <trkpt lat="38.202104" lon="-1.520662">
        <ele>315.5</ele>
        <time>2017-02-25T10:13:06Z</time>
      </trkpt>
      <trkpt lat="38.201933" lon="-1.520733">
        <ele>316.4</ele>
        <time>2017-02-25T10:13:21Z</time>
      </trkpt>
      <trkpt lat="38.201802" lon="-1.520853">
        <ele>317.9</ele>
        <time>2017-02-25T10:13:35Z</time>
      </trkpt>
      <trkpt lat="38.201771" lon="-1.520907">
        <ele>318.3</ele>
        <time>2017-02-25T10:13:40Z</time>
      </trkpt>
      <trkpt lat="38.201766" lon="-1.520921">
        <ele>317.9</ele>
        <time>2017-02-25T10:13:41Z</time>
      </trkpt>
      <trkpt lat="38.201761" lon="-1.520937">
        <ele>317.9</ele>
        <time>2017-02-25T10:13:42Z</time>
      </trkpt>
      <trkpt lat="38.201757" lon="-1.520949">
        <ele>317.9</ele>
        <time>2017-02-25T10:13:43Z</time>
      </trkpt>
      <trkpt lat="38.201750" lon="-1.520962">
        <ele>317.9</ele>
        <time>2017-02-25T10:13:44Z</time>
      </trkpt>
      <trkpt lat="38.201745" lon="-1.520975">
        <ele>318.3</ele>
        <time>2017-02-25T10:13:45Z</time>
      </trkpt>
      <trkpt lat="38.201691" lon="-1.521201">
        <ele>318.3</ele>
        <time>2017-02-25T10:14:00Z</time>
      </trkpt>
      <trkpt lat="38.201689" lon="-1.521215">
        <ele>318.3</ele>
        <time>2017-02-25T10:14:01Z</time>
      </trkpt>
      <trkpt lat="38.201689" lon="-1.521229">
        <ele>318.3</ele>
        <time>2017-02-25T10:14:02Z</time>
      </trkpt>
      <trkpt lat="38.201688" lon="-1.521246">
        <ele>318.3</ele>
        <time>2017-02-25T10:14:03Z</time>
      </trkpt>
      <trkpt lat="38.201688" lon="-1.521261">
        <ele>318.3</ele>
        <time>2017-02-25T10:14:04Z</time>
      </trkpt>
      <trkpt lat="38.201688" lon="-1.521275">
        <ele>318.8</ele>
        <time>2017-02-25T10:14:05Z</time>
      </trkpt>
      <trkpt lat="38.201671" lon="-1.521439">
        <ele>316.9</ele>
        <time>2017-02-25T10:14:17Z</time>
      </trkpt>
      <trkpt lat="38.201667" lon="-1.521466">
        <ele>318.3</ele>
        <time>2017-02-25T10:14:19Z</time>
      </trkpt>
      <trkpt lat="38.201613" lon="-1.521668">
        <ele>319.8</ele>
        <time>2017-02-25T10:14:34Z</time>
      </trkpt>
      <trkpt lat="38.201549" lon="-1.521765">
        <ele>320.7</ele>
        <time>2017-02-25T10:14:42Z</time>
      </trkpt>
      <trkpt lat="38.201477" lon="-1.521855">
        <ele>321.2</ele>
        <time>2017-02-25T10:14:50Z</time>
      </trkpt>
      <trkpt lat="38.201471" lon="-1.521871">
        <ele>321.7</ele>
        <time>2017-02-25T10:14:51Z</time>
      </trkpt>
      <trkpt lat="38.201440" lon="-1.521913">
        <ele>322.2</ele>
        <time>2017-02-25T10:14:55Z</time>
      </trkpt>
      <trkpt lat="38.201427" lon="-1.521937">
        <ele>322.2</ele>
        <time>2017-02-25T10:14:57Z</time>
      </trkpt>
      <trkpt lat="38.201411" lon="-1.521969">
        <ele>322.7</ele>
        <time>2017-02-25T10:14:59Z</time>
      </trkpt>
      <trkpt lat="38.201401" lon="-1.521981">
        <ele>322.7</ele>
        <time>2017-02-25T10:15:00Z</time>
      </trkpt>
      <trkpt lat="38.201389" lon="-1.521990">
        <ele>323.1</ele>
        <time>2017-02-25T10:15:01Z</time>
      </trkpt>
      <trkpt lat="38.201380" lon="-1.521997">
        <ele>323.1</ele>
        <time>2017-02-25T10:15:02Z</time>
      </trkpt>
      <trkpt lat="38.201331" lon="-1.522067">
        <ele>323.6</ele>
        <time>2017-02-25T10:15:09Z</time>
      </trkpt>
      <trkpt lat="38.201322" lon="-1.522081">
        <ele>324.6</ele>
        <time>2017-02-25T10:15:10Z</time>
      </trkpt>
      <trkpt lat="38.201312" lon="-1.522093">
        <ele>324.1</ele>
        <time>2017-02-25T10:15:11Z</time>
      </trkpt>
      <trkpt lat="38.201285" lon="-1.522120">
        <ele>325.1</ele>
        <time>2017-02-25T10:15:14Z</time>
      </trkpt>
      <trkpt lat="38.201265" lon="-1.522144">
        <ele>325.1</ele>
        <time>2017-02-25T10:15:17Z</time>
      </trkpt>
      <trkpt lat="38.201257" lon="-1.522150">
        <ele>325.1</ele>
        <time>2017-02-25T10:15:18Z</time>
      </trkpt>
      <trkpt lat="38.201249" lon="-1.522161">
        <ele>324.6</ele>
        <time>2017-02-25T10:15:19Z</time>
      </trkpt>
      <trkpt lat="38.201242" lon="-1.522176">
        <ele>325.5</ele>
        <time>2017-02-25T10:15:20Z</time>
      </trkpt>
      <trkpt lat="38.201233" lon="-1.522193">
        <ele>325.5</ele>
        <time>2017-02-25T10:15:21Z</time>
      </trkpt>
      <trkpt lat="38.201223" lon="-1.522208">
        <ele>325.5</ele>
        <time>2017-02-25T10:15:22Z</time>
      </trkpt>
      <trkpt lat="38.201213" lon="-1.522218">
        <ele>326.0</ele>
        <time>2017-02-25T10:15:23Z</time>
      </trkpt>
      <trkpt lat="38.201202" lon="-1.522227">
        <ele>326.0</ele>
        <time>2017-02-25T10:15:24Z</time>
      </trkpt>
      <trkpt lat="38.201191" lon="-1.522236">
        <ele>326.0</ele>
        <time>2017-02-25T10:15:25Z</time>
      </trkpt>
      <trkpt lat="38.201186" lon="-1.522245">
        <ele>326.0</ele>
        <time>2017-02-25T10:15:26Z</time>
      </trkpt>
      <trkpt lat="38.201180" lon="-1.522257">
        <ele>326.5</ele>
        <time>2017-02-25T10:15:27Z</time>
      </trkpt>
      <trkpt lat="38.201171" lon="-1.522268">
        <ele>326.5</ele>
        <time>2017-02-25T10:15:28Z</time>
      </trkpt>
      <trkpt lat="38.201134" lon="-1.522320">
        <ele>327.0</ele>
        <time>2017-02-25T10:15:33Z</time>
      </trkpt>
      <trkpt lat="38.201125" lon="-1.522336">
        <ele>327.5</ele>
        <time>2017-02-25T10:15:34Z</time>
      </trkpt>
      <trkpt lat="38.201113" lon="-1.522348">
        <ele>328.0</ele>
        <time>2017-02-25T10:15:35Z</time>
      </trkpt>
      <trkpt lat="38.201104" lon="-1.522356">
        <ele>328.0</ele>
        <time>2017-02-25T10:15:36Z</time>
      </trkpt>
      <trkpt lat="38.201094" lon="-1.522361">
        <ele>328.0</ele>
        <time>2017-02-25T10:15:37Z</time>
      </trkpt>
      <trkpt lat="38.201084" lon="-1.522367">
        <ele>328.0</ele>
        <time>2017-02-25T10:15:38Z</time>
      </trkpt>
      <trkpt lat="38.201076" lon="-1.522375">
        <ele>328.4</ele>
        <time>2017-02-25T10:15:39Z</time>
      </trkpt>
      <trkpt lat="38.201071" lon="-1.522387">
        <ele>328.0</ele>
        <time>2017-02-25T10:15:40Z</time>
      </trkpt>
      <trkpt lat="38.201065" lon="-1.522401">
        <ele>328.4</ele>
        <time>2017-02-25T10:15:41Z</time>
      </trkpt>
      <trkpt lat="38.201056" lon="-1.522416">
        <ele>328.4</ele>
        <time>2017-02-25T10:15:42Z</time>
      </trkpt>
      <trkpt lat="38.201047" lon="-1.522428">
        <ele>328.9</ele>
        <time>2017-02-25T10:15:43Z</time>
      </trkpt>
      <trkpt lat="38.201036" lon="-1.522437">
        <ele>328.4</ele>
        <time>2017-02-25T10:15:44Z</time>
      </trkpt>
      <trkpt lat="38.201023" lon="-1.522446">
        <ele>328.9</ele>
        <time>2017-02-25T10:15:45Z</time>
      </trkpt>
      <trkpt lat="38.201011" lon="-1.522454">
        <ele>328.9</ele>
        <time>2017-02-25T10:15:46Z</time>
      </trkpt>
      <trkpt lat="38.201002" lon="-1.522464">
        <ele>328.9</ele>
        <time>2017-02-25T10:15:47Z</time>
      </trkpt>
      <trkpt lat="38.200995" lon="-1.522475">
        <ele>329.4</ele>
        <time>2017-02-25T10:15:48Z</time>
      </trkpt>
      <trkpt lat="38.200989" lon="-1.522488">
        <ele>329.4</ele>
        <time>2017-02-25T10:15:49Z</time>
      </trkpt>
      <trkpt lat="38.200980" lon="-1.522499">
        <ele>329.4</ele>
        <time>2017-02-25T10:15:50Z</time>
      </trkpt>
      <trkpt lat="38.200970" lon="-1.522506">
        <ele>329.9</ele>
        <time>2017-02-25T10:15:51Z</time>
      </trkpt>
      <trkpt lat="38.200951" lon="-1.522520">
        <ele>329.9</ele>
        <time>2017-02-25T10:15:53Z</time>
      </trkpt>
      <trkpt lat="38.200943" lon="-1.522532">
        <ele>330.4</ele>
        <time>2017-02-25T10:15:54Z</time>
      </trkpt>
      <trkpt lat="38.200936" lon="-1.522545">
        <ele>330.4</ele>
        <time>2017-02-25T10:15:55Z</time>
      </trkpt>
      <trkpt lat="38.200926" lon="-1.522556">
        <ele>330.4</ele>
        <time>2017-02-25T10:15:56Z</time>
      </trkpt>
      <trkpt lat="38.200915" lon="-1.522564">
        <ele>330.8</ele>
        <time>2017-02-25T10:15:57Z</time>
      </trkpt>
      <trkpt lat="38.200905" lon="-1.522571">
        <ele>330.8</ele>
        <time>2017-02-25T10:15:58Z</time>
      </trkpt>
      <trkpt lat="38.200898" lon="-1.522579">
        <ele>331.3</ele>
        <time>2017-02-25T10:15:59Z</time>
      </trkpt>
      <trkpt lat="38.200891" lon="-1.522590">
        <ele>330.8</ele>
        <time>2017-02-25T10:16:00Z</time>
      </trkpt>
      <trkpt lat="38.200882" lon="-1.522601">
        <ele>331.3</ele>
        <time>2017-02-25T10:16:01Z</time>
      </trkpt>
      <trkpt lat="38.200849" lon="-1.522629">
        <ele>331.8</ele>
        <time>2017-02-25T10:16:04Z</time>
      </trkpt>
      <trkpt lat="38.200838" lon="-1.522636">
        <ele>331.8</ele>
        <time>2017-02-25T10:16:05Z</time>
      </trkpt>
      <trkpt lat="38.200828" lon="-1.522647">
        <ele>332.3</ele>
        <time>2017-02-25T10:16:06Z</time>
      </trkpt>
      <trkpt lat="38.200816" lon="-1.522658">
        <ele>332.3</ele>
        <time>2017-02-25T10:16:07Z</time>
      </trkpt>
      <trkpt lat="38.200805" lon="-1.522665">
        <ele>332.3</ele>
        <time>2017-02-25T10:16:08Z</time>
      </trkpt>
      <trkpt lat="38.200713" lon="-1.522743">
        <ele>335.2</ele>
        <time>2017-02-25T10:16:18Z</time>
      </trkpt>
      <trkpt lat="38.200595" lon="-1.522813">
        <ele>331.8</ele>
        <time>2017-02-25T10:16:30Z</time>
      </trkpt>
      <trkpt lat="38.200584" lon="-1.522818">
        <ele>332.3</ele>
        <time>2017-02-25T10:16:31Z</time>
      </trkpt>
      <trkpt lat="38.200418" lon="-1.522923">
        <ele>335.2</ele>
        <time>2017-02-25T10:16:47Z</time>
      </trkpt>
      <trkpt lat="38.200224" lon="-1.523044">
        <ele>335.2</ele>
        <time>2017-02-25T10:17:06Z</time>
      </trkpt>
      <trkpt lat="38.200044" lon="-1.523170">
        <ele>337.1</ele>
        <time>2017-02-25T10:17:22Z</time>
      </trkpt>
      <trkpt lat="38.199891" lon="-1.523250">
        <ele>339.0</ele>
        <time>2017-02-25T10:17:37Z</time>
      </trkpt>
      <trkpt lat="38.199835" lon="-1.523271">
        <ele>339.5</ele>
        <time>2017-02-25T10:17:43Z</time>
      </trkpt>
      <trkpt lat="38.199823" lon="-1.523273">
        <ele>340.0</ele>
        <time>2017-02-25T10:17:44Z</time>
      </trkpt>
      <trkpt lat="38.199812" lon="-1.523278">
        <ele>339.5</ele>
        <time>2017-02-25T10:17:45Z</time>
      </trkpt>
      <trkpt lat="38.199752" lon="-1.523342">
        <ele>340.4</ele>
        <time>2017-02-25T10:17:59Z</time>
      </trkpt>
      <trkpt lat="38.199753" lon="-1.523341">
        <ele>340.0</ele>
        <time>2017-02-25T10:18:15Z</time>
      </trkpt>
      <trkpt lat="38.199752" lon="-1.523366">
        <ele>339.5</ele>
        <time>2017-02-25T10:18:33Z</time>
      </trkpt>
      <trkpt lat="38.199800" lon="-1.523534">
        <ele>340.4</ele>
        <time>2017-02-25T10:18:48Z</time>
      </trkpt>
      <trkpt lat="38.199864" lon="-1.523769">
        <ele>339.0</ele>
        <time>2017-02-25T10:19:06Z</time>
      </trkpt>
      <trkpt lat="38.199955" lon="-1.524005">
        <ele>337.6</ele>
        <time>2017-02-25T10:19:23Z</time>
      </trkpt>
      <trkpt lat="38.199967" lon="-1.524043">
        <ele>337.1</ele>
        <time>2017-02-25T10:19:26Z</time>
      </trkpt>
      <trkpt lat="38.199969" lon="-1.524061">
        <ele>337.1</ele>
        <time>2017-02-25T10:19:27Z</time>
      </trkpt>
      <trkpt lat="38.200057" lon="-1.524357">
        <ele>335.6</ele>
        <time>2017-02-25T10:19:46Z</time>
      </trkpt>
      <trkpt lat="38.200084" lon="-1.524486">
        <ele>334.2</ele>
        <time>2017-02-25T10:19:55Z</time>
      </trkpt>
      <trkpt lat="38.200087" lon="-1.524502">
        <ele>333.7</ele>
        <time>2017-02-25T10:19:56Z</time>
      </trkpt>
      <trkpt lat="38.200094" lon="-1.524518">
        <ele>333.7</ele>
        <time>2017-02-25T10:19:57Z</time>
      </trkpt>
      <trkpt lat="38.200096" lon="-1.524535">
        <ele>333.2</ele>
        <time>2017-02-25T10:19:58Z</time>
      </trkpt>
      <trkpt lat="38.200099" lon="-1.524552">
        <ele>333.2</ele>
        <time>2017-02-25T10:19:59Z</time>
      </trkpt>
      <trkpt lat="38.200101" lon="-1.524571">
        <ele>332.8</ele>
        <time>2017-02-25T10:20:00Z</time>
      </trkpt>
      <trkpt lat="38.200147" lon="-1.524747">
        <ele>329.9</ele>
        <time>2017-02-25T10:20:11Z</time>
      </trkpt>
      <trkpt lat="38.200151" lon="-1.524763">
        <ele>333.2</ele>
        <time>2017-02-25T10:20:12Z</time>
      </trkpt>
      <trkpt lat="38.200197" lon="-1.525024">
        <ele>331.8</ele>
        <time>2017-02-25T10:20:26Z</time>
      </trkpt>
      <trkpt lat="38.200247" lon="-1.525177">
        <ele>331.8</ele>
        <time>2017-02-25T10:20:35Z</time>
      </trkpt>
      <trkpt lat="38.200255" lon="-1.525188">
        <ele>331.8</ele>
        <time>2017-02-25T10:20:36Z</time>
      </trkpt>
      <trkpt lat="38.200266" lon="-1.525199">
        <ele>332.3</ele>
        <time>2017-02-25T10:20:37Z</time>
      </trkpt>
      <trkpt lat="38.200307" lon="-1.525293">
        <ele>333.7</ele>
        <time>2017-02-25T10:20:43Z</time>
      </trkpt>
      <trkpt lat="38.200320" lon="-1.525309">
        <ele>334.2</ele>
        <time>2017-02-25T10:20:44Z</time>
      </trkpt>
      <trkpt lat="38.200327" lon="-1.525324">
        <ele>333.7</ele>
        <time>2017-02-25T10:20:45Z</time>
      </trkpt>
      <trkpt lat="38.200331" lon="-1.525337">
        <ele>334.2</ele>
        <time>2017-02-25T10:20:46Z</time>
      </trkpt>
      <trkpt lat="38.200335" lon="-1.525350">
        <ele>334.2</ele>
        <time>2017-02-25T10:20:47Z</time>
      </trkpt>
      <trkpt lat="38.200378" lon="-1.525476">
        <ele>334.7</ele>
        <time>2017-02-25T10:20:56Z</time>
      </trkpt>
      <trkpt lat="38.200380" lon="-1.525490">
        <ele>334.7</ele>
        <time>2017-02-25T10:20:57Z</time>
      </trkpt>
      <trkpt lat="38.200384" lon="-1.525503">
        <ele>335.2</ele>
        <time>2017-02-25T10:20:58Z</time>
      </trkpt>
      <trkpt lat="38.200389" lon="-1.525517">
        <ele>334.7</ele>
        <time>2017-02-25T10:20:59Z</time>
      </trkpt>
      <trkpt lat="38.200391" lon="-1.525534">
        <ele>334.2</ele>
        <time>2017-02-25T10:21:00Z</time>
      </trkpt>
      <trkpt lat="38.200433" lon="-1.525768">
        <ele>333.7</ele>
        <time>2017-02-25T10:21:17Z</time>
      </trkpt>
      <trkpt lat="38.200436" lon="-1.525779">
        <ele>333.7</ele>
        <time>2017-02-25T10:21:19Z</time>
      </trkpt>
      <trkpt lat="38.200435" lon="-1.525799">
        <ele>333.7</ele>
        <time>2017-02-25T10:21:20Z</time>
      </trkpt>
      <trkpt lat="38.200454" lon="-1.525999">
        <ele>333.2</ele>
        <time>2017-02-25T10:21:31Z</time>
      </trkpt>
      <trkpt lat="38.200459" lon="-1.526017">
        <ele>333.2</ele>
        <time>2017-02-25T10:21:32Z</time>
      </trkpt>
      <trkpt lat="38.200465" lon="-1.526034">
        <ele>332.8</ele>
        <time>2017-02-25T10:21:33Z</time>
      </trkpt>
      <trkpt lat="38.200497" lon="-1.526197">
        <ele>332.3</ele>
        <time>2017-02-25T10:21:42Z</time>
      </trkpt>
      <trkpt lat="38.200503" lon="-1.526217">
        <ele>331.3</ele>
        <time>2017-02-25T10:21:43Z</time>
      </trkpt>
      <trkpt lat="38.200510" lon="-1.526235">
        <ele>332.3</ele>
        <time>2017-02-25T10:21:44Z</time>
      </trkpt>
      <trkpt lat="38.200517" lon="-1.526256">
        <ele>332.3</ele>
        <time>2017-02-25T10:21:45Z</time>
      </trkpt>
      <trkpt lat="38.200525" lon="-1.526275">
        <ele>332.3</ele>
        <time>2017-02-25T10:21:46Z</time>
      </trkpt>
      <trkpt lat="38.200529" lon="-1.526293">
        <ele>332.3</ele>
        <time>2017-02-25T10:21:47Z</time>
      </trkpt>
      <trkpt lat="38.200528" lon="-1.526313">
        <ele>332.3</ele>
        <time>2017-02-25T10:21:48Z</time>
      </trkpt>
      <trkpt lat="38.200530" lon="-1.526330">
        <ele>332.3</ele>
        <time>2017-02-25T10:21:49Z</time>
      </trkpt>
      <trkpt lat="38.200531" lon="-1.526347">
        <ele>332.3</ele>
        <time>2017-02-25T10:21:50Z</time>
      </trkpt>
      <trkpt lat="38.200484" lon="-1.526604">
        <ele>332.3</ele>
        <time>2017-02-25T10:22:04Z</time>
      </trkpt>
      <trkpt lat="38.200476" lon="-1.526841">
        <ele>330.8</ele>
        <time>2017-02-25T10:22:17Z</time>
      </trkpt>
      <trkpt lat="38.200486" lon="-1.526855">
        <ele>330.4</ele>
        <time>2017-02-25T10:22:18Z</time>
      </trkpt>
      <trkpt lat="38.200498" lon="-1.526868">
        <ele>330.4</ele>
        <time>2017-02-25T10:22:19Z</time>
      </trkpt>
      <trkpt lat="38.200510" lon="-1.526882">
        <ele>329.9</ele>
        <time>2017-02-25T10:22:20Z</time>
      </trkpt>
      <trkpt lat="38.200521" lon="-1.526893">
        <ele>329.9</ele>
        <time>2017-02-25T10:22:21Z</time>
      </trkpt>
      <trkpt lat="38.200536" lon="-1.526900">
        <ele>330.4</ele>
        <time>2017-02-25T10:22:22Z</time>
      </trkpt>
      <trkpt lat="38.200550" lon="-1.526904">
        <ele>330.4</ele>
        <time>2017-02-25T10:22:23Z</time>
      </trkpt>
      <trkpt lat="38.200563" lon="-1.526905">
        <ele>330.8</ele>
        <time>2017-02-25T10:22:24Z</time>
      </trkpt>
      <trkpt lat="38.200695" lon="-1.526970">
        <ele>331.3</ele>
        <time>2017-02-25T10:22:35Z</time>
      </trkpt>
      <trkpt lat="38.200792" lon="-1.527253">
        <ele>328.9</ele>
        <time>2017-02-25T10:22:52Z</time>
      </trkpt>
      <trkpt lat="38.200797" lon="-1.527269">
        <ele>328.4</ele>
        <time>2017-02-25T10:22:53Z</time>
      </trkpt>
      <trkpt lat="38.200801" lon="-1.527302">
        <ele>328.9</ele>
        <time>2017-02-25T10:22:55Z</time>
      </trkpt>
      <trkpt lat="38.200805" lon="-1.527319">
        <ele>328.9</ele>
        <time>2017-02-25T10:22:56Z</time>
      </trkpt>
      <trkpt lat="38.200808" lon="-1.527336">
        <ele>329.4</ele>
        <time>2017-02-25T10:22:57Z</time>
      </trkpt>
      <trkpt lat="38.200841" lon="-1.527447">
        <ele>330.4</ele>
        <time>2017-02-25T10:23:05Z</time>
      </trkpt>
      <trkpt lat="38.200842" lon="-1.527463">
        <ele>330.4</ele>
        <time>2017-02-25T10:23:06Z</time>
      </trkpt>
      <trkpt lat="38.200845" lon="-1.527482">
        <ele>330.8</ele>
        <time>2017-02-25T10:23:07Z</time>
      </trkpt>
      <trkpt lat="38.200850" lon="-1.527499">
        <ele>330.4</ele>
        <time>2017-02-25T10:23:08Z</time>
      </trkpt>
      <trkpt lat="38.200856" lon="-1.527517">
        <ele>330.4</ele>
        <time>2017-02-25T10:23:09Z</time>
      </trkpt>
      <trkpt lat="38.200861" lon="-1.527534">
        <ele>330.4</ele>
        <time>2017-02-25T10:23:10Z</time>
      </trkpt>
      <trkpt lat="38.200902" lon="-1.527750">
        <ele>331.3</ele>
        <time>2017-02-25T10:23:22Z</time>
      </trkpt>
      <trkpt lat="38.200918" lon="-1.527801">
        <ele>330.8</ele>
        <time>2017-02-25T10:23:26Z</time>
      </trkpt>
      <trkpt lat="38.200991" lon="-1.527903">
        <ele>331.8</ele>
        <time>2017-02-25T10:23:35Z</time>
      </trkpt>
      <trkpt lat="38.201006" lon="-1.527907">
        <ele>331.8</ele>
        <time>2017-02-25T10:23:36Z</time>
      </trkpt>
      <trkpt lat="38.201022" lon="-1.527910">
        <ele>331.3</ele>
        <time>2017-02-25T10:23:37Z</time>
      </trkpt>
      <trkpt lat="38.201037" lon="-1.527907">
        <ele>331.8</ele>
        <time>2017-02-25T10:23:38Z</time>
      </trkpt>
      <trkpt lat="38.201053" lon="-1.527904">
        <ele>331.3</ele>
        <time>2017-02-25T10:23:39Z</time>
      </trkpt>
      <trkpt lat="38.201068" lon="-1.527898">
        <ele>332.3</ele>
        <time>2017-02-25T10:23:40Z</time>
      </trkpt>
      <trkpt lat="38.201085" lon="-1.527890">
        <ele>331.8</ele>
        <time>2017-02-25T10:23:41Z</time>
      </trkpt>
      <trkpt lat="38.201101" lon="-1.527880">
        <ele>331.8</ele>
        <time>2017-02-25T10:23:42Z</time>
      </trkpt>
      <trkpt lat="38.201113" lon="-1.527868">
        <ele>331.8</ele>
        <time>2017-02-25T10:23:43Z</time>
      </trkpt>
      <trkpt lat="38.201124" lon="-1.527857">
        <ele>331.8</ele>
        <time>2017-02-25T10:23:44Z</time>
      </trkpt>
      <trkpt lat="38.201137" lon="-1.527845">
        <ele>331.3</ele>
        <time>2017-02-25T10:23:45Z</time>
      </trkpt>
      <trkpt lat="38.201149" lon="-1.527834">
        <ele>331.8</ele>
        <time>2017-02-25T10:23:46Z</time>
      </trkpt>
      <trkpt lat="38.201166" lon="-1.527810">
        <ele>331.8</ele>
        <time>2017-02-25T10:23:48Z</time>
      </trkpt>
      <trkpt lat="38.201171" lon="-1.527792">
        <ele>331.8</ele>
        <time>2017-02-25T10:23:49Z</time>
      </trkpt>
      <trkpt lat="38.201173" lon="-1.527776">
        <ele>332.3</ele>
        <time>2017-02-25T10:23:50Z</time>
      </trkpt>
      <trkpt lat="38.201177" lon="-1.527758">
        <ele>331.8</ele>
        <time>2017-02-25T10:23:51Z</time>
      </trkpt>
      <trkpt lat="38.201183" lon="-1.527739">
        <ele>331.8</ele>
        <time>2017-02-25T10:23:52Z</time>
      </trkpt>
      <trkpt lat="38.201190" lon="-1.527723">
        <ele>331.3</ele>
        <time>2017-02-25T10:23:53Z</time>
      </trkpt>
      <trkpt lat="38.201197" lon="-1.527706">
        <ele>331.3</ele>
        <time>2017-02-25T10:23:54Z</time>
      </trkpt>
      <trkpt lat="38.201204" lon="-1.527688">
        <ele>331.3</ele>
        <time>2017-02-25T10:23:55Z</time>
      </trkpt>
      <trkpt lat="38.201209" lon="-1.527669">
        <ele>331.8</ele>
        <time>2017-02-25T10:23:56Z</time>
      </trkpt>
      <trkpt lat="38.201213" lon="-1.527651">
        <ele>331.3</ele>
        <time>2017-02-25T10:23:57Z</time>
      </trkpt>
      <trkpt lat="38.201220" lon="-1.527635">
        <ele>331.8</ele>
        <time>2017-02-25T10:23:58Z</time>
      </trkpt>
      <trkpt lat="38.201225" lon="-1.527617">
        <ele>331.8</ele>
        <time>2017-02-25T10:23:59Z</time>
      </trkpt>
      <trkpt lat="38.201227" lon="-1.527600">
        <ele>331.3</ele>
        <time>2017-02-25T10:24:00Z</time>
      </trkpt>
      <trkpt lat="38.201228" lon="-1.527583">
        <ele>331.3</ele>
        <time>2017-02-25T10:24:01Z</time>
      </trkpt>
      <trkpt lat="38.201229" lon="-1.527567">
        <ele>331.8</ele>
        <time>2017-02-25T10:24:02Z</time>
      </trkpt>
      <trkpt lat="38.201233" lon="-1.527552">
        <ele>331.8</ele>
        <time>2017-02-25T10:24:03Z</time>
      </trkpt>
      <trkpt lat="38.201239" lon="-1.527536">
        <ele>331.8</ele>
        <time>2017-02-25T10:24:04Z</time>
      </trkpt>
      <trkpt lat="38.201248" lon="-1.527521">
        <ele>331.8</ele>
        <time>2017-02-25T10:24:05Z</time>
      </trkpt>
      <trkpt lat="38.201260" lon="-1.527507">
        <ele>331.3</ele>
        <time>2017-02-25T10:24:06Z</time>
      </trkpt>
      <trkpt lat="38.201273" lon="-1.527489">
        <ele>331.8</ele>
        <time>2017-02-25T10:24:07Z</time>
      </trkpt>
      <trkpt lat="38.201281" lon="-1.527471">
        <ele>331.8</ele>
        <time>2017-02-25T10:24:08Z</time>
      </trkpt>
      <trkpt lat="38.201286" lon="-1.527455">
        <ele>331.3</ele>
        <time>2017-02-25T10:24:09Z</time>
      </trkpt>
      <trkpt lat="38.201295" lon="-1.527441">
        <ele>331.8</ele>
        <time>2017-02-25T10:24:10Z</time>
      </trkpt>
      <trkpt lat="38.201306" lon="-1.527425">
        <ele>331.8</ele>
        <time>2017-02-25T10:24:11Z</time>
      </trkpt>
      <trkpt lat="38.201315" lon="-1.527408">
        <ele>331.8</ele>
        <time>2017-02-25T10:24:12Z</time>
      </trkpt>
      <trkpt lat="38.201319" lon="-1.527391">
        <ele>331.8</ele>
        <time>2017-02-25T10:24:13Z</time>
      </trkpt>
      <trkpt lat="38.201324" lon="-1.527374">
        <ele>331.3</ele>
        <time>2017-02-25T10:24:14Z</time>
      </trkpt>
      <trkpt lat="38.201328" lon="-1.527355">
        <ele>331.3</ele>
        <time>2017-02-25T10:24:15Z</time>
      </trkpt>
      <trkpt lat="38.201334" lon="-1.527337">
        <ele>331.3</ele>
        <time>2017-02-25T10:24:16Z</time>
      </trkpt>
      <trkpt lat="38.201341" lon="-1.527323">
        <ele>331.3</ele>
        <time>2017-02-25T10:24:17Z</time>
      </trkpt>
      <trkpt lat="38.201349" lon="-1.527307">
        <ele>331.3</ele>
        <time>2017-02-25T10:24:18Z</time>
      </trkpt>
      <trkpt lat="38.201357" lon="-1.527293">
        <ele>331.3</ele>
        <time>2017-02-25T10:24:19Z</time>
      </trkpt>
      <trkpt lat="38.201367" lon="-1.527285">
        <ele>330.4</ele>
        <time>2017-02-25T10:24:20Z</time>
      </trkpt>
      <trkpt lat="38.201377" lon="-1.527274">
        <ele>330.4</ele>
        <time>2017-02-25T10:24:21Z</time>
      </trkpt>
      <trkpt lat="38.201384" lon="-1.527261">
        <ele>330.4</ele>
        <time>2017-02-25T10:24:22Z</time>
      </trkpt>
      <trkpt lat="38.201389" lon="-1.527248">
        <ele>329.9</ele>
        <time>2017-02-25T10:24:23Z</time>
      </trkpt>
      <trkpt lat="38.201397" lon="-1.527235">
        <ele>329.9</ele>
        <time>2017-02-25T10:24:24Z</time>
      </trkpt>
      <trkpt lat="38.201407" lon="-1.527224">
        <ele>329.4</ele>
        <time>2017-02-25T10:24:25Z</time>
      </trkpt>
      <trkpt lat="38.201418" lon="-1.527218">
        <ele>329.4</ele>
        <time>2017-02-25T10:24:26Z</time>
      </trkpt>
      <trkpt lat="38.201430" lon="-1.527208">
        <ele>329.4</ele>
        <time>2017-02-25T10:24:27Z</time>
      </trkpt>
      <trkpt lat="38.201442" lon="-1.527200">
        <ele>329.9</ele>
        <time>2017-02-25T10:24:28Z</time>
      </trkpt>
      <trkpt lat="38.201457" lon="-1.527192">
        <ele>329.9</ele>
        <time>2017-02-25T10:24:29Z</time>
      </trkpt>
      <trkpt lat="38.201670" lon="-1.527220">
        <ele>328.9</ele>
        <time>2017-02-25T10:24:45Z</time>
      </trkpt>
      <trkpt lat="38.201763" lon="-1.527261">
        <ele>327.5</ele>
        <time>2017-02-25T10:24:53Z</time>
      </trkpt>
      <trkpt lat="38.201776" lon="-1.527262">
        <ele>327.5</ele>
        <time>2017-02-25T10:24:54Z</time>
      </trkpt>
      <trkpt lat="38.201813" lon="-1.527277">
        <ele>327.5</ele>
        <time>2017-02-25T10:24:57Z</time>
      </trkpt>
      <trkpt lat="38.201829" lon="-1.527282">
        <ele>327.5</ele>
        <time>2017-02-25T10:24:58Z</time>
      </trkpt>
      <trkpt lat="38.202015" lon="-1.527310">
        <ele>325.1</ele>
        <time>2017-02-25T10:25:12Z</time>
      </trkpt>
      <trkpt lat="38.202230" lon="-1.527389">
        <ele>324.1</ele>
        <time>2017-02-25T10:25:28Z</time>
      </trkpt>
      <trkpt lat="38.202427" lon="-1.527469">
        <ele>322.2</ele>
        <time>2017-02-25T10:25:43Z</time>
      </trkpt>
      <trkpt lat="38.202512" lon="-1.527511">
        <ele>320.7</ele>
        <time>2017-02-25T10:25:50Z</time>
      </trkpt>
      <trkpt lat="38.202527" lon="-1.527515">
        <ele>320.7</ele>
        <time>2017-02-25T10:25:51Z</time>
      </trkpt>
      <trkpt lat="38.202541" lon="-1.527521">
        <ele>320.3</ele>
        <time>2017-02-25T10:25:52Z</time>
      </trkpt>
      <trkpt lat="38.202742" lon="-1.527647">
        <ele>319.3</ele>
        <time>2017-02-25T10:26:09Z</time>
      </trkpt>
      <trkpt lat="38.202792" lon="-1.527678">
        <ele>318.8</ele>
        <time>2017-02-25T10:26:24Z</time>
      </trkpt>
      <trkpt lat="38.202880" lon="-1.527719">
        <ele>318.3</ele>
        <time>2017-02-25T10:26:37Z</time>
      </trkpt>
      <trkpt lat="38.202930" lon="-1.527740">
        <ele>317.9</ele>
        <time>2017-02-25T10:26:57Z</time>
      </trkpt>
      <trkpt lat="38.202941" lon="-1.527749">
        <ele>317.9</ele>
        <time>2017-02-25T10:26:58Z</time>
      </trkpt>
      <trkpt lat="38.203111" lon="-1.527882">
        <ele>316.9</ele>
        <time>2017-02-25T10:27:14Z</time>
      </trkpt>
      <trkpt lat="38.203278" lon="-1.528016">
        <ele>315.9</ele>
        <time>2017-02-25T10:27:30Z</time>
      </trkpt>
      <trkpt lat="38.203401" lon="-1.528115">
        <ele>315.5</ele>
        <time>2017-02-25T10:27:40Z</time>
      </trkpt>
      <trkpt lat="38.203545" lon="-1.528194">
        <ele>314.0</ele>
        <time>2017-02-25T10:27:52Z</time>
      </trkpt>
      <trkpt lat="38.203556" lon="-1.528203">
        <ele>314.0</ele>
        <time>2017-02-25T10:27:53Z</time>
      </trkpt>
      <trkpt lat="38.203570" lon="-1.528212">
        <ele>314.0</ele>
        <time>2017-02-25T10:27:54Z</time>
      </trkpt>
      <trkpt lat="38.203581" lon="-1.528222">
        <ele>314.0</ele>
        <time>2017-02-25T10:27:55Z</time>
      </trkpt>
      <trkpt lat="38.203593" lon="-1.528230">
        <ele>314.0</ele>
        <time>2017-02-25T10:27:56Z</time>
      </trkpt>
      <trkpt lat="38.203792" lon="-1.528387">
        <ele>312.6</ele>
        <time>2017-02-25T10:28:12Z</time>
      </trkpt>
      <trkpt lat="38.203907" lon="-1.528474">
        <ele>311.6</ele>
        <time>2017-02-25T10:28:22Z</time>
      </trkpt>
      <trkpt lat="38.203917" lon="-1.528486">
        <ele>312.1</ele>
        <time>2017-02-25T10:28:23Z</time>
      </trkpt>
      <trkpt lat="38.203932" lon="-1.528496">
        <ele>312.1</ele>
        <time>2017-02-25T10:28:24Z</time>
      </trkpt>
      <trkpt lat="38.204104" lon="-1.528616">
        <ele>310.6</ele>
        <time>2017-02-25T10:28:38Z</time>
      </trkpt>
      <trkpt lat="38.204300" lon="-1.528772">
        <ele>310.2</ele>
        <time>2017-02-25T10:28:55Z</time>
      </trkpt>
      <trkpt lat="38.204472" lon="-1.528797">
        <ele>308.7</ele>
        <time>2017-02-25T10:29:07Z</time>
      </trkpt>
      <trkpt lat="38.204485" lon="-1.528793">
        <ele>308.7</ele>
        <time>2017-02-25T10:29:08Z</time>
      </trkpt>
      <trkpt lat="38.204496" lon="-1.528788">
        <ele>308.2</ele>
        <time>2017-02-25T10:29:09Z</time>
      </trkpt>
      <trkpt lat="38.204575" lon="-1.528770">
        <ele>307.8</ele>
        <time>2017-02-25T10:29:15Z</time>
      </trkpt>
      <trkpt lat="38.204698" lon="-1.528760">
        <ele>307.8</ele>
        <time>2017-02-25T10:29:29Z</time>
      </trkpt>
      <trkpt lat="38.204757" lon="-1.528741">
        <ele>307.8</ele>
        <time>2017-02-25T10:29:51Z</time>
      </trkpt>
      <trkpt lat="38.204786" lon="-1.528741">
        <ele>307.8</ele>
        <time>2017-02-25T10:29:54Z</time>
      </trkpt>
      <trkpt lat="38.204853" lon="-1.528738">
        <ele>306.8</ele>
        <time>2017-02-25T10:29:59Z</time>
      </trkpt>
      <trkpt lat="38.205029" lon="-1.528697">
        <ele>306.3</ele>
        <time>2017-02-25T10:30:12Z</time>
      </trkpt>
      <trkpt lat="38.205098" lon="-1.528685">
        <ele>305.8</ele>
        <time>2017-02-25T10:30:17Z</time>
      </trkpt>
      <trkpt lat="38.205366" lon="-1.528630">
        <ele>303.9</ele>
        <time>2017-02-25T10:30:36Z</time>
      </trkpt>
      <trkpt lat="38.205568" lon="-1.528586">
        <ele>303.4</ele>
        <time>2017-02-25T10:30:52Z</time>
      </trkpt>
      <trkpt lat="38.205616" lon="-1.528574">
        <ele>303.0</ele>
        <time>2017-02-25T10:30:55Z</time>
      </trkpt>
      <trkpt lat="38.205837" lon="-1.528508">
        <ele>301.5</ele>
        <time>2017-02-25T10:31:11Z</time>
      </trkpt>
      <trkpt lat="38.206084" lon="-1.528428">
        <ele>302.0</ele>
        <time>2017-02-25T10:31:28Z</time>
      </trkpt>
      <trkpt lat="38.206267" lon="-1.528360">
        <ele>302.0</ele>
        <time>2017-02-25T10:31:41Z</time>
      </trkpt>
      <trkpt lat="38.206440" lon="-1.528329">
        <ele>303.4</ele>
        <time>2017-02-25T10:31:54Z</time>
      </trkpt>
      <trkpt lat="38.206648" lon="-1.528351">
        <ele>302.5</ele>
        <time>2017-02-25T10:32:09Z</time>
      </trkpt>
      <trkpt lat="38.206896" lon="-1.528367">
        <ele>301.0</ele>
        <time>2017-02-25T10:32:26Z</time>
      </trkpt>
      <trkpt lat="38.206994" lon="-1.528333">
        <ele>301.0</ele>
        <time>2017-02-25T10:32:32Z</time>
      </trkpt>
      <trkpt lat="38.207006" lon="-1.528325">
        <ele>301.5</ele>
        <time>2017-02-25T10:32:33Z</time>
      </trkpt>
      <trkpt lat="38.207020" lon="-1.528319">
        <ele>301.5</ele>
        <time>2017-02-25T10:32:34Z</time>
      </trkpt>
      <trkpt lat="38.207196" lon="-1.528205">
        <ele>302.0</ele>
        <time>2017-02-25T10:32:48Z</time>
      </trkpt>
      <trkpt lat="38.207340" lon="-1.528083">
        <ele>302.5</ele>
        <time>2017-02-25T10:33:01Z</time>
      </trkpt>
      <trkpt lat="38.207517" lon="-1.527907">
        <ele>303.4</ele>
        <time>2017-02-25T10:33:16Z</time>
      </trkpt>
      <trkpt lat="38.207580" lon="-1.527872">
        <ele>303.4</ele>
        <time>2017-02-25T10:33:21Z</time>
      </trkpt>
      <trkpt lat="38.207589" lon="-1.527860">
        <ele>303.4</ele>
        <time>2017-02-25T10:33:22Z</time>
      </trkpt>
      <trkpt lat="38.207600" lon="-1.527848">
        <ele>303.4</ele>
        <time>2017-02-25T10:33:23Z</time>
      </trkpt>
      <trkpt lat="38.207723" lon="-1.527635">
        <ele>303.0</ele>
        <time>2017-02-25T10:33:37Z</time>
      </trkpt>
      <trkpt lat="38.207727" lon="-1.527618">
        <ele>303.4</ele>
        <time>2017-02-25T10:33:38Z</time>
      </trkpt>
      <trkpt lat="38.207737" lon="-1.527604">
        <ele>303.9</ele>
        <time>2017-02-25T10:33:39Z</time>
      </trkpt>
      <trkpt lat="38.207856" lon="-1.527433">
        <ele>303.0</ele>
        <time>2017-02-25T10:33:51Z</time>
      </trkpt>
      <trkpt lat="38.207862" lon="-1.527418">
        <ele>303.0</ele>
        <time>2017-02-25T10:33:52Z</time>
      </trkpt>
      <trkpt lat="38.207868" lon="-1.527404">
        <ele>302.0</ele>
        <time>2017-02-25T10:33:53Z</time>
      </trkpt>
      <trkpt lat="38.207929" lon="-1.527312">
        <ele>301.5</ele>
        <time>2017-02-25T10:34:00Z</time>
      </trkpt>
      <trkpt lat="38.207938" lon="-1.527297">
        <ele>301.0</ele>
        <time>2017-02-25T10:34:01Z</time>
      </trkpt>
      <trkpt lat="38.207947" lon="-1.527283">
        <ele>301.5</ele>
        <time>2017-02-25T10:34:02Z</time>
      </trkpt>
      <trkpt lat="38.207956" lon="-1.527269">
        <ele>301.5</ele>
        <time>2017-02-25T10:34:03Z</time>
      </trkpt>
      <trkpt lat="38.207965" lon="-1.527256">
        <ele>301.5</ele>
        <time>2017-02-25T10:34:04Z</time>
      </trkpt>
      <trkpt lat="38.207975" lon="-1.527243">
        <ele>301.0</ele>
        <time>2017-02-25T10:34:05Z</time>
      </trkpt>
      <trkpt lat="38.208098" lon="-1.527007">
        <ele>300.1</ele>
        <time>2017-02-25T10:34:21Z</time>
      </trkpt>
      <trkpt lat="38.208209" lon="-1.526808">
        <ele>300.1</ele>
        <time>2017-02-25T10:34:34Z</time>
      </trkpt>
      <trkpt lat="38.208219" lon="-1.526781">
        <ele>299.1</ele>
        <time>2017-02-25T10:34:36Z</time>
      </trkpt>
      <trkpt lat="38.208224" lon="-1.526765">
        <ele>299.1</ele>
        <time>2017-02-25T10:34:37Z</time>
      </trkpt>
      <trkpt lat="38.208229" lon="-1.526750">
        <ele>299.1</ele>
        <time>2017-02-25T10:34:38Z</time>
      </trkpt>
      <trkpt lat="38.208313" lon="-1.526594">
        <ele>298.1</ele>
        <time>2017-02-25T10:34:49Z</time>
      </trkpt>
      <trkpt lat="38.208329" lon="-1.526565">
        <ele>297.2</ele>
        <time>2017-02-25T10:34:51Z</time>
      </trkpt>
      <trkpt lat="38.208342" lon="-1.526556">
        <ele>297.2</ele>
        <time>2017-02-25T10:34:52Z</time>
      </trkpt>
      <trkpt lat="38.208386" lon="-1.526552">
        <ele>296.7</ele>
        <time>2017-02-25T10:34:56Z</time>
      </trkpt>
      <trkpt lat="38.208478" lon="-1.526661">
        <ele>295.7</ele>
        <time>2017-02-25T10:35:06Z</time>
      </trkpt>
      <trkpt lat="38.208483" lon="-1.526678">
        <ele>295.3</ele>
        <time>2017-02-25T10:35:07Z</time>
      </trkpt>
      <trkpt lat="38.208487" lon="-1.526694">
        <ele>295.3</ele>
        <time>2017-02-25T10:35:08Z</time>
      </trkpt>
      <trkpt lat="38.208490" lon="-1.526712">
        <ele>295.3</ele>
        <time>2017-02-25T10:35:09Z</time>
      </trkpt>
      <trkpt lat="38.208495" lon="-1.526728">
        <ele>295.3</ele>
        <time>2017-02-25T10:35:10Z</time>
      </trkpt>
      <trkpt lat="38.208500" lon="-1.526745">
        <ele>295.3</ele>
        <time>2017-02-25T10:35:11Z</time>
      </trkpt>
      <trkpt lat="38.208503" lon="-1.526763">
        <ele>294.8</ele>
        <time>2017-02-25T10:35:12Z</time>
      </trkpt>
      <trkpt lat="38.208506" lon="-1.526779">
        <ele>294.8</ele>
        <time>2017-02-25T10:35:13Z</time>
      </trkpt>
      <trkpt lat="38.208508" lon="-1.527078">
        <ele>293.3</ele>
        <time>2017-02-25T10:35:30Z</time>
      </trkpt>
      <trkpt lat="38.208514" lon="-1.527430">
        <ele>292.9</ele>
        <time>2017-02-25T10:35:48Z</time>
      </trkpt>
      <trkpt lat="38.208695" lon="-1.527625">
        <ele>290.9</ele>
        <time>2017-02-25T10:36:05Z</time>
      </trkpt>
      <trkpt lat="38.208910" lon="-1.527584">
        <ele>290.5</ele>
        <time>2017-02-25T10:36:19Z</time>
      </trkpt>
      <trkpt lat="38.209093" lon="-1.527422">
        <ele>289.0</ele>
        <time>2017-02-25T10:36:33Z</time>
      </trkpt>
      <trkpt lat="38.209252" lon="-1.527299">
        <ele>288.0</ele>
        <time>2017-02-25T10:36:45Z</time>
      </trkpt>
      <trkpt lat="38.209319" lon="-1.527291">
        <ele>287.6</ele>
        <time>2017-02-25T10:36:51Z</time>
      </trkpt>
      <trkpt lat="38.209330" lon="-1.527295">
        <ele>287.6</ele>
        <time>2017-02-25T10:36:52Z</time>
      </trkpt>
      <trkpt lat="38.209342" lon="-1.527300">
        <ele>287.1</ele>
        <time>2017-02-25T10:36:53Z</time>
      </trkpt>
      <trkpt lat="38.209355" lon="-1.527303">
        <ele>287.1</ele>
        <time>2017-02-25T10:36:54Z</time>
      </trkpt>
      <trkpt lat="38.209370" lon="-1.527307">
        <ele>287.1</ele>
        <time>2017-02-25T10:36:55Z</time>
      </trkpt>
      <trkpt lat="38.209387" lon="-1.527309">
        <ele>286.6</ele>
        <time>2017-02-25T10:36:56Z</time>
      </trkpt>
      <trkpt lat="38.209602" lon="-1.527350">
        <ele>283.2</ele>
        <time>2017-02-25T10:37:11Z</time>
      </trkpt>
      <trkpt lat="38.209629" lon="-1.527356">
        <ele>282.8</ele>
        <time>2017-02-25T10:37:13Z</time>
      </trkpt>
      <trkpt lat="38.209706" lon="-1.527432">
        <ele>281.3</ele>
        <time>2017-02-25T10:37:21Z</time>
      </trkpt>
      <trkpt lat="38.209709" lon="-1.527448">
        <ele>281.3</ele>
        <time>2017-02-25T10:37:22Z</time>
      </trkpt>
      <trkpt lat="38.209711" lon="-1.527464">
        <ele>281.3</ele>
        <time>2017-02-25T10:37:23Z</time>
      </trkpt>
      <trkpt lat="38.209590" lon="-1.527631">
        <ele>279.4</ele>
        <time>2017-02-25T10:37:37Z</time>
      </trkpt>
      <trkpt lat="38.209529" lon="-1.527682">
        <ele>278.0</ele>
        <time>2017-02-25T10:37:43Z</time>
      </trkpt>
      <trkpt lat="38.209518" lon="-1.527692">
        <ele>278.0</ele>
        <time>2017-02-25T10:37:44Z</time>
      </trkpt>
      <trkpt lat="38.209506" lon="-1.527704">
        <ele>277.5</ele>
        <time>2017-02-25T10:37:45Z</time>
      </trkpt>
      <trkpt lat="38.209383" lon="-1.527930">
        <ele>275.1</ele>
        <time>2017-02-25T10:38:01Z</time>
      </trkpt>
      <trkpt lat="38.209356" lon="-1.528037">
        <ele>274.6</ele>
        <time>2017-02-25T10:38:08Z</time>
      </trkpt>
      <trkpt lat="38.209350" lon="-1.528055">
        <ele>274.6</ele>
        <time>2017-02-25T10:38:09Z</time>
      </trkpt>
      <trkpt lat="38.209344" lon="-1.528074">
        <ele>274.6</ele>
        <time>2017-02-25T10:38:10Z</time>
      </trkpt>
      <trkpt lat="38.209234" lon="-1.528321">
        <ele>273.1</ele>
        <time>2017-02-25T10:38:27Z</time>
      </trkpt>
      <trkpt lat="38.209199" lon="-1.528331">
        <ele>272.7</ele>
        <time>2017-02-25T10:38:30Z</time>
      </trkpt>
      <trkpt lat="38.209185" lon="-1.528329">
        <ele>273.1</ele>
        <time>2017-02-25T10:38:31Z</time>
      </trkpt>
      <trkpt lat="38.209172" lon="-1.528325">
        <ele>273.1</ele>
        <time>2017-02-25T10:38:32Z</time>
      </trkpt>
      <trkpt lat="38.209158" lon="-1.528323">
        <ele>272.7</ele>
        <time>2017-02-25T10:38:33Z</time>
      </trkpt>
      <trkpt lat="38.209143" lon="-1.528322">
        <ele>272.7</ele>
        <time>2017-02-25T10:38:34Z</time>
      </trkpt>
      <trkpt lat="38.209129" lon="-1.528323">
        <ele>272.2</ele>
        <time>2017-02-25T10:38:35Z</time>
      </trkpt>
      <trkpt lat="38.209066" lon="-1.528345">
        <ele>271.7</ele>
        <time>2017-02-25T10:38:40Z</time>
      </trkpt>
      <trkpt lat="38.209058" lon="-1.528357">
        <ele>271.7</ele>
        <time>2017-02-25T10:38:41Z</time>
      </trkpt>
      <trkpt lat="38.209048" lon="-1.528369">
        <ele>271.2</ele>
        <time>2017-02-25T10:38:42Z</time>
      </trkpt>
      <trkpt lat="38.209039" lon="-1.528382">
        <ele>271.7</ele>
        <time>2017-02-25T10:38:43Z</time>
      </trkpt>
      <trkpt lat="38.209030" lon="-1.528398">
        <ele>271.2</ele>
        <time>2017-02-25T10:38:44Z</time>
      </trkpt>
      <trkpt lat="38.209026" lon="-1.528411">
        <ele>271.2</ele>
        <time>2017-02-25T10:38:45Z</time>
      </trkpt>
      <trkpt lat="38.209021" lon="-1.528428">
        <ele>271.2</ele>
        <time>2017-02-25T10:38:46Z</time>
      </trkpt>
      <trkpt lat="38.209016" lon="-1.528446">
        <ele>271.2</ele>
        <time>2017-02-25T10:38:47Z</time>
      </trkpt>
      <trkpt lat="38.209013" lon="-1.528463">
        <ele>270.8</ele>
        <time>2017-02-25T10:38:48Z</time>
      </trkpt>
      <trkpt lat="38.209044" lon="-1.528628">
        <ele>268.4</ele>
        <time>2017-02-25T10:39:02Z</time>
      </trkpt>
      <trkpt lat="38.209066" lon="-1.528627">
        <ele>268.4</ele>
        <time>2017-02-25T10:39:18Z</time>
      </trkpt>
      <trkpt lat="38.209104" lon="-1.528634">
        <ele>268.4</ele>
        <time>2017-02-25T10:39:36Z</time>
      </trkpt>
      <trkpt lat="38.209259" lon="-1.528612">
        <ele>268.8</ele>
        <time>2017-02-25T10:41:42Z</time>
      </trkpt>
      <trkpt lat="38.209313" lon="-1.528670">
        <ele>269.3</ele>
        <time>2017-02-25T10:41:50Z</time>
      </trkpt>
      <trkpt lat="38.209336" lon="-1.528684">
        <ele>269.8</ele>
        <time>2017-02-25T10:41:53Z</time>
      </trkpt>
      <trkpt lat="38.209349" lon="-1.528687">
        <ele>269.8</ele>
        <time>2017-02-25T10:41:54Z</time>
      </trkpt>
      <trkpt lat="38.209448" lon="-1.528763">
        <ele>270.3</ele>
        <time>2017-02-25T10:42:05Z</time>
      </trkpt>
      <trkpt lat="38.209562" lon="-1.528882">
        <ele>271.7</ele>
        <time>2017-02-25T10:42:19Z</time>
      </trkpt>
      <trkpt lat="38.209565" lon="-1.528903">
        <ele>271.7</ele>
        <time>2017-02-25T10:42:20Z</time>
      </trkpt>
      <trkpt lat="38.209566" lon="-1.528920">
        <ele>272.2</ele>
        <time>2017-02-25T10:42:21Z</time>
      </trkpt>
      <trkpt lat="38.209567" lon="-1.528936">
        <ele>271.7</ele>
        <time>2017-02-25T10:42:22Z</time>
      </trkpt>
      <trkpt lat="38.209565" lon="-1.528954">
        <ele>271.7</ele>
        <time>2017-02-25T10:42:23Z</time>
      </trkpt>
      <trkpt lat="38.209553" lon="-1.528989">
        <ele>272.2</ele>
        <time>2017-02-25T10:42:25Z</time>
      </trkpt>
      <trkpt lat="38.209539" lon="-1.529021">
        <ele>272.2</ele>
        <time>2017-02-25T10:42:27Z</time>
      </trkpt>
      <trkpt lat="38.209532" lon="-1.529033">
        <ele>271.7</ele>
        <time>2017-02-25T10:42:28Z</time>
      </trkpt>
      <trkpt lat="38.209522" lon="-1.529043">
        <ele>271.7</ele>
        <time>2017-02-25T10:42:29Z</time>
      </trkpt>
      <trkpt lat="38.209511" lon="-1.529052">
        <ele>271.7</ele>
        <time>2017-02-25T10:42:30Z</time>
      </trkpt>
      <trkpt lat="38.209500" lon="-1.529060">
        <ele>272.7</ele>
        <time>2017-02-25T10:42:31Z</time>
      </trkpt>
      <trkpt lat="38.209492" lon="-1.529067">
        <ele>272.7</ele>
        <time>2017-02-25T10:42:32Z</time>
      </trkpt>
      <trkpt lat="38.209324" lon="-1.529055">
        <ele>272.7</ele>
        <time>2017-02-25T10:42:46Z</time>
      </trkpt>
      <trkpt lat="38.209227" lon="-1.529020">
        <ele>272.7</ele>
        <time>2017-02-25T10:42:55Z</time>
      </trkpt>
      <trkpt lat="38.209098" lon="-1.528979">
        <ele>273.6</ele>
        <time>2017-02-25T10:43:06Z</time>
      </trkpt>
      <trkpt lat="38.209045" lon="-1.528980">
        <ele>274.6</ele>
        <time>2017-02-25T10:43:11Z</time>
      </trkpt>
      <trkpt lat="38.208951" lon="-1.529008">
        <ele>276.0</ele>
        <time>2017-02-25T10:43:18Z</time>
      </trkpt>
      <trkpt lat="38.208941" lon="-1.529024">
        <ele>276.0</ele>
        <time>2017-02-25T10:43:19Z</time>
      </trkpt>
      <trkpt lat="38.208932" lon="-1.529042">
        <ele>276.0</ele>
        <time>2017-02-25T10:43:20Z</time>
      </trkpt>
      <trkpt lat="38.208925" lon="-1.529060">
        <ele>276.5</ele>
        <time>2017-02-25T10:43:21Z</time>
      </trkpt>
      <trkpt lat="38.208920" lon="-1.529081">
        <ele>276.5</ele>
        <time>2017-02-25T10:43:22Z</time>
      </trkpt>
      <trkpt lat="38.208832" lon="-1.529200">
        <ele>276.5</ele>
        <time>2017-02-25T10:43:33Z</time>
      </trkpt>
      <trkpt lat="38.208823" lon="-1.529207">
        <ele>276.5</ele>
        <time>2017-02-25T10:43:34Z</time>
      </trkpt>
      <trkpt lat="38.208812" lon="-1.529211">
        <ele>276.5</ele>
        <time>2017-02-25T10:43:35Z</time>
      </trkpt>
      <trkpt lat="38.208802" lon="-1.529217">
        <ele>277.0</ele>
        <time>2017-02-25T10:43:36Z</time>
      </trkpt>
      <trkpt lat="38.208792" lon="-1.529225">
        <ele>277.0</ele>
        <time>2017-02-25T10:43:37Z</time>
      </trkpt>
      <trkpt lat="38.208784" lon="-1.529235">
        <ele>277.0</ele>
        <time>2017-02-25T10:43:38Z</time>
      </trkpt>
      <trkpt lat="38.208755" lon="-1.529247">
        <ele>277.0</ele>
        <time>2017-02-25T10:43:41Z</time>
      </trkpt>
      <trkpt lat="38.208740" lon="-1.529249">
        <ele>277.0</ele>
        <time>2017-02-25T10:43:42Z</time>
      </trkpt>
      <trkpt lat="38.208523" lon="-1.529330">
        <ele>276.5</ele>
        <time>2017-02-25T10:44:00Z</time>
      </trkpt>
      <trkpt lat="38.208489" lon="-1.529350">
        <ele>277.0</ele>
        <time>2017-02-25T10:44:03Z</time>
      </trkpt>
      <trkpt lat="38.208478" lon="-1.529359">
        <ele>277.0</ele>
        <time>2017-02-25T10:44:04Z</time>
      </trkpt>
      <trkpt lat="38.208269" lon="-1.529475">
        <ele>277.5</ele>
        <time>2017-02-25T10:44:20Z</time>
      </trkpt>
      <trkpt lat="38.208200" lon="-1.529573">
        <ele>277.5</ele>
        <time>2017-02-25T10:44:27Z</time>
      </trkpt>
      <trkpt lat="38.208196" lon="-1.529590">
        <ele>278.0</ele>
        <time>2017-02-25T10:44:28Z</time>
      </trkpt>
      <trkpt lat="38.208192" lon="-1.529610">
        <ele>278.0</ele>
        <time>2017-02-25T10:44:29Z</time>
      </trkpt>
      <trkpt lat="38.208165" lon="-1.529701">
        <ele>278.9</ele>
        <time>2017-02-25T10:44:36Z</time>
      </trkpt>
      <trkpt lat="38.208159" lon="-1.529716">
        <ele>278.9</ele>
        <time>2017-02-25T10:44:37Z</time>
      </trkpt>
      <trkpt lat="38.208157" lon="-1.529732">
        <ele>279.4</ele>
        <time>2017-02-25T10:44:38Z</time>
      </trkpt>
      <trkpt lat="38.208155" lon="-1.529750">
        <ele>278.9</ele>
        <time>2017-02-25T10:44:39Z</time>
      </trkpt>
      <trkpt lat="38.208154" lon="-1.529768">
        <ele>279.4</ele>
        <time>2017-02-25T10:44:40Z</time>
      </trkpt>
      <trkpt lat="38.208151" lon="-1.529787">
        <ele>279.4</ele>
        <time>2017-02-25T10:44:41Z</time>
      </trkpt>
      <trkpt lat="38.208147" lon="-1.529807">
        <ele>278.9</ele>
        <time>2017-02-25T10:44:42Z</time>
      </trkpt>
      <trkpt lat="38.208149" lon="-1.529827">
        <ele>278.9</ele>
        <time>2017-02-25T10:44:43Z</time>
      </trkpt>
      <trkpt lat="38.208151" lon="-1.529847">
        <ele>279.4</ele>
        <time>2017-02-25T10:44:44Z</time>
      </trkpt>
      <trkpt lat="38.208154" lon="-1.529867">
        <ele>279.4</ele>
        <time>2017-02-25T10:44:45Z</time>
      </trkpt>
      <trkpt lat="38.208157" lon="-1.530085">
        <ele>280.8</ele>
        <time>2017-02-25T10:44:59Z</time>
      </trkpt>
      <trkpt lat="38.208181" lon="-1.530232">
        <ele>281.3</ele>
        <time>2017-02-25T10:45:08Z</time>
      </trkpt>
      <trkpt lat="38.208179" lon="-1.530248">
        <ele>281.8</ele>
        <time>2017-02-25T10:45:09Z</time>
      </trkpt>
      <trkpt lat="38.208294" lon="-1.530428">
        <ele>283.2</ele>
        <time>2017-02-25T10:45:22Z</time>
      </trkpt>
      <trkpt lat="38.208366" lon="-1.530457">
        <ele>283.7</ele>
        <time>2017-02-25T10:45:32Z</time>
      </trkpt>
      <trkpt lat="38.208543" lon="-1.530512">
        <ele>284.2</ele>
        <time>2017-02-25T10:45:45Z</time>
      </trkpt>
      <trkpt lat="38.208625" lon="-1.530538">
        <ele>284.7</ele>
        <time>2017-02-25T10:45:51Z</time>
      </trkpt>
      <trkpt lat="38.208638" lon="-1.530534">
        <ele>284.7</ele>
        <time>2017-02-25T10:45:52Z</time>
      </trkpt>
      <trkpt lat="38.208655" lon="-1.530531">
        <ele>284.7</ele>
        <time>2017-02-25T10:45:53Z</time>
      </trkpt>
      <trkpt lat="38.208670" lon="-1.530527">
        <ele>284.7</ele>
        <time>2017-02-25T10:45:54Z</time>
      </trkpt>
      <trkpt lat="38.208684" lon="-1.530523">
        <ele>284.7</ele>
        <time>2017-02-25T10:45:55Z</time>
      </trkpt>
      <trkpt lat="38.208745" lon="-1.530518">
        <ele>285.6</ele>
        <time>2017-02-25T10:46:00Z</time>
      </trkpt>
      <trkpt lat="38.208775" lon="-1.530511">
        <ele>286.6</ele>
        <time>2017-02-25T10:46:03Z</time>
      </trkpt>
      <trkpt lat="38.208957" lon="-1.530502">
        <ele>288.0</ele>
        <time>2017-02-25T10:46:16Z</time>
      </trkpt>
      <trkpt lat="38.209047" lon="-1.530444">
        <ele>289.0</ele>
        <time>2017-02-25T10:46:23Z</time>
      </trkpt>
      <trkpt lat="38.209055" lon="-1.530432">
        <ele>290.0</ele>
        <time>2017-02-25T10:46:24Z</time>
      </trkpt>
      <trkpt lat="38.209063" lon="-1.530423">
        <ele>289.5</ele>
        <time>2017-02-25T10:46:25Z</time>
      </trkpt>
      <trkpt lat="38.209076" lon="-1.530415">
        <ele>289.0</ele>
        <time>2017-02-25T10:46:26Z</time>
      </trkpt>
      <trkpt lat="38.209090" lon="-1.530408">
        <ele>289.5</ele>
        <time>2017-02-25T10:46:27Z</time>
      </trkpt>
      <trkpt lat="38.209110" lon="-1.530388">
        <ele>290.0</ele>
        <time>2017-02-25T10:46:29Z</time>
      </trkpt>
      <trkpt lat="38.209121" lon="-1.530377">
        <ele>290.5</ele>
        <time>2017-02-25T10:46:30Z</time>
      </trkpt>
      <trkpt lat="38.209134" lon="-1.530371">
        <ele>289.0</ele>
        <time>2017-02-25T10:46:31Z</time>
      </trkpt>
      <trkpt lat="38.209146" lon="-1.530366">
        <ele>289.5</ele>
        <time>2017-02-25T10:46:32Z</time>
      </trkpt>
      <trkpt lat="38.209159" lon="-1.530368">
        <ele>292.9</ele>
        <time>2017-02-25T10:46:33Z</time>
      </trkpt>
      <trkpt lat="38.209169" lon="-1.530368">
        <ele>291.4</ele>
        <time>2017-02-25T10:46:34Z</time>
      </trkpt>
      <trkpt lat="38.209182" lon="-1.530367">
        <ele>291.4</ele>
        <time>2017-02-25T10:46:35Z</time>
      </trkpt>
      <trkpt lat="38.209198" lon="-1.530366">
        <ele>291.4</ele>
        <time>2017-02-25T10:46:36Z</time>
      </trkpt>
      <trkpt lat="38.209214" lon="-1.530367">
        <ele>291.9</ele>
        <time>2017-02-25T10:46:37Z</time>
      </trkpt>
      <trkpt lat="38.209273" lon="-1.530386">
        <ele>291.9</ele>
        <time>2017-02-25T10:46:42Z</time>
      </trkpt>
      <trkpt lat="38.209284" lon="-1.530387">
        <ele>292.4</ele>
        <time>2017-02-25T10:46:43Z</time>
      </trkpt>
      <trkpt lat="38.209297" lon="-1.530390">
        <ele>292.9</ele>
        <time>2017-02-25T10:46:44Z</time>
      </trkpt>
      <trkpt lat="38.209309" lon="-1.530395">
        <ele>292.4</ele>
        <time>2017-02-25T10:46:45Z</time>
      </trkpt>
      <trkpt lat="38.209322" lon="-1.530404">
        <ele>289.5</ele>
        <time>2017-02-25T10:46:46Z</time>
      </trkpt>
      <trkpt lat="38.209334" lon="-1.530413">
        <ele>293.8</ele>
        <time>2017-02-25T10:46:47Z</time>
      </trkpt>
      <trkpt lat="38.209422" lon="-1.530485">
        <ele>293.3</ele>
        <time>2017-02-25T10:46:55Z</time>
      </trkpt>
      <trkpt lat="38.209509" lon="-1.530711">
        <ele>294.8</ele>
        <time>2017-02-25T10:47:11Z</time>
      </trkpt>
      <trkpt lat="38.209510" lon="-1.530728">
        <ele>294.8</ele>
        <time>2017-02-25T10:47:12Z</time>
      </trkpt>
      <trkpt lat="38.209510" lon="-1.530743">
        <ele>294.8</ele>
        <time>2017-02-25T10:47:13Z</time>
      </trkpt>
      <trkpt lat="38.209547" lon="-1.530830">
        <ele>295.7</ele>
        <time>2017-02-25T10:47:24Z</time>
      </trkpt>
      <trkpt lat="38.209560" lon="-1.530900">
        <ele>297.2</ele>
        <time>2017-02-25T10:47:31Z</time>
      </trkpt>
      <trkpt lat="38.209574" lon="-1.531067">
        <ele>298.1</ele>
        <time>2017-02-25T10:47:41Z</time>
      </trkpt>
      <trkpt lat="38.209580" lon="-1.531083">
        <ele>298.6</ele>
        <time>2017-02-25T10:47:42Z</time>
      </trkpt>
      <trkpt lat="38.209583" lon="-1.531100">
        <ele>298.6</ele>
        <time>2017-02-25T10:47:43Z</time>
      </trkpt>
      <trkpt lat="38.209586" lon="-1.531340">
        <ele>299.6</ele>
        <time>2017-02-25T10:47:58Z</time>
      </trkpt>
      <trkpt lat="38.209586" lon="-1.531358">
        <ele>300.1</ele>
        <time>2017-02-25T10:48:01Z</time>
      </trkpt>
      <trkpt lat="38.209585" lon="-1.531400">
        <ele>300.1</ele>
        <time>2017-02-25T10:48:04Z</time>
      </trkpt>
      <trkpt lat="38.209585" lon="-1.531415">
        <ele>300.1</ele>
        <time>2017-02-25T10:48:05Z</time>
      </trkpt>
      <trkpt lat="38.209595" lon="-1.531481">
        <ele>301.0</ele>
        <time>2017-02-25T10:48:10Z</time>
      </trkpt>
      <trkpt lat="38.209595" lon="-1.531497">
        <ele>301.0</ele>
        <time>2017-02-25T10:48:11Z</time>
      </trkpt>
      <trkpt lat="38.209591" lon="-1.531630">
        <ele>303.4</ele>
        <time>2017-02-25T10:48:21Z</time>
      </trkpt>
      <trkpt lat="38.209593" lon="-1.531668">
        <ele>303.9</ele>
        <time>2017-02-25T10:48:24Z</time>
      </trkpt>
      <trkpt lat="38.209579" lon="-1.531814">
        <ele>305.4</ele>
        <time>2017-02-25T10:48:36Z</time>
      </trkpt>
      <trkpt lat="38.209584" lon="-1.531800">
        <ele>305.4</ele>
        <time>2017-02-25T10:48:48Z</time>
      </trkpt>
      <trkpt lat="38.209558" lon="-1.531891">
        <ele>303.0</ele>
        <time>2017-02-25T10:49:09Z</time>
      </trkpt>
      <trkpt lat="38.209546" lon="-1.531934">
        <ele>306.8</ele>
        <time>2017-02-25T10:49:14Z</time>
      </trkpt>
      <trkpt lat="38.209512" lon="-1.532035">
        <ele>306.3</ele>
        <time>2017-02-25T10:49:22Z</time>
      </trkpt>
      <trkpt lat="38.209505" lon="-1.532053">
        <ele>306.3</ele>
        <time>2017-02-25T10:49:23Z</time>
      </trkpt>
      <trkpt lat="38.209500" lon="-1.532068">
        <ele>306.8</ele>
        <time>2017-02-25T10:49:24Z</time>
      </trkpt>
      <trkpt lat="38.209492" lon="-1.532113">
        <ele>307.3</ele>
        <time>2017-02-25T10:49:27Z</time>
      </trkpt>
      <trkpt lat="38.209485" lon="-1.532141">
        <ele>307.3</ele>
        <time>2017-02-25T10:49:29Z</time>
      </trkpt>
      <trkpt lat="38.209482" lon="-1.532158">
        <ele>307.3</ele>
        <time>2017-02-25T10:49:30Z</time>
      </trkpt>
      <trkpt lat="38.209479" lon="-1.532174">
        <ele>307.3</ele>
        <time>2017-02-25T10:49:31Z</time>
      </trkpt>
      <trkpt lat="38.209475" lon="-1.532193">
        <ele>306.8</ele>
        <time>2017-02-25T10:49:32Z</time>
      </trkpt>
      <trkpt lat="38.209472" lon="-1.532210">
        <ele>306.8</ele>
        <time>2017-02-25T10:49:33Z</time>
      </trkpt>
      <trkpt lat="38.209470" lon="-1.532227">
        <ele>305.8</ele>
        <time>2017-02-25T10:49:34Z</time>
      </trkpt>
      <trkpt lat="38.209469" lon="-1.532244">
        <ele>308.7</ele>
        <time>2017-02-25T10:49:35Z</time>
      </trkpt>
      <trkpt lat="38.209472" lon="-1.532262">
        <ele>307.3</ele>
        <time>2017-02-25T10:49:36Z</time>
      </trkpt>
      <trkpt lat="38.209473" lon="-1.532278">
        <ele>307.8</ele>
        <time>2017-02-25T10:49:37Z</time>
      </trkpt>
      <trkpt lat="38.209475" lon="-1.532294">
        <ele>307.8</ele>
        <time>2017-02-25T10:49:38Z</time>
      </trkpt>
      <trkpt lat="38.209509" lon="-1.532419">
        <ele>307.8</ele>
        <time>2017-02-25T10:49:47Z</time>
      </trkpt>
      <trkpt lat="38.209525" lon="-1.532456">
        <ele>306.3</ele>
        <time>2017-02-25T10:49:50Z</time>
      </trkpt>
      <trkpt lat="38.209584" lon="-1.532531">
        <ele>309.7</ele>
        <time>2017-02-25T10:49:57Z</time>
      </trkpt>
      <trkpt lat="38.209592" lon="-1.532540">
        <ele>309.7</ele>
        <time>2017-02-25T10:49:58Z</time>
      </trkpt>
      <trkpt lat="38.209693" lon="-1.532701">
        <ele>308.7</ele>
        <time>2017-02-25T10:50:12Z</time>
      </trkpt>
      <trkpt lat="38.209824" lon="-1.532891">
        <ele>309.2</ele>
        <time>2017-02-25T10:50:28Z</time>
      </trkpt>
      <trkpt lat="38.209961" lon="-1.533041">
        <ele>308.7</ele>
        <time>2017-02-25T10:50:42Z</time>
      </trkpt>
      <trkpt lat="38.209970" lon="-1.533052">
        <ele>309.2</ele>
        <time>2017-02-25T10:50:43Z</time>
      </trkpt>
      <trkpt lat="38.209979" lon="-1.533062">
        <ele>309.2</ele>
        <time>2017-02-25T10:50:44Z</time>
      </trkpt>
      <trkpt lat="38.209990" lon="-1.533073">
        <ele>309.2</ele>
        <time>2017-02-25T10:50:45Z</time>
      </trkpt>
      <trkpt lat="38.210001" lon="-1.533086">
        <ele>309.2</ele>
        <time>2017-02-25T10:50:46Z</time>
      </trkpt>
      <trkpt lat="38.210131" lon="-1.533225">
        <ele>309.7</ele>
        <time>2017-02-25T10:51:00Z</time>
      </trkpt>
      <trkpt lat="38.210190" lon="-1.533411">
        <ele>310.2</ele>
        <time>2017-02-25T10:51:17Z</time>
      </trkpt>
      <trkpt lat="38.210156" lon="-1.533414">
        <ele>310.6</ele>
        <time>2017-02-25T10:51:21Z</time>
      </trkpt>
      <trkpt lat="38.209977" lon="-1.533355">
        <ele>311.1</ele>
        <time>2017-02-25T10:51:37Z</time>
      </trkpt>
      <trkpt lat="38.209893" lon="-1.533340">
        <ele>312.1</ele>
        <time>2017-02-25T10:51:44Z</time>
      </trkpt>
      <trkpt lat="38.209778" lon="-1.533316">
        <ele>313.5</ele>
        <time>2017-02-25T10:51:55Z</time>
      </trkpt>
      <trkpt lat="38.209761" lon="-1.533314">
        <ele>313.5</ele>
        <time>2017-02-25T10:51:57Z</time>
      </trkpt>
      <trkpt lat="38.209740" lon="-1.533314">
        <ele>313.5</ele>
        <time>2017-02-25T10:51:59Z</time>
      </trkpt>
      <trkpt lat="38.209731" lon="-1.533309">
        <ele>314.0</ele>
        <time>2017-02-25T10:52:00Z</time>
      </trkpt>
      <trkpt lat="38.209720" lon="-1.533310">
        <ele>314.0</ele>
        <time>2017-02-25T10:52:01Z</time>
      </trkpt>
      <trkpt lat="38.209709" lon="-1.533311">
        <ele>314.0</ele>
        <time>2017-02-25T10:52:02Z</time>
      </trkpt>
      <trkpt lat="38.209698" lon="-1.533311">
        <ele>314.0</ele>
        <time>2017-02-25T10:52:03Z</time>
      </trkpt>
      <trkpt lat="38.209554" lon="-1.533283">
        <ele>315.5</ele>
        <time>2017-02-25T10:52:17Z</time>
      </trkpt>
      <trkpt lat="38.209526" lon="-1.533287">
        <ele>315.5</ele>
        <time>2017-02-25T10:52:20Z</time>
      </trkpt>
      <trkpt lat="38.209516" lon="-1.533295">
        <ele>315.5</ele>
        <time>2017-02-25T10:52:21Z</time>
      </trkpt>
      <trkpt lat="38.209506" lon="-1.533296">
        <ele>315.5</ele>
        <time>2017-02-25T10:52:22Z</time>
      </trkpt>
      <trkpt lat="38.209495" lon="-1.533293">
        <ele>315.5</ele>
        <time>2017-02-25T10:52:23Z</time>
      </trkpt>
      <trkpt lat="38.209483" lon="-1.533289">
        <ele>315.5</ele>
        <time>2017-02-25T10:52:24Z</time>
      </trkpt>
      <trkpt lat="38.209452" lon="-1.533287">
        <ele>316.4</ele>
        <time>2017-02-25T10:52:27Z</time>
      </trkpt>
      <trkpt lat="38.209298" lon="-1.533318">
        <ele>317.4</ele>
        <time>2017-02-25T10:52:41Z</time>
      </trkpt>
      <trkpt lat="38.209224" lon="-1.533323">
        <ele>317.9</ele>
        <time>2017-02-25T10:52:47Z</time>
      </trkpt>
      <trkpt lat="38.209096" lon="-1.533350">
        <ele>318.8</ele>
        <time>2017-02-25T10:52:59Z</time>
      </trkpt>
      <trkpt lat="38.209076" lon="-1.533363">
        <ele>319.8</ele>
        <time>2017-02-25T10:53:01Z</time>
      </trkpt>
      <trkpt lat="38.209067" lon="-1.533372">
        <ele>319.8</ele>
        <time>2017-02-25T10:53:02Z</time>
      </trkpt>
      <trkpt lat="38.209056" lon="-1.533379">
        <ele>319.8</ele>
        <time>2017-02-25T10:53:03Z</time>
      </trkpt>
      <trkpt lat="38.209028" lon="-1.533402">
        <ele>319.8</ele>
        <time>2017-02-25T10:53:06Z</time>
      </trkpt>
      <trkpt lat="38.209007" lon="-1.533412">
        <ele>319.8</ele>
        <time>2017-02-25T10:53:08Z</time>
      </trkpt>
      <trkpt lat="38.208974" lon="-1.533433">
        <ele>320.3</ele>
        <time>2017-02-25T10:53:12Z</time>
      </trkpt>
      <trkpt lat="38.208923" lon="-1.533516">
        <ele>321.2</ele>
        <time>2017-02-25T10:53:19Z</time>
      </trkpt>
      <trkpt lat="38.208916" lon="-1.533531">
        <ele>321.2</ele>
        <time>2017-02-25T10:53:20Z</time>
      </trkpt>
      <trkpt lat="38.208908" lon="-1.533548">
        <ele>321.7</ele>
        <time>2017-02-25T10:53:21Z</time>
      </trkpt>
      <trkpt lat="38.208906" lon="-1.533568">
        <ele>321.7</ele>
        <time>2017-02-25T10:53:22Z</time>
      </trkpt>
      <trkpt lat="38.208904" lon="-1.533589">
        <ele>321.7</ele>
        <time>2017-02-25T10:53:23Z</time>
      </trkpt>
      <trkpt lat="38.208901" lon="-1.533608">
        <ele>321.7</ele>
        <time>2017-02-25T10:53:24Z</time>
      </trkpt>
      <trkpt lat="38.208921" lon="-1.533702">
        <ele>322.2</ele>
        <time>2017-02-25T10:53:30Z</time>
      </trkpt>
      <trkpt lat="38.208929" lon="-1.533717">
        <ele>321.7</ele>
        <time>2017-02-25T10:53:31Z</time>
      </trkpt>
      <trkpt lat="38.208937" lon="-1.533732">
        <ele>322.7</ele>
        <time>2017-02-25T10:53:32Z</time>
      </trkpt>
      <trkpt lat="38.208972" lon="-1.533937">
        <ele>322.7</ele>
        <time>2017-02-25T10:53:47Z</time>
      </trkpt>
      <trkpt lat="38.208968" lon="-1.533952">
        <ele>323.6</ele>
        <time>2017-02-25T10:53:48Z</time>
      </trkpt>
      <trkpt lat="38.208928" lon="-1.534116">
        <ele>324.1</ele>
        <time>2017-02-25T10:54:00Z</time>
      </trkpt>
      <trkpt lat="38.208899" lon="-1.534198">
        <ele>325.1</ele>
        <time>2017-02-25T10:54:10Z</time>
      </trkpt>
      <trkpt lat="38.208875" lon="-1.534286">
        <ele>326.0</ele>
        <time>2017-02-25T10:54:18Z</time>
      </trkpt>
      <trkpt lat="38.208869" lon="-1.534300">
        <ele>326.0</ele>
        <time>2017-02-25T10:54:19Z</time>
      </trkpt>
      <trkpt lat="38.208865" lon="-1.534313">
        <ele>326.5</ele>
        <time>2017-02-25T10:54:20Z</time>
      </trkpt>
      <trkpt lat="38.208820" lon="-1.534418">
        <ele>328.0</ele>
        <time>2017-02-25T10:54:30Z</time>
      </trkpt>
      <trkpt lat="38.208808" lon="-1.534434">
        <ele>328.0</ele>
        <time>2017-02-25T10:54:32Z</time>
      </trkpt>
      <trkpt lat="38.208814" lon="-1.534517">
        <ele>328.9</ele>
        <time>2017-02-25T10:54:39Z</time>
      </trkpt>
      <trkpt lat="38.208828" lon="-1.534560">
        <ele>328.9</ele>
        <time>2017-02-25T10:54:42Z</time>
      </trkpt>
      <trkpt lat="38.208837" lon="-1.534570">
        <ele>329.9</ele>
        <time>2017-02-25T10:54:43Z</time>
      </trkpt>
      <trkpt lat="38.208852" lon="-1.534589">
        <ele>329.4</ele>
        <time>2017-02-25T10:54:45Z</time>
      </trkpt>
      <trkpt lat="38.208910" lon="-1.534748">
        <ele>329.4</ele>
        <time>2017-02-25T10:54:55Z</time>
      </trkpt>
      <trkpt lat="38.208915" lon="-1.534806">
        <ele>328.0</ele>
        <time>2017-02-25T10:54:59Z</time>
      </trkpt>
      <trkpt lat="38.208865" lon="-1.534932">
        <ele>328.0</ele>
        <time>2017-02-25T10:55:09Z</time>
      </trkpt>
      <trkpt lat="38.208859" lon="-1.534945">
        <ele>328.0</ele>
        <time>2017-02-25T10:55:10Z</time>
      </trkpt>
      <trkpt lat="38.208846" lon="-1.534953">
        <ele>328.4</ele>
        <time>2017-02-25T10:55:11Z</time>
      </trkpt>
      <trkpt lat="38.208613" lon="-1.535039">
        <ele>328.9</ele>
        <time>2017-02-25T10:55:29Z</time>
      </trkpt>
      <trkpt lat="38.208603" lon="-1.535040">
        <ele>328.0</ele>
        <time>2017-02-25T10:55:30Z</time>
      </trkpt>
      <trkpt lat="38.208487" lon="-1.535169">
        <ele>329.4</ele>
        <time>2017-02-25T10:55:44Z</time>
      </trkpt>
      <trkpt lat="38.208417" lon="-1.535390">
        <ele>330.4</ele>
        <time>2017-02-25T10:56:00Z</time>
      </trkpt>
      <trkpt lat="38.208401" lon="-1.535507">
        <ele>331.3</ele>
        <time>2017-02-25T10:56:08Z</time>
      </trkpt>
      <trkpt lat="38.208437" lon="-1.535645">
        <ele>332.3</ele>
        <time>2017-02-25T10:56:20Z</time>
      </trkpt>
      <trkpt lat="38.208486" lon="-1.535698">
        <ele>333.7</ele>
        <time>2017-02-25T10:56:26Z</time>
      </trkpt>
      <trkpt lat="38.208543" lon="-1.535730">
        <ele>334.7</ele>
        <time>2017-02-25T10:56:32Z</time>
      </trkpt>
      <trkpt lat="38.208554" lon="-1.535733">
        <ele>334.7</ele>
        <time>2017-02-25T10:56:33Z</time>
      </trkpt>
      <trkpt lat="38.208571" lon="-1.535736">
        <ele>334.2</ele>
        <time>2017-02-25T10:56:35Z</time>
      </trkpt>
      <trkpt lat="38.208589" lon="-1.535754">
        <ele>335.2</ele>
        <time>2017-02-25T10:56:37Z</time>
      </trkpt>
      <trkpt lat="38.208600" lon="-1.535756">
        <ele>335.2</ele>
        <time>2017-02-25T10:56:38Z</time>
      </trkpt>
      <trkpt lat="38.208614" lon="-1.535754">
        <ele>335.2</ele>
        <time>2017-02-25T10:56:39Z</time>
      </trkpt>
      <trkpt lat="38.208666" lon="-1.535753">
        <ele>335.2</ele>
        <time>2017-02-25T10:56:43Z</time>
      </trkpt>
      <trkpt lat="38.208680" lon="-1.535756">
        <ele>335.2</ele>
        <time>2017-02-25T10:56:44Z</time>
      </trkpt>
      <trkpt lat="38.208772" lon="-1.535729">
        <ele>335.6</ele>
        <time>2017-02-25T10:56:52Z</time>
      </trkpt>
      <trkpt lat="38.208888" lon="-1.535642">
        <ele>336.6</ele>
        <time>2017-02-25T10:57:05Z</time>
      </trkpt>
      <trkpt lat="38.208900" lon="-1.535640">
        <ele>336.6</ele>
        <time>2017-02-25T10:57:06Z</time>
      </trkpt>
      <trkpt lat="38.208918" lon="-1.535636">
        <ele>337.1</ele>
        <time>2017-02-25T10:57:08Z</time>
      </trkpt>
      <trkpt lat="38.208927" lon="-1.535631">
        <ele>337.1</ele>
        <time>2017-02-25T10:57:09Z</time>
      </trkpt>
      <trkpt lat="38.208946" lon="-1.535622">
        <ele>337.1</ele>
        <time>2017-02-25T10:57:11Z</time>
      </trkpt>
      <trkpt lat="38.208955" lon="-1.535612">
        <ele>337.1</ele>
        <time>2017-02-25T10:57:12Z</time>
      </trkpt>
      <trkpt lat="38.208984" lon="-1.535593">
        <ele>338.5</ele>
        <time>2017-02-25T10:57:15Z</time>
      </trkpt>
      <trkpt lat="38.208994" lon="-1.535590">
        <ele>338.0</ele>
        <time>2017-02-25T10:57:16Z</time>
      </trkpt>
      <trkpt lat="38.209114" lon="-1.535549">
        <ele>340.4</ele>
        <time>2017-02-25T10:57:28Z</time>
      </trkpt>
      <trkpt lat="38.209202" lon="-1.535532">
        <ele>341.4</ele>
        <time>2017-02-25T10:57:39Z</time>
      </trkpt>
      <trkpt lat="38.209207" lon="-1.535530">
        <ele>341.9</ele>
        <time>2017-02-25T10:57:45Z</time>
      </trkpt>
      <trkpt lat="38.209269" lon="-1.535517">
        <ele>342.4</ele>
        <time>2017-02-25T10:57:55Z</time>
      </trkpt>
      <trkpt lat="38.209291" lon="-1.535514">
        <ele>342.9</ele>
        <time>2017-02-25T10:57:57Z</time>
      </trkpt>
      <trkpt lat="38.209310" lon="-1.535511">
        <ele>342.4</ele>
        <time>2017-02-25T10:57:59Z</time>
      </trkpt>
      <trkpt lat="38.209321" lon="-1.535512">
        <ele>342.4</ele>
        <time>2017-02-25T10:58:00Z</time>
      </trkpt>
      <trkpt lat="38.209391" lon="-1.535526">
        <ele>343.3</ele>
        <time>2017-02-25T10:58:09Z</time>
      </trkpt>
      <trkpt lat="38.209435" lon="-1.535527">
        <ele>343.8</ele>
        <time>2017-02-25T10:58:14Z</time>
      </trkpt>
      <trkpt lat="38.209448" lon="-1.535521">
        <ele>343.8</ele>
        <time>2017-02-25T10:58:15Z</time>
      </trkpt>
      <trkpt lat="38.209460" lon="-1.535520">
        <ele>343.8</ele>
        <time>2017-02-25T10:58:16Z</time>
      </trkpt>
      <trkpt lat="38.209567" lon="-1.535556">
        <ele>346.2</ele>
        <time>2017-02-25T10:58:29Z</time>
      </trkpt>
      <trkpt lat="38.209647" lon="-1.535600">
        <ele>346.7</ele>
        <time>2017-02-25T10:58:41Z</time>
      </trkpt>
      <trkpt lat="38.209658" lon="-1.535605">
        <ele>346.7</ele>
        <time>2017-02-25T10:58:45Z</time>
      </trkpt>
      <trkpt lat="38.209698" lon="-1.535638">
        <ele>347.2</ele>
        <time>2017-02-25T10:58:53Z</time>
      </trkpt>
      <trkpt lat="38.209867" lon="-1.535728">
        <ele>348.6</ele>
        <time>2017-02-25T10:59:07Z</time>
      </trkpt>
      <trkpt lat="38.209881" lon="-1.535754">
        <ele>349.6</ele>
        <time>2017-02-25T10:59:09Z</time>
      </trkpt>
      <trkpt lat="38.209891" lon="-1.535769">
        <ele>350.1</ele>
        <time>2017-02-25T10:59:10Z</time>
      </trkpt>
      <trkpt lat="38.209898" lon="-1.535783">
        <ele>349.6</ele>
        <time>2017-02-25T10:59:11Z</time>
      </trkpt>
      <trkpt lat="38.209903" lon="-1.535800">
        <ele>349.1</ele>
        <time>2017-02-25T10:59:12Z</time>
      </trkpt>
      <trkpt lat="38.209903" lon="-1.535814">
        <ele>349.6</ele>
        <time>2017-02-25T10:59:13Z</time>
      </trkpt>
      <trkpt lat="38.209904" lon="-1.535829">
        <ele>349.1</ele>
        <time>2017-02-25T10:59:14Z</time>
      </trkpt>
      <trkpt lat="38.209909" lon="-1.535849">
        <ele>348.6</ele>
        <time>2017-02-25T10:59:47Z</time>
      </trkpt>
      <trkpt lat="38.209920" lon="-1.535930">
        <ele>350.5</ele>
        <time>2017-02-25T11:01:50Z</time>
      </trkpt>
      <trkpt lat="38.209918" lon="-1.535953">
        <ele>350.5</ele>
        <time>2017-02-25T11:01:52Z</time>
      </trkpt>
      <trkpt lat="38.209914" lon="-1.536051">
        <ele>352.0</ele>
        <time>2017-02-25T11:02:04Z</time>
      </trkpt>
      <trkpt lat="38.209899" lon="-1.536097">
        <ele>352.5</ele>
        <time>2017-02-25T11:02:10Z</time>
      </trkpt>
      <trkpt lat="38.209902" lon="-1.536110">
        <ele>352.5</ele>
        <time>2017-02-25T11:02:21Z</time>
      </trkpt>
      <trkpt lat="38.209856" lon="-1.536234">
        <ele>353.9</ele>
        <time>2017-02-25T11:02:34Z</time>
      </trkpt>
      <trkpt lat="38.209808" lon="-1.536358">
        <ele>355.3</ele>
        <time>2017-02-25T11:02:48Z</time>
      </trkpt>
      <trkpt lat="38.209752" lon="-1.536490">
        <ele>356.8</ele>
        <time>2017-02-25T11:03:01Z</time>
      </trkpt>
      <trkpt lat="38.209728" lon="-1.536549">
        <ele>357.3</ele>
        <time>2017-02-25T11:03:07Z</time>
      </trkpt>
      <trkpt lat="38.209697" lon="-1.536637">
        <ele>358.2</ele>
        <time>2017-02-25T11:03:15Z</time>
      </trkpt>
      <trkpt lat="38.209640" lon="-1.536766">
        <ele>359.2</ele>
        <time>2017-02-25T11:03:28Z</time>
      </trkpt>
      <trkpt lat="38.209611" lon="-1.536810">
        <ele>359.7</ele>
        <time>2017-02-25T11:03:32Z</time>
      </trkpt>
      <trkpt lat="38.209522" lon="-1.536968">
        <ele>361.6</ele>
        <time>2017-02-25T11:03:47Z</time>
      </trkpt>
      <trkpt lat="38.209481" lon="-1.537038">
        <ele>362.5</ele>
        <time>2017-02-25T11:03:54Z</time>
      </trkpt>
      <trkpt lat="38.209479" lon="-1.537053">
        <ele>362.1</ele>
        <time>2017-02-25T11:03:55Z</time>
      </trkpt>
      <trkpt lat="38.209464" lon="-1.537077">
        <ele>362.5</ele>
        <time>2017-02-25T11:03:57Z</time>
      </trkpt>
      <trkpt lat="38.209456" lon="-1.537103">
        <ele>362.5</ele>
        <time>2017-02-25T11:03:59Z</time>
      </trkpt>
      <trkpt lat="38.209433" lon="-1.537177">
        <ele>363.5</ele>
        <time>2017-02-25T11:04:06Z</time>
      </trkpt>
      <trkpt lat="38.209457" lon="-1.537285">
        <ele>364.5</ele>
        <time>2017-02-25T11:04:14Z</time>
      </trkpt>
      <trkpt lat="38.209474" lon="-1.537301">
        <ele>364.5</ele>
        <time>2017-02-25T11:04:16Z</time>
      </trkpt>
      <trkpt lat="38.209568" lon="-1.537282">
        <ele>365.4</ele>
        <time>2017-02-25T11:04:22Z</time>
      </trkpt>
      <trkpt lat="38.209703" lon="-1.537121">
        <ele>365.9</ele>
        <time>2017-02-25T11:04:37Z</time>
      </trkpt>
      <trkpt lat="38.209874" lon="-1.537038">
        <ele>365.4</ele>
        <time>2017-02-25T11:04:52Z</time>
      </trkpt>
      <trkpt lat="38.209885" lon="-1.537037">
        <ele>365.0</ele>
        <time>2017-02-25T11:04:53Z</time>
      </trkpt>
      <trkpt lat="38.209898" lon="-1.537031">
        <ele>365.4</ele>
        <time>2017-02-25T11:04:54Z</time>
      </trkpt>
      <trkpt lat="38.209913" lon="-1.537027">
        <ele>365.4</ele>
        <time>2017-02-25T11:04:55Z</time>
      </trkpt>
      <trkpt lat="38.209928" lon="-1.537026">
        <ele>365.4</ele>
        <time>2017-02-25T11:04:56Z</time>
      </trkpt>
      <trkpt lat="38.209960" lon="-1.537040">
        <ele>365.9</ele>
        <time>2017-02-25T11:04:59Z</time>
      </trkpt>
      <trkpt lat="38.209974" lon="-1.537048">
        <ele>365.9</ele>
        <time>2017-02-25T11:05:00Z</time>
      </trkpt>
      <trkpt lat="38.209986" lon="-1.537055">
        <ele>365.9</ele>
        <time>2017-02-25T11:05:01Z</time>
      </trkpt>
      <trkpt lat="38.209995" lon="-1.537062">
        <ele>366.4</ele>
        <time>2017-02-25T11:05:02Z</time>
      </trkpt>
      <trkpt lat="38.209997" lon="-1.537072">
        <ele>366.9</ele>
        <time>2017-02-25T11:05:03Z</time>
      </trkpt>
      <trkpt lat="38.209997" lon="-1.537112">
        <ele>367.4</ele>
        <time>2017-02-25T11:05:06Z</time>
      </trkpt>
      <trkpt lat="38.209997" lon="-1.537126">
        <ele>366.9</ele>
        <time>2017-02-25T11:05:07Z</time>
      </trkpt>
      <trkpt lat="38.209980" lon="-1.537176">
        <ele>367.8</ele>
        <time>2017-02-25T11:05:11Z</time>
      </trkpt>
      <trkpt lat="38.209970" lon="-1.537197">
        <ele>367.8</ele>
        <time>2017-02-25T11:05:13Z</time>
      </trkpt>
      <trkpt lat="38.209961" lon="-1.537207">
        <ele>368.3</ele>
        <time>2017-02-25T11:05:14Z</time>
      </trkpt>
      <trkpt lat="38.209954" lon="-1.537216">
        <ele>368.8</ele>
        <time>2017-02-25T11:05:15Z</time>
      </trkpt>
      <trkpt lat="38.209945" lon="-1.537228">
        <ele>368.8</ele>
        <time>2017-02-25T11:05:16Z</time>
      </trkpt>
      <trkpt lat="38.209936" lon="-1.537239">
        <ele>368.8</ele>
        <time>2017-02-25T11:05:17Z</time>
      </trkpt>
      <trkpt lat="38.209926" lon="-1.537247">
        <ele>369.3</ele>
        <time>2017-02-25T11:05:18Z</time>
      </trkpt>
      <trkpt lat="38.209915" lon="-1.537257">
        <ele>369.3</ele>
        <time>2017-02-25T11:05:19Z</time>
      </trkpt>
      <trkpt lat="38.209909" lon="-1.537270">
        <ele>369.8</ele>
        <time>2017-02-25T11:05:20Z</time>
      </trkpt>
      <trkpt lat="38.209904" lon="-1.537284">
        <ele>369.8</ele>
        <time>2017-02-25T11:05:21Z</time>
      </trkpt>
      <trkpt lat="38.209889" lon="-1.537304">
        <ele>369.8</ele>
        <time>2017-02-25T11:05:23Z</time>
      </trkpt>
      <trkpt lat="38.209880" lon="-1.537314">
        <ele>370.2</ele>
        <time>2017-02-25T11:05:24Z</time>
      </trkpt>
      <trkpt lat="38.209840" lon="-1.537385">
        <ele>370.7</ele>
        <time>2017-02-25T11:05:30Z</time>
      </trkpt>
      <trkpt lat="38.209833" lon="-1.537402">
        <ele>370.7</ele>
        <time>2017-02-25T11:05:32Z</time>
      </trkpt>
      <trkpt lat="38.209822" lon="-1.537409">
        <ele>370.7</ele>
        <time>2017-02-25T11:05:33Z</time>
      </trkpt>
      <trkpt lat="38.209713" lon="-1.537560">
        <ele>372.6</ele>
        <time>2017-02-25T11:08:50Z</time>
      </trkpt>
      <trkpt lat="38.209676" lon="-1.537629">
        <ele>373.6</ele>
        <time>2017-02-25T11:08:57Z</time>
      </trkpt>
      <trkpt lat="38.209647" lon="-1.537703">
        <ele>374.6</ele>
        <time>2017-02-25T11:09:10Z</time>
      </trkpt>
      <trkpt lat="38.209617" lon="-1.537729">
        <ele>374.6</ele>
        <time>2017-02-25T11:09:21Z</time>
      </trkpt>
      <trkpt lat="38.209609" lon="-1.537750">
        <ele>374.6</ele>
        <time>2017-02-25T11:09:35Z</time>
      </trkpt>
      <trkpt lat="38.209578" lon="-1.537787">
        <ele>375.0</ele>
        <time>2017-02-25T11:09:40Z</time>
      </trkpt>
      <trkpt lat="38.209536" lon="-1.537824">
        <ele>375.0</ele>
        <time>2017-02-25T11:09:44Z</time>
      </trkpt>
      <trkpt lat="38.209500" lon="-1.537866">
        <ele>375.0</ele>
        <time>2017-02-25T11:09:48Z</time>
      </trkpt>
      <trkpt lat="38.209484" lon="-1.537886">
        <ele>375.0</ele>
        <time>2017-02-25T11:09:50Z</time>
      </trkpt>
      <trkpt lat="38.209478" lon="-1.537895">
        <ele>375.5</ele>
        <time>2017-02-25T11:09:51Z</time>
      </trkpt>
      <trkpt lat="38.209468" lon="-1.537901">
        <ele>375.5</ele>
        <time>2017-02-25T11:09:52Z</time>
      </trkpt>
      <trkpt lat="38.209457" lon="-1.537909">
        <ele>375.5</ele>
        <time>2017-02-25T11:09:53Z</time>
      </trkpt>
      <trkpt lat="38.209447" lon="-1.537918">
        <ele>375.5</ele>
        <time>2017-02-25T11:09:54Z</time>
      </trkpt>
      <trkpt lat="38.209328" lon="-1.538016">
        <ele>376.5</ele>
        <time>2017-02-25T11:10:08Z</time>
      </trkpt>
      <trkpt lat="38.209198" lon="-1.538116">
        <ele>377.5</ele>
        <time>2017-02-25T11:10:22Z</time>
      </trkpt>
      <trkpt lat="38.209187" lon="-1.538122">
        <ele>377.9</ele>
        <time>2017-02-25T11:10:23Z</time>
      </trkpt>
      <trkpt lat="38.209169" lon="-1.538141">
        <ele>377.9</ele>
        <time>2017-02-25T11:10:25Z</time>
      </trkpt>
      <trkpt lat="38.209162" lon="-1.538153">
        <ele>377.9</ele>
        <time>2017-02-25T11:10:26Z</time>
      </trkpt>
      <trkpt lat="38.209042" lon="-1.538260">
        <ele>379.9</ele>
        <time>2017-02-25T11:10:39Z</time>
      </trkpt>
      <trkpt lat="38.209024" lon="-1.538273">
        <ele>379.4</ele>
        <time>2017-02-25T11:10:41Z</time>
      </trkpt>
      <trkpt lat="38.208934" lon="-1.538347">
        <ele>380.3</ele>
        <time>2017-02-25T11:10:50Z</time>
      </trkpt>
      <trkpt lat="38.208883" lon="-1.538394">
        <ele>380.3</ele>
        <time>2017-02-25T11:10:55Z</time>
      </trkpt>
      <trkpt lat="38.208875" lon="-1.538406">
        <ele>380.8</ele>
        <time>2017-02-25T11:10:56Z</time>
      </trkpt>
      <trkpt lat="38.208854" lon="-1.538421">
        <ele>380.8</ele>
        <time>2017-02-25T11:10:58Z</time>
      </trkpt>
      <trkpt lat="38.208837" lon="-1.538447">
        <ele>379.9</ele>
        <time>2017-02-25T11:11:03Z</time>
      </trkpt>
      <trkpt lat="38.208837" lon="-1.538452">
        <ele>383.2</ele>
        <time>2017-02-25T11:11:04Z</time>
      </trkpt>
      <trkpt lat="38.208838" lon="-1.538456">
        <ele>381.3</ele>
        <time>2017-02-25T11:11:05Z</time>
      </trkpt>
      <trkpt lat="38.208815" lon="-1.538470">
        <ele>381.8</ele>
        <time>2017-02-25T11:11:08Z</time>
      </trkpt>
      <trkpt lat="38.208766" lon="-1.538511">
        <ele>381.8</ele>
        <time>2017-02-25T11:11:12Z</time>
      </trkpt>
      <trkpt lat="38.208756" lon="-1.538524">
        <ele>382.7</ele>
        <time>2017-02-25T11:11:13Z</time>
      </trkpt>
      <trkpt lat="38.208754" lon="-1.538535">
        <ele>381.8</ele>
        <time>2017-02-25T11:11:14Z</time>
      </trkpt>
      <trkpt lat="38.208747" lon="-1.538546">
        <ele>381.8</ele>
        <time>2017-02-25T11:11:15Z</time>
      </trkpt>
      <trkpt lat="38.208739" lon="-1.538553">
        <ele>382.3</ele>
        <time>2017-02-25T11:11:16Z</time>
      </trkpt>
      <trkpt lat="38.208729" lon="-1.538564">
        <ele>382.3</ele>
        <time>2017-02-25T11:11:17Z</time>
      </trkpt>
      <trkpt lat="38.208685" lon="-1.538606">
        <ele>382.3</ele>
        <time>2017-02-25T11:11:22Z</time>
      </trkpt>
      <trkpt lat="38.208640" lon="-1.538671">
        <ele>382.3</ele>
        <time>2017-02-25T11:11:29Z</time>
      </trkpt>
      <trkpt lat="38.208622" lon="-1.538690">
        <ele>382.7</ele>
        <time>2017-02-25T11:11:31Z</time>
      </trkpt>
      <trkpt lat="38.208534" lon="-1.538808">
        <ele>384.2</ele>
        <time>2017-02-25T11:11:43Z</time>
      </trkpt>
      <trkpt lat="38.208513" lon="-1.538838">
        <ele>384.7</ele>
        <time>2017-02-25T11:11:47Z</time>
      </trkpt>
      <trkpt lat="38.208484" lon="-1.538884">
        <ele>384.7</ele>
        <time>2017-02-25T11:11:52Z</time>
      </trkpt>
      <trkpt lat="38.208395" lon="-1.538986">
        <ele>385.6</ele>
        <time>2017-02-25T11:12:05Z</time>
      </trkpt>
      <trkpt lat="38.208379" lon="-1.539002">
        <ele>386.1</ele>
        <time>2017-02-25T11:12:07Z</time>
      </trkpt>
      <trkpt lat="38.208370" lon="-1.539008">
        <ele>386.1</ele>
        <time>2017-02-25T11:12:08Z</time>
      </trkpt>
      <trkpt lat="38.208311" lon="-1.539105">
        <ele>386.6</ele>
        <time>2017-02-25T11:12:17Z</time>
      </trkpt>
      <trkpt lat="38.208271" lon="-1.539171">
        <ele>387.1</ele>
        <time>2017-02-25T11:12:23Z</time>
      </trkpt>
      <trkpt lat="38.208213" lon="-1.539270">
        <ele>387.5</ele>
        <time>2017-02-25T11:12:31Z</time>
      </trkpt>
      <trkpt lat="38.208206" lon="-1.539285">
        <ele>387.1</ele>
        <time>2017-02-25T11:12:32Z</time>
      </trkpt>
      <trkpt lat="38.208168" lon="-1.539342">
        <ele>387.5</ele>
        <time>2017-02-25T11:12:37Z</time>
      </trkpt>
      <trkpt lat="38.208164" lon="-1.539356">
        <ele>388.0</ele>
        <time>2017-02-25T11:12:38Z</time>
      </trkpt>
      <trkpt lat="38.208158" lon="-1.539371">
        <ele>387.5</ele>
        <time>2017-02-25T11:12:39Z</time>
      </trkpt>
      <trkpt lat="38.208143" lon="-1.539389">
        <ele>388.0</ele>
        <time>2017-02-25T11:12:41Z</time>
      </trkpt>
      <trkpt lat="38.208110" lon="-1.539518">
        <ele>388.0</ele>
        <time>2017-02-25T11:13:45Z</time>
      </trkpt>
      <trkpt lat="38.208098" lon="-1.539535">
        <ele>389.0</ele>
        <time>2017-02-25T11:13:46Z</time>
      </trkpt>
      <trkpt lat="38.208086" lon="-1.539553">
        <ele>389.0</ele>
        <time>2017-02-25T11:13:47Z</time>
      </trkpt>
      <trkpt lat="38.208076" lon="-1.539572">
        <ele>389.5</ele>
        <time>2017-02-25T11:13:48Z</time>
      </trkpt>
      <trkpt lat="38.208069" lon="-1.539590">
        <ele>389.5</ele>
        <time>2017-02-25T11:13:49Z</time>
      </trkpt>
      <trkpt lat="38.208066" lon="-1.539609">
        <ele>390.0</ele>
        <time>2017-02-25T11:13:50Z</time>
      </trkpt>
      <trkpt lat="38.208063" lon="-1.539628">
        <ele>388.5</ele>
        <time>2017-02-25T11:13:51Z</time>
      </trkpt>
      <trkpt lat="38.208049" lon="-1.539679">
        <ele>390.0</ele>
        <time>2017-02-25T11:13:54Z</time>
      </trkpt>
      <trkpt lat="38.208043" lon="-1.539691">
        <ele>389.5</ele>
        <time>2017-02-25T11:13:55Z</time>
      </trkpt>
      <trkpt lat="38.208036" lon="-1.539707">
        <ele>390.4</ele>
        <time>2017-02-25T11:13:56Z</time>
      </trkpt>
      <trkpt lat="38.208031" lon="-1.539722">
        <ele>391.4</ele>
        <time>2017-02-25T11:13:57Z</time>
      </trkpt>
      <trkpt lat="38.208026" lon="-1.539737">
        <ele>390.9</ele>
        <time>2017-02-25T11:13:58Z</time>
      </trkpt>
      <trkpt lat="38.207946" lon="-1.539991">
        <ele>390.9</ele>
        <time>2017-02-25T11:14:14Z</time>
      </trkpt>
      <trkpt lat="38.207849" lon="-1.540243">
        <ele>391.4</ele>
        <time>2017-02-25T11:14:30Z</time>
      </trkpt>
      <trkpt lat="38.207711" lon="-1.540459">
        <ele>392.8</ele>
        <time>2017-02-25T11:14:45Z</time>
      </trkpt>
      <trkpt lat="38.207551" lon="-1.540655">
        <ele>393.8</ele>
        <time>2017-02-25T11:15:02Z</time>
      </trkpt>
      <trkpt lat="38.207399" lon="-1.540882">
        <ele>394.8</ele>
        <time>2017-02-25T11:15:20Z</time>
      </trkpt>
      <trkpt lat="38.207384" lon="-1.540907">
        <ele>394.3</ele>
        <time>2017-02-25T11:15:22Z</time>
      </trkpt>
      <trkpt lat="38.207378" lon="-1.540920">
        <ele>394.8</ele>
        <time>2017-02-25T11:15:23Z</time>
      </trkpt>
      <trkpt lat="38.207370" lon="-1.540933">
        <ele>395.2</ele>
        <time>2017-02-25T11:15:24Z</time>
      </trkpt>
      <trkpt lat="38.207362" lon="-1.540950">
        <ele>395.2</ele>
        <time>2017-02-25T11:15:25Z</time>
      </trkpt>
      <trkpt lat="38.207353" lon="-1.540970">
        <ele>394.8</ele>
        <time>2017-02-25T11:15:26Z</time>
      </trkpt>
      <trkpt lat="38.207221" lon="-1.541188">
        <ele>395.7</ele>
        <time>2017-02-25T11:15:42Z</time>
      </trkpt>
      <trkpt lat="38.207097" lon="-1.541440">
        <ele>396.7</ele>
        <time>2017-02-25T11:15:59Z</time>
      </trkpt>
      <trkpt lat="38.207092" lon="-1.541456">
        <ele>396.7</ele>
        <time>2017-02-25T11:16:00Z</time>
      </trkpt>
      <trkpt lat="38.207086" lon="-1.541469">
        <ele>394.8</ele>
        <time>2017-02-25T11:16:01Z</time>
      </trkpt>
      <trkpt lat="38.206971" lon="-1.541738">
        <ele>396.7</ele>
        <time>2017-02-25T11:16:18Z</time>
      </trkpt>
      <trkpt lat="38.206863" lon="-1.542016">
        <ele>396.2</ele>
        <time>2017-02-25T11:16:36Z</time>
      </trkpt>
      <trkpt lat="38.206795" lon="-1.542211">
        <ele>396.2</ele>
        <time>2017-02-25T11:16:49Z</time>
      </trkpt>
      <trkpt lat="38.206787" lon="-1.542239">
        <ele>396.2</ele>
        <time>2017-02-25T11:16:51Z</time>
      </trkpt>
      <trkpt lat="38.206732" lon="-1.542398">
        <ele>396.7</ele>
        <time>2017-02-25T11:17:02Z</time>
      </trkpt>
      <trkpt lat="38.206727" lon="-1.542418">
        <ele>396.7</ele>
        <time>2017-02-25T11:17:03Z</time>
      </trkpt>
      <trkpt lat="38.206722" lon="-1.542437">
        <ele>396.7</ele>
        <time>2017-02-25T11:17:04Z</time>
      </trkpt>
      <trkpt lat="38.206712" lon="-1.542456">
        <ele>396.7</ele>
        <time>2017-02-25T11:17:05Z</time>
      </trkpt>
      <trkpt lat="38.206704" lon="-1.542474">
        <ele>397.2</ele>
        <time>2017-02-25T11:17:06Z</time>
      </trkpt>
      <trkpt lat="38.206695" lon="-1.542493">
        <ele>396.7</ele>
        <time>2017-02-25T11:17:07Z</time>
      </trkpt>
      <trkpt lat="38.206690" lon="-1.542512">
        <ele>397.2</ele>
        <time>2017-02-25T11:17:08Z</time>
      </trkpt>
      <trkpt lat="38.206687" lon="-1.542527">
        <ele>397.2</ele>
        <time>2017-02-25T11:17:09Z</time>
      </trkpt>
      <trkpt lat="38.206683" lon="-1.542542">
        <ele>397.2</ele>
        <time>2017-02-25T11:17:10Z</time>
      </trkpt>
      <trkpt lat="38.206683" lon="-1.542557">
        <ele>397.2</ele>
        <time>2017-02-25T11:17:11Z</time>
      </trkpt>
      <trkpt lat="38.206682" lon="-1.542572">
        <ele>397.2</ele>
        <time>2017-02-25T11:17:12Z</time>
      </trkpt>
      <trkpt lat="38.206681" lon="-1.542587">
        <ele>397.6</ele>
        <time>2017-02-25T11:17:13Z</time>
      </trkpt>
      <trkpt lat="38.206676" lon="-1.542608">
        <ele>397.6</ele>
        <time>2017-02-25T11:17:14Z</time>
      </trkpt>
      <trkpt lat="38.206672" lon="-1.542628">
        <ele>397.6</ele>
        <time>2017-02-25T11:17:15Z</time>
      </trkpt>
      <trkpt lat="38.206670" lon="-1.542645">
        <ele>397.6</ele>
        <time>2017-02-25T11:17:16Z</time>
      </trkpt>
      <trkpt lat="38.206670" lon="-1.542660">
        <ele>398.1</ele>
        <time>2017-02-25T11:17:17Z</time>
      </trkpt>
      <trkpt lat="38.206666" lon="-1.542679">
        <ele>397.6</ele>
        <time>2017-02-25T11:17:18Z</time>
      </trkpt>
      <trkpt lat="38.206640" lon="-1.542811">
        <ele>399.6</ele>
        <time>2017-02-25T11:17:26Z</time>
      </trkpt>
      <trkpt lat="38.206634" lon="-1.542829">
        <ele>399.6</ele>
        <time>2017-02-25T11:17:27Z</time>
      </trkpt>
      <trkpt lat="38.206628" lon="-1.542847">
        <ele>400.0</ele>
        <time>2017-02-25T11:17:28Z</time>
      </trkpt>
      <trkpt lat="38.206627" lon="-1.542862">
        <ele>400.5</ele>
        <time>2017-02-25T11:17:29Z</time>
      </trkpt>
      <trkpt lat="38.206628" lon="-1.542879">
        <ele>400.0</ele>
        <time>2017-02-25T11:17:30Z</time>
      </trkpt>
      <trkpt lat="38.206627" lon="-1.542895">
        <ele>400.0</ele>
        <time>2017-02-25T11:17:31Z</time>
      </trkpt>
      <trkpt lat="38.206625" lon="-1.542913">
        <ele>400.5</ele>
        <time>2017-02-25T11:17:32Z</time>
      </trkpt>
      <trkpt lat="38.206620" lon="-1.543023">
        <ele>401.5</ele>
        <time>2017-02-25T11:17:39Z</time>
      </trkpt>
      <trkpt lat="38.206614" lon="-1.543109">
        <ele>401.5</ele>
        <time>2017-02-25T11:17:44Z</time>
      </trkpt>
      <trkpt lat="38.206614" lon="-1.543124">
        <ele>402.5</ele>
        <time>2017-02-25T11:17:45Z</time>
      </trkpt>
      <trkpt lat="38.206599" lon="-1.543373">
        <ele>404.9</ele>
        <time>2017-02-25T11:18:02Z</time>
      </trkpt>
      <trkpt lat="38.206553" lon="-1.543512">
        <ele>405.8</ele>
        <time>2017-02-25T11:18:15Z</time>
      </trkpt>
      <trkpt lat="38.206522" lon="-1.543651">
        <ele>405.8</ele>
        <time>2017-02-25T11:18:27Z</time>
      </trkpt>
      <trkpt lat="38.206504" lon="-1.543779">
        <ele>406.3</ele>
        <time>2017-02-25T11:18:38Z</time>
      </trkpt>
      <trkpt lat="38.206486" lon="-1.543968">
        <ele>407.7</ele>
        <time>2017-02-25T11:18:51Z</time>
      </trkpt>
      <trkpt lat="38.206453" lon="-1.544162">
        <ele>408.7</ele>
        <time>2017-02-25T11:19:04Z</time>
      </trkpt>
      <trkpt lat="38.206404" lon="-1.544256">
        <ele>409.2</ele>
        <time>2017-02-25T11:19:11Z</time>
      </trkpt>
      <trkpt lat="38.206284" lon="-1.544344">
        <ele>409.7</ele>
        <time>2017-02-25T11:19:24Z</time>
      </trkpt>
      <trkpt lat="38.206219" lon="-1.544399">
        <ele>409.7</ele>
        <time>2017-02-25T11:19:31Z</time>
      </trkpt>
      <trkpt lat="38.206210" lon="-1.544410">
        <ele>410.1</ele>
        <time>2017-02-25T11:19:32Z</time>
      </trkpt>
      <trkpt lat="38.206162" lon="-1.544465">
        <ele>410.1</ele>
        <time>2017-02-25T11:19:38Z</time>
      </trkpt>
      <trkpt lat="38.206154" lon="-1.544481">
        <ele>409.7</ele>
        <time>2017-02-25T11:19:39Z</time>
      </trkpt>
      <trkpt lat="38.206106" lon="-1.544767">
        <ele>409.2</ele>
        <time>2017-02-25T11:19:57Z</time>
      </trkpt>
      <trkpt lat="38.206106" lon="-1.544912">
        <ele>409.2</ele>
        <time>2017-02-25T11:20:06Z</time>
      </trkpt>
      <trkpt lat="38.206112" lon="-1.544929">
        <ele>409.7</ele>
        <time>2017-02-25T11:20:07Z</time>
      </trkpt>
      <trkpt lat="38.206117" lon="-1.544947">
        <ele>409.2</ele>
        <time>2017-02-25T11:20:08Z</time>
      </trkpt>
      <trkpt lat="38.206121" lon="-1.544966">
        <ele>409.2</ele>
        <time>2017-02-25T11:20:09Z</time>
      </trkpt>
      <trkpt lat="38.206125" lon="-1.544982">
        <ele>409.7</ele>
        <time>2017-02-25T11:20:10Z</time>
      </trkpt>
      <trkpt lat="38.206106" lon="-1.545208">
        <ele>411.1</ele>
        <time>2017-02-25T11:20:26Z</time>
      </trkpt>
      <trkpt lat="38.206041" lon="-1.545347">
        <ele>411.1</ele>
        <time>2017-02-25T11:20:37Z</time>
      </trkpt>
      <trkpt lat="38.206023" lon="-1.545395">
        <ele>411.1</ele>
        <time>2017-02-25T11:20:41Z</time>
      </trkpt>
      <trkpt lat="38.206012" lon="-1.545404">
        <ele>411.1</ele>
        <time>2017-02-25T11:20:42Z</time>
      </trkpt>
      <trkpt lat="38.206003" lon="-1.545411">
        <ele>411.1</ele>
        <time>2017-02-25T11:20:43Z</time>
      </trkpt>
      <trkpt lat="38.205998" lon="-1.545424">
        <ele>411.1</ele>
        <time>2017-02-25T11:20:44Z</time>
      </trkpt>
      <trkpt lat="38.205993" lon="-1.545439">
        <ele>411.1</ele>
        <time>2017-02-25T11:20:45Z</time>
      </trkpt>
      <trkpt lat="38.205975" lon="-1.545472">
        <ele>412.1</ele>
        <time>2017-02-25T11:20:48Z</time>
      </trkpt>
      <trkpt lat="38.205960" lon="-1.545491">
        <ele>411.1</ele>
        <time>2017-02-25T11:20:50Z</time>
      </trkpt>
      <trkpt lat="38.205953" lon="-1.545504">
        <ele>411.6</ele>
        <time>2017-02-25T11:20:51Z</time>
      </trkpt>
      <trkpt lat="38.205943" lon="-1.545513">
        <ele>412.1</ele>
        <time>2017-02-25T11:20:52Z</time>
      </trkpt>
      <trkpt lat="38.205861" lon="-1.545593">
        <ele>412.1</ele>
        <time>2017-02-25T11:21:01Z</time>
      </trkpt>
      <trkpt lat="38.205849" lon="-1.545598">
        <ele>412.5</ele>
        <time>2017-02-25T11:21:02Z</time>
      </trkpt>
      <trkpt lat="38.205832" lon="-1.545617">
        <ele>412.5</ele>
        <time>2017-02-25T11:21:04Z</time>
      </trkpt>
      <trkpt lat="38.205697" lon="-1.545750">
        <ele>413.0</ele>
        <time>2017-02-25T11:21:18Z</time>
      </trkpt>
      <trkpt lat="38.205598" lon="-1.545865">
        <ele>413.0</ele>
        <time>2017-02-25T11:21:30Z</time>
      </trkpt>
      <trkpt lat="38.205594" lon="-1.545881">
        <ele>413.5</ele>
        <time>2017-02-25T11:21:31Z</time>
      </trkpt>
      <trkpt lat="38.205589" lon="-1.545897">
        <ele>413.5</ele>
        <time>2017-02-25T11:21:32Z</time>
      </trkpt>
      <trkpt lat="38.205581" lon="-1.545913">
        <ele>413.5</ele>
        <time>2017-02-25T11:21:33Z</time>
      </trkpt>
      <trkpt lat="38.205574" lon="-1.545928">
        <ele>413.0</ele>
        <time>2017-02-25T11:21:34Z</time>
      </trkpt>
      <trkpt lat="38.205547" lon="-1.546007">
        <ele>413.5</ele>
        <time>2017-02-25T11:21:40Z</time>
      </trkpt>
      <trkpt lat="38.205544" lon="-1.546028">
        <ele>413.5</ele>
        <time>2017-02-25T11:21:41Z</time>
      </trkpt>
      <trkpt lat="38.205542" lon="-1.546048">
        <ele>414.0</ele>
        <time>2017-02-25T11:21:42Z</time>
      </trkpt>
      <trkpt lat="38.205537" lon="-1.546067">
        <ele>414.0</ele>
        <time>2017-02-25T11:21:43Z</time>
      </trkpt>
      <trkpt lat="38.205495" lon="-1.546223">
        <ele>414.5</ele>
        <time>2017-02-25T11:21:53Z</time>
      </trkpt>
      <trkpt lat="38.205487" lon="-1.546238">
        <ele>414.5</ele>
        <time>2017-02-25T11:21:54Z</time>
      </trkpt>
      <trkpt lat="38.205483" lon="-1.546253">
        <ele>414.5</ele>
        <time>2017-02-25T11:21:55Z</time>
      </trkpt>
      <trkpt lat="38.205480" lon="-1.546273">
        <ele>414.0</ele>
        <time>2017-02-25T11:21:56Z</time>
      </trkpt>
      <trkpt lat="38.205479" lon="-1.546289">
        <ele>414.5</ele>
        <time>2017-02-25T11:21:57Z</time>
      </trkpt>
      <trkpt lat="38.205477" lon="-1.546307">
        <ele>414.5</ele>
        <time>2017-02-25T11:21:58Z</time>
      </trkpt>
      <trkpt lat="38.205471" lon="-1.546324">
        <ele>414.5</ele>
        <time>2017-02-25T11:21:59Z</time>
      </trkpt>
      <trkpt lat="38.205449" lon="-1.546436">
        <ele>415.0</ele>
        <time>2017-02-25T11:22:07Z</time>
      </trkpt>
      <trkpt lat="38.205444" lon="-1.546450">
        <ele>415.4</ele>
        <time>2017-02-25T11:22:08Z</time>
      </trkpt>
      <trkpt lat="38.205443" lon="-1.546464">
        <ele>415.0</ele>
        <time>2017-02-25T11:22:09Z</time>
      </trkpt>
      <trkpt lat="38.205442" lon="-1.546477">
        <ele>415.0</ele>
        <time>2017-02-25T11:22:10Z</time>
      </trkpt>
      <trkpt lat="38.205426" lon="-1.546516">
        <ele>415.4</ele>
        <time>2017-02-25T11:22:13Z</time>
      </trkpt>
      <trkpt lat="38.205377" lon="-1.546720">
        <ele>415.9</ele>
        <time>2017-02-25T11:22:27Z</time>
      </trkpt>
      <trkpt lat="38.205328" lon="-1.547032">
        <ele>415.4</ele>
        <time>2017-02-25T11:22:47Z</time>
      </trkpt>
      <trkpt lat="38.205307" lon="-1.547234">
        <ele>416.4</ele>
        <time>2017-02-25T11:23:00Z</time>
      </trkpt>
      <trkpt lat="38.205300" lon="-1.547274">
        <ele>416.4</ele>
        <time>2017-02-25T11:23:03Z</time>
      </trkpt>
      <trkpt lat="38.205277" lon="-1.547488">
        <ele>416.9</ele>
        <time>2017-02-25T11:23:16Z</time>
      </trkpt>
      <trkpt lat="38.205291" lon="-1.547638">
        <ele>416.9</ele>
        <time>2017-02-25T11:23:27Z</time>
      </trkpt>
      <trkpt lat="38.205332" lon="-1.547819">
        <ele>416.9</ele>
        <time>2017-02-25T11:23:37Z</time>
      </trkpt>
      <trkpt lat="38.205360" lon="-1.547930">
        <ele>417.4</ele>
        <time>2017-02-25T11:23:44Z</time>
      </trkpt>
      <trkpt lat="38.205362" lon="-1.547946">
        <ele>416.9</ele>
        <time>2017-02-25T11:23:45Z</time>
      </trkpt>
      <trkpt lat="38.205367" lon="-1.547964">
        <ele>417.4</ele>
        <time>2017-02-25T11:23:46Z</time>
      </trkpt>
      <trkpt lat="38.205371" lon="-1.547981">
        <ele>417.4</ele>
        <time>2017-02-25T11:23:47Z</time>
      </trkpt>
      <trkpt lat="38.205374" lon="-1.547996">
        <ele>417.4</ele>
        <time>2017-02-25T11:23:48Z</time>
      </trkpt>
      <trkpt lat="38.205378" lon="-1.548011">
        <ele>417.4</ele>
        <time>2017-02-25T11:23:49Z</time>
      </trkpt>
      <trkpt lat="38.205388" lon="-1.548193">
        <ele>417.8</ele>
        <time>2017-02-25T11:24:01Z</time>
      </trkpt>
      <trkpt lat="38.205341" lon="-1.548377">
        <ele>419.3</ele>
        <time>2017-02-25T11:24:15Z</time>
      </trkpt>
      <trkpt lat="38.205325" lon="-1.548442">
        <ele>419.3</ele>
        <time>2017-02-25T11:25:04Z</time>
      </trkpt>
      <trkpt lat="38.205330" lon="-1.548461">
        <ele>419.3</ele>
        <time>2017-02-25T11:25:05Z</time>
      </trkpt>
      <trkpt lat="38.205338" lon="-1.548480">
        <ele>418.8</ele>
        <time>2017-02-25T11:25:06Z</time>
      </trkpt>
      <trkpt lat="38.205343" lon="-1.548497">
        <ele>419.8</ele>
        <time>2017-02-25T11:25:07Z</time>
      </trkpt>
      <trkpt lat="38.205341" lon="-1.548517">
        <ele>418.8</ele>
        <time>2017-02-25T11:25:08Z</time>
      </trkpt>
      <trkpt lat="38.205296" lon="-1.548736">
        <ele>418.3</ele>
        <time>2017-02-25T11:25:21Z</time>
      </trkpt>
      <trkpt lat="38.205263" lon="-1.549031">
        <ele>417.8</ele>
        <time>2017-02-25T11:25:37Z</time>
      </trkpt>
      <trkpt lat="38.205210" lon="-1.549349">
        <ele>417.8</ele>
        <time>2017-02-25T11:25:55Z</time>
      </trkpt>
      <trkpt lat="38.205165" lon="-1.549650">
        <ele>417.8</ele>
        <time>2017-02-25T11:26:12Z</time>
      </trkpt>
      <trkpt lat="38.205145" lon="-1.549935">
        <ele>418.3</ele>
        <time>2017-02-25T11:26:29Z</time>
      </trkpt>
      <trkpt lat="38.205130" lon="-1.550245">
        <ele>418.8</ele>
        <time>2017-02-25T11:26:46Z</time>
      </trkpt>
      <trkpt lat="38.205187" lon="-1.550553">
        <ele>419.3</ele>
        <time>2017-02-25T11:27:04Z</time>
      </trkpt>
      <trkpt lat="38.205223" lon="-1.550728">
        <ele>419.8</ele>
        <time>2017-02-25T11:27:15Z</time>
      </trkpt>
      <trkpt lat="38.205228" lon="-1.550748">
        <ele>418.8</ele>
        <time>2017-02-25T11:27:16Z</time>
      </trkpt>
      <trkpt lat="38.205229" lon="-1.550776">
        <ele>418.8</ele>
        <time>2017-02-25T11:27:17Z</time>
      </trkpt>
      <trkpt lat="38.205229" lon="-1.550802">
        <ele>418.8</ele>
        <time>2017-02-25T11:27:18Z</time>
      </trkpt>
      <trkpt lat="38.205229" lon="-1.550823">
        <ele>420.7</ele>
        <time>2017-02-25T11:27:19Z</time>
      </trkpt>
      <trkpt lat="38.205197" lon="-1.551121">
        <ele>420.2</ele>
        <time>2017-02-25T11:27:35Z</time>
      </trkpt>
      <trkpt lat="38.205176" lon="-1.551452">
        <ele>420.2</ele>
        <time>2017-02-25T11:27:53Z</time>
      </trkpt>
      <trkpt lat="38.205215" lon="-1.551703">
        <ele>420.2</ele>
        <time>2017-02-25T11:28:07Z</time>
      </trkpt>
      <trkpt lat="38.205243" lon="-1.551812">
        <ele>420.7</ele>
        <time>2017-02-25T11:28:13Z</time>
      </trkpt>
      <trkpt lat="38.205249" lon="-1.551825">
        <ele>421.2</ele>
        <time>2017-02-25T11:28:14Z</time>
      </trkpt>
      <trkpt lat="38.205254" lon="-1.551839">
        <ele>421.7</ele>
        <time>2017-02-25T11:28:15Z</time>
      </trkpt>
      <trkpt lat="38.205259" lon="-1.551858">
        <ele>420.2</ele>
        <time>2017-02-25T11:28:16Z</time>
      </trkpt>
      <trkpt lat="38.205263" lon="-1.551875">
        <ele>421.7</ele>
        <time>2017-02-25T11:28:17Z</time>
      </trkpt>
      <trkpt lat="38.205268" lon="-1.551893">
        <ele>421.7</ele>
        <time>2017-02-25T11:28:18Z</time>
      </trkpt>
      <trkpt lat="38.205290" lon="-1.551959">
        <ele>421.7</ele>
        <time>2017-02-25T11:28:22Z</time>
      </trkpt>
      <trkpt lat="38.205365" lon="-1.552124">
        <ele>422.2</ele>
        <time>2017-02-25T11:28:37Z</time>
      </trkpt>
      <trkpt lat="38.205457" lon="-1.552397">
        <ele>423.1</ele>
        <time>2017-02-25T11:29:06Z</time>
      </trkpt>
      <trkpt lat="38.205462" lon="-1.552413">
        <ele>423.6</ele>
        <time>2017-02-25T11:29:07Z</time>
      </trkpt>
      <trkpt lat="38.205530" lon="-1.552679">
        <ele>424.1</ele>
        <time>2017-02-25T11:29:24Z</time>
      </trkpt>
      <trkpt lat="38.205531" lon="-1.552691">
        <ele>424.1</ele>
        <time>2017-02-25T11:29:25Z</time>
      </trkpt>
      <trkpt lat="38.205534" lon="-1.552708">
        <ele>423.6</ele>
        <time>2017-02-25T11:29:26Z</time>
      </trkpt>
      <trkpt lat="38.205540" lon="-1.552725">
        <ele>423.6</ele>
        <time>2017-02-25T11:29:27Z</time>
      </trkpt>
      <trkpt lat="38.205562" lon="-1.552853">
        <ele>423.6</ele>
        <time>2017-02-25T11:29:34Z</time>
      </trkpt>
      <trkpt lat="38.205571" lon="-1.552866">
        <ele>423.6</ele>
        <time>2017-02-25T11:29:35Z</time>
      </trkpt>
      <trkpt lat="38.205578" lon="-1.552883">
        <ele>423.6</ele>
        <time>2017-02-25T11:29:36Z</time>
      </trkpt>
      <trkpt lat="38.205585" lon="-1.552905">
        <ele>424.1</ele>
        <time>2017-02-25T11:29:37Z</time>
      </trkpt>
      <trkpt lat="38.205590" lon="-1.552927">
        <ele>423.6</ele>
        <time>2017-02-25T11:29:38Z</time>
      </trkpt>
      <trkpt lat="38.205597" lon="-1.552946">
        <ele>423.1</ele>
        <time>2017-02-25T11:29:39Z</time>
      </trkpt>
      <trkpt lat="38.205644" lon="-1.553139">
        <ele>423.1</ele>
        <time>2017-02-25T11:29:55Z</time>
      </trkpt>
      <trkpt lat="38.205660" lon="-1.553159">
        <ele>423.6</ele>
        <time>2017-02-25T11:29:57Z</time>
      </trkpt>
      <trkpt lat="38.205669" lon="-1.553176">
        <ele>423.1</ele>
        <time>2017-02-25T11:29:58Z</time>
      </trkpt>
      <trkpt lat="38.205677" lon="-1.553195">
        <ele>423.1</ele>
        <time>2017-02-25T11:29:59Z</time>
      </trkpt>
      <trkpt lat="38.205797" lon="-1.553434">
        <ele>423.6</ele>
        <time>2017-02-25T11:30:14Z</time>
      </trkpt>
      <trkpt lat="38.205884" lon="-1.553544">
        <ele>424.1</ele>
        <time>2017-02-25T11:30:27Z</time>
      </trkpt>
      <trkpt lat="38.205998" lon="-1.553685">
        <ele>424.1</ele>
        <time>2017-02-25T11:30:51Z</time>
      </trkpt>
      <trkpt lat="38.206195" lon="-1.553935">
        <ele>423.6</ele>
        <time>2017-02-25T11:31:11Z</time>
      </trkpt>
      <trkpt lat="38.206373" lon="-1.554085">
        <ele>422.2</ele>
        <time>2017-02-25T11:31:26Z</time>
      </trkpt>
      <trkpt lat="38.206542" lon="-1.554315">
        <ele>422.6</ele>
        <time>2017-02-25T11:31:43Z</time>
      </trkpt>
      <trkpt lat="38.206766" lon="-1.554553">
        <ele>421.7</ele>
        <time>2017-02-25T11:32:03Z</time>
      </trkpt>
      <trkpt lat="38.206926" lon="-1.554717">
        <ele>423.1</ele>
        <time>2017-02-25T11:32:17Z</time>
      </trkpt>
      <trkpt lat="38.207111" lon="-1.554912">
        <ele>423.6</ele>
        <time>2017-02-25T11:32:33Z</time>
      </trkpt>
      <trkpt lat="38.207324" lon="-1.555053">
        <ele>423.6</ele>
        <time>2017-02-25T11:32:49Z</time>
      </trkpt>
      <trkpt lat="38.207496" lon="-1.555179">
        <ele>423.6</ele>
        <time>2017-02-25T11:33:03Z</time>
      </trkpt>
      <trkpt lat="38.207709" lon="-1.555349">
        <ele>423.6</ele>
        <time>2017-02-25T11:33:20Z</time>
      </trkpt>
      <trkpt lat="38.207965" lon="-1.555538">
        <ele>424.1</ele>
        <time>2017-02-25T11:33:40Z</time>
      </trkpt>
      <trkpt lat="38.208172" lon="-1.555705">
        <ele>423.6</ele>
        <time>2017-02-25T11:33:56Z</time>
      </trkpt>
      <trkpt lat="38.208345" lon="-1.555869">
        <ele>423.1</ele>
        <time>2017-02-25T11:34:10Z</time>
      </trkpt>
      <trkpt lat="38.208543" lon="-1.556057">
        <ele>423.1</ele>
        <time>2017-02-25T11:34:26Z</time>
      </trkpt>
      <trkpt lat="38.208556" lon="-1.556076">
        <ele>422.6</ele>
        <time>2017-02-25T11:34:28Z</time>
      </trkpt>
      <trkpt lat="38.208564" lon="-1.556087">
        <ele>422.6</ele>
        <time>2017-02-25T11:34:29Z</time>
      </trkpt>
      <trkpt lat="38.208623" lon="-1.556146">
        <ele>422.6</ele>
        <time>2017-02-25T11:34:35Z</time>
      </trkpt>
      <trkpt lat="38.208636" lon="-1.556151">
        <ele>422.6</ele>
        <time>2017-02-25T11:34:36Z</time>
      </trkpt>
      <trkpt lat="38.208649" lon="-1.556160">
        <ele>422.6</ele>
        <time>2017-02-25T11:34:37Z</time>
      </trkpt>
      <trkpt lat="38.208659" lon="-1.556169">
        <ele>422.2</ele>
        <time>2017-02-25T11:34:38Z</time>
      </trkpt>
      <trkpt lat="38.208671" lon="-1.556180">
        <ele>422.2</ele>
        <time>2017-02-25T11:34:39Z</time>
      </trkpt>
      <trkpt lat="38.208764" lon="-1.556277">
        <ele>422.2</ele>
        <time>2017-02-25T11:34:49Z</time>
      </trkpt>
      <trkpt lat="38.208777" lon="-1.556281">
        <ele>422.2</ele>
        <time>2017-02-25T11:34:50Z</time>
      </trkpt>
      <trkpt lat="38.208789" lon="-1.556287">
        <ele>421.7</ele>
        <time>2017-02-25T11:34:51Z</time>
      </trkpt>
      <trkpt lat="38.208799" lon="-1.556298">
        <ele>421.2</ele>
        <time>2017-02-25T11:34:52Z</time>
      </trkpt>
      <trkpt lat="38.208809" lon="-1.556313">
        <ele>421.7</ele>
        <time>2017-02-25T11:34:53Z</time>
      </trkpt>
      <trkpt lat="38.208819" lon="-1.556325">
        <ele>421.2</ele>
        <time>2017-02-25T11:34:54Z</time>
      </trkpt>
      <trkpt lat="38.208894" lon="-1.556431">
        <ele>421.7</ele>
        <time>2017-02-25T11:35:02Z</time>
      </trkpt>
      <trkpt lat="38.208906" lon="-1.556431">
        <ele>421.2</ele>
        <time>2017-02-25T11:35:03Z</time>
      </trkpt>
      <trkpt lat="38.208920" lon="-1.556434">
        <ele>420.7</ele>
        <time>2017-02-25T11:35:04Z</time>
      </trkpt>
      <trkpt lat="38.208934" lon="-1.556441">
        <ele>420.7</ele>
        <time>2017-02-25T11:35:05Z</time>
      </trkpt>
      <trkpt lat="38.208945" lon="-1.556449">
        <ele>420.7</ele>
        <time>2017-02-25T11:35:06Z</time>
      </trkpt>
      <trkpt lat="38.208954" lon="-1.556460">
        <ele>420.7</ele>
        <time>2017-02-25T11:35:07Z</time>
      </trkpt>
      <trkpt lat="38.208964" lon="-1.556471">
        <ele>420.2</ele>
        <time>2017-02-25T11:35:08Z</time>
      </trkpt>
      <trkpt lat="38.208974" lon="-1.556483">
        <ele>420.2</ele>
        <time>2017-02-25T11:35:09Z</time>
      </trkpt>
      <trkpt lat="38.208983" lon="-1.556492">
        <ele>420.2</ele>
        <time>2017-02-25T11:35:10Z</time>
      </trkpt>
      <trkpt lat="38.208994" lon="-1.556507">
        <ele>420.2</ele>
        <time>2017-02-25T11:35:11Z</time>
      </trkpt>
      <trkpt lat="38.209034" lon="-1.556543">
        <ele>420.2</ele>
        <time>2017-02-25T11:35:15Z</time>
      </trkpt>
      <trkpt lat="38.209048" lon="-1.556548">
        <ele>419.3</ele>
        <time>2017-02-25T11:35:16Z</time>
      </trkpt>
      <trkpt lat="38.209060" lon="-1.556554">
        <ele>419.8</ele>
        <time>2017-02-25T11:35:17Z</time>
      </trkpt>
      <trkpt lat="38.209070" lon="-1.556562">
        <ele>419.3</ele>
        <time>2017-02-25T11:35:18Z</time>
      </trkpt>
      <trkpt lat="38.209080" lon="-1.556571">
        <ele>419.8</ele>
        <time>2017-02-25T11:35:19Z</time>
      </trkpt>
      <trkpt lat="38.209208" lon="-1.556692">
        <ele>418.8</ele>
        <time>2017-02-25T11:35:32Z</time>
      </trkpt>
      <trkpt lat="38.209218" lon="-1.556705">
        <ele>418.3</ele>
        <time>2017-02-25T11:35:33Z</time>
      </trkpt>
      <trkpt lat="38.209227" lon="-1.556717">
        <ele>418.3</ele>
        <time>2017-02-25T11:35:34Z</time>
      </trkpt>
      <trkpt lat="38.209240" lon="-1.556729">
        <ele>418.3</ele>
        <time>2017-02-25T11:35:35Z</time>
      </trkpt>
      <trkpt lat="38.209384" lon="-1.556838">
        <ele>417.4</ele>
        <time>2017-02-25T11:35:48Z</time>
      </trkpt>
      <trkpt lat="38.209540" lon="-1.556980">
        <ele>416.9</ele>
        <time>2017-02-25T11:36:03Z</time>
      </trkpt>
      <trkpt lat="38.209561" lon="-1.556997">
        <ele>416.4</ele>
        <time>2017-02-25T11:36:05Z</time>
      </trkpt>
      <trkpt lat="38.209702" lon="-1.557121">
        <ele>415.4</ele>
        <time>2017-02-25T11:36:19Z</time>
      </trkpt>
      <trkpt lat="38.209839" lon="-1.557258">
        <ele>415.0</ele>
        <time>2017-02-25T11:36:34Z</time>
      </trkpt>
      <trkpt lat="38.210003" lon="-1.557378">
        <ele>414.0</ele>
        <time>2017-02-25T11:36:50Z</time>
      </trkpt>
      <trkpt lat="38.210183" lon="-1.557520">
        <ele>413.5</ele>
        <time>2017-02-25T11:37:07Z</time>
      </trkpt>
      <trkpt lat="38.210351" lon="-1.557683">
        <ele>413.0</ele>
        <time>2017-02-25T11:37:23Z</time>
      </trkpt>
      <trkpt lat="38.210524" lon="-1.557841">
        <ele>412.5</ele>
        <time>2017-02-25T11:37:40Z</time>
      </trkpt>
      <trkpt lat="38.210641" lon="-1.557931">
        <ele>411.6</ele>
        <time>2017-02-25T11:37:54Z</time>
      </trkpt>
      <trkpt lat="38.210667" lon="-1.557922">
        <ele>411.6</ele>
        <time>2017-02-25T11:38:01Z</time>
      </trkpt>
      <trkpt lat="38.210698" lon="-1.557968">
        <ele>412.1</ele>
        <time>2017-02-25T11:38:06Z</time>
      </trkpt>
      <trkpt lat="38.210705" lon="-1.557976">
        <ele>411.6</ele>
        <time>2017-02-25T11:38:07Z</time>
      </trkpt>
      <trkpt lat="38.210715" lon="-1.557986">
        <ele>411.6</ele>
        <time>2017-02-25T11:38:08Z</time>
      </trkpt>
      <trkpt lat="38.210740" lon="-1.558028">
        <ele>411.6</ele>
        <time>2017-02-25T11:38:12Z</time>
      </trkpt>
      <trkpt lat="38.210746" lon="-1.558044">
        <ele>411.1</ele>
        <time>2017-02-25T11:38:13Z</time>
      </trkpt>
      <trkpt lat="38.210753" lon="-1.558062">
        <ele>411.1</ele>
        <time>2017-02-25T11:38:14Z</time>
      </trkpt>
      <trkpt lat="38.210786" lon="-1.558135">
        <ele>411.6</ele>
        <time>2017-02-25T11:38:19Z</time>
      </trkpt>
      <trkpt lat="38.210914" lon="-1.558390">
        <ele>409.7</ele>
        <time>2017-02-25T11:38:58Z</time>
      </trkpt>
      <trkpt lat="38.210880" lon="-1.558465">
        <ele>409.7</ele>
        <time>2017-02-25T11:39:07Z</time>
      </trkpt>
      <trkpt lat="38.210872" lon="-1.558480">
        <ele>408.7</ele>
        <time>2017-02-25T11:39:08Z</time>
      </trkpt>
      <trkpt lat="38.210810" lon="-1.558623">
        <ele>408.7</ele>
        <time>2017-02-25T11:39:19Z</time>
      </trkpt>
      <trkpt lat="38.210796" lon="-1.558675">
        <ele>408.7</ele>
        <time>2017-02-25T11:39:23Z</time>
      </trkpt>
      <trkpt lat="38.210791" lon="-1.558687">
        <ele>408.7</ele>
        <time>2017-02-25T11:39:24Z</time>
      </trkpt>
      <trkpt lat="38.210783" lon="-1.558700">
        <ele>408.7</ele>
        <time>2017-02-25T11:39:25Z</time>
      </trkpt>
      <trkpt lat="38.210765" lon="-1.558747">
        <ele>408.7</ele>
        <time>2017-02-25T11:39:29Z</time>
      </trkpt>
      <trkpt lat="38.210493" lon="-1.559657">
        <ele>403.9</ele>
        <time>2017-02-25T11:43:22Z</time>
      </trkpt>
      <trkpt lat="38.210543" lon="-1.559797">
        <ele>406.3</ele>
        <time>2017-02-25T11:45:50Z</time>
      </trkpt>
      <trkpt lat="38.210620" lon="-1.559916">
        <ele>406.8</ele>
        <time>2017-02-25T11:46:02Z</time>
      </trkpt>
      <trkpt lat="38.210738" lon="-1.560000">
        <ele>406.8</ele>
        <time>2017-02-25T11:46:19Z</time>
      </trkpt>
      <trkpt lat="38.210729" lon="-1.559991">
        <ele>407.3</ele>
        <time>2017-02-25T11:46:37Z</time>
      </trkpt>
      <trkpt lat="38.210742" lon="-1.560024">
        <ele>406.8</ele>
        <time>2017-02-25T11:46:40Z</time>
      </trkpt>
      <trkpt lat="38.210820" lon="-1.560141">
        <ele>406.3</ele>
        <time>2017-02-25T11:46:49Z</time>
      </trkpt>
      <trkpt lat="38.210839" lon="-1.560261">
        <ele>406.3</ele>
        <time>2017-02-25T11:47:04Z</time>
      </trkpt>
      <trkpt lat="38.210835" lon="-1.560263">
        <ele>406.3</ele>
        <time>2017-02-25T11:47:06Z</time>
      </trkpt>
      <trkpt lat="38.210754" lon="-1.560474">
        <ele>407.3</ele>
        <time>2017-02-25T11:47:20Z</time>
      </trkpt>
      <trkpt lat="38.210695" lon="-1.560790">
        <ele>407.3</ele>
        <time>2017-02-25T11:47:37Z</time>
      </trkpt>
      <trkpt lat="38.210705" lon="-1.560886">
        <ele>407.7</ele>
        <time>2017-02-25T11:47:43Z</time>
      </trkpt>
      <trkpt lat="38.210702" lon="-1.561180">
        <ele>408.2</ele>
        <time>2017-02-25T11:48:00Z</time>
      </trkpt>
      <trkpt lat="38.210705" lon="-1.561396">
        <ele>408.7</ele>
        <time>2017-02-25T11:48:12Z</time>
      </trkpt>
      <trkpt lat="38.210767" lon="-1.561695">
        <ele>408.7</ele>
        <time>2017-02-25T11:48:28Z</time>
      </trkpt>
      <trkpt lat="38.210770" lon="-1.561858">
        <ele>409.2</ele>
        <time>2017-02-25T11:48:37Z</time>
      </trkpt>
      <trkpt lat="38.210822" lon="-1.562113">
        <ele>410.1</ele>
        <time>2017-02-25T11:48:51Z</time>
      </trkpt>
      <trkpt lat="38.210849" lon="-1.562345">
        <ele>410.1</ele>
        <time>2017-02-25T11:49:04Z</time>
      </trkpt>
      <trkpt lat="38.210901" lon="-1.562614">
        <ele>411.1</ele>
        <time>2017-02-25T11:49:20Z</time>
      </trkpt>
      <trkpt lat="38.210933" lon="-1.562828">
        <ele>411.6</ele>
        <time>2017-02-25T11:49:34Z</time>
      </trkpt>
      <trkpt lat="38.210992" lon="-1.563015">
        <ele>412.5</ele>
        <time>2017-02-25T11:49:47Z</time>
      </trkpt>
      <trkpt lat="38.211038" lon="-1.563262">
        <ele>412.5</ele>
        <time>2017-02-25T11:50:03Z</time>
      </trkpt>
      <trkpt lat="38.211090" lon="-1.563532">
        <ele>413.5</ele>
        <time>2017-02-25T11:50:19Z</time>
      </trkpt>
      <trkpt lat="38.211133" lon="-1.563665">
        <ele>414.0</ele>
        <time>2017-02-25T11:50:29Z</time>
      </trkpt>
      <trkpt lat="38.211145" lon="-1.563702">
        <ele>414.0</ele>
        <time>2017-02-25T11:50:43Z</time>
      </trkpt>
      <trkpt lat="38.211164" lon="-1.563717">
        <ele>414.0</ele>
        <time>2017-02-25T11:50:52Z</time>
      </trkpt>
      <trkpt lat="38.211174" lon="-1.563741">
        <ele>414.0</ele>
        <time>2017-02-25T11:50:54Z</time>
      </trkpt>
      <trkpt lat="38.211254" lon="-1.563865">
        <ele>414.0</ele>
        <time>2017-02-25T11:51:04Z</time>
      </trkpt>
      <trkpt lat="38.211281" lon="-1.563901">
        <ele>414.0</ele>
        <time>2017-02-25T11:51:08Z</time>
      </trkpt>
      <trkpt lat="38.211331" lon="-1.563977">
        <ele>414.5</ele>
        <time>2017-02-25T11:51:14Z</time>
      </trkpt>
      <trkpt lat="38.211370" lon="-1.564014">
        <ele>415.0</ele>
        <time>2017-02-25T11:51:18Z</time>
      </trkpt>
      <trkpt lat="38.211503" lon="-1.564185">
        <ele>415.9</ele>
        <time>2017-02-25T11:51:33Z</time>
      </trkpt>
      <trkpt lat="38.211522" lon="-1.564218">
        <ele>415.4</ele>
        <time>2017-02-25T11:51:35Z</time>
      </trkpt>
      <trkpt lat="38.211634" lon="-1.564363">
        <ele>415.4</ele>
        <time>2017-02-25T11:51:47Z</time>
      </trkpt>
      <trkpt lat="38.211644" lon="-1.564408">
        <ele>415.4</ele>
        <time>2017-02-25T11:51:50Z</time>
      </trkpt>
      <trkpt lat="38.211693" lon="-1.564537">
        <ele>415.0</ele>
        <time>2017-02-25T11:52:00Z</time>
      </trkpt>
      <trkpt lat="38.211592" lon="-1.564744">
        <ele>415.4</ele>
        <time>2017-02-25T11:52:15Z</time>
      </trkpt>
      <trkpt lat="38.211585" lon="-1.564758">
        <ele>415.9</ele>
        <time>2017-02-25T11:52:16Z</time>
      </trkpt>
      <trkpt lat="38.211499" lon="-1.564932">
        <ele>417.4</ele>
        <time>2017-02-25T11:52:30Z</time>
      </trkpt>
      <trkpt lat="38.211445" lon="-1.565193">
        <ele>417.8</ele>
        <time>2017-02-25T11:52:46Z</time>
      </trkpt>
      <trkpt lat="38.211446" lon="-1.565204">
        <ele>417.8</ele>
        <time>2017-02-25T11:52:47Z</time>
      </trkpt>
      <trkpt lat="38.211472" lon="-1.565453">
        <ele>419.8</ele>
        <time>2017-02-25T11:53:03Z</time>
      </trkpt>
      <trkpt lat="38.211515" lon="-1.565622">
        <ele>418.3</ele>
        <time>2017-02-25T11:53:16Z</time>
      </trkpt>
      <trkpt lat="38.211542" lon="-1.565696">
        <ele>418.3</ele>
        <time>2017-02-25T11:53:21Z</time>
      </trkpt>
      <trkpt lat="38.211549" lon="-1.565727">
        <ele>420.2</ele>
        <time>2017-02-25T11:53:23Z</time>
      </trkpt>
      <trkpt lat="38.211553" lon="-1.565760">
        <ele>424.1</ele>
        <time>2017-02-25T11:53:25Z</time>
      </trkpt>
      <trkpt lat="38.211557" lon="-1.565778">
        <ele>419.8</ele>
        <time>2017-02-25T11:53:26Z</time>
      </trkpt>
      <trkpt lat="38.211579" lon="-1.565871">
        <ele>419.8</ele>
        <time>2017-02-25T11:53:32Z</time>
      </trkpt>
      <trkpt lat="38.211633" lon="-1.566105">
        <ele>421.7</ele>
        <time>2017-02-25T11:53:47Z</time>
      </trkpt>
      <trkpt lat="38.211645" lon="-1.566154">
        <ele>422.2</ele>
        <time>2017-02-25T11:53:50Z</time>
      </trkpt>
      <trkpt lat="38.211678" lon="-1.566217">
        <ele>424.1</ele>
        <time>2017-02-25T11:53:55Z</time>
      </trkpt>
      <trkpt lat="38.211725" lon="-1.566318">
        <ele>422.6</ele>
        <time>2017-02-25T11:54:04Z</time>
      </trkpt>
      <trkpt lat="38.211799" lon="-1.566544">
        <ele>422.6</ele>
        <time>2017-02-25T11:54:18Z</time>
      </trkpt>
      <trkpt lat="38.211854" lon="-1.566690">
        <ele>422.6</ele>
        <time>2017-02-25T11:54:28Z</time>
      </trkpt>
      <trkpt lat="38.211944" lon="-1.566863">
        <ele>423.1</ele>
        <time>2017-02-25T11:54:41Z</time>
      </trkpt>
      <trkpt lat="38.212004" lon="-1.566962">
        <ele>423.1</ele>
        <time>2017-02-25T11:54:49Z</time>
      </trkpt>
      <trkpt lat="38.212094" lon="-1.567072">
        <ele>423.6</ele>
        <time>2017-02-25T11:55:00Z</time>
      </trkpt>
      <trkpt lat="38.212141" lon="-1.567142">
        <ele>423.6</ele>
        <time>2017-02-25T11:55:06Z</time>
      </trkpt>
      <trkpt lat="38.212174" lon="-1.567176">
        <ele>424.1</ele>
        <time>2017-02-25T11:55:09Z</time>
      </trkpt>
      <trkpt lat="38.212271" lon="-1.567345">
        <ele>425.0</ele>
        <time>2017-02-25T11:55:23Z</time>
      </trkpt>
      <trkpt lat="38.212325" lon="-1.567496">
        <ele>425.0</ele>
        <time>2017-02-25T11:55:34Z</time>
      </trkpt>
      <trkpt lat="38.212336" lon="-1.567527">
        <ele>426.0</ele>
        <time>2017-02-25T11:55:37Z</time>
      </trkpt>
      <trkpt lat="38.212390" lon="-1.567728">
        <ele>425.0</ele>
        <time>2017-02-25T11:55:53Z</time>
      </trkpt>
      <trkpt lat="38.212425" lon="-1.567822">
        <ele>424.1</ele>
        <time>2017-02-25T11:56:00Z</time>
      </trkpt>
      <trkpt lat="38.212437" lon="-1.567844">
        <ele>424.1</ele>
        <time>2017-02-25T11:56:02Z</time>
      </trkpt>
      <trkpt lat="38.212517" lon="-1.568066">
        <ele>423.1</ele>
        <time>2017-02-25T11:56:17Z</time>
      </trkpt>
      <trkpt lat="38.212612" lon="-1.568290">
        <ele>422.2</ele>
        <time>2017-02-25T11:56:32Z</time>
      </trkpt>
      <trkpt lat="38.212726" lon="-1.568433">
        <ele>422.2</ele>
        <time>2017-02-25T11:56:45Z</time>
      </trkpt>
      <trkpt lat="38.212802" lon="-1.568584">
        <ele>421.7</ele>
        <time>2017-02-25T11:56:58Z</time>
      </trkpt>
      <trkpt lat="38.212898" lon="-1.568759">
        <ele>420.2</ele>
        <time>2017-02-25T11:57:13Z</time>
      </trkpt>
      <trkpt lat="38.212967" lon="-1.568838">
        <ele>419.8</ele>
        <time>2017-02-25T11:57:20Z</time>
      </trkpt>
      <trkpt lat="38.213158" lon="-1.568853">
        <ele>419.3</ele>
        <time>2017-02-25T11:57:34Z</time>
      </trkpt>
      <trkpt lat="38.213249" lon="-1.568841">
        <ele>418.8</ele>
        <time>2017-02-25T11:57:42Z</time>
      </trkpt>
      <trkpt lat="38.213405" lon="-1.568862">
        <ele>418.3</ele>
        <time>2017-02-25T11:57:55Z</time>
      </trkpt>
      <trkpt lat="38.213482" lon="-1.568899">
        <ele>417.8</ele>
        <time>2017-02-25T11:58:02Z</time>
      </trkpt>
      <trkpt lat="38.213616" lon="-1.569005">
        <ele>416.4</ele>
        <time>2017-02-25T11:58:16Z</time>
      </trkpt>
      <trkpt lat="38.213696" lon="-1.569074">
        <ele>415.4</ele>
        <time>2017-02-25T11:58:24Z</time>
      </trkpt>
      <trkpt lat="38.213712" lon="-1.569102">
        <ele>415.9</ele>
        <time>2017-02-25T11:58:27Z</time>
      </trkpt>
      <trkpt lat="38.213846" lon="-1.569341">
        <ele>415.4</ele>
        <time>2017-02-25T11:58:42Z</time>
      </trkpt>
      <trkpt lat="38.213912" lon="-1.569603">
        <ele>415.4</ele>
        <time>2017-02-25T11:59:00Z</time>
      </trkpt>
      <trkpt lat="38.213898" lon="-1.569826">
        <ele>416.4</ele>
        <time>2017-02-25T11:59:17Z</time>
      </trkpt>
      <trkpt lat="38.213918" lon="-1.569984">
        <ele>416.9</ele>
        <time>2017-02-25T11:59:29Z</time>
      </trkpt>
      <trkpt lat="38.213911" lon="-1.570088">
        <ele>416.9</ele>
        <time>2017-02-25T11:59:35Z</time>
      </trkpt>
      <trkpt lat="38.213915" lon="-1.570340">
        <ele>417.4</ele>
        <time>2017-02-25T11:59:51Z</time>
      </trkpt>
      <trkpt lat="38.213933" lon="-1.570498">
        <ele>417.4</ele>
        <time>2017-02-25T12:00:01Z</time>
      </trkpt>
      <trkpt lat="38.213935" lon="-1.570531">
        <ele>417.4</ele>
        <time>2017-02-25T12:00:03Z</time>
      </trkpt>
      <trkpt lat="38.213981" lon="-1.570716">
        <ele>417.4</ele>
        <time>2017-02-25T12:00:15Z</time>
      </trkpt>
      <trkpt lat="38.214045" lon="-1.570949">
        <ele>416.9</ele>
        <time>2017-02-25T12:00:30Z</time>
      </trkpt>
      <trkpt lat="38.214053" lon="-1.570979">
        <ele>417.4</ele>
        <time>2017-02-25T12:00:32Z</time>
      </trkpt>
      <trkpt lat="38.214135" lon="-1.571201">
        <ele>418.3</ele>
        <time>2017-02-25T12:00:48Z</time>
      </trkpt>
      <trkpt lat="38.214168" lon="-1.571269">
        <ele>419.3</ele>
        <time>2017-02-25T12:00:54Z</time>
      </trkpt>
      <trkpt lat="38.214206" lon="-1.571319">
        <ele>418.3</ele>
        <time>2017-02-25T12:00:58Z</time>
      </trkpt>
      <trkpt lat="38.214305" lon="-1.571460">
        <ele>417.8</ele>
        <time>2017-02-25T12:01:10Z</time>
      </trkpt>
      <trkpt lat="38.214349" lon="-1.571526">
        <ele>417.8</ele>
        <time>2017-02-25T12:01:16Z</time>
      </trkpt>
      <trkpt lat="38.214461" lon="-1.571645">
        <ele>418.3</ele>
        <time>2017-02-25T12:01:27Z</time>
      </trkpt>
      <trkpt lat="38.214560" lon="-1.571734">
        <ele>417.4</ele>
        <time>2017-02-25T12:01:36Z</time>
      </trkpt>
      <trkpt lat="38.214564" lon="-1.571767">
        <ele>417.4</ele>
        <time>2017-02-25T12:01:38Z</time>
      </trkpt>
      <trkpt lat="38.214655" lon="-1.571953">
        <ele>417.4</ele>
        <time>2017-02-25T12:01:52Z</time>
      </trkpt>
      <trkpt lat="38.214683" lon="-1.572017">
        <ele>418.3</ele>
        <time>2017-02-25T12:01:56Z</time>
      </trkpt>
      <trkpt lat="38.214741" lon="-1.572213">
        <ele>416.9</ele>
        <time>2017-02-25T12:02:08Z</time>
      </trkpt>
      <trkpt lat="38.214749" lon="-1.572273">
        <ele>416.4</ele>
        <time>2017-02-25T12:02:12Z</time>
      </trkpt>
      <trkpt lat="38.214785" lon="-1.572438">
        <ele>415.9</ele>
        <time>2017-02-25T12:02:22Z</time>
      </trkpt>
      <trkpt lat="38.214824" lon="-1.572630">
        <ele>415.4</ele>
        <time>2017-02-25T12:02:34Z</time>
      </trkpt>
      <trkpt lat="38.214841" lon="-1.572696">
        <ele>415.4</ele>
        <time>2017-02-25T12:02:39Z</time>
      </trkpt>
      <trkpt lat="38.214865" lon="-1.572751">
        <ele>415.4</ele>
        <time>2017-02-25T12:02:43Z</time>
      </trkpt>
      <trkpt lat="38.214884" lon="-1.572907">
        <ele>415.4</ele>
        <time>2017-02-25T12:02:53Z</time>
      </trkpt>
      <trkpt lat="38.214943" lon="-1.573157">
        <ele>415.4</ele>
        <time>2017-02-25T12:03:09Z</time>
      </trkpt>
      <trkpt lat="38.214992" lon="-1.573366">
        <ele>414.5</ele>
        <time>2017-02-25T12:03:23Z</time>
      </trkpt>
      <trkpt lat="38.215003" lon="-1.573398">
        <ele>413.5</ele>
        <time>2017-02-25T12:03:26Z</time>
      </trkpt>
      <trkpt lat="38.214985" lon="-1.573561">
        <ele>412.5</ele>
        <time>2017-02-25T12:03:36Z</time>
      </trkpt>
      <trkpt lat="38.214968" lon="-1.573630">
        <ele>413.0</ele>
        <time>2017-02-25T12:03:41Z</time>
      </trkpt>
      <trkpt lat="38.214963" lon="-1.573741">
        <ele>412.5</ele>
        <time>2017-02-25T12:03:47Z</time>
      </trkpt>
      <trkpt lat="38.214941" lon="-1.573970">
        <ele>411.6</ele>
        <time>2017-02-25T12:04:02Z</time>
      </trkpt>
      <trkpt lat="38.214944" lon="-1.574162">
        <ele>408.7</ele>
        <time>2017-02-25T12:04:15Z</time>
      </trkpt>
      <trkpt lat="38.214944" lon="-1.574412">
        <ele>407.7</ele>
        <time>2017-02-25T12:04:30Z</time>
      </trkpt>
      <trkpt lat="38.214946" lon="-1.574629">
        <ele>408.2</ele>
        <time>2017-02-25T12:04:43Z</time>
      </trkpt>
      <trkpt lat="38.214960" lon="-1.574805">
        <ele>408.7</ele>
        <time>2017-02-25T12:04:53Z</time>
      </trkpt>
      <trkpt lat="38.214974" lon="-1.574918">
        <ele>408.2</ele>
        <time>2017-02-25T12:04:59Z</time>
      </trkpt>
      <trkpt lat="38.214991" lon="-1.575003">
        <ele>407.7</ele>
        <time>2017-02-25T12:05:04Z</time>
      </trkpt>
      <trkpt lat="38.215043" lon="-1.575233">
        <ele>406.8</ele>
        <time>2017-02-25T12:05:19Z</time>
      </trkpt>
      <trkpt lat="38.215049" lon="-1.575264">
        <ele>406.8</ele>
        <time>2017-02-25T12:05:21Z</time>
      </trkpt>
      <trkpt lat="38.215061" lon="-1.575306">
        <ele>406.3</ele>
        <time>2017-02-25T12:05:24Z</time>
      </trkpt>
      <trkpt lat="38.215118" lon="-1.575419">
        <ele>405.8</ele>
        <time>2017-02-25T12:05:40Z</time>
      </trkpt>
      <trkpt lat="38.215165" lon="-1.575540">
        <ele>404.9</ele>
        <time>2017-02-25T12:05:49Z</time>
      </trkpt>
      <trkpt lat="38.215204" lon="-1.575609">
        <ele>404.4</ele>
        <time>2017-02-25T12:05:55Z</time>
      </trkpt>
      <trkpt lat="38.215236" lon="-1.575706">
        <ele>404.9</ele>
        <time>2017-02-25T12:06:01Z</time>
      </trkpt>
      <trkpt lat="38.215236" lon="-1.575747">
        <ele>404.4</ele>
        <time>2017-02-25T12:06:04Z</time>
      </trkpt>
      <trkpt lat="38.215241" lon="-1.575912">
        <ele>404.4</ele>
        <time>2017-02-25T12:06:15Z</time>
      </trkpt>
      <trkpt lat="38.215198" lon="-1.576168">
        <ele>403.4</ele>
        <time>2017-02-25T12:06:31Z</time>
      </trkpt>
      <trkpt lat="38.215181" lon="-1.576455">
        <ele>403.4</ele>
        <time>2017-02-25T12:06:48Z</time>
      </trkpt>
      <trkpt lat="38.215239" lon="-1.576566">
        <ele>402.9</ele>
        <time>2017-02-25T12:06:59Z</time>
      </trkpt>
      <trkpt lat="38.215435" lon="-1.576599">
        <ele>400.5</ele>
        <time>2017-02-25T12:07:15Z</time>
      </trkpt>
      <trkpt lat="38.215626" lon="-1.576641">
        <ele>399.6</ele>
        <time>2017-02-25T12:07:31Z</time>
      </trkpt>
      <trkpt lat="38.215659" lon="-1.576644">
        <ele>399.1</ele>
        <time>2017-02-25T12:07:34Z</time>
      </trkpt>
      <trkpt lat="38.215712" lon="-1.576634">
        <ele>399.1</ele>
        <time>2017-02-25T12:07:38Z</time>
      </trkpt>
      <trkpt lat="38.215785" lon="-1.576633">
        <ele>399.1</ele>
        <time>2017-02-25T12:07:43Z</time>
      </trkpt>
      <trkpt lat="38.215830" lon="-1.576656">
        <ele>398.6</ele>
        <time>2017-02-25T12:07:48Z</time>
      </trkpt>
      <trkpt lat="38.215914" lon="-1.576675">
        <ele>399.1</ele>
        <time>2017-02-25T12:07:55Z</time>
      </trkpt>
      <trkpt lat="38.216112" lon="-1.576676">
        <ele>398.6</ele>
        <time>2017-02-25T12:08:10Z</time>
      </trkpt>
      <trkpt lat="38.216216" lon="-1.576660">
        <ele>399.1</ele>
        <time>2017-02-25T12:08:17Z</time>
      </trkpt>
      <trkpt lat="38.216262" lon="-1.576649">
        <ele>399.1</ele>
        <time>2017-02-25T12:08:20Z</time>
      </trkpt>
      <trkpt lat="38.216307" lon="-1.576608">
        <ele>398.6</ele>
        <time>2017-02-25T12:08:25Z</time>
      </trkpt>
      <trkpt lat="38.216315" lon="-1.576596">
        <ele>399.1</ele>
        <time>2017-02-25T12:08:26Z</time>
      </trkpt>
      <trkpt lat="38.216327" lon="-1.576586">
        <ele>398.6</ele>
        <time>2017-02-25T12:08:27Z</time>
      </trkpt>
      <trkpt lat="38.216383" lon="-1.576561">
        <ele>398.6</ele>
        <time>2017-02-25T12:08:32Z</time>
      </trkpt>
      <trkpt lat="38.216390" lon="-1.576551">
        <ele>398.6</ele>
        <time>2017-02-25T12:08:33Z</time>
      </trkpt>
      <trkpt lat="38.216401" lon="-1.576546">
        <ele>398.6</ele>
        <time>2017-02-25T12:08:34Z</time>
      </trkpt>
      <trkpt lat="38.216550" lon="-1.576454">
        <ele>399.1</ele>
        <time>2017-02-25T12:08:47Z</time>
      </trkpt>
      <trkpt lat="38.216699" lon="-1.576366">
        <ele>399.1</ele>
        <time>2017-02-25T12:09:01Z</time>
      </trkpt>
      <trkpt lat="38.216858" lon="-1.576321">
        <ele>399.1</ele>
        <time>2017-02-25T12:09:15Z</time>
      </trkpt>
      <trkpt lat="38.217037" lon="-1.576311">
        <ele>399.1</ele>
        <time>2017-02-25T12:09:30Z</time>
      </trkpt>
      <trkpt lat="38.217119" lon="-1.576306">
        <ele>398.6</ele>
        <time>2017-02-25T12:09:38Z</time>
      </trkpt>
      <trkpt lat="38.217208" lon="-1.576304">
        <ele>398.6</ele>
        <time>2017-02-25T12:09:45Z</time>
      </trkpt>
      <trkpt lat="38.217241" lon="-1.576303">
        <ele>398.6</ele>
        <time>2017-02-25T12:09:48Z</time>
      </trkpt>
      <trkpt lat="38.217252" lon="-1.576300">
        <ele>398.1</ele>
        <time>2017-02-25T12:09:49Z</time>
      </trkpt>
      <trkpt lat="38.217264" lon="-1.576299">
        <ele>398.6</ele>
        <time>2017-02-25T12:09:50Z</time>
      </trkpt>
      <trkpt lat="38.217276" lon="-1.576301">
        <ele>398.6</ele>
        <time>2017-02-25T12:09:51Z</time>
      </trkpt>
      <trkpt lat="38.217332" lon="-1.576319">
        <ele>399.1</ele>
        <time>2017-02-25T12:09:56Z</time>
      </trkpt>
      <trkpt lat="38.217395" lon="-1.576427">
        <ele>399.6</ele>
        <time>2017-02-25T12:10:05Z</time>
      </trkpt>
      <trkpt lat="38.217393" lon="-1.576446">
        <ele>399.1</ele>
        <time>2017-02-25T12:10:06Z</time>
      </trkpt>
      <trkpt lat="38.217394" lon="-1.576497">
        <ele>399.6</ele>
        <time>2017-02-25T12:10:09Z</time>
      </trkpt>
      <trkpt lat="38.217395" lon="-1.576512">
        <ele>399.1</ele>
        <time>2017-02-25T12:10:10Z</time>
      </trkpt>
      <trkpt lat="38.217379" lon="-1.576678">
        <ele>397.6</ele>
        <time>2017-02-25T12:10:22Z</time>
      </trkpt>
      <trkpt lat="38.217371" lon="-1.576730">
        <ele>397.6</ele>
        <time>2017-02-25T12:10:25Z</time>
      </trkpt>
      <trkpt lat="38.217370" lon="-1.576840">
        <ele>396.7</ele>
        <time>2017-02-25T12:10:32Z</time>
      </trkpt>
      <trkpt lat="38.217408" lon="-1.576973">
        <ele>395.2</ele>
        <time>2017-02-25T12:10:40Z</time>
      </trkpt>
      <trkpt lat="38.217429" lon="-1.577036">
        <ele>394.8</ele>
        <time>2017-02-25T12:10:51Z</time>
      </trkpt>
      <trkpt lat="38.217471" lon="-1.577164">
        <ele>394.8</ele>
        <time>2017-02-25T12:11:46Z</time>
      </trkpt>
      <trkpt lat="38.217447" lon="-1.577350">
        <ele>395.7</ele>
        <time>2017-02-25T12:11:57Z</time>
      </trkpt>
      <trkpt lat="38.217445" lon="-1.577368">
        <ele>395.7</ele>
        <time>2017-02-25T12:11:58Z</time>
      </trkpt>
      <trkpt lat="38.217444" lon="-1.577386">
        <ele>395.7</ele>
        <time>2017-02-25T12:11:59Z</time>
      </trkpt>
      <trkpt lat="38.217442" lon="-1.577403">
        <ele>395.7</ele>
        <time>2017-02-25T12:12:00Z</time>
      </trkpt>
      <trkpt lat="38.217441" lon="-1.577419">
        <ele>396.2</ele>
        <time>2017-02-25T12:12:01Z</time>
      </trkpt>
      <trkpt lat="38.217441" lon="-1.577438">
        <ele>396.2</ele>
        <time>2017-02-25T12:12:02Z</time>
      </trkpt>
      <trkpt lat="38.217436" lon="-1.577549">
        <ele>396.2</ele>
        <time>2017-02-25T12:12:09Z</time>
      </trkpt>
      <trkpt lat="38.217441" lon="-1.577564">
        <ele>396.2</ele>
        <time>2017-02-25T12:12:10Z</time>
      </trkpt>
      <trkpt lat="38.217443" lon="-1.577595">
        <ele>396.7</ele>
        <time>2017-02-25T12:12:12Z</time>
      </trkpt>
      <trkpt lat="38.217442" lon="-1.577610">
        <ele>396.7</ele>
        <time>2017-02-25T12:12:13Z</time>
      </trkpt>
      <trkpt lat="38.217445" lon="-1.577626">
        <ele>396.7</ele>
        <time>2017-02-25T12:12:14Z</time>
      </trkpt>
      <trkpt lat="38.217452" lon="-1.577640">
        <ele>396.7</ele>
        <time>2017-02-25T12:12:15Z</time>
      </trkpt>
      <trkpt lat="38.217455" lon="-1.577654">
        <ele>396.7</ele>
        <time>2017-02-25T12:12:16Z</time>
      </trkpt>
      <trkpt lat="38.217454" lon="-1.577672">
        <ele>396.7</ele>
        <time>2017-02-25T12:12:17Z</time>
      </trkpt>
      <trkpt lat="38.217452" lon="-1.577690">
        <ele>397.2</ele>
        <time>2017-02-25T12:12:18Z</time>
      </trkpt>
      <trkpt lat="38.217452" lon="-1.577708">
        <ele>397.6</ele>
        <time>2017-02-25T12:12:19Z</time>
      </trkpt>
      <trkpt lat="38.217454" lon="-1.577725">
        <ele>397.6</ele>
        <time>2017-02-25T12:12:20Z</time>
      </trkpt>
      <trkpt lat="38.217473" lon="-1.577867">
        <ele>398.6</ele>
        <time>2017-02-25T12:12:30Z</time>
      </trkpt>
      <trkpt lat="38.217510" lon="-1.577969">
        <ele>398.1</ele>
        <time>2017-02-25T12:12:38Z</time>
      </trkpt>
      <trkpt lat="38.217518" lon="-1.577980">
        <ele>398.1</ele>
        <time>2017-02-25T12:12:39Z</time>
      </trkpt>
      <trkpt lat="38.217526" lon="-1.577989">
        <ele>397.6</ele>
        <time>2017-02-25T12:12:47Z</time>
      </trkpt>
      <trkpt lat="38.217526" lon="-1.577987">
        <ele>399.1</ele>
        <time>2017-02-25T12:12:49Z</time>
      </trkpt>
      <trkpt lat="38.217552" lon="-1.577997">
        <ele>398.6</ele>
        <time>2017-02-25T12:13:02Z</time>
      </trkpt>
      <trkpt lat="38.217549" lon="-1.578014">
        <ele>399.1</ele>
        <time>2017-02-25T12:13:03Z</time>
      </trkpt>
      <trkpt lat="38.217528" lon="-1.578242">
        <ele>398.1</ele>
        <time>2017-02-25T12:13:22Z</time>
      </trkpt>
      <trkpt lat="38.217527" lon="-1.578360">
        <ele>398.1</ele>
        <time>2017-02-25T12:13:37Z</time>
      </trkpt>
      <trkpt lat="38.217503" lon="-1.578654">
        <ele>398.1</ele>
        <time>2017-02-25T12:13:56Z</time>
      </trkpt>
      <trkpt lat="38.217480" lon="-1.578900">
        <ele>397.2</ele>
        <time>2017-02-25T12:14:14Z</time>
      </trkpt>
      <trkpt lat="38.217447" lon="-1.579172">
        <ele>396.7</ele>
        <time>2017-02-25T12:14:32Z</time>
      </trkpt>
      <trkpt lat="38.217416" lon="-1.579459">
        <ele>396.2</ele>
        <time>2017-02-25T12:14:52Z</time>
      </trkpt>
      <trkpt lat="38.217404" lon="-1.579544">
        <ele>396.2</ele>
        <time>2017-02-25T12:14:59Z</time>
      </trkpt>
      <trkpt lat="38.217406" lon="-1.579560">
        <ele>395.7</ele>
        <time>2017-02-25T12:15:00Z</time>
      </trkpt>
      <trkpt lat="38.217404" lon="-1.579703">
        <ele>395.7</ele>
        <time>2017-02-25T12:15:13Z</time>
      </trkpt>
      <trkpt lat="38.217402" lon="-1.579709">
        <ele>396.2</ele>
        <time>2017-02-25T12:15:14Z</time>
      </trkpt>
      <trkpt lat="38.217398" lon="-1.579726">
        <ele>395.7</ele>
        <time>2017-02-25T12:15:15Z</time>
      </trkpt>
      <trkpt lat="38.217395" lon="-1.579743">
        <ele>395.7</ele>
        <time>2017-02-25T12:15:16Z</time>
      </trkpt>
      <trkpt lat="38.217396" lon="-1.579759">
        <ele>395.2</ele>
        <time>2017-02-25T12:15:17Z</time>
      </trkpt>
      <trkpt lat="38.217395" lon="-1.579774">
        <ele>395.7</ele>
        <time>2017-02-25T12:15:18Z</time>
      </trkpt>
      <trkpt lat="38.217364" lon="-1.580032">
        <ele>394.8</ele>
        <time>2017-02-25T12:15:35Z</time>
      </trkpt>
      <trkpt lat="38.217368" lon="-1.580043">
        <ele>394.3</ele>
        <time>2017-02-25T12:15:36Z</time>
      </trkpt>
      <trkpt lat="38.217384" lon="-1.580109">
        <ele>394.8</ele>
        <time>2017-02-25T12:15:46Z</time>
      </trkpt>
      <trkpt lat="38.217374" lon="-1.580150">
        <ele>394.8</ele>
        <time>2017-02-25T12:15:56Z</time>
      </trkpt>
      <trkpt lat="38.217371" lon="-1.580163">
        <ele>395.2</ele>
        <time>2017-02-25T12:15:57Z</time>
      </trkpt>
      <trkpt lat="38.217369" lon="-1.580178">
        <ele>395.2</ele>
        <time>2017-02-25T12:15:58Z</time>
      </trkpt>
      <trkpt lat="38.217367" lon="-1.580193">
        <ele>394.8</ele>
        <time>2017-02-25T12:15:59Z</time>
      </trkpt>
      <trkpt lat="38.217368" lon="-1.580189">
        <ele>394.8</ele>
        <time>2017-02-25T12:16:00Z</time>
      </trkpt>
      <trkpt lat="38.217369" lon="-1.580196">
        <ele>394.8</ele>
        <time>2017-02-25T12:16:01Z</time>
      </trkpt>
      <trkpt lat="38.217322" lon="-1.580466">
        <ele>393.8</ele>
        <time>2017-02-25T12:16:18Z</time>
      </trkpt>
      <trkpt lat="38.217308" lon="-1.580705">
        <ele>392.4</ele>
        <time>2017-02-25T12:16:34Z</time>
      </trkpt>
      <trkpt lat="38.217281" lon="-1.580961">
        <ele>392.4</ele>
        <time>2017-02-25T12:16:52Z</time>
      </trkpt>
      <trkpt lat="38.217246" lon="-1.581205">
        <ele>391.4</ele>
        <time>2017-02-25T12:17:10Z</time>
      </trkpt>
      <trkpt lat="38.217217" lon="-1.581475">
        <ele>390.9</ele>
        <time>2017-02-25T12:17:29Z</time>
      </trkpt>
      <trkpt lat="38.217210" lon="-1.581670">
        <ele>390.0</ele>
        <time>2017-02-25T12:17:46Z</time>
      </trkpt>
      <trkpt lat="38.217183" lon="-1.581771">
        <ele>389.5</ele>
        <time>2017-02-25T12:18:02Z</time>
      </trkpt>
      <trkpt lat="38.217176" lon="-1.581824">
        <ele>389.0</ele>
        <time>2017-02-25T12:18:15Z</time>
      </trkpt>
      <trkpt lat="38.217154" lon="-1.582079">
        <ele>388.5</ele>
        <time>2017-02-25T12:18:30Z</time>
      </trkpt>
      <trkpt lat="38.217127" lon="-1.582410">
        <ele>387.1</ele>
        <time>2017-02-25T12:18:51Z</time>
      </trkpt>
      <trkpt lat="38.217122" lon="-1.582666">
        <ele>386.6</ele>
        <time>2017-02-25T12:19:07Z</time>
      </trkpt>
      <trkpt lat="38.217119" lon="-1.582918">
        <ele>385.6</ele>
        <time>2017-02-25T12:19:24Z</time>
      </trkpt>
      <trkpt lat="38.217130" lon="-1.583178">
        <ele>384.7</ele>
        <time>2017-02-25T12:19:41Z</time>
      </trkpt>
      <trkpt lat="38.217157" lon="-1.583374">
        <ele>384.7</ele>
        <time>2017-02-25T12:19:55Z</time>
      </trkpt>
      <trkpt lat="38.217159" lon="-1.583391">
        <ele>384.7</ele>
        <time>2017-02-25T12:19:56Z</time>
      </trkpt>
      <trkpt lat="38.217162" lon="-1.583411">
        <ele>384.7</ele>
        <time>2017-02-25T12:19:57Z</time>
      </trkpt>
      <trkpt lat="38.217187" lon="-1.583669">
        <ele>383.7</ele>
        <time>2017-02-25T12:20:14Z</time>
      </trkpt>
      <trkpt lat="38.217226" lon="-1.583963">
        <ele>382.3</ele>
        <time>2017-02-25T12:20:33Z</time>
      </trkpt>
      <trkpt lat="38.217225" lon="-1.583970">
        <ele>382.7</ele>
        <time>2017-02-25T12:20:38Z</time>
      </trkpt>
      <trkpt lat="38.217229" lon="-1.583987">
        <ele>382.3</ele>
        <time>2017-02-25T12:20:39Z</time>
      </trkpt>
      <trkpt lat="38.217233" lon="-1.584004">
        <ele>382.3</ele>
        <time>2017-02-25T12:20:40Z</time>
      </trkpt>
      <trkpt lat="38.217237" lon="-1.584025">
        <ele>382.3</ele>
        <time>2017-02-25T12:20:41Z</time>
      </trkpt>
      <trkpt lat="38.217244" lon="-1.584048">
        <ele>382.3</ele>
        <time>2017-02-25T12:20:42Z</time>
      </trkpt>
      <trkpt lat="38.217306" lon="-1.584322">
        <ele>380.3</ele>
        <time>2017-02-25T12:20:58Z</time>
      </trkpt>
      <trkpt lat="38.217323" lon="-1.584365">
        <ele>379.9</ele>
        <time>2017-02-25T12:21:02Z</time>
      </trkpt>
      <trkpt lat="38.217330" lon="-1.584376">
        <ele>379.4</ele>
        <time>2017-02-25T12:21:03Z</time>
      </trkpt>
      <trkpt lat="38.217396" lon="-1.584575">
        <ele>379.4</ele>
        <time>2017-02-25T12:21:19Z</time>
      </trkpt>
      <trkpt lat="38.217452" lon="-1.584816">
        <ele>378.4</ele>
        <time>2017-02-25T12:21:35Z</time>
      </trkpt>
      <trkpt lat="38.217525" lon="-1.585063">
        <ele>377.5</ele>
        <time>2017-02-25T12:21:51Z</time>
      </trkpt>
      <trkpt lat="38.217570" lon="-1.585297">
        <ele>376.5</ele>
        <time>2017-02-25T12:22:05Z</time>
      </trkpt>
      <trkpt lat="38.217638" lon="-1.585505">
        <ele>374.6</ele>
        <time>2017-02-25T12:22:20Z</time>
      </trkpt>
      <trkpt lat="38.217698" lon="-1.585755">
        <ele>372.6</ele>
        <time>2017-02-25T12:22:37Z</time>
      </trkpt>
      <trkpt lat="38.217758" lon="-1.586005">
        <ele>372.2</ele>
        <time>2017-02-25T12:22:54Z</time>
      </trkpt>
      <trkpt lat="38.217798" lon="-1.586119">
        <ele>371.2</ele>
        <time>2017-02-25T12:23:03Z</time>
      </trkpt>
      <trkpt lat="38.217806" lon="-1.586124">
        <ele>370.7</ele>
        <time>2017-02-25T12:23:04Z</time>
      </trkpt>
      <trkpt lat="38.217849" lon="-1.586282">
        <ele>369.8</ele>
        <time>2017-02-25T12:23:18Z</time>
      </trkpt>
      <trkpt lat="38.217855" lon="-1.586292">
        <ele>369.3</ele>
        <time>2017-02-25T12:23:19Z</time>
      </trkpt>
      <trkpt lat="38.217861" lon="-1.586327">
        <ele>369.3</ele>
        <time>2017-02-25T12:23:22Z</time>
      </trkpt>
      <trkpt lat="38.217862" lon="-1.586342">
        <ele>368.8</ele>
        <time>2017-02-25T12:23:23Z</time>
      </trkpt>
      <trkpt lat="38.217864" lon="-1.586356">
        <ele>368.8</ele>
        <time>2017-02-25T12:23:24Z</time>
      </trkpt>
      <trkpt lat="38.217866" lon="-1.586371">
        <ele>369.3</ele>
        <time>2017-02-25T12:23:25Z</time>
      </trkpt>
      <trkpt lat="38.217896" lon="-1.586599">
        <ele>367.8</ele>
        <time>2017-02-25T12:23:41Z</time>
      </trkpt>
      <trkpt lat="38.217914" lon="-1.586855">
        <ele>366.9</ele>
        <time>2017-02-25T12:23:57Z</time>
      </trkpt>
      <trkpt lat="38.217937" lon="-1.587113">
        <ele>366.4</ele>
        <time>2017-02-25T12:24:12Z</time>
      </trkpt>
      <trkpt lat="38.217950" lon="-1.587209">
        <ele>365.4</ele>
        <time>2017-02-25T12:24:18Z</time>
      </trkpt>
      <trkpt lat="38.217953" lon="-1.587224">
        <ele>365.4</ele>
        <time>2017-02-25T12:24:19Z</time>
      </trkpt>
      <trkpt lat="38.217954" lon="-1.587239">
        <ele>365.4</ele>
        <time>2017-02-25T12:24:20Z</time>
      </trkpt>
      <trkpt lat="38.218008" lon="-1.587446">
        <ele>364.0</ele>
        <time>2017-02-25T12:24:39Z</time>
      </trkpt>
      <trkpt lat="38.218039" lon="-1.587732">
        <ele>362.5</ele>
        <time>2017-02-25T12:24:58Z</time>
      </trkpt>
      <trkpt lat="38.218126" lon="-1.588003">
        <ele>360.6</ele>
        <time>2017-02-25T12:25:16Z</time>
      </trkpt>
      <trkpt lat="38.218209" lon="-1.588252">
        <ele>358.7</ele>
        <time>2017-02-25T12:25:33Z</time>
      </trkpt>
      <trkpt lat="38.218315" lon="-1.588510">
        <ele>358.2</ele>
        <time>2017-02-25T12:25:51Z</time>
      </trkpt>
      <trkpt lat="38.218347" lon="-1.588641">
        <ele>357.8</ele>
        <time>2017-02-25T12:26:00Z</time>
      </trkpt>
      <trkpt lat="38.218421" lon="-1.588869">
        <ele>357.8</ele>
        <time>2017-02-25T12:26:16Z</time>
      </trkpt>
      <trkpt lat="38.218466" lon="-1.588927">
        <ele>358.2</ele>
        <time>2017-02-25T12:26:28Z</time>
      </trkpt>
      <trkpt lat="38.218471" lon="-1.588956">
        <ele>357.3</ele>
        <time>2017-02-25T12:26:30Z</time>
      </trkpt>
      <trkpt lat="38.218495" lon="-1.589140">
        <ele>357.8</ele>
        <time>2017-02-25T12:26:41Z</time>
      </trkpt>
      <trkpt lat="38.218501" lon="-1.589156">
        <ele>357.8</ele>
        <time>2017-02-25T12:26:42Z</time>
      </trkpt>
      <trkpt lat="38.218505" lon="-1.589176">
        <ele>357.8</ele>
        <time>2017-02-25T12:26:43Z</time>
      </trkpt>
      <trkpt lat="38.218510" lon="-1.589194">
        <ele>357.8</ele>
        <time>2017-02-25T12:26:44Z</time>
      </trkpt>
      <trkpt lat="38.218514" lon="-1.589215">
        <ele>357.8</ele>
        <time>2017-02-25T12:26:45Z</time>
      </trkpt>
      <trkpt lat="38.218516" lon="-1.589232">
        <ele>358.2</ele>
        <time>2017-02-25T12:26:46Z</time>
      </trkpt>
      <trkpt lat="38.218555" lon="-1.589384">
        <ele>358.2</ele>
        <time>2017-02-25T12:26:59Z</time>
      </trkpt>
      <trkpt lat="38.218594" lon="-1.589643">
        <ele>358.2</ele>
        <time>2017-02-25T12:27:15Z</time>
      </trkpt>
      <trkpt lat="38.218643" lon="-1.589835">
        <ele>358.2</ele>
        <time>2017-02-25T12:27:29Z</time>
      </trkpt>
      <trkpt lat="38.218653" lon="-1.589858">
        <ele>358.2</ele>
        <time>2017-02-25T12:27:31Z</time>
      </trkpt>
      <trkpt lat="38.218655" lon="-1.589872">
        <ele>358.2</ele>
        <time>2017-02-25T12:27:32Z</time>
      </trkpt>
      <trkpt lat="38.218655" lon="-1.589888">
        <ele>358.2</ele>
        <time>2017-02-25T12:27:33Z</time>
      </trkpt>
      <trkpt lat="38.218659" lon="-1.589901">
        <ele>358.2</ele>
        <time>2017-02-25T12:27:34Z</time>
      </trkpt>
      <trkpt lat="38.218662" lon="-1.589911">
        <ele>358.2</ele>
        <time>2017-02-25T12:27:35Z</time>
      </trkpt>
      <trkpt lat="38.218666" lon="-1.589923">
        <ele>358.2</ele>
        <time>2017-02-25T12:27:36Z</time>
      </trkpt>
      <trkpt lat="38.218670" lon="-1.589938">
        <ele>358.2</ele>
        <time>2017-02-25T12:27:37Z</time>
      </trkpt>
      <trkpt lat="38.218694" lon="-1.590027">
        <ele>357.8</ele>
        <time>2017-02-25T12:27:43Z</time>
      </trkpt>
      <trkpt lat="38.218764" lon="-1.590245">
        <ele>359.7</ele>
        <time>2017-02-25T12:27:59Z</time>
      </trkpt>
      <trkpt lat="38.218846" lon="-1.590445">
        <ele>358.2</ele>
        <time>2017-02-25T12:28:15Z</time>
      </trkpt>
      <trkpt lat="38.218854" lon="-1.590456">
        <ele>357.8</ele>
        <time>2017-02-25T12:28:16Z</time>
      </trkpt>
      <trkpt lat="38.218859" lon="-1.590469">
        <ele>358.2</ele>
        <time>2017-02-25T12:28:17Z</time>
      </trkpt>
      <trkpt lat="38.218865" lon="-1.590482">
        <ele>357.8</ele>
        <time>2017-02-25T12:28:18Z</time>
      </trkpt>
      <trkpt lat="38.218869" lon="-1.590497">
        <ele>358.2</ele>
        <time>2017-02-25T12:28:19Z</time>
      </trkpt>
      <trkpt lat="38.218872" lon="-1.590510">
        <ele>358.2</ele>
        <time>2017-02-25T12:28:20Z</time>
      </trkpt>
      <trkpt lat="38.218957" lon="-1.590733">
        <ele>358.2</ele>
        <time>2017-02-25T12:28:37Z</time>
      </trkpt>
      <trkpt lat="38.219040" lon="-1.590920">
        <ele>357.8</ele>
        <time>2017-02-25T12:28:54Z</time>
      </trkpt>
      <trkpt lat="38.219136" lon="-1.591103">
        <ele>356.8</ele>
        <time>2017-02-25T12:29:12Z</time>
      </trkpt>
      <trkpt lat="38.219213" lon="-1.591206">
        <ele>356.3</ele>
        <time>2017-02-25T12:29:28Z</time>
      </trkpt>
      <trkpt lat="38.219275" lon="-1.591283">
        <ele>355.8</ele>
        <time>2017-02-25T12:30:16Z</time>
      </trkpt>
      <trkpt lat="38.219326" lon="-1.591433">
        <ele>355.3</ele>
        <time>2017-02-25T12:30:30Z</time>
      </trkpt>
      <trkpt lat="38.219380" lon="-1.591577">
        <ele>354.9</ele>
        <time>2017-02-25T12:30:44Z</time>
      </trkpt>
      <trkpt lat="38.219460" lon="-1.591749">
        <ele>354.9</ele>
        <time>2017-02-25T12:31:00Z</time>
      </trkpt>
      <trkpt lat="38.219489" lon="-1.591815">
        <ele>353.9</ele>
        <time>2017-02-25T12:31:06Z</time>
      </trkpt>
      <trkpt lat="38.219490" lon="-1.591827">
        <ele>352.9</ele>
        <time>2017-02-25T12:31:07Z</time>
      </trkpt>
      <trkpt lat="38.219507" lon="-1.591862">
        <ele>353.9</ele>
        <time>2017-02-25T12:31:10Z</time>
      </trkpt>
      <trkpt lat="38.219560" lon="-1.591992">
        <ele>353.4</ele>
        <time>2017-02-25T12:31:20Z</time>
      </trkpt>
      <trkpt lat="38.219565" lon="-1.592025">
        <ele>351.5</ele>
        <time>2017-02-25T12:31:23Z</time>
      </trkpt>
      <trkpt lat="38.219559" lon="-1.592029">
        <ele>353.4</ele>
        <time>2017-02-25T12:31:26Z</time>
      </trkpt>
      <trkpt lat="38.219573" lon="-1.592033">
        <ele>353.4</ele>
        <time>2017-02-25T12:31:40Z</time>
      </trkpt>
      <trkpt lat="38.219599" lon="-1.592023">
        <ele>353.4</ele>
        <time>2017-02-25T12:31:47Z</time>
      </trkpt>
      <trkpt lat="38.219611" lon="-1.592021">
        <ele>353.4</ele>
        <time>2017-02-25T12:31:48Z</time>
      </trkpt>
      <trkpt lat="38.219625" lon="-1.592057">
        <ele>353.4</ele>
        <time>2017-02-25T12:32:01Z</time>
      </trkpt>
      <trkpt lat="38.219640" lon="-1.592118">
        <ele>353.9</ele>
        <time>2017-02-25T12:32:17Z</time>
      </trkpt>
      <trkpt lat="38.219654" lon="-1.592377">
        <ele>352.9</ele>
        <time>2017-02-25T12:32:31Z</time>
      </trkpt>
      <trkpt lat="38.219702" lon="-1.592665">
        <ele>351.5</ele>
        <time>2017-02-25T12:32:47Z</time>
      </trkpt>
      <trkpt lat="38.219730" lon="-1.592972">
        <ele>350.1</ele>
        <time>2017-02-25T12:33:05Z</time>
      </trkpt>
      <trkpt lat="38.219778" lon="-1.593241">
        <ele>350.1</ele>
        <time>2017-02-25T12:33:22Z</time>
      </trkpt>
      <trkpt lat="38.219900" lon="-1.593434">
        <ele>349.1</ele>
        <time>2017-02-25T12:33:39Z</time>
      </trkpt>
      <trkpt lat="38.220053" lon="-1.593592">
        <ele>348.1</ele>
        <time>2017-02-25T12:33:56Z</time>
      </trkpt>
      <trkpt lat="38.220144" lon="-1.593873">
        <ele>346.2</ele>
        <time>2017-02-25T12:34:14Z</time>
      </trkpt>
      <trkpt lat="38.220137" lon="-1.594082">
        <ele>345.7</ele>
        <time>2017-02-25T12:34:27Z</time>
      </trkpt>
      <trkpt lat="38.220122" lon="-1.594293">
        <ele>345.2</ele>
        <time>2017-02-25T12:34:42Z</time>
      </trkpt>
      <trkpt lat="38.220127" lon="-1.594373">
        <ele>345.2</ele>
        <time>2017-02-25T12:34:49Z</time>
      </trkpt>
      <trkpt lat="38.220130" lon="-1.594387">
        <ele>345.2</ele>
        <time>2017-02-25T12:34:50Z</time>
      </trkpt>
      <trkpt lat="38.220199" lon="-1.594616">
        <ele>344.3</ele>
        <time>2017-02-25T12:35:05Z</time>
      </trkpt>
      <trkpt lat="38.220335" lon="-1.594685">
        <ele>343.3</ele>
        <time>2017-02-25T12:35:18Z</time>
      </trkpt>
      <trkpt lat="38.220513" lon="-1.594664">
        <ele>342.9</ele>
        <time>2017-02-25T12:35:34Z</time>
      </trkpt>
      <trkpt lat="38.220598" lon="-1.594673">
        <ele>342.4</ele>
        <time>2017-02-25T12:35:45Z</time>
      </trkpt>
      <trkpt lat="38.220664" lon="-1.594691">
        <ele>341.9</ele>
        <time>2017-02-25T12:35:58Z</time>
      </trkpt>
      <trkpt lat="38.220750" lon="-1.594730">
        <ele>341.9</ele>
        <time>2017-02-25T12:36:06Z</time>
      </trkpt>
      <trkpt lat="38.220810" lon="-1.594725">
        <ele>340.9</ele>
        <time>2017-02-25T12:36:20Z</time>
      </trkpt>
      <trkpt lat="38.220814" lon="-1.594768">
        <ele>341.4</ele>
        <time>2017-02-25T12:36:30Z</time>
      </trkpt>
      <trkpt lat="38.220839" lon="-1.595041">
        <ele>339.5</ele>
        <time>2017-02-25T12:36:44Z</time>
      </trkpt>
      <trkpt lat="38.220839" lon="-1.595411">
        <ele>339.0</ele>
        <time>2017-02-25T12:37:04Z</time>
      </trkpt>
      <trkpt lat="38.220857" lon="-1.595461">
        <ele>335.6</ele>
        <time>2017-02-25T12:37:07Z</time>
      </trkpt>
      <trkpt lat="38.221000" lon="-1.595578">
        <ele>333.7</ele>
        <time>2017-02-25T12:37:23Z</time>
      </trkpt>
      <trkpt lat="38.221097" lon="-1.595496">
        <ele>332.8</ele>
        <time>2017-02-25T12:37:32Z</time>
      </trkpt>
      <trkpt lat="38.221106" lon="-1.595481">
        <ele>333.2</ele>
        <time>2017-02-25T12:37:33Z</time>
      </trkpt>
      <trkpt lat="38.221115" lon="-1.595470">
        <ele>333.2</ele>
        <time>2017-02-25T12:37:34Z</time>
      </trkpt>
      <trkpt lat="38.221119" lon="-1.595456">
        <ele>332.8</ele>
        <time>2017-02-25T12:37:35Z</time>
      </trkpt>
      <trkpt lat="38.221125" lon="-1.595438">
        <ele>332.8</ele>
        <time>2017-02-25T12:37:36Z</time>
      </trkpt>
      <trkpt lat="38.221139" lon="-1.595413">
        <ele>332.3</ele>
        <time>2017-02-25T12:37:38Z</time>
      </trkpt>
      <trkpt lat="38.221165" lon="-1.595370">
        <ele>331.8</ele>
        <time>2017-02-25T12:37:41Z</time>
      </trkpt>
      <trkpt lat="38.221270" lon="-1.595150">
        <ele>330.4</ele>
        <time>2017-02-25T12:37:56Z</time>
      </trkpt>
      <trkpt lat="38.221349" lon="-1.594946">
        <ele>330.4</ele>
        <time>2017-02-25T12:38:11Z</time>
      </trkpt>
      <trkpt lat="38.221392" lon="-1.594896">
        <ele>330.4</ele>
        <time>2017-02-25T12:38:15Z</time>
      </trkpt>
      <trkpt lat="38.221410" lon="-1.594829">
        <ele>329.9</ele>
        <time>2017-02-25T12:38:19Z</time>
      </trkpt>
      <trkpt lat="38.221517" lon="-1.594717">
        <ele>329.9</ele>
        <time>2017-02-25T12:38:30Z</time>
      </trkpt>
      <trkpt lat="38.221531" lon="-1.594717">
        <ele>329.4</ele>
        <time>2017-02-25T12:38:31Z</time>
      </trkpt>
      <trkpt lat="38.221629" lon="-1.594783">
        <ele>328.9</ele>
        <time>2017-02-25T12:38:42Z</time>
      </trkpt>
      <trkpt lat="38.221640" lon="-1.594791">
        <ele>329.9</ele>
        <time>2017-02-25T12:38:43Z</time>
      </trkpt>
      <trkpt lat="38.221652" lon="-1.594798">
        <ele>329.9</ele>
        <time>2017-02-25T12:38:44Z</time>
      </trkpt>
      <trkpt lat="38.221808" lon="-1.594925">
        <ele>328.9</ele>
        <time>2017-02-25T12:39:00Z</time>
      </trkpt>
      <trkpt lat="38.221832" lon="-1.594958">
        <ele>328.0</ele>
        <time>2017-02-25T12:39:03Z</time>
      </trkpt>
      <trkpt lat="38.221844" lon="-1.594967">
        <ele>328.9</ele>
        <time>2017-02-25T12:39:04Z</time>
      </trkpt>
      <trkpt lat="38.221855" lon="-1.594978">
        <ele>328.4</ele>
        <time>2017-02-25T12:39:05Z</time>
      </trkpt>
      <trkpt lat="38.221920" lon="-1.595047">
        <ele>328.0</ele>
        <time>2017-02-25T12:39:12Z</time>
      </trkpt>
      <trkpt lat="38.222027" lon="-1.595243">
        <ele>327.0</ele>
        <time>2017-02-25T12:39:27Z</time>
      </trkpt>
      <trkpt lat="38.222026" lon="-1.595421">
        <ele>325.5</ele>
        <time>2017-02-25T12:39:39Z</time>
      </trkpt>
      <trkpt lat="38.222002" lon="-1.595706">
        <ele>324.1</ele>
        <time>2017-02-25T12:39:57Z</time>
      </trkpt>
      <trkpt lat="38.221988" lon="-1.595910">
        <ele>323.1</ele>
        <time>2017-02-25T12:40:10Z</time>
      </trkpt>
      <trkpt lat="38.221992" lon="-1.595924">
        <ele>323.1</ele>
        <time>2017-02-25T12:40:11Z</time>
      </trkpt>
      <trkpt lat="38.221990" lon="-1.595940">
        <ele>323.1</ele>
        <time>2017-02-25T12:40:12Z</time>
      </trkpt>
      <trkpt lat="38.221976" lon="-1.596159">
        <ele>321.2</ele>
        <time>2017-02-25T12:40:28Z</time>
      </trkpt>
      <trkpt lat="38.221978" lon="-1.596175">
        <ele>321.2</ele>
        <time>2017-02-25T12:40:29Z</time>
      </trkpt>
      <trkpt lat="38.221978" lon="-1.596193">
        <ele>321.2</ele>
        <time>2017-02-25T12:40:30Z</time>
      </trkpt>
      <trkpt lat="38.221979" lon="-1.596210">
        <ele>321.2</ele>
        <time>2017-02-25T12:40:31Z</time>
      </trkpt>
      <trkpt lat="38.221978" lon="-1.596227">
        <ele>320.7</ele>
        <time>2017-02-25T12:40:32Z</time>
      </trkpt>
      <trkpt lat="38.221976" lon="-1.596240">
        <ele>320.7</ele>
        <time>2017-02-25T12:40:33Z</time>
      </trkpt>
      <trkpt lat="38.221976" lon="-1.596296">
        <ele>320.3</ele>
        <time>2017-02-25T12:40:37Z</time>
      </trkpt>
      <trkpt lat="38.221979" lon="-1.596423">
        <ele>319.8</ele>
        <time>2017-02-25T12:40:46Z</time>
      </trkpt>
      <trkpt lat="38.221980" lon="-1.596443">
        <ele>319.8</ele>
        <time>2017-02-25T12:40:47Z</time>
      </trkpt>
      <trkpt lat="38.221976" lon="-1.596459">
        <ele>319.8</ele>
        <time>2017-02-25T12:40:48Z</time>
      </trkpt>
      <trkpt lat="38.221974" lon="-1.596472">
        <ele>320.3</ele>
        <time>2017-02-25T12:40:49Z</time>
      </trkpt>
      <trkpt lat="38.221976" lon="-1.596487">
        <ele>319.3</ele>
        <time>2017-02-25T12:40:50Z</time>
      </trkpt>
      <trkpt lat="38.221976" lon="-1.596507">
        <ele>318.8</ele>
        <time>2017-02-25T12:40:51Z</time>
      </trkpt>
      <trkpt lat="38.221981" lon="-1.596678">
        <ele>318.3</ele>
        <time>2017-02-25T12:41:03Z</time>
      </trkpt>
      <trkpt lat="38.221985" lon="-1.596692">
        <ele>318.3</ele>
        <time>2017-02-25T12:41:04Z</time>
      </trkpt>
      <trkpt lat="38.221990" lon="-1.596706">
        <ele>317.9</ele>
        <time>2017-02-25T12:41:05Z</time>
      </trkpt>
      <trkpt lat="38.221992" lon="-1.596720">
        <ele>317.9</ele>
        <time>2017-02-25T12:41:06Z</time>
      </trkpt>
      <trkpt lat="38.221993" lon="-1.596734">
        <ele>318.3</ele>
        <time>2017-02-25T12:41:07Z</time>
      </trkpt>
      <trkpt lat="38.221997" lon="-1.596813">
        <ele>317.4</ele>
        <time>2017-02-25T12:41:13Z</time>
      </trkpt>
      <trkpt lat="38.221999" lon="-1.596830">
        <ele>316.9</ele>
        <time>2017-02-25T12:41:14Z</time>
      </trkpt>
      <trkpt lat="38.222002" lon="-1.596847">
        <ele>316.9</ele>
        <time>2017-02-25T12:41:15Z</time>
      </trkpt>
      <trkpt lat="38.222013" lon="-1.597040">
        <ele>315.5</ele>
        <time>2017-02-25T12:41:28Z</time>
      </trkpt>
      <trkpt lat="38.222028" lon="-1.597259">
        <ele>314.0</ele>
        <time>2017-02-25T12:41:44Z</time>
      </trkpt>
      <trkpt lat="38.222102" lon="-1.597475">
        <ele>313.0</ele>
        <time>2017-02-25T12:41:59Z</time>
      </trkpt>
      <trkpt lat="38.222106" lon="-1.597501">
        <ele>312.6</ele>
        <time>2017-02-25T12:42:01Z</time>
      </trkpt>
      <trkpt lat="38.222132" lon="-1.597541">
        <ele>313.0</ele>
        <time>2017-02-25T12:42:13Z</time>
      </trkpt>
      <trkpt lat="38.222133" lon="-1.597533">
        <ele>312.6</ele>
        <time>2017-02-25T12:42:17Z</time>
      </trkpt>
      <trkpt lat="38.222135" lon="-1.597549">
        <ele>312.6</ele>
        <time>2017-02-25T12:42:18Z</time>
      </trkpt>
      <trkpt lat="38.222143" lon="-1.597568">
        <ele>313.0</ele>
        <time>2017-02-25T12:42:19Z</time>
      </trkpt>
      <trkpt lat="38.222146" lon="-1.597586">
        <ele>312.6</ele>
        <time>2017-02-25T12:42:20Z</time>
      </trkpt>
      <trkpt lat="38.222171" lon="-1.597629">
        <ele>312.6</ele>
        <time>2017-02-25T12:42:23Z</time>
      </trkpt>
      <trkpt lat="38.222181" lon="-1.597645">
        <ele>313.0</ele>
        <time>2017-02-25T12:42:24Z</time>
      </trkpt>
      <trkpt lat="38.222188" lon="-1.597662">
        <ele>312.1</ele>
        <time>2017-02-25T12:42:25Z</time>
      </trkpt>
      <trkpt lat="38.222193" lon="-1.597675">
        <ele>313.0</ele>
        <time>2017-02-25T12:42:26Z</time>
      </trkpt>
      <trkpt lat="38.222202" lon="-1.597686">
        <ele>312.6</ele>
        <time>2017-02-25T12:42:27Z</time>
      </trkpt>
      <trkpt lat="38.222208" lon="-1.597699">
        <ele>312.6</ele>
        <time>2017-02-25T12:42:28Z</time>
      </trkpt>
      <trkpt lat="38.222227" lon="-1.597769">
        <ele>312.6</ele>
        <time>2017-02-25T12:42:37Z</time>
      </trkpt>
      <trkpt lat="38.222231" lon="-1.597783">
        <ele>312.6</ele>
        <time>2017-02-25T12:42:38Z</time>
      </trkpt>
      <trkpt lat="38.222238" lon="-1.597798">
        <ele>312.1</ele>
        <time>2017-02-25T12:42:39Z</time>
      </trkpt>
      <trkpt lat="38.222242" lon="-1.597815">
        <ele>312.1</ele>
        <time>2017-02-25T12:42:40Z</time>
      </trkpt>
      <trkpt lat="38.222246" lon="-1.597837">
        <ele>312.1</ele>
        <time>2017-02-25T12:42:41Z</time>
      </trkpt>
      <trkpt lat="38.222258" lon="-1.597867">
        <ele>312.6</ele>
        <time>2017-02-25T12:42:43Z</time>
      </trkpt>
      <trkpt lat="38.222290" lon="-1.598035">
        <ele>312.1</ele>
        <time>2017-02-25T12:42:56Z</time>
      </trkpt>
      <trkpt lat="38.222296" lon="-1.598049">
        <ele>312.1</ele>
        <time>2017-02-25T12:42:57Z</time>
      </trkpt>
      <trkpt lat="38.222305" lon="-1.598074">
        <ele>311.6</ele>
        <time>2017-02-25T12:42:59Z</time>
      </trkpt>
      <trkpt lat="38.222322" lon="-1.598129">
        <ele>312.1</ele>
        <time>2017-02-25T12:43:07Z</time>
      </trkpt>
      <trkpt lat="38.222330" lon="-1.598165">
        <ele>312.1</ele>
        <time>2017-02-25T12:43:19Z</time>
      </trkpt>
      <trkpt lat="38.222389" lon="-1.598241">
        <ele>312.1</ele>
        <time>2017-02-25T12:43:31Z</time>
      </trkpt>
      <trkpt lat="38.222390" lon="-1.598386">
        <ele>312.6</ele>
        <time>2017-02-25T12:43:44Z</time>
      </trkpt>
      <trkpt lat="38.222374" lon="-1.598493">
        <ele>312.1</ele>
        <time>2017-02-25T12:43:57Z</time>
      </trkpt>
      <trkpt lat="38.222355" lon="-1.598666">
        <ele>312.1</ele>
        <time>2017-02-25T12:44:11Z</time>
      </trkpt>
      <trkpt lat="38.222379" lon="-1.598714">
        <ele>312.6</ele>
        <time>2017-02-25T12:44:18Z</time>
      </trkpt>
      <trkpt lat="38.222419" lon="-1.598823">
        <ele>312.1</ele>
        <time>2017-02-25T12:44:25Z</time>
      </trkpt>
      <trkpt lat="38.222435" lon="-1.598907">
        <ele>311.6</ele>
        <time>2017-02-25T12:44:35Z</time>
      </trkpt>
      <trkpt lat="38.222490" lon="-1.598951">
        <ele>311.1</ele>
        <time>2017-02-25T12:44:42Z</time>
      </trkpt>
      <trkpt lat="38.222707" lon="-1.599070">
        <ele>311.6</ele>
        <time>2017-02-25T12:44:57Z</time>
      </trkpt>
      <trkpt lat="38.222717" lon="-1.599083">
        <ele>312.1</ele>
        <time>2017-02-25T12:45:01Z</time>
      </trkpt>
      <trkpt lat="38.222719" lon="-1.599091">
        <ele>312.1</ele>
        <time>2017-02-25T12:45:02Z</time>
      </trkpt>
      <trkpt lat="38.222838" lon="-1.599067">
        <ele>312.6</ele>
        <time>2017-02-25T12:45:16Z</time>
      </trkpt>
      <trkpt lat="38.222865" lon="-1.599002">
        <ele>316.9</ele>
        <time>2017-02-25T13:05:55Z</time>
      </trkpt>
      <trkpt lat="38.222894" lon="-1.598942">
        <ele>316.4</ele>
        <time>2017-02-25T13:06:08Z</time>
      </trkpt>
      <trkpt lat="38.222944" lon="-1.598926">
        <ele>316.9</ele>
        <time>2017-02-25T13:06:22Z</time>
      </trkpt>
      <trkpt lat="38.222967" lon="-1.598899">
        <ele>316.4</ele>
        <time>2017-02-25T13:06:52Z</time>
      </trkpt>
      <trkpt lat="38.223105" lon="-1.598782">
        <ele>315.9</ele>
        <time>2017-02-25T13:07:33Z</time>
      </trkpt>
      <trkpt lat="38.223217" lon="-1.599412">
        <ele>316.9</ele>
        <time>2017-02-25T13:07:57Z</time>
      </trkpt>
      <trkpt lat="38.223235" lon="-1.599472">
        <ele>316.4</ele>
        <time>2017-02-25T13:08:11Z</time>
      </trkpt>
      <trkpt lat="38.223206" lon="-1.599528">
        <ele>315.9</ele>
        <time>2017-02-25T13:08:23Z</time>
      </trkpt>
      <trkpt lat="38.223174" lon="-1.599668">
        <ele>315.5</ele>
        <time>2017-02-25T13:08:35Z</time>
      </trkpt>
      <trkpt lat="38.223177" lon="-1.599664">
        <ele>315.9</ele>
        <time>2017-02-25T13:08:39Z</time>
      </trkpt>
      <trkpt lat="38.223180" lon="-1.599837">
        <ele>316.4</ele>
        <time>2017-02-25T13:08:52Z</time>
      </trkpt>
      <trkpt lat="38.223188" lon="-1.599916">
        <ele>316.4</ele>
        <time>2017-02-25T13:09:04Z</time>
      </trkpt>
      <trkpt lat="38.223204" lon="-1.600008">
        <ele>317.4</ele>
        <time>2017-02-25T13:13:21Z</time>
      </trkpt>
      <trkpt lat="38.223189" lon="-1.600058">
        <ele>316.9</ele>
        <time>2017-02-25T13:13:32Z</time>
      </trkpt>
      <trkpt lat="38.223174" lon="-1.600080">
        <ele>316.9</ele>
        <time>2017-02-25T13:13:35Z</time>
      </trkpt>
      <trkpt lat="38.222972" lon="-1.600208">
        <ele>316.4</ele>
        <time>2017-02-25T13:13:58Z</time>
      </trkpt>
      <trkpt lat="38.222419" lon="-1.601079">
        <ele>318.8</ele>
        <time>2017-02-25T13:15:25Z</time>
      </trkpt>
      <trkpt lat="38.222404" lon="-1.601091">
        <ele>318.8</ele>
        <time>2017-02-25T13:15:28Z</time>
      </trkpt>
      <trkpt lat="38.222345" lon="-1.601361">
        <ele>319.8</ele>
        <time>2017-02-25T13:15:44Z</time>
      </trkpt>
      <trkpt lat="38.222286" lon="-1.601537">
        <ele>319.8</ele>
        <time>2017-02-25T13:15:58Z</time>
      </trkpt>
      <trkpt lat="38.222233" lon="-1.601659">
        <ele>320.3</ele>
        <time>2017-02-25T13:16:09Z</time>
      </trkpt>
      <trkpt lat="38.222132" lon="-1.601852">
        <ele>320.3</ele>
        <time>2017-02-25T13:16:24Z</time>
      </trkpt>
      <trkpt lat="38.222096" lon="-1.601902">
        <ele>320.3</ele>
        <time>2017-02-25T13:16:28Z</time>
      </trkpt>
      <trkpt lat="38.222051" lon="-1.601986">
        <ele>321.2</ele>
        <time>2017-02-25T13:16:35Z</time>
      </trkpt>
      <trkpt lat="38.222037" lon="-1.602027">
        <ele>320.3</ele>
        <time>2017-02-25T13:16:38Z</time>
      </trkpt>
      <trkpt lat="38.221971" lon="-1.602190">
        <ele>321.2</ele>
        <time>2017-02-25T13:16:52Z</time>
      </trkpt>
      <trkpt lat="38.221942" lon="-1.602324">
        <ele>321.2</ele>
        <time>2017-02-25T13:17:02Z</time>
      </trkpt>
      <trkpt lat="38.221924" lon="-1.602469">
        <ele>321.2</ele>
        <time>2017-02-25T13:17:14Z</time>
      </trkpt>
      <trkpt lat="38.221916" lon="-1.602609">
        <ele>322.2</ele>
        <time>2017-02-25T13:17:25Z</time>
      </trkpt>
      <trkpt lat="38.221921" lon="-1.602720">
        <ele>322.2</ele>
        <time>2017-02-25T13:17:34Z</time>
      </trkpt>
      <trkpt lat="38.221912" lon="-1.602760">
        <ele>322.7</ele>
        <time>2017-02-25T13:17:37Z</time>
      </trkpt>
      <trkpt lat="38.221922" lon="-1.602838">
        <ele>322.7</ele>
        <time>2017-02-25T13:17:43Z</time>
      </trkpt>
      <trkpt lat="38.221923" lon="-1.603047">
        <ele>323.1</ele>
        <time>2017-02-25T13:17:57Z</time>
      </trkpt>
      <trkpt lat="38.221908" lon="-1.603201">
        <ele>324.1</ele>
        <time>2017-02-25T13:18:08Z</time>
      </trkpt>
      <trkpt lat="38.221896" lon="-1.603229">
        <ele>324.1</ele>
        <time>2017-02-25T13:18:10Z</time>
      </trkpt>
      <trkpt lat="38.221881" lon="-1.603420">
        <ele>324.1</ele>
        <time>2017-02-25T13:18:24Z</time>
      </trkpt>
      <trkpt lat="38.221854" lon="-1.603573">
        <ele>324.6</ele>
        <time>2017-02-25T13:18:37Z</time>
      </trkpt>
      <trkpt lat="38.221842" lon="-1.603600">
        <ele>324.6</ele>
        <time>2017-02-25T13:18:39Z</time>
      </trkpt>
      <trkpt lat="38.221846" lon="-1.603804">
        <ele>324.1</ele>
        <time>2017-02-25T13:18:55Z</time>
      </trkpt>
      <trkpt lat="38.221860" lon="-1.603885">
        <ele>324.6</ele>
        <time>2017-02-25T13:19:04Z</time>
      </trkpt>
      <trkpt lat="38.221877" lon="-1.604052">
        <ele>325.1</ele>
        <time>2017-02-25T13:19:17Z</time>
      </trkpt>
      <trkpt lat="38.221898" lon="-1.604148">
        <ele>324.6</ele>
        <time>2017-02-25T13:19:25Z</time>
      </trkpt>
      <trkpt lat="38.221902" lon="-1.604230">
        <ele>325.5</ele>
        <time>2017-02-25T13:19:30Z</time>
      </trkpt>
      <trkpt lat="38.221947" lon="-1.604485">
        <ele>326.0</ele>
        <time>2017-02-25T13:19:45Z</time>
      </trkpt>
      <trkpt lat="38.221958" lon="-1.604510">
        <ele>326.0</ele>
        <time>2017-02-25T13:19:48Z</time>
      </trkpt>
      <trkpt lat="38.221955" lon="-1.604575">
        <ele>326.0</ele>
        <time>2017-02-25T13:19:53Z</time>
      </trkpt>
      <trkpt lat="38.221976" lon="-1.604769">
        <ele>326.0</ele>
        <time>2017-02-25T13:20:07Z</time>
      </trkpt>
      <trkpt lat="38.222008" lon="-1.604885">
        <ele>326.5</ele>
        <time>2017-02-25T13:20:19Z</time>
      </trkpt>
      <trkpt lat="38.222031" lon="-1.605103">
        <ele>326.5</ele>
        <time>2017-02-25T13:20:32Z</time>
      </trkpt>
      <trkpt lat="38.222047" lon="-1.605236">
        <ele>327.5</ele>
        <time>2017-02-25T13:20:43Z</time>
      </trkpt>
      <trkpt lat="38.222080" lon="-1.605499">
        <ele>328.0</ele>
        <time>2017-02-25T13:20:58Z</time>
      </trkpt>
      <trkpt lat="38.222086" lon="-1.605767">
        <ele>329.4</ele>
        <time>2017-02-25T13:21:14Z</time>
      </trkpt>
      <trkpt lat="38.222137" lon="-1.605990">
        <ele>329.9</ele>
        <time>2017-02-25T13:21:29Z</time>
      </trkpt>
      <trkpt lat="38.222139" lon="-1.606004">
        <ele>329.4</ele>
        <time>2017-02-25T13:21:32Z</time>
      </trkpt>
      <trkpt lat="38.222152" lon="-1.606066">
        <ele>329.9</ele>
        <time>2017-02-25T13:21:36Z</time>
      </trkpt>
      <trkpt lat="38.222215" lon="-1.606324">
        <ele>330.8</ele>
        <time>2017-02-25T13:21:51Z</time>
      </trkpt>
      <trkpt lat="38.222318" lon="-1.606542">
        <ele>331.8</ele>
        <time>2017-02-25T13:22:06Z</time>
      </trkpt>
      <trkpt lat="38.222368" lon="-1.606675">
        <ele>331.8</ele>
        <time>2017-02-25T13:22:17Z</time>
      </trkpt>
      <trkpt lat="38.222373" lon="-1.606762">
        <ele>331.8</ele>
        <time>2017-02-25T13:22:33Z</time>
      </trkpt>
      <trkpt lat="38.222410" lon="-1.607025">
        <ele>331.8</ele>
        <time>2017-02-25T13:22:48Z</time>
      </trkpt>
      <trkpt lat="38.222427" lon="-1.607256">
        <ele>332.8</ele>
        <time>2017-02-25T13:23:02Z</time>
      </trkpt>
      <trkpt lat="38.222389" lon="-1.607441">
        <ele>333.2</ele>
        <time>2017-02-25T13:23:15Z</time>
      </trkpt>
      <trkpt lat="38.222299" lon="-1.607626">
        <ele>333.2</ele>
        <time>2017-02-25T13:23:27Z</time>
      </trkpt>
      <trkpt lat="38.222200" lon="-1.607867">
        <ele>333.7</ele>
        <time>2017-02-25T13:23:43Z</time>
      </trkpt>
      <trkpt lat="38.222114" lon="-1.608141">
        <ele>334.7</ele>
        <time>2017-02-25T13:24:01Z</time>
      </trkpt>
      <trkpt lat="38.222069" lon="-1.608460">
        <ele>336.1</ele>
        <time>2017-02-25T13:24:20Z</time>
      </trkpt>
      <trkpt lat="38.222069" lon="-1.608705">
        <ele>336.6</ele>
        <time>2017-02-25T13:24:34Z</time>
      </trkpt>
      <trkpt lat="38.222068" lon="-1.608797">
        <ele>336.6</ele>
        <time>2017-02-25T13:24:39Z</time>
      </trkpt>
      <trkpt lat="38.222112" lon="-1.609113">
        <ele>336.6</ele>
        <time>2017-02-25T13:24:59Z</time>
      </trkpt>
      <trkpt lat="38.222211" lon="-1.609325">
        <ele>334.7</ele>
        <time>2017-02-25T13:25:14Z</time>
      </trkpt>
      <trkpt lat="38.222220" lon="-1.609338">
        <ele>337.6</ele>
        <time>2017-02-25T13:25:15Z</time>
      </trkpt>
      <trkpt lat="38.222369" lon="-1.609508">
        <ele>336.1</ele>
        <time>2017-02-25T13:25:29Z</time>
      </trkpt>
      <trkpt lat="38.222421" lon="-1.609558">
        <ele>336.6</ele>
        <time>2017-02-25T13:25:37Z</time>
      </trkpt>
      <trkpt lat="38.222508" lon="-1.609689">
        <ele>336.6</ele>
        <time>2017-02-25T13:25:52Z</time>
      </trkpt>
      <trkpt lat="38.222525" lon="-1.609744">
        <ele>336.6</ele>
        <time>2017-02-25T13:26:28Z</time>
      </trkpt>
      <trkpt lat="38.222586" lon="-1.609860">
        <ele>336.1</ele>
        <time>2017-02-25T13:26:39Z</time>
      </trkpt>
      <trkpt lat="38.222608" lon="-1.609915">
        <ele>336.1</ele>
        <time>2017-02-25T13:26:45Z</time>
      </trkpt>
      <trkpt lat="38.222609" lon="-1.609942">
        <ele>335.2</ele>
        <time>2017-02-25T13:26:47Z</time>
      </trkpt>
      <trkpt lat="38.222615" lon="-1.609983">
        <ele>335.2</ele>
        <time>2017-02-25T13:26:51Z</time>
      </trkpt>
      <trkpt lat="38.222680" lon="-1.610445">
        <ele>336.1</ele>
        <time>2017-02-25T13:27:45Z</time>
      </trkpt>
      <trkpt lat="38.222665" lon="-1.610715">
        <ele>336.6</ele>
        <time>2017-02-25T13:28:01Z</time>
      </trkpt>
      <trkpt lat="38.222667" lon="-1.610752">
        <ele>337.6</ele>
        <time>2017-02-25T13:28:04Z</time>
      </trkpt>
      <trkpt lat="38.222671" lon="-1.610791">
        <ele>337.1</ele>
        <time>2017-02-25T13:28:07Z</time>
      </trkpt>
      <trkpt lat="38.222685" lon="-1.610828">
        <ele>337.1</ele>
        <time>2017-02-25T13:28:11Z</time>
      </trkpt>
      <trkpt lat="38.222691" lon="-1.610854">
        <ele>337.1</ele>
        <time>2017-02-25T13:28:13Z</time>
      </trkpt>
      <trkpt lat="38.222705" lon="-1.611015">
        <ele>338.0</ele>
        <time>2017-02-25T13:28:27Z</time>
      </trkpt>
      <trkpt lat="38.222707" lon="-1.611017">
        <ele>338.5</ele>
        <time>2017-02-25T13:28:28Z</time>
      </trkpt>
      <trkpt lat="38.222712" lon="-1.611162">
        <ele>339.0</ele>
        <time>2017-02-25T13:28:39Z</time>
      </trkpt>
      <trkpt lat="38.222713" lon="-1.611278">
        <ele>340.0</ele>
        <time>2017-02-25T13:28:51Z</time>
      </trkpt>
      <trkpt lat="38.222710" lon="-1.611320">
        <ele>340.0</ele>
        <time>2017-02-25T13:28:56Z</time>
      </trkpt>
      <trkpt lat="38.222720" lon="-1.611431">
        <ele>340.9</ele>
        <time>2017-02-25T13:29:09Z</time>
      </trkpt>
      <trkpt lat="38.222721" lon="-1.611469">
        <ele>340.9</ele>
        <time>2017-02-25T13:29:12Z</time>
      </trkpt>
      <trkpt lat="38.222723" lon="-1.611550">
        <ele>340.9</ele>
        <time>2017-02-25T13:29:18Z</time>
      </trkpt>
      <trkpt lat="38.222721" lon="-1.611702">
        <ele>342.4</ele>
        <time>2017-02-25T13:29:30Z</time>
      </trkpt>
      <trkpt lat="38.222718" lon="-1.611807">
        <ele>342.9</ele>
        <time>2017-02-25T13:29:40Z</time>
      </trkpt>
      <trkpt lat="38.222726" lon="-1.611833">
        <ele>343.3</ele>
        <time>2017-02-25T13:29:42Z</time>
      </trkpt>
      <trkpt lat="38.222737" lon="-1.611976">
        <ele>343.8</ele>
        <time>2017-02-25T13:29:52Z</time>
      </trkpt>
      <trkpt lat="38.222747" lon="-1.612023">
        <ele>343.8</ele>
        <time>2017-02-25T13:29:55Z</time>
      </trkpt>
      <trkpt lat="38.222749" lon="-1.612049">
        <ele>344.3</ele>
        <time>2017-02-25T13:29:57Z</time>
      </trkpt>
      <trkpt lat="38.222746" lon="-1.612098">
        <ele>344.3</ele>
        <time>2017-02-25T13:30:01Z</time>
      </trkpt>
      <trkpt lat="38.222752" lon="-1.612124">
        <ele>344.8</ele>
        <time>2017-02-25T13:30:03Z</time>
      </trkpt>
      <trkpt lat="38.222753" lon="-1.612148">
        <ele>345.2</ele>
        <time>2017-02-25T13:30:05Z</time>
      </trkpt>
      <trkpt lat="38.222777" lon="-1.612341">
        <ele>346.2</ele>
        <time>2017-02-25T13:30:19Z</time>
      </trkpt>
      <trkpt lat="38.222774" lon="-1.612387">
        <ele>345.7</ele>
        <time>2017-02-25T13:30:27Z</time>
      </trkpt>
      <trkpt lat="38.222780" lon="-1.612406">
        <ele>346.2</ele>
        <time>2017-02-25T13:30:28Z</time>
      </trkpt>
      <trkpt lat="38.222784" lon="-1.612442">
        <ele>346.2</ele>
        <time>2017-02-25T13:30:31Z</time>
      </trkpt>
      <trkpt lat="38.222791" lon="-1.612465">
        <ele>346.2</ele>
        <time>2017-02-25T13:30:33Z</time>
      </trkpt>
      <trkpt lat="38.222796" lon="-1.612523">
        <ele>346.7</ele>
        <time>2017-02-25T13:30:38Z</time>
      </trkpt>
      <trkpt lat="38.222819" lon="-1.612644">
        <ele>347.6</ele>
        <time>2017-02-25T13:30:53Z</time>
      </trkpt>
      <trkpt lat="38.222878" lon="-1.612802">
        <ele>349.1</ele>
        <time>2017-02-25T13:31:07Z</time>
      </trkpt>
      <trkpt lat="38.222896" lon="-1.612832">
        <ele>349.1</ele>
        <time>2017-02-25T13:31:10Z</time>
      </trkpt>
      <trkpt lat="38.222911" lon="-1.612852">
        <ele>349.1</ele>
        <time>2017-02-25T13:31:12Z</time>
      </trkpt>
      <trkpt lat="38.222920" lon="-1.612872">
        <ele>349.6</ele>
        <time>2017-02-25T13:31:14Z</time>
      </trkpt>
      <trkpt lat="38.223005" lon="-1.613020">
        <ele>350.5</ele>
        <time>2017-02-25T13:31:28Z</time>
      </trkpt>
      <trkpt lat="38.223040" lon="-1.613144">
        <ele>351.5</ele>
        <time>2017-02-25T13:31:41Z</time>
      </trkpt>
      <trkpt lat="38.223033" lon="-1.613130">
        <ele>347.2</ele>
        <time>2017-02-25T13:31:52Z</time>
      </trkpt>
      <trkpt lat="38.223032" lon="-1.613129">
        <ele>351.5</ele>
        <time>2017-02-25T13:31:53Z</time>
      </trkpt>
      <trkpt lat="38.223057" lon="-1.613221">
        <ele>351.0</ele>
        <time>2017-02-25T13:32:08Z</time>
      </trkpt>
      <trkpt lat="38.223064" lon="-1.613264">
        <ele>351.0</ele>
        <time>2017-02-25T13:32:12Z</time>
      </trkpt>
      <trkpt lat="38.223068" lon="-1.613313">
        <ele>351.5</ele>
        <time>2017-02-25T13:32:24Z</time>
      </trkpt>
      <trkpt lat="38.223068" lon="-1.613433">
        <ele>352.5</ele>
        <time>2017-02-25T13:32:31Z</time>
      </trkpt>
      <trkpt lat="38.223078" lon="-1.613576">
        <ele>353.4</ele>
        <time>2017-02-25T13:32:39Z</time>
      </trkpt>
      <trkpt lat="38.223090" lon="-1.613607">
        <ele>353.4</ele>
        <time>2017-02-25T13:32:41Z</time>
      </trkpt>
      <trkpt lat="38.223098" lon="-1.613651">
        <ele>353.4</ele>
        <time>2017-02-25T13:32:44Z</time>
      </trkpt>
      <trkpt lat="38.223118" lon="-1.613718">
        <ele>354.9</ele>
        <time>2017-02-25T13:32:54Z</time>
      </trkpt>
      <trkpt lat="38.223163" lon="-1.613779">
        <ele>354.9</ele>
        <time>2017-02-25T13:33:08Z</time>
      </trkpt>
      <trkpt lat="38.223205" lon="-1.613864">
        <ele>354.4</ele>
        <time>2017-02-25T13:33:13Z</time>
      </trkpt>
      <trkpt lat="38.223248" lon="-1.613910">
        <ele>355.3</ele>
        <time>2017-02-25T13:33:22Z</time>
      </trkpt>
      <trkpt lat="38.223370" lon="-1.614112">
        <ele>355.8</ele>
        <time>2017-02-25T13:33:50Z</time>
      </trkpt>
      <trkpt lat="38.223363" lon="-1.614186">
        <ele>356.8</ele>
        <time>2017-02-25T13:34:41Z</time>
      </trkpt>
      <trkpt lat="38.223326" lon="-1.614279">
        <ele>357.8</ele>
        <time>2017-02-25T13:34:49Z</time>
      </trkpt>
      <trkpt lat="38.223325" lon="-1.614367">
        <ele>357.8</ele>
        <time>2017-02-25T13:34:54Z</time>
      </trkpt>
      <trkpt lat="38.223406" lon="-1.614585">
        <ele>358.7</ele>
        <time>2017-02-25T13:35:10Z</time>
      </trkpt>
      <trkpt lat="38.223408" lon="-1.614584">
        <ele>359.2</ele>
        <time>2017-02-25T13:35:11Z</time>
      </trkpt>
      <trkpt lat="38.223470" lon="-1.614697">
        <ele>359.7</ele>
        <time>2017-02-25T13:35:19Z</time>
      </trkpt>
      <trkpt lat="38.223536" lon="-1.614808">
        <ele>361.1</ele>
        <time>2017-02-25T13:35:27Z</time>
      </trkpt>
      <trkpt lat="38.223590" lon="-1.614873">
        <ele>361.1</ele>
        <time>2017-02-25T13:35:32Z</time>
      </trkpt>
      <trkpt lat="38.223720" lon="-1.615109">
        <ele>362.5</ele>
        <time>2017-02-25T13:35:48Z</time>
      </trkpt>
      <trkpt lat="38.223854" lon="-1.615318">
        <ele>363.5</ele>
        <time>2017-02-25T13:36:03Z</time>
      </trkpt>
      <trkpt lat="38.224031" lon="-1.615487">
        <ele>364.0</ele>
        <time>2017-02-25T13:36:18Z</time>
      </trkpt>
      <trkpt lat="38.224069" lon="-1.615541">
        <ele>365.0</ele>
        <time>2017-02-25T13:36:22Z</time>
      </trkpt>
      <trkpt lat="38.224081" lon="-1.615614">
        <ele>364.0</ele>
        <time>2017-02-25T13:36:26Z</time>
      </trkpt>
      <trkpt lat="38.224042" lon="-1.615804">
        <ele>365.0</ele>
        <time>2017-02-25T13:36:37Z</time>
      </trkpt>
      <trkpt lat="38.224086" lon="-1.615844">
        <ele>365.0</ele>
        <time>2017-02-25T13:36:42Z</time>
      </trkpt>
      <trkpt lat="38.224264" lon="-1.615840">
        <ele>365.4</ele>
        <time>2017-02-25T13:36:55Z</time>
      </trkpt>
      <trkpt lat="38.224379" lon="-1.615789">
        <ele>365.9</ele>
        <time>2017-02-25T13:37:09Z</time>
      </trkpt>
      <trkpt lat="38.224446" lon="-1.615763">
        <ele>366.4</ele>
        <time>2017-02-25T13:37:14Z</time>
      </trkpt>
      <trkpt lat="38.224520" lon="-1.615805">
        <ele>366.4</ele>
        <time>2017-02-25T13:37:21Z</time>
      </trkpt>
      <trkpt lat="38.224530" lon="-1.615925">
        <ele>366.9</ele>
        <time>2017-02-25T13:37:29Z</time>
      </trkpt>
      <trkpt lat="38.224388" lon="-1.616101">
        <ele>367.8</ele>
        <time>2017-02-25T13:37:45Z</time>
      </trkpt>
      <trkpt lat="38.224353" lon="-1.616190">
        <ele>367.8</ele>
        <time>2017-02-25T13:37:57Z</time>
      </trkpt>
      <trkpt lat="38.224304" lon="-1.616327">
        <ele>368.8</ele>
        <time>2017-02-25T13:38:09Z</time>
      </trkpt>
      <trkpt lat="38.224160" lon="-1.616509">
        <ele>370.2</ele>
        <time>2017-02-25T13:38:24Z</time>
      </trkpt>
      <trkpt lat="38.224074" lon="-1.616619">
        <ele>371.2</ele>
        <time>2017-02-25T13:38:33Z</time>
      </trkpt>
      <trkpt lat="38.224001" lon="-1.616844">
        <ele>371.7</ele>
        <time>2017-02-25T13:38:47Z</time>
      </trkpt>
      <trkpt lat="38.223999" lon="-1.616899">
        <ele>372.6</ele>
        <time>2017-02-25T13:38:50Z</time>
      </trkpt>
      <trkpt lat="38.224017" lon="-1.616956">
        <ele>373.1</ele>
        <time>2017-02-25T13:38:54Z</time>
      </trkpt>
      <trkpt lat="38.224060" lon="-1.617046">
        <ele>373.1</ele>
        <time>2017-02-25T13:39:00Z</time>
      </trkpt>
      <trkpt lat="38.224116" lon="-1.617227">
        <ele>375.0</ele>
        <time>2017-02-25T13:39:11Z</time>
      </trkpt>
      <trkpt lat="38.224121" lon="-1.617239">
        <ele>375.0</ele>
        <time>2017-02-25T13:39:12Z</time>
      </trkpt>
      <trkpt lat="38.224106" lon="-1.617384">
        <ele>376.0</ele>
        <time>2017-02-25T13:39:22Z</time>
      </trkpt>
      <trkpt lat="38.224097" lon="-1.617400">
        <ele>375.5</ele>
        <time>2017-02-25T13:39:24Z</time>
      </trkpt>
      <trkpt lat="38.224052" lon="-1.617476">
        <ele>376.5</ele>
        <time>2017-02-25T13:39:31Z</time>
      </trkpt>
      <trkpt lat="38.223979" lon="-1.617608">
        <ele>376.5</ele>
        <time>2017-02-25T13:39:44Z</time>
      </trkpt>
      <trkpt lat="38.223984" lon="-1.617620">
        <ele>377.5</ele>
        <time>2017-02-25T13:39:46Z</time>
      </trkpt>
      <trkpt lat="38.223984" lon="-1.617646">
        <ele>377.0</ele>
        <time>2017-02-25T13:39:48Z</time>
      </trkpt>
      <trkpt lat="38.223976" lon="-1.617677">
        <ele>376.5</ele>
        <time>2017-02-25T13:39:50Z</time>
      </trkpt>
      <trkpt lat="38.223974" lon="-1.617708">
        <ele>377.0</ele>
        <time>2017-02-25T13:39:52Z</time>
      </trkpt>
      <trkpt lat="38.223970" lon="-1.617729">
        <ele>377.5</ele>
        <time>2017-02-25T13:39:54Z</time>
      </trkpt>
      <trkpt lat="38.223965" lon="-1.617777">
        <ele>377.0</ele>
        <time>2017-02-25T13:39:58Z</time>
      </trkpt>
      <trkpt lat="38.224001" lon="-1.617911">
        <ele>377.9</ele>
        <time>2017-02-25T13:40:11Z</time>
      </trkpt>
      <trkpt lat="38.224050" lon="-1.617991">
        <ele>378.9</ele>
        <time>2017-02-25T13:40:20Z</time>
      </trkpt>
      <trkpt lat="38.224073" lon="-1.618019">
        <ele>379.4</ele>
        <time>2017-02-25T13:40:24Z</time>
      </trkpt>
      <trkpt lat="38.224097" lon="-1.618041">
        <ele>379.4</ele>
        <time>2017-02-25T13:40:28Z</time>
      </trkpt>
      <trkpt lat="38.224115" lon="-1.618068">
        <ele>379.4</ele>
        <time>2017-02-25T13:40:31Z</time>
      </trkpt>
      <trkpt lat="38.224256" lon="-1.618220">
        <ele>380.3</ele>
        <time>2017-02-25T13:40:48Z</time>
      </trkpt>
      <trkpt lat="38.224346" lon="-1.618340">
        <ele>381.3</ele>
        <time>2017-02-25T13:41:00Z</time>
      </trkpt>
      <trkpt lat="38.224382" lon="-1.618376">
        <ele>381.3</ele>
        <time>2017-02-25T13:41:04Z</time>
      </trkpt>
      <trkpt lat="38.224395" lon="-1.618400">
        <ele>381.8</ele>
        <time>2017-02-25T13:41:06Z</time>
      </trkpt>
      <trkpt lat="38.224488" lon="-1.618488">
        <ele>382.7</ele>
        <time>2017-02-25T13:41:19Z</time>
      </trkpt>
      <trkpt lat="38.224520" lon="-1.618561">
        <ele>382.3</ele>
        <time>2017-02-25T13:41:27Z</time>
      </trkpt>
      <trkpt lat="38.224499" lon="-1.618654">
        <ele>382.7</ele>
        <time>2017-02-25T13:41:36Z</time>
      </trkpt>
      <trkpt lat="38.224462" lon="-1.618684">
        <ele>382.7</ele>
        <time>2017-02-25T13:41:41Z</time>
      </trkpt>
      <trkpt lat="38.224439" lon="-1.618695">
        <ele>382.7</ele>
        <time>2017-02-25T13:41:44Z</time>
      </trkpt>
      <trkpt lat="38.224345" lon="-1.618742">
        <ele>382.7</ele>
        <time>2017-02-25T13:41:53Z</time>
      </trkpt>
      <trkpt lat="38.224274" lon="-1.618767">
        <ele>382.7</ele>
        <time>2017-02-25T13:41:59Z</time>
      </trkpt>
      <trkpt lat="38.224213" lon="-1.618782">
        <ele>383.2</ele>
        <time>2017-02-25T13:42:04Z</time>
      </trkpt>
      <trkpt lat="38.224113" lon="-1.618928">
        <ele>383.2</ele>
        <time>2017-02-25T13:42:17Z</time>
      </trkpt>
      <trkpt lat="38.224118" lon="-1.618964">
        <ele>383.2</ele>
        <time>2017-02-25T13:42:20Z</time>
      </trkpt>
      <trkpt lat="38.224129" lon="-1.619013">
        <ele>383.7</ele>
        <time>2017-02-25T13:42:24Z</time>
      </trkpt>
      <trkpt lat="38.224134" lon="-1.619157">
        <ele>384.7</ele>
        <time>2017-02-25T13:42:38Z</time>
      </trkpt>
      <trkpt lat="38.224124" lon="-1.619205">
        <ele>384.7</ele>
        <time>2017-02-25T13:42:42Z</time>
      </trkpt>
      <trkpt lat="38.224095" lon="-1.619263">
        <ele>385.6</ele>
        <time>2017-02-25T13:42:48Z</time>
      </trkpt>
      <trkpt lat="38.224091" lon="-1.619320">
        <ele>385.6</ele>
        <time>2017-02-25T13:42:52Z</time>
      </trkpt>
      <trkpt lat="38.224096" lon="-1.619398">
        <ele>385.6</ele>
        <time>2017-02-25T13:42:58Z</time>
      </trkpt>
      <trkpt lat="38.224105" lon="-1.619455">
        <ele>385.6</ele>
        <time>2017-02-25T13:43:02Z</time>
      </trkpt>
      <trkpt lat="38.224092" lon="-1.619540">
        <ele>386.6</ele>
        <time>2017-02-25T13:43:09Z</time>
      </trkpt>
      <trkpt lat="38.224092" lon="-1.619646">
        <ele>387.1</ele>
        <time>2017-02-25T13:43:17Z</time>
      </trkpt>
      <trkpt lat="38.224068" lon="-1.619786">
        <ele>388.0</ele>
        <time>2017-02-25T13:43:27Z</time>
      </trkpt>
      <trkpt lat="38.224066" lon="-1.619815">
        <ele>387.1</ele>
        <time>2017-02-25T13:43:29Z</time>
      </trkpt>
      <trkpt lat="38.224077" lon="-1.619872">
        <ele>388.5</ele>
        <time>2017-02-25T13:43:34Z</time>
      </trkpt>
      <trkpt lat="38.224083" lon="-1.620003">
        <ele>389.5</ele>
        <time>2017-02-25T13:43:44Z</time>
      </trkpt>
      <trkpt lat="38.224084" lon="-1.620036">
        <ele>389.5</ele>
        <time>2017-02-25T13:43:46Z</time>
      </trkpt>
      <trkpt lat="38.224094" lon="-1.620092">
        <ele>389.5</ele>
        <time>2017-02-25T13:43:51Z</time>
      </trkpt>
      <trkpt lat="38.224129" lon="-1.620261">
        <ele>390.9</ele>
        <time>2017-02-25T13:44:05Z</time>
      </trkpt>
      <trkpt lat="38.224131" lon="-1.620349">
        <ele>391.9</ele>
        <time>2017-02-25T13:44:13Z</time>
      </trkpt>
      <trkpt lat="38.224129" lon="-1.620403">
        <ele>391.4</ele>
        <time>2017-02-25T13:44:17Z</time>
      </trkpt>
      <trkpt lat="38.224102" lon="-1.620476">
        <ele>391.9</ele>
        <time>2017-02-25T13:44:24Z</time>
      </trkpt>
      <trkpt lat="38.224094" lon="-1.620550">
        <ele>392.8</ele>
        <time>2017-02-25T13:44:29Z</time>
      </trkpt>
      <trkpt lat="38.224099" lon="-1.620590">
        <ele>392.8</ele>
        <time>2017-02-25T13:44:35Z</time>
      </trkpt>
      <trkpt lat="38.224103" lon="-1.620684">
        <ele>392.8</ele>
        <time>2017-02-25T13:44:43Z</time>
      </trkpt>
      <trkpt lat="38.224095" lon="-1.620713">
        <ele>393.3</ele>
        <time>2017-02-25T13:44:45Z</time>
      </trkpt>
      <trkpt lat="38.224075" lon="-1.620886">
        <ele>395.2</ele>
        <time>2017-02-25T13:44:59Z</time>
      </trkpt>
      <trkpt lat="38.224072" lon="-1.620920">
        <ele>395.2</ele>
        <time>2017-02-25T13:45:02Z</time>
      </trkpt>
      <trkpt lat="38.224076" lon="-1.620971">
        <ele>395.2</ele>
        <time>2017-02-25T13:45:06Z</time>
      </trkpt>
      <trkpt lat="38.224113" lon="-1.621117">
        <ele>396.2</ele>
        <time>2017-02-25T13:45:18Z</time>
      </trkpt>
      <trkpt lat="38.224206" lon="-1.621237">
        <ele>397.2</ele>
        <time>2017-02-25T13:45:31Z</time>
      </trkpt>
      <trkpt lat="38.224241" lon="-1.621265">
        <ele>397.2</ele>
        <time>2017-02-25T13:45:35Z</time>
      </trkpt>
      <trkpt lat="38.224277" lon="-1.621391">
        <ele>397.6</ele>
        <time>2017-02-25T13:45:48Z</time>
      </trkpt>
      <trkpt lat="38.224269" lon="-1.621413">
        <ele>398.1</ele>
        <time>2017-02-25T13:45:50Z</time>
      </trkpt>
      <trkpt lat="38.224200" lon="-1.621581">
        <ele>398.6</ele>
        <time>2017-02-25T13:46:05Z</time>
      </trkpt>
      <trkpt lat="38.224182" lon="-1.621629">
        <ele>398.6</ele>
        <time>2017-02-25T13:46:09Z</time>
      </trkpt>
      <trkpt lat="38.224166" lon="-1.621680">
        <ele>398.6</ele>
        <time>2017-02-25T13:46:13Z</time>
      </trkpt>
      <trkpt lat="38.224164" lon="-1.621753">
        <ele>399.1</ele>
        <time>2017-02-25T13:46:17Z</time>
      </trkpt>
      <trkpt lat="38.224175" lon="-1.621839">
        <ele>399.6</ele>
        <time>2017-02-25T13:46:25Z</time>
      </trkpt>
      <trkpt lat="38.224180" lon="-1.621861">
        <ele>400.0</ele>
        <time>2017-02-25T13:46:27Z</time>
      </trkpt>
      <trkpt lat="38.224207" lon="-1.621904">
        <ele>400.0</ele>
        <time>2017-02-25T13:46:31Z</time>
      </trkpt>
      <trkpt lat="38.224224" lon="-1.621914">
        <ele>400.0</ele>
        <time>2017-02-25T13:46:33Z</time>
      </trkpt>
      <trkpt lat="38.224239" lon="-1.621929">
        <ele>400.5</ele>
        <time>2017-02-25T13:46:35Z</time>
      </trkpt>
      <trkpt lat="38.224288" lon="-1.621959">
        <ele>401.0</ele>
        <time>2017-02-25T13:46:40Z</time>
      </trkpt>
      <trkpt lat="38.224308" lon="-1.621996">
        <ele>401.0</ele>
        <time>2017-02-25T13:46:43Z</time>
      </trkpt>
      <trkpt lat="38.224326" lon="-1.622004">
        <ele>401.0</ele>
        <time>2017-02-25T13:46:45Z</time>
      </trkpt>
      <trkpt lat="38.224427" lon="-1.622044">
        <ele>402.0</ele>
        <time>2017-02-25T13:46:56Z</time>
      </trkpt>
      <trkpt lat="38.224448" lon="-1.622055">
        <ele>402.5</ele>
        <time>2017-02-25T13:46:58Z</time>
      </trkpt>
      <trkpt lat="38.224497" lon="-1.622084">
        <ele>402.5</ele>
        <time>2017-02-25T13:47:03Z</time>
      </trkpt>
      <trkpt lat="38.224539" lon="-1.622117">
        <ele>402.5</ele>
        <time>2017-02-25T13:47:08Z</time>
      </trkpt>
      <trkpt lat="38.224649" lon="-1.622239">
        <ele>403.4</ele>
        <time>2017-02-25T13:47:22Z</time>
      </trkpt>
      <trkpt lat="38.224691" lon="-1.622307">
        <ele>403.4</ele>
        <time>2017-02-25T13:47:30Z</time>
      </trkpt>
      <trkpt lat="38.224702" lon="-1.622380">
        <ele>403.4</ele>
        <time>2017-02-25T13:47:35Z</time>
      </trkpt>
      <trkpt lat="38.224696" lon="-1.622526">
        <ele>403.9</ele>
        <time>2017-02-25T13:47:48Z</time>
      </trkpt>
      <trkpt lat="38.224676" lon="-1.622556">
        <ele>403.9</ele>
        <time>2017-02-25T13:47:51Z</time>
      </trkpt>
      <trkpt lat="38.224606" lon="-1.622563">
        <ele>403.9</ele>
        <time>2017-02-25T13:47:59Z</time>
      </trkpt>
      <trkpt lat="38.224447" lon="-1.622450">
        <ele>403.4</ele>
        <time>2017-02-25T13:48:14Z</time>
      </trkpt>
      <trkpt lat="38.224433" lon="-1.622451">
        <ele>403.4</ele>
        <time>2017-02-25T13:48:15Z</time>
      </trkpt>
      <trkpt lat="38.224296" lon="-1.622659">
        <ele>404.4</ele>
        <time>2017-02-25T13:48:32Z</time>
      </trkpt>
      <trkpt lat="38.224289" lon="-1.622686">
        <ele>403.9</ele>
        <time>2017-02-25T13:48:34Z</time>
      </trkpt>
      <trkpt lat="38.224275" lon="-1.622775">
        <ele>404.4</ele>
        <time>2017-02-25T13:48:39Z</time>
      </trkpt>
      <trkpt lat="38.224271" lon="-1.622834">
        <ele>405.3</ele>
        <time>2017-02-25T13:48:43Z</time>
      </trkpt>
      <trkpt lat="38.224228" lon="-1.622947">
        <ele>405.8</ele>
        <time>2017-02-25T13:48:52Z</time>
      </trkpt>
      <trkpt lat="38.224198" lon="-1.622966">
        <ele>405.8</ele>
        <time>2017-02-25T13:48:55Z</time>
      </trkpt>
      <trkpt lat="38.224176" lon="-1.622987">
        <ele>405.8</ele>
        <time>2017-02-25T13:48:58Z</time>
      </trkpt>
      <trkpt lat="38.224103" lon="-1.623035">
        <ele>406.3</ele>
        <time>2017-02-25T13:49:11Z</time>
      </trkpt>
      <trkpt lat="38.224094" lon="-1.623039">
        <ele>406.3</ele>
        <time>2017-02-25T13:49:14Z</time>
      </trkpt>
      <trkpt lat="38.224021" lon="-1.623102">
        <ele>406.3</ele>
        <time>2017-02-25T13:49:21Z</time>
      </trkpt>
      <trkpt lat="38.223995" lon="-1.623138">
        <ele>406.8</ele>
        <time>2017-02-25T13:49:24Z</time>
      </trkpt>
      <trkpt lat="38.223957" lon="-1.623199">
        <ele>407.3</ele>
        <time>2017-02-25T13:49:29Z</time>
      </trkpt>
      <trkpt lat="38.223879" lon="-1.623367">
        <ele>408.2</ele>
        <time>2017-02-25T13:49:43Z</time>
      </trkpt>
      <trkpt lat="38.223773" lon="-1.623416">
        <ele>408.7</ele>
        <time>2017-02-25T13:49:53Z</time>
      </trkpt>
      <trkpt lat="38.223640" lon="-1.623447">
        <ele>409.7</ele>
        <time>2017-02-25T13:50:04Z</time>
      </trkpt>
      <trkpt lat="38.223571" lon="-1.623548">
        <ele>410.6</ele>
        <time>2017-02-25T13:50:12Z</time>
      </trkpt>
      <trkpt lat="38.223569" lon="-1.623595">
        <ele>410.6</ele>
        <time>2017-02-25T13:50:15Z</time>
      </trkpt>
      <trkpt lat="38.223572" lon="-1.623654">
        <ele>410.6</ele>
        <time>2017-02-25T13:50:19Z</time>
      </trkpt>
      <trkpt lat="38.223593" lon="-1.623712">
        <ele>411.6</ele>
        <time>2017-02-25T13:50:23Z</time>
      </trkpt>
      <trkpt lat="38.223621" lon="-1.623786">
        <ele>411.6</ele>
        <time>2017-02-25T13:50:29Z</time>
      </trkpt>
      <trkpt lat="38.223648" lon="-1.623855">
        <ele>411.6</ele>
        <time>2017-02-25T13:50:34Z</time>
      </trkpt>
      <trkpt lat="38.223683" lon="-1.623919">
        <ele>412.5</ele>
        <time>2017-02-25T13:50:40Z</time>
      </trkpt>
      <trkpt lat="38.223744" lon="-1.623961">
        <ele>413.0</ele>
        <time>2017-02-25T13:50:46Z</time>
      </trkpt>
      <trkpt lat="38.223836" lon="-1.623989">
        <ele>413.0</ele>
        <time>2017-02-25T13:50:54Z</time>
      </trkpt>
      <trkpt lat="38.223851" lon="-1.624003">
        <ele>413.0</ele>
        <time>2017-02-25T13:50:56Z</time>
      </trkpt>
      <trkpt lat="38.223871" lon="-1.624018">
        <ele>413.5</ele>
        <time>2017-02-25T13:50:58Z</time>
      </trkpt>
      <trkpt lat="38.223985" lon="-1.624130">
        <ele>413.5</ele>
        <time>2017-02-25T13:51:13Z</time>
      </trkpt>
      <trkpt lat="38.224005" lon="-1.624153">
        <ele>413.5</ele>
        <time>2017-02-25T13:51:17Z</time>
      </trkpt>
      <trkpt lat="38.224018" lon="-1.624178">
        <ele>414.0</ele>
        <time>2017-02-25T13:51:19Z</time>
      </trkpt>
      <trkpt lat="38.224050" lon="-1.624225">
        <ele>414.5</ele>
        <time>2017-02-25T13:51:32Z</time>
      </trkpt>
      <trkpt lat="38.224087" lon="-1.624306">
        <ele>415.0</ele>
        <time>2017-02-25T13:51:38Z</time>
      </trkpt>
      <trkpt lat="38.224132" lon="-1.624374">
        <ele>415.0</ele>
        <time>2017-02-25T13:51:44Z</time>
      </trkpt>
      <trkpt lat="38.224233" lon="-1.624442">
        <ele>415.9</ele>
        <time>2017-02-25T13:51:57Z</time>
      </trkpt>
      <trkpt lat="38.224240" lon="-1.624447">
        <ele>415.9</ele>
        <time>2017-02-25T13:51:58Z</time>
      </trkpt>
      <trkpt lat="38.224271" lon="-1.624455">
        <ele>415.4</ele>
        <time>2017-02-25T13:52:01Z</time>
      </trkpt>
      <trkpt lat="38.224414" lon="-1.624549">
        <ele>415.0</ele>
        <time>2017-02-25T13:52:16Z</time>
      </trkpt>
      <trkpt lat="38.224420" lon="-1.624640">
        <ele>415.0</ele>
        <time>2017-02-25T13:52:25Z</time>
      </trkpt>
      <trkpt lat="38.224377" lon="-1.624638">
        <ele>415.0</ele>
        <time>2017-02-25T13:52:29Z</time>
      </trkpt>
      <trkpt lat="38.224166" lon="-1.624605">
        <ele>415.4</ele>
        <time>2017-02-25T13:52:47Z</time>
      </trkpt>
      <trkpt lat="38.224119" lon="-1.624602">
        <ele>415.4</ele>
        <time>2017-02-25T13:52:51Z</time>
      </trkpt>
      <trkpt lat="38.223991" lon="-1.624563">
        <ele>416.4</ele>
        <time>2017-02-25T13:53:03Z</time>
      </trkpt>
      <trkpt lat="38.223943" lon="-1.624558">
        <ele>416.4</ele>
        <time>2017-02-25T13:53:07Z</time>
      </trkpt>
      <trkpt lat="38.223835" lon="-1.624591">
        <ele>416.9</ele>
        <time>2017-02-25T13:53:16Z</time>
      </trkpt>
      <trkpt lat="38.223825" lon="-1.624618">
        <ele>416.9</ele>
        <time>2017-02-25T13:53:18Z</time>
      </trkpt>
      <trkpt lat="38.223817" lon="-1.624872">
        <ele>417.4</ele>
        <time>2017-02-25T13:53:33Z</time>
      </trkpt>
      <trkpt lat="38.223835" lon="-1.625018">
        <ele>418.3</ele>
        <time>2017-02-25T13:53:42Z</time>
      </trkpt>
      <trkpt lat="38.223830" lon="-1.625060">
        <ele>418.8</ele>
        <time>2017-02-25T13:53:45Z</time>
      </trkpt>
      <trkpt lat="38.223838" lon="-1.625087">
        <ele>419.3</ele>
        <time>2017-02-25T13:53:47Z</time>
      </trkpt>
      <trkpt lat="38.223840" lon="-1.625156">
        <ele>419.3</ele>
        <time>2017-02-25T13:53:55Z</time>
      </trkpt>
      <trkpt lat="38.223818" lon="-1.625188">
        <ele>419.3</ele>
        <time>2017-02-25T13:53:58Z</time>
      </trkpt>
      <trkpt lat="38.223693" lon="-1.625234">
        <ele>420.2</ele>
        <time>2017-02-25T13:54:11Z</time>
      </trkpt>
      <trkpt lat="38.223647" lon="-1.625239">
        <ele>420.7</ele>
        <time>2017-02-25T13:54:16Z</time>
      </trkpt>
      <trkpt lat="38.223559" lon="-1.625210">
        <ele>420.7</ele>
        <time>2017-02-25T13:54:23Z</time>
      </trkpt>
      <trkpt lat="38.223428" lon="-1.625294">
        <ele>422.2</ele>
        <time>2017-02-25T13:54:47Z</time>
      </trkpt>
      <trkpt lat="38.223358" lon="-1.625400">
        <ele>422.6</ele>
        <time>2017-02-25T13:55:01Z</time>
      </trkpt>
      <trkpt lat="38.223325" lon="-1.625451">
        <ele>422.6</ele>
        <time>2017-02-25T13:55:10Z</time>
      </trkpt>
      <trkpt lat="38.223279" lon="-1.625529">
        <ele>422.6</ele>
        <time>2017-02-25T13:55:18Z</time>
      </trkpt>
      <trkpt lat="38.223272" lon="-1.625554">
        <ele>423.6</ele>
        <time>2017-02-25T13:58:09Z</time>
      </trkpt>
      <trkpt lat="38.223246" lon="-1.625586">
        <ele>423.1</ele>
        <time>2017-02-25T13:58:16Z</time>
      </trkpt>
      <trkpt lat="38.223158" lon="-1.625721">
        <ele>424.1</ele>
        <time>2017-02-25T13:58:29Z</time>
      </trkpt>
      <trkpt lat="38.223115" lon="-1.625786">
        <ele>424.6</ele>
        <time>2017-02-25T13:58:35Z</time>
      </trkpt>
      <trkpt lat="38.223045" lon="-1.625899">
        <ele>425.0</ele>
        <time>2017-02-25T13:58:48Z</time>
      </trkpt>
      <trkpt lat="38.222957" lon="-1.625964">
        <ele>424.6</ele>
        <time>2017-02-25T13:59:00Z</time>
      </trkpt>
      <trkpt lat="38.222885" lon="-1.626042">
        <ele>425.5</ele>
        <time>2017-02-25T13:59:12Z</time>
      </trkpt>
      <trkpt lat="38.222863" lon="-1.626076">
        <ele>426.0</ele>
        <time>2017-02-25T13:59:16Z</time>
      </trkpt>
      <trkpt lat="38.222816" lon="-1.626225">
        <ele>426.0</ele>
        <time>2017-02-25T13:59:30Z</time>
      </trkpt>
      <trkpt lat="38.222794" lon="-1.626364">
        <ele>427.4</ele>
        <time>2017-02-25T13:59:44Z</time>
      </trkpt>
      <trkpt lat="38.222773" lon="-1.626510">
        <ele>427.9</ele>
        <time>2017-02-25T13:59:58Z</time>
      </trkpt>
      <trkpt lat="38.222765" lon="-1.626647">
        <ele>428.9</ele>
        <time>2017-02-25T14:00:12Z</time>
      </trkpt>
      <trkpt lat="38.222708" lon="-1.626711">
        <ele>429.4</ele>
        <time>2017-02-25T14:00:24Z</time>
      </trkpt>
      <trkpt lat="38.222689" lon="-1.626720">
        <ele>429.4</ele>
        <time>2017-02-25T14:00:26Z</time>
      </trkpt>
      <trkpt lat="38.222671" lon="-1.626724">
        <ele>429.4</ele>
        <time>2017-02-25T14:00:28Z</time>
      </trkpt>
      <trkpt lat="38.222558" lon="-1.626781">
        <ele>429.9</ele>
        <time>2017-02-25T14:00:42Z</time>
      </trkpt>
      <trkpt lat="38.222451" lon="-1.626834">
        <ele>431.3</ele>
        <time>2017-02-25T14:00:55Z</time>
      </trkpt>
      <trkpt lat="38.222418" lon="-1.626850">
        <ele>431.3</ele>
        <time>2017-02-25T14:00:59Z</time>
      </trkpt>
      <trkpt lat="38.222297" lon="-1.626941">
        <ele>432.2</ele>
        <time>2017-02-25T14:01:14Z</time>
      </trkpt>
      <trkpt lat="38.222229" lon="-1.627161">
        <ele>433.2</ele>
        <time>2017-02-25T14:01:30Z</time>
      </trkpt>
      <trkpt lat="38.222167" lon="-1.627468">
        <ele>433.2</ele>
        <time>2017-02-25T14:01:49Z</time>
      </trkpt>
      <trkpt lat="38.222139" lon="-1.627570">
        <ele>433.2</ele>
        <time>2017-02-25T14:01:56Z</time>
      </trkpt>
      <trkpt lat="38.222110" lon="-1.627655">
        <ele>433.2</ele>
        <time>2017-02-25T14:02:02Z</time>
      </trkpt>
      <trkpt lat="38.222018" lon="-1.627908">
        <ele>434.2</ele>
        <time>2017-02-25T14:02:18Z</time>
      </trkpt>
      <trkpt lat="38.221958" lon="-1.628147">
        <ele>434.6</ele>
        <time>2017-02-25T14:02:33Z</time>
      </trkpt>
      <trkpt lat="38.221932" lon="-1.628325">
        <ele>434.6</ele>
        <time>2017-02-25T14:02:47Z</time>
      </trkpt>
      <trkpt lat="38.221942" lon="-1.628613">
        <ele>435.6</ele>
        <time>2017-02-25T14:03:03Z</time>
      </trkpt>
      <trkpt lat="38.221883" lon="-1.628827">
        <ele>436.1</ele>
        <time>2017-02-25T14:03:19Z</time>
      </trkpt>
      <trkpt lat="38.221794" lon="-1.629050">
        <ele>436.1</ele>
        <time>2017-02-25T14:03:34Z</time>
      </trkpt>
      <trkpt lat="38.221704" lon="-1.629269">
        <ele>436.1</ele>
        <time>2017-02-25T14:03:49Z</time>
      </trkpt>
      <trkpt lat="38.221709" lon="-1.629475">
        <ele>436.6</ele>
        <time>2017-02-25T14:04:03Z</time>
      </trkpt>
      <trkpt lat="38.221736" lon="-1.629673">
        <ele>438.5</ele>
        <time>2017-02-25T14:04:16Z</time>
      </trkpt>
      <trkpt lat="38.221734" lon="-1.629713">
        <ele>437.5</ele>
        <time>2017-02-25T14:04:18Z</time>
      </trkpt>
      <trkpt lat="38.221746" lon="-1.629845">
        <ele>437.1</ele>
        <time>2017-02-25T14:04:25Z</time>
      </trkpt>
      <trkpt lat="38.221763" lon="-1.629893">
        <ele>437.1</ele>
        <time>2017-02-25T14:04:30Z</time>
      </trkpt>
      <trkpt lat="38.221803" lon="-1.630090">
        <ele>438.5</ele>
        <time>2017-02-25T14:04:41Z</time>
      </trkpt>
      <trkpt lat="38.221814" lon="-1.630136">
        <ele>438.5</ele>
        <time>2017-02-25T14:04:50Z</time>
      </trkpt>
      <trkpt lat="38.221840" lon="-1.630238">
        <ele>438.5</ele>
        <time>2017-02-25T14:04:57Z</time>
      </trkpt>
      <trkpt lat="38.221900" lon="-1.630475">
        <ele>438.5</ele>
        <time>2017-02-25T14:05:12Z</time>
      </trkpt>
      <trkpt lat="38.221922" lon="-1.630649">
        <ele>438.5</ele>
        <time>2017-02-25T14:05:24Z</time>
      </trkpt>
      <trkpt lat="38.221976" lon="-1.630936">
        <ele>439.0</ele>
        <time>2017-02-25T14:05:42Z</time>
      </trkpt>
      <trkpt lat="38.221973" lon="-1.630993">
        <ele>439.0</ele>
        <time>2017-02-25T14:05:46Z</time>
      </trkpt>
      <trkpt lat="38.221992" lon="-1.631054">
        <ele>438.5</ele>
        <time>2017-02-25T14:05:50Z</time>
      </trkpt>
      <trkpt lat="38.221998" lon="-1.631166">
        <ele>439.5</ele>
        <time>2017-02-25T14:05:57Z</time>
      </trkpt>
      <trkpt lat="38.222006" lon="-1.631234">
        <ele>438.5</ele>
        <time>2017-02-25T14:06:01Z</time>
      </trkpt>
      <trkpt lat="38.222020" lon="-1.631326">
        <ele>438.0</ele>
        <time>2017-02-25T14:06:06Z</time>
      </trkpt>
      <trkpt lat="38.222020" lon="-1.631371">
        <ele>439.5</ele>
        <time>2017-02-25T14:06:09Z</time>
      </trkpt>
      <trkpt lat="38.222017" lon="-1.631445">
        <ele>441.4</ele>
        <time>2017-02-25T14:06:14Z</time>
      </trkpt>
      <trkpt lat="38.222021" lon="-1.631459">
        <ele>438.0</ele>
        <time>2017-02-25T14:06:15Z</time>
      </trkpt>
      <trkpt lat="38.222024" lon="-1.631475">
        <ele>441.4</ele>
        <time>2017-02-25T14:06:16Z</time>
      </trkpt>
      <trkpt lat="38.222022" lon="-1.631521">
        <ele>439.0</ele>
        <time>2017-02-25T14:06:19Z</time>
      </trkpt>
      <trkpt lat="38.222009" lon="-1.631567">
        <ele>439.0</ele>
        <time>2017-02-25T14:06:22Z</time>
      </trkpt>
      <trkpt lat="38.221887" lon="-1.631819">
        <ele>437.5</ele>
        <time>2017-02-25T14:06:40Z</time>
      </trkpt>
      <trkpt lat="38.221767" lon="-1.632100">
        <ele>439.5</ele>
        <time>2017-02-25T14:06:59Z</time>
      </trkpt>
      <trkpt lat="38.221744" lon="-1.632348">
        <ele>439.9</ele>
        <time>2017-02-25T14:07:15Z</time>
      </trkpt>
      <trkpt lat="38.221746" lon="-1.632394">
        <ele>439.5</ele>
        <time>2017-02-25T14:07:18Z</time>
      </trkpt>
      <trkpt lat="38.221692" lon="-1.632636">
        <ele>439.9</ele>
        <time>2017-02-25T14:07:34Z</time>
      </trkpt>
      <trkpt lat="38.221711" lon="-1.632888">
        <ele>440.4</ele>
        <time>2017-02-25T14:07:49Z</time>
      </trkpt>
      <trkpt lat="38.221727" lon="-1.633184">
        <ele>440.4</ele>
        <time>2017-02-25T14:08:07Z</time>
      </trkpt>
      <trkpt lat="38.221714" lon="-1.633277">
        <ele>439.9</ele>
        <time>2017-02-25T14:08:13Z</time>
      </trkpt>
      <trkpt lat="38.221676" lon="-1.633599">
        <ele>440.9</ele>
        <time>2017-02-25T14:08:32Z</time>
      </trkpt>
      <trkpt lat="38.221655" lon="-1.633857">
        <ele>441.4</ele>
        <time>2017-02-25T14:08:48Z</time>
      </trkpt>
      <trkpt lat="38.221669" lon="-1.633966">
        <ele>441.9</ele>
        <time>2017-02-25T14:08:54Z</time>
      </trkpt>
      <trkpt lat="38.221663" lon="-1.634086">
        <ele>443.3</ele>
        <time>2017-02-25T14:09:02Z</time>
      </trkpt>
      <trkpt lat="38.221672" lon="-1.634232">
        <ele>442.3</ele>
        <time>2017-02-25T14:09:11Z</time>
      </trkpt>
      <trkpt lat="38.221754" lon="-1.634511">
        <ele>442.8</ele>
        <time>2017-02-25T14:09:29Z</time>
      </trkpt>
      <trkpt lat="38.221770" lon="-1.634553">
        <ele>442.8</ele>
        <time>2017-02-25T14:09:32Z</time>
      </trkpt>
      <trkpt lat="38.221777" lon="-1.634640">
        <ele>443.3</ele>
        <time>2017-02-25T14:09:38Z</time>
      </trkpt>
      <trkpt lat="38.221784" lon="-1.634686">
        <ele>443.3</ele>
        <time>2017-02-25T14:09:41Z</time>
      </trkpt>
      <trkpt lat="38.221773" lon="-1.634777">
        <ele>444.3</ele>
        <time>2017-02-25T14:09:47Z</time>
      </trkpt>
      <trkpt lat="38.221766" lon="-1.634840">
        <ele>444.3</ele>
        <time>2017-02-25T14:09:51Z</time>
      </trkpt>
      <trkpt lat="38.221768" lon="-1.634903">
        <ele>444.3</ele>
        <time>2017-02-25T14:09:55Z</time>
      </trkpt>
      <trkpt lat="38.221762" lon="-1.635090">
        <ele>445.2</ele>
        <time>2017-02-25T14:10:07Z</time>
      </trkpt>
      <trkpt lat="38.221765" lon="-1.635173">
        <ele>445.2</ele>
        <time>2017-02-25T14:10:13Z</time>
      </trkpt>
      <trkpt lat="38.221770" lon="-1.635211">
        <ele>445.7</ele>
        <time>2017-02-25T14:10:16Z</time>
      </trkpt>
      <trkpt lat="38.221734" lon="-1.635448">
        <ele>446.2</ele>
        <time>2017-02-25T14:10:32Z</time>
      </trkpt>
      <trkpt lat="38.221739" lon="-1.635674">
        <ele>447.1</ele>
        <time>2017-02-25T14:10:46Z</time>
      </trkpt>
      <trkpt lat="38.221744" lon="-1.635720">
        <ele>448.1</ele>
        <time>2017-02-25T14:10:49Z</time>
      </trkpt>
      <trkpt lat="38.221788" lon="-1.635808">
        <ele>448.1</ele>
        <time>2017-02-25T14:10:55Z</time>
      </trkpt>
      <trkpt lat="38.221857" lon="-1.635935">
        <ele>448.6</ele>
        <time>2017-02-25T14:11:06Z</time>
      </trkpt>
      <trkpt lat="38.221849" lon="-1.635955">
        <ele>448.6</ele>
        <time>2017-02-25T14:11:08Z</time>
      </trkpt>
      <trkpt lat="38.221835" lon="-1.635984">
        <ele>448.6</ele>
        <time>2017-02-25T14:11:11Z</time>
      </trkpt>
      <trkpt lat="38.221819" lon="-1.635992">
        <ele>448.6</ele>
        <time>2017-02-25T14:11:13Z</time>
      </trkpt>
      <trkpt lat="38.221802" lon="-1.636009">
        <ele>449.1</ele>
        <time>2017-02-25T14:11:15Z</time>
      </trkpt>
      <trkpt lat="38.221768" lon="-1.636038">
        <ele>450.0</ele>
        <time>2017-02-25T14:11:19Z</time>
      </trkpt>
      <trkpt lat="38.221683" lon="-1.636152">
        <ele>451.0</ele>
        <time>2017-02-25T14:11:29Z</time>
      </trkpt>
      <trkpt lat="38.221669" lon="-1.636208">
        <ele>451.0</ele>
        <time>2017-02-25T14:11:44Z</time>
      </trkpt>
      <trkpt lat="38.221668" lon="-1.636221">
        <ele>451.0</ele>
        <time>2017-02-25T14:11:46Z</time>
      </trkpt>
      <trkpt lat="38.221655" lon="-1.636300">
        <ele>452.0</ele>
        <time>2017-02-25T14:11:51Z</time>
      </trkpt>
      <trkpt lat="38.221632" lon="-1.636436">
        <ele>453.4</ele>
        <time>2017-02-25T14:11:59Z</time>
      </trkpt>
      <trkpt lat="38.221630" lon="-1.636472">
        <ele>452.4</ele>
        <time>2017-02-25T14:12:01Z</time>
      </trkpt>
      <trkpt lat="38.221600" lon="-1.636649">
        <ele>453.4</ele>
        <time>2017-02-25T14:12:11Z</time>
      </trkpt>
      <trkpt lat="38.221610" lon="-1.636908">
        <ele>454.4</ele>
        <time>2017-02-25T14:14:45Z</time>
      </trkpt>
      <trkpt lat="38.221597" lon="-1.637065">
        <ele>454.8</ele>
        <time>2017-02-25T14:14:55Z</time>
      </trkpt>
      <trkpt lat="38.221599" lon="-1.637269">
        <ele>454.8</ele>
        <time>2017-02-25T14:15:11Z</time>
      </trkpt>
      <trkpt lat="38.221599" lon="-1.637308">
        <ele>454.8</ele>
        <time>2017-02-25T14:15:14Z</time>
      </trkpt>
      <trkpt lat="38.221607" lon="-1.637362">
        <ele>455.3</ele>
        <time>2017-02-25T14:15:18Z</time>
      </trkpt>
      <trkpt lat="38.221612" lon="-1.637655">
        <ele>454.4</ele>
        <time>2017-02-25T14:15:37Z</time>
      </trkpt>
      <trkpt lat="38.221635" lon="-1.637898">
        <ele>454.4</ele>
        <time>2017-02-25T14:15:53Z</time>
      </trkpt>
      <trkpt lat="38.221635" lon="-1.637933">
        <ele>454.8</ele>
        <time>2017-02-25T14:15:55Z</time>
      </trkpt>
      <trkpt lat="38.221645" lon="-1.638071">
        <ele>455.3</ele>
        <time>2017-02-25T14:16:04Z</time>
      </trkpt>
      <trkpt lat="38.221648" lon="-1.638097">
        <ele>455.3</ele>
        <time>2017-02-25T14:16:06Z</time>
      </trkpt>
      <trkpt lat="38.221679" lon="-1.638227">
        <ele>454.8</ele>
        <time>2017-02-25T14:16:15Z</time>
      </trkpt>
      <trkpt lat="38.221701" lon="-1.638263">
        <ele>454.4</ele>
        <time>2017-02-25T14:16:32Z</time>
      </trkpt>
      <trkpt lat="38.221696" lon="-1.638320">
        <ele>454.8</ele>
        <time>2017-02-25T14:16:39Z</time>
      </trkpt>
      <trkpt lat="38.221706" lon="-1.638483">
        <ele>454.8</ele>
        <time>2017-02-25T14:16:53Z</time>
      </trkpt>
      <trkpt lat="38.221706" lon="-1.638486">
        <ele>454.8</ele>
        <time>2017-02-25T14:17:02Z</time>
      </trkpt>
      <trkpt lat="38.221694" lon="-1.638539">
        <ele>454.8</ele>
        <time>2017-02-25T14:17:07Z</time>
      </trkpt>
      <trkpt lat="38.221679" lon="-1.638600">
        <ele>455.3</ele>
        <time>2017-02-25T14:17:12Z</time>
      </trkpt>
      <trkpt lat="38.221684" lon="-1.638647">
        <ele>455.3</ele>
        <time>2017-02-25T14:17:15Z</time>
      </trkpt>
      <trkpt lat="38.221684" lon="-1.638866">
        <ele>455.3</ele>
        <time>2017-02-25T14:17:31Z</time>
      </trkpt>
      <trkpt lat="38.221682" lon="-1.639083">
        <ele>455.3</ele>
        <time>2017-02-25T14:17:45Z</time>
      </trkpt>
      <trkpt lat="38.221703" lon="-1.639233">
        <ele>455.8</ele>
        <time>2017-02-25T14:17:58Z</time>
      </trkpt>
      <trkpt lat="38.221715" lon="-1.639354">
        <ele>456.3</ele>
        <time>2017-02-25T14:18:08Z</time>
      </trkpt>
      <trkpt lat="38.221712" lon="-1.639392">
        <ele>456.3</ele>
        <time>2017-02-25T14:18:11Z</time>
      </trkpt>
      <trkpt lat="38.221740" lon="-1.639465">
        <ele>456.3</ele>
        <time>2017-02-25T14:18:16Z</time>
      </trkpt>
      <trkpt lat="38.221761" lon="-1.639643">
        <ele>456.3</ele>
        <time>2017-02-25T14:18:28Z</time>
      </trkpt>
      <trkpt lat="38.221783" lon="-1.639698">
        <ele>455.8</ele>
        <time>2017-02-25T14:18:32Z</time>
      </trkpt>
      <trkpt lat="38.221824" lon="-1.639956">
        <ele>455.8</ele>
        <time>2017-02-25T14:18:50Z</time>
      </trkpt>
      <trkpt lat="38.221883" lon="-1.640218">
        <ele>455.3</ele>
        <time>2017-02-25T14:19:07Z</time>
      </trkpt>
      <trkpt lat="38.221939" lon="-1.640435">
        <ele>455.3</ele>
        <time>2017-02-25T14:19:22Z</time>
      </trkpt>
      <trkpt lat="38.221969" lon="-1.640571">
        <ele>454.4</ele>
        <time>2017-02-25T14:19:30Z</time>
      </trkpt>
      <trkpt lat="38.221976" lon="-1.640601">
        <ele>455.8</ele>
        <time>2017-02-25T14:19:32Z</time>
      </trkpt>
      <trkpt lat="38.221991" lon="-1.640681">
        <ele>454.8</ele>
        <time>2017-02-25T14:19:42Z</time>
      </trkpt>
      <trkpt lat="38.222000" lon="-1.640759">
        <ele>454.4</ele>
        <time>2017-02-25T14:19:50Z</time>
      </trkpt>
      <trkpt lat="38.222027" lon="-1.640974">
        <ele>451.5</ele>
        <time>2017-02-25T14:20:01Z</time>
      </trkpt>
      <trkpt lat="38.222028" lon="-1.640992">
        <ele>454.4</ele>
        <time>2017-02-25T14:20:02Z</time>
      </trkpt>
      <trkpt lat="38.222031" lon="-1.641013">
        <ele>457.7</ele>
        <time>2017-02-25T14:20:03Z</time>
      </trkpt>
      <trkpt lat="38.222036" lon="-1.641031">
        <ele>454.4</ele>
        <time>2017-02-25T14:20:04Z</time>
      </trkpt>
      <trkpt lat="38.222068" lon="-1.641269">
        <ele>454.4</ele>
        <time>2017-02-25T14:20:17Z</time>
      </trkpt>
      <trkpt lat="38.222085" lon="-1.641554">
        <ele>453.9</ele>
        <time>2017-02-25T14:20:34Z</time>
      </trkpt>
      <trkpt lat="38.222083" lon="-1.641756">
        <ele>453.9</ele>
        <time>2017-02-25T14:20:48Z</time>
      </trkpt>
      <trkpt lat="38.222076" lon="-1.642031">
        <ele>452.9</ele>
        <time>2017-02-25T14:21:06Z</time>
      </trkpt>
      <trkpt lat="38.222071" lon="-1.642310">
        <ele>452.0</ele>
        <time>2017-02-25T14:21:23Z</time>
      </trkpt>
      <trkpt lat="38.222056" lon="-1.642562">
        <ele>452.4</ele>
        <time>2017-02-25T14:21:39Z</time>
      </trkpt>
      <trkpt lat="38.222054" lon="-1.642788">
        <ele>452.4</ele>
        <time>2017-02-25T14:21:52Z</time>
      </trkpt>
      <trkpt lat="38.222062" lon="-1.643084">
        <ele>452.9</ele>
        <time>2017-02-25T14:22:09Z</time>
      </trkpt>
      <trkpt lat="38.222062" lon="-1.643219">
        <ele>453.9</ele>
        <time>2017-02-25T14:22:17Z</time>
      </trkpt>
      <trkpt lat="38.222064" lon="-1.643460">
        <ele>453.9</ele>
        <time>2017-02-25T14:22:32Z</time>
      </trkpt>
      <trkpt lat="38.222060" lon="-1.643683">
        <ele>453.4</ele>
        <time>2017-02-25T14:22:46Z</time>
      </trkpt>
      <trkpt lat="38.222031" lon="-1.643926">
        <ele>452.9</ele>
        <time>2017-02-25T14:23:02Z</time>
      </trkpt>
      <trkpt lat="38.221980" lon="-1.644158">
        <ele>452.9</ele>
        <time>2017-02-25T14:23:17Z</time>
      </trkpt>
      <trkpt lat="38.221969" lon="-1.644419">
        <ele>452.9</ele>
        <time>2017-02-25T14:23:33Z</time>
      </trkpt>
      <trkpt lat="38.221926" lon="-1.644670">
        <ele>452.4</ele>
        <time>2017-02-25T14:23:48Z</time>
      </trkpt>
      <trkpt lat="38.221905" lon="-1.644734">
        <ele>455.3</ele>
        <time>2017-02-25T14:23:52Z</time>
      </trkpt>
      <trkpt lat="38.221899" lon="-1.644746">
        <ele>453.9</ele>
        <time>2017-02-25T14:23:53Z</time>
      </trkpt>
      <trkpt lat="38.221892" lon="-1.644753">
        <ele>452.4</ele>
        <time>2017-02-25T14:23:54Z</time>
      </trkpt>
      <trkpt lat="38.221855" lon="-1.644826">
        <ele>454.4</ele>
        <time>2017-02-25T14:23:59Z</time>
      </trkpt>
      <trkpt lat="38.221839" lon="-1.644863">
        <ele>454.4</ele>
        <time>2017-02-25T14:24:04Z</time>
      </trkpt>
      <trkpt lat="38.221777" lon="-1.645101">
        <ele>458.7</ele>
        <time>2017-02-25T14:24:17Z</time>
      </trkpt>
      <trkpt lat="38.221775" lon="-1.645119">
        <ele>455.8</ele>
        <time>2017-02-25T14:24:18Z</time>
      </trkpt>
      <trkpt lat="38.221745" lon="-1.645362">
        <ele>455.3</ele>
        <time>2017-02-25T14:24:32Z</time>
      </trkpt>
      <trkpt lat="38.221744" lon="-1.645481">
        <ele>456.3</ele>
        <time>2017-02-25T14:24:39Z</time>
      </trkpt>
      <trkpt lat="38.221733" lon="-1.645779">
        <ele>456.8</ele>
        <time>2017-02-25T14:24:57Z</time>
      </trkpt>
      <trkpt lat="38.221719" lon="-1.646088">
        <ele>458.2</ele>
        <time>2017-02-25T14:25:15Z</time>
      </trkpt>
      <trkpt lat="38.221722" lon="-1.646175">
        <ele>457.7</ele>
        <time>2017-02-25T14:25:21Z</time>
      </trkpt>
      <trkpt lat="38.221729" lon="-1.646257">
        <ele>457.7</ele>
        <time>2017-02-25T14:25:25Z</time>
      </trkpt>
      <trkpt lat="38.221726" lon="-1.646421">
        <ele>457.7</ele>
        <time>2017-02-25T14:25:34Z</time>
      </trkpt>
      <trkpt lat="38.221752" lon="-1.646648">
        <ele>458.7</ele>
        <time>2017-02-25T14:25:48Z</time>
      </trkpt>
      <trkpt lat="38.221751" lon="-1.646682">
        <ele>458.7</ele>
        <time>2017-02-25T14:25:50Z</time>
      </trkpt>
      <trkpt lat="38.221755" lon="-1.646747">
        <ele>459.2</ele>
        <time>2017-02-25T14:25:54Z</time>
      </trkpt>
      <trkpt lat="38.221773" lon="-1.646886">
        <ele>458.7</ele>
        <time>2017-02-25T14:26:02Z</time>
      </trkpt>
      <trkpt lat="38.221808" lon="-1.647112">
        <ele>458.7</ele>
        <time>2017-02-25T14:26:16Z</time>
      </trkpt>
      <trkpt lat="38.221809" lon="-1.647128">
        <ele>458.7</ele>
        <time>2017-02-25T14:26:17Z</time>
      </trkpt>
      <trkpt lat="38.221847" lon="-1.647200">
        <ele>459.2</ele>
        <time>2017-02-25T14:26:22Z</time>
      </trkpt>
      <trkpt lat="38.221877" lon="-1.647285">
        <ele>459.6</ele>
        <time>2017-02-25T14:26:28Z</time>
      </trkpt>
      <trkpt lat="38.221946" lon="-1.647475">
        <ele>461.1</ele>
        <time>2017-02-25T14:26:41Z</time>
      </trkpt>
      <trkpt lat="38.221958" lon="-1.647524">
        <ele>461.6</ele>
        <time>2017-02-25T14:26:45Z</time>
      </trkpt>
      <trkpt lat="38.221973" lon="-1.647549">
        <ele>461.6</ele>
        <time>2017-02-25T14:26:47Z</time>
      </trkpt>
      <trkpt lat="38.221996" lon="-1.647618">
        <ele>462.0</ele>
        <time>2017-02-25T14:26:52Z</time>
      </trkpt>
      <trkpt lat="38.222030" lon="-1.647800">
        <ele>463.0</ele>
        <time>2017-02-25T14:27:04Z</time>
      </trkpt>
      <trkpt lat="38.222032" lon="-1.647815">
        <ele>463.5</ele>
        <time>2017-02-25T14:27:05Z</time>
      </trkpt>
      <trkpt lat="38.222044" lon="-1.647856">
        <ele>463.5</ele>
        <time>2017-02-25T14:27:08Z</time>
      </trkpt>
      <trkpt lat="38.222043" lon="-1.647884">
        <ele>463.0</ele>
        <time>2017-02-25T14:27:10Z</time>
      </trkpt>
      <trkpt lat="38.222057" lon="-1.647921">
        <ele>463.5</ele>
        <time>2017-02-25T14:27:13Z</time>
      </trkpt>
      <trkpt lat="38.222053" lon="-1.647979">
        <ele>464.0</ele>
        <time>2017-02-25T14:27:17Z</time>
      </trkpt>
      <trkpt lat="38.222058" lon="-1.648010">
        <ele>463.5</ele>
        <time>2017-02-25T14:27:19Z</time>
      </trkpt>
      <trkpt lat="38.222052" lon="-1.648052">
        <ele>464.0</ele>
        <time>2017-02-25T14:27:22Z</time>
      </trkpt>
      <trkpt lat="38.222060" lon="-1.648076">
        <ele>464.5</ele>
        <time>2017-02-25T14:27:24Z</time>
      </trkpt>
      <trkpt lat="38.222047" lon="-1.648131">
        <ele>464.5</ele>
        <time>2017-02-25T14:27:28Z</time>
      </trkpt>
      <trkpt lat="38.222033" lon="-1.648269">
        <ele>464.9</ele>
        <time>2017-02-25T14:27:37Z</time>
      </trkpt>
      <trkpt lat="38.222029" lon="-1.648341">
        <ele>465.4</ele>
        <time>2017-02-25T14:27:42Z</time>
      </trkpt>
      <trkpt lat="38.222031" lon="-1.648371">
        <ele>465.9</ele>
        <time>2017-02-25T14:27:44Z</time>
      </trkpt>
      <trkpt lat="38.222024" lon="-1.648402">
        <ele>465.9</ele>
        <time>2017-02-25T14:27:46Z</time>
      </trkpt>
      <trkpt lat="38.222030" lon="-1.648456">
        <ele>465.9</ele>
        <time>2017-02-25T14:27:50Z</time>
      </trkpt>
      <trkpt lat="38.222024" lon="-1.648484">
        <ele>466.4</ele>
        <time>2017-02-25T14:27:52Z</time>
      </trkpt>
      <trkpt lat="38.222019" lon="-1.648631">
        <ele>466.9</ele>
        <time>2017-02-25T14:28:02Z</time>
      </trkpt>
      <trkpt lat="38.222021" lon="-1.648692">
        <ele>466.9</ele>
        <time>2017-02-25T14:28:06Z</time>
      </trkpt>
      <trkpt lat="38.222021" lon="-1.648720">
        <ele>467.3</ele>
        <time>2017-02-25T14:28:08Z</time>
      </trkpt>
      <trkpt lat="38.222029" lon="-1.648791">
        <ele>467.3</ele>
        <time>2017-02-25T14:28:13Z</time>
      </trkpt>
      <trkpt lat="38.222040" lon="-1.648917">
        <ele>468.3</ele>
        <time>2017-02-25T14:28:23Z</time>
      </trkpt>
      <trkpt lat="38.222039" lon="-1.648973">
        <ele>468.8</ele>
        <time>2017-02-25T14:28:26Z</time>
      </trkpt>
      <trkpt lat="38.222092" lon="-1.649177">
        <ele>469.7</ele>
        <time>2017-02-25T14:28:39Z</time>
      </trkpt>
      <trkpt lat="38.222139" lon="-1.649279">
        <ele>470.2</ele>
        <time>2017-02-25T14:28:49Z</time>
      </trkpt>
      <trkpt lat="38.222155" lon="-1.649298">
        <ele>470.7</ele>
        <time>2017-02-25T14:28:51Z</time>
      </trkpt>
      <trkpt lat="38.222189" lon="-1.649383">
        <ele>471.2</ele>
        <time>2017-02-25T14:28:57Z</time>
      </trkpt>
      <trkpt lat="38.222230" lon="-1.649443">
        <ele>471.7</ele>
        <time>2017-02-25T14:29:03Z</time>
      </trkpt>
      <trkpt lat="38.222244" lon="-1.649462">
        <ele>471.7</ele>
        <time>2017-02-25T14:29:05Z</time>
      </trkpt>
      <trkpt lat="38.222266" lon="-1.649524">
        <ele>472.6</ele>
        <time>2017-02-25T14:29:10Z</time>
      </trkpt>
      <trkpt lat="38.222318" lon="-1.649630">
        <ele>473.6</ele>
        <time>2017-02-25T14:29:20Z</time>
      </trkpt>
      <trkpt lat="38.222338" lon="-1.649683">
        <ele>474.1</ele>
        <time>2017-02-25T14:29:24Z</time>
      </trkpt>
      <trkpt lat="38.222381" lon="-1.649762">
        <ele>474.5</ele>
        <time>2017-02-25T14:29:31Z</time>
      </trkpt>
      <trkpt lat="38.222390" lon="-1.649790">
        <ele>474.5</ele>
        <time>2017-02-25T14:29:33Z</time>
      </trkpt>
      <trkpt lat="38.222413" lon="-1.649821">
        <ele>475.0</ele>
        <time>2017-02-25T14:29:36Z</time>
      </trkpt>
      <trkpt lat="38.222455" lon="-1.649902">
        <ele>476.0</ele>
        <time>2017-02-25T14:29:43Z</time>
      </trkpt>
      <trkpt lat="38.222540" lon="-1.650015">
        <ele>477.0</ele>
        <time>2017-02-25T14:29:55Z</time>
      </trkpt>
      <trkpt lat="38.222630" lon="-1.650095">
        <ele>477.9</ele>
        <time>2017-02-25T14:30:05Z</time>
      </trkpt>
      <trkpt lat="38.222657" lon="-1.650122">
        <ele>478.4</ele>
        <time>2017-02-25T14:30:08Z</time>
      </trkpt>
      <trkpt lat="38.222698" lon="-1.650152">
        <ele>478.4</ele>
        <time>2017-02-25T14:30:12Z</time>
      </trkpt>
      <trkpt lat="38.222793" lon="-1.650250">
        <ele>478.4</ele>
        <time>2017-02-25T14:30:25Z</time>
      </trkpt>
      <trkpt lat="38.222830" lon="-1.650322">
        <ele>479.8</ele>
        <time>2017-02-25T14:30:35Z</time>
      </trkpt>
      <trkpt lat="38.222830" lon="-1.650377">
        <ele>480.3</ele>
        <time>2017-02-25T14:30:42Z</time>
      </trkpt>
      <trkpt lat="38.222816" lon="-1.650513">
        <ele>481.8</ele>
        <time>2017-02-25T14:30:55Z</time>
      </trkpt>
      <trkpt lat="38.222811" lon="-1.650589">
        <ele>481.8</ele>
        <time>2017-02-25T14:31:01Z</time>
      </trkpt>
      <trkpt lat="38.222823" lon="-1.650761">
        <ele>482.2</ele>
        <time>2017-02-25T14:31:15Z</time>
      </trkpt>
      <trkpt lat="38.222830" lon="-1.650816">
        <ele>482.7</ele>
        <time>2017-02-25T14:31:21Z</time>
      </trkpt>
      <trkpt lat="38.222842" lon="-1.650844">
        <ele>482.7</ele>
        <time>2017-02-25T14:31:23Z</time>
      </trkpt>
      <trkpt lat="38.222844" lon="-1.650869">
        <ele>482.7</ele>
        <time>2017-02-25T14:31:25Z</time>
      </trkpt>
      <trkpt lat="38.222872" lon="-1.650963">
        <ele>483.7</ele>
        <time>2017-02-25T14:31:33Z</time>
      </trkpt>
      <trkpt lat="38.222883" lon="-1.650990">
        <ele>483.7</ele>
        <time>2017-02-25T14:31:35Z</time>
      </trkpt>
      <trkpt lat="38.222891" lon="-1.651032">
        <ele>484.2</ele>
        <time>2017-02-25T14:31:38Z</time>
      </trkpt>
      <trkpt lat="38.222924" lon="-1.651143">
        <ele>485.1</ele>
        <time>2017-02-25T14:31:48Z</time>
      </trkpt>
      <trkpt lat="38.222969" lon="-1.651325">
        <ele>485.6</ele>
        <time>2017-02-25T14:32:02Z</time>
      </trkpt>
      <trkpt lat="38.222990" lon="-1.651360">
        <ele>486.6</ele>
        <time>2017-02-25T14:32:06Z</time>
      </trkpt>
      <trkpt lat="38.223005" lon="-1.651482">
        <ele>486.6</ele>
        <time>2017-02-25T14:32:14Z</time>
      </trkpt>
      <trkpt lat="38.222999" lon="-1.651580">
        <ele>487.0</ele>
        <time>2017-02-25T14:32:20Z</time>
      </trkpt>
      <trkpt lat="38.222990" lon="-1.651605">
        <ele>487.0</ele>
        <time>2017-02-25T14:32:22Z</time>
      </trkpt>
      <trkpt lat="38.222987" lon="-1.651628">
        <ele>487.0</ele>
        <time>2017-02-25T14:32:26Z</time>
      </trkpt>
      <trkpt lat="38.222955" lon="-1.651710">
        <ele>487.5</ele>
        <time>2017-02-25T14:32:41Z</time>
      </trkpt>
      <trkpt lat="38.222939" lon="-1.651756">
        <ele>488.5</ele>
        <time>2017-02-25T14:33:34Z</time>
      </trkpt>
      <trkpt lat="38.222983" lon="-1.651936">
        <ele>488.0</ele>
        <time>2017-02-25T14:33:48Z</time>
      </trkpt>
      <trkpt lat="38.223000" lon="-1.651973">
        <ele>488.0</ele>
        <time>2017-02-25T14:33:51Z</time>
      </trkpt>
      <trkpt lat="38.223115" lon="-1.652127">
        <ele>489.0</ele>
        <time>2017-02-25T14:34:05Z</time>
      </trkpt>
      <trkpt lat="38.223125" lon="-1.652150">
        <ele>489.0</ele>
        <time>2017-02-25T14:34:07Z</time>
      </trkpt>
      <trkpt lat="38.223155" lon="-1.652294">
        <ele>489.9</ele>
        <time>2017-02-25T14:34:19Z</time>
      </trkpt>
      <trkpt lat="38.223155" lon="-1.652409">
        <ele>490.9</ele>
        <time>2017-02-25T14:34:29Z</time>
      </trkpt>
      <trkpt lat="38.223158" lon="-1.652578">
        <ele>491.4</ele>
        <time>2017-02-25T14:34:43Z</time>
      </trkpt>
      <trkpt lat="38.223141" lon="-1.652669">
        <ele>491.9</ele>
        <time>2017-02-25T14:34:50Z</time>
      </trkpt>
      <trkpt lat="38.223172" lon="-1.652845">
        <ele>493.3</ele>
        <time>2017-02-25T14:35:04Z</time>
      </trkpt>
      <trkpt lat="38.223238" lon="-1.653004">
        <ele>494.3</ele>
        <time>2017-02-25T14:35:18Z</time>
      </trkpt>
      <trkpt lat="38.223317" lon="-1.653127">
        <ele>495.2</ele>
        <time>2017-02-25T14:35:30Z</time>
      </trkpt>
      <trkpt lat="38.223358" lon="-1.653192">
        <ele>495.2</ele>
        <time>2017-02-25T14:35:37Z</time>
      </trkpt>
      <trkpt lat="38.223383" lon="-1.653241">
        <ele>495.7</ele>
        <time>2017-02-25T14:35:41Z</time>
      </trkpt>
      <trkpt lat="38.223409" lon="-1.653374">
        <ele>496.7</ele>
        <time>2017-02-25T14:35:55Z</time>
      </trkpt>
      <trkpt lat="38.223427" lon="-1.653577">
        <ele>495.7</ele>
        <time>2017-02-25T14:36:10Z</time>
      </trkpt>
      <trkpt lat="38.223461" lon="-1.653811">
        <ele>495.2</ele>
        <time>2017-02-25T14:36:27Z</time>
      </trkpt>
      <trkpt lat="38.223474" lon="-1.653865">
        <ele>494.3</ele>
        <time>2017-02-25T14:36:31Z</time>
      </trkpt>
      <trkpt lat="38.223481" lon="-1.653909">
        <ele>496.7</ele>
        <time>2017-02-25T14:36:34Z</time>
      </trkpt>
      <trkpt lat="38.223529" lon="-1.654066">
        <ele>495.2</ele>
        <time>2017-02-25T14:36:45Z</time>
      </trkpt>
      <trkpt lat="38.223624" lon="-1.654313">
        <ele>494.7</ele>
        <time>2017-02-25T14:37:03Z</time>
      </trkpt>
      <trkpt lat="38.223647" lon="-1.654406">
        <ele>495.2</ele>
        <time>2017-02-25T14:37:10Z</time>
      </trkpt>
      <trkpt lat="38.223732" lon="-1.654605">
        <ele>495.2</ele>
        <time>2017-02-25T14:37:25Z</time>
      </trkpt>
      <trkpt lat="38.223754" lon="-1.654639">
        <ele>494.7</ele>
        <time>2017-02-25T14:37:28Z</time>
      </trkpt>
      <trkpt lat="38.223920" lon="-1.654816">
        <ele>493.8</ele>
        <time>2017-02-25T14:37:46Z</time>
      </trkpt>
      <trkpt lat="38.224071" lon="-1.655003">
        <ele>493.3</ele>
        <time>2017-02-25T14:38:04Z</time>
      </trkpt>
      <trkpt lat="38.224078" lon="-1.655022">
        <ele>492.8</ele>
        <time>2017-02-25T14:38:06Z</time>
      </trkpt>
      <trkpt lat="38.224092" lon="-1.655214">
        <ele>491.4</ele>
        <time>2017-02-25T14:38:21Z</time>
      </trkpt>
      <trkpt lat="38.224094" lon="-1.655225">
        <ele>491.4</ele>
        <time>2017-02-25T14:38:22Z</time>
      </trkpt>
      <trkpt lat="38.224092" lon="-1.655426">
        <ele>490.9</ele>
        <time>2017-02-25T14:38:37Z</time>
      </trkpt>
      <trkpt lat="38.224056" lon="-1.655608">
        <ele>489.0</ele>
        <time>2017-02-25T14:38:50Z</time>
      </trkpt>
      <trkpt lat="38.224015" lon="-1.655841">
        <ele>487.5</ele>
        <time>2017-02-25T14:39:07Z</time>
      </trkpt>
      <trkpt lat="38.223993" lon="-1.656094">
        <ele>486.6</ele>
        <time>2017-02-25T14:39:24Z</time>
      </trkpt>
      <trkpt lat="38.224007" lon="-1.656326">
        <ele>485.1</ele>
        <time>2017-02-25T14:39:39Z</time>
      </trkpt>
      <trkpt lat="38.224039" lon="-1.656379">
        <ele>484.2</ele>
        <time>2017-02-25T14:39:43Z</time>
      </trkpt>
      <trkpt lat="38.224085" lon="-1.656432">
        <ele>484.6</ele>
        <time>2017-02-25T14:39:48Z</time>
      </trkpt>
      <trkpt lat="38.224238" lon="-1.656518">
        <ele>484.6</ele>
        <time>2017-02-25T14:40:02Z</time>
      </trkpt>
      <trkpt lat="38.224319" lon="-1.656472">
        <ele>484.2</ele>
        <time>2017-02-25T14:40:09Z</time>
      </trkpt>
      <trkpt lat="38.224479" lon="-1.656367">
        <ele>483.7</ele>
        <time>2017-02-25T14:40:25Z</time>
      </trkpt>
      <trkpt lat="38.224484" lon="-1.656353">
        <ele>483.2</ele>
        <time>2017-02-25T14:40:27Z</time>
      </trkpt>
      <trkpt lat="38.224572" lon="-1.656274">
        <ele>482.7</ele>
        <time>2017-02-25T14:40:35Z</time>
      </trkpt>
      <trkpt lat="38.224670" lon="-1.656348">
        <ele>483.2</ele>
        <time>2017-02-25T14:40:45Z</time>
      </trkpt>
      <trkpt lat="38.224680" lon="-1.656407">
        <ele>482.7</ele>
        <time>2017-02-25T14:40:50Z</time>
      </trkpt>
      <trkpt lat="38.224702" lon="-1.656456">
        <ele>483.2</ele>
        <time>2017-02-25T14:40:54Z</time>
      </trkpt>
      <trkpt lat="38.224733" lon="-1.656634">
        <ele>482.7</ele>
        <time>2017-02-25T14:41:06Z</time>
      </trkpt>
      <trkpt lat="38.224728" lon="-1.656749">
        <ele>482.2</ele>
        <time>2017-02-25T14:41:14Z</time>
      </trkpt>
      <trkpt lat="38.224713" lon="-1.656999">
        <ele>482.2</ele>
        <time>2017-02-25T14:41:30Z</time>
      </trkpt>
      <trkpt lat="38.224758" lon="-1.657218">
        <ele>481.8</ele>
        <time>2017-02-25T14:41:44Z</time>
      </trkpt>
      <trkpt lat="38.224754" lon="-1.657336">
        <ele>482.2</ele>
        <time>2017-02-25T14:41:52Z</time>
      </trkpt>
      <trkpt lat="38.224756" lon="-1.657534">
        <ele>481.3</ele>
        <time>2017-02-25T14:42:05Z</time>
      </trkpt>
      <trkpt lat="38.224757" lon="-1.657576">
        <ele>481.8</ele>
        <time>2017-02-25T14:42:08Z</time>
      </trkpt>
      <trkpt lat="38.224792" lon="-1.657865">
        <ele>481.3</ele>
        <time>2017-02-25T14:42:26Z</time>
      </trkpt>
      <trkpt lat="38.224807" lon="-1.657907">
        <ele>481.3</ele>
        <time>2017-02-25T14:42:29Z</time>
      </trkpt>
      <trkpt lat="38.224863" lon="-1.658034">
        <ele>480.3</ele>
        <time>2017-02-25T14:42:39Z</time>
      </trkpt>
      <trkpt lat="38.224863" lon="-1.658104">
        <ele>481.3</ele>
        <time>2017-02-25T14:42:44Z</time>
      </trkpt>
      <trkpt lat="38.224886" lon="-1.658351">
        <ele>479.8</ele>
        <time>2017-02-25T14:43:01Z</time>
      </trkpt>
      <trkpt lat="38.224954" lon="-1.658556">
        <ele>479.4</ele>
        <time>2017-02-25T14:43:15Z</time>
      </trkpt>
      <trkpt lat="38.225007" lon="-1.658651">
        <ele>479.8</ele>
        <time>2017-02-25T14:43:22Z</time>
      </trkpt>
      <trkpt lat="38.225138" lon="-1.658802">
        <ele>480.3</ele>
        <time>2017-02-25T14:43:37Z</time>
      </trkpt>
      <trkpt lat="38.225198" lon="-1.658878">
        <ele>479.8</ele>
        <time>2017-02-25T14:43:45Z</time>
      </trkpt>
      <trkpt lat="38.225273" lon="-1.659095">
        <ele>478.4</ele>
        <time>2017-02-25T14:44:03Z</time>
      </trkpt>
      <trkpt lat="38.225269" lon="-1.659357">
        <ele>477.9</ele>
        <time>2017-02-25T14:44:21Z</time>
      </trkpt>
      <trkpt lat="38.225363" lon="-1.659634">
        <ele>477.4</ele>
        <time>2017-02-25T14:44:41Z</time>
      </trkpt>
      <trkpt lat="38.225409" lon="-1.659697">
        <ele>477.4</ele>
        <time>2017-02-25T14:44:47Z</time>
      </trkpt>
      <trkpt lat="38.225573" lon="-1.659872">
        <ele>477.0</ele>
        <time>2017-02-25T14:45:04Z</time>
      </trkpt>
      <trkpt lat="38.225599" lon="-1.659941">
        <ele>477.0</ele>
        <time>2017-02-25T14:45:09Z</time>
      </trkpt>
      <trkpt lat="38.225503" lon="-1.660150">
        <ele>476.0</ele>
        <time>2017-02-25T14:45:27Z</time>
      </trkpt>
      <trkpt lat="38.225483" lon="-1.660317">
        <ele>475.0</ele>
        <time>2017-02-25T14:45:39Z</time>
      </trkpt>
      <trkpt lat="38.225531" lon="-1.660576">
        <ele>474.1</ele>
        <time>2017-02-25T14:45:58Z</time>
      </trkpt>
      <trkpt lat="38.225570" lon="-1.660760">
        <ele>474.1</ele>
        <time>2017-02-25T14:46:13Z</time>
      </trkpt>
      <trkpt lat="38.225575" lon="-1.660814">
        <ele>474.1</ele>
        <time>2017-02-25T14:46:17Z</time>
      </trkpt>
      <trkpt lat="38.225598" lon="-1.660926">
        <ele>473.6</ele>
        <time>2017-02-25T14:46:25Z</time>
      </trkpt>
      <trkpt lat="38.225657" lon="-1.661136">
        <ele>473.1</ele>
        <time>2017-02-25T14:46:42Z</time>
      </trkpt>
      <trkpt lat="38.225642" lon="-1.661273">
        <ele>472.6</ele>
        <time>2017-02-25T14:46:59Z</time>
      </trkpt>
      <trkpt lat="38.225641" lon="-1.661419">
        <ele>472.1</ele>
        <time>2017-02-25T14:47:16Z</time>
      </trkpt>
      <trkpt lat="38.225730" lon="-1.661649">
        <ele>472.1</ele>
        <time>2017-02-25T14:47:34Z</time>
      </trkpt>
      <trkpt lat="38.225872" lon="-1.662087">
        <ele>470.7</ele>
        <time>2017-02-25T14:48:07Z</time>
      </trkpt>
      <trkpt lat="38.225872" lon="-1.662157">
        <ele>470.7</ele>
        <time>2017-02-25T14:48:12Z</time>
      </trkpt>
      <trkpt lat="38.225965" lon="-1.662351">
        <ele>470.2</ele>
        <time>2017-02-25T14:48:29Z</time>
      </trkpt>
      <trkpt lat="38.225964" lon="-1.662373">
        <ele>470.2</ele>
        <time>2017-02-25T14:48:33Z</time>
      </trkpt>
      <trkpt lat="38.225919" lon="-1.662464">
        <ele>469.3</ele>
        <time>2017-02-25T14:48:42Z</time>
      </trkpt>
      <trkpt lat="38.225810" lon="-1.662670">
        <ele>468.3</ele>
        <time>2017-02-25T14:49:00Z</time>
      </trkpt>
      <trkpt lat="38.225786" lon="-1.662717">
        <ele>467.8</ele>
        <time>2017-02-25T14:49:04Z</time>
      </trkpt>
      <trkpt lat="38.225776" lon="-1.662777">
        <ele>467.3</ele>
        <time>2017-02-25T14:49:09Z</time>
      </trkpt>
      <trkpt lat="38.225770" lon="-1.662802">
        <ele>467.3</ele>
        <time>2017-02-25T14:49:11Z</time>
      </trkpt>
      <trkpt lat="38.225777" lon="-1.662874">
        <ele>466.9</ele>
        <time>2017-02-25T14:49:16Z</time>
      </trkpt>
      <trkpt lat="38.225809" lon="-1.663145">
        <ele>465.4</ele>
        <time>2017-02-25T14:49:33Z</time>
      </trkpt>
      <trkpt lat="38.225768" lon="-1.663458">
        <ele>464.0</ele>
        <time>2017-02-25T14:49:52Z</time>
      </trkpt>
      <trkpt lat="38.225758" lon="-1.663692">
        <ele>460.6</ele>
        <time>2017-02-25T14:50:07Z</time>
      </trkpt>
      <trkpt lat="38.225760" lon="-1.663708">
        <ele>461.6</ele>
        <time>2017-02-25T14:50:08Z</time>
      </trkpt>
      <trkpt lat="38.225786" lon="-1.663822">
        <ele>462.0</ele>
        <time>2017-02-25T14:50:19Z</time>
      </trkpt>
      <trkpt lat="38.225834" lon="-1.663979">
        <ele>461.6</ele>
        <time>2017-02-25T14:50:33Z</time>
      </trkpt>
      <trkpt lat="38.225882" lon="-1.664068">
        <ele>462.0</ele>
        <time>2017-02-25T14:50:40Z</time>
      </trkpt>
      <trkpt lat="38.225910" lon="-1.664213">
        <ele>460.1</ele>
        <time>2017-02-25T14:52:01Z</time>
      </trkpt>
      <trkpt lat="38.225916" lon="-1.664553">
        <ele>458.7</ele>
        <time>2017-02-25T14:52:20Z</time>
      </trkpt>
      <trkpt lat="38.225977" lon="-1.664797">
        <ele>457.2</ele>
        <time>2017-02-25T14:52:34Z</time>
      </trkpt>
      <trkpt lat="38.226106" lon="-1.664873">
        <ele>455.8</ele>
        <time>2017-02-25T14:52:44Z</time>
      </trkpt>
      <trkpt lat="38.226324" lon="-1.664905">
        <ele>454.4</ele>
        <time>2017-02-25T14:52:59Z</time>
      </trkpt>
      <trkpt lat="38.226435" lon="-1.664955">
        <ele>453.9</ele>
        <time>2017-02-25T14:53:08Z</time>
      </trkpt>
      <trkpt lat="38.226493" lon="-1.664996">
        <ele>453.9</ele>
        <time>2017-02-25T14:53:13Z</time>
      </trkpt>
      <trkpt lat="38.226555" lon="-1.665058">
        <ele>452.9</ele>
        <time>2017-02-25T14:53:19Z</time>
      </trkpt>
      <trkpt lat="38.226588" lon="-1.665194">
        <ele>451.5</ele>
        <time>2017-02-25T14:53:28Z</time>
      </trkpt>
      <trkpt lat="38.226609" lon="-1.665385">
        <ele>450.5</ele>
        <time>2017-02-25T14:53:40Z</time>
      </trkpt>
      <trkpt lat="38.226657" lon="-1.665484">
        <ele>450.5</ele>
        <time>2017-02-25T14:53:47Z</time>
      </trkpt>
      <trkpt lat="38.226693" lon="-1.665537">
        <ele>448.1</ele>
        <time>2017-02-25T14:53:51Z</time>
      </trkpt>
      <trkpt lat="38.226786" lon="-1.665764">
        <ele>448.6</ele>
        <time>2017-02-25T14:54:06Z</time>
      </trkpt>
      <trkpt lat="38.226905" lon="-1.665933">
        <ele>447.1</ele>
        <time>2017-02-25T14:54:19Z</time>
      </trkpt>
      <trkpt lat="38.226905" lon="-1.666187">
        <ele>445.7</ele>
        <time>2017-02-25T14:54:35Z</time>
      </trkpt>
      <trkpt lat="38.226906" lon="-1.666244">
        <ele>445.7</ele>
        <time>2017-02-25T14:54:39Z</time>
      </trkpt>
      <trkpt lat="38.226942" lon="-1.666314">
        <ele>445.7</ele>
        <time>2017-02-25T14:54:43Z</time>
      </trkpt>
      <trkpt lat="38.226928" lon="-1.666513">
        <ele>444.3</ele>
        <time>2017-02-25T14:54:55Z</time>
      </trkpt>
      <trkpt lat="38.226909" lon="-1.666541">
        <ele>444.3</ele>
        <time>2017-02-25T14:54:57Z</time>
      </trkpt>
      <trkpt lat="38.226805" lon="-1.666803">
        <ele>442.8</ele>
        <time>2017-02-25T14:55:14Z</time>
      </trkpt>
      <trkpt lat="38.226798" lon="-1.666882">
        <ele>441.4</ele>
        <time>2017-02-25T14:55:18Z</time>
      </trkpt>
      <trkpt lat="38.226897" lon="-1.667169">
        <ele>440.4</ele>
        <time>2017-02-25T14:55:36Z</time>
      </trkpt>
      <trkpt lat="38.226905" lon="-1.667191">
        <ele>440.4</ele>
        <time>2017-02-25T14:55:40Z</time>
      </trkpt>
      <trkpt lat="38.226985" lon="-1.667395">
        <ele>438.5</ele>
        <time>2017-02-25T14:55:54Z</time>
      </trkpt>
      <trkpt lat="38.227063" lon="-1.667690">
        <ele>437.1</ele>
        <time>2017-02-25T14:56:11Z</time>
      </trkpt>
      <trkpt lat="38.227130" lon="-1.667937">
        <ele>434.6</ele>
        <time>2017-02-25T14:56:26Z</time>
      </trkpt>
      <trkpt lat="38.227169" lon="-1.668181">
        <ele>432.2</ele>
        <time>2017-02-25T14:56:40Z</time>
      </trkpt>
      <trkpt lat="38.227163" lon="-1.668340">
        <ele>431.3</ele>
        <time>2017-02-25T14:56:53Z</time>
      </trkpt>
      <trkpt lat="38.227268" lon="-1.668439">
        <ele>430.3</ele>
        <time>2017-02-25T14:57:02Z</time>
      </trkpt>
      <trkpt lat="38.227349" lon="-1.668602">
        <ele>428.9</ele>
        <time>2017-02-25T14:57:17Z</time>
      </trkpt>
      <trkpt lat="38.227460" lon="-1.668836">
        <ele>427.0</ele>
        <time>2017-02-25T14:57:33Z</time>
      </trkpt>
      <trkpt lat="38.227527" lon="-1.669045">
        <ele>427.0</ele>
        <time>2017-02-25T14:57:46Z</time>
      </trkpt>
      <trkpt lat="38.227523" lon="-1.669065">
        <ele>427.0</ele>
        <time>2017-02-25T14:57:47Z</time>
      </trkpt>
      <trkpt lat="38.227414" lon="-1.669115">
        <ele>425.5</ele>
        <time>2017-02-25T14:57:56Z</time>
      </trkpt>
      <trkpt lat="38.227308" lon="-1.669240">
        <ele>425.0</ele>
        <time>2017-02-25T14:58:08Z</time>
      </trkpt>
      <trkpt lat="38.227270" lon="-1.669571">
        <ele>422.6</ele>
        <time>2017-02-25T14:58:26Z</time>
      </trkpt>
      <trkpt lat="38.227231" lon="-1.669645">
        <ele>422.2</ele>
        <time>2017-02-25T14:58:37Z</time>
      </trkpt>
      <trkpt lat="38.227035" lon="-1.669795">
        <ele>420.2</ele>
        <time>2017-02-25T14:58:53Z</time>
      </trkpt>
      <trkpt lat="38.226884" lon="-1.669833">
        <ele>418.3</ele>
        <time>2017-02-25T14:59:05Z</time>
      </trkpt>
      <trkpt lat="38.226847" lon="-1.670067">
        <ele>415.9</ele>
        <time>2017-02-25T14:59:21Z</time>
      </trkpt>
      <trkpt lat="38.226842" lon="-1.670164">
        <ele>415.0</ele>
        <time>2017-02-25T14:59:27Z</time>
      </trkpt>
      <trkpt lat="38.226861" lon="-1.670269">
        <ele>414.5</ele>
        <time>2017-02-25T14:59:33Z</time>
      </trkpt>
      <trkpt lat="38.226879" lon="-1.670394">
        <ele>414.5</ele>
        <time>2017-02-25T14:59:40Z</time>
      </trkpt>
      <trkpt lat="38.227021" lon="-1.670596">
        <ele>412.5</ele>
        <time>2017-02-25T14:59:58Z</time>
      </trkpt>
      <trkpt lat="38.227077" lon="-1.670574">
        <ele>412.5</ele>
        <time>2017-02-25T15:00:03Z</time>
      </trkpt>
      <trkpt lat="38.227240" lon="-1.670465">
        <ele>411.1</ele>
        <time>2017-02-25T15:00:15Z</time>
      </trkpt>
      <trkpt lat="38.227338" lon="-1.670559">
        <ele>409.7</ele>
        <time>2017-02-25T15:00:28Z</time>
      </trkpt>
      <trkpt lat="38.227328" lon="-1.670559">
        <ele>410.1</ele>
        <time>2017-02-25T15:00:32Z</time>
      </trkpt>
      <trkpt lat="38.227305" lon="-1.670727">
        <ele>409.2</ele>
        <time>2017-02-25T15:00:46Z</time>
      </trkpt>
      <trkpt lat="38.227257" lon="-1.671017">
        <ele>406.8</ele>
        <time>2017-02-25T15:01:03Z</time>
      </trkpt>
      <trkpt lat="38.227187" lon="-1.671300">
        <ele>404.9</ele>
        <time>2017-02-25T15:01:19Z</time>
      </trkpt>
      <trkpt lat="38.227194" lon="-1.671326">
        <ele>404.9</ele>
        <time>2017-02-25T15:01:28Z</time>
      </trkpt>
      <trkpt lat="38.227255" lon="-1.671454">
        <ele>404.4</ele>
        <time>2017-02-25T15:01:39Z</time>
      </trkpt>
      <trkpt lat="38.227290" lon="-1.671502">
        <ele>403.9</ele>
        <time>2017-02-25T15:01:43Z</time>
      </trkpt>
      <trkpt lat="38.227368" lon="-1.671695">
        <ele>402.5</ele>
        <time>2017-02-25T15:01:59Z</time>
      </trkpt>
      <trkpt lat="38.227373" lon="-1.671712">
        <ele>402.0</ele>
        <time>2017-02-25T15:02:03Z</time>
      </trkpt>
      <trkpt lat="38.227455" lon="-1.671864">
        <ele>401.0</ele>
        <time>2017-02-25T15:02:14Z</time>
      </trkpt>
      <trkpt lat="38.227484" lon="-1.671972">
        <ele>400.5</ele>
        <time>2017-02-25T15:02:21Z</time>
      </trkpt>
      <trkpt lat="38.227485" lon="-1.672248">
        <ele>399.6</ele>
        <time>2017-02-25T15:02:38Z</time>
      </trkpt>
      <trkpt lat="38.227419" lon="-1.672459">
        <ele>397.6</ele>
        <time>2017-02-25T15:02:53Z</time>
      </trkpt>
      <trkpt lat="38.227284" lon="-1.672651">
        <ele>396.7</ele>
        <time>2017-02-25T15:03:09Z</time>
      </trkpt>
      <trkpt lat="38.227278" lon="-1.672750">
        <ele>396.2</ele>
        <time>2017-02-25T15:03:20Z</time>
      </trkpt>
      <trkpt lat="38.227294" lon="-1.672856">
        <ele>395.7</ele>
        <time>2017-02-25T15:03:30Z</time>
      </trkpt>
      <trkpt lat="38.227316" lon="-1.672939">
        <ele>395.2</ele>
        <time>2017-02-25T15:03:35Z</time>
      </trkpt>
      <trkpt lat="38.227370" lon="-1.672991">
        <ele>394.3</ele>
        <time>2017-02-25T15:03:41Z</time>
      </trkpt>
      <trkpt lat="38.227567" lon="-1.672908">
        <ele>393.3</ele>
        <time>2017-02-25T15:03:58Z</time>
      </trkpt>
      <trkpt lat="38.227569" lon="-1.672908">
        <ele>392.8</ele>
        <time>2017-02-25T15:03:59Z</time>
      </trkpt>
      <trkpt lat="38.227604" lon="-1.672883">
        <ele>392.8</ele>
        <time>2017-02-25T15:04:12Z</time>
      </trkpt>
      <trkpt lat="38.227871" lon="-1.672853">
        <ele>390.4</ele>
        <time>2017-02-25T15:04:31Z</time>
      </trkpt>
      <trkpt lat="38.227883" lon="-1.672852">
        <ele>390.9</ele>
        <time>2017-02-25T15:04:32Z</time>
      </trkpt>
      <trkpt lat="38.227905" lon="-1.672866">
        <ele>390.9</ele>
        <time>2017-02-25T15:04:37Z</time>
      </trkpt>
      <trkpt lat="38.227940" lon="-1.672952">
        <ele>390.4</ele>
        <time>2017-02-25T15:04:43Z</time>
      </trkpt>
      <trkpt lat="38.227959" lon="-1.673195">
        <ele>388.5</ele>
        <time>2017-02-25T15:04:58Z</time>
      </trkpt>
      <trkpt lat="38.228036" lon="-1.673485">
        <ele>386.6</ele>
        <time>2017-02-25T15:05:14Z</time>
      </trkpt>
      <trkpt lat="38.228057" lon="-1.673665">
        <ele>385.6</ele>
        <time>2017-02-25T15:05:46Z</time>
      </trkpt>
      <trkpt lat="38.228026" lon="-1.673721">
        <ele>386.1</ele>
        <time>2017-02-25T15:05:56Z</time>
      </trkpt>
      <trkpt lat="38.227921" lon="-1.673937">
        <ele>383.2</ele>
        <time>2017-02-25T15:06:12Z</time>
      </trkpt>
      <trkpt lat="38.227834" lon="-1.674100">
        <ele>382.7</ele>
        <time>2017-02-25T15:06:25Z</time>
      </trkpt>
      <trkpt lat="38.227640" lon="-1.674211">
        <ele>380.8</ele>
        <time>2017-02-25T15:06:42Z</time>
      </trkpt>
      <trkpt lat="38.227505" lon="-1.674411">
        <ele>379.4</ele>
        <time>2017-02-25T15:06:58Z</time>
      </trkpt>
      <trkpt lat="38.227433" lon="-1.674681">
        <ele>377.9</ele>
        <time>2017-02-25T15:07:15Z</time>
      </trkpt>
      <trkpt lat="38.227334" lon="-1.674953">
        <ele>376.0</ele>
        <time>2017-02-25T15:07:34Z</time>
      </trkpt>
      <trkpt lat="38.227301" lon="-1.675188">
        <ele>375.0</ele>
        <time>2017-02-25T15:07:49Z</time>
      </trkpt>
      <trkpt lat="38.227285" lon="-1.675325">
        <ele>373.6</ele>
        <time>2017-02-25T15:07:58Z</time>
      </trkpt>
      <trkpt lat="38.227289" lon="-1.675388">
        <ele>373.6</ele>
        <time>2017-02-25T15:08:02Z</time>
      </trkpt>
      <trkpt lat="38.227250" lon="-1.675653">
        <ele>372.2</ele>
        <time>2017-02-25T15:08:20Z</time>
      </trkpt>
      <trkpt lat="38.227206" lon="-1.675900">
        <ele>370.2</ele>
        <time>2017-02-25T15:08:36Z</time>
      </trkpt>
      <trkpt lat="38.227184" lon="-1.676028">
        <ele>369.3</ele>
        <time>2017-02-25T15:08:45Z</time>
      </trkpt>
      <trkpt lat="38.227188" lon="-1.676293">
        <ele>367.8</ele>
        <time>2017-02-25T15:09:02Z</time>
      </trkpt>
      <trkpt lat="38.227252" lon="-1.676512">
        <ele>366.9</ele>
        <time>2017-02-25T15:09:18Z</time>
      </trkpt>
      <trkpt lat="38.227314" lon="-1.676716">
        <ele>365.4</ele>
        <time>2017-02-25T15:09:33Z</time>
      </trkpt>
      <trkpt lat="38.227398" lon="-1.676941">
        <ele>363.0</ele>
        <time>2017-02-25T15:09:49Z</time>
      </trkpt>
      <trkpt lat="38.227438" lon="-1.677068">
        <ele>362.5</ele>
        <time>2017-02-25T15:09:59Z</time>
      </trkpt>
      <trkpt lat="38.227492" lon="-1.677333">
        <ele>361.6</ele>
        <time>2017-02-25T15:10:16Z</time>
      </trkpt>
      <trkpt lat="38.227520" lon="-1.677586">
        <ele>359.2</ele>
        <time>2017-02-25T15:10:32Z</time>
      </trkpt>
      <trkpt lat="38.227534" lon="-1.677895">
        <ele>356.8</ele>
        <time>2017-02-25T15:10:51Z</time>
      </trkpt>
      <trkpt lat="38.227569" lon="-1.678123">
        <ele>354.9</ele>
        <time>2017-02-25T15:11:06Z</time>
      </trkpt>
      <trkpt lat="38.227577" lon="-1.678139">
        <ele>348.1</ele>
        <time>2017-02-25T15:11:07Z</time>
      </trkpt>
      <trkpt lat="38.227584" lon="-1.678156">
        <ele>361.1</ele>
        <time>2017-02-25T15:11:08Z</time>
      </trkpt>
      <trkpt lat="38.227589" lon="-1.678171">
        <ele>355.3</ele>
        <time>2017-02-25T15:11:09Z</time>
      </trkpt>
      <trkpt lat="38.227652" lon="-1.678328">
        <ele>354.4</ele>
        <time>2017-02-25T15:11:22Z</time>
      </trkpt>
      <trkpt lat="38.227669" lon="-1.678344">
        <ele>354.9</ele>
        <time>2017-02-25T15:11:24Z</time>
      </trkpt>
      <trkpt lat="38.227758" lon="-1.678562">
        <ele>353.9</ele>
        <time>2017-02-25T15:11:40Z</time>
      </trkpt>
      <trkpt lat="38.227828" lon="-1.678805">
        <ele>351.5</ele>
        <time>2017-02-25T15:11:56Z</time>
      </trkpt>
      <trkpt lat="38.227905" lon="-1.679071">
        <ele>350.5</ele>
        <time>2017-02-25T15:12:13Z</time>
      </trkpt>
      <trkpt lat="38.227971" lon="-1.679245">
        <ele>348.6</ele>
        <time>2017-02-25T15:12:26Z</time>
      </trkpt>
      <trkpt lat="38.228091" lon="-1.679490">
        <ele>347.6</ele>
        <time>2017-02-25T15:12:43Z</time>
      </trkpt>
      <trkpt lat="38.228280" lon="-1.679497">
        <ele>346.2</ele>
        <time>2017-02-25T15:12:56Z</time>
      </trkpt>
      <trkpt lat="38.228432" lon="-1.679349">
        <ele>345.2</ele>
        <time>2017-02-25T15:13:09Z</time>
      </trkpt>
      <trkpt lat="38.228497" lon="-1.679298">
        <ele>345.2</ele>
        <time>2017-02-25T15:13:17Z</time>
      </trkpt>
      <trkpt lat="38.228594" lon="-1.679363">
        <ele>343.8</ele>
        <time>2017-02-25T15:13:26Z</time>
      </trkpt>
      <trkpt lat="38.228754" lon="-1.679536">
        <ele>341.4</ele>
        <time>2017-02-25T15:13:42Z</time>
      </trkpt>
      <trkpt lat="38.228918" lon="-1.679727">
        <ele>340.0</ele>
        <time>2017-02-25T15:13:59Z</time>
      </trkpt>
      <trkpt lat="38.229041" lon="-1.679923">
        <ele>338.0</ele>
        <time>2017-02-25T15:14:14Z</time>
      </trkpt>
      <trkpt lat="38.229070" lon="-1.679993">
        <ele>337.6</ele>
        <time>2017-02-25T15:14:20Z</time>
      </trkpt>
      <trkpt lat="38.229097" lon="-1.680071">
        <ele>337.1</ele>
        <time>2017-02-25T15:14:25Z</time>
      </trkpt>
      <trkpt lat="38.229141" lon="-1.680169">
        <ele>336.1</ele>
        <time>2017-02-25T15:14:39Z</time>
      </trkpt>
      <trkpt lat="38.229163" lon="-1.680317">
        <ele>335.2</ele>
        <time>2017-02-25T15:14:50Z</time>
      </trkpt>
      <trkpt lat="38.229193" lon="-1.680435">
        <ele>334.2</ele>
        <time>2017-02-25T15:14:57Z</time>
      </trkpt>
      <trkpt lat="38.229208" lon="-1.680488">
        <ele>334.2</ele>
        <time>2017-02-25T15:15:00Z</time>
      </trkpt>
      <trkpt lat="38.229295" lon="-1.680697">
        <ele>331.8</ele>
        <time>2017-02-25T15:15:16Z</time>
      </trkpt>
      <trkpt lat="38.229324" lon="-1.680739">
        <ele>331.8</ele>
        <time>2017-02-25T15:15:21Z</time>
      </trkpt>
      <trkpt lat="38.229391" lon="-1.680954">
        <ele>329.9</ele>
        <time>2017-02-25T15:15:38Z</time>
      </trkpt>
      <trkpt lat="38.229425" lon="-1.681133">
        <ele>328.9</ele>
        <time>2017-02-25T15:15:50Z</time>
      </trkpt>
      <trkpt lat="38.229471" lon="-1.681374">
        <ele>327.0</ele>
        <time>2017-02-25T15:16:06Z</time>
      </trkpt>
      <trkpt lat="38.229510" lon="-1.681595">
        <ele>325.5</ele>
        <time>2017-02-25T15:16:19Z</time>
      </trkpt>
      <trkpt lat="38.229555" lon="-1.681859">
        <ele>323.6</ele>
        <time>2017-02-25T15:16:36Z</time>
      </trkpt>
      <trkpt lat="38.229548" lon="-1.681858">
        <ele>323.1</ele>
        <time>2017-02-25T15:16:51Z</time>
      </trkpt>
      <trkpt lat="38.229551" lon="-1.681882">
        <ele>323.6</ele>
        <time>2017-02-25T15:17:06Z</time>
      </trkpt>
      <trkpt lat="38.229553" lon="-1.681811">
        <ele>323.6</ele>
        <time>2017-02-25T15:17:22Z</time>
      </trkpt>
      <trkpt lat="38.229572" lon="-1.681918">
        <ele>322.7</ele>
        <time>2017-02-25T15:17:43Z</time>
      </trkpt>
      <trkpt lat="38.229595" lon="-1.682151">
        <ele>321.7</ele>
        <time>2017-02-25T15:17:57Z</time>
      </trkpt>
      <trkpt lat="38.229586" lon="-1.682408">
        <ele>320.3</ele>
        <time>2017-02-25T15:18:11Z</time>
      </trkpt>
      <trkpt lat="38.229593" lon="-1.682484">
        <ele>319.8</ele>
        <time>2017-02-25T15:18:15Z</time>
      </trkpt>
      <trkpt lat="38.229598" lon="-1.682521">
        <ele>319.8</ele>
        <time>2017-02-25T15:18:17Z</time>
      </trkpt>
      <trkpt lat="38.229640" lon="-1.682727">
        <ele>318.8</ele>
        <time>2017-02-25T15:18:29Z</time>
      </trkpt>
      <trkpt lat="38.229649" lon="-1.682997">
        <ele>318.3</ele>
        <time>2017-02-25T15:18:43Z</time>
      </trkpt>
      <trkpt lat="38.229702" lon="-1.683297">
        <ele>315.9</ele>
        <time>2017-02-25T15:19:01Z</time>
      </trkpt>
      <trkpt lat="38.229830" lon="-1.683646">
        <ele>314.0</ele>
        <time>2017-02-25T15:19:22Z</time>
      </trkpt>
      <trkpt lat="38.229978" lon="-1.683898">
        <ele>312.1</ele>
        <time>2017-02-25T15:19:40Z</time>
      </trkpt>
      <trkpt lat="38.230014" lon="-1.683920">
        <ele>311.6</ele>
        <time>2017-02-25T15:19:43Z</time>
      </trkpt>
      <trkpt lat="38.230148" lon="-1.683932">
        <ele>309.2</ele>
        <time>2017-02-25T15:19:53Z</time>
      </trkpt>
      <trkpt lat="38.230177" lon="-1.684050">
        <ele>307.3</ele>
        <time>2017-02-25T15:20:01Z</time>
      </trkpt>
      <trkpt lat="38.230181" lon="-1.684067">
        <ele>307.3</ele>
        <time>2017-02-25T15:20:02Z</time>
      </trkpt>
      <trkpt lat="38.230165" lon="-1.684167">
        <ele>306.3</ele>
        <time>2017-02-25T15:20:08Z</time>
      </trkpt>
      <trkpt lat="38.230164" lon="-1.684531">
        <ele>306.3</ele>
        <time>2017-02-25T15:20:29Z</time>
      </trkpt>
      <trkpt lat="38.230172" lon="-1.684771">
        <ele>306.3</ele>
        <time>2017-02-25T15:20:43Z</time>
      </trkpt>
      <trkpt lat="38.230155" lon="-1.684889">
        <ele>306.3</ele>
        <time>2017-02-25T15:20:53Z</time>
      </trkpt>
      <trkpt lat="38.230181" lon="-1.684952">
        <ele>306.3</ele>
        <time>2017-02-25T15:20:57Z</time>
      </trkpt>
      <trkpt lat="38.230246" lon="-1.685122">
        <ele>306.8</ele>
        <time>2017-02-25T15:21:07Z</time>
      </trkpt>
      <trkpt lat="38.230299" lon="-1.685227">
        <ele>306.8</ele>
        <time>2017-02-25T15:21:14Z</time>
      </trkpt>
      <trkpt lat="38.230363" lon="-1.685492">
        <ele>306.3</ele>
        <time>2017-02-25T15:21:31Z</time>
      </trkpt>
      <trkpt lat="38.230369" lon="-1.685639">
        <ele>306.8</ele>
        <time>2017-02-25T15:21:41Z</time>
      </trkpt>
      <trkpt lat="38.230338" lon="-1.685822">
        <ele>308.2</ele>
        <time>2017-02-25T15:21:55Z</time>
      </trkpt>
      <trkpt lat="38.230333" lon="-1.685929">
        <ele>306.3</ele>
        <time>2017-02-25T15:22:07Z</time>
      </trkpt>
      <trkpt lat="38.230336" lon="-1.685938">
        <ele>306.8</ele>
        <time>2017-02-25T15:22:08Z</time>
      </trkpt>
      <trkpt lat="38.230415" lon="-1.686020">
        <ele>304.4</ele>
        <time>2017-02-25T15:22:23Z</time>
      </trkpt>
      <trkpt lat="38.230412" lon="-1.686018">
        <ele>304.4</ele>
        <time>2017-02-25T15:22:26Z</time>
      </trkpt>
      <trkpt lat="38.230447" lon="-1.686064">
        <ele>303.4</ele>
        <time>2017-02-25T15:22:30Z</time>
      </trkpt>
      <trkpt lat="38.230434" lon="-1.686192">
        <ele>301.0</ele>
        <time>2017-02-25T15:22:38Z</time>
      </trkpt>
      <trkpt lat="38.230389" lon="-1.686249">
        <ele>300.5</ele>
        <time>2017-02-25T15:22:42Z</time>
      </trkpt>
      <trkpt lat="38.230353" lon="-1.686277">
        <ele>299.1</ele>
        <time>2017-02-25T15:22:48Z</time>
      </trkpt>
      <trkpt lat="38.230290" lon="-1.686433">
        <ele>298.6</ele>
        <time>2017-02-25T15:23:03Z</time>
      </trkpt>
      <trkpt lat="38.230310" lon="-1.686474">
        <ele>298.6</ele>
        <time>2017-02-25T15:23:15Z</time>
      </trkpt>
      <trkpt lat="38.230311" lon="-1.686493">
        <ele>298.6</ele>
        <time>2017-02-25T15:23:19Z</time>
      </trkpt>
      <trkpt lat="38.230348" lon="-1.686543">
        <ele>298.6</ele>
        <time>2017-02-25T15:23:23Z</time>
      </trkpt>
      <trkpt lat="38.230462" lon="-1.686639">
        <ele>299.6</ele>
        <time>2017-02-25T15:23:36Z</time>
      </trkpt>
      <trkpt lat="38.230523" lon="-1.686745">
        <ele>301.0</ele>
        <time>2017-02-25T15:23:48Z</time>
      </trkpt>
      <trkpt lat="38.230527" lon="-1.686753">
        <ele>301.0</ele>
        <time>2017-02-25T15:23:49Z</time>
      </trkpt>
      <trkpt lat="38.230527" lon="-1.686778">
        <ele>302.0</ele>
        <time>2017-02-25T15:23:51Z</time>
      </trkpt>
      <trkpt lat="38.230543" lon="-1.686859">
        <ele>302.5</ele>
        <time>2017-02-25T15:23:59Z</time>
      </trkpt>
      <trkpt lat="38.230618" lon="-1.687047">
        <ele>303.0</ele>
        <time>2017-02-25T15:24:14Z</time>
      </trkpt>
      <trkpt lat="38.230651" lon="-1.687103">
        <ele>303.4</ele>
        <time>2017-02-25T15:24:19Z</time>
      </trkpt>
      <trkpt lat="38.230670" lon="-1.687196">
        <ele>304.9</ele>
        <time>2017-02-25T15:24:27Z</time>
      </trkpt>
      <trkpt lat="38.230683" lon="-1.687236">
        <ele>305.4</ele>
        <time>2017-02-25T15:24:31Z</time>
      </trkpt>
      <trkpt lat="38.230684" lon="-1.687273">
        <ele>305.8</ele>
        <time>2017-02-25T15:24:34Z</time>
      </trkpt>
      <trkpt lat="38.230690" lon="-1.687296">
        <ele>306.3</ele>
        <time>2017-02-25T15:24:36Z</time>
      </trkpt>
      <trkpt lat="38.230690" lon="-1.687324">
        <ele>306.8</ele>
        <time>2017-02-25T15:24:38Z</time>
      </trkpt>
      <trkpt lat="38.230714" lon="-1.687514">
        <ele>307.3</ele>
        <time>2017-02-25T15:24:52Z</time>
      </trkpt>
      <trkpt lat="38.230734" lon="-1.687746">
        <ele>308.7</ele>
        <time>2017-02-25T15:25:08Z</time>
      </trkpt>
      <trkpt lat="38.230749" lon="-1.687948">
        <ele>308.7</ele>
        <time>2017-02-25T15:25:22Z</time>
      </trkpt>
      <trkpt lat="38.230745" lon="-1.688116">
        <ele>309.2</ele>
        <time>2017-02-25T15:25:33Z</time>
      </trkpt>
      <trkpt lat="38.230737" lon="-1.688358">
        <ele>309.7</ele>
        <time>2017-02-25T15:25:49Z</time>
      </trkpt>
      <trkpt lat="38.230749" lon="-1.688453">
        <ele>310.2</ele>
        <time>2017-02-25T15:25:56Z</time>
      </trkpt>
      <trkpt lat="38.230737" lon="-1.688549">
        <ele>310.6</ele>
        <time>2017-02-25T15:26:02Z</time>
      </trkpt>
      <trkpt lat="38.230718" lon="-1.688707">
        <ele>311.1</ele>
        <time>2017-02-25T15:26:11Z</time>
      </trkpt>
      <trkpt lat="38.230650" lon="-1.689014">
        <ele>312.1</ele>
        <time>2017-02-25T15:26:29Z</time>
      </trkpt>
      <trkpt lat="38.230586" lon="-1.689256">
        <ele>313.5</ele>
        <time>2017-02-25T15:26:43Z</time>
      </trkpt>
      <trkpt lat="38.230481" lon="-1.689481">
        <ele>315.5</ele>
        <time>2017-02-25T15:26:57Z</time>
      </trkpt>
      <trkpt lat="38.230428" lon="-1.689685">
        <ele>318.8</ele>
        <time>2017-02-25T15:27:11Z</time>
      </trkpt>
      <trkpt lat="38.230392" lon="-1.689755">
        <ele>315.9</ele>
        <time>2017-02-25T15:27:17Z</time>
      </trkpt>
      <trkpt lat="38.230404" lon="-1.689904">
        <ele>315.9</ele>
        <time>2017-02-25T15:27:25Z</time>
      </trkpt>
      <trkpt lat="38.230519" lon="-1.690158">
        <ele>315.9</ele>
        <time>2017-02-25T15:27:42Z</time>
      </trkpt>
      <trkpt lat="38.230537" lon="-1.690184">
        <ele>315.9</ele>
        <time>2017-02-25T15:27:47Z</time>
      </trkpt>
      <trkpt lat="38.230479" lon="-1.690366">
        <ele>317.4</ele>
        <time>2017-02-25T15:28:00Z</time>
      </trkpt>
      <trkpt lat="38.230465" lon="-1.690380">
        <ele>316.9</ele>
        <time>2017-02-25T15:28:02Z</time>
      </trkpt>
      <trkpt lat="38.230459" lon="-1.690411">
        <ele>316.9</ele>
        <time>2017-02-25T15:28:06Z</time>
      </trkpt>
      <trkpt lat="38.230463" lon="-1.690411">
        <ele>316.4</ele>
        <time>2017-02-25T15:28:18Z</time>
      </trkpt>
      <trkpt lat="38.230469" lon="-1.690398">
        <ele>316.9</ele>
        <time>2017-02-25T15:28:30Z</time>
      </trkpt>
      <trkpt lat="38.230466" lon="-1.690414">
        <ele>316.4</ele>
        <time>2017-02-25T15:28:40Z</time>
      </trkpt>
      <trkpt lat="38.230414" lon="-1.690520">
        <ele>317.9</ele>
        <time>2017-02-25T15:28:48Z</time>
      </trkpt>
      <trkpt lat="38.230403" lon="-1.690579">
        <ele>317.9</ele>
        <time>2017-02-25T15:28:52Z</time>
      </trkpt>
      <trkpt lat="38.230383" lon="-1.690641">
        <ele>319.3</ele>
        <time>2017-02-25T15:29:04Z</time>
      </trkpt>
      <trkpt lat="38.230388" lon="-1.690673">
        <ele>319.3</ele>
        <time>2017-02-25T15:29:19Z</time>
      </trkpt>
      <trkpt lat="38.230389" lon="-1.690698">
        <ele>318.8</ele>
        <time>2017-02-25T15:29:24Z</time>
      </trkpt>
      <trkpt lat="38.230340" lon="-1.690821">
        <ele>319.8</ele>
        <time>2017-02-25T15:29:38Z</time>
      </trkpt>
      <trkpt lat="38.230334" lon="-1.690878">
        <ele>320.7</ele>
        <time>2017-02-25T15:29:42Z</time>
      </trkpt>
      <trkpt lat="38.230332" lon="-1.690968">
        <ele>321.2</ele>
        <time>2017-02-25T15:29:55Z</time>
      </trkpt>
      <trkpt lat="38.230351" lon="-1.691231">
        <ele>322.2</ele>
        <time>2017-02-25T15:30:12Z</time>
      </trkpt>
      <trkpt lat="38.230350" lon="-1.691274">
        <ele>322.7</ele>
        <time>2017-02-25T15:30:15Z</time>
      </trkpt>
      <trkpt lat="38.230353" lon="-1.691458">
        <ele>323.6</ele>
        <time>2017-02-25T15:30:29Z</time>
      </trkpt>
      <trkpt lat="38.230354" lon="-1.691474">
        <ele>323.6</ele>
        <time>2017-02-25T15:30:30Z</time>
      </trkpt>
      <trkpt lat="38.230304" lon="-1.691630">
        <ele>324.6</ele>
        <time>2017-02-25T15:30:43Z</time>
      </trkpt>
      <trkpt lat="38.230287" lon="-1.691734">
        <ele>325.5</ele>
        <time>2017-02-25T15:30:50Z</time>
      </trkpt>
      <trkpt lat="38.230292" lon="-1.691763">
        <ele>325.1</ele>
        <time>2017-02-25T15:30:52Z</time>
      </trkpt>
      <trkpt lat="38.230258" lon="-1.691947">
        <ele>326.0</ele>
        <time>2017-02-25T15:31:06Z</time>
      </trkpt>
      <trkpt lat="38.230238" lon="-1.692007">
        <ele>326.0</ele>
        <time>2017-02-25T15:31:10Z</time>
      </trkpt>
      <trkpt lat="38.230238" lon="-1.692052">
        <ele>326.5</ele>
        <time>2017-02-25T15:31:13Z</time>
      </trkpt>
      <trkpt lat="38.230286" lon="-1.692227">
        <ele>328.0</ele>
        <time>2017-02-25T15:31:26Z</time>
      </trkpt>
      <trkpt lat="38.230351" lon="-1.692313">
        <ele>328.9</ele>
        <time>2017-02-25T15:31:35Z</time>
      </trkpt>
      <trkpt lat="38.230456" lon="-1.692528">
        <ele>330.8</ele>
        <time>2017-02-25T15:31:52Z</time>
      </trkpt>
      <trkpt lat="38.230459" lon="-1.692541">
        <ele>330.8</ele>
        <time>2017-02-25T15:31:55Z</time>
      </trkpt>
      <trkpt lat="38.230491" lon="-1.692563">
        <ele>331.3</ele>
        <time>2017-02-25T15:32:04Z</time>
      </trkpt>
      <trkpt lat="38.230498" lon="-1.692608">
        <ele>331.8</ele>
        <time>2017-02-25T15:32:10Z</time>
      </trkpt>
      <trkpt lat="38.230535" lon="-1.692796">
        <ele>333.2</ele>
        <time>2017-02-25T15:32:24Z</time>
      </trkpt>
      <trkpt lat="38.230542" lon="-1.692903">
        <ele>334.2</ele>
        <time>2017-02-25T15:32:34Z</time>
      </trkpt>
      <trkpt lat="38.230634" lon="-1.692994">
        <ele>337.1</ele>
        <time>2017-02-25T15:32:46Z</time>
      </trkpt>
      <trkpt lat="38.230641" lon="-1.693010">
        <ele>336.1</ele>
        <time>2017-02-25T15:32:48Z</time>
      </trkpt>
      <trkpt lat="38.230645" lon="-1.693057">
        <ele>337.1</ele>
        <time>2017-02-25T15:32:53Z</time>
      </trkpt>
      <trkpt lat="38.230619" lon="-1.693237">
        <ele>338.0</ele>
        <time>2017-02-25T15:33:06Z</time>
      </trkpt>
      <trkpt lat="38.230626" lon="-1.693459">
        <ele>336.1</ele>
        <time>2017-02-25T15:33:20Z</time>
      </trkpt>
      <trkpt lat="38.230623" lon="-1.693474">
        <ele>339.5</ele>
        <time>2017-02-25T15:33:21Z</time>
      </trkpt>
      <trkpt lat="38.230618" lon="-1.693501">
        <ele>338.5</ele>
        <time>2017-02-25T15:33:23Z</time>
      </trkpt>
      <trkpt lat="38.230621" lon="-1.693525">
        <ele>339.0</ele>
        <time>2017-02-25T15:33:26Z</time>
      </trkpt>
      <trkpt lat="38.230619" lon="-1.693589">
        <ele>338.5</ele>
        <time>2017-02-25T15:33:33Z</time>
      </trkpt>
      <trkpt lat="38.230622" lon="-1.693691">
        <ele>339.0</ele>
        <time>2017-02-25T15:33:39Z</time>
      </trkpt>
      <trkpt lat="38.230671" lon="-1.693820">
        <ele>339.0</ele>
        <time>2017-02-25T15:33:47Z</time>
      </trkpt>
      <trkpt lat="38.230708" lon="-1.693917">
        <ele>340.0</ele>
        <time>2017-02-25T15:33:58Z</time>
      </trkpt>
      <trkpt lat="38.230830" lon="-1.694184">
        <ele>339.5</ele>
        <time>2017-02-25T15:34:15Z</time>
      </trkpt>
      <trkpt lat="38.230931" lon="-1.694685">
        <ele>340.4</ele>
        <time>2017-02-25T15:37:25Z</time>
      </trkpt>
      <trkpt lat="38.231058" lon="-1.694922">
        <ele>340.9</ele>
        <time>2017-02-25T15:38:38Z</time>
      </trkpt>
      <trkpt lat="38.231135" lon="-1.695174">
        <ele>342.4</ele>
        <time>2017-02-25T15:38:53Z</time>
      </trkpt>
      <trkpt lat="38.231211" lon="-1.695363">
        <ele>342.9</ele>
        <time>2017-02-25T15:39:07Z</time>
      </trkpt>
      <trkpt lat="38.231254" lon="-1.695508">
        <ele>342.9</ele>
        <time>2017-02-25T15:39:16Z</time>
      </trkpt>
      <trkpt lat="38.231299" lon="-1.695796">
        <ele>343.3</ele>
        <time>2017-02-25T15:39:32Z</time>
      </trkpt>
      <trkpt lat="38.231314" lon="-1.695889">
        <ele>343.3</ele>
        <time>2017-02-25T15:39:38Z</time>
      </trkpt>
      <trkpt lat="38.231312" lon="-1.696021">
        <ele>343.3</ele>
        <time>2017-02-25T15:39:51Z</time>
      </trkpt>
      <trkpt lat="38.231295" lon="-1.696084">
        <ele>343.3</ele>
        <time>2017-02-25T15:40:09Z</time>
      </trkpt>
      <trkpt lat="38.231315" lon="-1.696160">
        <ele>342.9</ele>
        <time>2017-02-25T15:40:14Z</time>
      </trkpt>
      <trkpt lat="38.231345" lon="-1.696232">
        <ele>342.4</ele>
        <time>2017-02-25T15:40:20Z</time>
      </trkpt>
      <trkpt lat="38.231358" lon="-1.696329">
        <ele>344.3</ele>
        <time>2017-02-25T15:40:26Z</time>
      </trkpt>
      <trkpt lat="38.231358" lon="-1.696359">
        <ele>343.3</ele>
        <time>2017-02-25T15:40:28Z</time>
      </trkpt>
      <trkpt lat="38.231395" lon="-1.696494">
        <ele>343.3</ele>
        <time>2017-02-25T15:40:35Z</time>
      </trkpt>
      <trkpt lat="38.231492" lon="-1.696792">
        <ele>343.8</ele>
        <time>2017-02-25T15:40:51Z</time>
      </trkpt>
      <trkpt lat="38.231539" lon="-1.697017">
        <ele>343.8</ele>
        <time>2017-02-25T15:41:07Z</time>
      </trkpt>
      <trkpt lat="38.231300" lon="-1.697151">
        <ele>343.3</ele>
        <time>2017-02-25T15:41:23Z</time>
      </trkpt>
      <trkpt lat="38.231236" lon="-1.697285">
        <ele>343.3</ele>
        <time>2017-02-25T15:41:30Z</time>
      </trkpt>
      <trkpt lat="38.231155" lon="-1.697492">
        <ele>342.9</ele>
        <time>2017-02-25T15:41:46Z</time>
      </trkpt>
      <trkpt lat="38.231122" lon="-1.697595">
        <ele>343.3</ele>
        <time>2017-02-25T15:41:51Z</time>
      </trkpt>
      <trkpt lat="38.231029" lon="-1.697856">
        <ele>342.9</ele>
        <time>2017-02-25T15:42:06Z</time>
      </trkpt>
      <trkpt lat="38.231008" lon="-1.697933">
        <ele>342.9</ele>
        <time>2017-02-25T15:42:11Z</time>
      </trkpt>
      <trkpt lat="38.230955" lon="-1.698158">
        <ele>342.9</ele>
        <time>2017-02-25T15:42:25Z</time>
      </trkpt>
      <trkpt lat="38.230875" lon="-1.698350">
        <ele>342.9</ele>
        <time>2017-02-25T15:42:38Z</time>
      </trkpt>
      <trkpt lat="38.230867" lon="-1.698397">
        <ele>342.9</ele>
        <time>2017-02-25T15:42:41Z</time>
      </trkpt>
      <trkpt lat="38.230750" lon="-1.698572">
        <ele>343.3</ele>
        <time>2017-02-25T15:42:52Z</time>
      </trkpt>
      <trkpt lat="38.230655" lon="-1.698910">
        <ele>344.3</ele>
        <time>2017-02-25T15:43:09Z</time>
      </trkpt>
      <trkpt lat="38.230647" lon="-1.698953">
        <ele>348.1</ele>
        <time>2017-02-25T15:43:11Z</time>
      </trkpt>
      <trkpt lat="38.230635" lon="-1.699016">
        <ele>344.8</ele>
        <time>2017-02-25T15:43:14Z</time>
      </trkpt>
      <trkpt lat="38.230614" lon="-1.699161">
        <ele>345.7</ele>
        <time>2017-02-25T15:43:22Z</time>
      </trkpt>
      <trkpt lat="38.230572" lon="-1.699230">
        <ele>346.2</ele>
        <time>2017-02-25T15:43:36Z</time>
      </trkpt>
      <trkpt lat="38.230615" lon="-1.699299">
        <ele>346.7</ele>
        <time>2017-02-25T15:43:41Z</time>
      </trkpt>
      <trkpt lat="38.230727" lon="-1.699304">
        <ele>346.7</ele>
        <time>2017-02-25T15:43:53Z</time>
      </trkpt>
      <trkpt lat="38.230812" lon="-1.699317">
        <ele>346.7</ele>
        <time>2017-02-25T15:44:02Z</time>
      </trkpt>
      <trkpt lat="38.230848" lon="-1.699329">
        <ele>347.2</ele>
        <time>2017-02-25T15:44:05Z</time>
      </trkpt>
      <trkpt lat="38.230972" lon="-1.699386">
        <ele>346.2</ele>
        <time>2017-02-25T15:45:00Z</time>
      </trkpt>
      <trkpt lat="38.230978" lon="-1.699417">
        <ele>345.7</ele>
        <time>2017-02-25T15:45:08Z</time>
      </trkpt>
      <trkpt lat="38.230969" lon="-1.699517">
        <ele>346.2</ele>
        <time>2017-02-25T15:45:25Z</time>
      </trkpt>
      <trkpt lat="38.230978" lon="-1.699525">
        <ele>346.2</ele>
        <time>2017-02-25T15:45:27Z</time>
      </trkpt>
      <trkpt lat="38.231142" lon="-1.699730">
        <ele>345.7</ele>
        <time>2017-02-25T15:45:45Z</time>
      </trkpt>
      <trkpt lat="38.231264" lon="-1.699910">
        <ele>345.2</ele>
        <time>2017-02-25T15:46:00Z</time>
      </trkpt>
      <trkpt lat="38.231423" lon="-1.700015">
        <ele>344.3</ele>
        <time>2017-02-25T15:46:13Z</time>
      </trkpt>
      <trkpt lat="38.231522" lon="-1.700041">
        <ele>344.8</ele>
        <time>2017-02-25T15:46:21Z</time>
      </trkpt>
      <trkpt lat="38.231571" lon="-1.700095">
        <ele>353.4</ele>
        <time>2017-03-04T07:19:52Z</time>
      </trkpt>
      <trkpt lat="38.231474" lon="-1.700205">
        <ele>352.9</ele>
        <time>2017-03-04T07:20:08Z</time>
      </trkpt>
      <trkpt lat="38.231426" lon="-1.700318">
        <ele>352.5</ele>
        <time>2017-03-04T07:20:18Z</time>
      </trkpt>
      <trkpt lat="38.231405" lon="-1.700391">
        <ele>353.4</ele>
        <time>2017-03-04T07:20:23Z</time>
      </trkpt>
      <trkpt lat="38.231422" lon="-1.700536">
        <ele>354.4</ele>
        <time>2017-03-04T07:20:34Z</time>
      </trkpt>
      <trkpt lat="38.231405" lon="-1.700609">
        <ele>354.9</ele>
        <time>2017-03-04T07:20:39Z</time>
      </trkpt>
      <trkpt lat="38.231342" lon="-1.700678">
        <ele>354.4</ele>
        <time>2017-03-04T07:20:44Z</time>
      </trkpt>
      <trkpt lat="38.231334" lon="-1.700694">
        <ele>354.9</ele>
        <time>2017-03-04T07:20:45Z</time>
      </trkpt>
      <trkpt lat="38.231295" lon="-1.700833">
        <ele>355.8</ele>
        <time>2017-03-04T07:20:56Z</time>
      </trkpt>
      <trkpt lat="38.231290" lon="-1.700848">
        <ele>355.8</ele>
        <time>2017-03-04T07:20:57Z</time>
      </trkpt>
      <trkpt lat="38.231289" lon="-1.700898">
        <ele>355.8</ele>
        <time>2017-03-04T07:21:04Z</time>
      </trkpt>
      <trkpt lat="38.231281" lon="-1.700904">
        <ele>355.3</ele>
        <time>2017-03-04T07:21:05Z</time>
      </trkpt>
      <trkpt lat="38.231274" lon="-1.700917">
        <ele>355.8</ele>
        <time>2017-03-04T07:21:06Z</time>
      </trkpt>
      <trkpt lat="38.231271" lon="-1.700935">
        <ele>355.3</ele>
        <time>2017-03-04T07:21:07Z</time>
      </trkpt>
      <trkpt lat="38.231273" lon="-1.700957">
        <ele>355.8</ele>
        <time>2017-03-04T07:21:08Z</time>
      </trkpt>
      <trkpt lat="38.231273" lon="-1.700979">
        <ele>355.8</ele>
        <time>2017-03-04T07:21:09Z</time>
      </trkpt>
      <trkpt lat="38.231273" lon="-1.701000">
        <ele>356.3</ele>
        <time>2017-03-04T07:21:10Z</time>
      </trkpt>
      <trkpt lat="38.231268" lon="-1.701019">
        <ele>355.8</ele>
        <time>2017-03-04T07:21:11Z</time>
      </trkpt>
      <trkpt lat="38.231262" lon="-1.701035">
        <ele>356.3</ele>
        <time>2017-03-04T07:21:12Z</time>
      </trkpt>
      <trkpt lat="38.231261" lon="-1.701056">
        <ele>356.3</ele>
        <time>2017-03-04T07:21:13Z</time>
      </trkpt>
      <trkpt lat="38.231265" lon="-1.701076">
        <ele>356.8</ele>
        <time>2017-03-04T07:21:14Z</time>
      </trkpt>
      <trkpt lat="38.231270" lon="-1.701095">
        <ele>356.8</ele>
        <time>2017-03-04T07:21:15Z</time>
      </trkpt>
      <trkpt lat="38.231275" lon="-1.701114">
        <ele>356.8</ele>
        <time>2017-03-04T07:21:16Z</time>
      </trkpt>
      <trkpt lat="38.231280" lon="-1.701131">
        <ele>356.3</ele>
        <time>2017-03-04T07:21:17Z</time>
      </trkpt>
      <trkpt lat="38.231287" lon="-1.701147">
        <ele>357.3</ele>
        <time>2017-03-04T07:21:18Z</time>
      </trkpt>
      <trkpt lat="38.231289" lon="-1.701163">
        <ele>357.3</ele>
        <time>2017-03-04T07:21:19Z</time>
      </trkpt>
      <trkpt lat="38.231288" lon="-1.701178">
        <ele>357.8</ele>
        <time>2017-03-04T07:21:20Z</time>
      </trkpt>
      <trkpt lat="38.231281" lon="-1.701207">
        <ele>356.8</ele>
        <time>2017-03-04T07:21:22Z</time>
      </trkpt>
      <trkpt lat="38.231276" lon="-1.701222">
        <ele>357.3</ele>
        <time>2017-03-04T07:21:23Z</time>
      </trkpt>
      <trkpt lat="38.231269" lon="-1.701238">
        <ele>356.8</ele>
        <time>2017-03-04T07:21:24Z</time>
      </trkpt>
      <trkpt lat="38.231262" lon="-1.701251">
        <ele>357.3</ele>
        <time>2017-03-04T07:21:25Z</time>
      </trkpt>
      <trkpt lat="38.231256" lon="-1.701296">
        <ele>357.8</ele>
        <time>2017-03-04T07:21:30Z</time>
      </trkpt>
      <trkpt lat="38.231219" lon="-1.701532">
        <ele>358.2</ele>
        <time>2017-03-04T07:21:45Z</time>
      </trkpt>
      <trkpt lat="38.231215" lon="-1.701609">
        <ele>358.7</ele>
        <time>2017-03-04T07:21:51Z</time>
      </trkpt>
      <trkpt lat="38.231206" lon="-1.701750">
        <ele>358.7</ele>
        <time>2017-03-04T07:22:00Z</time>
      </trkpt>
      <trkpt lat="38.231208" lon="-1.701803">
        <ele>358.7</ele>
        <time>2017-03-04T07:22:01Z</time>
      </trkpt>
      <trkpt lat="38.231202" lon="-1.701891">
        <ele>359.7</ele>
        <time>2017-03-04T07:22:13Z</time>
      </trkpt>
      <trkpt lat="38.231221" lon="-1.702032">
        <ele>359.7</ele>
        <time>2017-03-04T07:22:22Z</time>
      </trkpt>
      <trkpt lat="38.231243" lon="-1.702148">
        <ele>358.7</ele>
        <time>2017-03-04T07:22:33Z</time>
      </trkpt>
      <trkpt lat="38.231251" lon="-1.702190">
        <ele>362.1</ele>
        <time>2017-03-04T07:22:34Z</time>
      </trkpt>
      <trkpt lat="38.231269" lon="-1.702242">
        <ele>360.1</ele>
        <time>2017-03-04T07:22:41Z</time>
      </trkpt>
      <trkpt lat="38.231264" lon="-1.702300">
        <ele>359.7</ele>
        <time>2017-03-04T07:22:42Z</time>
      </trkpt>
      <trkpt lat="38.231295" lon="-1.702397">
        <ele>360.1</ele>
        <time>2017-03-04T07:22:56Z</time>
      </trkpt>
      <trkpt lat="38.231299" lon="-1.702442">
        <ele>360.1</ele>
        <time>2017-03-04T07:22:57Z</time>
      </trkpt>
      <trkpt lat="38.231317" lon="-1.702442">
        <ele>359.7</ele>
        <time>2017-03-04T07:22:58Z</time>
      </trkpt>
      <trkpt lat="38.231314" lon="-1.702467">
        <ele>360.1</ele>
        <time>2017-03-04T07:23:00Z</time>
      </trkpt>
      <trkpt lat="38.231341" lon="-1.702483">
        <ele>360.1</ele>
        <time>2017-03-04T07:23:01Z</time>
      </trkpt>
      <trkpt lat="38.231391" lon="-1.702557">
        <ele>360.6</ele>
        <time>2017-03-04T07:23:14Z</time>
      </trkpt>
      <trkpt lat="38.231444" lon="-1.702658">
        <ele>360.6</ele>
        <time>2017-03-04T07:23:21Z</time>
      </trkpt>
      <trkpt lat="38.231443" lon="-1.702689">
        <ele>360.6</ele>
        <time>2017-03-04T07:23:22Z</time>
      </trkpt>
      <trkpt lat="38.231508" lon="-1.702966">
        <ele>360.6</ele>
        <time>2017-03-04T07:23:36Z</time>
      </trkpt>
      <trkpt lat="38.231579" lon="-1.703162">
        <ele>361.6</ele>
        <time>2017-03-04T07:23:50Z</time>
      </trkpt>
      <trkpt lat="38.231602" lon="-1.703242">
        <ele>361.6</ele>
        <time>2017-03-04T07:24:12Z</time>
      </trkpt>
      <trkpt lat="38.231617" lon="-1.703262">
        <ele>361.1</ele>
        <time>2017-03-04T07:24:25Z</time>
      </trkpt>
      <trkpt lat="38.231627" lon="-1.703272">
        <ele>360.6</ele>
        <time>2017-03-04T07:24:26Z</time>
      </trkpt>
      <trkpt lat="38.231635" lon="-1.703286">
        <ele>361.1</ele>
        <time>2017-03-04T07:24:27Z</time>
      </trkpt>
      <trkpt lat="38.231643" lon="-1.703296">
        <ele>360.6</ele>
        <time>2017-03-04T07:24:28Z</time>
      </trkpt>
      <trkpt lat="38.231690" lon="-1.703341">
        <ele>361.6</ele>
        <time>2017-03-04T07:24:40Z</time>
      </trkpt>
      <trkpt lat="38.231794" lon="-1.703460">
        <ele>361.6</ele>
        <time>2017-03-04T07:24:55Z</time>
      </trkpt>
      <trkpt lat="38.231960" lon="-1.703645">
        <ele>361.6</ele>
        <time>2017-03-04T07:25:13Z</time>
      </trkpt>
      <trkpt lat="38.232074" lon="-1.703820">
        <ele>362.5</ele>
        <time>2017-03-04T07:25:28Z</time>
      </trkpt>
      <trkpt lat="38.232161" lon="-1.703963">
        <ele>363.5</ele>
        <time>2017-03-04T07:25:41Z</time>
      </trkpt>
      <trkpt lat="38.232170" lon="-1.703974">
        <ele>364.0</ele>
        <time>2017-03-04T07:25:42Z</time>
      </trkpt>
      <trkpt lat="38.232178" lon="-1.703988">
        <ele>364.0</ele>
        <time>2017-03-04T07:25:43Z</time>
      </trkpt>
      <trkpt lat="38.232187" lon="-1.704001">
        <ele>363.5</ele>
        <time>2017-03-04T07:25:44Z</time>
      </trkpt>
      <trkpt lat="38.232195" lon="-1.704012">
        <ele>363.5</ele>
        <time>2017-03-04T07:25:45Z</time>
      </trkpt>
      <trkpt lat="38.232241" lon="-1.704095">
        <ele>363.5</ele>
        <time>2017-03-04T07:26:00Z</time>
      </trkpt>
      <trkpt lat="38.232260" lon="-1.704108">
        <ele>363.5</ele>
        <time>2017-03-04T07:26:11Z</time>
      </trkpt>
      <trkpt lat="38.232341" lon="-1.704184">
        <ele>363.5</ele>
        <time>2017-03-04T07:26:24Z</time>
      </trkpt>
      <trkpt lat="38.232425" lon="-1.704300">
        <ele>365.4</ele>
        <time>2017-03-04T07:26:33Z</time>
      </trkpt>
      <trkpt lat="38.232428" lon="-1.704321">
        <ele>365.0</ele>
        <time>2017-03-04T07:26:34Z</time>
      </trkpt>
      <trkpt lat="38.232439" lon="-1.704342">
        <ele>365.0</ele>
        <time>2017-03-04T07:26:35Z</time>
      </trkpt>
      <trkpt lat="38.232447" lon="-1.704357">
        <ele>365.0</ele>
        <time>2017-03-04T07:26:36Z</time>
      </trkpt>
      <trkpt lat="38.232455" lon="-1.704371">
        <ele>365.4</ele>
        <time>2017-03-04T07:26:37Z</time>
      </trkpt>
      <trkpt lat="38.232463" lon="-1.704384">
        <ele>365.4</ele>
        <time>2017-03-04T07:26:38Z</time>
      </trkpt>
      <trkpt lat="38.232474" lon="-1.704394">
        <ele>365.0</ele>
        <time>2017-03-04T07:26:39Z</time>
      </trkpt>
      <trkpt lat="38.232484" lon="-1.704406">
        <ele>365.0</ele>
        <time>2017-03-04T07:26:40Z</time>
      </trkpt>
      <trkpt lat="38.232502" lon="-1.704441">
        <ele>365.9</ele>
        <time>2017-03-04T07:26:43Z</time>
      </trkpt>
      <trkpt lat="38.232508" lon="-1.704456">
        <ele>365.9</ele>
        <time>2017-03-04T07:26:44Z</time>
      </trkpt>
      <trkpt lat="38.232516" lon="-1.704472">
        <ele>365.9</ele>
        <time>2017-03-04T07:26:45Z</time>
      </trkpt>
      <trkpt lat="38.232551" lon="-1.704498">
        <ele>365.9</ele>
        <time>2017-03-04T07:26:51Z</time>
      </trkpt>
      <trkpt lat="38.232558" lon="-1.704513">
        <ele>366.4</ele>
        <time>2017-03-04T07:26:52Z</time>
      </trkpt>
      <trkpt lat="38.232563" lon="-1.704530">
        <ele>365.9</ele>
        <time>2017-03-04T07:26:53Z</time>
      </trkpt>
      <trkpt lat="38.232570" lon="-1.704546">
        <ele>365.9</ele>
        <time>2017-03-04T07:26:54Z</time>
      </trkpt>
      <trkpt lat="38.232576" lon="-1.704561">
        <ele>366.4</ele>
        <time>2017-03-04T07:26:55Z</time>
      </trkpt>
      <trkpt lat="38.232595" lon="-1.704570">
        <ele>366.4</ele>
        <time>2017-03-04T07:27:05Z</time>
      </trkpt>
      <trkpt lat="38.232615" lon="-1.704609">
        <ele>366.9</ele>
        <time>2017-03-04T07:27:11Z</time>
      </trkpt>
      <trkpt lat="38.232617" lon="-1.704624">
        <ele>366.4</ele>
        <time>2017-03-04T07:27:12Z</time>
      </trkpt>
      <trkpt lat="38.232632" lon="-1.704639">
        <ele>366.4</ele>
        <time>2017-03-04T07:27:15Z</time>
      </trkpt>
      <trkpt lat="38.232645" lon="-1.704657">
        <ele>366.4</ele>
        <time>2017-03-04T07:27:17Z</time>
      </trkpt>
      <trkpt lat="38.232697" lon="-1.704728">
        <ele>366.9</ele>
        <time>2017-03-04T07:27:29Z</time>
      </trkpt>
      <trkpt lat="38.232767" lon="-1.704866">
        <ele>366.9</ele>
        <time>2017-03-04T07:27:41Z</time>
      </trkpt>
      <trkpt lat="38.232809" lon="-1.704978">
        <ele>367.8</ele>
        <time>2017-03-04T07:27:51Z</time>
      </trkpt>
      <trkpt lat="38.232863" lon="-1.705080">
        <ele>368.8</ele>
        <time>2017-03-04T07:28:02Z</time>
      </trkpt>
      <trkpt lat="38.232891" lon="-1.705128">
        <ele>368.8</ele>
        <time>2017-03-04T07:28:07Z</time>
      </trkpt>
      <trkpt lat="38.232948" lon="-1.705257">
        <ele>369.8</ele>
        <time>2017-03-04T07:28:22Z</time>
      </trkpt>
      <trkpt lat="38.233024" lon="-1.705383">
        <ele>370.2</ele>
        <time>2017-03-04T07:28:36Z</time>
      </trkpt>
      <trkpt lat="38.233070" lon="-1.705495">
        <ele>371.7</ele>
        <time>2017-03-04T07:28:47Z</time>
      </trkpt>
      <trkpt lat="38.233087" lon="-1.705546">
        <ele>371.7</ele>
        <time>2017-03-04T07:28:51Z</time>
      </trkpt>
      <trkpt lat="38.233090" lon="-1.705561">
        <ele>371.7</ele>
        <time>2017-03-04T07:28:52Z</time>
      </trkpt>
      <trkpt lat="38.233094" lon="-1.705578">
        <ele>371.7</ele>
        <time>2017-03-04T07:28:53Z</time>
      </trkpt>
      <trkpt lat="38.233108" lon="-1.705610">
        <ele>371.7</ele>
        <time>2017-03-04T07:28:56Z</time>
      </trkpt>
      <trkpt lat="38.233159" lon="-1.705717">
        <ele>371.7</ele>
        <time>2017-03-04T07:29:05Z</time>
      </trkpt>
      <trkpt lat="38.233162" lon="-1.705732">
        <ele>371.7</ele>
        <time>2017-03-04T07:29:06Z</time>
      </trkpt>
      <trkpt lat="38.233167" lon="-1.705746">
        <ele>372.2</ele>
        <time>2017-03-04T07:29:07Z</time>
      </trkpt>
      <trkpt lat="38.233171" lon="-1.705763">
        <ele>372.6</ele>
        <time>2017-03-04T07:29:08Z</time>
      </trkpt>
      <trkpt lat="38.233174" lon="-1.705781">
        <ele>372.6</ele>
        <time>2017-03-04T07:29:09Z</time>
      </trkpt>
      <trkpt lat="38.233241" lon="-1.705878">
        <ele>372.6</ele>
        <time>2017-03-04T07:29:17Z</time>
      </trkpt>
      <trkpt lat="38.233252" lon="-1.705889">
        <ele>372.6</ele>
        <time>2017-03-04T07:29:18Z</time>
      </trkpt>
      <trkpt lat="38.233292" lon="-1.705934">
        <ele>372.2</ele>
        <time>2017-03-04T07:29:27Z</time>
      </trkpt>
      <trkpt lat="38.233299" lon="-1.705953">
        <ele>373.1</ele>
        <time>2017-03-04T07:29:28Z</time>
      </trkpt>
      <trkpt lat="38.233308" lon="-1.705968">
        <ele>372.6</ele>
        <time>2017-03-04T07:29:29Z</time>
      </trkpt>
      <trkpt lat="38.233320" lon="-1.705983">
        <ele>372.6</ele>
        <time>2017-03-04T07:29:30Z</time>
      </trkpt>
      <trkpt lat="38.233328" lon="-1.706000">
        <ele>373.1</ele>
        <time>2017-03-04T07:29:31Z</time>
      </trkpt>
      <trkpt lat="38.233334" lon="-1.706021">
        <ele>373.1</ele>
        <time>2017-03-04T07:29:32Z</time>
      </trkpt>
      <trkpt lat="38.233340" lon="-1.706043">
        <ele>373.1</ele>
        <time>2017-03-04T07:29:33Z</time>
      </trkpt>
      <trkpt lat="38.233346" lon="-1.706059">
        <ele>373.1</ele>
        <time>2017-03-04T07:29:34Z</time>
      </trkpt>
      <trkpt lat="38.233351" lon="-1.706073">
        <ele>373.1</ele>
        <time>2017-03-04T07:29:35Z</time>
      </trkpt>
      <trkpt lat="38.233356" lon="-1.706086">
        <ele>373.1</ele>
        <time>2017-03-04T07:29:36Z</time>
      </trkpt>
      <trkpt lat="38.233418" lon="-1.706217">
        <ele>373.6</ele>
        <time>2017-03-04T07:29:46Z</time>
      </trkpt>
      <trkpt lat="38.233510" lon="-1.706388">
        <ele>373.1</ele>
        <time>2017-03-04T07:29:59Z</time>
      </trkpt>
      <trkpt lat="38.233524" lon="-1.706409">
        <ele>373.1</ele>
        <time>2017-03-04T07:30:01Z</time>
      </trkpt>
      <trkpt lat="38.233559" lon="-1.706475">
        <ele>373.6</ele>
        <time>2017-03-04T07:30:07Z</time>
      </trkpt>
      <trkpt lat="38.233567" lon="-1.706487">
        <ele>373.6</ele>
        <time>2017-03-04T07:30:08Z</time>
      </trkpt>
      <trkpt lat="38.233572" lon="-1.706501">
        <ele>374.1</ele>
        <time>2017-03-04T07:30:09Z</time>
      </trkpt>
      <trkpt lat="38.233575" lon="-1.706521">
        <ele>374.1</ele>
        <time>2017-03-04T07:30:10Z</time>
      </trkpt>
      <trkpt lat="38.233577" lon="-1.706540">
        <ele>374.1</ele>
        <time>2017-03-04T07:30:11Z</time>
      </trkpt>
      <trkpt lat="38.233579" lon="-1.706555">
        <ele>373.1</ele>
        <time>2017-03-04T07:30:12Z</time>
      </trkpt>
      <trkpt lat="38.233584" lon="-1.706574">
        <ele>373.6</ele>
        <time>2017-03-04T07:30:13Z</time>
      </trkpt>
      <trkpt lat="38.233591" lon="-1.706589">
        <ele>373.6</ele>
        <time>2017-03-04T07:30:14Z</time>
      </trkpt>
      <trkpt lat="38.233599" lon="-1.706600">
        <ele>373.6</ele>
        <time>2017-03-04T07:30:15Z</time>
      </trkpt>
      <trkpt lat="38.233597" lon="-1.706655">
        <ele>373.6</ele>
        <time>2017-03-04T07:30:26Z</time>
      </trkpt>
      <trkpt lat="38.233584" lon="-1.706685">
        <ele>372.6</ele>
        <time>2017-03-04T07:30:32Z</time>
      </trkpt>
      <trkpt lat="38.233572" lon="-1.706712">
        <ele>373.1</ele>
        <time>2017-03-04T07:30:34Z</time>
      </trkpt>
      <trkpt lat="38.233611" lon="-1.707019">
        <ele>372.6</ele>
        <time>2017-03-04T07:30:50Z</time>
      </trkpt>
      <trkpt lat="38.233632" lon="-1.707111">
        <ele>373.1</ele>
        <time>2017-03-04T07:31:01Z</time>
      </trkpt>
      <trkpt lat="38.233738" lon="-1.707379">
        <ele>373.1</ele>
        <time>2017-03-04T07:31:18Z</time>
      </trkpt>
      <trkpt lat="38.233738" lon="-1.707378">
        <ele>374.1</ele>
        <time>2017-03-04T07:31:31Z</time>
      </trkpt>
      <trkpt lat="38.233764" lon="-1.707509">
        <ele>374.1</ele>
        <time>2017-03-04T07:31:41Z</time>
      </trkpt>
      <trkpt lat="38.233767" lon="-1.707582">
        <ele>374.1</ele>
        <time>2017-03-04T07:31:49Z</time>
      </trkpt>
      <trkpt lat="38.233787" lon="-1.707658">
        <ele>374.6</ele>
        <time>2017-03-04T07:31:53Z</time>
      </trkpt>
      <trkpt lat="38.233890" lon="-1.707965">
        <ele>374.1</ele>
        <time>2017-03-04T07:32:11Z</time>
      </trkpt>
      <trkpt lat="38.233912" lon="-1.708012">
        <ele>372.6</ele>
        <time>2017-03-04T07:32:14Z</time>
      </trkpt>
      <trkpt lat="38.233929" lon="-1.708064">
        <ele>374.1</ele>
        <time>2017-03-04T07:32:17Z</time>
      </trkpt>
      <trkpt lat="38.234020" lon="-1.708395">
        <ele>375.0</ele>
        <time>2017-03-04T07:32:37Z</time>
      </trkpt>
      <trkpt lat="38.234053" lon="-1.708568">
        <ele>375.5</ele>
        <time>2017-03-04T07:32:52Z</time>
      </trkpt>
      <trkpt lat="38.234127" lon="-1.708839">
        <ele>376.0</ele>
        <time>2017-03-04T07:33:09Z</time>
      </trkpt>
      <trkpt lat="38.234187" lon="-1.709079">
        <ele>377.0</ele>
        <time>2017-03-04T07:33:25Z</time>
      </trkpt>
      <trkpt lat="38.234191" lon="-1.709141">
        <ele>377.0</ele>
        <time>2017-03-04T07:33:33Z</time>
      </trkpt>
      <trkpt lat="38.234235" lon="-1.709243">
        <ele>377.0</ele>
        <time>2017-03-04T07:33:46Z</time>
      </trkpt>
      <trkpt lat="38.234229" lon="-1.709291">
        <ele>377.5</ele>
        <time>2017-03-04T07:33:59Z</time>
      </trkpt>
      <trkpt lat="38.234250" lon="-1.709453">
        <ele>377.0</ele>
        <time>2017-03-04T07:34:11Z</time>
      </trkpt>
      <trkpt lat="38.234247" lon="-1.709624">
        <ele>378.4</ele>
        <time>2017-03-04T07:34:24Z</time>
      </trkpt>
      <trkpt lat="38.234242" lon="-1.709723">
        <ele>380.3</ele>
        <time>2017-03-04T07:34:36Z</time>
      </trkpt>
      <trkpt lat="38.234217" lon="-1.709936">
        <ele>381.8</ele>
        <time>2017-03-04T07:34:50Z</time>
      </trkpt>
      <trkpt lat="38.234205" lon="-1.710023">
        <ele>382.7</ele>
        <time>2017-03-04T07:34:58Z</time>
      </trkpt>
      <trkpt lat="38.234214" lon="-1.710085">
        <ele>383.2</ele>
        <time>2017-03-04T07:35:02Z</time>
      </trkpt>
      <trkpt lat="38.234187" lon="-1.710275">
        <ele>386.6</ele>
        <time>2017-03-04T07:35:16Z</time>
      </trkpt>
      <trkpt lat="38.234167" lon="-1.710295">
        <ele>387.1</ele>
        <time>2017-03-04T07:35:19Z</time>
      </trkpt>
      <trkpt lat="38.234135" lon="-1.710363">
        <ele>388.0</ele>
        <time>2017-03-04T07:35:26Z</time>
      </trkpt>
      <trkpt lat="38.234110" lon="-1.710502">
        <ele>390.4</ele>
        <time>2017-03-04T07:35:38Z</time>
      </trkpt>
      <trkpt lat="38.234108" lon="-1.710536">
        <ele>391.4</ele>
        <time>2017-03-04T07:35:41Z</time>
      </trkpt>
      <trkpt lat="38.234105" lon="-1.710645">
        <ele>392.4</ele>
        <time>2017-03-04T07:35:49Z</time>
      </trkpt>
      <trkpt lat="38.234093" lon="-1.710670">
        <ele>392.4</ele>
        <time>2017-03-04T07:36:04Z</time>
      </trkpt>
      <trkpt lat="38.234107" lon="-1.710676">
        <ele>393.8</ele>
        <time>2017-03-04T07:36:33Z</time>
      </trkpt>
      <trkpt lat="38.234097" lon="-1.710765">
        <ele>393.3</ele>
        <time>2017-03-04T07:36:38Z</time>
      </trkpt>
      <trkpt lat="38.234095" lon="-1.710801">
        <ele>392.8</ele>
        <time>2017-03-04T07:36:40Z</time>
      </trkpt>
      <trkpt lat="38.234136" lon="-1.710991">
        <ele>394.3</ele>
        <time>2017-03-04T07:36:51Z</time>
      </trkpt>
      <trkpt lat="38.234186" lon="-1.711083">
        <ele>394.8</ele>
        <time>2017-03-04T07:37:03Z</time>
      </trkpt>
      <trkpt lat="38.234194" lon="-1.711089">
        <ele>394.8</ele>
        <time>2017-03-04T07:38:25Z</time>
      </trkpt>
      <trkpt lat="38.234216" lon="-1.711133">
        <ele>394.3</ele>
        <time>2017-03-04T07:38:28Z</time>
      </trkpt>
      <trkpt lat="38.234217" lon="-1.711169">
        <ele>395.7</ele>
        <time>2017-03-04T07:38:30Z</time>
      </trkpt>
      <trkpt lat="38.234217" lon="-1.711227">
        <ele>395.7</ele>
        <time>2017-03-04T07:38:34Z</time>
      </trkpt>
      <trkpt lat="38.234204" lon="-1.711283">
        <ele>396.2</ele>
        <time>2017-03-04T07:38:40Z</time>
      </trkpt>
      <trkpt lat="38.234219" lon="-1.711366">
        <ele>396.2</ele>
        <time>2017-03-04T07:38:46Z</time>
      </trkpt>
      <trkpt lat="38.234224" lon="-1.711628">
        <ele>396.2</ele>
        <time>2017-03-04T07:39:01Z</time>
      </trkpt>
      <trkpt lat="38.234220" lon="-1.711837">
        <ele>396.2</ele>
        <time>2017-03-04T07:39:14Z</time>
      </trkpt>
      <trkpt lat="38.234242" lon="-1.711967">
        <ele>394.3</ele>
        <time>2017-03-04T07:39:24Z</time>
      </trkpt>
      <trkpt lat="38.234241" lon="-1.712082">
        <ele>393.3</ele>
        <time>2017-03-04T07:39:36Z</time>
      </trkpt>
      <trkpt lat="38.234272" lon="-1.712275">
        <ele>391.4</ele>
        <time>2017-03-04T07:39:47Z</time>
      </trkpt>
      <trkpt lat="38.234303" lon="-1.712350">
        <ele>392.4</ele>
        <time>2017-03-04T07:39:52Z</time>
      </trkpt>
      <trkpt lat="38.234332" lon="-1.712404">
        <ele>392.4</ele>
        <time>2017-03-04T07:39:55Z</time>
      </trkpt>
      <trkpt lat="38.234376" lon="-1.712641">
        <ele>393.3</ele>
        <time>2017-03-04T07:40:08Z</time>
      </trkpt>
      <trkpt lat="38.234426" lon="-1.712696">
        <ele>393.3</ele>
        <time>2017-03-04T07:40:20Z</time>
      </trkpt>
      <trkpt lat="38.234467" lon="-1.712791">
        <ele>393.8</ele>
        <time>2017-03-04T07:40:26Z</time>
      </trkpt>
      <trkpt lat="38.234511" lon="-1.712857">
        <ele>394.3</ele>
        <time>2017-03-04T07:40:31Z</time>
      </trkpt>
      <trkpt lat="38.234530" lon="-1.712908">
        <ele>394.3</ele>
        <time>2017-03-04T07:40:34Z</time>
      </trkpt>
      <trkpt lat="38.234557" lon="-1.712961">
        <ele>394.8</ele>
        <time>2017-03-04T07:40:38Z</time>
      </trkpt>
      <trkpt lat="38.234626" lon="-1.713081">
        <ele>395.2</ele>
        <time>2017-03-04T07:40:47Z</time>
      </trkpt>
      <trkpt lat="38.234651" lon="-1.713144">
        <ele>395.2</ele>
        <time>2017-03-04T07:40:51Z</time>
      </trkpt>
      <trkpt lat="38.234741" lon="-1.713337">
        <ele>393.8</ele>
        <time>2017-03-04T07:41:04Z</time>
      </trkpt>
      <trkpt lat="38.234768" lon="-1.713406">
        <ele>394.3</ele>
        <time>2017-03-04T07:41:08Z</time>
      </trkpt>
      <trkpt lat="38.234826" lon="-1.713502">
        <ele>391.9</ele>
        <time>2017-03-04T07:41:16Z</time>
      </trkpt>
      <trkpt lat="38.234875" lon="-1.713579">
        <ele>391.4</ele>
        <time>2017-03-04T07:41:24Z</time>
      </trkpt>
      <trkpt lat="38.234886" lon="-1.713634">
        <ele>391.4</ele>
        <time>2017-03-04T07:41:27Z</time>
      </trkpt>
      <trkpt lat="38.235007" lon="-1.713854">
        <ele>388.5</ele>
        <time>2017-03-04T07:41:41Z</time>
      </trkpt>
      <trkpt lat="38.235085" lon="-1.714011">
        <ele>389.0</ele>
        <time>2017-03-04T07:41:51Z</time>
      </trkpt>
      <trkpt lat="38.235166" lon="-1.714266">
        <ele>390.0</ele>
        <time>2017-03-04T07:42:04Z</time>
      </trkpt>
      <trkpt lat="38.235259" lon="-1.714423">
        <ele>390.9</ele>
        <time>2017-03-04T07:42:15Z</time>
      </trkpt>
      <trkpt lat="38.235283" lon="-1.714500">
        <ele>390.9</ele>
        <time>2017-03-04T07:42:30Z</time>
      </trkpt>
      <trkpt lat="38.235303" lon="-1.714551">
        <ele>390.4</ele>
        <time>2017-03-04T07:42:33Z</time>
      </trkpt>
      <trkpt lat="38.235327" lon="-1.714618">
        <ele>390.9</ele>
        <time>2017-03-04T07:42:37Z</time>
      </trkpt>
      <trkpt lat="38.235369" lon="-1.714722">
        <ele>390.9</ele>
        <time>2017-03-04T07:42:43Z</time>
      </trkpt>
      <trkpt lat="38.235457" lon="-1.714946">
        <ele>390.4</ele>
        <time>2017-03-04T07:42:57Z</time>
      </trkpt>
      <trkpt lat="38.235467" lon="-1.714960">
        <ele>390.4</ele>
        <time>2017-03-04T07:42:58Z</time>
      </trkpt>
      <trkpt lat="38.235480" lon="-1.714984">
        <ele>390.4</ele>
        <time>2017-03-04T07:43:00Z</time>
      </trkpt>
      <trkpt lat="38.235487" lon="-1.715018">
        <ele>390.9</ele>
        <time>2017-03-04T07:43:02Z</time>
      </trkpt>
      <trkpt lat="38.235588" lon="-1.715168">
        <ele>389.5</ele>
        <time>2017-03-04T07:43:13Z</time>
      </trkpt>
      <trkpt lat="38.235648" lon="-1.715218">
        <ele>388.5</ele>
        <time>2017-03-04T07:43:18Z</time>
      </trkpt>
      <trkpt lat="38.235738" lon="-1.715298">
        <ele>388.5</ele>
        <time>2017-03-04T07:43:25Z</time>
      </trkpt>
      <trkpt lat="38.235797" lon="-1.715299">
        <ele>388.5</ele>
        <time>2017-03-04T07:43:29Z</time>
      </trkpt>
      <trkpt lat="38.236036" lon="-1.715295">
        <ele>389.0</ele>
        <time>2017-03-04T07:43:44Z</time>
      </trkpt>
      <trkpt lat="38.236115" lon="-1.715337">
        <ele>389.0</ele>
        <time>2017-03-04T07:43:49Z</time>
      </trkpt>
      <trkpt lat="38.236294" lon="-1.715378">
        <ele>387.5</ele>
        <time>2017-03-04T07:44:01Z</time>
      </trkpt>
      <trkpt lat="38.236511" lon="-1.715466">
        <ele>386.1</ele>
        <time>2017-03-04T07:44:17Z</time>
      </trkpt>
      <trkpt lat="38.236656" lon="-1.715674">
        <ele>384.2</ele>
        <time>2017-03-04T07:44:31Z</time>
      </trkpt>
      <trkpt lat="38.236667" lon="-1.715689">
        <ele>384.2</ele>
        <time>2017-03-04T07:44:32Z</time>
      </trkpt>
      <trkpt lat="38.236817" lon="-1.715893">
        <ele>383.7</ele>
        <time>2017-03-04T07:44:46Z</time>
      </trkpt>
      <trkpt lat="38.236902" lon="-1.716123">
        <ele>383.7</ele>
        <time>2017-03-04T07:45:00Z</time>
      </trkpt>
      <trkpt lat="38.236928" lon="-1.716285">
        <ele>383.7</ele>
        <time>2017-03-04T07:45:14Z</time>
      </trkpt>
      <trkpt lat="38.236936" lon="-1.716655">
        <ele>383.7</ele>
        <time>2017-03-04T07:45:31Z</time>
      </trkpt>
      <trkpt lat="38.236941" lon="-1.716903">
        <ele>383.2</ele>
        <time>2017-03-04T07:45:45Z</time>
      </trkpt>
      <trkpt lat="38.236929" lon="-1.717017">
        <ele>384.2</ele>
        <time>2017-03-04T07:45:50Z</time>
      </trkpt>
      <trkpt lat="38.236932" lon="-1.717034">
        <ele>384.2</ele>
        <time>2017-03-04T07:45:51Z</time>
      </trkpt>
      <trkpt lat="38.236933" lon="-1.717052">
        <ele>384.2</ele>
        <time>2017-03-04T07:45:52Z</time>
      </trkpt>
      <trkpt lat="38.236903" lon="-1.717340">
        <ele>386.6</ele>
        <time>2017-03-04T07:46:09Z</time>
      </trkpt>
      <trkpt lat="38.236895" lon="-1.717491">
        <ele>386.6</ele>
        <time>2017-03-04T07:46:21Z</time>
      </trkpt>
      <trkpt lat="38.236895" lon="-1.717510">
        <ele>386.6</ele>
        <time>2017-03-04T07:46:22Z</time>
      </trkpt>
      <trkpt lat="38.236896" lon="-1.717529">
        <ele>386.6</ele>
        <time>2017-03-04T07:46:23Z</time>
      </trkpt>
      <trkpt lat="38.236897" lon="-1.717546">
        <ele>386.6</ele>
        <time>2017-03-04T07:46:24Z</time>
      </trkpt>
      <trkpt lat="38.236897" lon="-1.717560">
        <ele>386.1</ele>
        <time>2017-03-04T07:46:25Z</time>
      </trkpt>
      <trkpt lat="38.236895" lon="-1.717577">
        <ele>387.1</ele>
        <time>2017-03-04T07:46:26Z</time>
      </trkpt>
      <trkpt lat="38.236894" lon="-1.717593">
        <ele>386.1</ele>
        <time>2017-03-04T07:46:27Z</time>
      </trkpt>
      <trkpt lat="38.236896" lon="-1.717610">
        <ele>386.6</ele>
        <time>2017-03-04T07:46:28Z</time>
      </trkpt>
      <trkpt lat="38.236896" lon="-1.717627">
        <ele>386.6</ele>
        <time>2017-03-04T07:46:29Z</time>
      </trkpt>
      <trkpt lat="38.236891" lon="-1.717647">
        <ele>386.6</ele>
        <time>2017-03-04T07:46:30Z</time>
      </trkpt>
      <trkpt lat="38.236885" lon="-1.717669">
        <ele>386.1</ele>
        <time>2017-03-04T07:46:31Z</time>
      </trkpt>
      <trkpt lat="38.236883" lon="-1.717688">
        <ele>386.1</ele>
        <time>2017-03-04T07:46:32Z</time>
      </trkpt>
      <trkpt lat="38.236882" lon="-1.717708">
        <ele>386.1</ele>
        <time>2017-03-04T07:46:33Z</time>
      </trkpt>
      <trkpt lat="38.236882" lon="-1.717726">
        <ele>386.1</ele>
        <time>2017-03-04T07:46:34Z</time>
      </trkpt>
      <trkpt lat="38.236883" lon="-1.717746">
        <ele>386.1</ele>
        <time>2017-03-04T07:46:35Z</time>
      </trkpt>
      <trkpt lat="38.236884" lon="-1.717767">
        <ele>386.6</ele>
        <time>2017-03-04T07:46:36Z</time>
      </trkpt>
      <trkpt lat="38.236885" lon="-1.717789">
        <ele>386.6</ele>
        <time>2017-03-04T07:46:37Z</time>
      </trkpt>
      <trkpt lat="38.236944" lon="-1.718092">
        <ele>386.6</ele>
        <time>2017-03-04T07:46:52Z</time>
      </trkpt>
      <trkpt lat="38.236941" lon="-1.718240">
        <ele>387.1</ele>
        <time>2017-03-04T07:47:00Z</time>
      </trkpt>
      <trkpt lat="38.236947" lon="-1.718251">
        <ele>386.6</ele>
        <time>2017-03-04T07:47:01Z</time>
      </trkpt>
      <trkpt lat="38.236950" lon="-1.718281">
        <ele>387.1</ele>
        <time>2017-03-04T07:47:08Z</time>
      </trkpt>
      <trkpt lat="38.236951" lon="-1.718299">
        <ele>386.6</ele>
        <time>2017-03-04T07:47:09Z</time>
      </trkpt>
      <trkpt lat="38.236953" lon="-1.718316">
        <ele>386.6</ele>
        <time>2017-03-04T07:47:10Z</time>
      </trkpt>
      <trkpt lat="38.236957" lon="-1.718332">
        <ele>386.1</ele>
        <time>2017-03-04T07:47:11Z</time>
      </trkpt>
      <trkpt lat="38.236958" lon="-1.718349">
        <ele>386.6</ele>
        <time>2017-03-04T07:47:12Z</time>
      </trkpt>
      <trkpt lat="38.236958" lon="-1.718366">
        <ele>386.6</ele>
        <time>2017-03-04T07:47:13Z</time>
      </trkpt>
      <trkpt lat="38.236954" lon="-1.718383">
        <ele>386.6</ele>
        <time>2017-03-04T07:47:14Z</time>
      </trkpt>
      <trkpt lat="38.236952" lon="-1.718402">
        <ele>386.6</ele>
        <time>2017-03-04T07:47:15Z</time>
      </trkpt>
      <trkpt lat="38.236949" lon="-1.718423">
        <ele>387.1</ele>
        <time>2017-03-04T07:47:16Z</time>
      </trkpt>
      <trkpt lat="38.236946" lon="-1.718445">
        <ele>387.1</ele>
        <time>2017-03-04T07:47:17Z</time>
      </trkpt>
      <trkpt lat="38.236943" lon="-1.718464">
        <ele>387.1</ele>
        <time>2017-03-04T07:47:18Z</time>
      </trkpt>
      <trkpt lat="38.236913" lon="-1.718594">
        <ele>387.5</ele>
        <time>2017-03-04T07:47:31Z</time>
      </trkpt>
      <trkpt lat="38.236914" lon="-1.718612">
        <ele>387.1</ele>
        <time>2017-03-04T07:47:32Z</time>
      </trkpt>
      <trkpt lat="38.236922" lon="-1.718848">
        <ele>387.5</ele>
        <time>2017-03-04T07:47:44Z</time>
      </trkpt>
      <trkpt lat="38.236917" lon="-1.718863">
        <ele>388.0</ele>
        <time>2017-03-04T07:47:45Z</time>
      </trkpt>
      <trkpt lat="38.236915" lon="-1.718877">
        <ele>388.0</ele>
        <time>2017-03-04T07:47:46Z</time>
      </trkpt>
      <trkpt lat="38.236912" lon="-1.718894">
        <ele>388.5</ele>
        <time>2017-03-04T07:47:47Z</time>
      </trkpt>
      <trkpt lat="38.236911" lon="-1.718915">
        <ele>388.0</ele>
        <time>2017-03-04T07:47:48Z</time>
      </trkpt>
      <trkpt lat="38.236912" lon="-1.718933">
        <ele>388.0</ele>
        <time>2017-03-04T07:47:49Z</time>
      </trkpt>
      <trkpt lat="38.236919" lon="-1.719179">
        <ele>390.0</ele>
        <time>2017-03-04T07:48:04Z</time>
      </trkpt>
      <trkpt lat="38.236924" lon="-1.719330">
        <ele>391.9</ele>
        <time>2017-03-04T07:48:13Z</time>
      </trkpt>
      <trkpt lat="38.236954" lon="-1.719545">
        <ele>393.3</ele>
        <time>2017-03-04T07:48:26Z</time>
      </trkpt>
      <trkpt lat="38.236945" lon="-1.719792">
        <ele>396.2</ele>
        <time>2017-03-04T07:48:40Z</time>
      </trkpt>
      <trkpt lat="38.236941" lon="-1.719978">
        <ele>399.1</ele>
        <time>2017-03-04T07:48:52Z</time>
      </trkpt>
      <trkpt lat="38.236876" lon="-1.720238">
        <ele>402.5</ele>
        <time>2017-03-04T07:49:07Z</time>
      </trkpt>
      <trkpt lat="38.236832" lon="-1.720333">
        <ele>402.9</ele>
        <time>2017-03-04T07:49:14Z</time>
      </trkpt>
      <trkpt lat="38.236828" lon="-1.720516">
        <ele>402.9</ele>
        <time>2017-03-04T07:49:25Z</time>
      </trkpt>
      <trkpt lat="38.236833" lon="-1.720550">
        <ele>402.9</ele>
        <time>2017-03-04T07:49:33Z</time>
      </trkpt>
      <trkpt lat="38.236833" lon="-1.720566">
        <ele>402.5</ele>
        <time>2017-03-04T07:49:34Z</time>
      </trkpt>
      <trkpt lat="38.236831" lon="-1.720585">
        <ele>402.9</ele>
        <time>2017-03-04T07:49:35Z</time>
      </trkpt>
      <trkpt lat="38.236829" lon="-1.720601">
        <ele>402.5</ele>
        <time>2017-03-04T07:49:36Z</time>
      </trkpt>
      <trkpt lat="38.236830" lon="-1.720616">
        <ele>402.9</ele>
        <time>2017-03-04T07:49:37Z</time>
      </trkpt>
      <trkpt lat="38.236832" lon="-1.720632">
        <ele>402.5</ele>
        <time>2017-03-04T07:49:38Z</time>
      </trkpt>
      <trkpt lat="38.236835" lon="-1.720649">
        <ele>402.5</ele>
        <time>2017-03-04T07:49:39Z</time>
      </trkpt>
      <trkpt lat="38.236831" lon="-1.720792">
        <ele>401.5</ele>
        <time>2017-03-04T07:49:46Z</time>
      </trkpt>
      <trkpt lat="38.236824" lon="-1.720809">
        <ele>401.5</ele>
        <time>2017-03-04T07:49:47Z</time>
      </trkpt>
      <trkpt lat="38.236819" lon="-1.720826">
        <ele>401.5</ele>
        <time>2017-03-04T07:49:48Z</time>
      </trkpt>
      <trkpt lat="38.236829" lon="-1.720819">
        <ele>401.5</ele>
        <time>2017-03-04T07:49:59Z</time>
      </trkpt>
      <trkpt lat="38.236823" lon="-1.720821">
        <ele>401.0</ele>
        <time>2017-03-04T07:50:15Z</time>
      </trkpt>
      <trkpt lat="38.236819" lon="-1.721029">
        <ele>400.5</ele>
        <time>2017-03-04T07:50:27Z</time>
      </trkpt>
      <trkpt lat="38.236822" lon="-1.721249">
        <ele>400.5</ele>
        <time>2017-03-04T07:50:40Z</time>
      </trkpt>
      <trkpt lat="38.236829" lon="-1.721369">
        <ele>400.5</ele>
        <time>2017-03-04T07:50:48Z</time>
      </trkpt>
      <trkpt lat="38.236831" lon="-1.721381">
        <ele>401.0</ele>
        <time>2017-03-04T07:50:49Z</time>
      </trkpt>
      <trkpt lat="38.236833" lon="-1.721396">
        <ele>400.5</ele>
        <time>2017-03-04T07:50:50Z</time>
      </trkpt>
      <trkpt lat="38.236846" lon="-1.721607">
        <ele>399.6</ele>
        <time>2017-03-04T07:51:04Z</time>
      </trkpt>
      <trkpt lat="38.236852" lon="-1.721804">
        <ele>399.6</ele>
        <time>2017-03-04T07:51:16Z</time>
      </trkpt>
      <trkpt lat="38.236845" lon="-1.721857">
        <ele>399.6</ele>
        <time>2017-03-04T07:51:19Z</time>
      </trkpt>
      <trkpt lat="38.236846" lon="-1.721874">
        <ele>399.6</ele>
        <time>2017-03-04T07:51:20Z</time>
      </trkpt>
      <trkpt lat="38.236848" lon="-1.721889">
        <ele>399.6</ele>
        <time>2017-03-04T07:51:21Z</time>
      </trkpt>
      <trkpt lat="38.236868" lon="-1.722107">
        <ele>398.6</ele>
        <time>2017-03-04T07:51:34Z</time>
      </trkpt>
      <trkpt lat="38.236873" lon="-1.722196">
        <ele>398.1</ele>
        <time>2017-03-04T07:51:40Z</time>
      </trkpt>
      <trkpt lat="38.236873" lon="-1.722212">
        <ele>398.1</ele>
        <time>2017-03-04T07:51:41Z</time>
      </trkpt>
      <trkpt lat="38.236873" lon="-1.722227">
        <ele>398.1</ele>
        <time>2017-03-04T07:51:42Z</time>
      </trkpt>
      <trkpt lat="38.236873" lon="-1.722245">
        <ele>398.1</ele>
        <time>2017-03-04T07:51:43Z</time>
      </trkpt>
      <trkpt lat="38.236875" lon="-1.722260">
        <ele>397.6</ele>
        <time>2017-03-04T07:51:44Z</time>
      </trkpt>
      <trkpt lat="38.236876" lon="-1.722277">
        <ele>397.6</ele>
        <time>2017-03-04T07:51:45Z</time>
      </trkpt>
      <trkpt lat="38.236875" lon="-1.722298">
        <ele>398.1</ele>
        <time>2017-03-04T07:51:46Z</time>
      </trkpt>
      <trkpt lat="38.236880" lon="-1.722421">
        <ele>398.1</ele>
        <time>2017-03-04T07:51:53Z</time>
      </trkpt>
      <trkpt lat="38.236887" lon="-1.722432">
        <ele>398.6</ele>
        <time>2017-03-04T07:51:54Z</time>
      </trkpt>
      <trkpt lat="38.236894" lon="-1.722445">
        <ele>398.1</ele>
        <time>2017-03-04T07:51:55Z</time>
      </trkpt>
      <trkpt lat="38.236900" lon="-1.722457">
        <ele>399.1</ele>
        <time>2017-03-04T07:51:56Z</time>
      </trkpt>
      <trkpt lat="38.236904" lon="-1.722468">
        <ele>398.6</ele>
        <time>2017-03-04T07:51:57Z</time>
      </trkpt>
      <trkpt lat="38.236908" lon="-1.722477">
        <ele>399.6</ele>
        <time>2017-03-04T07:51:58Z</time>
      </trkpt>
      <trkpt lat="38.236911" lon="-1.722490">
        <ele>399.6</ele>
        <time>2017-03-04T07:51:59Z</time>
      </trkpt>
      <trkpt lat="38.236941" lon="-1.722637">
        <ele>401.0</ele>
        <time>2017-03-04T07:52:11Z</time>
      </trkpt>
      <trkpt lat="38.236904" lon="-1.722805">
        <ele>400.0</ele>
        <time>2017-03-04T07:52:23Z</time>
      </trkpt>
      <trkpt lat="38.236865" lon="-1.722889">
        <ele>400.0</ele>
        <time>2017-03-04T07:52:29Z</time>
      </trkpt>
      <trkpt lat="38.236862" lon="-1.722907">
        <ele>400.0</ele>
        <time>2017-03-04T07:52:30Z</time>
      </trkpt>
      <trkpt lat="38.236859" lon="-1.722921">
        <ele>399.6</ele>
        <time>2017-03-04T07:52:31Z</time>
      </trkpt>
      <trkpt lat="38.236855" lon="-1.722938">
        <ele>399.6</ele>
        <time>2017-03-04T07:52:32Z</time>
      </trkpt>
      <trkpt lat="38.236824" lon="-1.723122">
        <ele>398.6</ele>
        <time>2017-03-04T07:52:43Z</time>
      </trkpt>
      <trkpt lat="38.236820" lon="-1.723139">
        <ele>398.1</ele>
        <time>2017-03-04T07:52:44Z</time>
      </trkpt>
      <trkpt lat="38.236820" lon="-1.723156">
        <ele>398.1</ele>
        <time>2017-03-04T07:52:45Z</time>
      </trkpt>
      <trkpt lat="38.236773" lon="-1.723396">
        <ele>397.6</ele>
        <time>2017-03-04T07:52:59Z</time>
      </trkpt>
      <trkpt lat="38.236770" lon="-1.723444">
        <ele>397.2</ele>
        <time>2017-03-04T07:53:02Z</time>
      </trkpt>
      <trkpt lat="38.236771" lon="-1.723461">
        <ele>397.2</ele>
        <time>2017-03-04T07:53:03Z</time>
      </trkpt>
      <trkpt lat="38.236770" lon="-1.723479">
        <ele>397.2</ele>
        <time>2017-03-04T07:53:04Z</time>
      </trkpt>
      <trkpt lat="38.236798" lon="-1.723720">
        <ele>396.7</ele>
        <time>2017-03-04T07:53:19Z</time>
      </trkpt>
      <trkpt lat="38.236817" lon="-1.723834">
        <ele>396.7</ele>
        <time>2017-03-04T07:53:26Z</time>
      </trkpt>
      <trkpt lat="38.236819" lon="-1.723849">
        <ele>397.2</ele>
        <time>2017-03-04T07:53:27Z</time>
      </trkpt>
      <trkpt lat="38.236821" lon="-1.723866">
        <ele>396.2</ele>
        <time>2017-03-04T07:53:28Z</time>
      </trkpt>
      <trkpt lat="38.236825" lon="-1.723884">
        <ele>396.7</ele>
        <time>2017-03-04T07:53:29Z</time>
      </trkpt>
      <trkpt lat="38.236827" lon="-1.723900">
        <ele>397.2</ele>
        <time>2017-03-04T07:53:30Z</time>
      </trkpt>
      <trkpt lat="38.236828" lon="-1.723914">
        <ele>397.2</ele>
        <time>2017-03-04T07:53:31Z</time>
      </trkpt>
      <trkpt lat="38.236827" lon="-1.723932">
        <ele>397.2</ele>
        <time>2017-03-04T07:53:32Z</time>
      </trkpt>
      <trkpt lat="38.236836" lon="-1.724029">
        <ele>397.2</ele>
        <time>2017-03-04T07:53:38Z</time>
      </trkpt>
      <trkpt lat="38.236841" lon="-1.724044">
        <ele>397.2</ele>
        <time>2017-03-04T07:53:39Z</time>
      </trkpt>
      <trkpt lat="38.236841" lon="-1.724061">
        <ele>397.2</ele>
        <time>2017-03-04T07:53:40Z</time>
      </trkpt>
      <trkpt lat="38.236840" lon="-1.724080">
        <ele>397.2</ele>
        <time>2017-03-04T07:53:41Z</time>
      </trkpt>
      <trkpt lat="38.236840" lon="-1.724308">
        <ele>397.2</ele>
        <time>2017-03-04T07:53:56Z</time>
      </trkpt>
      <trkpt lat="38.236787" lon="-1.724525">
        <ele>395.7</ele>
        <time>2017-03-04T07:54:10Z</time>
      </trkpt>
      <trkpt lat="38.236748" lon="-1.724752">
        <ele>396.2</ele>
        <time>2017-03-04T07:54:24Z</time>
      </trkpt>
      <trkpt lat="38.236728" lon="-1.724882">
        <ele>395.7</ele>
        <time>2017-03-04T07:54:33Z</time>
      </trkpt>
      <trkpt lat="38.236728" lon="-1.724900">
        <ele>395.7</ele>
        <time>2017-03-04T07:54:34Z</time>
      </trkpt>
      <trkpt lat="38.236730" lon="-1.724917">
        <ele>395.7</ele>
        <time>2017-03-04T07:54:35Z</time>
      </trkpt>
      <trkpt lat="38.236732" lon="-1.724932">
        <ele>395.7</ele>
        <time>2017-03-04T07:54:36Z</time>
      </trkpt>
      <trkpt lat="38.236734" lon="-1.724950">
        <ele>395.2</ele>
        <time>2017-03-04T07:54:37Z</time>
      </trkpt>
      <trkpt lat="38.236737" lon="-1.724967">
        <ele>395.2</ele>
        <time>2017-03-04T07:54:38Z</time>
      </trkpt>
      <trkpt lat="38.236741" lon="-1.724984">
        <ele>395.7</ele>
        <time>2017-03-04T07:54:39Z</time>
      </trkpt>
      <trkpt lat="38.236743" lon="-1.724998">
        <ele>395.7</ele>
        <time>2017-03-04T07:54:40Z</time>
      </trkpt>
      <trkpt lat="38.236743" lon="-1.725013">
        <ele>395.2</ele>
        <time>2017-03-04T07:54:41Z</time>
      </trkpt>
      <trkpt lat="38.236771" lon="-1.725184">
        <ele>396.7</ele>
        <time>2017-03-04T07:54:53Z</time>
      </trkpt>
      <trkpt lat="38.236792" lon="-1.725377">
        <ele>396.7</ele>
        <time>2017-03-04T07:55:08Z</time>
      </trkpt>
      <trkpt lat="38.236793" lon="-1.725404">
        <ele>396.7</ele>
        <time>2017-03-04T07:55:10Z</time>
      </trkpt>
      <trkpt lat="38.236798" lon="-1.725659">
        <ele>395.7</ele>
        <time>2017-03-04T07:55:29Z</time>
      </trkpt>
      <trkpt lat="38.236828" lon="-1.725781">
        <ele>396.2</ele>
        <time>2017-03-04T07:55:40Z</time>
      </trkpt>
      <trkpt lat="38.236829" lon="-1.725819">
        <ele>396.7</ele>
        <time>2017-03-04T07:55:43Z</time>
      </trkpt>
      <trkpt lat="38.236829" lon="-1.725834">
        <ele>396.7</ele>
        <time>2017-03-04T07:55:44Z</time>
      </trkpt>
      <trkpt lat="38.236820" lon="-1.726056">
        <ele>394.8</ele>
        <time>2017-03-04T07:56:02Z</time>
      </trkpt>
      <trkpt lat="38.236803" lon="-1.726242">
        <ele>392.4</ele>
        <time>2017-03-04T07:56:19Z</time>
      </trkpt>
      <trkpt lat="38.236801" lon="-1.726427">
        <ele>391.4</ele>
        <time>2017-03-04T07:56:31Z</time>
      </trkpt>
      <trkpt lat="38.236843" lon="-1.726658">
        <ele>391.4</ele>
        <time>2017-03-04T07:56:47Z</time>
      </trkpt>
      <trkpt lat="38.236884" lon="-1.726896">
        <ele>390.4</ele>
        <time>2017-03-04T07:57:04Z</time>
      </trkpt>
      <trkpt lat="38.236887" lon="-1.727097">
        <ele>389.5</ele>
        <time>2017-03-04T07:57:17Z</time>
      </trkpt>
      <trkpt lat="38.236880" lon="-1.727223">
        <ele>389.5</ele>
        <time>2017-03-04T07:57:26Z</time>
      </trkpt>
      <trkpt lat="38.236873" lon="-1.727240">
        <ele>389.0</ele>
        <time>2017-03-04T07:57:27Z</time>
      </trkpt>
      <trkpt lat="38.236858" lon="-1.727360">
        <ele>389.0</ele>
        <time>2017-03-04T07:57:35Z</time>
      </trkpt>
      <trkpt lat="38.236853" lon="-1.727377">
        <ele>389.0</ele>
        <time>2017-03-04T07:57:36Z</time>
      </trkpt>
      <trkpt lat="38.236849" lon="-1.727394">
        <ele>389.0</ele>
        <time>2017-03-04T07:57:37Z</time>
      </trkpt>
      <trkpt lat="38.236843" lon="-1.727411">
        <ele>389.0</ele>
        <time>2017-03-04T07:57:38Z</time>
      </trkpt>
      <trkpt lat="38.236836" lon="-1.727427">
        <ele>388.5</ele>
        <time>2017-03-04T07:57:39Z</time>
      </trkpt>
      <trkpt lat="38.236829" lon="-1.727443">
        <ele>389.0</ele>
        <time>2017-03-04T07:57:40Z</time>
      </trkpt>
      <trkpt lat="38.236825" lon="-1.727462">
        <ele>389.0</ele>
        <time>2017-03-04T07:57:41Z</time>
      </trkpt>
      <trkpt lat="38.236822" lon="-1.727480">
        <ele>388.5</ele>
        <time>2017-03-04T07:57:42Z</time>
      </trkpt>
      <trkpt lat="38.236781" lon="-1.727714">
        <ele>389.5</ele>
        <time>2017-03-04T07:57:57Z</time>
      </trkpt>
      <trkpt lat="38.236768" lon="-1.727794">
        <ele>389.5</ele>
        <time>2017-03-04T07:58:02Z</time>
      </trkpt>
      <trkpt lat="38.236766" lon="-1.727811">
        <ele>389.5</ele>
        <time>2017-03-04T07:58:03Z</time>
      </trkpt>
      <trkpt lat="38.236758" lon="-1.727826">
        <ele>389.0</ele>
        <time>2017-03-04T07:58:04Z</time>
      </trkpt>
      <trkpt lat="38.236724" lon="-1.727881">
        <ele>389.5</ele>
        <time>2017-03-04T07:58:08Z</time>
      </trkpt>
      <trkpt lat="38.236715" lon="-1.727894">
        <ele>388.5</ele>
        <time>2017-03-04T07:58:09Z</time>
      </trkpt>
      <trkpt lat="38.236693" lon="-1.727941">
        <ele>390.0</ele>
        <time>2017-03-04T07:58:12Z</time>
      </trkpt>
      <trkpt lat="38.236604" lon="-1.728181">
        <ele>390.9</ele>
        <time>2017-03-04T07:58:28Z</time>
      </trkpt>
      <trkpt lat="38.236545" lon="-1.728306">
        <ele>391.9</ele>
        <time>2017-03-04T07:58:37Z</time>
      </trkpt>
      <trkpt lat="38.236540" lon="-1.728318">
        <ele>392.4</ele>
        <time>2017-03-04T07:58:38Z</time>
      </trkpt>
      <trkpt lat="38.236518" lon="-1.728374">
        <ele>393.3</ele>
        <time>2017-03-04T07:58:51Z</time>
      </trkpt>
      <trkpt lat="38.236403" lon="-1.728480">
        <ele>394.8</ele>
        <time>2017-03-04T07:59:09Z</time>
      </trkpt>
      <trkpt lat="38.236334" lon="-1.728579">
        <ele>395.2</ele>
        <time>2017-03-04T07:59:24Z</time>
      </trkpt>
      <trkpt lat="38.236307" lon="-1.728616">
        <ele>394.3</ele>
        <time>2017-03-04T07:59:40Z</time>
      </trkpt>
      <trkpt lat="38.236322" lon="-1.728612">
        <ele>395.2</ele>
        <time>2017-03-04T07:59:57Z</time>
      </trkpt>
      <trkpt lat="38.236288" lon="-1.728636">
        <ele>394.8</ele>
        <time>2017-03-04T08:00:13Z</time>
      </trkpt>
      <trkpt lat="38.236237" lon="-1.728704">
        <ele>394.3</ele>
        <time>2017-03-04T08:00:21Z</time>
      </trkpt>
      <trkpt lat="38.236230" lon="-1.728716">
        <ele>394.8</ele>
        <time>2017-03-04T08:00:22Z</time>
      </trkpt>
      <trkpt lat="38.236225" lon="-1.728729">
        <ele>394.8</ele>
        <time>2017-03-04T08:00:23Z</time>
      </trkpt>
      <trkpt lat="38.236171" lon="-1.728809">
        <ele>394.8</ele>
        <time>2017-03-04T08:00:33Z</time>
      </trkpt>
      <trkpt lat="38.236125" lon="-1.728864">
        <ele>394.8</ele>
        <time>2017-03-04T08:00:48Z</time>
      </trkpt>
      <trkpt lat="38.235959" lon="-1.729069">
        <ele>393.8</ele>
        <time>2017-03-04T08:01:07Z</time>
      </trkpt>
      <trkpt lat="38.235813" lon="-1.729240">
        <ele>395.7</ele>
        <time>2017-03-04T08:01:23Z</time>
      </trkpt>
      <trkpt lat="38.235690" lon="-1.729394">
        <ele>396.7</ele>
        <time>2017-03-04T08:01:38Z</time>
      </trkpt>
      <trkpt lat="38.235622" lon="-1.729534">
        <ele>398.6</ele>
        <time>2017-03-04T08:01:52Z</time>
      </trkpt>
      <trkpt lat="38.235591" lon="-1.729573">
        <ele>399.1</ele>
        <time>2017-03-04T08:01:57Z</time>
      </trkpt>
      <trkpt lat="38.235430" lon="-1.729749">
        <ele>400.0</ele>
        <time>2017-03-04T08:02:16Z</time>
      </trkpt>
      <trkpt lat="38.235316" lon="-1.729905">
        <ele>402.0</ele>
        <time>2017-03-04T08:02:29Z</time>
      </trkpt>
      <trkpt lat="38.235309" lon="-1.729914">
        <ele>402.0</ele>
        <time>2017-03-04T08:02:30Z</time>
      </trkpt>
      <trkpt lat="38.235301" lon="-1.729925">
        <ele>402.5</ele>
        <time>2017-03-04T08:02:31Z</time>
      </trkpt>
      <trkpt lat="38.235295" lon="-1.729939">
        <ele>402.5</ele>
        <time>2017-03-04T08:02:32Z</time>
      </trkpt>
      <trkpt lat="38.235289" lon="-1.729950">
        <ele>402.0</ele>
        <time>2017-03-04T08:02:33Z</time>
      </trkpt>
      <trkpt lat="38.235252" lon="-1.730023">
        <ele>403.4</ele>
        <time>2017-03-04T08:02:39Z</time>
      </trkpt>
      <trkpt lat="38.235221" lon="-1.730064">
        <ele>404.4</ele>
        <time>2017-03-04T08:02:44Z</time>
      </trkpt>
      <trkpt lat="38.235203" lon="-1.730101">
        <ele>404.9</ele>
        <time>2017-03-04T08:02:47Z</time>
      </trkpt>
      <trkpt lat="38.235097" lon="-1.730187">
        <ele>405.3</ele>
        <time>2017-03-04T08:02:58Z</time>
      </trkpt>
      <trkpt lat="38.234965" lon="-1.730309">
        <ele>404.9</ele>
        <time>2017-03-04T08:03:11Z</time>
      </trkpt>
      <trkpt lat="38.234912" lon="-1.730473">
        <ele>406.3</ele>
        <time>2017-03-04T08:03:23Z</time>
      </trkpt>
      <trkpt lat="38.234897" lon="-1.730503">
        <ele>406.3</ele>
        <time>2017-03-04T08:03:26Z</time>
      </trkpt>
      <trkpt lat="38.234802" lon="-1.730671">
        <ele>406.8</ele>
        <time>2017-03-04T08:03:39Z</time>
      </trkpt>
      <trkpt lat="38.234691" lon="-1.730862">
        <ele>404.4</ele>
        <time>2017-03-04T08:03:54Z</time>
      </trkpt>
      <trkpt lat="38.234628" lon="-1.731008">
        <ele>404.4</ele>
        <time>2017-03-04T08:04:08Z</time>
      </trkpt>
      <trkpt lat="38.234590" lon="-1.731103">
        <ele>404.9</ele>
        <time>2017-03-04T08:04:20Z</time>
      </trkpt>
      <trkpt lat="38.234522" lon="-1.731234">
        <ele>405.3</ele>
        <time>2017-03-04T08:04:32Z</time>
      </trkpt>
      <trkpt lat="38.234508" lon="-1.731263">
        <ele>404.9</ele>
        <time>2017-03-04T08:04:34Z</time>
      </trkpt>
      <trkpt lat="38.234505" lon="-1.731280">
        <ele>404.9</ele>
        <time>2017-03-04T08:04:35Z</time>
      </trkpt>
      <trkpt lat="38.234499" lon="-1.731295">
        <ele>404.9</ele>
        <time>2017-03-04T08:04:36Z</time>
      </trkpt>
      <trkpt lat="38.234490" lon="-1.731307">
        <ele>404.9</ele>
        <time>2017-03-04T08:04:37Z</time>
      </trkpt>
      <trkpt lat="38.234486" lon="-1.731323">
        <ele>404.9</ele>
        <time>2017-03-04T08:04:38Z</time>
      </trkpt>
      <trkpt lat="38.234481" lon="-1.731340">
        <ele>404.9</ele>
        <time>2017-03-04T08:04:39Z</time>
      </trkpt>
      <trkpt lat="38.234476" lon="-1.731358">
        <ele>404.9</ele>
        <time>2017-03-04T08:04:40Z</time>
      </trkpt>
      <trkpt lat="38.234471" lon="-1.731379">
        <ele>404.9</ele>
        <time>2017-03-04T08:04:41Z</time>
      </trkpt>
      <trkpt lat="38.234466" lon="-1.731398">
        <ele>404.4</ele>
        <time>2017-03-04T08:04:42Z</time>
      </trkpt>
      <trkpt lat="38.234459" lon="-1.731412">
        <ele>404.4</ele>
        <time>2017-03-04T08:04:43Z</time>
      </trkpt>
      <trkpt lat="38.234454" lon="-1.731424">
        <ele>404.4</ele>
        <time>2017-03-04T08:04:44Z</time>
      </trkpt>
      <trkpt lat="38.234382" lon="-1.731638">
        <ele>404.4</ele>
        <time>2017-03-04T08:04:58Z</time>
      </trkpt>
      <trkpt lat="38.234313" lon="-1.731774">
        <ele>405.3</ele>
        <time>2017-03-04T08:05:09Z</time>
      </trkpt>
      <trkpt lat="38.234304" lon="-1.731786">
        <ele>405.3</ele>
        <time>2017-03-04T08:05:10Z</time>
      </trkpt>
      <trkpt lat="38.234295" lon="-1.731794">
        <ele>405.3</ele>
        <time>2017-03-04T08:05:11Z</time>
      </trkpt>
      <trkpt lat="38.234287" lon="-1.731807">
        <ele>405.3</ele>
        <time>2017-03-04T08:05:12Z</time>
      </trkpt>
      <trkpt lat="38.234277" lon="-1.731816">
        <ele>405.3</ele>
        <time>2017-03-04T08:05:13Z</time>
      </trkpt>
      <trkpt lat="38.234266" lon="-1.731825">
        <ele>405.3</ele>
        <time>2017-03-04T08:05:14Z</time>
      </trkpt>
      <trkpt lat="38.234246" lon="-1.731837">
        <ele>405.8</ele>
        <time>2017-03-04T08:05:16Z</time>
      </trkpt>
      <trkpt lat="38.234240" lon="-1.731848">
        <ele>405.3</ele>
        <time>2017-03-04T08:05:17Z</time>
      </trkpt>
      <trkpt lat="38.234221" lon="-1.731862">
        <ele>405.8</ele>
        <time>2017-03-04T08:05:19Z</time>
      </trkpt>
      <trkpt lat="38.234209" lon="-1.731870">
        <ele>405.8</ele>
        <time>2017-03-04T08:05:20Z</time>
      </trkpt>
      <trkpt lat="38.234199" lon="-1.731876">
        <ele>406.3</ele>
        <time>2017-03-04T08:05:21Z</time>
      </trkpt>
      <trkpt lat="38.234180" lon="-1.731891">
        <ele>405.8</ele>
        <time>2017-03-04T08:05:23Z</time>
      </trkpt>
      <trkpt lat="38.234172" lon="-1.731902">
        <ele>405.8</ele>
        <time>2017-03-04T08:05:24Z</time>
      </trkpt>
      <trkpt lat="38.234161" lon="-1.731910">
        <ele>405.8</ele>
        <time>2017-03-04T08:05:25Z</time>
      </trkpt>
      <trkpt lat="38.234136" lon="-1.731930">
        <ele>406.3</ele>
        <time>2017-03-04T08:05:28Z</time>
      </trkpt>
      <trkpt lat="38.234126" lon="-1.731937">
        <ele>405.8</ele>
        <time>2017-03-04T08:05:29Z</time>
      </trkpt>
      <trkpt lat="38.234108" lon="-1.731948">
        <ele>406.3</ele>
        <time>2017-03-04T08:05:31Z</time>
      </trkpt>
      <trkpt lat="38.234079" lon="-1.731978">
        <ele>406.8</ele>
        <time>2017-03-04T08:05:36Z</time>
      </trkpt>
      <trkpt lat="38.234060" lon="-1.731982">
        <ele>406.8</ele>
        <time>2017-03-04T08:05:38Z</time>
      </trkpt>
      <trkpt lat="38.233977" lon="-1.732035">
        <ele>406.8</ele>
        <time>2017-03-04T08:05:45Z</time>
      </trkpt>
      <trkpt lat="38.233965" lon="-1.732040">
        <ele>407.7</ele>
        <time>2017-03-04T08:05:46Z</time>
      </trkpt>
      <trkpt lat="38.233953" lon="-1.732047">
        <ele>407.3</ele>
        <time>2017-03-04T08:05:47Z</time>
      </trkpt>
      <trkpt lat="38.233941" lon="-1.732056">
        <ele>407.3</ele>
        <time>2017-03-04T08:05:48Z</time>
      </trkpt>
      <trkpt lat="38.233869" lon="-1.732103">
        <ele>407.7</ele>
        <time>2017-03-04T08:05:57Z</time>
      </trkpt>
      <trkpt lat="38.233838" lon="-1.732121">
        <ele>408.2</ele>
        <time>2017-03-04T08:05:59Z</time>
      </trkpt>
      <trkpt lat="38.233738" lon="-1.732186">
        <ele>407.7</ele>
        <time>2017-03-04T08:06:09Z</time>
      </trkpt>
      <trkpt lat="38.233628" lon="-1.732233">
        <ele>408.2</ele>
        <time>2017-03-04T08:06:19Z</time>
      </trkpt>
      <trkpt lat="38.233620" lon="-1.732242">
        <ele>408.7</ele>
        <time>2017-03-04T08:06:20Z</time>
      </trkpt>
      <trkpt lat="38.233608" lon="-1.732250">
        <ele>408.7</ele>
        <time>2017-03-04T08:06:21Z</time>
      </trkpt>
      <trkpt lat="38.233488" lon="-1.732299">
        <ele>408.7</ele>
        <time>2017-03-04T08:06:32Z</time>
      </trkpt>
      <trkpt lat="38.233475" lon="-1.732306">
        <ele>408.7</ele>
        <time>2017-03-04T08:06:33Z</time>
      </trkpt>
      <trkpt lat="38.233310" lon="-1.732388">
        <ele>408.7</ele>
        <time>2017-03-04T08:06:48Z</time>
      </trkpt>
      <trkpt lat="38.233243" lon="-1.732385">
        <ele>409.2</ele>
        <time>2017-03-04T08:06:53Z</time>
      </trkpt>
      <trkpt lat="38.233158" lon="-1.732421">
        <ele>409.7</ele>
        <time>2017-03-04T08:07:02Z</time>
      </trkpt>
      <trkpt lat="38.233058" lon="-1.732446">
        <ele>411.6</ele>
        <time>2017-03-04T08:07:12Z</time>
      </trkpt>
      <trkpt lat="38.232966" lon="-1.732461">
        <ele>412.5</ele>
        <time>2017-03-04T08:07:21Z</time>
      </trkpt>
      <trkpt lat="38.232955" lon="-1.732457">
        <ele>412.1</ele>
        <time>2017-03-04T08:07:22Z</time>
      </trkpt>
      <trkpt lat="38.232934" lon="-1.732458">
        <ele>412.1</ele>
        <time>2017-03-04T08:07:24Z</time>
      </trkpt>
      <trkpt lat="38.232921" lon="-1.732459">
        <ele>412.5</ele>
        <time>2017-03-04T08:07:25Z</time>
      </trkpt>
      <trkpt lat="38.232909" lon="-1.732460">
        <ele>412.5</ele>
        <time>2017-03-04T08:07:26Z</time>
      </trkpt>
      <trkpt lat="38.232897" lon="-1.732458">
        <ele>412.5</ele>
        <time>2017-03-04T08:07:27Z</time>
      </trkpt>
      <trkpt lat="38.232885" lon="-1.732453">
        <ele>412.5</ele>
        <time>2017-03-04T08:07:28Z</time>
      </trkpt>
      <trkpt lat="38.232874" lon="-1.732455">
        <ele>412.5</ele>
        <time>2017-03-04T08:07:29Z</time>
      </trkpt>
      <trkpt lat="38.232724" lon="-1.732465">
        <ele>412.1</ele>
        <time>2017-03-04T08:07:41Z</time>
      </trkpt>
      <trkpt lat="38.232699" lon="-1.732470">
        <ele>412.1</ele>
        <time>2017-03-04T08:07:43Z</time>
      </trkpt>
      <trkpt lat="38.232671" lon="-1.732467">
        <ele>411.6</ele>
        <time>2017-03-04T08:07:45Z</time>
      </trkpt>
      <trkpt lat="38.232658" lon="-1.732471">
        <ele>411.6</ele>
        <time>2017-03-04T08:07:46Z</time>
      </trkpt>
      <trkpt lat="38.232645" lon="-1.732474">
        <ele>411.1</ele>
        <time>2017-03-04T08:07:47Z</time>
      </trkpt>
      <trkpt lat="38.232631" lon="-1.732476">
        <ele>411.1</ele>
        <time>2017-03-04T08:07:48Z</time>
      </trkpt>
      <trkpt lat="38.232618" lon="-1.732480">
        <ele>411.1</ele>
        <time>2017-03-04T08:07:49Z</time>
      </trkpt>
      <trkpt lat="38.232607" lon="-1.732483">
        <ele>411.1</ele>
        <time>2017-03-04T08:07:50Z</time>
      </trkpt>
      <trkpt lat="38.232594" lon="-1.732482">
        <ele>411.1</ele>
        <time>2017-03-04T08:07:51Z</time>
      </trkpt>
      <trkpt lat="38.232583" lon="-1.732481">
        <ele>410.6</ele>
        <time>2017-03-04T08:07:52Z</time>
      </trkpt>
      <trkpt lat="38.232573" lon="-1.732484">
        <ele>411.1</ele>
        <time>2017-03-04T08:07:53Z</time>
      </trkpt>
      <trkpt lat="38.232513" lon="-1.732492">
        <ele>411.6</ele>
        <time>2017-03-04T08:07:58Z</time>
      </trkpt>
      <trkpt lat="38.232498" lon="-1.732488">
        <ele>411.1</ele>
        <time>2017-03-04T08:07:59Z</time>
      </trkpt>
      <trkpt lat="38.232487" lon="-1.732486">
        <ele>411.6</ele>
        <time>2017-03-04T08:08:00Z</time>
      </trkpt>
      <trkpt lat="38.232467" lon="-1.732486">
        <ele>411.6</ele>
        <time>2017-03-04T08:08:02Z</time>
      </trkpt>
      <trkpt lat="38.232457" lon="-1.732487">
        <ele>412.1</ele>
        <time>2017-03-04T08:08:03Z</time>
      </trkpt>
      <trkpt lat="38.232444" lon="-1.732483">
        <ele>411.6</ele>
        <time>2017-03-04T08:08:04Z</time>
      </trkpt>
      <trkpt lat="38.232371" lon="-1.732477">
        <ele>413.0</ele>
        <time>2017-03-04T08:08:11Z</time>
      </trkpt>
      <trkpt lat="38.232324" lon="-1.732491">
        <ele>413.5</ele>
        <time>2017-03-04T08:08:19Z</time>
      </trkpt>
      <trkpt lat="38.232303" lon="-1.732486">
        <ele>413.0</ele>
        <time>2017-03-04T08:08:21Z</time>
      </trkpt>
      <trkpt lat="38.232290" lon="-1.732485">
        <ele>412.5</ele>
        <time>2017-03-04T08:08:22Z</time>
      </trkpt>
      <trkpt lat="38.232278" lon="-1.732487">
        <ele>412.5</ele>
        <time>2017-03-04T08:08:23Z</time>
      </trkpt>
      <trkpt lat="38.232264" lon="-1.732486">
        <ele>412.5</ele>
        <time>2017-03-04T08:08:24Z</time>
      </trkpt>
      <trkpt lat="38.232251" lon="-1.732485">
        <ele>412.5</ele>
        <time>2017-03-04T08:08:25Z</time>
      </trkpt>
      <trkpt lat="38.232077" lon="-1.732448">
        <ele>411.1</ele>
        <time>2017-03-04T08:08:39Z</time>
      </trkpt>
      <trkpt lat="38.231950" lon="-1.732413">
        <ele>412.5</ele>
        <time>2017-03-04T08:08:51Z</time>
      </trkpt>
      <trkpt lat="38.231808" lon="-1.732377">
        <ele>412.5</ele>
        <time>2017-03-04T08:09:02Z</time>
      </trkpt>
      <trkpt lat="38.231797" lon="-1.732372">
        <ele>412.5</ele>
        <time>2017-03-04T08:09:03Z</time>
      </trkpt>
      <trkpt lat="38.231613" lon="-1.732309">
        <ele>413.5</ele>
        <time>2017-03-04T08:09:18Z</time>
      </trkpt>
      <trkpt lat="38.231543" lon="-1.732279">
        <ele>412.1</ele>
        <time>2017-03-04T08:09:23Z</time>
      </trkpt>
      <trkpt lat="38.231529" lon="-1.732276">
        <ele>412.1</ele>
        <time>2017-03-04T08:09:24Z</time>
      </trkpt>
      <trkpt lat="38.231474" lon="-1.732260">
        <ele>411.6</ele>
        <time>2017-03-04T08:09:28Z</time>
      </trkpt>
      <trkpt lat="38.231462" lon="-1.732259">
        <ele>411.6</ele>
        <time>2017-03-04T08:09:29Z</time>
      </trkpt>
      <trkpt lat="38.231448" lon="-1.732256">
        <ele>411.6</ele>
        <time>2017-03-04T08:09:30Z</time>
      </trkpt>
      <trkpt lat="38.231434" lon="-1.732256">
        <ele>411.1</ele>
        <time>2017-03-04T08:09:31Z</time>
      </trkpt>
      <trkpt lat="38.231419" lon="-1.732256">
        <ele>411.6</ele>
        <time>2017-03-04T08:09:32Z</time>
      </trkpt>
      <trkpt lat="38.231403" lon="-1.732254">
        <ele>411.6</ele>
        <time>2017-03-04T08:09:33Z</time>
      </trkpt>
      <trkpt lat="38.231244" lon="-1.732300">
        <ele>411.6</ele>
        <time>2017-03-04T08:09:45Z</time>
      </trkpt>
      <trkpt lat="38.231230" lon="-1.732303">
        <ele>412.1</ele>
        <time>2017-03-04T08:09:46Z</time>
      </trkpt>
      <trkpt lat="38.231208" lon="-1.732307">
        <ele>412.5</ele>
        <time>2017-03-04T08:09:48Z</time>
      </trkpt>
      <trkpt lat="38.231195" lon="-1.732308">
        <ele>412.5</ele>
        <time>2017-03-04T08:09:49Z</time>
      </trkpt>
      <trkpt lat="38.231180" lon="-1.732308">
        <ele>412.5</ele>
        <time>2017-03-04T08:09:50Z</time>
      </trkpt>
      <trkpt lat="38.231166" lon="-1.732306">
        <ele>412.5</ele>
        <time>2017-03-04T08:09:51Z</time>
      </trkpt>
      <trkpt lat="38.231153" lon="-1.732307">
        <ele>412.5</ele>
        <time>2017-03-04T08:09:52Z</time>
      </trkpt>
      <trkpt lat="38.231142" lon="-1.732308">
        <ele>412.5</ele>
        <time>2017-03-04T08:09:53Z</time>
      </trkpt>
      <trkpt lat="38.231129" lon="-1.732304">
        <ele>412.5</ele>
        <time>2017-03-04T08:09:54Z</time>
      </trkpt>
      <trkpt lat="38.231117" lon="-1.732298">
        <ele>413.5</ele>
        <time>2017-03-04T08:09:55Z</time>
      </trkpt>
      <trkpt lat="38.231105" lon="-1.732289">
        <ele>413.0</ele>
        <time>2017-03-04T08:09:56Z</time>
      </trkpt>
      <trkpt lat="38.231029" lon="-1.732184">
        <ele>413.0</ele>
        <time>2017-03-04T08:10:04Z</time>
      </trkpt>
      <trkpt lat="38.231019" lon="-1.732177">
        <ele>413.0</ele>
        <time>2017-03-04T08:10:05Z</time>
      </trkpt>
      <trkpt lat="38.231010" lon="-1.732167">
        <ele>413.5</ele>
        <time>2017-03-04T08:10:06Z</time>
      </trkpt>
      <trkpt lat="38.231002" lon="-1.732156">
        <ele>413.0</ele>
        <time>2017-03-04T08:10:07Z</time>
      </trkpt>
      <trkpt lat="38.230991" lon="-1.732145">
        <ele>413.0</ele>
        <time>2017-03-04T08:10:08Z</time>
      </trkpt>
      <trkpt lat="38.230978" lon="-1.732137">
        <ele>413.5</ele>
        <time>2017-03-04T08:10:09Z</time>
      </trkpt>
      <trkpt lat="38.230965" lon="-1.732128">
        <ele>413.0</ele>
        <time>2017-03-04T08:10:10Z</time>
      </trkpt>
      <trkpt lat="38.230953" lon="-1.732121">
        <ele>413.0</ele>
        <time>2017-03-04T08:10:11Z</time>
      </trkpt>
      <trkpt lat="38.230848" lon="-1.732024">
        <ele>414.5</ele>
        <time>2017-03-04T08:10:22Z</time>
      </trkpt>
      <trkpt lat="38.230834" lon="-1.732020">
        <ele>414.0</ele>
        <time>2017-03-04T08:10:23Z</time>
      </trkpt>
      <trkpt lat="38.230822" lon="-1.732017">
        <ele>414.5</ele>
        <time>2017-03-04T08:10:24Z</time>
      </trkpt>
      <trkpt lat="38.230810" lon="-1.732010">
        <ele>414.5</ele>
        <time>2017-03-04T08:10:25Z</time>
      </trkpt>
      <trkpt lat="38.230796" lon="-1.731998">
        <ele>414.0</ele>
        <time>2017-03-04T08:10:26Z</time>
      </trkpt>
      <trkpt lat="38.230784" lon="-1.731986">
        <ele>414.5</ele>
        <time>2017-03-04T08:10:27Z</time>
      </trkpt>
      <trkpt lat="38.230741" lon="-1.731947">
        <ele>414.5</ele>
        <time>2017-03-04T08:10:31Z</time>
      </trkpt>
      <trkpt lat="38.230729" lon="-1.731944">
        <ele>415.0</ele>
        <time>2017-03-04T08:10:32Z</time>
      </trkpt>
      <trkpt lat="38.230717" lon="-1.731945">
        <ele>414.5</ele>
        <time>2017-03-04T08:10:33Z</time>
      </trkpt>
      <trkpt lat="38.230703" lon="-1.731945">
        <ele>415.0</ele>
        <time>2017-03-04T08:10:34Z</time>
      </trkpt>
      <trkpt lat="38.230689" lon="-1.731945">
        <ele>415.0</ele>
        <time>2017-03-04T08:10:35Z</time>
      </trkpt>
      <trkpt lat="38.230675" lon="-1.731945">
        <ele>415.0</ele>
        <time>2017-03-04T08:10:36Z</time>
      </trkpt>
      <trkpt lat="38.230614" lon="-1.731962">
        <ele>415.4</ele>
        <time>2017-03-04T08:10:41Z</time>
      </trkpt>
      <trkpt lat="38.230563" lon="-1.732015">
        <ele>415.9</ele>
        <time>2017-03-04T08:10:46Z</time>
      </trkpt>
      <trkpt lat="38.230554" lon="-1.732028">
        <ele>415.9</ele>
        <time>2017-03-04T08:10:47Z</time>
      </trkpt>
      <trkpt lat="38.230544" lon="-1.732038">
        <ele>415.9</ele>
        <time>2017-03-04T08:10:48Z</time>
      </trkpt>
      <trkpt lat="38.230458" lon="-1.732087">
        <ele>415.9</ele>
        <time>2017-03-04T08:10:55Z</time>
      </trkpt>
      <trkpt lat="38.230443" lon="-1.732093">
        <ele>415.9</ele>
        <time>2017-03-04T08:10:56Z</time>
      </trkpt>
      <trkpt lat="38.230346" lon="-1.732154">
        <ele>416.4</ele>
        <time>2017-03-04T08:11:05Z</time>
      </trkpt>
      <trkpt lat="38.230330" lon="-1.732155">
        <ele>416.4</ele>
        <time>2017-03-04T08:11:08Z</time>
      </trkpt>
      <trkpt lat="38.230339" lon="-1.732162">
        <ele>416.4</ele>
        <time>2017-03-04T08:11:09Z</time>
      </trkpt>
      <trkpt lat="38.230351" lon="-1.732172">
        <ele>415.9</ele>
        <time>2017-03-04T08:11:10Z</time>
      </trkpt>
      <trkpt lat="38.230371" lon="-1.732186">
        <ele>416.4</ele>
        <time>2017-03-04T08:11:12Z</time>
      </trkpt>
      <trkpt lat="38.230391" lon="-1.732262">
        <ele>415.9</ele>
        <time>2017-03-04T08:11:20Z</time>
      </trkpt>
      <trkpt lat="38.230405" lon="-1.732393">
        <ele>416.9</ele>
        <time>2017-03-04T08:11:30Z</time>
      </trkpt>
      <trkpt lat="38.230404" lon="-1.732421">
        <ele>417.4</ele>
        <time>2017-03-04T08:11:32Z</time>
      </trkpt>
      <trkpt lat="38.230399" lon="-1.732580">
        <ele>417.8</ele>
        <time>2017-03-04T08:11:44Z</time>
      </trkpt>
      <trkpt lat="38.230401" lon="-1.732593">
        <ele>417.8</ele>
        <time>2017-03-04T08:11:45Z</time>
      </trkpt>
      <trkpt lat="38.230403" lon="-1.732608">
        <ele>417.8</ele>
        <time>2017-03-04T08:11:46Z</time>
      </trkpt>
      <trkpt lat="38.230405" lon="-1.732622">
        <ele>418.3</ele>
        <time>2017-03-04T08:11:47Z</time>
      </trkpt>
      <trkpt lat="38.230409" lon="-1.732634">
        <ele>417.8</ele>
        <time>2017-03-04T08:11:48Z</time>
      </trkpt>
      <trkpt lat="38.230412" lon="-1.732649">
        <ele>417.4</ele>
        <time>2017-03-04T08:11:49Z</time>
      </trkpt>
      <trkpt lat="38.230414" lon="-1.732675">
        <ele>417.4</ele>
        <time>2017-03-04T08:11:51Z</time>
      </trkpt>
      <trkpt lat="38.230411" lon="-1.732691">
        <ele>417.8</ele>
        <time>2017-03-04T08:11:52Z</time>
      </trkpt>
      <trkpt lat="38.230407" lon="-1.732708">
        <ele>417.4</ele>
        <time>2017-03-04T08:11:53Z</time>
      </trkpt>
      <trkpt lat="38.230405" lon="-1.732723">
        <ele>417.4</ele>
        <time>2017-03-04T08:11:54Z</time>
      </trkpt>
      <trkpt lat="38.230403" lon="-1.732737">
        <ele>417.4</ele>
        <time>2017-03-04T08:11:55Z</time>
      </trkpt>
      <trkpt lat="38.230403" lon="-1.732752">
        <ele>417.8</ele>
        <time>2017-03-04T08:11:56Z</time>
      </trkpt>
      <trkpt lat="38.230404" lon="-1.732767">
        <ele>417.8</ele>
        <time>2017-03-04T08:11:57Z</time>
      </trkpt>
      <trkpt lat="38.230390" lon="-1.732984">
        <ele>417.8</ele>
        <time>2017-03-04T08:12:11Z</time>
      </trkpt>
      <trkpt lat="38.230371" lon="-1.733118">
        <ele>417.4</ele>
        <time>2017-03-04T08:12:23Z</time>
      </trkpt>
      <trkpt lat="38.230383" lon="-1.733145">
        <ele>417.4</ele>
        <time>2017-03-04T08:12:29Z</time>
      </trkpt>
      <trkpt lat="38.230377" lon="-1.733161">
        <ele>417.4</ele>
        <time>2017-03-04T08:12:30Z</time>
      </trkpt>
      <trkpt lat="38.230347" lon="-1.733245">
        <ele>416.9</ele>
        <time>2017-03-04T08:12:40Z</time>
      </trkpt>
      <trkpt lat="38.230347" lon="-1.733260">
        <ele>416.9</ele>
        <time>2017-03-04T08:12:41Z</time>
      </trkpt>
      <trkpt lat="38.230346" lon="-1.733277">
        <ele>417.4</ele>
        <time>2017-03-04T08:12:42Z</time>
      </trkpt>
      <trkpt lat="38.230283" lon="-1.733515">
        <ele>417.8</ele>
        <time>2017-03-04T08:12:55Z</time>
      </trkpt>
      <trkpt lat="38.230273" lon="-1.733532">
        <ele>418.3</ele>
        <time>2017-03-04T08:12:56Z</time>
      </trkpt>
      <trkpt lat="38.230263" lon="-1.733547">
        <ele>417.8</ele>
        <time>2017-03-04T08:12:57Z</time>
      </trkpt>
      <trkpt lat="38.230253" lon="-1.733563">
        <ele>417.8</ele>
        <time>2017-03-04T08:12:58Z</time>
      </trkpt>
      <trkpt lat="38.230245" lon="-1.733581">
        <ele>418.3</ele>
        <time>2017-03-04T08:12:59Z</time>
      </trkpt>
      <trkpt lat="38.230237" lon="-1.733596">
        <ele>418.3</ele>
        <time>2017-03-04T08:13:00Z</time>
      </trkpt>
      <trkpt lat="38.230227" lon="-1.733612">
        <ele>417.8</ele>
        <time>2017-03-04T08:13:01Z</time>
      </trkpt>
      <trkpt lat="38.230202" lon="-1.733653">
        <ele>418.3</ele>
        <time>2017-03-04T08:13:04Z</time>
      </trkpt>
      <trkpt lat="38.230192" lon="-1.733664">
        <ele>418.3</ele>
        <time>2017-03-04T08:13:05Z</time>
      </trkpt>
      <trkpt lat="38.230181" lon="-1.733676">
        <ele>418.8</ele>
        <time>2017-03-04T08:13:06Z</time>
      </trkpt>
      <trkpt lat="38.230170" lon="-1.733690">
        <ele>418.3</ele>
        <time>2017-03-04T08:13:07Z</time>
      </trkpt>
      <trkpt lat="38.230157" lon="-1.733705">
        <ele>418.3</ele>
        <time>2017-03-04T08:13:08Z</time>
      </trkpt>
      <trkpt lat="38.230143" lon="-1.733718">
        <ele>418.8</ele>
        <time>2017-03-04T08:13:09Z</time>
      </trkpt>
      <trkpt lat="38.229964" lon="-1.733894">
        <ele>417.8</ele>
        <time>2017-03-04T08:13:24Z</time>
      </trkpt>
      <trkpt lat="38.229938" lon="-1.733935">
        <ele>418.3</ele>
        <time>2017-03-04T08:13:27Z</time>
      </trkpt>
      <trkpt lat="38.229770" lon="-1.734104">
        <ele>418.3</ele>
        <time>2017-03-04T08:13:43Z</time>
      </trkpt>
      <trkpt lat="38.229757" lon="-1.734118">
        <ele>417.8</ele>
        <time>2017-03-04T08:13:45Z</time>
      </trkpt>
      <trkpt lat="38.229747" lon="-1.734123">
        <ele>417.8</ele>
        <time>2017-03-04T08:13:46Z</time>
      </trkpt>
      <trkpt lat="38.229587" lon="-1.734202">
        <ele>417.4</ele>
        <time>2017-03-04T08:14:02Z</time>
      </trkpt>
      <trkpt lat="38.229384" lon="-1.734262">
        <ele>416.9</ele>
        <time>2017-03-04T08:14:18Z</time>
      </trkpt>
      <trkpt lat="38.229155" lon="-1.734322">
        <ele>416.4</ele>
        <time>2017-03-04T08:14:35Z</time>
      </trkpt>
      <trkpt lat="38.229090" lon="-1.734338">
        <ele>415.9</ele>
        <time>2017-03-04T08:14:48Z</time>
      </trkpt>
      <trkpt lat="38.229070" lon="-1.734354">
        <ele>416.4</ele>
        <time>2017-03-04T08:14:56Z</time>
      </trkpt>
      <trkpt lat="38.228999" lon="-1.734588">
        <ele>415.9</ele>
        <time>2017-03-04T08:15:13Z</time>
      </trkpt>
      <trkpt lat="38.229079" lon="-1.734776">
        <ele>416.4</ele>
        <time>2017-03-04T08:15:22Z</time>
      </trkpt>
      <trkpt lat="38.229092" lon="-1.734779">
        <ele>415.9</ele>
        <time>2017-03-04T08:15:23Z</time>
      </trkpt>
      <trkpt lat="38.229077" lon="-1.734881">
        <ele>417.4</ele>
        <time>2017-03-04T08:17:29Z</time>
      </trkpt>
      <trkpt lat="38.228828" lon="-1.734977">
        <ele>418.8</ele>
        <time>2017-03-04T08:17:47Z</time>
      </trkpt>
      <trkpt lat="38.228632" lon="-1.735076">
        <ele>418.8</ele>
        <time>2017-03-04T08:18:04Z</time>
      </trkpt>
      <trkpt lat="38.228580" lon="-1.735107">
        <ele>419.3</ele>
        <time>2017-03-04T08:18:17Z</time>
      </trkpt>
      <trkpt lat="38.228394" lon="-1.735145">
        <ele>421.2</ele>
        <time>2017-03-04T08:18:31Z</time>
      </trkpt>
      <trkpt lat="38.228356" lon="-1.735158">
        <ele>421.2</ele>
        <time>2017-03-04T08:18:38Z</time>
      </trkpt>
      <trkpt lat="38.228278" lon="-1.735178">
        <ele>422.2</ele>
        <time>2017-03-04T08:18:44Z</time>
      </trkpt>
      <trkpt lat="38.228091" lon="-1.735244">
        <ele>423.1</ele>
        <time>2017-03-04T08:18:59Z</time>
      </trkpt>
      <trkpt lat="38.228009" lon="-1.735261">
        <ele>423.1</ele>
        <time>2017-03-04T08:19:08Z</time>
      </trkpt>
      <trkpt lat="38.227947" lon="-1.735318">
        <ele>423.1</ele>
        <time>2017-03-04T08:19:14Z</time>
      </trkpt>
      <trkpt lat="38.227780" lon="-1.735407">
        <ele>422.6</ele>
        <time>2017-03-04T08:19:28Z</time>
      </trkpt>
      <trkpt lat="38.227781" lon="-1.735410">
        <ele>424.1</ele>
        <time>2017-03-04T08:19:30Z</time>
      </trkpt>
      <trkpt lat="38.227683" lon="-1.735501">
        <ele>424.6</ele>
        <time>2017-03-04T08:19:46Z</time>
      </trkpt>
      <trkpt lat="38.227554" lon="-1.735717">
        <ele>425.0</ele>
        <time>2017-03-04T08:20:03Z</time>
      </trkpt>
      <trkpt lat="38.227550" lon="-1.735725">
        <ele>425.0</ele>
        <time>2017-03-04T08:20:04Z</time>
      </trkpt>
      <trkpt lat="38.227521" lon="-1.735785">
        <ele>424.6</ele>
        <time>2017-03-04T08:20:09Z</time>
      </trkpt>
      <trkpt lat="38.227468" lon="-1.735874">
        <ele>426.0</ele>
        <time>2017-03-04T08:20:19Z</time>
      </trkpt>
      <trkpt lat="38.227426" lon="-1.735881">
        <ele>426.0</ele>
        <time>2017-03-04T08:20:23Z</time>
      </trkpt>
      <trkpt lat="38.227219" lon="-1.735990">
        <ele>427.0</ele>
        <time>2017-03-04T08:20:40Z</time>
      </trkpt>
      <trkpt lat="38.227010" lon="-1.736055">
        <ele>428.4</ele>
        <time>2017-03-04T08:20:56Z</time>
      </trkpt>
      <trkpt lat="38.226840" lon="-1.736114">
        <ele>429.4</ele>
        <time>2017-03-04T08:21:09Z</time>
      </trkpt>
      <trkpt lat="38.226747" lon="-1.736148">
        <ele>430.8</ele>
        <time>2017-03-04T08:21:16Z</time>
      </trkpt>
      <trkpt lat="38.226707" lon="-1.736168">
        <ele>430.8</ele>
        <time>2017-03-04T08:21:21Z</time>
      </trkpt>
      <trkpt lat="38.226654" lon="-1.736244">
        <ele>431.8</ele>
        <time>2017-03-04T08:21:37Z</time>
      </trkpt>
      <trkpt lat="38.226654" lon="-1.736302">
        <ele>432.2</ele>
        <time>2017-03-04T08:21:49Z</time>
      </trkpt>
      <trkpt lat="38.226668" lon="-1.736374">
        <ele>432.7</ele>
        <time>2017-03-04T08:22:04Z</time>
      </trkpt>
      <trkpt lat="38.226668" lon="-1.736449">
        <ele>433.2</ele>
        <time>2017-03-04T08:22:20Z</time>
      </trkpt>
      <trkpt lat="38.226674" lon="-1.736504">
        <ele>431.3</ele>
        <time>2017-03-04T08:22:36Z</time>
      </trkpt>
      <trkpt lat="38.226663" lon="-1.736628">
        <ele>432.2</ele>
        <time>2017-03-04T08:22:51Z</time>
      </trkpt>
      <trkpt lat="38.226673" lon="-1.736831">
        <ele>431.3</ele>
        <time>2017-03-04T08:23:08Z</time>
      </trkpt>
      <trkpt lat="38.226674" lon="-1.736904">
        <ele>433.7</ele>
        <time>2017-03-04T08:23:12Z</time>
      </trkpt>
      <trkpt lat="38.226675" lon="-1.736940">
        <ele>432.2</ele>
        <time>2017-03-04T08:23:14Z</time>
      </trkpt>
      <trkpt lat="38.226684" lon="-1.737129">
        <ele>431.8</ele>
        <time>2017-03-04T08:23:28Z</time>
      </trkpt>
      <trkpt lat="38.226697" lon="-1.737188">
        <ele>431.8</ele>
        <time>2017-03-04T08:23:34Z</time>
      </trkpt>
      <trkpt lat="38.226771" lon="-1.737403">
        <ele>432.7</ele>
        <time>2017-03-04T08:23:49Z</time>
      </trkpt>
      <trkpt lat="38.226786" lon="-1.737446">
        <ele>432.2</ele>
        <time>2017-03-04T08:23:52Z</time>
      </trkpt>
      <trkpt lat="38.226799" lon="-1.737490">
        <ele>431.8</ele>
        <time>2017-03-04T08:23:55Z</time>
      </trkpt>
      <trkpt lat="38.226857" lon="-1.737617">
        <ele>431.8</ele>
        <time>2017-03-04T08:24:04Z</time>
      </trkpt>
      <trkpt lat="38.226898" lon="-1.737735">
        <ele>432.2</ele>
        <time>2017-03-04T08:24:12Z</time>
      </trkpt>
      <trkpt lat="38.226931" lon="-1.737783">
        <ele>431.8</ele>
        <time>2017-03-04T08:24:16Z</time>
      </trkpt>
      <trkpt lat="38.226951" lon="-1.737804">
        <ele>431.8</ele>
        <time>2017-03-04T08:24:18Z</time>
      </trkpt>
      <trkpt lat="38.226969" lon="-1.737848">
        <ele>431.8</ele>
        <time>2017-03-04T08:24:21Z</time>
      </trkpt>
      <trkpt lat="38.226988" lon="-1.737881">
        <ele>431.3</ele>
        <time>2017-03-04T08:24:24Z</time>
      </trkpt>
      <trkpt lat="38.227039" lon="-1.738026">
        <ele>431.8</ele>
        <time>2017-03-04T08:24:34Z</time>
      </trkpt>
      <trkpt lat="38.227097" lon="-1.738175">
        <ele>431.3</ele>
        <time>2017-03-04T08:24:45Z</time>
      </trkpt>
      <trkpt lat="38.227114" lon="-1.738219">
        <ele>431.8</ele>
        <time>2017-03-04T08:24:48Z</time>
      </trkpt>
      <trkpt lat="38.227199" lon="-1.738388">
        <ele>431.8</ele>
        <time>2017-03-04T08:25:02Z</time>
      </trkpt>
      <trkpt lat="38.227235" lon="-1.738444">
        <ele>432.2</ele>
        <time>2017-03-04T08:25:06Z</time>
      </trkpt>
      <trkpt lat="38.227249" lon="-1.738471">
        <ele>432.2</ele>
        <time>2017-03-04T08:25:08Z</time>
      </trkpt>
      <trkpt lat="38.227329" lon="-1.738612">
        <ele>432.2</ele>
        <time>2017-03-04T08:25:19Z</time>
      </trkpt>
      <trkpt lat="38.227345" lon="-1.738672">
        <ele>432.2</ele>
        <time>2017-03-04T08:25:23Z</time>
      </trkpt>
      <trkpt lat="38.227443" lon="-1.738818">
        <ele>433.2</ele>
        <time>2017-03-04T08:25:36Z</time>
      </trkpt>
      <trkpt lat="38.227477" lon="-1.738857">
        <ele>433.7</ele>
        <time>2017-03-04T08:25:40Z</time>
      </trkpt>
      <trkpt lat="38.227600" lon="-1.739059">
        <ele>433.2</ele>
        <time>2017-03-04T08:25:57Z</time>
      </trkpt>
      <trkpt lat="38.227655" lon="-1.739181">
        <ele>433.2</ele>
        <time>2017-03-04T08:26:37Z</time>
      </trkpt>
      <trkpt lat="38.227645" lon="-1.739207">
        <ele>433.2</ele>
        <time>2017-03-04T08:26:39Z</time>
      </trkpt>
      <trkpt lat="38.227635" lon="-1.739234">
        <ele>433.2</ele>
        <time>2017-03-04T08:26:40Z</time>
      </trkpt>
      <trkpt lat="38.227615" lon="-1.739287">
        <ele>433.7</ele>
        <time>2017-03-04T08:26:42Z</time>
      </trkpt>
      <trkpt lat="38.227581" lon="-1.739383">
        <ele>432.7</ele>
        <time>2017-03-04T08:30:00Z</time>
      </trkpt>
      <trkpt lat="38.227554" lon="-1.739462">
        <ele>433.2</ele>
        <time>2017-03-04T08:30:13Z</time>
      </trkpt>
      <trkpt lat="38.227547" lon="-1.739472">
        <ele>433.2</ele>
        <time>2017-03-04T08:30:14Z</time>
      </trkpt>
      <trkpt lat="38.227530" lon="-1.739495">
        <ele>432.7</ele>
        <time>2017-03-04T08:30:16Z</time>
      </trkpt>
      <trkpt lat="38.227496" lon="-1.739568">
        <ele>430.3</ele>
        <time>2017-03-04T08:30:39Z</time>
      </trkpt>
      <trkpt lat="38.227450" lon="-1.739636">
        <ele>430.3</ele>
        <time>2017-03-04T08:30:53Z</time>
      </trkpt>
      <trkpt lat="38.227412" lon="-1.739725">
        <ele>429.4</ele>
        <time>2017-03-04T08:31:00Z</time>
      </trkpt>
      <trkpt lat="38.227404" lon="-1.739736">
        <ele>428.9</ele>
        <time>2017-03-04T08:31:01Z</time>
      </trkpt>
      <trkpt lat="38.227397" lon="-1.739749">
        <ele>429.4</ele>
        <time>2017-03-04T08:31:02Z</time>
      </trkpt>
      <trkpt lat="38.227321" lon="-1.739922">
        <ele>427.9</ele>
        <time>2017-03-04T08:31:14Z</time>
      </trkpt>
      <trkpt lat="38.227317" lon="-1.739936">
        <ele>427.4</ele>
        <time>2017-03-04T08:31:15Z</time>
      </trkpt>
      <trkpt lat="38.227338" lon="-1.739914">
        <ele>427.9</ele>
        <time>2017-03-04T08:31:24Z</time>
      </trkpt>
      <trkpt lat="38.227257" lon="-1.740146">
        <ele>426.5</ele>
        <time>2017-03-04T08:31:35Z</time>
      </trkpt>
      <trkpt lat="38.227226" lon="-1.740193">
        <ele>426.0</ele>
        <time>2017-03-04T08:31:40Z</time>
      </trkpt>
      <trkpt lat="38.227219" lon="-1.740210">
        <ele>425.0</ele>
        <time>2017-03-04T08:31:41Z</time>
      </trkpt>
      <trkpt lat="38.227212" lon="-1.740227">
        <ele>425.0</ele>
        <time>2017-03-04T08:31:42Z</time>
      </trkpt>
      <trkpt lat="38.227201" lon="-1.740242">
        <ele>425.5</ele>
        <time>2017-03-04T08:31:43Z</time>
      </trkpt>
      <trkpt lat="38.227190" lon="-1.740259">
        <ele>424.6</ele>
        <time>2017-03-04T08:31:44Z</time>
      </trkpt>
      <trkpt lat="38.227180" lon="-1.740278">
        <ele>425.0</ele>
        <time>2017-03-04T08:31:45Z</time>
      </trkpt>
      <trkpt lat="38.227101" lon="-1.740415">
        <ele>424.6</ele>
        <time>2017-03-04T08:31:57Z</time>
      </trkpt>
      <trkpt lat="38.227069" lon="-1.740468">
        <ele>420.2</ele>
        <time>2017-03-04T08:32:05Z</time>
      </trkpt>
      <trkpt lat="38.227068" lon="-1.740472">
        <ele>425.0</ele>
        <time>2017-03-04T08:32:06Z</time>
      </trkpt>
      <trkpt lat="38.227057" lon="-1.740524">
        <ele>423.6</ele>
        <time>2017-03-04T08:32:11Z</time>
      </trkpt>
      <trkpt lat="38.227044" lon="-1.740541">
        <ele>424.1</ele>
        <time>2017-03-04T08:32:12Z</time>
      </trkpt>
      <trkpt lat="38.227030" lon="-1.740559">
        <ele>424.1</ele>
        <time>2017-03-04T08:32:13Z</time>
      </trkpt>
      <trkpt lat="38.226953" lon="-1.740642">
        <ele>423.1</ele>
        <time>2017-03-04T08:32:21Z</time>
      </trkpt>
      <trkpt lat="38.226922" lon="-1.740726">
        <ele>422.2</ele>
        <time>2017-03-04T08:32:33Z</time>
      </trkpt>
      <trkpt lat="38.226911" lon="-1.740733">
        <ele>422.2</ele>
        <time>2017-03-04T08:32:34Z</time>
      </trkpt>
      <trkpt lat="38.226899" lon="-1.740739">
        <ele>422.2</ele>
        <time>2017-03-04T08:32:35Z</time>
      </trkpt>
      <trkpt lat="38.226719" lon="-1.740785">
        <ele>420.7</ele>
        <time>2017-03-04T08:32:51Z</time>
      </trkpt>
      <trkpt lat="38.226679" lon="-1.740787">
        <ele>420.7</ele>
        <time>2017-03-04T08:32:55Z</time>
      </trkpt>
      <trkpt lat="38.226658" lon="-1.740791">
        <ele>420.7</ele>
        <time>2017-03-04T08:32:57Z</time>
      </trkpt>
      <trkpt lat="38.226649" lon="-1.740788">
        <ele>420.7</ele>
        <time>2017-03-04T08:32:58Z</time>
      </trkpt>
      <trkpt lat="38.226530" lon="-1.740798">
        <ele>420.7</ele>
        <time>2017-03-04T08:33:11Z</time>
      </trkpt>
      <trkpt lat="38.226517" lon="-1.740794">
        <ele>419.8</ele>
        <time>2017-03-04T08:33:12Z</time>
      </trkpt>
      <trkpt lat="38.226503" lon="-1.740795">
        <ele>420.2</ele>
        <time>2017-03-04T08:33:13Z</time>
      </trkpt>
      <trkpt lat="38.226471" lon="-1.740813">
        <ele>419.8</ele>
        <time>2017-03-04T08:33:16Z</time>
      </trkpt>
      <trkpt lat="38.226437" lon="-1.740826">
        <ele>420.2</ele>
        <time>2017-03-04T08:33:19Z</time>
      </trkpt>
      <trkpt lat="38.226424" lon="-1.740823">
        <ele>419.8</ele>
        <time>2017-03-04T08:33:20Z</time>
      </trkpt>
      <trkpt lat="38.226412" lon="-1.740818">
        <ele>420.2</ele>
        <time>2017-03-04T08:33:21Z</time>
      </trkpt>
      <trkpt lat="38.226337" lon="-1.740816">
        <ele>419.3</ele>
        <time>2017-03-04T08:33:27Z</time>
      </trkpt>
      <trkpt lat="38.226324" lon="-1.740820">
        <ele>419.3</ele>
        <time>2017-03-04T08:33:28Z</time>
      </trkpt>
      <trkpt lat="38.226314" lon="-1.740826">
        <ele>419.8</ele>
        <time>2017-03-04T08:33:29Z</time>
      </trkpt>
      <trkpt lat="38.226303" lon="-1.740827">
        <ele>419.3</ele>
        <time>2017-03-04T08:33:30Z</time>
      </trkpt>
      <trkpt lat="38.226290" lon="-1.740824">
        <ele>419.3</ele>
        <time>2017-03-04T08:33:31Z</time>
      </trkpt>
      <trkpt lat="38.226260" lon="-1.740823">
        <ele>419.3</ele>
        <time>2017-03-04T08:33:34Z</time>
      </trkpt>
      <trkpt lat="38.226219" lon="-1.740819">
        <ele>419.3</ele>
        <time>2017-03-04T08:33:38Z</time>
      </trkpt>
      <trkpt lat="38.226204" lon="-1.740815">
        <ele>419.3</ele>
        <time>2017-03-04T08:33:39Z</time>
      </trkpt>
      <trkpt lat="38.226189" lon="-1.740811">
        <ele>418.8</ele>
        <time>2017-03-04T08:33:40Z</time>
      </trkpt>
      <trkpt lat="38.226175" lon="-1.740807">
        <ele>419.3</ele>
        <time>2017-03-04T08:33:41Z</time>
      </trkpt>
      <trkpt lat="38.226162" lon="-1.740807">
        <ele>418.8</ele>
        <time>2017-03-04T08:33:42Z</time>
      </trkpt>
      <trkpt lat="38.226150" lon="-1.740807">
        <ele>418.8</ele>
        <time>2017-03-04T08:33:43Z</time>
      </trkpt>
      <trkpt lat="38.225984" lon="-1.740806">
        <ele>418.3</ele>
        <time>2017-03-04T08:33:57Z</time>
      </trkpt>
      <trkpt lat="38.225825" lon="-1.740744">
        <ele>417.4</ele>
        <time>2017-03-04T08:34:10Z</time>
      </trkpt>
      <trkpt lat="38.225645" lon="-1.740683">
        <ele>416.4</ele>
        <time>2017-03-04T08:34:25Z</time>
      </trkpt>
      <trkpt lat="38.225520" lon="-1.740617">
        <ele>414.5</ele>
        <time>2017-03-04T08:34:35Z</time>
      </trkpt>
      <trkpt lat="38.225507" lon="-1.740616">
        <ele>414.5</ele>
        <time>2017-03-04T08:34:36Z</time>
      </trkpt>
      <trkpt lat="38.225493" lon="-1.740613">
        <ele>414.5</ele>
        <time>2017-03-04T08:34:37Z</time>
      </trkpt>
      <trkpt lat="38.225479" lon="-1.740610">
        <ele>414.5</ele>
        <time>2017-03-04T08:34:38Z</time>
      </trkpt>
      <trkpt lat="38.225456" lon="-1.740613">
        <ele>414.5</ele>
        <time>2017-03-04T08:34:40Z</time>
      </trkpt>
      <trkpt lat="38.225443" lon="-1.740607">
        <ele>414.5</ele>
        <time>2017-03-04T08:34:41Z</time>
      </trkpt>
      <trkpt lat="38.225431" lon="-1.740599">
        <ele>414.5</ele>
        <time>2017-03-04T08:34:42Z</time>
      </trkpt>
      <trkpt lat="38.225419" lon="-1.740591">
        <ele>414.5</ele>
        <time>2017-03-04T08:34:43Z</time>
      </trkpt>
      <trkpt lat="38.225408" lon="-1.740584">
        <ele>414.0</ele>
        <time>2017-03-04T08:34:44Z</time>
      </trkpt>
      <trkpt lat="38.225396" lon="-1.740576">
        <ele>414.0</ele>
        <time>2017-03-04T08:34:45Z</time>
      </trkpt>
      <trkpt lat="38.225382" lon="-1.740568">
        <ele>413.5</ele>
        <time>2017-03-04T08:34:46Z</time>
      </trkpt>
      <trkpt lat="38.225366" lon="-1.740562">
        <ele>413.0</ele>
        <time>2017-03-04T08:34:47Z</time>
      </trkpt>
      <trkpt lat="38.225351" lon="-1.740556">
        <ele>414.0</ele>
        <time>2017-03-04T08:34:48Z</time>
      </trkpt>
      <trkpt lat="38.225337" lon="-1.740546">
        <ele>413.5</ele>
        <time>2017-03-04T08:34:49Z</time>
      </trkpt>
      <trkpt lat="38.225328" lon="-1.740540">
        <ele>413.5</ele>
        <time>2017-03-04T08:34:50Z</time>
      </trkpt>
      <trkpt lat="38.225316" lon="-1.740538">
        <ele>413.5</ele>
        <time>2017-03-04T08:34:51Z</time>
      </trkpt>
      <trkpt lat="38.225302" lon="-1.740533">
        <ele>413.5</ele>
        <time>2017-03-04T08:34:52Z</time>
      </trkpt>
      <trkpt lat="38.225167" lon="-1.740472">
        <ele>413.0</ele>
        <time>2017-03-04T08:35:03Z</time>
      </trkpt>
      <trkpt lat="38.225023" lon="-1.740399">
        <ele>412.5</ele>
        <time>2017-03-04T08:35:14Z</time>
      </trkpt>
      <trkpt lat="38.225011" lon="-1.740393">
        <ele>412.5</ele>
        <time>2017-03-04T08:35:15Z</time>
      </trkpt>
      <trkpt lat="38.224998" lon="-1.740386">
        <ele>412.5</ele>
        <time>2017-03-04T08:35:16Z</time>
      </trkpt>
      <trkpt lat="38.224985" lon="-1.740379">
        <ele>413.0</ele>
        <time>2017-03-04T08:35:17Z</time>
      </trkpt>
      <trkpt lat="38.224973" lon="-1.740374">
        <ele>412.5</ele>
        <time>2017-03-04T08:35:18Z</time>
      </trkpt>
      <trkpt lat="38.224959" lon="-1.740371">
        <ele>412.5</ele>
        <time>2017-03-04T08:35:19Z</time>
      </trkpt>
      <trkpt lat="38.224948" lon="-1.740367">
        <ele>412.5</ele>
        <time>2017-03-04T08:35:20Z</time>
      </trkpt>
      <trkpt lat="38.224937" lon="-1.740361">
        <ele>412.5</ele>
        <time>2017-03-04T08:35:21Z</time>
      </trkpt>
      <trkpt lat="38.224825" lon="-1.740316">
        <ele>412.5</ele>
        <time>2017-03-04T08:35:31Z</time>
      </trkpt>
      <trkpt lat="38.224811" lon="-1.740316">
        <ele>412.5</ele>
        <time>2017-03-04T08:35:32Z</time>
      </trkpt>
      <trkpt lat="38.224614" lon="-1.740249">
        <ele>412.1</ele>
        <time>2017-03-04T08:35:47Z</time>
      </trkpt>
      <trkpt lat="38.224601" lon="-1.740244">
        <ele>412.1</ele>
        <time>2017-03-04T08:35:48Z</time>
      </trkpt>
      <trkpt lat="38.224562" lon="-1.740241">
        <ele>412.5</ele>
        <time>2017-03-04T08:35:51Z</time>
      </trkpt>
      <trkpt lat="38.224548" lon="-1.740244">
        <ele>412.5</ele>
        <time>2017-03-04T08:35:52Z</time>
      </trkpt>
      <trkpt lat="38.224534" lon="-1.740244">
        <ele>412.5</ele>
        <time>2017-03-04T08:35:53Z</time>
      </trkpt>
      <trkpt lat="38.224520" lon="-1.740241">
        <ele>412.1</ele>
        <time>2017-03-04T08:35:54Z</time>
      </trkpt>
      <trkpt lat="38.224507" lon="-1.740239">
        <ele>412.1</ele>
        <time>2017-03-04T08:35:55Z</time>
      </trkpt>
      <trkpt lat="38.224490" lon="-1.740236">
        <ele>412.1</ele>
        <time>2017-03-04T08:35:56Z</time>
      </trkpt>
      <trkpt lat="38.224479" lon="-1.740232">
        <ele>412.1</ele>
        <time>2017-03-04T08:35:57Z</time>
      </trkpt>
      <trkpt lat="38.224467" lon="-1.740230">
        <ele>412.1</ele>
        <time>2017-03-04T08:35:58Z</time>
      </trkpt>
      <trkpt lat="38.224455" lon="-1.740227">
        <ele>412.1</ele>
        <time>2017-03-04T08:35:59Z</time>
      </trkpt>
      <trkpt lat="38.224443" lon="-1.740218">
        <ele>412.1</ele>
        <time>2017-03-04T08:36:00Z</time>
      </trkpt>
      <trkpt lat="38.224431" lon="-1.740208">
        <ele>412.1</ele>
        <time>2017-03-04T08:36:01Z</time>
      </trkpt>
      <trkpt lat="38.224418" lon="-1.740200">
        <ele>412.5</ele>
        <time>2017-03-04T08:36:02Z</time>
      </trkpt>
      <trkpt lat="38.224279" lon="-1.740148">
        <ele>412.1</ele>
        <time>2017-03-04T08:36:13Z</time>
      </trkpt>
      <trkpt lat="38.224267" lon="-1.740145">
        <ele>412.5</ele>
        <time>2017-03-04T08:36:14Z</time>
      </trkpt>
      <trkpt lat="38.224253" lon="-1.740136">
        <ele>412.1</ele>
        <time>2017-03-04T08:36:15Z</time>
      </trkpt>
      <trkpt lat="38.224239" lon="-1.740127">
        <ele>412.5</ele>
        <time>2017-03-04T08:36:16Z</time>
      </trkpt>
      <trkpt lat="38.224226" lon="-1.740119">
        <ele>412.5</ele>
        <time>2017-03-04T08:36:17Z</time>
      </trkpt>
      <trkpt lat="38.224212" lon="-1.740112">
        <ele>412.5</ele>
        <time>2017-03-04T08:36:18Z</time>
      </trkpt>
      <trkpt lat="38.224033" lon="-1.740036">
        <ele>411.6</ele>
        <time>2017-03-04T08:36:31Z</time>
      </trkpt>
      <trkpt lat="38.223878" lon="-1.739954">
        <ele>411.1</ele>
        <time>2017-03-04T08:36:43Z</time>
      </trkpt>
      <trkpt lat="38.223673" lon="-1.739882">
        <ele>410.1</ele>
        <time>2017-03-04T08:36:59Z</time>
      </trkpt>
      <trkpt lat="38.223611" lon="-1.739861">
        <ele>410.1</ele>
        <time>2017-03-04T08:37:04Z</time>
      </trkpt>
      <trkpt lat="38.223598" lon="-1.739857">
        <ele>410.1</ele>
        <time>2017-03-04T08:37:05Z</time>
      </trkpt>
      <trkpt lat="38.223440" lon="-1.739863">
        <ele>409.2</ele>
        <time>2017-03-04T08:37:19Z</time>
      </trkpt>
      <trkpt lat="38.223428" lon="-1.739870">
        <ele>409.7</ele>
        <time>2017-03-04T08:37:20Z</time>
      </trkpt>
      <trkpt lat="38.223416" lon="-1.739884">
        <ele>409.7</ele>
        <time>2017-03-04T08:37:21Z</time>
      </trkpt>
      <trkpt lat="38.223302" lon="-1.740007">
        <ele>407.7</ele>
        <time>2017-03-04T08:37:35Z</time>
      </trkpt>
      <trkpt lat="38.223288" lon="-1.740031">
        <ele>407.7</ele>
        <time>2017-03-04T08:37:37Z</time>
      </trkpt>
      <trkpt lat="38.223281" lon="-1.740041">
        <ele>407.3</ele>
        <time>2017-03-04T08:37:38Z</time>
      </trkpt>
      <trkpt lat="38.223274" lon="-1.740053">
        <ele>407.3</ele>
        <time>2017-03-04T08:37:39Z</time>
      </trkpt>
      <trkpt lat="38.223265" lon="-1.740065">
        <ele>407.7</ele>
        <time>2017-03-04T08:37:40Z</time>
      </trkpt>
      <trkpt lat="38.223259" lon="-1.740081">
        <ele>407.3</ele>
        <time>2017-03-04T08:37:41Z</time>
      </trkpt>
      <trkpt lat="38.223255" lon="-1.740095">
        <ele>407.3</ele>
        <time>2017-03-04T08:37:42Z</time>
      </trkpt>
      <trkpt lat="38.223247" lon="-1.740108">
        <ele>407.3</ele>
        <time>2017-03-04T08:37:43Z</time>
      </trkpt>
      <trkpt lat="38.223235" lon="-1.740122">
        <ele>406.8</ele>
        <time>2017-03-04T08:37:44Z</time>
      </trkpt>
      <trkpt lat="38.223215" lon="-1.740150">
        <ele>406.8</ele>
        <time>2017-03-04T08:37:46Z</time>
      </trkpt>
      <trkpt lat="38.223209" lon="-1.740165">
        <ele>406.8</ele>
        <time>2017-03-04T08:37:47Z</time>
      </trkpt>
      <trkpt lat="38.223116" lon="-1.740303">
        <ele>405.3</ele>
        <time>2017-03-04T08:38:00Z</time>
      </trkpt>
      <trkpt lat="38.223096" lon="-1.740334">
        <ele>404.9</ele>
        <time>2017-03-04T08:38:03Z</time>
      </trkpt>
      <trkpt lat="38.223089" lon="-1.740346">
        <ele>404.9</ele>
        <time>2017-03-04T08:38:04Z</time>
      </trkpt>
      <trkpt lat="38.223081" lon="-1.740357">
        <ele>405.3</ele>
        <time>2017-03-04T08:38:05Z</time>
      </trkpt>
      <trkpt lat="38.223072" lon="-1.740369">
        <ele>404.9</ele>
        <time>2017-03-04T08:38:06Z</time>
      </trkpt>
      <trkpt lat="38.223060" lon="-1.740384">
        <ele>404.9</ele>
        <time>2017-03-04T08:38:07Z</time>
      </trkpt>
      <trkpt lat="38.223050" lon="-1.740396">
        <ele>404.9</ele>
        <time>2017-03-04T08:38:08Z</time>
      </trkpt>
      <trkpt lat="38.223044" lon="-1.740411">
        <ele>404.9</ele>
        <time>2017-03-04T08:38:09Z</time>
      </trkpt>
      <trkpt lat="38.223037" lon="-1.740426">
        <ele>404.9</ele>
        <time>2017-03-04T08:38:10Z</time>
      </trkpt>
      <trkpt lat="38.223031" lon="-1.740439">
        <ele>404.4</ele>
        <time>2017-03-04T08:38:11Z</time>
      </trkpt>
      <trkpt lat="38.222986" lon="-1.740518">
        <ele>403.9</ele>
        <time>2017-03-04T08:38:17Z</time>
      </trkpt>
      <trkpt lat="38.222977" lon="-1.740536">
        <ele>403.9</ele>
        <time>2017-03-04T08:38:18Z</time>
      </trkpt>
      <trkpt lat="38.222964" lon="-1.740549">
        <ele>403.9</ele>
        <time>2017-03-04T08:38:19Z</time>
      </trkpt>
      <trkpt lat="38.222955" lon="-1.740562">
        <ele>403.9</ele>
        <time>2017-03-04T08:38:20Z</time>
      </trkpt>
      <trkpt lat="38.222945" lon="-1.740575">
        <ele>403.4</ele>
        <time>2017-03-04T08:38:21Z</time>
      </trkpt>
      <trkpt lat="38.222935" lon="-1.740588">
        <ele>403.4</ele>
        <time>2017-03-04T08:38:22Z</time>
      </trkpt>
      <trkpt lat="38.222930" lon="-1.740601">
        <ele>403.4</ele>
        <time>2017-03-04T08:38:23Z</time>
      </trkpt>
      <trkpt lat="38.222925" lon="-1.740615">
        <ele>403.4</ele>
        <time>2017-03-04T08:38:24Z</time>
      </trkpt>
      <trkpt lat="38.222922" lon="-1.740625">
        <ele>403.4</ele>
        <time>2017-03-04T08:38:25Z</time>
      </trkpt>
      <trkpt lat="38.222917" lon="-1.740634">
        <ele>403.4</ele>
        <time>2017-03-04T08:38:26Z</time>
      </trkpt>
      <trkpt lat="38.222912" lon="-1.740647">
        <ele>402.9</ele>
        <time>2017-03-04T08:38:27Z</time>
      </trkpt>
      <trkpt lat="38.222905" lon="-1.740661">
        <ele>402.9</ele>
        <time>2017-03-04T08:38:28Z</time>
      </trkpt>
      <trkpt lat="38.222897" lon="-1.740674">
        <ele>403.4</ele>
        <time>2017-03-04T08:38:29Z</time>
      </trkpt>
      <trkpt lat="38.222886" lon="-1.740687">
        <ele>403.4</ele>
        <time>2017-03-04T08:38:30Z</time>
      </trkpt>
      <trkpt lat="38.222859" lon="-1.740720">
        <ele>402.5</ele>
        <time>2017-03-04T08:38:33Z</time>
      </trkpt>
      <trkpt lat="38.222852" lon="-1.740735">
        <ele>402.5</ele>
        <time>2017-03-04T08:38:34Z</time>
      </trkpt>
      <trkpt lat="38.222712" lon="-1.740908">
        <ele>402.5</ele>
        <time>2017-03-04T08:38:49Z</time>
      </trkpt>
      <trkpt lat="38.222700" lon="-1.740910">
        <ele>402.0</ele>
        <time>2017-03-04T08:38:59Z</time>
      </trkpt>
      <trkpt lat="38.222700" lon="-1.740938">
        <ele>402.0</ele>
        <time>2017-03-04T08:39:21Z</time>
      </trkpt>
      <trkpt lat="38.222599" lon="-1.741094">
        <ele>401.0</ele>
        <time>2017-03-04T08:39:34Z</time>
      </trkpt>
      <trkpt lat="38.222534" lon="-1.741205">
        <ele>401.0</ele>
        <time>2017-03-04T08:39:42Z</time>
      </trkpt>
      <trkpt lat="38.222529" lon="-1.741218">
        <ele>401.5</ele>
        <time>2017-03-04T08:39:43Z</time>
      </trkpt>
      <trkpt lat="38.222522" lon="-1.741230">
        <ele>401.5</ele>
        <time>2017-03-04T08:39:44Z</time>
      </trkpt>
      <trkpt lat="38.222497" lon="-1.741274">
        <ele>401.0</ele>
        <time>2017-03-04T08:39:47Z</time>
      </trkpt>
      <trkpt lat="38.222488" lon="-1.741287">
        <ele>401.5</ele>
        <time>2017-03-04T08:39:48Z</time>
      </trkpt>
      <trkpt lat="38.222479" lon="-1.741300">
        <ele>402.0</ele>
        <time>2017-03-04T08:39:49Z</time>
      </trkpt>
      <trkpt lat="38.222448" lon="-1.741335">
        <ele>402.5</ele>
        <time>2017-03-04T08:39:54Z</time>
      </trkpt>
      <trkpt lat="38.222417" lon="-1.741357">
        <ele>401.5</ele>
        <time>2017-03-04T08:39:59Z</time>
      </trkpt>
      <trkpt lat="38.222407" lon="-1.741371">
        <ele>402.0</ele>
        <time>2017-03-04T08:40:00Z</time>
      </trkpt>
      <trkpt lat="38.222224" lon="-1.741567">
        <ele>401.0</ele>
        <time>2017-03-04T08:40:16Z</time>
      </trkpt>
      <trkpt lat="38.222058" lon="-1.741693">
        <ele>399.6</ele>
        <time>2017-03-04T08:40:30Z</time>
      </trkpt>
      <trkpt lat="38.221931" lon="-1.741821">
        <ele>398.6</ele>
        <time>2017-03-04T08:40:43Z</time>
      </trkpt>
      <trkpt lat="38.221760" lon="-1.742027">
        <ele>397.2</ele>
        <time>2017-03-04T08:41:01Z</time>
      </trkpt>
      <trkpt lat="38.221708" lon="-1.742078">
        <ele>397.2</ele>
        <time>2017-03-04T08:41:06Z</time>
      </trkpt>
      <trkpt lat="38.221702" lon="-1.742089">
        <ele>397.2</ele>
        <time>2017-03-04T08:41:07Z</time>
      </trkpt>
      <trkpt lat="38.221691" lon="-1.742099">
        <ele>397.2</ele>
        <time>2017-03-04T08:41:08Z</time>
      </trkpt>
      <trkpt lat="38.221682" lon="-1.742112">
        <ele>396.7</ele>
        <time>2017-03-04T08:41:09Z</time>
      </trkpt>
      <trkpt lat="38.221672" lon="-1.742123">
        <ele>396.7</ele>
        <time>2017-03-04T08:41:10Z</time>
      </trkpt>
      <trkpt lat="38.221662" lon="-1.742134">
        <ele>397.2</ele>
        <time>2017-03-04T08:41:11Z</time>
      </trkpt>
      <trkpt lat="38.221652" lon="-1.742144">
        <ele>397.6</ele>
        <time>2017-03-04T08:41:12Z</time>
      </trkpt>
      <trkpt lat="38.221507" lon="-1.742273">
        <ele>397.2</ele>
        <time>2017-03-04T08:41:26Z</time>
      </trkpt>
      <trkpt lat="38.221340" lon="-1.742427">
        <ele>396.7</ele>
        <time>2017-03-04T08:41:42Z</time>
      </trkpt>
      <trkpt lat="38.221207" lon="-1.742580">
        <ele>396.7</ele>
        <time>2017-03-04T08:41:57Z</time>
      </trkpt>
      <trkpt lat="38.221195" lon="-1.742586">
        <ele>396.2</ele>
        <time>2017-03-04T08:41:58Z</time>
      </trkpt>
      <trkpt lat="38.221182" lon="-1.742594">
        <ele>395.7</ele>
        <time>2017-03-04T08:41:59Z</time>
      </trkpt>
      <trkpt lat="38.221168" lon="-1.742604">
        <ele>395.7</ele>
        <time>2017-03-04T08:42:00Z</time>
      </trkpt>
      <trkpt lat="38.221157" lon="-1.742616">
        <ele>395.7</ele>
        <time>2017-03-04T08:42:01Z</time>
      </trkpt>
      <trkpt lat="38.221149" lon="-1.742629">
        <ele>395.7</ele>
        <time>2017-03-04T08:42:02Z</time>
      </trkpt>
      <trkpt lat="38.221140" lon="-1.742640">
        <ele>396.2</ele>
        <time>2017-03-04T08:42:03Z</time>
      </trkpt>
      <trkpt lat="38.221130" lon="-1.742649">
        <ele>395.7</ele>
        <time>2017-03-04T08:42:04Z</time>
      </trkpt>
      <trkpt lat="38.221003" lon="-1.742814">
        <ele>395.7</ele>
        <time>2017-03-04T08:42:18Z</time>
      </trkpt>
      <trkpt lat="38.220869" lon="-1.742990">
        <ele>395.7</ele>
        <time>2017-03-04T08:42:33Z</time>
      </trkpt>
      <trkpt lat="38.220849" lon="-1.743014">
        <ele>395.2</ele>
        <time>2017-03-04T08:42:35Z</time>
      </trkpt>
      <trkpt lat="38.220739" lon="-1.743105">
        <ele>395.7</ele>
        <time>2017-03-04T08:42:46Z</time>
      </trkpt>
      <trkpt lat="38.220730" lon="-1.743114">
        <ele>395.7</ele>
        <time>2017-03-04T08:42:47Z</time>
      </trkpt>
      <trkpt lat="38.220718" lon="-1.743121">
        <ele>395.7</ele>
        <time>2017-03-04T08:42:48Z</time>
      </trkpt>
      <trkpt lat="38.220704" lon="-1.743128">
        <ele>395.2</ele>
        <time>2017-03-04T08:42:49Z</time>
      </trkpt>
      <trkpt lat="38.220691" lon="-1.743139">
        <ele>395.7</ele>
        <time>2017-03-04T08:42:50Z</time>
      </trkpt>
      <trkpt lat="38.220677" lon="-1.743150">
        <ele>395.7</ele>
        <time>2017-03-04T08:42:51Z</time>
      </trkpt>
      <trkpt lat="38.220516" lon="-1.743289">
        <ele>395.7</ele>
        <time>2017-03-04T08:43:06Z</time>
      </trkpt>
      <trkpt lat="38.220362" lon="-1.743424">
        <ele>396.2</ele>
        <time>2017-03-04T08:43:21Z</time>
      </trkpt>
      <trkpt lat="38.220227" lon="-1.743584">
        <ele>395.7</ele>
        <time>2017-03-04T08:43:35Z</time>
      </trkpt>
      <trkpt lat="38.220140" lon="-1.743645">
        <ele>396.7</ele>
        <time>2017-03-04T08:43:43Z</time>
      </trkpt>
      <trkpt lat="38.220132" lon="-1.743653">
        <ele>396.2</ele>
        <time>2017-03-04T08:43:44Z</time>
      </trkpt>
      <trkpt lat="38.220126" lon="-1.743663">
        <ele>395.7</ele>
        <time>2017-03-04T08:43:45Z</time>
      </trkpt>
      <trkpt lat="38.220119" lon="-1.743677">
        <ele>396.2</ele>
        <time>2017-03-04T08:43:46Z</time>
      </trkpt>
      <trkpt lat="38.220111" lon="-1.743690">
        <ele>396.2</ele>
        <time>2017-03-04T08:43:47Z</time>
      </trkpt>
      <trkpt lat="38.220057" lon="-1.743751">
        <ele>396.7</ele>
        <time>2017-03-04T08:43:53Z</time>
      </trkpt>
      <trkpt lat="38.220048" lon="-1.743761">
        <ele>396.7</ele>
        <time>2017-03-04T08:43:54Z</time>
      </trkpt>
      <trkpt lat="38.220039" lon="-1.743771">
        <ele>396.7</ele>
        <time>2017-03-04T08:43:55Z</time>
      </trkpt>
      <trkpt lat="38.220027" lon="-1.743780">
        <ele>396.7</ele>
        <time>2017-03-04T08:43:56Z</time>
      </trkpt>
      <trkpt lat="38.220016" lon="-1.743792">
        <ele>396.7</ele>
        <time>2017-03-04T08:43:57Z</time>
      </trkpt>
      <trkpt lat="38.220005" lon="-1.743807">
        <ele>397.2</ele>
        <time>2017-03-04T08:43:58Z</time>
      </trkpt>
      <trkpt lat="38.219997" lon="-1.743819">
        <ele>396.7</ele>
        <time>2017-03-04T08:43:59Z</time>
      </trkpt>
      <trkpt lat="38.219833" lon="-1.743968">
        <ele>397.6</ele>
        <time>2017-03-04T08:44:16Z</time>
      </trkpt>
      <trkpt lat="38.219808" lon="-1.743992">
        <ele>398.6</ele>
        <time>2017-03-04T08:44:19Z</time>
      </trkpt>
      <trkpt lat="38.219787" lon="-1.744025">
        <ele>397.6</ele>
        <time>2017-03-04T08:44:23Z</time>
      </trkpt>
      <trkpt lat="38.219777" lon="-1.744039">
        <ele>397.6</ele>
        <time>2017-03-04T08:44:24Z</time>
      </trkpt>
      <trkpt lat="38.219770" lon="-1.744052">
        <ele>397.6</ele>
        <time>2017-03-04T08:44:25Z</time>
      </trkpt>
      <trkpt lat="38.219672" lon="-1.744184">
        <ele>397.2</ele>
        <time>2017-03-04T08:44:37Z</time>
      </trkpt>
      <trkpt lat="38.219663" lon="-1.744197">
        <ele>398.1</ele>
        <time>2017-03-04T08:44:38Z</time>
      </trkpt>
      <trkpt lat="38.219654" lon="-1.744212">
        <ele>397.6</ele>
        <time>2017-03-04T08:44:39Z</time>
      </trkpt>
      <trkpt lat="38.219646" lon="-1.744227">
        <ele>397.2</ele>
        <time>2017-03-04T08:44:40Z</time>
      </trkpt>
      <trkpt lat="38.219638" lon="-1.744240">
        <ele>397.6</ele>
        <time>2017-03-04T08:44:41Z</time>
      </trkpt>
      <trkpt lat="38.219632" lon="-1.744252">
        <ele>397.6</ele>
        <time>2017-03-04T08:44:42Z</time>
      </trkpt>
      <trkpt lat="38.219499" lon="-1.744415">
        <ele>397.6</ele>
        <time>2017-03-04T08:44:57Z</time>
      </trkpt>
      <trkpt lat="38.219423" lon="-1.744513">
        <ele>398.6</ele>
        <time>2017-03-04T08:45:06Z</time>
      </trkpt>
      <trkpt lat="38.219413" lon="-1.744524">
        <ele>398.6</ele>
        <time>2017-03-04T08:45:07Z</time>
      </trkpt>
      <trkpt lat="38.219357" lon="-1.744611">
        <ele>398.6</ele>
        <time>2017-03-04T08:45:14Z</time>
      </trkpt>
      <trkpt lat="38.219304" lon="-1.744689">
        <ele>399.1</ele>
        <time>2017-03-04T08:45:20Z</time>
      </trkpt>
      <trkpt lat="38.219295" lon="-1.744702">
        <ele>399.1</ele>
        <time>2017-03-04T08:45:21Z</time>
      </trkpt>
      <trkpt lat="38.219204" lon="-1.744891">
        <ele>399.6</ele>
        <time>2017-03-04T08:45:35Z</time>
      </trkpt>
      <trkpt lat="38.219116" lon="-1.745074">
        <ele>400.0</ele>
        <time>2017-03-04T08:45:48Z</time>
      </trkpt>
      <trkpt lat="38.219116" lon="-1.745088">
        <ele>400.5</ele>
        <time>2017-03-04T08:45:49Z</time>
      </trkpt>
      <trkpt lat="38.219112" lon="-1.745102">
        <ele>400.0</ele>
        <time>2017-03-04T08:45:50Z</time>
      </trkpt>
      <trkpt lat="38.219017" lon="-1.745320">
        <ele>400.5</ele>
        <time>2017-03-04T08:46:06Z</time>
      </trkpt>
      <trkpt lat="38.218940" lon="-1.745513">
        <ele>401.5</ele>
        <time>2017-03-04T08:46:19Z</time>
      </trkpt>
      <trkpt lat="38.218864" lon="-1.745722">
        <ele>402.0</ele>
        <time>2017-03-04T08:46:33Z</time>
      </trkpt>
      <trkpt lat="38.218851" lon="-1.745781">
        <ele>402.5</ele>
        <time>2017-03-04T08:46:37Z</time>
      </trkpt>
      <trkpt lat="38.218851" lon="-1.745811">
        <ele>402.5</ele>
        <time>2017-03-04T08:46:42Z</time>
      </trkpt>
      <trkpt lat="38.218842" lon="-1.745822">
        <ele>402.5</ele>
        <time>2017-03-04T08:46:43Z</time>
      </trkpt>
      <trkpt lat="38.218834" lon="-1.745837">
        <ele>402.5</ele>
        <time>2017-03-04T08:46:44Z</time>
      </trkpt>
      <trkpt lat="38.218833" lon="-1.745855">
        <ele>401.5</ele>
        <time>2017-03-04T08:46:55Z</time>
      </trkpt>
      <trkpt lat="38.218806" lon="-1.745851">
        <ele>402.5</ele>
        <time>2017-03-04T08:47:07Z</time>
      </trkpt>
      <trkpt lat="38.218776" lon="-1.745973">
        <ele>402.9</ele>
        <time>2017-03-04T08:47:20Z</time>
      </trkpt>
      <trkpt lat="38.218772" lon="-1.746080">
        <ele>403.4</ele>
        <time>2017-03-04T08:47:26Z</time>
      </trkpt>
      <trkpt lat="38.218775" lon="-1.746098">
        <ele>402.9</ele>
        <time>2017-03-04T08:47:27Z</time>
      </trkpt>
      <trkpt lat="38.218774" lon="-1.746117">
        <ele>402.9</ele>
        <time>2017-03-04T08:47:28Z</time>
      </trkpt>
      <trkpt lat="38.218745" lon="-1.746271">
        <ele>403.4</ele>
        <time>2017-03-04T08:47:39Z</time>
      </trkpt>
      <trkpt lat="38.218742" lon="-1.746320">
        <ele>403.9</ele>
        <time>2017-03-04T08:47:42Z</time>
      </trkpt>
      <trkpt lat="38.218740" lon="-1.746334">
        <ele>403.4</ele>
        <time>2017-03-04T08:47:43Z</time>
      </trkpt>
      <trkpt lat="38.218735" lon="-1.746381">
        <ele>404.4</ele>
        <time>2017-03-04T08:47:46Z</time>
      </trkpt>
      <trkpt lat="38.218723" lon="-1.746515">
        <ele>404.4</ele>
        <time>2017-03-04T08:47:54Z</time>
      </trkpt>
      <trkpt lat="38.218704" lon="-1.746586">
        <ele>404.9</ele>
        <time>2017-03-04T08:47:59Z</time>
      </trkpt>
      <trkpt lat="38.218704" lon="-1.746593">
        <ele>405.3</ele>
        <time>2017-03-04T08:48:07Z</time>
      </trkpt>
      <trkpt lat="38.218705" lon="-1.746612">
        <ele>404.9</ele>
        <time>2017-03-04T08:48:08Z</time>
      </trkpt>
      <trkpt lat="38.218702" lon="-1.746634">
        <ele>404.9</ele>
        <time>2017-03-04T08:48:09Z</time>
      </trkpt>
      <trkpt lat="38.218695" lon="-1.746656">
        <ele>405.3</ele>
        <time>2017-03-04T08:48:10Z</time>
      </trkpt>
      <trkpt lat="38.218691" lon="-1.746678">
        <ele>404.9</ele>
        <time>2017-03-04T08:48:11Z</time>
      </trkpt>
      <trkpt lat="38.218652" lon="-1.747049">
        <ele>406.3</ele>
        <time>2017-03-04T08:48:29Z</time>
      </trkpt>
      <trkpt lat="38.218594" lon="-1.747339">
        <ele>406.8</ele>
        <time>2017-03-04T08:48:45Z</time>
      </trkpt>
      <trkpt lat="38.218543" lon="-1.747571">
        <ele>407.3</ele>
        <time>2017-03-04T08:49:00Z</time>
      </trkpt>
      <trkpt lat="38.218545" lon="-1.747584">
        <ele>407.3</ele>
        <time>2017-03-04T08:49:01Z</time>
      </trkpt>
      <trkpt lat="38.218543" lon="-1.747595">
        <ele>407.3</ele>
        <time>2017-03-04T08:49:02Z</time>
      </trkpt>
      <trkpt lat="38.218538" lon="-1.747609">
        <ele>407.3</ele>
        <time>2017-03-04T08:49:03Z</time>
      </trkpt>
      <trkpt lat="38.218535" lon="-1.747623">
        <ele>407.3</ele>
        <time>2017-03-04T08:49:04Z</time>
      </trkpt>
      <trkpt lat="38.218531" lon="-1.747638">
        <ele>407.3</ele>
        <time>2017-03-04T08:49:05Z</time>
      </trkpt>
      <trkpt lat="38.218487" lon="-1.747851">
        <ele>407.7</ele>
        <time>2017-03-04T08:49:18Z</time>
      </trkpt>
      <trkpt lat="38.218472" lon="-1.747924">
        <ele>408.7</ele>
        <time>2017-03-04T08:49:23Z</time>
      </trkpt>
      <trkpt lat="38.218471" lon="-1.747940">
        <ele>408.7</ele>
        <time>2017-03-04T08:49:24Z</time>
      </trkpt>
      <trkpt lat="38.218467" lon="-1.747956">
        <ele>408.2</ele>
        <time>2017-03-04T08:49:25Z</time>
      </trkpt>
      <trkpt lat="38.218460" lon="-1.747969">
        <ele>408.2</ele>
        <time>2017-03-04T08:49:26Z</time>
      </trkpt>
      <trkpt lat="38.218454" lon="-1.747982">
        <ele>408.7</ele>
        <time>2017-03-04T08:49:27Z</time>
      </trkpt>
      <trkpt lat="38.218447" lon="-1.747998">
        <ele>408.7</ele>
        <time>2017-03-04T08:49:28Z</time>
      </trkpt>
      <trkpt lat="38.218439" lon="-1.748015">
        <ele>409.2</ele>
        <time>2017-03-04T08:49:29Z</time>
      </trkpt>
      <trkpt lat="38.218434" lon="-1.748032">
        <ele>408.7</ele>
        <time>2017-03-04T08:49:30Z</time>
      </trkpt>
      <trkpt lat="38.218432" lon="-1.748052">
        <ele>408.7</ele>
        <time>2017-03-04T08:49:31Z</time>
      </trkpt>
      <trkpt lat="38.218385" lon="-1.748291">
        <ele>409.7</ele>
        <time>2017-03-04T08:49:46Z</time>
      </trkpt>
      <trkpt lat="38.218317" lon="-1.748540">
        <ele>410.1</ele>
        <time>2017-03-04T08:50:02Z</time>
      </trkpt>
      <trkpt lat="38.218262" lon="-1.748764">
        <ele>411.1</ele>
        <time>2017-03-04T08:50:16Z</time>
      </trkpt>
      <trkpt lat="38.218237" lon="-1.748842">
        <ele>411.6</ele>
        <time>2017-03-04T08:50:21Z</time>
      </trkpt>
      <trkpt lat="38.218235" lon="-1.748859">
        <ele>411.1</ele>
        <time>2017-03-04T08:50:22Z</time>
      </trkpt>
      <trkpt lat="38.218234" lon="-1.748876">
        <ele>411.6</ele>
        <time>2017-03-04T08:50:23Z</time>
      </trkpt>
      <trkpt lat="38.218232" lon="-1.748893">
        <ele>411.6</ele>
        <time>2017-03-04T08:50:24Z</time>
      </trkpt>
      <trkpt lat="38.218228" lon="-1.748909">
        <ele>411.1</ele>
        <time>2017-03-04T08:50:25Z</time>
      </trkpt>
      <trkpt lat="38.218223" lon="-1.748925">
        <ele>411.6</ele>
        <time>2017-03-04T08:50:26Z</time>
      </trkpt>
      <trkpt lat="38.218220" lon="-1.748940">
        <ele>412.1</ele>
        <time>2017-03-04T08:50:27Z</time>
      </trkpt>
      <trkpt lat="38.218217" lon="-1.748956">
        <ele>412.1</ele>
        <time>2017-03-04T08:50:28Z</time>
      </trkpt>
      <trkpt lat="38.218213" lon="-1.748970">
        <ele>412.1</ele>
        <time>2017-03-04T08:50:29Z</time>
      </trkpt>
      <trkpt lat="38.218207" lon="-1.748985">
        <ele>412.1</ele>
        <time>2017-03-04T08:50:30Z</time>
      </trkpt>
      <trkpt lat="38.218198" lon="-1.749001">
        <ele>412.1</ele>
        <time>2017-03-04T08:50:31Z</time>
      </trkpt>
      <trkpt lat="38.218189" lon="-1.749034">
        <ele>412.1</ele>
        <time>2017-03-04T08:50:33Z</time>
      </trkpt>
      <trkpt lat="38.218166" lon="-1.749159">
        <ele>412.5</ele>
        <time>2017-03-04T08:50:41Z</time>
      </trkpt>
      <trkpt lat="38.218158" lon="-1.749174">
        <ele>412.5</ele>
        <time>2017-03-04T08:50:42Z</time>
      </trkpt>
      <trkpt lat="38.218153" lon="-1.749189">
        <ele>412.5</ele>
        <time>2017-03-04T08:50:43Z</time>
      </trkpt>
      <trkpt lat="38.218149" lon="-1.749206">
        <ele>412.1</ele>
        <time>2017-03-04T08:50:44Z</time>
      </trkpt>
      <trkpt lat="38.218148" lon="-1.749221">
        <ele>413.0</ele>
        <time>2017-03-04T08:50:45Z</time>
      </trkpt>
      <trkpt lat="38.218148" lon="-1.749236">
        <ele>412.5</ele>
        <time>2017-03-04T08:50:46Z</time>
      </trkpt>
      <trkpt lat="38.218146" lon="-1.749253">
        <ele>412.5</ele>
        <time>2017-03-04T08:50:47Z</time>
      </trkpt>
      <trkpt lat="38.218109" lon="-1.749369">
        <ele>413.5</ele>
        <time>2017-03-04T08:50:54Z</time>
      </trkpt>
      <trkpt lat="38.218106" lon="-1.749387">
        <ele>413.5</ele>
        <time>2017-03-04T08:50:55Z</time>
      </trkpt>
      <trkpt lat="38.218065" lon="-1.749636">
        <ele>413.5</ele>
        <time>2017-03-04T08:51:10Z</time>
      </trkpt>
      <trkpt lat="38.218007" lon="-1.749855">
        <ele>414.5</ele>
        <time>2017-03-04T08:51:24Z</time>
      </trkpt>
      <trkpt lat="38.217975" lon="-1.749942">
        <ele>415.0</ele>
        <time>2017-03-04T08:51:30Z</time>
      </trkpt>
      <trkpt lat="38.217974" lon="-1.749956">
        <ele>415.0</ele>
        <time>2017-03-04T08:51:31Z</time>
      </trkpt>
      <trkpt lat="38.217973" lon="-1.749969">
        <ele>415.0</ele>
        <time>2017-03-04T08:51:32Z</time>
      </trkpt>
      <trkpt lat="38.217970" lon="-1.749986">
        <ele>415.4</ele>
        <time>2017-03-04T08:51:33Z</time>
      </trkpt>
      <trkpt lat="38.217966" lon="-1.750002">
        <ele>415.4</ele>
        <time>2017-03-04T08:51:34Z</time>
      </trkpt>
      <trkpt lat="38.217959" lon="-1.750015">
        <ele>415.4</ele>
        <time>2017-03-04T08:51:35Z</time>
      </trkpt>
      <trkpt lat="38.217952" lon="-1.750030">
        <ele>415.9</ele>
        <time>2017-03-04T08:51:36Z</time>
      </trkpt>
      <trkpt lat="38.217945" lon="-1.750048">
        <ele>415.4</ele>
        <time>2017-03-04T08:51:37Z</time>
      </trkpt>
      <trkpt lat="38.217939" lon="-1.750065">
        <ele>415.9</ele>
        <time>2017-03-04T08:51:38Z</time>
      </trkpt>
      <trkpt lat="38.217933" lon="-1.750081">
        <ele>415.9</ele>
        <time>2017-03-04T08:51:39Z</time>
      </trkpt>
      <trkpt lat="38.217929" lon="-1.750098">
        <ele>415.4</ele>
        <time>2017-03-04T08:51:40Z</time>
      </trkpt>
      <trkpt lat="38.217925" lon="-1.750114">
        <ele>415.9</ele>
        <time>2017-03-04T08:51:41Z</time>
      </trkpt>
      <trkpt lat="38.217875" lon="-1.750343">
        <ele>415.4</ele>
        <time>2017-03-04T08:51:55Z</time>
      </trkpt>
      <trkpt lat="38.217838" lon="-1.750490">
        <ele>415.9</ele>
        <time>2017-03-04T08:52:04Z</time>
      </trkpt>
      <trkpt lat="38.217836" lon="-1.750518">
        <ele>415.9</ele>
        <time>2017-03-04T08:52:06Z</time>
      </trkpt>
      <trkpt lat="38.217761" lon="-1.750695">
        <ele>416.9</ele>
        <time>2017-03-04T08:52:19Z</time>
      </trkpt>
      <trkpt lat="38.217665" lon="-1.750913">
        <ele>417.4</ele>
        <time>2017-03-04T08:52:34Z</time>
      </trkpt>
      <trkpt lat="38.217659" lon="-1.750931">
        <ele>417.4</ele>
        <time>2017-03-04T08:52:35Z</time>
      </trkpt>
      <trkpt lat="38.217656" lon="-1.750949">
        <ele>417.4</ele>
        <time>2017-03-04T08:52:36Z</time>
      </trkpt>
      <trkpt lat="38.217650" lon="-1.750966">
        <ele>417.4</ele>
        <time>2017-03-04T08:52:37Z</time>
      </trkpt>
      <trkpt lat="38.217644" lon="-1.750984">
        <ele>417.4</ele>
        <time>2017-03-04T08:52:38Z</time>
      </trkpt>
      <trkpt lat="38.217611" lon="-1.751087">
        <ele>417.4</ele>
        <time>2017-03-04T08:52:45Z</time>
      </trkpt>
      <trkpt lat="38.217609" lon="-1.751103">
        <ele>417.4</ele>
        <time>2017-03-04T08:52:46Z</time>
      </trkpt>
      <trkpt lat="38.217606" lon="-1.751123">
        <ele>417.4</ele>
        <time>2017-03-04T08:52:47Z</time>
      </trkpt>
      <trkpt lat="38.217547" lon="-1.751302">
        <ele>418.8</ele>
        <time>2017-03-04T08:52:59Z</time>
      </trkpt>
      <trkpt lat="38.217538" lon="-1.751315">
        <ele>418.3</ele>
        <time>2017-03-04T08:53:00Z</time>
      </trkpt>
      <trkpt lat="38.217535" lon="-1.751328">
        <ele>418.3</ele>
        <time>2017-03-04T08:53:01Z</time>
      </trkpt>
      <trkpt lat="38.217534" lon="-1.751343">
        <ele>418.3</ele>
        <time>2017-03-04T08:53:02Z</time>
      </trkpt>
      <trkpt lat="38.217536" lon="-1.751359">
        <ele>418.8</ele>
        <time>2017-03-04T08:53:03Z</time>
      </trkpt>
      <trkpt lat="38.217535" lon="-1.751373">
        <ele>418.8</ele>
        <time>2017-03-04T08:53:04Z</time>
      </trkpt>
      <trkpt lat="38.217531" lon="-1.751389">
        <ele>418.8</ele>
        <time>2017-03-04T08:53:05Z</time>
      </trkpt>
      <trkpt lat="38.217525" lon="-1.751402">
        <ele>418.3</ele>
        <time>2017-03-04T08:53:06Z</time>
      </trkpt>
      <trkpt lat="38.217444" lon="-1.751612">
        <ele>419.3</ele>
        <time>2017-03-04T08:53:20Z</time>
      </trkpt>
      <trkpt lat="38.217438" lon="-1.751627">
        <ele>418.8</ele>
        <time>2017-03-04T08:53:21Z</time>
      </trkpt>
      <trkpt lat="38.217435" lon="-1.751642">
        <ele>418.8</ele>
        <time>2017-03-04T08:53:22Z</time>
      </trkpt>
      <trkpt lat="38.217434" lon="-1.751659">
        <ele>419.3</ele>
        <time>2017-03-04T08:53:23Z</time>
      </trkpt>
      <trkpt lat="38.217431" lon="-1.751674">
        <ele>418.8</ele>
        <time>2017-03-04T08:53:24Z</time>
      </trkpt>
      <trkpt lat="38.217427" lon="-1.751687">
        <ele>419.8</ele>
        <time>2017-03-04T08:53:25Z</time>
      </trkpt>
      <trkpt lat="38.217422" lon="-1.751701">
        <ele>418.8</ele>
        <time>2017-03-04T08:53:26Z</time>
      </trkpt>
      <trkpt lat="38.217381" lon="-1.751886">
        <ele>419.8</ele>
        <time>2017-03-04T08:53:38Z</time>
      </trkpt>
      <trkpt lat="38.217322" lon="-1.752126">
        <ele>420.7</ele>
        <time>2017-03-04T08:53:53Z</time>
      </trkpt>
      <trkpt lat="38.217234" lon="-1.752365">
        <ele>421.7</ele>
        <time>2017-03-04T08:54:09Z</time>
      </trkpt>
      <trkpt lat="38.217222" lon="-1.752422">
        <ele>421.7</ele>
        <time>2017-03-04T08:54:13Z</time>
      </trkpt>
      <trkpt lat="38.217215" lon="-1.752436">
        <ele>421.7</ele>
        <time>2017-03-04T08:54:14Z</time>
      </trkpt>
      <trkpt lat="38.217209" lon="-1.752448">
        <ele>421.7</ele>
        <time>2017-03-04T08:54:15Z</time>
      </trkpt>
      <trkpt lat="38.217202" lon="-1.752461">
        <ele>421.7</ele>
        <time>2017-03-04T08:54:16Z</time>
      </trkpt>
      <trkpt lat="38.217194" lon="-1.752475">
        <ele>421.7</ele>
        <time>2017-03-04T08:54:17Z</time>
      </trkpt>
      <trkpt lat="38.217107" lon="-1.752668">
        <ele>422.6</ele>
        <time>2017-03-04T08:54:31Z</time>
      </trkpt>
      <trkpt lat="38.217098" lon="-1.752680">
        <ele>422.6</ele>
        <time>2017-03-04T08:54:32Z</time>
      </trkpt>
      <trkpt lat="38.217089" lon="-1.752693">
        <ele>422.6</ele>
        <time>2017-03-04T08:54:33Z</time>
      </trkpt>
      <trkpt lat="38.217081" lon="-1.752707">
        <ele>422.6</ele>
        <time>2017-03-04T08:54:34Z</time>
      </trkpt>
      <trkpt lat="38.217071" lon="-1.752719">
        <ele>422.6</ele>
        <time>2017-03-04T08:54:35Z</time>
      </trkpt>
      <trkpt lat="38.217061" lon="-1.752732">
        <ele>423.1</ele>
        <time>2017-03-04T08:54:36Z</time>
      </trkpt>
      <trkpt lat="38.217053" lon="-1.752743">
        <ele>423.1</ele>
        <time>2017-03-04T08:54:37Z</time>
      </trkpt>
      <trkpt lat="38.217047" lon="-1.752756">
        <ele>423.1</ele>
        <time>2017-03-04T08:54:38Z</time>
      </trkpt>
      <trkpt lat="38.216985" lon="-1.752869">
        <ele>423.6</ele>
        <time>2017-03-04T08:54:50Z</time>
      </trkpt>
      <trkpt lat="38.216945" lon="-1.752989">
        <ele>424.1</ele>
        <time>2017-03-04T08:54:58Z</time>
      </trkpt>
      <trkpt lat="38.216894" lon="-1.753241">
        <ele>423.6</ele>
        <time>2017-03-04T08:55:15Z</time>
      </trkpt>
      <trkpt lat="38.216898" lon="-1.753402">
        <ele>425.5</ele>
        <time>2017-03-04T08:55:26Z</time>
      </trkpt>
      <trkpt lat="38.216902" lon="-1.753416">
        <ele>424.6</ele>
        <time>2017-03-04T08:55:27Z</time>
      </trkpt>
      <trkpt lat="38.216900" lon="-1.753767">
        <ele>426.0</ele>
        <time>2017-03-04T09:04:39Z</time>
      </trkpt>
      <trkpt lat="38.216274" lon="-1.754845">
        <ele>427.0</ele>
        <time>2017-03-04T09:04:39Z</time>
      </trkpt>
      <trkpt lat="38.215908" lon="-1.755532">
        <ele>429.0</ele>
        <time>2017-03-04T09:04:39Z</time>
      </trkpt>
      <trkpt lat="38.215364" lon="-1.756162">
        <ele>434.0</ele>
        <time>2017-03-04T09:04:39Z</time>
      </trkpt>
      <trkpt lat="38.214897" lon="-1.756818">
        <ele>437.0</ele>
        <time>2017-03-04T09:04:39Z</time>
      </trkpt>
      <trkpt lat="38.213753" lon="-1.757945">
        <ele>440.0</ele>
        <time>2017-03-04T09:04:39Z</time>
      </trkpt>
      <trkpt lat="38.213579" lon="-1.758221">
        <ele>442.0</ele>
        <time>2017-03-04T09:04:39Z</time>
      </trkpt>
      <trkpt lat="38.213320" lon="-1.758204">
        <ele>443.8</ele>
        <time>2017-03-04T09:04:40Z</time>
      </trkpt>
      <trkpt lat="38.213185" lon="-1.758425">
        <ele>444.8</ele>
        <time>2017-03-04T09:04:47Z</time>
      </trkpt>
      <trkpt lat="38.213118" lon="-1.758477">
        <ele>443.8</ele>
        <time>2017-03-04T09:04:58Z</time>
      </trkpt>
      <trkpt lat="38.213087" lon="-1.758581">
        <ele>442.3</ele>
        <time>2017-03-04T09:05:08Z</time>
      </trkpt>
      <trkpt lat="38.212968" lon="-1.758698">
        <ele>440.9</ele>
        <time>2017-03-04T09:05:23Z</time>
      </trkpt>
      <trkpt lat="38.212901" lon="-1.758858">
        <ele>441.9</ele>
        <time>2017-03-04T09:05:34Z</time>
      </trkpt>
      <trkpt lat="38.212836" lon="-1.758943">
        <ele>442.3</ele>
        <time>2017-03-04T09:05:42Z</time>
      </trkpt>
      <trkpt lat="38.212787" lon="-1.758985">
        <ele>442.3</ele>
        <time>2017-03-04T09:05:47Z</time>
      </trkpt>
      <trkpt lat="38.212647" lon="-1.759125">
        <ele>440.4</ele>
        <time>2017-03-04T09:06:02Z</time>
      </trkpt>
      <trkpt lat="38.212571" lon="-1.759283">
        <ele>441.4</ele>
        <time>2017-03-04T09:06:16Z</time>
      </trkpt>
      <trkpt lat="38.212547" lon="-1.759322">
        <ele>441.4</ele>
        <time>2017-03-04T09:06:30Z</time>
      </trkpt>
      <trkpt lat="38.212535" lon="-1.759347">
        <ele>441.9</ele>
        <time>2017-03-04T09:06:36Z</time>
      </trkpt>
      <trkpt lat="38.212532" lon="-1.759395">
        <ele>441.4</ele>
        <time>2017-03-04T09:06:45Z</time>
      </trkpt>
      <trkpt lat="38.212488" lon="-1.759456">
        <ele>440.9</ele>
        <time>2017-03-04T09:06:53Z</time>
      </trkpt>
      <trkpt lat="38.212431" lon="-1.759556">
        <ele>440.4</ele>
        <time>2017-03-04T09:07:00Z</time>
      </trkpt>
      <trkpt lat="38.212329" lon="-1.759770">
        <ele>439.0</ele>
        <time>2017-03-04T09:07:16Z</time>
      </trkpt>
      <trkpt lat="38.212206" lon="-1.759956">
        <ele>438.0</ele>
        <time>2017-03-04T09:07:31Z</time>
      </trkpt>
      <trkpt lat="38.212175" lon="-1.760004">
        <ele>437.5</ele>
        <time>2017-03-04T09:07:35Z</time>
      </trkpt>
      <trkpt lat="38.212146" lon="-1.760030">
        <ele>436.6</ele>
        <time>2017-03-04T09:07:38Z</time>
      </trkpt>
      <trkpt lat="38.212050" lon="-1.760231">
        <ele>436.1</ele>
        <time>2017-03-04T09:07:53Z</time>
      </trkpt>
      <trkpt lat="38.212009" lon="-1.760486">
        <ele>436.1</ele>
        <time>2017-03-04T09:08:08Z</time>
      </trkpt>
      <trkpt lat="38.211970" lon="-1.760729">
        <ele>435.6</ele>
        <time>2017-03-04T09:08:23Z</time>
      </trkpt>
      <trkpt lat="38.211897" lon="-1.760899">
        <ele>434.6</ele>
        <time>2017-03-04T09:08:35Z</time>
      </trkpt>
      <trkpt lat="38.211897" lon="-1.760978">
        <ele>434.2</ele>
        <time>2017-03-04T09:08:43Z</time>
      </trkpt>
      <trkpt lat="38.211859" lon="-1.761073">
        <ele>433.7</ele>
        <time>2017-03-04T09:08:50Z</time>
      </trkpt>
      <trkpt lat="38.211752" lon="-1.761283">
        <ele>432.2</ele>
        <time>2017-03-04T09:09:06Z</time>
      </trkpt>
      <trkpt lat="38.211742" lon="-1.761289">
        <ele>432.7</ele>
        <time>2017-03-04T09:09:19Z</time>
      </trkpt>
      <trkpt lat="38.211743" lon="-1.761290">
        <ele>432.2</ele>
        <time>2017-03-04T09:09:20Z</time>
      </trkpt>
      <trkpt lat="38.211706" lon="-1.761452">
        <ele>430.8</ele>
        <time>2017-03-04T09:09:30Z</time>
      </trkpt>
      <trkpt lat="38.211572" lon="-1.761795">
        <ele>428.4</ele>
        <time>2017-03-04T09:11:12Z</time>
      </trkpt>
      <trkpt lat="38.211513" lon="-1.761947">
        <ele>424.6</ele>
        <time>2017-03-04T09:11:20Z</time>
      </trkpt>
      <trkpt lat="38.211506" lon="-1.761964">
        <ele>429.9</ele>
        <time>2017-03-04T09:11:21Z</time>
      </trkpt>
      <trkpt lat="38.211478" lon="-1.762045">
        <ele>426.5</ele>
        <time>2017-03-04T09:11:26Z</time>
      </trkpt>
      <trkpt lat="38.211410" lon="-1.762283">
        <ele>425.5</ele>
        <time>2017-03-04T09:11:40Z</time>
      </trkpt>
      <trkpt lat="38.211354" lon="-1.762543">
        <ele>424.1</ele>
        <time>2017-03-04T09:11:55Z</time>
      </trkpt>
      <trkpt lat="38.211271" lon="-1.762818">
        <ele>423.1</ele>
        <time>2017-03-04T09:12:08Z</time>
      </trkpt>
      <trkpt lat="38.211260" lon="-1.762918">
        <ele>422.6</ele>
        <time>2017-03-04T09:12:21Z</time>
      </trkpt>
      <trkpt lat="38.211260" lon="-1.762922">
        <ele>422.6</ele>
        <time>2017-03-04T09:12:22Z</time>
      </trkpt>
      <trkpt lat="38.211259" lon="-1.762939">
        <ele>422.2</ele>
        <time>2017-03-04T09:12:23Z</time>
      </trkpt>
      <trkpt lat="38.211259" lon="-1.762957">
        <ele>422.2</ele>
        <time>2017-03-04T09:12:24Z</time>
      </trkpt>
      <trkpt lat="38.211256" lon="-1.762975">
        <ele>422.2</ele>
        <time>2017-03-04T09:12:25Z</time>
      </trkpt>
      <trkpt lat="38.211253" lon="-1.762994">
        <ele>422.2</ele>
        <time>2017-03-04T09:12:26Z</time>
      </trkpt>
      <trkpt lat="38.211250" lon="-1.763013">
        <ele>422.2</ele>
        <time>2017-03-04T09:12:27Z</time>
      </trkpt>
      <trkpt lat="38.211247" lon="-1.763069">
        <ele>421.7</ele>
        <time>2017-03-04T09:12:30Z</time>
      </trkpt>
      <trkpt lat="38.211249" lon="-1.763088">
        <ele>422.2</ele>
        <time>2017-03-04T09:12:31Z</time>
      </trkpt>
      <trkpt lat="38.211249" lon="-1.763106">
        <ele>421.7</ele>
        <time>2017-03-04T09:12:32Z</time>
      </trkpt>
      <trkpt lat="38.211248" lon="-1.763127">
        <ele>421.7</ele>
        <time>2017-03-04T09:12:33Z</time>
      </trkpt>
      <trkpt lat="38.211247" lon="-1.763146">
        <ele>421.7</ele>
        <time>2017-03-04T09:12:34Z</time>
      </trkpt>
      <trkpt lat="38.211245" lon="-1.763164">
        <ele>421.7</ele>
        <time>2017-03-04T09:12:35Z</time>
      </trkpt>
      <trkpt lat="38.211239" lon="-1.763183">
        <ele>421.7</ele>
        <time>2017-03-04T09:12:36Z</time>
      </trkpt>
      <trkpt lat="38.211234" lon="-1.763202">
        <ele>421.2</ele>
        <time>2017-03-04T09:12:37Z</time>
      </trkpt>
      <trkpt lat="38.211231" lon="-1.763220">
        <ele>421.2</ele>
        <time>2017-03-04T09:12:38Z</time>
      </trkpt>
      <trkpt lat="38.211229" lon="-1.763241">
        <ele>421.2</ele>
        <time>2017-03-04T09:12:39Z</time>
      </trkpt>
      <trkpt lat="38.211267" lon="-1.763413">
        <ele>420.7</ele>
        <time>2017-03-04T09:12:52Z</time>
      </trkpt>
      <trkpt lat="38.211306" lon="-1.763602">
        <ele>419.3</ele>
        <time>2017-03-04T09:13:04Z</time>
      </trkpt>
      <trkpt lat="38.211304" lon="-1.763618">
        <ele>418.8</ele>
        <time>2017-03-04T09:13:05Z</time>
      </trkpt>
      <trkpt lat="38.211299" lon="-1.763636">
        <ele>419.3</ele>
        <time>2017-03-04T09:13:06Z</time>
      </trkpt>
      <trkpt lat="38.211295" lon="-1.763656">
        <ele>419.3</ele>
        <time>2017-03-04T09:13:07Z</time>
      </trkpt>
      <trkpt lat="38.211295" lon="-1.763675">
        <ele>418.3</ele>
        <time>2017-03-04T09:13:08Z</time>
      </trkpt>
      <trkpt lat="38.211294" lon="-1.763694">
        <ele>418.8</ele>
        <time>2017-03-04T09:13:09Z</time>
      </trkpt>
      <trkpt lat="38.211287" lon="-1.763714">
        <ele>418.3</ele>
        <time>2017-03-04T09:13:10Z</time>
      </trkpt>
      <trkpt lat="38.211281" lon="-1.763729">
        <ele>418.8</ele>
        <time>2017-03-04T09:13:11Z</time>
      </trkpt>
      <trkpt lat="38.211273" lon="-1.763745">
        <ele>418.8</ele>
        <time>2017-03-04T09:13:12Z</time>
      </trkpt>
      <trkpt lat="38.211264" lon="-1.763760">
        <ele>418.3</ele>
        <time>2017-03-04T09:13:13Z</time>
      </trkpt>
      <trkpt lat="38.211256" lon="-1.763780">
        <ele>418.3</ele>
        <time>2017-03-04T09:13:14Z</time>
      </trkpt>
      <trkpt lat="38.211248" lon="-1.763798">
        <ele>418.3</ele>
        <time>2017-03-04T09:13:15Z</time>
      </trkpt>
      <trkpt lat="38.211236" lon="-1.763814">
        <ele>418.3</ele>
        <time>2017-03-04T09:13:16Z</time>
      </trkpt>
      <trkpt lat="38.211113" lon="-1.764051">
        <ele>418.3</ele>
        <time>2017-03-04T09:13:30Z</time>
      </trkpt>
      <trkpt lat="38.211097" lon="-1.764116">
        <ele>417.8</ele>
        <time>2017-03-04T09:13:41Z</time>
      </trkpt>
      <trkpt lat="38.211091" lon="-1.764134">
        <ele>417.8</ele>
        <time>2017-03-04T09:13:42Z</time>
      </trkpt>
      <trkpt lat="38.211088" lon="-1.764149">
        <ele>418.3</ele>
        <time>2017-03-04T09:13:43Z</time>
      </trkpt>
      <trkpt lat="38.211083" lon="-1.764166">
        <ele>418.8</ele>
        <time>2017-03-04T09:13:44Z</time>
      </trkpt>
      <trkpt lat="38.211079" lon="-1.764187">
        <ele>417.8</ele>
        <time>2017-03-04T09:13:45Z</time>
      </trkpt>
      <trkpt lat="38.211072" lon="-1.764206">
        <ele>417.8</ele>
        <time>2017-03-04T09:13:46Z</time>
      </trkpt>
      <trkpt lat="38.211060" lon="-1.764221">
        <ele>417.8</ele>
        <time>2017-03-04T09:13:47Z</time>
      </trkpt>
      <trkpt lat="38.211050" lon="-1.764235">
        <ele>417.8</ele>
        <time>2017-03-04T09:13:48Z</time>
      </trkpt>
      <trkpt lat="38.211041" lon="-1.764248">
        <ele>417.8</ele>
        <time>2017-03-04T09:13:49Z</time>
      </trkpt>
      <trkpt lat="38.211033" lon="-1.764265">
        <ele>417.8</ele>
        <time>2017-03-04T09:13:50Z</time>
      </trkpt>
      <trkpt lat="38.211026" lon="-1.764281">
        <ele>418.3</ele>
        <time>2017-03-04T09:13:51Z</time>
      </trkpt>
      <trkpt lat="38.211019" lon="-1.764298">
        <ele>417.8</ele>
        <time>2017-03-04T09:13:52Z</time>
      </trkpt>
      <trkpt lat="38.211012" lon="-1.764313">
        <ele>418.3</ele>
        <time>2017-03-04T09:13:53Z</time>
      </trkpt>
      <trkpt lat="38.211004" lon="-1.764325">
        <ele>418.3</ele>
        <time>2017-03-04T09:13:54Z</time>
      </trkpt>
      <trkpt lat="38.210996" lon="-1.764340">
        <ele>418.3</ele>
        <time>2017-03-04T09:13:55Z</time>
      </trkpt>
      <trkpt lat="38.210989" lon="-1.764369">
        <ele>418.8</ele>
        <time>2017-03-04T09:14:12Z</time>
      </trkpt>
      <trkpt lat="38.211004" lon="-1.764423">
        <ele>418.3</ele>
        <time>2017-03-04T09:14:31Z</time>
      </trkpt>
      <trkpt lat="38.211177" lon="-1.764616">
        <ele>417.8</ele>
        <time>2017-03-04T09:14:46Z</time>
      </trkpt>
      <trkpt lat="38.211305" lon="-1.764772">
        <ele>416.9</ele>
        <time>2017-03-04T09:14:59Z</time>
      </trkpt>
      <trkpt lat="38.211416" lon="-1.764883">
        <ele>416.4</ele>
        <time>2017-03-04T09:15:12Z</time>
      </trkpt>
      <trkpt lat="38.211596" lon="-1.765083">
        <ele>416.4</ele>
        <time>2017-03-04T09:15:28Z</time>
      </trkpt>
      <trkpt lat="38.211689" lon="-1.765337">
        <ele>415.4</ele>
        <time>2017-03-04T09:15:42Z</time>
      </trkpt>
      <trkpt lat="38.211832" lon="-1.765540">
        <ele>415.0</ele>
        <time>2017-03-04T09:15:56Z</time>
      </trkpt>
      <trkpt lat="38.212043" lon="-1.765638">
        <ele>414.5</ele>
        <time>2017-03-04T09:16:12Z</time>
      </trkpt>
      <trkpt lat="38.212254" lon="-1.765775">
        <ele>413.5</ele>
        <time>2017-03-04T09:16:27Z</time>
      </trkpt>
      <trkpt lat="38.212371" lon="-1.766020">
        <ele>413.5</ele>
        <time>2017-03-04T09:16:41Z</time>
      </trkpt>
      <trkpt lat="38.212536" lon="-1.766282">
        <ele>414.5</ele>
        <time>2017-03-04T09:16:58Z</time>
      </trkpt>
      <trkpt lat="38.212614" lon="-1.766449">
        <ele>414.5</ele>
        <time>2017-03-04T09:17:08Z</time>
      </trkpt>
      <trkpt lat="38.212635" lon="-1.766477">
        <ele>415.0</ele>
        <time>2017-03-04T09:17:10Z</time>
      </trkpt>
      <trkpt lat="38.212641" lon="-1.766495">
        <ele>414.5</ele>
        <time>2017-03-04T09:17:11Z</time>
      </trkpt>
      <trkpt lat="38.212648" lon="-1.766514">
        <ele>415.0</ele>
        <time>2017-03-04T09:17:12Z</time>
      </trkpt>
      <trkpt lat="38.212653" lon="-1.766533">
        <ele>415.0</ele>
        <time>2017-03-04T09:17:13Z</time>
      </trkpt>
      <trkpt lat="38.212657" lon="-1.766551">
        <ele>415.0</ele>
        <time>2017-03-04T09:17:14Z</time>
      </trkpt>
      <trkpt lat="38.212669" lon="-1.766756">
        <ele>416.4</ele>
        <time>2017-03-04T09:17:27Z</time>
      </trkpt>
      <trkpt lat="38.212679" lon="-1.766764">
        <ele>416.4</ele>
        <time>2017-03-04T09:17:29Z</time>
      </trkpt>
      <trkpt lat="38.212683" lon="-1.766801">
        <ele>415.9</ele>
        <time>2017-03-04T09:17:38Z</time>
      </trkpt>
      <trkpt lat="38.212682" lon="-1.766820">
        <ele>415.4</ele>
        <time>2017-03-04T09:17:39Z</time>
      </trkpt>
      <trkpt lat="38.212681" lon="-1.766839">
        <ele>414.5</ele>
        <time>2017-03-04T09:17:40Z</time>
      </trkpt>
      <trkpt lat="38.212682" lon="-1.766853">
        <ele>414.5</ele>
        <time>2017-03-04T09:17:41Z</time>
      </trkpt>
      <trkpt lat="38.212682" lon="-1.766866">
        <ele>416.4</ele>
        <time>2017-03-04T09:17:42Z</time>
      </trkpt>
      <trkpt lat="38.212681" lon="-1.766888">
        <ele>415.4</ele>
        <time>2017-03-04T09:17:43Z</time>
      </trkpt>
      <trkpt lat="38.212677" lon="-1.766912">
        <ele>416.9</ele>
        <time>2017-03-04T09:17:44Z</time>
      </trkpt>
      <trkpt lat="38.212673" lon="-1.766934">
        <ele>415.4</ele>
        <time>2017-03-04T09:17:45Z</time>
      </trkpt>
      <trkpt lat="38.212670" lon="-1.766954">
        <ele>415.9</ele>
        <time>2017-03-04T09:17:46Z</time>
      </trkpt>
      <trkpt lat="38.212667" lon="-1.766978">
        <ele>416.4</ele>
        <time>2017-03-04T09:17:47Z</time>
      </trkpt>
      <trkpt lat="38.212640" lon="-1.767271">
        <ele>416.4</ele>
        <time>2017-03-04T09:18:02Z</time>
      </trkpt>
      <trkpt lat="38.212629" lon="-1.767473">
        <ele>417.4</ele>
        <time>2017-03-04T09:18:13Z</time>
      </trkpt>
      <trkpt lat="38.212560" lon="-1.767775">
        <ele>417.8</ele>
        <time>2017-03-04T09:18:29Z</time>
      </trkpt>
      <trkpt lat="38.212559" lon="-1.767793">
        <ele>417.4</ele>
        <time>2017-03-04T09:18:34Z</time>
      </trkpt>
      <trkpt lat="38.212548" lon="-1.767796">
        <ele>417.4</ele>
        <time>2017-03-04T09:18:35Z</time>
      </trkpt>
      <trkpt lat="38.212538" lon="-1.767804">
        <ele>416.9</ele>
        <time>2017-03-04T09:18:36Z</time>
      </trkpt>
      <trkpt lat="38.212530" lon="-1.767815">
        <ele>416.9</ele>
        <time>2017-03-04T09:18:37Z</time>
      </trkpt>
      <trkpt lat="38.212508" lon="-1.767856">
        <ele>417.8</ele>
        <time>2017-03-04T09:18:50Z</time>
      </trkpt>
      <trkpt lat="38.212515" lon="-1.767883">
        <ele>417.4</ele>
        <time>2017-03-04T09:18:59Z</time>
      </trkpt>
      <trkpt lat="38.212515" lon="-1.767905">
        <ele>417.4</ele>
        <time>2017-03-04T09:19:00Z</time>
      </trkpt>
      <trkpt lat="38.212478" lon="-1.768196">
        <ele>417.8</ele>
        <time>2017-03-04T09:19:16Z</time>
      </trkpt>
      <trkpt lat="38.212476" lon="-1.768226">
        <ele>418.3</ele>
        <time>2017-03-04T09:19:18Z</time>
      </trkpt>
      <trkpt lat="38.212471" lon="-1.768240">
        <ele>418.8</ele>
        <time>2017-03-04T09:19:19Z</time>
      </trkpt>
      <trkpt lat="38.212469" lon="-1.768257">
        <ele>418.8</ele>
        <time>2017-03-04T09:19:20Z</time>
      </trkpt>
      <trkpt lat="38.212421" lon="-1.768536">
        <ele>414.5</ele>
        <time>2017-03-04T09:19:36Z</time>
      </trkpt>
      <trkpt lat="38.212424" lon="-1.768556">
        <ele>421.2</ele>
        <time>2017-03-04T09:19:37Z</time>
      </trkpt>
      <trkpt lat="38.212426" lon="-1.768572">
        <ele>419.3</ele>
        <time>2017-03-04T09:19:38Z</time>
      </trkpt>
      <trkpt lat="38.212430" lon="-1.768597">
        <ele>417.8</ele>
        <time>2017-03-04T09:19:40Z</time>
      </trkpt>
      <trkpt lat="38.212436" lon="-1.768610">
        <ele>417.8</ele>
        <time>2017-03-04T09:19:41Z</time>
      </trkpt>
      <trkpt lat="38.212482" lon="-1.768780">
        <ele>418.8</ele>
        <time>2017-03-04T09:19:52Z</time>
      </trkpt>
      <trkpt lat="38.212510" lon="-1.768854">
        <ele>419.3</ele>
        <time>2017-03-04T09:20:03Z</time>
      </trkpt>
      <trkpt lat="38.212509" lon="-1.768891">
        <ele>419.8</ele>
        <time>2017-03-04T09:20:05Z</time>
      </trkpt>
      <trkpt lat="38.212532" lon="-1.768953">
        <ele>419.8</ele>
        <time>2017-03-04T09:20:09Z</time>
      </trkpt>
      <trkpt lat="38.212537" lon="-1.768969">
        <ele>419.8</ele>
        <time>2017-03-04T09:20:10Z</time>
      </trkpt>
      <trkpt lat="38.212586" lon="-1.769156">
        <ele>421.2</ele>
        <time>2017-03-04T09:20:23Z</time>
      </trkpt>
      <trkpt lat="38.212593" lon="-1.769168">
        <ele>421.2</ele>
        <time>2017-03-04T09:20:24Z</time>
      </trkpt>
      <trkpt lat="38.212599" lon="-1.769180">
        <ele>421.7</ele>
        <time>2017-03-04T09:20:25Z</time>
      </trkpt>
      <trkpt lat="38.212641" lon="-1.769311">
        <ele>422.6</ele>
        <time>2017-03-04T09:20:36Z</time>
      </trkpt>
      <trkpt lat="38.212645" lon="-1.769327">
        <ele>422.6</ele>
        <time>2017-03-04T09:20:37Z</time>
      </trkpt>
      <trkpt lat="38.212647" lon="-1.769340">
        <ele>422.6</ele>
        <time>2017-03-04T09:20:38Z</time>
      </trkpt>
      <trkpt lat="38.212689" lon="-1.769542">
        <ele>425.5</ele>
        <time>2017-03-04T09:20:53Z</time>
      </trkpt>
      <trkpt lat="38.212699" lon="-1.769596">
        <ele>426.5</ele>
        <time>2017-03-04T09:21:01Z</time>
      </trkpt>
      <trkpt lat="38.212708" lon="-1.769612">
        <ele>427.0</ele>
        <time>2017-03-04T09:21:02Z</time>
      </trkpt>
      <trkpt lat="38.212738" lon="-1.769876">
        <ele>428.4</ele>
        <time>2017-03-04T09:21:27Z</time>
      </trkpt>
      <trkpt lat="38.212738" lon="-1.769885">
        <ele>427.9</ele>
        <time>2017-03-04T09:21:29Z</time>
      </trkpt>
      <trkpt lat="38.212738" lon="-1.769903">
        <ele>427.9</ele>
        <time>2017-03-04T09:21:30Z</time>
      </trkpt>
      <trkpt lat="38.212746" lon="-1.769998">
        <ele>429.4</ele>
        <time>2017-03-04T09:21:37Z</time>
      </trkpt>
      <trkpt lat="38.212667" lon="-1.770375">
        <ele>433.2</ele>
        <time>2017-03-04T09:22:22Z</time>
      </trkpt>
      <trkpt lat="38.212615" lon="-1.770472">
        <ele>433.7</ele>
        <time>2017-03-04T09:22:35Z</time>
      </trkpt>
      <trkpt lat="38.212588" lon="-1.770602">
        <ele>435.1</ele>
        <time>2017-03-04T09:23:38Z</time>
      </trkpt>
      <trkpt lat="38.212588" lon="-1.770616">
        <ele>434.6</ele>
        <time>2017-03-04T09:23:39Z</time>
      </trkpt>
      <trkpt lat="38.212581" lon="-1.770655">
        <ele>435.6</ele>
        <time>2017-03-04T09:23:42Z</time>
      </trkpt>
      <trkpt lat="38.212572" lon="-1.770697">
        <ele>435.6</ele>
        <time>2017-03-04T09:23:46Z</time>
      </trkpt>
      <trkpt lat="38.212567" lon="-1.770721">
        <ele>436.1</ele>
        <time>2017-03-04T09:23:48Z</time>
      </trkpt>
      <trkpt lat="38.212560" lon="-1.770746">
        <ele>436.6</ele>
        <time>2017-03-04T09:23:55Z</time>
      </trkpt>
      <trkpt lat="38.212555" lon="-1.770761">
        <ele>436.1</ele>
        <time>2017-03-04T09:23:56Z</time>
      </trkpt>
      <trkpt lat="38.212570" lon="-1.770853">
        <ele>437.1</ele>
        <time>2017-03-04T09:24:08Z</time>
      </trkpt>
      <trkpt lat="38.212577" lon="-1.770991">
        <ele>436.6</ele>
        <time>2017-03-04T09:24:23Z</time>
      </trkpt>
      <trkpt lat="38.212654" lon="-1.771302">
        <ele>435.1</ele>
        <time>2017-03-04T09:25:40Z</time>
      </trkpt>
      <trkpt lat="38.212672" lon="-1.771362">
        <ele>435.1</ele>
        <time>2017-03-04T09:25:53Z</time>
      </trkpt>
      <trkpt lat="38.212672" lon="-1.771417">
        <ele>435.1</ele>
        <time>2017-03-04T09:26:01Z</time>
      </trkpt>
      <trkpt lat="38.212713" lon="-1.771573">
        <ele>433.7</ele>
        <time>2017-03-04T09:26:12Z</time>
      </trkpt>
      <trkpt lat="38.212750" lon="-1.771713">
        <ele>432.7</ele>
        <time>2017-03-04T09:26:21Z</time>
      </trkpt>
      <trkpt lat="38.212745" lon="-1.771802">
        <ele>431.3</ele>
        <time>2017-03-04T09:26:35Z</time>
      </trkpt>
      <trkpt lat="38.212745" lon="-1.771766">
        <ele>431.3</ele>
        <time>2017-03-04T09:26:45Z</time>
      </trkpt>
      <trkpt lat="38.212746" lon="-1.771780">
        <ele>431.3</ele>
        <time>2017-03-04T09:26:46Z</time>
      </trkpt>
      <trkpt lat="38.212757" lon="-1.771846">
        <ele>430.8</ele>
        <time>2017-03-04T09:26:50Z</time>
      </trkpt>
      <trkpt lat="38.212764" lon="-1.771922">
        <ele>429.9</ele>
        <time>2017-03-04T09:27:02Z</time>
      </trkpt>
      <trkpt lat="38.212749" lon="-1.772013">
        <ele>428.9</ele>
        <time>2017-03-04T09:27:11Z</time>
      </trkpt>
      <trkpt lat="38.212744" lon="-1.772135">
        <ele>427.9</ele>
        <time>2017-03-04T09:27:19Z</time>
      </trkpt>
      <trkpt lat="38.212715" lon="-1.772326">
        <ele>426.0</ele>
        <time>2017-03-04T09:27:32Z</time>
      </trkpt>
      <trkpt lat="38.212691" lon="-1.772394">
        <ele>425.0</ele>
        <time>2017-03-04T09:27:37Z</time>
      </trkpt>
      <trkpt lat="38.212699" lon="-1.772639">
        <ele>423.1</ele>
        <time>2017-03-04T09:27:52Z</time>
      </trkpt>
      <trkpt lat="38.212738" lon="-1.772829">
        <ele>422.2</ele>
        <time>2017-03-04T09:28:03Z</time>
      </trkpt>
      <trkpt lat="38.212757" lon="-1.772959">
        <ele>421.2</ele>
        <time>2017-03-04T09:28:11Z</time>
      </trkpt>
      <trkpt lat="38.212759" lon="-1.773086">
        <ele>419.8</ele>
        <time>2017-03-04T09:28:18Z</time>
      </trkpt>
      <trkpt lat="38.212767" lon="-1.773328">
        <ele>417.8</ele>
        <time>2017-03-04T09:28:32Z</time>
      </trkpt>
      <trkpt lat="38.212784" lon="-1.773455">
        <ele>416.9</ele>
        <time>2017-03-04T09:28:39Z</time>
      </trkpt>
      <trkpt lat="38.212789" lon="-1.773495">
        <ele>416.9</ele>
        <time>2017-03-04T09:28:42Z</time>
      </trkpt>
      <trkpt lat="38.212830" lon="-1.773567">
        <ele>415.9</ele>
        <time>2017-03-04T09:28:49Z</time>
      </trkpt>
      <trkpt lat="38.212853" lon="-1.773598">
        <ele>415.9</ele>
        <time>2017-03-04T09:28:52Z</time>
      </trkpt>
      <trkpt lat="38.212984" lon="-1.773753">
        <ele>413.5</ele>
        <time>2017-03-04T09:29:06Z</time>
      </trkpt>
      <trkpt lat="38.213097" lon="-1.773908">
        <ele>411.6</ele>
        <time>2017-03-04T09:29:18Z</time>
      </trkpt>
      <trkpt lat="38.213191" lon="-1.774146">
        <ele>409.2</ele>
        <time>2017-03-04T09:29:32Z</time>
      </trkpt>
      <trkpt lat="38.213217" lon="-1.774225">
        <ele>408.2</ele>
        <time>2017-03-04T09:29:37Z</time>
      </trkpt>
      <trkpt lat="38.213263" lon="-1.774471">
        <ele>406.3</ele>
        <time>2017-03-04T09:29:52Z</time>
      </trkpt>
      <trkpt lat="38.213286" lon="-1.774673">
        <ele>406.3</ele>
        <time>2017-03-04T09:30:04Z</time>
      </trkpt>
      <trkpt lat="38.213285" lon="-1.774726">
        <ele>406.3</ele>
        <time>2017-03-04T09:30:07Z</time>
      </trkpt>
      <trkpt lat="38.213240" lon="-1.775012">
        <ele>404.4</ele>
        <time>2017-03-04T09:30:24Z</time>
      </trkpt>
      <trkpt lat="38.213176" lon="-1.775302">
        <ele>402.0</ele>
        <time>2017-03-04T09:30:41Z</time>
      </trkpt>
      <trkpt lat="38.212975" lon="-1.775455">
        <ele>401.0</ele>
        <time>2017-03-04T09:30:57Z</time>
      </trkpt>
      <trkpt lat="38.212833" lon="-1.775556">
        <ele>399.1</ele>
        <time>2017-03-04T09:31:10Z</time>
      </trkpt>
      <trkpt lat="38.212596" lon="-1.775593">
        <ele>397.6</ele>
        <time>2017-03-04T09:31:26Z</time>
      </trkpt>
      <trkpt lat="38.212444" lon="-1.775788">
        <ele>396.2</ele>
        <time>2017-03-04T09:31:41Z</time>
      </trkpt>
      <trkpt lat="38.212302" lon="-1.775892">
        <ele>395.7</ele>
        <time>2017-03-04T09:31:54Z</time>
      </trkpt>
      <trkpt lat="38.212083" lon="-1.776018">
        <ele>396.2</ele>
        <time>2017-03-04T09:32:12Z</time>
      </trkpt>
      <trkpt lat="38.212056" lon="-1.776048">
        <ele>396.7</ele>
        <time>2017-03-04T09:32:15Z</time>
      </trkpt>
      <trkpt lat="38.211970" lon="-1.776133">
        <ele>397.2</ele>
        <time>2017-03-04T09:32:28Z</time>
      </trkpt>
      <trkpt lat="38.211970" lon="-1.776140">
        <ele>396.7</ele>
        <time>2017-03-04T09:32:33Z</time>
      </trkpt>
      <trkpt lat="38.211933" lon="-1.776191">
        <ele>397.2</ele>
        <time>2017-03-04T09:33:03Z</time>
      </trkpt>
      <trkpt lat="38.211900" lon="-1.776216">
        <ele>397.6</ele>
        <time>2017-03-04T09:33:08Z</time>
      </trkpt>
      <trkpt lat="38.211870" lon="-1.776268">
        <ele>398.1</ele>
        <time>2017-03-04T09:33:12Z</time>
      </trkpt>
      <trkpt lat="38.211835" lon="-1.776302">
        <ele>399.1</ele>
        <time>2017-03-04T09:33:15Z</time>
      </trkpt>
      <trkpt lat="38.211884" lon="-1.776417">
        <ele>400.0</ele>
        <time>2017-03-04T09:33:28Z</time>
      </trkpt>
      <trkpt lat="38.212013" lon="-1.776543">
        <ele>399.6</ele>
        <time>2017-03-04T09:33:42Z</time>
      </trkpt>
      <trkpt lat="38.212065" lon="-1.776573">
        <ele>400.5</ele>
        <time>2017-03-04T09:33:46Z</time>
      </trkpt>
      <trkpt lat="38.212219" lon="-1.776778">
        <ele>401.5</ele>
        <time>2017-03-04T09:34:02Z</time>
      </trkpt>
      <trkpt lat="38.212263" lon="-1.776834">
        <ele>402.0</ele>
        <time>2017-03-04T09:34:07Z</time>
      </trkpt>
      <trkpt lat="38.212433" lon="-1.777012">
        <ele>405.3</ele>
        <time>2017-03-04T09:34:23Z</time>
      </trkpt>
      <trkpt lat="38.212581" lon="-1.777197">
        <ele>402.0</ele>
        <time>2017-03-04T09:34:37Z</time>
      </trkpt>
      <trkpt lat="38.212730" lon="-1.777357">
        <ele>400.0</ele>
        <time>2017-03-04T09:34:50Z</time>
      </trkpt>
      <trkpt lat="38.212818" lon="-1.777461">
        <ele>399.1</ele>
        <time>2017-03-04T09:35:00Z</time>
      </trkpt>
      <trkpt lat="38.212868" lon="-1.777518">
        <ele>398.6</ele>
        <time>2017-03-04T09:35:14Z</time>
      </trkpt>
      <trkpt lat="38.212881" lon="-1.777552">
        <ele>399.1</ele>
        <time>2017-03-04T09:35:22Z</time>
      </trkpt>
      <trkpt lat="38.212889" lon="-1.777580">
        <ele>398.6</ele>
        <time>2017-03-04T09:35:24Z</time>
      </trkpt>
      <trkpt lat="38.212969" lon="-1.777827">
        <ele>398.6</ele>
        <time>2017-03-04T09:35:39Z</time>
      </trkpt>
      <trkpt lat="38.213028" lon="-1.778011">
        <ele>398.6</ele>
        <time>2017-03-04T09:35:52Z</time>
      </trkpt>
      <trkpt lat="38.213073" lon="-1.778135">
        <ele>399.1</ele>
        <time>2017-03-04T09:36:00Z</time>
      </trkpt>
      <trkpt lat="38.213124" lon="-1.778386">
        <ele>399.1</ele>
        <time>2017-03-04T09:36:14Z</time>
      </trkpt>
      <trkpt lat="38.213174" lon="-1.778533">
        <ele>399.1</ele>
        <time>2017-03-04T09:36:25Z</time>
      </trkpt>
      <trkpt lat="38.213185" lon="-1.778567">
        <ele>402.9</ele>
        <time>2017-03-04T09:36:27Z</time>
      </trkpt>
      <trkpt lat="38.213185" lon="-1.778589">
        <ele>401.0</ele>
        <time>2017-03-04T09:36:28Z</time>
      </trkpt>
      <trkpt lat="38.213187" lon="-1.778608">
        <ele>398.6</ele>
        <time>2017-03-04T09:36:29Z</time>
      </trkpt>
      <trkpt lat="38.213191" lon="-1.778627">
        <ele>398.6</ele>
        <time>2017-03-04T09:36:30Z</time>
      </trkpt>
      <trkpt lat="38.213199" lon="-1.778645">
        <ele>398.1</ele>
        <time>2017-03-04T09:36:31Z</time>
      </trkpt>
      <trkpt lat="38.213215" lon="-1.778647">
        <ele>400.5</ele>
        <time>2017-03-04T09:36:33Z</time>
      </trkpt>
      <trkpt lat="38.213213" lon="-1.778657">
        <ele>399.6</ele>
        <time>2017-03-04T09:36:35Z</time>
      </trkpt>
      <trkpt lat="38.213278" lon="-1.778734">
        <ele>399.6</ele>
        <time>2017-03-04T09:36:40Z</time>
      </trkpt>
      <trkpt lat="38.213293" lon="-1.778739">
        <ele>400.0</ele>
        <time>2017-03-04T09:36:41Z</time>
      </trkpt>
      <trkpt lat="38.213310" lon="-1.778742">
        <ele>400.0</ele>
        <time>2017-03-04T09:36:42Z</time>
      </trkpt>
      <trkpt lat="38.213332" lon="-1.778757">
        <ele>400.5</ele>
        <time>2017-03-04T09:36:47Z</time>
      </trkpt>
      <trkpt lat="38.213342" lon="-1.778770">
        <ele>401.0</ele>
        <time>2017-03-04T09:36:48Z</time>
      </trkpt>
      <trkpt lat="38.213407" lon="-1.778834">
        <ele>402.5</ele>
        <time>2017-03-04T09:36:54Z</time>
      </trkpt>
      <trkpt lat="38.213417" lon="-1.778851">
        <ele>402.9</ele>
        <time>2017-03-04T09:36:55Z</time>
      </trkpt>
      <trkpt lat="38.213428" lon="-1.778869">
        <ele>402.9</ele>
        <time>2017-03-04T09:36:56Z</time>
      </trkpt>
      <trkpt lat="38.213432" lon="-1.778885">
        <ele>403.4</ele>
        <time>2017-03-04T09:36:57Z</time>
      </trkpt>
      <trkpt lat="38.213435" lon="-1.778902">
        <ele>403.9</ele>
        <time>2017-03-04T09:36:58Z</time>
      </trkpt>
      <trkpt lat="38.213439" lon="-1.778917">
        <ele>403.9</ele>
        <time>2017-03-04T09:36:59Z</time>
      </trkpt>
      <trkpt lat="38.213444" lon="-1.778935">
        <ele>403.9</ele>
        <time>2017-03-04T09:37:00Z</time>
      </trkpt>
      <trkpt lat="38.213447" lon="-1.778950">
        <ele>404.4</ele>
        <time>2017-03-04T09:37:01Z</time>
      </trkpt>
      <trkpt lat="38.213447" lon="-1.778987">
        <ele>404.9</ele>
        <time>2017-03-04T09:37:07Z</time>
      </trkpt>
      <trkpt lat="38.213452" lon="-1.779011">
        <ele>405.3</ele>
        <time>2017-03-04T09:37:08Z</time>
      </trkpt>
      <trkpt lat="38.213456" lon="-1.779029">
        <ele>405.3</ele>
        <time>2017-03-04T09:37:09Z</time>
      </trkpt>
      <trkpt lat="38.213462" lon="-1.779046">
        <ele>405.3</ele>
        <time>2017-03-04T09:37:10Z</time>
      </trkpt>
      <trkpt lat="38.213469" lon="-1.779063">
        <ele>405.3</ele>
        <time>2017-03-04T09:37:11Z</time>
      </trkpt>
      <trkpt lat="38.213480" lon="-1.779076">
        <ele>405.8</ele>
        <time>2017-03-04T09:37:12Z</time>
      </trkpt>
      <trkpt lat="38.213551" lon="-1.779208">
        <ele>407.3</ele>
        <time>2017-03-04T09:37:21Z</time>
      </trkpt>
      <trkpt lat="38.213562" lon="-1.779245">
        <ele>407.3</ele>
        <time>2017-03-04T09:37:24Z</time>
      </trkpt>
      <trkpt lat="38.213611" lon="-1.779347">
        <ele>408.2</ele>
        <time>2017-03-04T09:37:38Z</time>
      </trkpt>
      <trkpt lat="38.213611" lon="-1.779369">
        <ele>407.7</ele>
        <time>2017-03-04T09:37:42Z</time>
      </trkpt>
      <trkpt lat="38.213618" lon="-1.779387">
        <ele>407.7</ele>
        <time>2017-03-04T09:37:43Z</time>
      </trkpt>
      <trkpt lat="38.213632" lon="-1.779397">
        <ele>408.2</ele>
        <time>2017-03-04T09:37:44Z</time>
      </trkpt>
      <trkpt lat="38.213643" lon="-1.779415">
        <ele>407.7</ele>
        <time>2017-03-04T09:37:45Z</time>
      </trkpt>
      <trkpt lat="38.213651" lon="-1.779433">
        <ele>407.3</ele>
        <time>2017-03-04T09:37:46Z</time>
      </trkpt>
      <trkpt lat="38.213660" lon="-1.779448">
        <ele>408.2</ele>
        <time>2017-03-04T09:37:47Z</time>
      </trkpt>
      <trkpt lat="38.213664" lon="-1.779462">
        <ele>408.2</ele>
        <time>2017-03-04T09:37:48Z</time>
      </trkpt>
      <trkpt lat="38.213672" lon="-1.779493">
        <ele>408.7</ele>
        <time>2017-03-04T09:37:50Z</time>
      </trkpt>
      <trkpt lat="38.213700" lon="-1.779521">
        <ele>412.5</ele>
        <time>2017-03-04T09:38:01Z</time>
      </trkpt>
      <trkpt lat="38.213698" lon="-1.779520">
        <ele>412.1</ele>
        <time>2017-03-04T09:38:02Z</time>
      </trkpt>
      <trkpt lat="38.213706" lon="-1.779511">
        <ele>410.6</ele>
        <time>2017-03-04T09:38:05Z</time>
      </trkpt>
      <trkpt lat="38.213716" lon="-1.779546">
        <ele>411.1</ele>
        <time>2017-03-04T09:38:07Z</time>
      </trkpt>
      <trkpt lat="38.213722" lon="-1.779567">
        <ele>410.6</ele>
        <time>2017-03-04T09:38:08Z</time>
      </trkpt>
      <trkpt lat="38.213777" lon="-1.779682">
        <ele>412.1</ele>
        <time>2017-03-04T09:38:18Z</time>
      </trkpt>
      <trkpt lat="38.213829" lon="-1.779794">
        <ele>414.0</ele>
        <time>2017-03-04T09:38:29Z</time>
      </trkpt>
      <trkpt lat="38.213879" lon="-1.779900">
        <ele>414.5</ele>
        <time>2017-03-04T09:38:40Z</time>
      </trkpt>
      <trkpt lat="38.213886" lon="-1.779912">
        <ele>414.5</ele>
        <time>2017-03-04T09:38:41Z</time>
      </trkpt>
      <trkpt lat="38.213893" lon="-1.779926">
        <ele>415.0</ele>
        <time>2017-03-04T09:38:42Z</time>
      </trkpt>
      <trkpt lat="38.213902" lon="-1.779940">
        <ele>415.0</ele>
        <time>2017-03-04T09:38:43Z</time>
      </trkpt>
      <trkpt lat="38.213913" lon="-1.779968">
        <ele>415.0</ele>
        <time>2017-03-04T09:38:45Z</time>
      </trkpt>
      <trkpt lat="38.213924" lon="-1.779990">
        <ele>415.0</ele>
        <time>2017-03-04T09:38:47Z</time>
      </trkpt>
      <trkpt lat="38.213934" lon="-1.780015">
        <ele>417.4</ele>
        <time>2017-03-04T09:38:49Z</time>
      </trkpt>
      <trkpt lat="38.213934" lon="-1.780031">
        <ele>415.4</ele>
        <time>2017-03-04T09:38:50Z</time>
      </trkpt>
      <trkpt lat="38.213936" lon="-1.780046">
        <ele>415.4</ele>
        <time>2017-03-04T09:38:51Z</time>
      </trkpt>
      <trkpt lat="38.213944" lon="-1.780058">
        <ele>415.9</ele>
        <time>2017-03-04T09:38:52Z</time>
      </trkpt>
      <trkpt lat="38.213956" lon="-1.780065">
        <ele>415.9</ele>
        <time>2017-03-04T09:38:53Z</time>
      </trkpt>
      <trkpt lat="38.213965" lon="-1.780076">
        <ele>416.4</ele>
        <time>2017-03-04T09:38:54Z</time>
      </trkpt>
      <trkpt lat="38.213968" lon="-1.780088">
        <ele>415.9</ele>
        <time>2017-03-04T09:38:55Z</time>
      </trkpt>
      <trkpt lat="38.213975" lon="-1.780100">
        <ele>415.9</ele>
        <time>2017-03-04T09:38:56Z</time>
      </trkpt>
      <trkpt lat="38.214042" lon="-1.780205">
        <ele>416.9</ele>
        <time>2017-03-04T09:39:08Z</time>
      </trkpt>
      <trkpt lat="38.214056" lon="-1.780287">
        <ele>417.8</ele>
        <time>2017-03-04T09:39:13Z</time>
      </trkpt>
      <trkpt lat="38.214076" lon="-1.780387">
        <ele>418.8</ele>
        <time>2017-03-04T09:39:22Z</time>
      </trkpt>
      <trkpt lat="38.214069" lon="-1.780398">
        <ele>418.3</ele>
        <time>2017-03-04T09:39:23Z</time>
      </trkpt>
      <trkpt lat="38.214066" lon="-1.780414">
        <ele>418.8</ele>
        <time>2017-03-04T09:39:24Z</time>
      </trkpt>
      <trkpt lat="38.214067" lon="-1.780431">
        <ele>418.8</ele>
        <time>2017-03-04T09:39:25Z</time>
      </trkpt>
      <trkpt lat="38.214058" lon="-1.780473">
        <ele>419.3</ele>
        <time>2017-03-04T09:39:28Z</time>
      </trkpt>
      <trkpt lat="38.214051" lon="-1.780499">
        <ele>419.8</ele>
        <time>2017-03-04T09:39:30Z</time>
      </trkpt>
      <trkpt lat="38.214045" lon="-1.780659">
        <ele>421.2</ele>
        <time>2017-03-04T09:39:42Z</time>
      </trkpt>
      <trkpt lat="38.214046" lon="-1.780674">
        <ele>421.7</ele>
        <time>2017-03-04T09:39:43Z</time>
      </trkpt>
      <trkpt lat="38.214050" lon="-1.780692">
        <ele>421.7</ele>
        <time>2017-03-04T09:39:44Z</time>
      </trkpt>
      <trkpt lat="38.214053" lon="-1.780706">
        <ele>421.7</ele>
        <time>2017-03-04T09:39:45Z</time>
      </trkpt>
      <trkpt lat="38.214058" lon="-1.780721">
        <ele>421.7</ele>
        <time>2017-03-04T09:39:46Z</time>
      </trkpt>
      <trkpt lat="38.214081" lon="-1.780785">
        <ele>422.6</ele>
        <time>2017-03-04T09:39:53Z</time>
      </trkpt>
      <trkpt lat="38.214087" lon="-1.780802">
        <ele>422.2</ele>
        <time>2017-03-04T09:39:54Z</time>
      </trkpt>
      <trkpt lat="38.214122" lon="-1.780861">
        <ele>423.1</ele>
        <time>2017-03-04T09:39:59Z</time>
      </trkpt>
      <trkpt lat="38.214145" lon="-1.780899">
        <ele>423.1</ele>
        <time>2017-03-04T09:40:04Z</time>
      </trkpt>
      <trkpt lat="38.214151" lon="-1.780914">
        <ele>423.1</ele>
        <time>2017-03-04T09:40:05Z</time>
      </trkpt>
      <trkpt lat="38.214156" lon="-1.780929">
        <ele>423.1</ele>
        <time>2017-03-04T09:40:06Z</time>
      </trkpt>
      <trkpt lat="38.214162" lon="-1.780948">
        <ele>423.1</ele>
        <time>2017-03-04T09:40:07Z</time>
      </trkpt>
      <trkpt lat="38.214168" lon="-1.780966">
        <ele>423.1</ele>
        <time>2017-03-04T09:40:08Z</time>
      </trkpt>
      <trkpt lat="38.214174" lon="-1.780983">
        <ele>423.6</ele>
        <time>2017-03-04T09:40:09Z</time>
      </trkpt>
      <trkpt lat="38.214181" lon="-1.781002">
        <ele>423.1</ele>
        <time>2017-03-04T09:40:10Z</time>
      </trkpt>
      <trkpt lat="38.214188" lon="-1.781019">
        <ele>423.6</ele>
        <time>2017-03-04T09:40:11Z</time>
      </trkpt>
      <trkpt lat="38.214227" lon="-1.781091">
        <ele>423.6</ele>
        <time>2017-03-04T09:40:17Z</time>
      </trkpt>
      <trkpt lat="38.214254" lon="-1.781132">
        <ele>424.1</ele>
        <time>2017-03-04T09:40:21Z</time>
      </trkpt>
      <trkpt lat="38.214288" lon="-1.781180">
        <ele>423.6</ele>
        <time>2017-03-04T09:40:25Z</time>
      </trkpt>
      <trkpt lat="38.214300" lon="-1.781189">
        <ele>423.6</ele>
        <time>2017-03-04T09:40:26Z</time>
      </trkpt>
      <trkpt lat="38.214312" lon="-1.781198">
        <ele>424.1</ele>
        <time>2017-03-04T09:40:27Z</time>
      </trkpt>
      <trkpt lat="38.214344" lon="-1.781230">
        <ele>424.1</ele>
        <time>2017-03-04T09:40:30Z</time>
      </trkpt>
      <trkpt lat="38.214353" lon="-1.781244">
        <ele>424.1</ele>
        <time>2017-03-04T09:40:31Z</time>
      </trkpt>
      <trkpt lat="38.214419" lon="-1.781386">
        <ele>425.0</ele>
        <time>2017-03-04T09:40:43Z</time>
      </trkpt>
      <trkpt lat="38.214501" lon="-1.781474">
        <ele>425.5</ele>
        <time>2017-03-04T09:40:54Z</time>
      </trkpt>
      <trkpt lat="38.214579" lon="-1.781528">
        <ele>424.6</ele>
        <time>2017-03-04T09:41:02Z</time>
      </trkpt>
      <trkpt lat="38.214589" lon="-1.781539">
        <ele>428.4</ele>
        <time>2017-03-04T09:41:03Z</time>
      </trkpt>
      <trkpt lat="38.214594" lon="-1.781549">
        <ele>428.4</ele>
        <time>2017-03-04T09:41:04Z</time>
      </trkpt>
      <trkpt lat="38.214700" lon="-1.781652">
        <ele>428.4</ele>
        <time>2017-03-04T09:41:16Z</time>
      </trkpt>
      <trkpt lat="38.214793" lon="-1.781743">
        <ele>429.9</ele>
        <time>2017-03-04T09:41:28Z</time>
      </trkpt>
      <trkpt lat="38.214847" lon="-1.781801">
        <ele>430.8</ele>
        <time>2017-03-04T09:41:35Z</time>
      </trkpt>
      <trkpt lat="38.214907" lon="-1.781851">
        <ele>430.8</ele>
        <time>2017-03-04T09:41:41Z</time>
      </trkpt>
      <trkpt lat="38.214996" lon="-1.782030">
        <ele>431.8</ele>
        <time>2017-03-04T09:41:55Z</time>
      </trkpt>
      <trkpt lat="38.214995" lon="-1.782046">
        <ele>431.3</ele>
        <time>2017-03-04T09:41:56Z</time>
      </trkpt>
      <trkpt lat="38.214995" lon="-1.782064">
        <ele>431.3</ele>
        <time>2017-03-04T09:41:57Z</time>
      </trkpt>
      <trkpt lat="38.214971" lon="-1.782232">
        <ele>431.8</ele>
        <time>2017-03-04T09:42:07Z</time>
      </trkpt>
      <trkpt lat="38.214963" lon="-1.782253">
        <ele>431.8</ele>
        <time>2017-03-04T09:42:09Z</time>
      </trkpt>
      <trkpt lat="38.214958" lon="-1.782266">
        <ele>432.2</ele>
        <time>2017-03-04T09:42:10Z</time>
      </trkpt>
      <trkpt lat="38.214953" lon="-1.782278">
        <ele>432.2</ele>
        <time>2017-03-04T09:42:11Z</time>
      </trkpt>
      <trkpt lat="38.214946" lon="-1.782289">
        <ele>432.2</ele>
        <time>2017-03-04T09:42:12Z</time>
      </trkpt>
      <trkpt lat="38.214899" lon="-1.782379">
        <ele>433.2</ele>
        <time>2017-03-04T09:42:21Z</time>
      </trkpt>
      <trkpt lat="38.214890" lon="-1.782389">
        <ele>433.2</ele>
        <time>2017-03-04T09:42:22Z</time>
      </trkpt>
      <trkpt lat="38.214880" lon="-1.782413">
        <ele>433.7</ele>
        <time>2017-03-04T09:42:24Z</time>
      </trkpt>
      <trkpt lat="38.214865" lon="-1.782438">
        <ele>433.7</ele>
        <time>2017-03-04T09:42:26Z</time>
      </trkpt>
      <trkpt lat="38.214856" lon="-1.782458">
        <ele>433.7</ele>
        <time>2017-03-04T09:42:28Z</time>
      </trkpt>
      <trkpt lat="38.214851" lon="-1.782472">
        <ele>433.7</ele>
        <time>2017-03-04T09:42:29Z</time>
      </trkpt>
      <trkpt lat="38.214842" lon="-1.782484">
        <ele>434.2</ele>
        <time>2017-03-04T09:42:30Z</time>
      </trkpt>
      <trkpt lat="38.214835" lon="-1.782497">
        <ele>433.7</ele>
        <time>2017-03-04T09:42:31Z</time>
      </trkpt>
      <trkpt lat="38.214828" lon="-1.782511">
        <ele>433.7</ele>
        <time>2017-03-04T09:42:32Z</time>
      </trkpt>
      <trkpt lat="38.214808" lon="-1.782554">
        <ele>433.7</ele>
        <time>2017-03-04T09:42:36Z</time>
      </trkpt>
      <trkpt lat="38.214756" lon="-1.782713">
        <ele>435.1</ele>
        <time>2017-03-04T09:42:48Z</time>
      </trkpt>
      <trkpt lat="38.214717" lon="-1.782974">
        <ele>435.6</ele>
        <time>2017-03-04T09:43:04Z</time>
      </trkpt>
      <trkpt lat="38.214647" lon="-1.783051">
        <ele>435.6</ele>
        <time>2017-03-04T09:43:11Z</time>
      </trkpt>
      <trkpt lat="38.214640" lon="-1.783063">
        <ele>435.6</ele>
        <time>2017-03-04T09:43:12Z</time>
      </trkpt>
      <trkpt lat="38.214633" lon="-1.783076">
        <ele>435.1</ele>
        <time>2017-03-04T09:43:13Z</time>
      </trkpt>
      <trkpt lat="38.214625" lon="-1.783089">
        <ele>436.1</ele>
        <time>2017-03-04T09:43:14Z</time>
      </trkpt>
      <trkpt lat="38.214621" lon="-1.783105">
        <ele>435.6</ele>
        <time>2017-03-04T09:43:15Z</time>
      </trkpt>
      <trkpt lat="38.214616" lon="-1.783119">
        <ele>435.6</ele>
        <time>2017-03-04T09:43:16Z</time>
      </trkpt>
      <trkpt lat="38.214611" lon="-1.783136">
        <ele>435.6</ele>
        <time>2017-03-04T09:43:17Z</time>
      </trkpt>
      <trkpt lat="38.214496" lon="-1.783322">
        <ele>436.1</ele>
        <time>2017-03-04T09:43:30Z</time>
      </trkpt>
      <trkpt lat="38.214490" lon="-1.783335">
        <ele>436.1</ele>
        <time>2017-03-04T09:43:31Z</time>
      </trkpt>
      <trkpt lat="38.214481" lon="-1.783349">
        <ele>436.1</ele>
        <time>2017-03-04T09:43:32Z</time>
      </trkpt>
      <trkpt lat="38.214391" lon="-1.783535">
        <ele>436.1</ele>
        <time>2017-03-04T09:43:47Z</time>
      </trkpt>
      <trkpt lat="38.214305" lon="-1.783746">
        <ele>435.1</ele>
        <time>2017-03-04T09:44:02Z</time>
      </trkpt>
      <trkpt lat="38.214289" lon="-1.783796">
        <ele>434.6</ele>
        <time>2017-03-04T09:44:06Z</time>
      </trkpt>
      <trkpt lat="38.214100" lon="-1.783923">
        <ele>433.7</ele>
        <time>2017-03-04T09:44:23Z</time>
      </trkpt>
      <trkpt lat="38.213870" lon="-1.784083">
        <ele>432.7</ele>
        <time>2017-03-04T09:44:43Z</time>
      </trkpt>
      <trkpt lat="38.213712" lon="-1.784147">
        <ele>433.2</ele>
        <time>2017-03-04T09:44:55Z</time>
      </trkpt>
      <trkpt lat="38.213699" lon="-1.784151">
        <ele>432.7</ele>
        <time>2017-03-04T09:44:56Z</time>
      </trkpt>
      <trkpt lat="38.213686" lon="-1.784154">
        <ele>433.2</ele>
        <time>2017-03-04T09:44:57Z</time>
      </trkpt>
      <trkpt lat="38.213454" lon="-1.784208">
        <ele>434.6</ele>
        <time>2017-03-04T09:45:15Z</time>
      </trkpt>
      <trkpt lat="38.213440" lon="-1.784215">
        <ele>434.2</ele>
        <time>2017-03-04T09:45:16Z</time>
      </trkpt>
      <trkpt lat="38.213425" lon="-1.784217">
        <ele>430.3</ele>
        <time>2017-03-04T09:45:17Z</time>
      </trkpt>
      <trkpt lat="38.213409" lon="-1.784217">
        <ele>435.6</ele>
        <time>2017-03-04T09:45:18Z</time>
      </trkpt>
      <trkpt lat="38.213229" lon="-1.784186">
        <ele>434.2</ele>
        <time>2017-03-04T09:45:32Z</time>
      </trkpt>
      <trkpt lat="38.213040" lon="-1.784073">
        <ele>435.1</ele>
        <time>2017-03-04T09:45:48Z</time>
      </trkpt>
      <trkpt lat="38.212826" lon="-1.783985">
        <ele>436.1</ele>
        <time>2017-03-04T09:46:05Z</time>
      </trkpt>
      <trkpt lat="38.212651" lon="-1.783975">
        <ele>437.5</ele>
        <time>2017-03-04T09:46:20Z</time>
      </trkpt>
      <trkpt lat="38.212597" lon="-1.784004">
        <ele>437.5</ele>
        <time>2017-03-04T09:46:25Z</time>
      </trkpt>
      <trkpt lat="38.212584" lon="-1.784007">
        <ele>438.0</ele>
        <time>2017-03-04T09:46:26Z</time>
      </trkpt>
      <trkpt lat="38.212573" lon="-1.784012">
        <ele>438.0</ele>
        <time>2017-03-04T09:46:27Z</time>
      </trkpt>
      <trkpt lat="38.212562" lon="-1.784020">
        <ele>438.0</ele>
        <time>2017-03-04T09:46:28Z</time>
      </trkpt>
      <trkpt lat="38.212405" lon="-1.784213">
        <ele>438.5</ele>
        <time>2017-03-04T09:46:45Z</time>
      </trkpt>
      <trkpt lat="38.212221" lon="-1.784452">
        <ele>439.0</ele>
        <time>2017-03-04T09:47:06Z</time>
      </trkpt>
      <trkpt lat="38.212093" lon="-1.784651">
        <ele>439.5</ele>
        <time>2017-03-04T09:47:22Z</time>
      </trkpt>
      <trkpt lat="38.212055" lon="-1.784767">
        <ele>440.4</ele>
        <time>2017-03-04T09:47:30Z</time>
      </trkpt>
      <trkpt lat="38.211972" lon="-1.784944">
        <ele>442.3</ele>
        <time>2017-03-04T09:47:44Z</time>
      </trkpt>
      <trkpt lat="38.211869" lon="-1.785045">
        <ele>444.3</ele>
        <time>2017-03-04T09:47:56Z</time>
      </trkpt>
      <trkpt lat="38.211819" lon="-1.785083">
        <ele>444.3</ele>
        <time>2017-03-04T09:48:01Z</time>
      </trkpt>
      <trkpt lat="38.211741" lon="-1.785154">
        <ele>445.7</ele>
        <time>2017-03-04T09:48:10Z</time>
      </trkpt>
      <trkpt lat="38.211734" lon="-1.785161">
        <ele>445.2</ele>
        <time>2017-03-04T09:48:11Z</time>
      </trkpt>
      <trkpt lat="38.211689" lon="-1.785220">
        <ele>446.2</ele>
        <time>2017-03-04T09:48:17Z</time>
      </trkpt>
      <trkpt lat="38.211681" lon="-1.785230">
        <ele>446.2</ele>
        <time>2017-03-04T09:48:18Z</time>
      </trkpt>
      <trkpt lat="38.211670" lon="-1.785237">
        <ele>446.7</ele>
        <time>2017-03-04T09:48:19Z</time>
      </trkpt>
      <trkpt lat="38.211611" lon="-1.785332">
        <ele>447.6</ele>
        <time>2017-03-04T09:48:29Z</time>
      </trkpt>
      <trkpt lat="38.211508" lon="-1.785516">
        <ele>448.1</ele>
        <time>2017-03-04T09:48:44Z</time>
      </trkpt>
      <trkpt lat="38.211374" lon="-1.785724">
        <ele>449.5</ele>
        <time>2017-03-04T09:49:01Z</time>
      </trkpt>
      <trkpt lat="38.211350" lon="-1.785764">
        <ele>449.5</ele>
        <time>2017-03-04T09:49:04Z</time>
      </trkpt>
      <trkpt lat="38.211341" lon="-1.785775">
        <ele>449.1</ele>
        <time>2017-03-04T09:49:05Z</time>
      </trkpt>
      <trkpt lat="38.211333" lon="-1.785788">
        <ele>450.5</ele>
        <time>2017-03-04T09:49:06Z</time>
      </trkpt>
      <trkpt lat="38.211201" lon="-1.785944">
        <ele>450.0</ele>
        <time>2017-03-04T09:49:22Z</time>
      </trkpt>
      <trkpt lat="38.211140" lon="-1.786034">
        <ele>450.0</ele>
        <time>2017-03-04T09:49:32Z</time>
      </trkpt>
      <trkpt lat="38.211127" lon="-1.786042">
        <ele>449.5</ele>
        <time>2017-03-04T09:49:33Z</time>
      </trkpt>
      <trkpt lat="38.211089" lon="-1.786091">
        <ele>449.1</ele>
        <time>2017-03-04T09:49:43Z</time>
      </trkpt>
      <trkpt lat="38.211076" lon="-1.786100">
        <ele>450.0</ele>
        <time>2017-03-04T09:49:44Z</time>
      </trkpt>
      <trkpt lat="38.211051" lon="-1.786130">
        <ele>449.5</ele>
        <time>2017-03-04T09:49:46Z</time>
      </trkpt>
      <trkpt lat="38.211031" lon="-1.786140">
        <ele>449.5</ele>
        <time>2017-03-04T09:49:47Z</time>
      </trkpt>
      <trkpt lat="38.211017" lon="-1.786151">
        <ele>449.5</ele>
        <time>2017-03-04T09:49:48Z</time>
      </trkpt>
      <trkpt lat="38.211004" lon="-1.786164">
        <ele>449.5</ele>
        <time>2017-03-04T09:49:49Z</time>
      </trkpt>
      <trkpt lat="38.210990" lon="-1.786177">
        <ele>449.1</ele>
        <time>2017-03-04T09:49:50Z</time>
      </trkpt>
      <trkpt lat="38.210917" lon="-1.786255">
        <ele>448.6</ele>
        <time>2017-03-04T09:49:59Z</time>
      </trkpt>
      <trkpt lat="38.210902" lon="-1.786267">
        <ele>449.5</ele>
        <time>2017-03-04T09:50:00Z</time>
      </trkpt>
      <trkpt lat="38.210726" lon="-1.786377">
        <ele>449.1</ele>
        <time>2017-03-04T09:50:12Z</time>
      </trkpt>
      <trkpt lat="38.210546" lon="-1.786567">
        <ele>450.0</ele>
        <time>2017-03-04T09:50:27Z</time>
      </trkpt>
      <trkpt lat="38.210399" lon="-1.786681">
        <ele>452.0</ele>
        <time>2017-03-04T09:50:41Z</time>
      </trkpt>
      <trkpt lat="38.210236" lon="-1.786787">
        <ele>452.4</ele>
        <time>2017-03-04T09:50:55Z</time>
      </trkpt>
      <trkpt lat="38.210180" lon="-1.786806">
        <ele>452.9</ele>
        <time>2017-03-04T09:51:01Z</time>
      </trkpt>
      <trkpt lat="38.210156" lon="-1.786837">
        <ele>452.9</ele>
        <time>2017-03-04T09:51:14Z</time>
      </trkpt>
      <trkpt lat="38.210149" lon="-1.786837">
        <ele>452.9</ele>
        <time>2017-03-04T09:51:18Z</time>
      </trkpt>
      <trkpt lat="38.210139" lon="-1.786846">
        <ele>453.4</ele>
        <time>2017-03-04T09:51:19Z</time>
      </trkpt>
      <trkpt lat="38.210118" lon="-1.786864">
        <ele>452.9</ele>
        <time>2017-03-04T09:51:21Z</time>
      </trkpt>
      <trkpt lat="38.210107" lon="-1.786869">
        <ele>453.4</ele>
        <time>2017-03-04T09:51:22Z</time>
      </trkpt>
      <trkpt lat="38.210040" lon="-1.786915">
        <ele>453.4</ele>
        <time>2017-03-04T09:51:28Z</time>
      </trkpt>
      <trkpt lat="38.210030" lon="-1.786922">
        <ele>453.4</ele>
        <time>2017-03-04T09:51:29Z</time>
      </trkpt>
      <trkpt lat="38.209988" lon="-1.786940">
        <ele>453.9</ele>
        <time>2017-03-04T09:51:36Z</time>
      </trkpt>
      <trkpt lat="38.209973" lon="-1.786946">
        <ele>453.9</ele>
        <time>2017-03-04T09:51:37Z</time>
      </trkpt>
      <trkpt lat="38.209960" lon="-1.786955">
        <ele>453.4</ele>
        <time>2017-03-04T09:51:38Z</time>
      </trkpt>
      <trkpt lat="38.209948" lon="-1.786965">
        <ele>453.4</ele>
        <time>2017-03-04T09:51:39Z</time>
      </trkpt>
      <trkpt lat="38.209936" lon="-1.786976">
        <ele>453.4</ele>
        <time>2017-03-04T09:51:40Z</time>
      </trkpt>
      <trkpt lat="38.209924" lon="-1.786988">
        <ele>453.9</ele>
        <time>2017-03-04T09:51:41Z</time>
      </trkpt>
      <trkpt lat="38.209913" lon="-1.786994">
        <ele>453.9</ele>
        <time>2017-03-04T09:51:42Z</time>
      </trkpt>
      <trkpt lat="38.209902" lon="-1.786999">
        <ele>453.9</ele>
        <time>2017-03-04T09:51:43Z</time>
      </trkpt>
      <trkpt lat="38.209864" lon="-1.787012">
        <ele>453.4</ele>
        <time>2017-03-04T09:51:46Z</time>
      </trkpt>
      <trkpt lat="38.209850" lon="-1.787021">
        <ele>453.9</ele>
        <time>2017-03-04T09:51:47Z</time>
      </trkpt>
      <trkpt lat="38.209657" lon="-1.787119">
        <ele>453.4</ele>
        <time>2017-03-04T09:52:03Z</time>
      </trkpt>
      <trkpt lat="38.209472" lon="-1.787243">
        <ele>452.4</ele>
        <time>2017-03-04T09:52:19Z</time>
      </trkpt>
      <trkpt lat="38.209314" lon="-1.787313">
        <ele>452.9</ele>
        <time>2017-03-04T09:52:32Z</time>
      </trkpt>
      <trkpt lat="38.209263" lon="-1.787333">
        <ele>452.4</ele>
        <time>2017-03-04T09:52:38Z</time>
      </trkpt>
      <trkpt lat="38.209236" lon="-1.787358">
        <ele>452.0</ele>
        <time>2017-03-04T09:52:43Z</time>
      </trkpt>
      <trkpt lat="38.209223" lon="-1.787370">
        <ele>452.4</ele>
        <time>2017-03-04T09:52:44Z</time>
      </trkpt>
      <trkpt lat="38.209211" lon="-1.787384">
        <ele>452.0</ele>
        <time>2017-03-04T09:52:45Z</time>
      </trkpt>
      <trkpt lat="38.209199" lon="-1.787399">
        <ele>452.4</ele>
        <time>2017-03-04T09:52:46Z</time>
      </trkpt>
      <trkpt lat="38.209189" lon="-1.787414">
        <ele>452.4</ele>
        <time>2017-03-04T09:52:47Z</time>
      </trkpt>
      <trkpt lat="38.209178" lon="-1.787423">
        <ele>452.9</ele>
        <time>2017-03-04T09:52:48Z</time>
      </trkpt>
      <trkpt lat="38.209030" lon="-1.787550">
        <ele>452.9</ele>
        <time>2017-03-04T09:53:02Z</time>
      </trkpt>
      <trkpt lat="38.208887" lon="-1.787678">
        <ele>452.4</ele>
        <time>2017-03-04T09:53:16Z</time>
      </trkpt>
      <trkpt lat="38.208872" lon="-1.787725">
        <ele>452.0</ele>
        <time>2017-03-04T09:53:19Z</time>
      </trkpt>
      <trkpt lat="38.208865" lon="-1.787915">
        <ele>452.4</ele>
        <time>2017-03-04T09:53:31Z</time>
      </trkpt>
      <trkpt lat="38.208859" lon="-1.787939">
        <ele>452.4</ele>
        <time>2017-03-04T09:53:33Z</time>
      </trkpt>
      <trkpt lat="38.208854" lon="-1.788050">
        <ele>451.5</ele>
        <time>2017-03-04T09:53:44Z</time>
      </trkpt>
      <trkpt lat="38.208856" lon="-1.788066">
        <ele>452.9</ele>
        <time>2017-03-04T09:53:45Z</time>
      </trkpt>
      <trkpt lat="38.208856" lon="-1.788198">
        <ele>452.4</ele>
        <time>2017-03-04T09:53:55Z</time>
      </trkpt>
      <trkpt lat="38.208860" lon="-1.788211">
        <ele>452.4</ele>
        <time>2017-03-04T09:53:56Z</time>
      </trkpt>
      <trkpt lat="38.208865" lon="-1.788225">
        <ele>452.4</ele>
        <time>2017-03-04T09:53:57Z</time>
      </trkpt>
      <trkpt lat="38.208868" lon="-1.788433">
        <ele>452.9</ele>
        <time>2017-03-04T09:54:10Z</time>
      </trkpt>
      <trkpt lat="38.208867" lon="-1.788450">
        <ele>453.4</ele>
        <time>2017-03-04T09:54:11Z</time>
      </trkpt>
      <trkpt lat="38.208870" lon="-1.788734">
        <ele>453.4</ele>
        <time>2017-03-04T09:54:28Z</time>
      </trkpt>
      <trkpt lat="38.208876" lon="-1.788916">
        <ele>453.9</ele>
        <time>2017-03-04T09:54:39Z</time>
      </trkpt>
      <trkpt lat="38.208881" lon="-1.788932">
        <ele>453.4</ele>
        <time>2017-03-04T09:54:40Z</time>
      </trkpt>
      <trkpt lat="38.208906" lon="-1.789223">
        <ele>453.9</ele>
        <time>2017-03-04T09:54:57Z</time>
      </trkpt>
      <trkpt lat="38.208942" lon="-1.789501">
        <ele>453.4</ele>
        <time>2017-03-04T09:55:13Z</time>
      </trkpt>
      <trkpt lat="38.208951" lon="-1.789516">
        <ele>453.9</ele>
        <time>2017-03-04T09:55:14Z</time>
      </trkpt>
      <trkpt lat="38.208958" lon="-1.789529">
        <ele>453.4</ele>
        <time>2017-03-04T09:55:15Z</time>
      </trkpt>
      <trkpt lat="38.208962" lon="-1.789545">
        <ele>453.4</ele>
        <time>2017-03-04T09:55:16Z</time>
      </trkpt>
      <trkpt lat="38.208966" lon="-1.789562">
        <ele>453.4</ele>
        <time>2017-03-04T09:55:17Z</time>
      </trkpt>
      <trkpt lat="38.209053" lon="-1.789803">
        <ele>452.9</ele>
        <time>2017-03-04T09:55:32Z</time>
      </trkpt>
      <trkpt lat="38.209165" lon="-1.790090">
        <ele>452.4</ele>
        <time>2017-03-04T09:55:51Z</time>
      </trkpt>
      <trkpt lat="38.209248" lon="-1.790334">
        <ele>451.5</ele>
        <time>2017-03-04T09:56:06Z</time>
      </trkpt>
      <trkpt lat="38.209256" lon="-1.790352">
        <ele>452.0</ele>
        <time>2017-03-04T09:56:07Z</time>
      </trkpt>
      <trkpt lat="38.209261" lon="-1.790368">
        <ele>452.0</ele>
        <time>2017-03-04T09:56:08Z</time>
      </trkpt>
      <trkpt lat="38.209266" lon="-1.790385">
        <ele>451.5</ele>
        <time>2017-03-04T09:56:09Z</time>
      </trkpt>
      <trkpt lat="38.209270" lon="-1.790402">
        <ele>451.5</ele>
        <time>2017-03-04T09:56:10Z</time>
      </trkpt>
      <trkpt lat="38.209274" lon="-1.790419">
        <ele>451.5</ele>
        <time>2017-03-04T09:56:11Z</time>
      </trkpt>
      <trkpt lat="38.209275" lon="-1.790434">
        <ele>452.0</ele>
        <time>2017-03-04T09:56:12Z</time>
      </trkpt>
      <trkpt lat="38.209279" lon="-1.790451">
        <ele>451.5</ele>
        <time>2017-03-04T09:56:13Z</time>
      </trkpt>
      <trkpt lat="38.209304" lon="-1.790557">
        <ele>451.0</ele>
        <time>2017-03-04T09:56:19Z</time>
      </trkpt>
      <trkpt lat="38.209310" lon="-1.790573">
        <ele>451.0</ele>
        <time>2017-03-04T09:56:20Z</time>
      </trkpt>
      <trkpt lat="38.209368" lon="-1.790827">
        <ele>449.1</ele>
        <time>2017-03-04T09:56:35Z</time>
      </trkpt>
      <trkpt lat="38.209437" lon="-1.791010">
        <ele>448.1</ele>
        <time>2017-03-04T09:56:49Z</time>
      </trkpt>
      <trkpt lat="38.209453" lon="-1.791048">
        <ele>447.6</ele>
        <time>2017-03-04T09:56:55Z</time>
      </trkpt>
      <trkpt lat="38.209456" lon="-1.791062">
        <ele>448.1</ele>
        <time>2017-03-04T09:56:56Z</time>
      </trkpt>
      <trkpt lat="38.209451" lon="-1.791099">
        <ele>448.1</ele>
        <time>2017-03-04T09:57:00Z</time>
      </trkpt>
      <trkpt lat="38.209451" lon="-1.791116">
        <ele>447.6</ele>
        <time>2017-03-04T09:57:01Z</time>
      </trkpt>
      <trkpt lat="38.209452" lon="-1.791133">
        <ele>447.6</ele>
        <time>2017-03-04T09:57:02Z</time>
      </trkpt>
      <trkpt lat="38.209456" lon="-1.791153">
        <ele>448.1</ele>
        <time>2017-03-04T09:57:03Z</time>
      </trkpt>
      <trkpt lat="38.209456" lon="-1.791201">
        <ele>447.1</ele>
        <time>2017-03-04T09:57:06Z</time>
      </trkpt>
      <trkpt lat="38.209456" lon="-1.791221">
        <ele>447.1</ele>
        <time>2017-03-04T09:57:07Z</time>
      </trkpt>
      <trkpt lat="38.209507" lon="-1.791377">
        <ele>446.2</ele>
        <time>2017-03-04T09:57:18Z</time>
      </trkpt>
      <trkpt lat="38.209558" lon="-1.791592">
        <ele>444.8</ele>
        <time>2017-03-04T09:57:32Z</time>
      </trkpt>
      <trkpt lat="38.209563" lon="-1.791607">
        <ele>445.2</ele>
        <time>2017-03-04T09:57:33Z</time>
      </trkpt>
      <trkpt lat="38.209580" lon="-1.791632">
        <ele>444.3</ele>
        <time>2017-03-04T09:57:35Z</time>
      </trkpt>
      <trkpt lat="38.209591" lon="-1.791650">
        <ele>444.8</ele>
        <time>2017-03-04T09:57:38Z</time>
      </trkpt>
      <trkpt lat="38.209592" lon="-1.791674">
        <ele>444.8</ele>
        <time>2017-03-04T09:57:39Z</time>
      </trkpt>
      <trkpt lat="38.209588" lon="-1.791700">
        <ele>444.8</ele>
        <time>2017-03-04T09:57:40Z</time>
      </trkpt>
      <trkpt lat="38.209585" lon="-1.791724">
        <ele>444.8</ele>
        <time>2017-03-04T09:57:41Z</time>
      </trkpt>
      <trkpt lat="38.209587" lon="-1.791738">
        <ele>444.3</ele>
        <time>2017-03-04T09:57:42Z</time>
      </trkpt>
      <trkpt lat="38.209588" lon="-1.791754">
        <ele>444.3</ele>
        <time>2017-03-04T09:57:43Z</time>
      </trkpt>
      <trkpt lat="38.209595" lon="-1.791771">
        <ele>444.3</ele>
        <time>2017-03-04T09:57:44Z</time>
      </trkpt>
      <trkpt lat="38.209603" lon="-1.791789">
        <ele>444.3</ele>
        <time>2017-03-04T09:57:45Z</time>
      </trkpt>
      <trkpt lat="38.209612" lon="-1.791807">
        <ele>443.8</ele>
        <time>2017-03-04T09:57:46Z</time>
      </trkpt>
      <trkpt lat="38.209690" lon="-1.792013">
        <ele>442.3</ele>
        <time>2017-03-04T09:58:03Z</time>
      </trkpt>
      <trkpt lat="38.209723" lon="-1.792150">
        <ele>441.9</ele>
        <time>2017-03-04T09:58:11Z</time>
      </trkpt>
      <trkpt lat="38.209728" lon="-1.792170">
        <ele>441.4</ele>
        <time>2017-03-04T09:58:12Z</time>
      </trkpt>
      <trkpt lat="38.209729" lon="-1.792189">
        <ele>441.9</ele>
        <time>2017-03-04T09:58:13Z</time>
      </trkpt>
      <trkpt lat="38.209731" lon="-1.792204">
        <ele>442.3</ele>
        <time>2017-03-04T09:58:14Z</time>
      </trkpt>
      <trkpt lat="38.209761" lon="-1.792293">
        <ele>440.9</ele>
        <time>2017-03-04T09:58:21Z</time>
      </trkpt>
      <trkpt lat="38.209825" lon="-1.792533">
        <ele>439.9</ele>
        <time>2017-03-04T09:58:37Z</time>
      </trkpt>
      <trkpt lat="38.209875" lon="-1.792708">
        <ele>438.0</ele>
        <time>2017-03-04T09:58:49Z</time>
      </trkpt>
      <trkpt lat="38.209876" lon="-1.792723">
        <ele>438.0</ele>
        <time>2017-03-04T09:58:50Z</time>
      </trkpt>
      <trkpt lat="38.209954" lon="-1.792959">
        <ele>436.6</ele>
        <time>2017-03-04T09:59:06Z</time>
      </trkpt>
      <trkpt lat="38.210010" lon="-1.793244">
        <ele>435.1</ele>
        <time>2017-03-04T09:59:23Z</time>
      </trkpt>
      <trkpt lat="38.210024" lon="-1.793356">
        <ele>434.2</ele>
        <time>2017-03-04T09:59:30Z</time>
      </trkpt>
      <trkpt lat="38.210154" lon="-1.793526">
        <ele>433.7</ele>
        <time>2017-03-04T09:59:44Z</time>
      </trkpt>
      <trkpt lat="38.210313" lon="-1.793759">
        <ele>432.2</ele>
        <time>2017-03-04T10:00:02Z</time>
      </trkpt>
      <trkpt lat="38.210438" lon="-1.794042">
        <ele>431.3</ele>
        <time>2017-03-04T10:00:20Z</time>
      </trkpt>
      <trkpt lat="38.210566" lon="-1.794347">
        <ele>430.8</ele>
        <time>2017-03-04T10:00:39Z</time>
      </trkpt>
      <trkpt lat="38.210631" lon="-1.794483">
        <ele>429.4</ele>
        <time>2017-03-04T10:00:48Z</time>
      </trkpt>
      <trkpt lat="38.210771" lon="-1.794729">
        <ele>427.4</ele>
        <time>2017-03-04T10:01:05Z</time>
      </trkpt>
      <trkpt lat="38.210835" lon="-1.794831">
        <ele>427.0</ele>
        <time>2017-03-04T10:01:12Z</time>
      </trkpt>
      <trkpt lat="38.210951" lon="-1.795024">
        <ele>426.0</ele>
        <time>2017-03-04T10:01:26Z</time>
      </trkpt>
      <trkpt lat="38.211110" lon="-1.795272">
        <ele>425.5</ele>
        <time>2017-03-04T10:01:43Z</time>
      </trkpt>
      <trkpt lat="38.211292" lon="-1.795388">
        <ele>425.0</ele>
        <time>2017-03-04T10:01:58Z</time>
      </trkpt>
      <trkpt lat="38.211484" lon="-1.795459">
        <ele>422.6</ele>
        <time>2017-03-04T10:02:14Z</time>
      </trkpt>
      <trkpt lat="38.211662" lon="-1.795549">
        <ele>421.2</ele>
        <time>2017-03-04T10:02:29Z</time>
      </trkpt>
      <trkpt lat="38.211824" lon="-1.795626">
        <ele>419.3</ele>
        <time>2017-03-04T10:02:42Z</time>
      </trkpt>
      <trkpt lat="38.212027" lon="-1.795723">
        <ele>416.9</ele>
        <time>2017-03-04T10:02:58Z</time>
      </trkpt>
      <trkpt lat="38.212227" lon="-1.795869">
        <ele>415.4</ele>
        <time>2017-03-04T10:03:15Z</time>
      </trkpt>
      <trkpt lat="38.212390" lon="-1.796062">
        <ele>414.0</ele>
        <time>2017-03-04T10:03:31Z</time>
      </trkpt>
      <trkpt lat="38.212472" lon="-1.796135">
        <ele>413.5</ele>
        <time>2017-03-04T10:03:39Z</time>
      </trkpt>
      <trkpt lat="38.212481" lon="-1.796146">
        <ele>413.0</ele>
        <time>2017-03-04T10:03:40Z</time>
      </trkpt>
      <trkpt lat="38.212492" lon="-1.796161">
        <ele>413.0</ele>
        <time>2017-03-04T10:03:41Z</time>
      </trkpt>
      <trkpt lat="38.212502" lon="-1.796176">
        <ele>413.0</ele>
        <time>2017-03-04T10:03:42Z</time>
      </trkpt>
      <trkpt lat="38.212511" lon="-1.796192">
        <ele>413.0</ele>
        <time>2017-03-04T10:03:43Z</time>
      </trkpt>
      <trkpt lat="38.212653" lon="-1.796341">
        <ele>411.6</ele>
        <time>2017-03-04T10:03:57Z</time>
      </trkpt>
      <trkpt lat="38.212665" lon="-1.796353">
        <ele>411.6</ele>
        <time>2017-03-04T10:03:58Z</time>
      </trkpt>
      <trkpt lat="38.212794" lon="-1.796574">
        <ele>409.2</ele>
        <time>2017-03-04T10:04:14Z</time>
      </trkpt>
      <trkpt lat="38.212783" lon="-1.796808">
        <ele>408.7</ele>
        <time>2017-03-04T10:04:29Z</time>
      </trkpt>
      <trkpt lat="38.212780" lon="-1.797029">
        <ele>408.2</ele>
        <time>2017-03-04T10:04:42Z</time>
      </trkpt>
      <trkpt lat="38.212787" lon="-1.797043">
        <ele>408.2</ele>
        <time>2017-03-04T10:04:43Z</time>
      </trkpt>
      <trkpt lat="38.212795" lon="-1.797058">
        <ele>408.7</ele>
        <time>2017-03-04T10:04:44Z</time>
      </trkpt>
      <trkpt lat="38.212803" lon="-1.797071">
        <ele>408.2</ele>
        <time>2017-03-04T10:04:45Z</time>
      </trkpt>
      <trkpt lat="38.212810" lon="-1.797087">
        <ele>408.2</ele>
        <time>2017-03-04T10:04:46Z</time>
      </trkpt>
      <trkpt lat="38.212925" lon="-1.797230">
        <ele>410.1</ele>
        <time>2017-03-04T10:05:00Z</time>
      </trkpt>
      <trkpt lat="38.212938" lon="-1.797233">
        <ele>410.1</ele>
        <time>2017-03-04T10:05:01Z</time>
      </trkpt>
      <trkpt lat="38.212948" lon="-1.797236">
        <ele>410.6</ele>
        <time>2017-03-04T10:05:02Z</time>
      </trkpt>
      <trkpt lat="38.212961" lon="-1.797240">
        <ele>410.1</ele>
        <time>2017-03-04T10:05:03Z</time>
      </trkpt>
      <trkpt lat="38.212975" lon="-1.797246">
        <ele>410.1</ele>
        <time>2017-03-04T10:05:04Z</time>
      </trkpt>
      <trkpt lat="38.212987" lon="-1.797256">
        <ele>410.6</ele>
        <time>2017-03-04T10:05:05Z</time>
      </trkpt>
      <trkpt lat="38.212999" lon="-1.797264">
        <ele>410.6</ele>
        <time>2017-03-04T10:05:06Z</time>
      </trkpt>
      <trkpt lat="38.213188" lon="-1.797317">
        <ele>410.6</ele>
        <time>2017-03-04T10:05:21Z</time>
      </trkpt>
      <trkpt lat="38.213381" lon="-1.797354">
        <ele>410.6</ele>
        <time>2017-03-04T10:05:35Z</time>
      </trkpt>
      <trkpt lat="38.213564" lon="-1.797385">
        <ele>410.1</ele>
        <time>2017-03-04T10:05:50Z</time>
      </trkpt>
      <trkpt lat="38.213587" lon="-1.797393">
        <ele>410.1</ele>
        <time>2017-03-04T10:05:52Z</time>
      </trkpt>
      <trkpt lat="38.213782" lon="-1.797434">
        <ele>408.7</ele>
        <time>2017-03-04T10:06:08Z</time>
      </trkpt>
      <trkpt lat="38.213950" lon="-1.797471">
        <ele>408.2</ele>
        <time>2017-03-04T10:06:21Z</time>
      </trkpt>
      <trkpt lat="38.214123" lon="-1.797503">
        <ele>407.7</ele>
        <time>2017-03-04T10:06:35Z</time>
      </trkpt>
      <trkpt lat="38.214300" lon="-1.797550">
        <ele>407.7</ele>
        <time>2017-03-04T10:06:49Z</time>
      </trkpt>
      <trkpt lat="38.214346" lon="-1.797594">
        <ele>408.2</ele>
        <time>2017-03-04T10:06:54Z</time>
      </trkpt>
      <trkpt lat="38.214366" lon="-1.797624">
        <ele>407.7</ele>
        <time>2017-03-04T10:06:57Z</time>
      </trkpt>
      <trkpt lat="38.214356" lon="-1.797642">
        <ele>407.7</ele>
        <time>2017-03-04T10:07:06Z</time>
      </trkpt>
      <trkpt lat="38.214367" lon="-1.797645">
        <ele>408.2</ele>
        <time>2017-03-04T10:07:07Z</time>
      </trkpt>
      <trkpt lat="38.214382" lon="-1.797644">
        <ele>407.7</ele>
        <time>2017-03-04T10:07:08Z</time>
      </trkpt>
      <trkpt lat="38.214397" lon="-1.797645">
        <ele>407.3</ele>
        <time>2017-03-04T10:07:09Z</time>
      </trkpt>
      <trkpt lat="38.214411" lon="-1.797652">
        <ele>407.3</ele>
        <time>2017-03-04T10:07:10Z</time>
      </trkpt>
      <trkpt lat="38.214422" lon="-1.797660">
        <ele>407.7</ele>
        <time>2017-03-04T10:07:11Z</time>
      </trkpt>
      <trkpt lat="38.214434" lon="-1.797670">
        <ele>407.7</ele>
        <time>2017-03-04T10:07:12Z</time>
      </trkpt>
      <trkpt lat="38.214447" lon="-1.797679">
        <ele>407.3</ele>
        <time>2017-03-04T10:07:13Z</time>
      </trkpt>
      <trkpt lat="38.214457" lon="-1.797691">
        <ele>407.3</ele>
        <time>2017-03-04T10:07:14Z</time>
      </trkpt>
      <trkpt lat="38.214468" lon="-1.797705">
        <ele>407.7</ele>
        <time>2017-03-04T10:07:15Z</time>
      </trkpt>
      <trkpt lat="38.214478" lon="-1.797715">
        <ele>407.3</ele>
        <time>2017-03-04T10:07:16Z</time>
      </trkpt>
      <trkpt lat="38.214488" lon="-1.797726">
        <ele>407.3</ele>
        <time>2017-03-04T10:07:17Z</time>
      </trkpt>
      <trkpt lat="38.214543" lon="-1.797827">
        <ele>406.3</ele>
        <time>2017-03-04T10:07:31Z</time>
      </trkpt>
      <trkpt lat="38.214540" lon="-1.797820">
        <ele>406.3</ele>
        <time>2017-03-04T10:07:42Z</time>
      </trkpt>
      <trkpt lat="38.214526" lon="-1.797857">
        <ele>404.9</ele>
        <time>2017-03-04T10:07:57Z</time>
      </trkpt>
      <trkpt lat="38.214544" lon="-1.797863">
        <ele>406.3</ele>
        <time>2017-03-04T10:08:10Z</time>
      </trkpt>
      <trkpt lat="38.214600" lon="-1.797890">
        <ele>405.8</ele>
        <time>2017-03-04T10:08:24Z</time>
      </trkpt>
      <trkpt lat="38.214733" lon="-1.798053">
        <ele>403.4</ele>
        <time>2017-03-04T10:08:42Z</time>
      </trkpt>
      <trkpt lat="38.214862" lon="-1.798189">
        <ele>402.0</ele>
        <time>2017-03-04T10:08:56Z</time>
      </trkpt>
      <trkpt lat="38.214875" lon="-1.798198">
        <ele>402.0</ele>
        <time>2017-03-04T10:08:57Z</time>
      </trkpt>
      <trkpt lat="38.214884" lon="-1.798209">
        <ele>402.5</ele>
        <time>2017-03-04T10:08:58Z</time>
      </trkpt>
      <trkpt lat="38.214894" lon="-1.798219">
        <ele>402.0</ele>
        <time>2017-03-04T10:08:59Z</time>
      </trkpt>
      <trkpt lat="38.214905" lon="-1.798229">
        <ele>402.0</ele>
        <time>2017-03-04T10:09:00Z</time>
      </trkpt>
      <trkpt lat="38.214915" lon="-1.798239">
        <ele>401.5</ele>
        <time>2017-03-04T10:09:01Z</time>
      </trkpt>
      <trkpt lat="38.215054" lon="-1.798404">
        <ele>401.0</ele>
        <time>2017-03-04T10:09:17Z</time>
      </trkpt>
      <trkpt lat="38.215191" lon="-1.798541">
        <ele>398.6</ele>
        <time>2017-03-04T10:09:32Z</time>
      </trkpt>
      <trkpt lat="38.215367" lon="-1.798737">
        <ele>397.6</ele>
        <time>2017-03-04T10:09:51Z</time>
      </trkpt>
      <trkpt lat="38.215563" lon="-1.798904">
        <ele>396.2</ele>
        <time>2017-03-04T10:10:09Z</time>
      </trkpt>
      <trkpt lat="38.215613" lon="-1.798933">
        <ele>396.7</ele>
        <time>2017-03-04T10:10:24Z</time>
      </trkpt>
      <trkpt lat="38.215625" lon="-1.798937">
        <ele>396.7</ele>
        <time>2017-03-04T10:10:25Z</time>
      </trkpt>
      <trkpt lat="38.215638" lon="-1.798940">
        <ele>396.7</ele>
        <time>2017-03-04T10:10:26Z</time>
      </trkpt>
      <trkpt lat="38.215801" lon="-1.799043">
        <ele>395.7</ele>
        <time>2017-03-04T10:10:43Z</time>
      </trkpt>
      <trkpt lat="38.215999" lon="-1.799151">
        <ele>394.8</ele>
        <time>2017-03-04T10:11:00Z</time>
      </trkpt>
      <trkpt lat="38.216044" lon="-1.799178">
        <ele>394.8</ele>
        <time>2017-03-04T10:11:04Z</time>
      </trkpt>
      <trkpt lat="38.216055" lon="-1.799186">
        <ele>394.3</ele>
        <time>2017-03-04T10:11:05Z</time>
      </trkpt>
      <trkpt lat="38.216069" lon="-1.799192">
        <ele>394.8</ele>
        <time>2017-03-04T10:11:06Z</time>
      </trkpt>
      <trkpt lat="38.216266" lon="-1.799241">
        <ele>393.8</ele>
        <time>2017-03-04T10:11:22Z</time>
      </trkpt>
      <trkpt lat="38.216280" lon="-1.799238">
        <ele>393.8</ele>
        <time>2017-03-04T10:11:23Z</time>
      </trkpt>
      <trkpt lat="38.216294" lon="-1.799239">
        <ele>393.8</ele>
        <time>2017-03-04T10:11:24Z</time>
      </trkpt>
      <trkpt lat="38.216310" lon="-1.799238">
        <ele>393.3</ele>
        <time>2017-03-04T10:11:25Z</time>
      </trkpt>
      <trkpt lat="38.216325" lon="-1.799237">
        <ele>393.3</ele>
        <time>2017-03-04T10:11:26Z</time>
      </trkpt>
      <trkpt lat="38.216338" lon="-1.799234">
        <ele>393.3</ele>
        <time>2017-03-04T10:11:27Z</time>
      </trkpt>
      <trkpt lat="38.216350" lon="-1.799228">
        <ele>393.3</ele>
        <time>2017-03-04T10:11:28Z</time>
      </trkpt>
      <trkpt lat="38.216363" lon="-1.799221">
        <ele>392.8</ele>
        <time>2017-03-04T10:11:29Z</time>
      </trkpt>
      <trkpt lat="38.216536" lon="-1.799158">
        <ele>392.4</ele>
        <time>2017-03-04T10:11:43Z</time>
      </trkpt>
      <trkpt lat="38.216729" lon="-1.799048">
        <ele>391.9</ele>
        <time>2017-03-04T10:11:59Z</time>
      </trkpt>
      <trkpt lat="38.216907" lon="-1.798997">
        <ele>390.9</ele>
        <time>2017-03-04T10:12:14Z</time>
      </trkpt>
      <trkpt lat="38.217032" lon="-1.799046">
        <ele>388.5</ele>
        <time>2017-03-04T10:12:28Z</time>
      </trkpt>
      <trkpt lat="38.217015" lon="-1.799102">
        <ele>388.5</ele>
        <time>2017-03-04T10:19:41Z</time>
      </trkpt>
      <trkpt lat="38.217013" lon="-1.799116">
        <ele>389.0</ele>
        <time>2017-03-04T10:19:42Z</time>
      </trkpt>
      <trkpt lat="38.217012" lon="-1.799227">
        <ele>388.5</ele>
        <time>2017-03-04T10:19:54Z</time>
      </trkpt>
      <trkpt lat="38.216970" lon="-1.799309">
        <ele>388.5</ele>
        <time>2017-03-04T10:20:05Z</time>
      </trkpt>
      <trkpt lat="38.216873" lon="-1.799402">
        <ele>388.5</ele>
        <time>2017-03-04T10:20:18Z</time>
      </trkpt>
      <trkpt lat="38.216866" lon="-1.799414">
        <ele>388.5</ele>
        <time>2017-03-04T10:20:19Z</time>
      </trkpt>
      <trkpt lat="38.216832" lon="-1.799515">
        <ele>388.0</ele>
        <time>2017-03-04T10:20:26Z</time>
      </trkpt>
      <trkpt lat="38.216797" lon="-1.799605">
        <ele>387.5</ele>
        <time>2017-03-04T10:20:36Z</time>
      </trkpt>
      <trkpt lat="38.216779" lon="-1.799636">
        <ele>387.5</ele>
        <time>2017-03-04T10:20:40Z</time>
      </trkpt>
      <trkpt lat="38.216738" lon="-1.799729">
        <ele>387.1</ele>
        <time>2017-03-04T10:20:47Z</time>
      </trkpt>
      <trkpt lat="38.216683" lon="-1.799811">
        <ele>388.0</ele>
        <time>2017-03-04T10:20:54Z</time>
      </trkpt>
      <trkpt lat="38.216584" lon="-1.799864">
        <ele>387.1</ele>
        <time>2017-03-04T10:21:06Z</time>
      </trkpt>
      <trkpt lat="38.216578" lon="-1.799898">
        <ele>387.5</ele>
        <time>2017-03-04T10:21:18Z</time>
      </trkpt>
      <trkpt lat="38.216579" lon="-1.799936">
        <ele>386.6</ele>
        <time>2017-03-04T10:21:30Z</time>
      </trkpt>
      <trkpt lat="38.216572" lon="-1.800015">
        <ele>386.6</ele>
        <time>2017-03-04T10:21:43Z</time>
      </trkpt>
      <trkpt lat="38.216634" lon="-1.800112">
        <ele>387.5</ele>
        <time>2017-03-04T10:21:55Z</time>
      </trkpt>
      <trkpt lat="38.216635" lon="-1.800161">
        <ele>390.0</ele>
        <time>2017-03-04T10:22:07Z</time>
      </trkpt>
      <trkpt lat="38.216646" lon="-1.800175">
        <ele>388.5</ele>
        <time>2017-03-04T10:22:09Z</time>
      </trkpt>
      <trkpt lat="38.216697" lon="-1.800215">
        <ele>389.5</ele>
        <time>2017-03-04T10:22:23Z</time>
      </trkpt>
      <trkpt lat="38.216727" lon="-1.800253">
        <ele>390.4</ele>
        <time>2017-03-04T10:22:37Z</time>
      </trkpt>
      <trkpt lat="38.216695" lon="-1.800300">
        <ele>390.9</ele>
        <time>2017-03-04T10:22:52Z</time>
      </trkpt>
      <trkpt lat="38.216643" lon="-1.800378">
        <ele>393.8</ele>
        <time>2017-03-04T10:23:07Z</time>
      </trkpt>
      <trkpt lat="38.216623" lon="-1.800445">
        <ele>394.8</ele>
        <time>2017-03-04T10:23:13Z</time>
      </trkpt>
      <trkpt lat="38.216593" lon="-1.800476">
        <ele>395.7</ele>
        <time>2017-03-04T10:23:16Z</time>
      </trkpt>
      <trkpt lat="38.216582" lon="-1.800500">
        <ele>395.7</ele>
        <time>2017-03-04T10:23:18Z</time>
      </trkpt>
      <trkpt lat="38.216488" lon="-1.800623">
        <ele>397.2</ele>
        <time>2017-03-04T10:23:33Z</time>
      </trkpt>
      <trkpt lat="38.216402" lon="-1.800684">
        <ele>398.1</ele>
        <time>2017-03-04T10:23:43Z</time>
      </trkpt>
      <trkpt lat="38.216319" lon="-1.800792">
        <ele>399.6</ele>
        <time>2017-03-04T10:23:56Z</time>
      </trkpt>
      <trkpt lat="38.216307" lon="-1.800794">
        <ele>401.0</ele>
        <time>2017-03-04T10:23:58Z</time>
      </trkpt>
      <trkpt lat="38.216233" lon="-1.800892">
        <ele>402.9</ele>
        <time>2017-03-04T10:24:14Z</time>
      </trkpt>
      <trkpt lat="38.216223" lon="-1.800941">
        <ele>404.4</ele>
        <time>2017-03-04T10:24:27Z</time>
      </trkpt>
      <trkpt lat="38.216190" lon="-1.801025">
        <ele>404.9</ele>
        <time>2017-03-04T10:24:37Z</time>
      </trkpt>
      <trkpt lat="38.216179" lon="-1.801082">
        <ele>404.9</ele>
        <time>2017-03-04T10:24:51Z</time>
      </trkpt>
      <trkpt lat="38.216118" lon="-1.801188">
        <ele>406.8</ele>
        <time>2017-03-04T10:25:06Z</time>
      </trkpt>
      <trkpt lat="38.216046" lon="-1.801261">
        <ele>408.2</ele>
        <time>2017-03-04T10:25:24Z</time>
      </trkpt>
      <trkpt lat="38.215991" lon="-1.801361">
        <ele>411.6</ele>
        <time>2017-03-04T10:25:39Z</time>
      </trkpt>
      <trkpt lat="38.215953" lon="-1.801403">
        <ele>413.5</ele>
        <time>2017-03-04T10:25:51Z</time>
      </trkpt>
      <trkpt lat="38.215901" lon="-1.801450">
        <ele>415.4</ele>
        <time>2017-03-04T10:26:04Z</time>
      </trkpt>
      <trkpt lat="38.215811" lon="-1.801610">
        <ele>417.8</ele>
        <time>2017-03-04T10:26:33Z</time>
      </trkpt>
      <trkpt lat="38.215815" lon="-1.801632">
        <ele>418.3</ele>
        <time>2017-03-04T10:26:35Z</time>
      </trkpt>
      <trkpt lat="38.215838" lon="-1.801785">
        <ele>424.6</ele>
        <time>2017-03-04T10:26:57Z</time>
      </trkpt>
      <trkpt lat="38.215819" lon="-1.801865">
        <ele>426.0</ele>
        <time>2017-03-04T10:27:54Z</time>
      </trkpt>
      <trkpt lat="38.215801" lon="-1.801982">
        <ele>426.0</ele>
        <time>2017-03-04T10:28:03Z</time>
      </trkpt>
      <trkpt lat="38.215774" lon="-1.802087">
        <ele>427.0</ele>
        <time>2017-03-04T10:28:18Z</time>
      </trkpt>
      <trkpt lat="38.215746" lon="-1.802199">
        <ele>427.0</ele>
        <time>2017-03-04T10:28:25Z</time>
      </trkpt>
      <trkpt lat="38.215728" lon="-1.802219">
        <ele>427.4</ele>
        <time>2017-03-04T10:28:27Z</time>
      </trkpt>
      <trkpt lat="38.215716" lon="-1.802264">
        <ele>427.4</ele>
        <time>2017-03-04T10:28:30Z</time>
      </trkpt>
      <trkpt lat="38.215684" lon="-1.802341">
        <ele>427.4</ele>
        <time>2017-03-04T10:28:36Z</time>
      </trkpt>
      <trkpt lat="38.215653" lon="-1.802390">
        <ele>427.4</ele>
        <time>2017-03-04T10:28:40Z</time>
      </trkpt>
      <trkpt lat="38.215633" lon="-1.802410">
        <ele>427.9</ele>
        <time>2017-03-04T10:28:42Z</time>
      </trkpt>
      <trkpt lat="38.215624" lon="-1.802435">
        <ele>427.0</ele>
        <time>2017-03-04T10:28:44Z</time>
      </trkpt>
      <trkpt lat="38.215599" lon="-1.802491">
        <ele>427.4</ele>
        <time>2017-03-04T10:28:48Z</time>
      </trkpt>
      <trkpt lat="38.215550" lon="-1.802585">
        <ele>427.4</ele>
        <time>2017-03-04T10:28:56Z</time>
      </trkpt>
      <trkpt lat="38.215550" lon="-1.802684">
        <ele>427.4</ele>
        <time>2017-03-04T10:29:03Z</time>
      </trkpt>
      <trkpt lat="38.215488" lon="-1.802919">
        <ele>428.4</ele>
        <time>2017-03-04T10:29:19Z</time>
      </trkpt>
      <trkpt lat="38.215462" lon="-1.803109">
        <ele>429.4</ele>
        <time>2017-03-04T10:29:35Z</time>
      </trkpt>
      <trkpt lat="38.215453" lon="-1.803134">
        <ele>428.4</ele>
        <time>2017-03-04T10:29:40Z</time>
      </trkpt>
      <trkpt lat="38.215398" lon="-1.803294">
        <ele>428.9</ele>
        <time>2017-03-04T10:29:54Z</time>
      </trkpt>
      <trkpt lat="38.215333" lon="-1.803493">
        <ele>428.9</ele>
        <time>2017-03-04T10:30:08Z</time>
      </trkpt>
      <trkpt lat="38.215322" lon="-1.803532">
        <ele>428.9</ele>
        <time>2017-03-04T10:30:11Z</time>
      </trkpt>
      <trkpt lat="38.215295" lon="-1.803588">
        <ele>429.4</ele>
        <time>2017-03-04T10:30:15Z</time>
      </trkpt>
      <trkpt lat="38.215297" lon="-1.803615">
        <ele>429.4</ele>
        <time>2017-03-04T10:30:18Z</time>
      </trkpt>
      <trkpt lat="38.215230" lon="-1.803788">
        <ele>429.4</ele>
        <time>2017-03-04T10:30:31Z</time>
      </trkpt>
      <trkpt lat="38.215205" lon="-1.803832">
        <ele>429.9</ele>
        <time>2017-03-04T10:30:36Z</time>
      </trkpt>
      <trkpt lat="38.215146" lon="-1.803940">
        <ele>429.4</ele>
        <time>2017-03-04T10:30:44Z</time>
      </trkpt>
      <trkpt lat="38.215127" lon="-1.803983">
        <ele>429.4</ele>
        <time>2017-03-04T10:30:47Z</time>
      </trkpt>
      <trkpt lat="38.215090" lon="-1.804045">
        <ele>429.4</ele>
        <time>2017-03-04T10:30:52Z</time>
      </trkpt>
      <trkpt lat="38.215048" lon="-1.804199">
        <ele>430.3</ele>
        <time>2017-03-04T10:31:03Z</time>
      </trkpt>
      <trkpt lat="38.215044" lon="-1.804224">
        <ele>430.3</ele>
        <time>2017-03-04T10:31:05Z</time>
      </trkpt>
      <trkpt lat="38.215021" lon="-1.804336">
        <ele>431.8</ele>
        <time>2017-03-04T10:31:14Z</time>
      </trkpt>
      <trkpt lat="38.215009" lon="-1.804376">
        <ele>431.3</ele>
        <time>2017-03-04T10:31:17Z</time>
      </trkpt>
      <trkpt lat="38.214986" lon="-1.804583">
        <ele>432.2</ele>
        <time>2017-03-04T10:31:31Z</time>
      </trkpt>
      <trkpt lat="38.214985" lon="-1.804606">
        <ele>432.2</ele>
        <time>2017-03-04T10:31:33Z</time>
      </trkpt>
      <trkpt lat="38.214989" lon="-1.804648">
        <ele>431.8</ele>
        <time>2017-03-04T10:31:36Z</time>
      </trkpt>
      <trkpt lat="38.214954" lon="-1.804826">
        <ele>432.7</ele>
        <time>2017-03-04T10:31:50Z</time>
      </trkpt>
      <trkpt lat="38.214914" lon="-1.804945">
        <ele>432.2</ele>
        <time>2017-03-04T10:32:00Z</time>
      </trkpt>
      <trkpt lat="38.214900" lon="-1.805019">
        <ele>432.7</ele>
        <time>2017-03-04T10:32:06Z</time>
      </trkpt>
      <trkpt lat="38.214873" lon="-1.805108">
        <ele>432.7</ele>
        <time>2017-03-04T10:32:17Z</time>
      </trkpt>
      <trkpt lat="38.214879" lon="-1.805133">
        <ele>432.7</ele>
        <time>2017-03-04T10:33:10Z</time>
      </trkpt>
      <trkpt lat="38.214849" lon="-1.805199">
        <ele>432.2</ele>
        <time>2017-03-04T10:33:23Z</time>
      </trkpt>
      <trkpt lat="38.214859" lon="-1.805193">
        <ele>432.2</ele>
        <time>2017-03-04T10:34:00Z</time>
      </trkpt>
      <trkpt lat="38.214856" lon="-1.805240">
        <ele>432.2</ele>
        <time>2017-03-04T10:34:07Z</time>
      </trkpt>
      <trkpt lat="38.214840" lon="-1.805271">
        <ele>432.7</ele>
        <time>2017-03-04T10:34:09Z</time>
      </trkpt>
      <trkpt lat="38.214815" lon="-1.805299">
        <ele>432.2</ele>
        <time>2017-03-04T10:34:11Z</time>
      </trkpt>
      <trkpt lat="38.214728" lon="-1.805583">
        <ele>431.8</ele>
        <time>2017-03-04T10:34:29Z</time>
      </trkpt>
      <trkpt lat="38.214626" lon="-1.805868">
        <ele>430.8</ele>
        <time>2017-03-04T10:34:46Z</time>
      </trkpt>
      <trkpt lat="38.214571" lon="-1.806061">
        <ele>430.8</ele>
        <time>2017-03-04T10:34:58Z</time>
      </trkpt>
      <trkpt lat="38.214508" lon="-1.806284">
        <ele>432.7</ele>
        <time>2017-03-04T10:35:12Z</time>
      </trkpt>
      <trkpt lat="38.214487" lon="-1.806363">
        <ele>429.4</ele>
        <time>2017-03-04T10:35:17Z</time>
      </trkpt>
      <trkpt lat="38.214486" lon="-1.806376">
        <ele>430.3</ele>
        <time>2017-03-04T10:35:18Z</time>
      </trkpt>
      <trkpt lat="38.214481" lon="-1.806402">
        <ele>433.2</ele>
        <time>2017-03-04T10:35:20Z</time>
      </trkpt>
      <trkpt lat="38.214474" lon="-1.806429">
        <ele>435.1</ele>
        <time>2017-03-04T10:35:22Z</time>
      </trkpt>
      <trkpt lat="38.214471" lon="-1.806442">
        <ele>429.9</ele>
        <time>2017-03-04T10:35:23Z</time>
      </trkpt>
      <trkpt lat="38.214469" lon="-1.806474">
        <ele>435.1</ele>
        <time>2017-03-04T10:35:25Z</time>
      </trkpt>
      <trkpt lat="38.214467" lon="-1.806495">
        <ele>435.1</ele>
        <time>2017-03-04T10:35:26Z</time>
      </trkpt>
      <trkpt lat="38.214449" lon="-1.806541">
        <ele>432.7</ele>
        <time>2017-03-04T10:35:28Z</time>
      </trkpt>
      <trkpt lat="38.214386" lon="-1.806787">
        <ele>431.8</ele>
        <time>2017-03-04T10:35:43Z</time>
      </trkpt>
      <trkpt lat="38.214360" lon="-1.806853">
        <ele>432.2</ele>
        <time>2017-03-04T10:35:48Z</time>
      </trkpt>
      <trkpt lat="38.214292" lon="-1.807118">
        <ele>432.7</ele>
        <time>2017-03-04T10:36:05Z</time>
      </trkpt>
      <trkpt lat="38.214261" lon="-1.807170">
        <ele>433.2</ele>
        <time>2017-03-04T10:36:09Z</time>
      </trkpt>
      <trkpt lat="38.214197" lon="-1.807298">
        <ele>434.2</ele>
        <time>2017-03-04T10:36:22Z</time>
      </trkpt>
      <trkpt lat="38.214136" lon="-1.807385">
        <ele>433.2</ele>
        <time>2017-03-04T10:36:35Z</time>
      </trkpt>
      <trkpt lat="38.214118" lon="-1.807445">
        <ele>434.6</ele>
        <time>2017-03-04T10:55:55Z</time>
      </trkpt>
      <trkpt lat="38.214069" lon="-1.807556">
        <ele>434.2</ele>
        <time>2017-03-04T10:56:07Z</time>
      </trkpt>
      <trkpt lat="38.214029" lon="-1.807691">
        <ele>433.2</ele>
        <time>2017-03-04T10:56:17Z</time>
      </trkpt>
      <trkpt lat="38.214021" lon="-1.807712">
        <ele>436.6</ele>
        <time>2017-03-04T10:56:19Z</time>
      </trkpt>
      <trkpt lat="38.214019" lon="-1.807725">
        <ele>435.1</ele>
        <time>2017-03-04T10:56:20Z</time>
      </trkpt>
      <trkpt lat="38.213934" lon="-1.807905">
        <ele>435.1</ele>
        <time>2017-03-04T10:56:36Z</time>
      </trkpt>
      <trkpt lat="38.213868" lon="-1.808022">
        <ele>436.1</ele>
        <time>2017-03-04T10:56:50Z</time>
      </trkpt>
      <trkpt lat="38.213784" lon="-1.808209">
        <ele>436.6</ele>
        <time>2017-03-04T10:57:06Z</time>
      </trkpt>
      <trkpt lat="38.213760" lon="-1.808265">
        <ele>436.6</ele>
        <time>2017-03-04T10:57:12Z</time>
      </trkpt>
      <trkpt lat="38.213713" lon="-1.808456">
        <ele>436.6</ele>
        <time>2017-03-04T10:57:28Z</time>
      </trkpt>
      <trkpt lat="38.213669" lon="-1.808640">
        <ele>437.1</ele>
        <time>2017-03-04T10:57:43Z</time>
      </trkpt>
      <trkpt lat="38.213657" lon="-1.808707">
        <ele>437.1</ele>
        <time>2017-03-04T10:57:48Z</time>
      </trkpt>
      <trkpt lat="38.213628" lon="-1.808934">
        <ele>437.1</ele>
        <time>2017-03-04T10:58:06Z</time>
      </trkpt>
      <trkpt lat="38.213600" lon="-1.809103">
        <ele>437.5</ele>
        <time>2017-03-04T10:58:22Z</time>
      </trkpt>
      <trkpt lat="38.213542" lon="-1.809349">
        <ele>438.5</ele>
        <time>2017-03-04T10:58:42Z</time>
      </trkpt>
      <trkpt lat="38.213476" lon="-1.809578">
        <ele>439.0</ele>
        <time>2017-03-04T10:59:00Z</time>
      </trkpt>
      <trkpt lat="38.213453" lon="-1.809680">
        <ele>437.5</ele>
        <time>2017-03-04T10:59:08Z</time>
      </trkpt>
      <trkpt lat="38.213416" lon="-1.809876">
        <ele>439.0</ele>
        <time>2017-03-04T10:59:24Z</time>
      </trkpt>
      <trkpt lat="38.213393" lon="-1.810015">
        <ele>438.5</ele>
        <time>2017-03-04T10:59:38Z</time>
      </trkpt>
      <trkpt lat="38.213380" lon="-1.810030">
        <ele>439.5</ele>
        <time>2017-03-04T10:59:44Z</time>
      </trkpt>
      <trkpt lat="38.213331" lon="-1.810290">
        <ele>439.0</ele>
        <time>2017-03-04T10:59:59Z</time>
      </trkpt>
      <trkpt lat="38.213272" lon="-1.810565">
        <ele>439.0</ele>
        <time>2017-03-04T11:00:14Z</time>
      </trkpt>
      <trkpt lat="38.213237" lon="-1.810668">
        <ele>439.5</ele>
        <time>2017-03-04T11:00:22Z</time>
      </trkpt>
      <trkpt lat="38.213214" lon="-1.810726">
        <ele>439.9</ele>
        <time>2017-03-04T11:00:27Z</time>
      </trkpt>
      <trkpt lat="38.213144" lon="-1.810895">
        <ele>439.0</ele>
        <time>2017-03-04T11:00:41Z</time>
      </trkpt>
      <trkpt lat="38.213117" lon="-1.810934">
        <ele>437.5</ele>
        <time>2017-03-04T11:00:45Z</time>
      </trkpt>
      <trkpt lat="38.213107" lon="-1.810949">
        <ele>440.4</ele>
        <time>2017-03-04T11:00:47Z</time>
      </trkpt>
      <trkpt lat="38.213012" lon="-1.811137">
        <ele>439.9</ele>
        <time>2017-03-04T11:01:05Z</time>
      </trkpt>
      <trkpt lat="38.212946" lon="-1.811234">
        <ele>440.4</ele>
        <time>2017-03-04T11:01:14Z</time>
      </trkpt>
      <trkpt lat="38.212840" lon="-1.811432">
        <ele>439.9</ele>
        <time>2017-03-04T11:01:31Z</time>
      </trkpt>
      <trkpt lat="38.212726" lon="-1.811542">
        <ele>438.5</ele>
        <time>2017-03-04T11:01:47Z</time>
      </trkpt>
      <trkpt lat="38.212587" lon="-1.811690">
        <ele>438.5</ele>
        <time>2017-03-04T11:02:04Z</time>
      </trkpt>
      <trkpt lat="38.212437" lon="-1.811846">
        <ele>439.0</ele>
        <time>2017-03-04T11:02:22Z</time>
      </trkpt>
      <trkpt lat="38.212267" lon="-1.812053">
        <ele>439.9</ele>
        <time>2017-03-04T11:02:42Z</time>
      </trkpt>
      <trkpt lat="38.212128" lon="-1.812210">
        <ele>441.4</ele>
        <time>2017-03-04T11:03:00Z</time>
      </trkpt>
      <trkpt lat="38.212002" lon="-1.812370">
        <ele>441.9</ele>
        <time>2017-03-04T11:03:17Z</time>
      </trkpt>
      <trkpt lat="38.211931" lon="-1.812501">
        <ele>442.8</ele>
        <time>2017-03-04T11:03:33Z</time>
      </trkpt>
      <trkpt lat="38.211845" lon="-1.812544">
        <ele>443.8</ele>
        <time>2017-03-04T11:03:44Z</time>
      </trkpt>
      <trkpt lat="38.211806" lon="-1.812562">
        <ele>444.3</ele>
        <time>2017-03-04T11:03:48Z</time>
      </trkpt>
      <trkpt lat="38.211659" lon="-1.812669">
        <ele>445.2</ele>
        <time>2017-03-04T11:04:05Z</time>
      </trkpt>
      <trkpt lat="38.211611" lon="-1.812762">
        <ele>446.2</ele>
        <time>2017-03-04T11:04:12Z</time>
      </trkpt>
      <trkpt lat="38.211405" lon="-1.812948">
        <ele>446.7</ele>
        <time>2017-03-04T11:04:32Z</time>
      </trkpt>
      <trkpt lat="38.211358" lon="-1.812982">
        <ele>446.2</ele>
        <time>2017-03-04T11:04:37Z</time>
      </trkpt>
      <trkpt lat="38.211180" lon="-1.813094">
        <ele>446.7</ele>
        <time>2017-03-04T11:04:54Z</time>
      </trkpt>
      <trkpt lat="38.211021" lon="-1.813198">
        <ele>446.7</ele>
        <time>2017-03-04T11:05:11Z</time>
      </trkpt>
      <trkpt lat="38.210887" lon="-1.813261">
        <ele>446.7</ele>
        <time>2017-03-04T11:05:22Z</time>
      </trkpt>
      <trkpt lat="38.210805" lon="-1.813310">
        <ele>446.7</ele>
        <time>2017-03-04T11:05:31Z</time>
      </trkpt>
      <trkpt lat="38.210665" lon="-1.813376">
        <ele>447.1</ele>
        <time>2017-03-04T11:05:44Z</time>
      </trkpt>
      <trkpt lat="38.210446" lon="-1.813486">
        <ele>447.1</ele>
        <time>2017-03-04T11:06:05Z</time>
      </trkpt>
      <trkpt lat="38.210239" lon="-1.813636">
        <ele>447.6</ele>
        <time>2017-03-04T11:06:29Z</time>
      </trkpt>
      <trkpt lat="38.210014" lon="-1.813760">
        <ele>447.6</ele>
        <time>2017-03-04T11:06:50Z</time>
      </trkpt>
      <trkpt lat="38.209789" lon="-1.813875">
        <ele>448.6</ele>
        <time>2017-03-04T11:07:09Z</time>
      </trkpt>
      <trkpt lat="38.209607" lon="-1.813966">
        <ele>449.5</ele>
        <time>2017-03-04T11:07:24Z</time>
      </trkpt>
      <trkpt lat="38.209439" lon="-1.814045">
        <ele>450.0</ele>
        <time>2017-03-04T11:07:39Z</time>
      </trkpt>
      <trkpt lat="38.209375" lon="-1.814096">
        <ele>450.0</ele>
        <time>2017-03-04T11:07:48Z</time>
      </trkpt>
      <trkpt lat="38.209263" lon="-1.814224">
        <ele>450.0</ele>
        <time>2017-03-04T11:08:05Z</time>
      </trkpt>
      <trkpt lat="38.209256" lon="-1.814221">
        <ele>450.0</ele>
        <time>2017-03-04T11:08:06Z</time>
      </trkpt>
      <trkpt lat="38.209174" lon="-1.814332">
        <ele>451.0</ele>
        <time>2017-03-04T11:08:21Z</time>
      </trkpt>
      <trkpt lat="38.209155" lon="-1.814361">
        <ele>451.0</ele>
        <time>2017-03-04T11:08:23Z</time>
      </trkpt>
      <trkpt lat="38.209156" lon="-1.814400">
        <ele>451.0</ele>
        <time>2017-03-04T11:08:29Z</time>
      </trkpt>
      <trkpt lat="38.209090" lon="-1.814697">
        <ele>451.5</ele>
        <time>2017-03-04T11:08:44Z</time>
      </trkpt>
      <trkpt lat="38.209022" lon="-1.815014">
        <ele>452.0</ele>
        <time>2017-03-04T11:09:02Z</time>
      </trkpt>
      <trkpt lat="38.208975" lon="-1.815334">
        <ele>452.0</ele>
        <time>2017-03-04T11:09:23Z</time>
      </trkpt>
      <trkpt lat="38.208950" lon="-1.815536">
        <ele>452.0</ele>
        <time>2017-03-04T11:09:38Z</time>
      </trkpt>
      <trkpt lat="38.208938" lon="-1.815705">
        <ele>452.0</ele>
        <time>2017-03-04T11:09:53Z</time>
      </trkpt>
      <trkpt lat="38.208909" lon="-1.815911">
        <ele>452.4</ele>
        <time>2017-03-04T11:10:09Z</time>
      </trkpt>
      <trkpt lat="38.208886" lon="-1.816099">
        <ele>452.4</ele>
        <time>2017-03-04T11:10:23Z</time>
      </trkpt>
      <trkpt lat="38.208856" lon="-1.816296">
        <ele>452.9</ele>
        <time>2017-03-04T11:10:37Z</time>
      </trkpt>
      <trkpt lat="38.208816" lon="-1.816493">
        <ele>452.4</ele>
        <time>2017-03-04T11:10:50Z</time>
      </trkpt>
      <trkpt lat="38.208790" lon="-1.816679">
        <ele>452.4</ele>
        <time>2017-03-04T11:11:03Z</time>
      </trkpt>
      <trkpt lat="38.208768" lon="-1.816885">
        <ele>454.4</ele>
        <time>2017-03-04T11:11:18Z</time>
      </trkpt>
      <trkpt lat="38.208767" lon="-1.816894">
        <ele>453.9</ele>
        <time>2017-03-04T11:11:19Z</time>
      </trkpt>
      <trkpt lat="38.208714" lon="-1.817146">
        <ele>453.4</ele>
        <time>2017-03-04T11:11:38Z</time>
      </trkpt>
      <trkpt lat="38.208696" lon="-1.817297">
        <ele>453.9</ele>
        <time>2017-03-04T11:11:50Z</time>
      </trkpt>
      <trkpt lat="38.208698" lon="-1.817341">
        <ele>453.9</ele>
        <time>2017-03-04T11:11:53Z</time>
      </trkpt>
      <trkpt lat="38.208686" lon="-1.817472">
        <ele>454.8</ele>
        <time>2017-03-04T11:12:02Z</time>
      </trkpt>
      <trkpt lat="38.208644" lon="-1.817690">
        <ele>454.4</ele>
        <time>2017-03-04T11:12:17Z</time>
      </trkpt>
      <trkpt lat="38.208637" lon="-1.817718">
        <ele>454.4</ele>
        <time>2017-03-04T11:12:19Z</time>
      </trkpt>
      <trkpt lat="38.208608" lon="-1.817863">
        <ele>454.4</ele>
        <time>2017-03-04T11:12:28Z</time>
      </trkpt>
      <trkpt lat="38.208573" lon="-1.818105">
        <ele>454.4</ele>
        <time>2017-03-04T11:12:44Z</time>
      </trkpt>
      <trkpt lat="38.208570" lon="-1.818171">
        <ele>454.4</ele>
        <time>2017-03-04T11:12:48Z</time>
      </trkpt>
      <trkpt lat="38.208561" lon="-1.818231">
        <ele>454.8</ele>
        <time>2017-03-04T11:12:52Z</time>
      </trkpt>
      <trkpt lat="38.208513" lon="-1.818527">
        <ele>454.4</ele>
        <time>2017-03-04T11:13:10Z</time>
      </trkpt>
      <trkpt lat="38.208492" lon="-1.818789">
        <ele>454.8</ele>
        <time>2017-03-04T11:13:25Z</time>
      </trkpt>
      <trkpt lat="38.208438" lon="-1.819094">
        <ele>454.8</ele>
        <time>2017-03-04T11:13:43Z</time>
      </trkpt>
      <trkpt lat="38.208415" lon="-1.819422">
        <ele>454.8</ele>
        <time>2017-03-04T11:14:02Z</time>
      </trkpt>
      <trkpt lat="38.208424" lon="-1.819475">
        <ele>455.3</ele>
        <time>2017-03-04T11:14:17Z</time>
      </trkpt>
      <trkpt lat="38.208448" lon="-1.819584">
        <ele>455.3</ele>
        <time>2017-03-04T11:14:57Z</time>
      </trkpt>
      <trkpt lat="38.208523" lon="-1.819826">
        <ele>455.8</ele>
        <time>2017-03-04T11:15:13Z</time>
      </trkpt>
      <trkpt lat="38.208579" lon="-1.820163">
        <ele>453.9</ele>
        <time>2017-03-04T11:15:33Z</time>
      </trkpt>
      <trkpt lat="38.208579" lon="-1.820178">
        <ele>457.7</ele>
        <time>2017-03-04T11:15:34Z</time>
      </trkpt>
      <trkpt lat="38.208576" lon="-1.820225">
        <ele>455.3</ele>
        <time>2017-03-04T11:15:37Z</time>
      </trkpt>
      <trkpt lat="38.208570" lon="-1.820305">
        <ele>455.3</ele>
        <time>2017-03-04T11:15:42Z</time>
      </trkpt>
      <trkpt lat="38.208561" lon="-1.820364">
        <ele>455.8</ele>
        <time>2017-03-04T11:15:50Z</time>
      </trkpt>
      <trkpt lat="38.208514" lon="-1.820496">
        <ele>455.8</ele>
        <time>2017-03-04T11:15:58Z</time>
      </trkpt>
      <trkpt lat="38.208387" lon="-1.820812">
        <ele>455.8</ele>
        <time>2017-03-04T11:16:17Z</time>
      </trkpt>
      <trkpt lat="38.208284" lon="-1.821053">
        <ele>456.3</ele>
        <time>2017-03-04T11:16:33Z</time>
      </trkpt>
      <trkpt lat="38.208233" lon="-1.821266">
        <ele>457.2</ele>
        <time>2017-03-04T11:16:49Z</time>
      </trkpt>
      <trkpt lat="38.208165" lon="-1.821602">
        <ele>457.7</ele>
        <time>2017-03-04T11:17:09Z</time>
      </trkpt>
      <trkpt lat="38.208127" lon="-1.821833">
        <ele>459.2</ele>
        <time>2017-03-04T11:17:24Z</time>
      </trkpt>
      <trkpt lat="38.208088" lon="-1.822054">
        <ele>459.6</ele>
        <time>2017-03-04T11:17:39Z</time>
      </trkpt>
      <trkpt lat="38.208025" lon="-1.822321">
        <ele>460.6</ele>
        <time>2017-03-04T11:17:57Z</time>
      </trkpt>
      <trkpt lat="38.207982" lon="-1.822615">
        <ele>461.6</ele>
        <time>2017-03-04T11:18:17Z</time>
      </trkpt>
      <trkpt lat="38.207963" lon="-1.822808">
        <ele>462.5</ele>
        <time>2017-03-04T11:18:30Z</time>
      </trkpt>
      <trkpt lat="38.207952" lon="-1.823043">
        <ele>464.0</ele>
        <time>2017-03-04T11:18:46Z</time>
      </trkpt>
      <trkpt lat="38.207924" lon="-1.823283">
        <ele>465.4</ele>
        <time>2017-03-04T11:19:04Z</time>
      </trkpt>
      <trkpt lat="38.207905" lon="-1.823332">
        <ele>465.4</ele>
        <time>2017-03-04T11:19:08Z</time>
      </trkpt>
      <trkpt lat="38.207820" lon="-1.823589">
        <ele>465.4</ele>
        <time>2017-03-04T11:19:27Z</time>
      </trkpt>
      <trkpt lat="38.207702" lon="-1.823814">
        <ele>466.9</ele>
        <time>2017-03-04T11:19:45Z</time>
      </trkpt>
      <trkpt lat="38.207619" lon="-1.824046">
        <ele>467.3</ele>
        <time>2017-03-04T11:20:02Z</time>
      </trkpt>
      <trkpt lat="38.207556" lon="-1.824312">
        <ele>467.8</ele>
        <time>2017-03-04T11:20:20Z</time>
      </trkpt>
      <trkpt lat="38.207521" lon="-1.824572">
        <ele>468.8</ele>
        <time>2017-03-04T11:20:39Z</time>
      </trkpt>
      <trkpt lat="38.207513" lon="-1.824637">
        <ele>468.3</ele>
        <time>2017-03-04T11:20:44Z</time>
      </trkpt>
      <trkpt lat="38.207505" lon="-1.824694">
        <ele>468.8</ele>
        <time>2017-03-04T11:20:48Z</time>
      </trkpt>
      <trkpt lat="38.207456" lon="-1.824916">
        <ele>469.3</ele>
        <time>2017-03-04T11:21:03Z</time>
      </trkpt>
      <trkpt lat="38.207414" lon="-1.825164">
        <ele>469.3</ele>
        <time>2017-03-04T11:21:21Z</time>
      </trkpt>
      <trkpt lat="38.207422" lon="-1.825433">
        <ele>469.7</ele>
        <time>2017-03-04T11:21:38Z</time>
      </trkpt>
      <trkpt lat="38.207439" lon="-1.825495">
        <ele>469.7</ele>
        <time>2017-03-04T11:21:46Z</time>
      </trkpt>
      <trkpt lat="38.207434" lon="-1.825655">
        <ele>470.2</ele>
        <time>2017-03-04T11:21:57Z</time>
      </trkpt>
      <trkpt lat="38.207452" lon="-1.825802">
        <ele>471.2</ele>
        <time>2017-03-04T11:22:10Z</time>
      </trkpt>
      <trkpt lat="38.207458" lon="-1.825877">
        <ele>470.7</ele>
        <time>2017-03-04T11:22:24Z</time>
      </trkpt>
      <trkpt lat="38.207456" lon="-1.826048">
        <ele>470.7</ele>
        <time>2017-03-04T11:22:37Z</time>
      </trkpt>
      <trkpt lat="38.207461" lon="-1.826220">
        <ele>471.2</ele>
        <time>2017-03-04T11:22:49Z</time>
      </trkpt>
      <trkpt lat="38.207427" lon="-1.826512">
        <ele>471.2</ele>
        <time>2017-03-04T11:23:07Z</time>
      </trkpt>
      <trkpt lat="38.207411" lon="-1.826813">
        <ele>472.1</ele>
        <time>2017-03-04T11:23:24Z</time>
      </trkpt>
      <trkpt lat="38.207412" lon="-1.827127">
        <ele>472.6</ele>
        <time>2017-03-04T11:23:42Z</time>
      </trkpt>
      <trkpt lat="38.207387" lon="-1.827472">
        <ele>473.6</ele>
        <time>2017-03-04T11:24:02Z</time>
      </trkpt>
      <trkpt lat="38.207383" lon="-1.827768">
        <ele>469.3</ele>
        <time>2017-03-04T11:24:20Z</time>
      </trkpt>
      <trkpt lat="38.207385" lon="-1.827780">
        <ele>477.0</ele>
        <time>2017-03-04T11:24:21Z</time>
      </trkpt>
      <trkpt lat="38.207385" lon="-1.827796">
        <ele>475.5</ele>
        <time>2017-03-04T11:24:22Z</time>
      </trkpt>
      <trkpt lat="38.207385" lon="-1.827833">
        <ele>473.6</ele>
        <time>2017-03-04T11:24:24Z</time>
      </trkpt>
      <trkpt lat="38.207399" lon="-1.828143">
        <ele>475.0</ele>
        <time>2017-03-04T11:24:42Z</time>
      </trkpt>
      <trkpt lat="38.207400" lon="-1.828163">
        <ele>474.5</ele>
        <time>2017-03-04T11:24:43Z</time>
      </trkpt>
      <trkpt lat="38.207417" lon="-1.828497">
        <ele>475.5</ele>
        <time>2017-03-04T11:25:01Z</time>
      </trkpt>
      <trkpt lat="38.207466" lon="-1.828821">
        <ele>476.0</ele>
        <time>2017-03-04T11:25:18Z</time>
      </trkpt>
      <trkpt lat="38.207539" lon="-1.829139">
        <ele>477.0</ele>
        <time>2017-03-04T11:25:37Z</time>
      </trkpt>
      <trkpt lat="38.207637" lon="-1.829487">
        <ele>477.9</ele>
        <time>2017-03-04T11:25:56Z</time>
      </trkpt>
      <trkpt lat="38.207746" lon="-1.829761">
        <ele>478.4</ele>
        <time>2017-03-04T11:26:14Z</time>
      </trkpt>
      <trkpt lat="38.207862" lon="-1.830060">
        <ele>479.4</ele>
        <time>2017-03-04T11:26:34Z</time>
      </trkpt>
      <trkpt lat="38.207954" lon="-1.830364">
        <ele>479.8</ele>
        <time>2017-03-04T11:26:53Z</time>
      </trkpt>
      <trkpt lat="38.207992" lon="-1.830709">
        <ele>479.8</ele>
        <time>2017-03-04T11:27:15Z</time>
      </trkpt>
      <trkpt lat="38.207970" lon="-1.830955">
        <ele>479.8</ele>
        <time>2017-03-04T11:27:31Z</time>
      </trkpt>
      <trkpt lat="38.207968" lon="-1.830972">
        <ele>479.4</ele>
        <time>2017-03-04T11:27:32Z</time>
      </trkpt>
      <trkpt lat="38.207966" lon="-1.831002">
        <ele>480.8</ele>
        <time>2017-03-04T11:27:34Z</time>
      </trkpt>
      <trkpt lat="38.207907" lon="-1.831342">
        <ele>481.3</ele>
        <time>2017-03-04T11:27:53Z</time>
      </trkpt>
      <trkpt lat="38.207830" lon="-1.831658">
        <ele>482.2</ele>
        <time>2017-03-04T11:28:13Z</time>
      </trkpt>
      <trkpt lat="38.207740" lon="-1.831915">
        <ele>482.2</ele>
        <time>2017-03-04T11:28:30Z</time>
      </trkpt>
      <trkpt lat="38.207666" lon="-1.832128">
        <ele>482.2</ele>
        <time>2017-03-04T11:28:44Z</time>
      </trkpt>
      <trkpt lat="38.207592" lon="-1.832358">
        <ele>482.2</ele>
        <time>2017-03-04T11:29:01Z</time>
      </trkpt>
      <trkpt lat="38.207493" lon="-1.832617">
        <ele>483.2</ele>
        <time>2017-03-04T11:29:19Z</time>
      </trkpt>
      <trkpt lat="38.207462" lon="-1.832720">
        <ele>483.2</ele>
        <time>2017-03-04T11:29:29Z</time>
      </trkpt>
      <trkpt lat="38.207343" lon="-1.832940">
        <ele>483.2</ele>
        <time>2017-03-04T11:29:44Z</time>
      </trkpt>
      <trkpt lat="38.207214" lon="-1.833193">
        <ele>483.2</ele>
        <time>2017-03-04T11:30:00Z</time>
      </trkpt>
      <trkpt lat="38.207211" lon="-1.833225">
        <ele>483.2</ele>
        <time>2017-03-04T11:30:02Z</time>
      </trkpt>
      <trkpt lat="38.207109" lon="-1.833387">
        <ele>483.7</ele>
        <time>2017-03-04T11:30:16Z</time>
      </trkpt>
      <trkpt lat="38.206998" lon="-1.833615">
        <ele>483.7</ele>
        <time>2017-03-04T11:30:32Z</time>
      </trkpt>
      <trkpt lat="38.206903" lon="-1.833872">
        <ele>483.7</ele>
        <time>2017-03-04T11:30:49Z</time>
      </trkpt>
      <trkpt lat="38.206855" lon="-1.834007">
        <ele>484.2</ele>
        <time>2017-03-04T11:30:58Z</time>
      </trkpt>
      <trkpt lat="38.206756" lon="-1.834260">
        <ele>484.6</ele>
        <time>2017-03-04T11:31:17Z</time>
      </trkpt>
      <trkpt lat="38.206708" lon="-1.834373">
        <ele>484.6</ele>
        <time>2017-03-04T11:31:30Z</time>
      </trkpt>
      <trkpt lat="38.206700" lon="-1.834437">
        <ele>484.6</ele>
        <time>2017-03-04T11:31:34Z</time>
      </trkpt>
      <trkpt lat="38.206563" lon="-1.834807">
        <ele>485.1</ele>
        <time>2017-03-04T11:31:57Z</time>
      </trkpt>
      <trkpt lat="38.206456" lon="-1.835084">
        <ele>485.1</ele>
        <time>2017-03-04T11:32:16Z</time>
      </trkpt>
      <trkpt lat="38.206287" lon="-1.835318">
        <ele>486.1</ele>
        <time>2017-03-04T11:32:37Z</time>
      </trkpt>
      <trkpt lat="38.205999" lon="-1.835484">
        <ele>487.5</ele>
        <time>2017-03-04T11:33:00Z</time>
      </trkpt>
      <trkpt lat="38.205729" lon="-1.835735">
        <ele>488.0</ele>
        <time>2017-03-04T11:33:26Z</time>
      </trkpt>
      <trkpt lat="38.205558" lon="-1.835965">
        <ele>488.5</ele>
        <time>2017-03-04T11:33:45Z</time>
      </trkpt>
      <trkpt lat="38.205400" lon="-1.836323">
        <ele>489.0</ele>
        <time>2017-03-04T11:34:09Z</time>
      </trkpt>
      <trkpt lat="38.205279" lon="-1.836696">
        <ele>489.5</ele>
        <time>2017-03-04T11:34:34Z</time>
      </trkpt>
      <trkpt lat="38.205135" lon="-1.837103">
        <ele>489.9</ele>
        <time>2017-03-04T11:35:01Z</time>
      </trkpt>
      <trkpt lat="38.204979" lon="-1.837428">
        <ele>491.4</ele>
        <time>2017-03-04T11:35:24Z</time>
      </trkpt>
      <trkpt lat="38.204713" lon="-1.837718">
        <ele>492.8</ele>
        <time>2017-03-04T11:35:51Z</time>
      </trkpt>
      <trkpt lat="38.204510" lon="-1.837978">
        <ele>493.3</ele>
        <time>2017-03-04T11:36:13Z</time>
      </trkpt>
      <trkpt lat="38.204348" lon="-1.838350">
        <ele>493.3</ele>
        <time>2017-03-04T11:36:38Z</time>
      </trkpt>
      <trkpt lat="38.204162" lon="-1.838663">
        <ele>494.3</ele>
        <time>2017-03-04T11:37:01Z</time>
      </trkpt>
      <trkpt lat="38.203975" lon="-1.838969">
        <ele>495.2</ele>
        <time>2017-03-04T11:37:25Z</time>
      </trkpt>
      <trkpt lat="38.203834" lon="-1.839167">
        <ele>495.2</ele>
        <time>2017-03-04T11:37:41Z</time>
      </trkpt>
      <trkpt lat="38.203696" lon="-1.839378">
        <ele>495.7</ele>
        <time>2017-03-04T11:37:58Z</time>
      </trkpt>
      <trkpt lat="38.203597" lon="-1.839633">
        <ele>496.2</ele>
        <time>2017-03-04T11:38:16Z</time>
      </trkpt>
      <trkpt lat="38.203517" lon="-1.839884">
        <ele>496.7</ele>
        <time>2017-03-04T11:38:32Z</time>
      </trkpt>
      <trkpt lat="38.203506" lon="-1.839905">
        <ele>496.7</ele>
        <time>2017-03-04T11:38:35Z</time>
      </trkpt>
      <trkpt lat="38.203475" lon="-1.839995">
        <ele>496.7</ele>
        <time>2017-03-04T11:38:41Z</time>
      </trkpt>
      <trkpt lat="38.203421" lon="-1.840263">
        <ele>497.1</ele>
        <time>2017-03-04T11:38:58Z</time>
      </trkpt>
      <trkpt lat="38.203377" lon="-1.840452">
        <ele>498.1</ele>
        <time>2017-03-04T11:39:10Z</time>
      </trkpt>
      <trkpt lat="38.203316" lon="-1.840729">
        <ele>499.1</ele>
        <time>2017-03-04T11:39:27Z</time>
      </trkpt>
      <trkpt lat="38.203264" lon="-1.840999">
        <ele>499.5</ele>
        <time>2017-03-04T11:39:44Z</time>
      </trkpt>
      <trkpt lat="38.203156" lon="-1.841294">
        <ele>500.5</ele>
        <time>2017-03-04T11:40:03Z</time>
      </trkpt>
      <trkpt lat="38.203087" lon="-1.841537">
        <ele>501.0</ele>
        <time>2017-03-04T11:40:18Z</time>
      </trkpt>
      <trkpt lat="38.203035" lon="-1.841791">
        <ele>501.0</ele>
        <time>2017-03-04T11:40:35Z</time>
      </trkpt>
      <trkpt lat="38.202990" lon="-1.842167">
        <ele>502.4</ele>
        <time>2017-03-04T11:40:58Z</time>
      </trkpt>
      <trkpt lat="38.202986" lon="-1.842467">
        <ele>502.4</ele>
        <time>2017-03-04T11:41:16Z</time>
      </trkpt>
      <trkpt lat="38.202990" lon="-1.842780">
        <ele>502.9</ele>
        <time>2017-03-04T11:41:35Z</time>
      </trkpt>
      <trkpt lat="38.202971" lon="-1.843063">
        <ele>503.4</ele>
        <time>2017-03-04T11:41:53Z</time>
      </trkpt>
      <trkpt lat="38.202970" lon="-1.843077">
        <ele>503.4</ele>
        <time>2017-03-04T11:41:54Z</time>
      </trkpt>
      <trkpt lat="38.202892" lon="-1.843360">
        <ele>503.4</ele>
        <time>2017-03-04T11:42:15Z</time>
      </trkpt>
      <trkpt lat="38.202894" lon="-1.843513">
        <ele>503.9</ele>
        <time>2017-03-04T11:42:29Z</time>
      </trkpt>
      <trkpt lat="38.202890" lon="-1.843731">
        <ele>503.4</ele>
        <time>2017-03-04T11:42:45Z</time>
      </trkpt>
      <trkpt lat="38.202846" lon="-1.844117">
        <ele>504.4</ele>
        <time>2017-03-04T11:43:07Z</time>
      </trkpt>
      <trkpt lat="38.202740" lon="-1.844375">
        <ele>504.4</ele>
        <time>2017-03-04T11:43:27Z</time>
      </trkpt>
      <trkpt lat="38.202747" lon="-1.844481">
        <ele>504.8</ele>
        <time>2017-03-04T11:43:34Z</time>
      </trkpt>
      <trkpt lat="38.202766" lon="-1.844753">
        <ele>504.4</ele>
        <time>2017-03-04T11:43:53Z</time>
      </trkpt>
      <trkpt lat="38.202764" lon="-1.845006">
        <ele>503.9</ele>
        <time>2017-03-04T11:44:12Z</time>
      </trkpt>
      <trkpt lat="38.202764" lon="-1.845125">
        <ele>503.4</ele>
        <time>2017-03-04T11:44:25Z</time>
      </trkpt>
      <trkpt lat="38.202713" lon="-1.845291">
        <ele>502.0</ele>
        <time>2017-03-04T11:44:40Z</time>
      </trkpt>
      <trkpt lat="38.202705" lon="-1.845289">
        <ele>502.4</ele>
        <time>2017-03-04T11:44:42Z</time>
      </trkpt>
      <trkpt lat="38.202636" lon="-1.845516">
        <ele>500.0</ele>
        <time>2017-03-04T11:44:58Z</time>
      </trkpt>
      <trkpt lat="38.202625" lon="-1.845584">
        <ele>498.6</ele>
        <time>2017-03-04T11:45:11Z</time>
      </trkpt>
      <trkpt lat="38.202615" lon="-1.845655">
        <ele>498.1</ele>
        <time>2017-03-04T11:45:15Z</time>
      </trkpt>
      <trkpt lat="38.202583" lon="-1.845903">
        <ele>495.7</ele>
        <time>2017-03-04T11:45:29Z</time>
      </trkpt>
      <trkpt lat="38.202533" lon="-1.846149">
        <ele>493.8</ele>
        <time>2017-03-04T11:45:43Z</time>
      </trkpt>
      <trkpt lat="38.202374" lon="-1.846363">
        <ele>490.9</ele>
        <time>2017-03-04T11:46:09Z</time>
      </trkpt>
      <trkpt lat="38.202342" lon="-1.846449">
        <ele>490.4</ele>
        <time>2017-03-04T11:46:21Z</time>
      </trkpt>
      <trkpt lat="38.202339" lon="-1.846530">
        <ele>491.4</ele>
        <time>2017-03-04T11:48:02Z</time>
      </trkpt>
      <trkpt lat="38.202352" lon="-1.846624">
        <ele>491.9</ele>
        <time>2017-03-04T11:48:11Z</time>
      </trkpt>
      <trkpt lat="38.202366" lon="-1.846870">
        <ele>491.4</ele>
        <time>2017-03-04T11:48:36Z</time>
      </trkpt>
      <trkpt lat="38.202375" lon="-1.846873">
        <ele>491.9</ele>
        <time>2017-03-04T11:48:41Z</time>
      </trkpt>
      <trkpt lat="38.202365" lon="-1.846883">
        <ele>492.3</ele>
        <time>2017-03-04T11:48:46Z</time>
      </trkpt>
      <trkpt lat="38.202364" lon="-1.846920">
        <ele>491.9</ele>
        <time>2017-03-04T11:48:49Z</time>
      </trkpt>
      <trkpt lat="38.202358" lon="-1.847015">
        <ele>492.8</ele>
        <time>2017-03-04T11:48:55Z</time>
      </trkpt>
      <trkpt lat="38.202325" lon="-1.847213">
        <ele>492.8</ele>
        <time>2017-03-04T11:49:10Z</time>
      </trkpt>
      <trkpt lat="38.202309" lon="-1.847313">
        <ele>493.8</ele>
        <time>2017-03-04T11:49:19Z</time>
      </trkpt>
      <trkpt lat="38.202291" lon="-1.847470">
        <ele>494.0</ele>
        <time>2017-03-04T11:49:31Z</time>
      </trkpt>
      <trkpt lat="38.202289" lon="-1.847501">
        <ele>494.7</ele>
        <time>2017-03-04T11:49:33Z</time>
      </trkpt>
      <trkpt lat="38.202289" lon="-1.847593">
        <ele>495.2</ele>
        <time>2017-03-04T11:49:40Z</time>
      </trkpt>
      <trkpt lat="38.202265" lon="-1.847769">
        <ele>496.7</ele>
        <time>2017-03-04T11:49:52Z</time>
      </trkpt>
      <trkpt lat="38.202252" lon="-1.847917">
        <ele>497.6</ele>
        <time>2017-03-04T11:50:03Z</time>
      </trkpt>
      <trkpt lat="38.202248" lon="-1.847952">
        <ele>497.1</ele>
        <time>2017-03-04T11:50:06Z</time>
      </trkpt>
      <trkpt lat="38.202239" lon="-1.848034">
        <ele>497.6</ele>
        <time>2017-03-04T11:50:15Z</time>
      </trkpt>
      <trkpt lat="38.202232" lon="-1.848140">
        <ele>498.6</ele>
        <time>2017-03-04T11:50:22Z</time>
      </trkpt>
      <trkpt lat="38.202228" lon="-1.848228">
        <ele>498.6</ele>
        <time>2017-03-04T11:50:28Z</time>
      </trkpt>
      <trkpt lat="38.202218" lon="-1.848284">
        <ele>498.6</ele>
        <time>2017-03-04T11:50:32Z</time>
      </trkpt>
      <trkpt lat="38.202200" lon="-1.848602">
        <ele>498.6</ele>
        <time>2017-03-04T11:50:51Z</time>
      </trkpt>
      <trkpt lat="38.202225" lon="-1.848878">
        <ele>501.5</ele>
        <time>2017-03-04T11:51:09Z</time>
      </trkpt>
      <trkpt lat="38.202239" lon="-1.849223">
        <ele>501.5</ele>
        <time>2017-03-04T11:51:31Z</time>
      </trkpt>
      <trkpt lat="38.202253" lon="-1.849571">
        <ele>501.5</ele>
        <time>2017-03-04T11:51:55Z</time>
      </trkpt>
      <trkpt lat="38.202271" lon="-1.849810">
        <ele>502.0</ele>
        <time>2017-03-04T11:52:11Z</time>
      </trkpt>
      <trkpt lat="38.202294" lon="-1.850042">
        <ele>502.4</ele>
        <time>2017-03-04T11:52:26Z</time>
      </trkpt>
      <trkpt lat="38.202327" lon="-1.850150">
        <ele>503.9</ele>
        <time>2017-03-04T11:52:34Z</time>
      </trkpt>
      <trkpt lat="38.202340" lon="-1.850401">
        <ele>504.8</ele>
        <time>2017-03-04T11:52:50Z</time>
      </trkpt>
      <trkpt lat="38.202341" lon="-1.850414">
        <ele>505.3</ele>
        <time>2017-03-04T11:52:51Z</time>
      </trkpt>
      <trkpt lat="38.202307" lon="-1.850540">
        <ele>505.3</ele>
        <time>2017-03-04T11:53:00Z</time>
      </trkpt>
      <trkpt lat="38.202279" lon="-1.850810">
        <ele>505.8</ele>
        <time>2017-03-04T11:53:17Z</time>
      </trkpt>
      <trkpt lat="38.202206" lon="-1.851052">
        <ele>506.8</ele>
        <time>2017-03-04T11:53:33Z</time>
      </trkpt>
      <trkpt lat="38.202169" lon="-1.851355">
        <ele>507.2</ele>
        <time>2017-03-04T11:53:51Z</time>
      </trkpt>
      <trkpt lat="38.202149" lon="-1.851629">
        <ele>506.8</ele>
        <time>2017-03-04T11:54:07Z</time>
      </trkpt>
      <trkpt lat="38.202106" lon="-1.851885">
        <ele>507.2</ele>
        <time>2017-03-04T11:54:23Z</time>
      </trkpt>
      <trkpt lat="38.202106" lon="-1.851896">
        <ele>507.2</ele>
        <time>2017-03-04T11:54:24Z</time>
      </trkpt>
      <trkpt lat="38.202101" lon="-1.851939">
        <ele>507.7</ele>
        <time>2017-03-04T11:54:29Z</time>
      </trkpt>
      <trkpt lat="38.202086" lon="-1.852025">
        <ele>507.7</ele>
        <time>2017-03-04T11:54:35Z</time>
      </trkpt>
      <trkpt lat="38.202014" lon="-1.852231">
        <ele>508.2</ele>
        <time>2017-03-04T11:54:50Z</time>
      </trkpt>
      <trkpt lat="38.201950" lon="-1.852293">
        <ele>508.7</ele>
        <time>2017-03-04T11:54:57Z</time>
      </trkpt>
      <trkpt lat="38.201815" lon="-1.852457">
        <ele>509.2</ele>
        <time>2017-03-04T11:55:12Z</time>
      </trkpt>
      <trkpt lat="38.201684" lon="-1.852631">
        <ele>510.1</ele>
        <time>2017-03-04T11:55:27Z</time>
      </trkpt>
      <trkpt lat="38.201672" lon="-1.852648">
        <ele>510.1</ele>
        <time>2017-03-04T11:55:29Z</time>
      </trkpt>
      <trkpt lat="38.201661" lon="-1.852663">
        <ele>509.6</ele>
        <time>2017-03-04T11:55:31Z</time>
      </trkpt>
      <trkpt lat="38.201590" lon="-1.852822">
        <ele>510.1</ele>
        <time>2017-03-04T11:55:44Z</time>
      </trkpt>
      <trkpt lat="38.201562" lon="-1.853040">
        <ele>510.1</ele>
        <time>2017-03-04T11:55:59Z</time>
      </trkpt>
      <trkpt lat="38.201566" lon="-1.853270">
        <ele>510.6</ele>
        <time>2017-03-04T11:56:15Z</time>
      </trkpt>
      <trkpt lat="38.201538" lon="-1.853364">
        <ele>510.1</ele>
        <time>2017-03-04T11:56:28Z</time>
      </trkpt>
      <trkpt lat="38.201539" lon="-1.853376">
        <ele>510.1</ele>
        <time>2017-03-04T11:56:42Z</time>
      </trkpt>
      <trkpt lat="38.201545" lon="-1.853387">
        <ele>509.6</ele>
        <time>2017-03-04T11:57:06Z</time>
      </trkpt>
      <trkpt lat="38.201552" lon="-1.853422">
        <ele>509.6</ele>
        <time>2017-03-04T11:57:29Z</time>
      </trkpt>
      <trkpt lat="38.201601" lon="-1.853642">
        <ele>508.7</ele>
        <time>2017-03-04T11:59:57Z</time>
      </trkpt>
      <trkpt lat="38.201593" lon="-1.853648">
        <ele>509.2</ele>
        <time>2017-03-04T12:00:17Z</time>
      </trkpt>
      <trkpt lat="38.201597" lon="-1.853657">
        <ele>508.7</ele>
        <time>2017-03-04T12:00:29Z</time>
      </trkpt>
      <trkpt lat="38.201625" lon="-1.853924">
        <ele>508.2</ele>
        <time>2017-03-04T12:00:45Z</time>
      </trkpt>
      <trkpt lat="38.201624" lon="-1.854171">
        <ele>507.2</ele>
        <time>2017-03-04T12:01:03Z</time>
      </trkpt>
      <trkpt lat="38.201633" lon="-1.854295">
        <ele>507.2</ele>
        <time>2017-03-04T12:01:17Z</time>
      </trkpt>
      <trkpt lat="38.201617" lon="-1.854509">
        <ele>507.2</ele>
        <time>2017-03-04T12:01:32Z</time>
      </trkpt>
      <trkpt lat="38.201637" lon="-1.854599">
        <ele>506.8</ele>
        <time>2017-03-04T12:01:40Z</time>
      </trkpt>
      <trkpt lat="38.201658" lon="-1.854706">
        <ele>506.8</ele>
        <time>2017-03-04T12:01:46Z</time>
      </trkpt>
      <trkpt lat="38.201651" lon="-1.854733">
        <ele>506.8</ele>
        <time>2017-03-04T12:01:49Z</time>
      </trkpt>
      <trkpt lat="38.201575" lon="-1.855009">
        <ele>507.2</ele>
        <time>2017-03-04T12:02:05Z</time>
      </trkpt>
      <trkpt lat="38.201477" lon="-1.855287">
        <ele>508.2</ele>
        <time>2017-03-04T12:02:22Z</time>
      </trkpt>
      <trkpt lat="38.201425" lon="-1.855539">
        <ele>508.7</ele>
        <time>2017-03-04T12:02:40Z</time>
      </trkpt>
      <trkpt lat="38.201428" lon="-1.855538">
        <ele>508.2</ele>
        <time>2017-03-04T12:02:41Z</time>
      </trkpt>
      <trkpt lat="38.201408" lon="-1.855649">
        <ele>509.2</ele>
        <time>2017-03-04T12:02:51Z</time>
      </trkpt>
      <trkpt lat="38.201367" lon="-1.855767">
        <ele>509.2</ele>
        <time>2017-03-04T12:03:04Z</time>
      </trkpt>
      <trkpt lat="38.201360" lon="-1.855791">
        <ele>509.2</ele>
        <time>2017-03-04T12:03:10Z</time>
      </trkpt>
      <trkpt lat="38.201313" lon="-1.855908">
        <ele>508.7</ele>
        <time>2017-03-04T12:03:17Z</time>
      </trkpt>
      <trkpt lat="38.201271" lon="-1.856020">
        <ele>509.2</ele>
        <time>2017-03-04T12:03:24Z</time>
      </trkpt>
      <trkpt lat="38.201258" lon="-1.856092">
        <ele>509.6</ele>
        <time>2017-03-04T12:03:29Z</time>
      </trkpt>
      <trkpt lat="38.201232" lon="-1.856150">
        <ele>509.6</ele>
        <time>2017-03-04T12:03:34Z</time>
      </trkpt>
      <trkpt lat="38.201223" lon="-1.856191">
        <ele>509.6</ele>
        <time>2017-03-04T12:03:37Z</time>
      </trkpt>
      <trkpt lat="38.201227" lon="-1.856249">
        <ele>510.1</ele>
        <time>2017-03-04T12:03:41Z</time>
      </trkpt>
      <trkpt lat="38.201147" lon="-1.856438">
        <ele>510.6</ele>
        <time>2017-03-04T12:03:55Z</time>
      </trkpt>
      <trkpt lat="38.201104" lon="-1.856512">
        <ele>510.6</ele>
        <time>2017-03-04T12:04:06Z</time>
      </trkpt>
      <trkpt lat="38.201051" lon="-1.856649">
        <ele>510.6</ele>
        <time>2017-03-04T12:04:19Z</time>
      </trkpt>
      <trkpt lat="38.200958" lon="-1.856842">
        <ele>510.1</ele>
        <time>2017-03-04T12:04:33Z</time>
      </trkpt>
      <trkpt lat="38.200861" lon="-1.857060">
        <ele>511.1</ele>
        <time>2017-03-04T12:04:49Z</time>
      </trkpt>
      <trkpt lat="38.200784" lon="-1.857208">
        <ele>511.6</ele>
        <time>2017-03-04T12:05:02Z</time>
      </trkpt>
      <trkpt lat="38.200681" lon="-1.857341">
        <ele>512.0</ele>
        <time>2017-03-04T12:05:18Z</time>
      </trkpt>
      <trkpt lat="38.200677" lon="-1.857346">
        <ele>511.6</ele>
        <time>2017-03-04T12:05:19Z</time>
      </trkpt>
      <trkpt lat="38.200587" lon="-1.857501">
        <ele>512.0</ele>
        <time>2017-03-04T12:05:33Z</time>
      </trkpt>
      <trkpt lat="38.200507" lon="-1.857634">
        <ele>513.5</ele>
        <time>2017-03-04T12:05:45Z</time>
      </trkpt>
      <trkpt lat="38.200392" lon="-1.857883">
        <ele>513.5</ele>
        <time>2017-03-04T12:06:02Z</time>
      </trkpt>
      <trkpt lat="38.200327" lon="-1.858036">
        <ele>514.0</ele>
        <time>2017-03-04T12:06:16Z</time>
      </trkpt>
      <trkpt lat="38.200299" lon="-1.858088">
        <ele>513.5</ele>
        <time>2017-03-04T12:06:21Z</time>
      </trkpt>
      <trkpt lat="38.200207" lon="-1.858351">
        <ele>514.0</ele>
        <time>2017-03-04T12:06:41Z</time>
      </trkpt>
      <trkpt lat="38.200140" lon="-1.858604">
        <ele>514.0</ele>
        <time>2017-03-04T12:06:58Z</time>
      </trkpt>
      <trkpt lat="38.200062" lon="-1.858894">
        <ele>514.0</ele>
        <time>2017-03-04T12:07:16Z</time>
      </trkpt>
      <trkpt lat="38.199963" lon="-1.859182">
        <ele>512.0</ele>
        <time>2017-03-04T12:07:35Z</time>
      </trkpt>
      <trkpt lat="38.199822" lon="-1.859476">
        <ele>511.1</ele>
        <time>2017-03-04T12:07:54Z</time>
      </trkpt>
      <trkpt lat="38.199773" lon="-1.859775">
        <ele>511.1</ele>
        <time>2017-03-04T12:08:12Z</time>
      </trkpt>
      <trkpt lat="38.199800" lon="-1.860048">
        <ele>510.6</ele>
        <time>2017-03-04T12:08:28Z</time>
      </trkpt>
      <trkpt lat="38.199837" lon="-1.860340">
        <ele>511.1</ele>
        <time>2017-03-04T12:08:46Z</time>
      </trkpt>
      <trkpt lat="38.199877" lon="-1.860563">
        <ele>511.6</ele>
        <time>2017-03-04T12:09:01Z</time>
      </trkpt>
      <trkpt lat="38.199902" lon="-1.860742">
        <ele>512.0</ele>
        <time>2017-03-04T12:09:16Z</time>
      </trkpt>
      <trkpt lat="38.199876" lon="-1.860970">
        <ele>513.5</ele>
        <time>2017-03-04T12:09:31Z</time>
      </trkpt>
      <trkpt lat="38.199843" lon="-1.861231">
        <ele>514.0</ele>
        <time>2017-03-04T12:09:48Z</time>
      </trkpt>
      <trkpt lat="38.199824" lon="-1.861510">
        <ele>514.9</ele>
        <time>2017-03-04T12:10:07Z</time>
      </trkpt>
      <trkpt lat="38.199809" lon="-1.861643">
        <ele>514.9</ele>
        <time>2017-03-04T12:10:16Z</time>
      </trkpt>
      <trkpt lat="38.199800" lon="-1.861901">
        <ele>515.4</ele>
        <time>2017-03-04T12:10:33Z</time>
      </trkpt>
      <trkpt lat="38.199766" lon="-1.862205">
        <ele>516.4</ele>
        <time>2017-03-04T12:10:51Z</time>
      </trkpt>
      <trkpt lat="38.199763" lon="-1.862217">
        <ele>516.4</ele>
        <time>2017-03-04T12:10:52Z</time>
      </trkpt>
      <trkpt lat="38.199760" lon="-1.862290">
        <ele>516.4</ele>
        <time>2017-03-04T12:10:57Z</time>
      </trkpt>
      <trkpt lat="38.199730" lon="-1.862579">
        <ele>516.8</ele>
        <time>2017-03-04T12:11:14Z</time>
      </trkpt>
      <trkpt lat="38.199723" lon="-1.862873">
        <ele>516.8</ele>
        <time>2017-03-04T12:11:31Z</time>
      </trkpt>
      <trkpt lat="38.199726" lon="-1.863225">
        <ele>517.8</ele>
        <time>2017-03-04T12:11:52Z</time>
      </trkpt>
      <trkpt lat="38.199709" lon="-1.863546">
        <ele>518.3</ele>
        <time>2017-03-04T12:12:11Z</time>
      </trkpt>
      <trkpt lat="38.199672" lon="-1.863812">
        <ele>518.8</ele>
        <time>2017-03-04T12:12:27Z</time>
      </trkpt>
      <trkpt lat="38.199641" lon="-1.864095">
        <ele>519.2</ele>
        <time>2017-03-04T12:12:44Z</time>
      </trkpt>
      <trkpt lat="38.199638" lon="-1.864108">
        <ele>519.7</ele>
        <time>2017-03-04T12:12:45Z</time>
      </trkpt>
      <trkpt lat="38.199614" lon="-1.864338">
        <ele>520.2</ele>
        <time>2017-03-04T12:13:00Z</time>
      </trkpt>
      <trkpt lat="38.199559" lon="-1.864660">
        <ele>520.7</ele>
        <time>2017-03-04T12:13:19Z</time>
      </trkpt>
      <trkpt lat="38.199546" lon="-1.864812">
        <ele>520.2</ele>
        <time>2017-03-04T12:13:28Z</time>
      </trkpt>
      <trkpt lat="38.199523" lon="-1.865046">
        <ele>520.7</ele>
        <time>2017-03-04T12:13:43Z</time>
      </trkpt>
      <trkpt lat="38.199463" lon="-1.865306">
        <ele>521.2</ele>
        <time>2017-03-04T12:14:00Z</time>
      </trkpt>
      <trkpt lat="38.199377" lon="-1.865557">
        <ele>521.2</ele>
        <time>2017-03-04T12:14:18Z</time>
      </trkpt>
      <trkpt lat="38.199292" lon="-1.865825">
        <ele>521.7</ele>
        <time>2017-03-04T12:14:35Z</time>
      </trkpt>
      <trkpt lat="38.199206" lon="-1.866106">
        <ele>522.1</ele>
        <time>2017-03-04T12:14:54Z</time>
      </trkpt>
      <trkpt lat="38.199110" lon="-1.866327">
        <ele>522.6</ele>
        <time>2017-03-04T12:15:10Z</time>
      </trkpt>
      <trkpt lat="38.199009" lon="-1.866553">
        <ele>522.6</ele>
        <time>2017-03-04T12:15:26Z</time>
      </trkpt>
      <trkpt lat="38.198922" lon="-1.866832">
        <ele>522.1</ele>
        <time>2017-03-04T12:15:43Z</time>
      </trkpt>
      <trkpt lat="38.198919" lon="-1.866848">
        <ele>524.0</ele>
        <time>2017-03-04T12:15:44Z</time>
      </trkpt>
      <trkpt lat="38.198915" lon="-1.866863">
        <ele>525.0</ele>
        <time>2017-03-04T12:15:45Z</time>
      </trkpt>
      <trkpt lat="38.198911" lon="-1.866877">
        <ele>521.2</ele>
        <time>2017-03-04T12:15:46Z</time>
      </trkpt>
      <trkpt lat="38.198895" lon="-1.866950">
        <ele>526.0</ele>
        <time>2017-03-04T12:15:51Z</time>
      </trkpt>
      <trkpt lat="38.198883" lon="-1.866979">
        <ele>522.1</ele>
        <time>2017-03-04T12:15:53Z</time>
      </trkpt>
      <trkpt lat="38.198719" lon="-1.867134">
        <ele>524.1</ele>
        <time>2017-03-04T12:16:09Z</time>
      </trkpt>
      <trkpt lat="38.198624" lon="-1.867195">
        <ele>524.1</ele>
        <time>2017-03-04T12:16:17Z</time>
      </trkpt>
      <trkpt lat="38.198611" lon="-1.867221">
        <ele>524.5</ele>
        <time>2017-03-04T12:16:19Z</time>
      </trkpt>
      <trkpt lat="38.198531" lon="-1.867394">
        <ele>526.0</ele>
        <time>2017-03-04T12:16:30Z</time>
      </trkpt>
      <trkpt lat="38.198486" lon="-1.867486">
        <ele>526.9</ele>
        <time>2017-03-04T12:16:36Z</time>
      </trkpt>
      <trkpt lat="38.198399" lon="-1.867683">
        <ele>528.4</ele>
        <time>2017-03-04T12:16:51Z</time>
      </trkpt>
      <trkpt lat="38.198345" lon="-1.867766">
        <ele>528.9</ele>
        <time>2017-03-04T12:17:04Z</time>
      </trkpt>
      <trkpt lat="38.198286" lon="-1.867918">
        <ele>529.3</ele>
        <time>2017-03-04T12:17:19Z</time>
      </trkpt>
      <trkpt lat="38.198200" lon="-1.868042">
        <ele>529.8</ele>
        <time>2017-03-04T12:17:29Z</time>
      </trkpt>
      <trkpt lat="38.198046" lon="-1.868248">
        <ele>529.3</ele>
        <time>2017-03-04T12:17:46Z</time>
      </trkpt>
      <trkpt lat="38.197912" lon="-1.868384">
        <ele>529.8</ele>
        <time>2017-03-04T12:17:59Z</time>
      </trkpt>
      <trkpt lat="38.197881" lon="-1.868418">
        <ele>529.8</ele>
        <time>2017-03-04T12:18:02Z</time>
      </trkpt>
      <trkpt lat="38.197841" lon="-1.868731">
        <ele>530.3</ele>
        <time>2017-03-04T12:18:19Z</time>
      </trkpt>
      <trkpt lat="38.197826" lon="-1.869034">
        <ele>530.8</ele>
        <time>2017-03-04T12:18:37Z</time>
      </trkpt>
      <trkpt lat="38.197819" lon="-1.869245">
        <ele>531.8</ele>
        <time>2017-03-04T12:18:51Z</time>
      </trkpt>
      <trkpt lat="38.197816" lon="-1.869353">
        <ele>532.2</ele>
        <time>2017-03-04T12:18:59Z</time>
      </trkpt>
      <trkpt lat="38.197816" lon="-1.869423">
        <ele>531.8</ele>
        <time>2017-03-04T12:19:03Z</time>
      </trkpt>
      <trkpt lat="38.197811" lon="-1.869727">
        <ele>532.7</ele>
        <time>2017-03-04T12:19:22Z</time>
      </trkpt>
      <trkpt lat="38.197829" lon="-1.870023">
        <ele>533.7</ele>
        <time>2017-03-04T12:19:40Z</time>
      </trkpt>
      <trkpt lat="38.197885" lon="-1.870286">
        <ele>533.7</ele>
        <time>2017-03-04T12:19:59Z</time>
      </trkpt>
      <trkpt lat="38.197922" lon="-1.870556">
        <ele>534.6</ele>
        <time>2017-03-04T12:20:17Z</time>
      </trkpt>
      <trkpt lat="38.197937" lon="-1.870820">
        <ele>534.2</ele>
        <time>2017-03-04T12:20:34Z</time>
      </trkpt>
      <trkpt lat="38.197940" lon="-1.871156">
        <ele>534.6</ele>
        <time>2017-03-04T12:20:55Z</time>
      </trkpt>
      <trkpt lat="38.197912" lon="-1.871488">
        <ele>535.1</ele>
        <time>2017-03-04T12:21:16Z</time>
      </trkpt>
      <trkpt lat="38.197888" lon="-1.871856">
        <ele>535.6</ele>
        <time>2017-03-04T12:21:39Z</time>
      </trkpt>
      <trkpt lat="38.197895" lon="-1.872185">
        <ele>535.6</ele>
        <time>2017-03-04T12:21:57Z</time>
      </trkpt>
      <trkpt lat="38.197902" lon="-1.872471">
        <ele>536.1</ele>
        <time>2017-03-04T12:22:14Z</time>
      </trkpt>
      <trkpt lat="38.197914" lon="-1.872790">
        <ele>536.5</ele>
        <time>2017-03-04T12:22:33Z</time>
      </trkpt>
      <trkpt lat="38.197926" lon="-1.873089">
        <ele>537.0</ele>
        <time>2017-03-04T12:22:51Z</time>
      </trkpt>
      <trkpt lat="38.197934" lon="-1.873339">
        <ele>538.0</ele>
        <time>2017-03-04T12:23:07Z</time>
      </trkpt>
      <trkpt lat="38.197949" lon="-1.873339">
        <ele>538.0</ele>
        <time>2017-03-04T12:23:21Z</time>
      </trkpt>
      <trkpt lat="38.197942" lon="-1.873547">
        <ele>538.0</ele>
        <time>2017-03-04T12:23:33Z</time>
      </trkpt>
      <trkpt lat="38.197950" lon="-1.873852">
        <ele>539.0</ele>
        <time>2017-03-04T12:23:49Z</time>
      </trkpt>
      <trkpt lat="38.197919" lon="-1.874150">
        <ele>538.5</ele>
        <time>2017-03-04T12:24:06Z</time>
      </trkpt>
      <trkpt lat="38.197892" lon="-1.874475">
        <ele>539.0</ele>
        <time>2017-03-04T12:24:23Z</time>
      </trkpt>
      <trkpt lat="38.197853" lon="-1.874789">
        <ele>539.4</ele>
        <time>2017-03-04T12:24:41Z</time>
      </trkpt>
      <trkpt lat="38.197849" lon="-1.874874">
        <ele>539.9</ele>
        <time>2017-03-04T12:24:46Z</time>
      </trkpt>
      <trkpt lat="38.197810" lon="-1.875089">
        <ele>539.9</ele>
        <time>2017-03-04T12:25:01Z</time>
      </trkpt>
      <trkpt lat="38.197761" lon="-1.875389">
        <ele>540.4</ele>
        <time>2017-03-04T12:25:20Z</time>
      </trkpt>
      <trkpt lat="38.197679" lon="-1.875619">
        <ele>540.4</ele>
        <time>2017-03-04T12:25:36Z</time>
      </trkpt>
      <trkpt lat="38.197653" lon="-1.875689">
        <ele>540.4</ele>
        <time>2017-03-04T12:25:48Z</time>
      </trkpt>
      <trkpt lat="38.197623" lon="-1.875735">
        <ele>540.9</ele>
        <time>2017-03-04T12:25:51Z</time>
      </trkpt>
      <trkpt lat="38.197526" lon="-1.875905">
        <ele>541.4</ele>
        <time>2017-03-04T12:26:03Z</time>
      </trkpt>
      <trkpt lat="38.197497" lon="-1.875935">
        <ele>541.4</ele>
        <time>2017-03-04T12:26:06Z</time>
      </trkpt>
      <trkpt lat="38.197318" lon="-1.876170">
        <ele>542.3</ele>
        <time>2017-03-04T12:26:24Z</time>
      </trkpt>
      <trkpt lat="38.197182" lon="-1.876395">
        <ele>543.8</ele>
        <time>2017-03-04T12:26:40Z</time>
      </trkpt>
      <trkpt lat="38.197079" lon="-1.876612">
        <ele>545.2</ele>
        <time>2017-03-04T12:26:56Z</time>
      </trkpt>
      <trkpt lat="38.197056" lon="-1.876723">
        <ele>545.7</ele>
        <time>2017-03-04T12:27:06Z</time>
      </trkpt>
      <trkpt lat="38.196966" lon="-1.876940">
        <ele>546.7</ele>
        <time>2017-03-04T12:27:19Z</time>
      </trkpt>
      <trkpt lat="38.196875" lon="-1.877137">
        <ele>547.6</ele>
        <time>2017-03-04T12:27:32Z</time>
      </trkpt>
      <trkpt lat="38.196709" lon="-1.877352">
        <ele>549.0</ele>
        <time>2017-03-04T12:27:50Z</time>
      </trkpt>
      <trkpt lat="38.196609" lon="-1.877483">
        <ele>550.5</ele>
        <time>2017-03-04T12:28:01Z</time>
      </trkpt>
      <trkpt lat="38.196545" lon="-1.877574">
        <ele>551.0</ele>
        <time>2017-03-04T12:28:11Z</time>
      </trkpt>
      <trkpt lat="38.196455" lon="-1.877687">
        <ele>551.5</ele>
        <time>2017-03-04T12:28:21Z</time>
      </trkpt>
      <trkpt lat="38.196301" lon="-1.877842">
        <ele>552.9</ele>
        <time>2017-03-04T12:28:37Z</time>
      </trkpt>
      <trkpt lat="38.196291" lon="-1.877849">
        <ele>552.9</ele>
        <time>2017-03-04T12:28:38Z</time>
      </trkpt>
      <trkpt lat="38.196262" lon="-1.877884">
        <ele>553.4</ele>
        <time>2017-03-04T12:28:42Z</time>
      </trkpt>
      <trkpt lat="38.196223" lon="-1.877926">
        <ele>553.4</ele>
        <time>2017-03-04T12:28:46Z</time>
      </trkpt>
      <trkpt lat="38.196089" lon="-1.878035">
        <ele>555.3</ele>
        <time>2017-03-04T12:29:02Z</time>
      </trkpt>
      <trkpt lat="38.196088" lon="-1.878037">
        <ele>554.3</ele>
        <time>2017-03-04T12:29:03Z</time>
      </trkpt>
      <trkpt lat="38.196080" lon="-1.878034">
        <ele>553.4</ele>
        <time>2017-03-04T12:29:05Z</time>
      </trkpt>
      <trkpt lat="38.196008" lon="-1.878100">
        <ele>553.4</ele>
        <time>2017-03-04T12:29:21Z</time>
      </trkpt>
      <trkpt lat="38.195824" lon="-1.878258">
        <ele>553.4</ele>
        <time>2017-03-04T12:29:42Z</time>
      </trkpt>
      <trkpt lat="38.195649" lon="-1.878367">
        <ele>553.9</ele>
        <time>2017-03-04T12:30:00Z</time>
      </trkpt>
      <trkpt lat="38.195647" lon="-1.878371">
        <ele>553.4</ele>
        <time>2017-03-04T12:30:04Z</time>
      </trkpt>
      <trkpt lat="38.195582" lon="-1.878459">
        <ele>552.9</ele>
        <time>2017-03-04T12:30:17Z</time>
      </trkpt>
      <trkpt lat="38.195401" lon="-1.878610">
        <ele>551.9</ele>
        <time>2017-03-04T12:30:35Z</time>
      </trkpt>
      <trkpt lat="38.195230" lon="-1.878743">
        <ele>552.4</ele>
        <time>2017-03-04T12:30:51Z</time>
      </trkpt>
      <trkpt lat="38.195071" lon="-1.878959">
        <ele>552.4</ele>
        <time>2017-03-04T12:31:08Z</time>
      </trkpt>
      <trkpt lat="38.195075" lon="-1.879013">
        <ele>552.4</ele>
        <time>2017-03-04T12:31:16Z</time>
      </trkpt>
      <trkpt lat="38.195036" lon="-1.879288">
        <ele>553.4</ele>
        <time>2017-03-04T12:31:31Z</time>
      </trkpt>
      <trkpt lat="38.195038" lon="-1.879326">
        <ele>552.4</ele>
        <time>2017-03-04T12:31:33Z</time>
      </trkpt>
      <trkpt lat="38.195073" lon="-1.879533">
        <ele>552.4</ele>
        <time>2017-03-04T12:31:47Z</time>
      </trkpt>
      <trkpt lat="38.195103" lon="-1.879790">
        <ele>553.4</ele>
        <time>2017-03-04T12:32:01Z</time>
      </trkpt>
      <trkpt lat="38.195125" lon="-1.879992">
        <ele>552.9</ele>
        <time>2017-03-04T12:32:13Z</time>
      </trkpt>
      <trkpt lat="38.195131" lon="-1.880052">
        <ele>552.9</ele>
        <time>2017-03-04T12:32:17Z</time>
      </trkpt>
      <trkpt lat="38.195238" lon="-1.880286">
        <ele>552.4</ele>
        <time>2017-03-04T12:32:34Z</time>
      </trkpt>
      <trkpt lat="38.195407" lon="-1.880386">
        <ele>551.9</ele>
        <time>2017-03-04T12:32:51Z</time>
      </trkpt>
      <trkpt lat="38.195638" lon="-1.880535">
        <ele>552.4</ele>
        <time>2017-03-04T12:33:08Z</time>
      </trkpt>
      <trkpt lat="38.195804" lon="-1.880775">
        <ele>552.4</ele>
        <time>2017-03-04T12:33:25Z</time>
      </trkpt>
      <trkpt lat="38.195825" lon="-1.880814">
        <ele>552.4</ele>
        <time>2017-03-04T12:33:28Z</time>
      </trkpt>
      <trkpt lat="38.195850" lon="-1.880857">
        <ele>552.4</ele>
        <time>2017-03-04T12:33:32Z</time>
      </trkpt>
      <trkpt lat="38.195894" lon="-1.880965">
        <ele>552.4</ele>
        <time>2017-03-04T12:33:40Z</time>
      </trkpt>
      <trkpt lat="38.195966" lon="-1.881234">
        <ele>552.9</ele>
        <time>2017-03-04T12:33:57Z</time>
      </trkpt>
      <trkpt lat="38.195993" lon="-1.881500">
        <ele>553.4</ele>
        <time>2017-03-04T12:34:13Z</time>
      </trkpt>
      <trkpt lat="38.196010" lon="-1.881777">
        <ele>553.9</ele>
        <time>2017-03-04T12:34:29Z</time>
      </trkpt>
      <trkpt lat="38.196003" lon="-1.882021">
        <ele>554.3</ele>
        <time>2017-03-04T12:34:44Z</time>
      </trkpt>
      <trkpt lat="38.195925" lon="-1.882337">
        <ele>555.3</ele>
        <time>2017-03-04T12:35:02Z</time>
      </trkpt>
      <trkpt lat="38.195915" lon="-1.882550">
        <ele>555.8</ele>
        <time>2017-03-04T12:35:16Z</time>
      </trkpt>
      <trkpt lat="38.195960" lon="-1.882811">
        <ele>556.7</ele>
        <time>2017-03-04T12:35:32Z</time>
      </trkpt>
      <trkpt lat="38.196063" lon="-1.882993">
        <ele>557.2</ele>
        <time>2017-03-04T12:35:45Z</time>
      </trkpt>
      <trkpt lat="38.196137" lon="-1.883068">
        <ele>557.2</ele>
        <time>2017-03-04T12:35:52Z</time>
      </trkpt>
      <trkpt lat="38.196307" lon="-1.883219">
        <ele>558.2</ele>
        <time>2017-03-04T12:36:07Z</time>
      </trkpt>
      <trkpt lat="38.196462" lon="-1.883365">
        <ele>558.7</ele>
        <time>2017-03-04T12:36:22Z</time>
      </trkpt>
      <trkpt lat="38.196516" lon="-1.883644">
        <ele>559.6</ele>
        <time>2017-03-04T12:36:39Z</time>
      </trkpt>
      <trkpt lat="38.196516" lon="-1.883761">
        <ele>559.6</ele>
        <time>2017-03-04T12:36:53Z</time>
      </trkpt>
      <trkpt lat="38.196521" lon="-1.883843">
        <ele>559.6</ele>
        <time>2017-03-04T12:37:08Z</time>
      </trkpt>
      <trkpt lat="38.196526" lon="-1.884046">
        <ele>560.6</ele>
        <time>2017-03-04T12:37:21Z</time>
      </trkpt>
      <trkpt lat="38.196533" lon="-1.884276">
        <ele>561.5</ele>
        <time>2017-03-04T12:37:36Z</time>
      </trkpt>
      <trkpt lat="38.196520" lon="-1.884484">
        <ele>562.5</ele>
        <time>2017-03-04T12:37:50Z</time>
      </trkpt>
      <trkpt lat="38.196576" lon="-1.884726">
        <ele>563.5</ele>
        <time>2017-03-04T12:38:06Z</time>
      </trkpt>
      <trkpt lat="38.196648" lon="-1.884971">
        <ele>563.5</ele>
        <time>2017-03-04T12:38:21Z</time>
      </trkpt>
      <trkpt lat="38.196661" lon="-1.885017">
        <ele>564.0</ele>
        <time>2017-03-04T12:38:28Z</time>
      </trkpt>
      <trkpt lat="38.196673" lon="-1.885241">
        <ele>564.4</ele>
        <time>2017-03-04T12:38:41Z</time>
      </trkpt>
      <trkpt lat="38.196729" lon="-1.885512">
        <ele>564.4</ele>
        <time>2017-03-04T12:38:58Z</time>
      </trkpt>
      <trkpt lat="38.196856" lon="-1.885626">
        <ele>564.0</ele>
        <time>2017-03-04T12:39:09Z</time>
      </trkpt>
      <trkpt lat="38.197044" lon="-1.885861">
        <ele>564.0</ele>
        <time>2017-03-04T12:39:27Z</time>
      </trkpt>
      <trkpt lat="38.197053" lon="-1.885873">
        <ele>563.5</ele>
        <time>2017-03-04T12:39:28Z</time>
      </trkpt>
      <trkpt lat="38.197062" lon="-1.885965">
        <ele>563.5</ele>
        <time>2017-03-04T12:39:33Z</time>
      </trkpt>
      <trkpt lat="38.197078" lon="-1.886189">
        <ele>564.4</ele>
        <time>2017-03-04T12:39:49Z</time>
      </trkpt>
      <trkpt lat="38.197081" lon="-1.886417">
        <ele>565.4</ele>
        <time>2017-03-04T12:40:02Z</time>
      </trkpt>
      <trkpt lat="38.197076" lon="-1.886707">
        <ele>565.9</ele>
        <time>2017-03-04T12:40:19Z</time>
      </trkpt>
      <trkpt lat="38.197075" lon="-1.886720">
        <ele>565.9</ele>
        <time>2017-03-04T12:40:20Z</time>
      </trkpt>
      <trkpt lat="38.197035" lon="-1.886963">
        <ele>566.8</ele>
        <time>2017-03-04T12:40:36Z</time>
      </trkpt>
      <trkpt lat="38.197007" lon="-1.887252">
        <ele>567.8</ele>
        <time>2017-03-04T12:40:53Z</time>
      </trkpt>
      <trkpt lat="38.196956" lon="-1.887524">
        <ele>568.3</ele>
        <time>2017-03-04T12:41:10Z</time>
      </trkpt>
      <trkpt lat="38.196945" lon="-1.887710">
        <ele>569.7</ele>
        <time>2017-03-04T12:41:32Z</time>
      </trkpt>
      <trkpt lat="38.196912" lon="-1.887804">
        <ele>569.7</ele>
        <time>2017-03-04T12:41:38Z</time>
      </trkpt>
      <trkpt lat="38.196888" lon="-1.887851">
        <ele>569.7</ele>
        <time>2017-03-04T12:41:42Z</time>
      </trkpt>
      <trkpt lat="38.196879" lon="-1.887886">
        <ele>570.2</ele>
        <time>2017-03-04T12:41:44Z</time>
      </trkpt>
      <trkpt lat="38.196883" lon="-1.887959">
        <ele>570.2</ele>
        <time>2017-03-04T12:41:48Z</time>
      </trkpt>
      <trkpt lat="38.196885" lon="-1.888086">
        <ele>571.6</ele>
        <time>2017-03-04T12:41:56Z</time>
      </trkpt>
      <trkpt lat="38.196875" lon="-1.888340">
        <ele>571.2</ele>
        <time>2017-03-04T12:42:12Z</time>
      </trkpt>
      <trkpt lat="38.196883" lon="-1.888448">
        <ele>571.6</ele>
        <time>2017-03-04T12:42:28Z</time>
      </trkpt>
      <trkpt lat="38.196862" lon="-1.888565">
        <ele>571.6</ele>
        <time>2017-03-04T12:42:41Z</time>
      </trkpt>
      <trkpt lat="38.196818" lon="-1.888766">
        <ele>571.6</ele>
        <time>2017-03-04T12:42:55Z</time>
      </trkpt>
      <trkpt lat="38.196735" lon="-1.889015">
        <ele>571.6</ele>
        <time>2017-03-04T12:43:10Z</time>
      </trkpt>
      <trkpt lat="38.196614" lon="-1.889279">
        <ele>572.1</ele>
        <time>2017-03-04T12:43:27Z</time>
      </trkpt>
      <trkpt lat="38.196584" lon="-1.889556">
        <ele>573.1</ele>
        <time>2017-03-04T12:43:44Z</time>
      </trkpt>
      <trkpt lat="38.196602" lon="-1.889693">
        <ele>573.1</ele>
        <time>2017-03-04T12:43:54Z</time>
      </trkpt>
      <trkpt lat="38.196534" lon="-1.889883">
        <ele>575.5</ele>
        <time>2017-03-04T12:44:11Z</time>
      </trkpt>
      <trkpt lat="38.196498" lon="-1.889892">
        <ele>576.0</ele>
        <time>2017-03-04T12:44:18Z</time>
      </trkpt>
      <trkpt lat="38.196324" lon="-1.889924">
        <ele>576.9</ele>
        <time>2017-03-04T12:44:34Z</time>
      </trkpt>
      <trkpt lat="38.196317" lon="-1.889925">
        <ele>576.9</ele>
        <time>2017-03-04T12:44:35Z</time>
      </trkpt>
      <trkpt lat="38.196195" lon="-1.889942">
        <ele>577.9</ele>
        <time>2017-03-04T12:44:46Z</time>
      </trkpt>
      <trkpt lat="38.196127" lon="-1.890030">
        <ele>578.8</ele>
        <time>2017-03-04T12:44:56Z</time>
      </trkpt>
      <trkpt lat="38.196115" lon="-1.890048">
        <ele>578.4</ele>
        <time>2017-03-04T12:44:58Z</time>
      </trkpt>
      <trkpt lat="38.196098" lon="-1.890086">
        <ele>578.8</ele>
        <time>2017-03-04T12:45:01Z</time>
      </trkpt>
      <trkpt lat="38.196094" lon="-1.890357">
        <ele>582.2</ele>
        <time>2017-03-04T12:45:17Z</time>
      </trkpt>
      <trkpt lat="38.196071" lon="-1.890581">
        <ele>584.1</ele>
        <time>2017-03-04T12:45:30Z</time>
      </trkpt>
      <trkpt lat="38.196025" lon="-1.890715">
        <ele>585.1</ele>
        <time>2017-03-04T12:45:38Z</time>
      </trkpt>
      <trkpt lat="38.196024" lon="-1.890764">
        <ele>585.6</ele>
        <time>2017-03-04T12:45:43Z</time>
      </trkpt>
      <trkpt lat="38.195966" lon="-1.891051">
        <ele>588.5</ele>
        <time>2017-03-04T12:46:00Z</time>
      </trkpt>
      <trkpt lat="38.195900" lon="-1.891343">
        <ele>590.4</ele>
        <time>2017-03-04T12:46:17Z</time>
      </trkpt>
      <trkpt lat="38.195904" lon="-1.891397">
        <ele>591.3</ele>
        <time>2017-03-04T12:46:29Z</time>
      </trkpt>
      <trkpt lat="38.195858" lon="-1.891529">
        <ele>592.3</ele>
        <time>2017-03-04T12:46:58Z</time>
      </trkpt>
      <trkpt lat="38.195851" lon="-1.891559">
        <ele>592.8</ele>
        <time>2017-03-04T12:47:00Z</time>
      </trkpt>
      <trkpt lat="38.195806" lon="-1.891676">
        <ele>593.8</ele>
        <time>2017-03-04T12:47:13Z</time>
      </trkpt>
      <trkpt lat="38.195794" lon="-1.891765">
        <ele>594.7</ele>
        <time>2017-03-04T12:47:24Z</time>
      </trkpt>
      <trkpt lat="38.195768" lon="-1.891868">
        <ele>595.2</ele>
        <time>2017-03-04T12:47:37Z</time>
      </trkpt>
      <trkpt lat="38.195733" lon="-1.891942">
        <ele>596.2</ele>
        <time>2017-03-04T12:47:49Z</time>
      </trkpt>
      <trkpt lat="38.195692" lon="-1.892022">
        <ele>597.1</ele>
        <time>2017-03-04T12:48:03Z</time>
      </trkpt>
      <trkpt lat="38.195654" lon="-1.892111">
        <ele>598.1</ele>
        <time>2017-03-04T12:48:15Z</time>
      </trkpt>
      <trkpt lat="38.195620" lon="-1.892212">
        <ele>598.1</ele>
        <time>2017-03-04T12:48:27Z</time>
      </trkpt>
      <trkpt lat="38.195611" lon="-1.892244">
        <ele>601.9</ele>
        <time>2017-03-04T12:48:29Z</time>
      </trkpt>
      <trkpt lat="38.195613" lon="-1.892280">
        <ele>600.0</ele>
        <time>2017-03-04T12:49:35Z</time>
      </trkpt>
      <trkpt lat="38.195622" lon="-1.892314">
        <ele>600.5</ele>
        <time>2017-03-04T12:50:13Z</time>
      </trkpt>
      <trkpt lat="38.195631" lon="-1.892330">
        <ele>600.5</ele>
        <time>2017-03-04T12:50:15Z</time>
      </trkpt>
      <trkpt lat="38.195651" lon="-1.892490">
        <ele>601.0</ele>
        <time>2017-03-04T12:50:28Z</time>
      </trkpt>
      <trkpt lat="38.195659" lon="-1.892603">
        <ele>601.0</ele>
        <time>2017-03-04T12:50:34Z</time>
      </trkpt>
      <trkpt lat="38.195726" lon="-1.892676">
        <ele>600.5</ele>
        <time>2017-03-04T12:50:41Z</time>
      </trkpt>
      <trkpt lat="38.195778" lon="-1.892797">
        <ele>601.4</ele>
        <time>2017-03-04T12:50:50Z</time>
      </trkpt>
      <trkpt lat="38.195780" lon="-1.892829">
        <ele>600.5</ele>
        <time>2017-03-04T12:50:52Z</time>
      </trkpt>
      <trkpt lat="38.195810" lon="-1.893106">
        <ele>601.4</ele>
        <time>2017-03-04T12:51:09Z</time>
      </trkpt>
      <trkpt lat="38.195828" lon="-1.893319">
        <ele>601.4</ele>
        <time>2017-03-04T12:51:23Z</time>
      </trkpt>
      <trkpt lat="38.195843" lon="-1.893415">
        <ele>601.4</ele>
        <time>2017-03-04T12:51:29Z</time>
      </trkpt>
      <trkpt lat="38.195859" lon="-1.893603">
        <ele>602.4</ele>
        <time>2017-03-04T12:51:37Z</time>
      </trkpt>
      <trkpt lat="38.195888" lon="-1.893782">
        <ele>602.9</ele>
        <time>2017-03-04T12:51:52Z</time>
      </trkpt>
      <trkpt lat="38.195894" lon="-1.893996">
        <ele>602.9</ele>
        <time>2017-03-04T12:52:07Z</time>
      </trkpt>
      <trkpt lat="38.195893" lon="-1.894023">
        <ele>603.4</ele>
        <time>2017-03-04T12:52:09Z</time>
      </trkpt>
      <trkpt lat="38.195890" lon="-1.894037">
        <ele>603.4</ele>
        <time>2017-03-04T12:52:10Z</time>
      </trkpt>
      <trkpt lat="38.195893" lon="-1.894140">
        <ele>603.4</ele>
        <time>2017-03-04T12:52:17Z</time>
      </trkpt>
      <trkpt lat="38.195898" lon="-1.894155">
        <ele>603.4</ele>
        <time>2017-03-04T12:52:18Z</time>
      </trkpt>
      <trkpt lat="38.195902" lon="-1.894171">
        <ele>603.8</ele>
        <time>2017-03-04T12:52:19Z</time>
      </trkpt>
      <trkpt lat="38.195905" lon="-1.894190">
        <ele>603.8</ele>
        <time>2017-03-04T12:52:20Z</time>
      </trkpt>
      <trkpt lat="38.195907" lon="-1.894206">
        <ele>603.8</ele>
        <time>2017-03-04T12:52:21Z</time>
      </trkpt>
      <trkpt lat="38.195908" lon="-1.894221">
        <ele>603.8</ele>
        <time>2017-03-04T12:52:22Z</time>
      </trkpt>
      <trkpt lat="38.195906" lon="-1.894236">
        <ele>603.8</ele>
        <time>2017-03-04T12:52:23Z</time>
      </trkpt>
      <trkpt lat="38.195902" lon="-1.894251">
        <ele>603.8</ele>
        <time>2017-03-04T12:52:24Z</time>
      </trkpt>
      <trkpt lat="38.195901" lon="-1.894266">
        <ele>603.8</ele>
        <time>2017-03-04T12:52:25Z</time>
      </trkpt>
      <trkpt lat="38.195902" lon="-1.894280">
        <ele>604.3</ele>
        <time>2017-03-04T12:52:26Z</time>
      </trkpt>
      <trkpt lat="38.195905" lon="-1.894294">
        <ele>604.3</ele>
        <time>2017-03-04T12:52:27Z</time>
      </trkpt>
      <trkpt lat="38.195919" lon="-1.894354">
        <ele>604.3</ele>
        <time>2017-03-04T12:52:31Z</time>
      </trkpt>
      <trkpt lat="38.195926" lon="-1.894399">
        <ele>604.8</ele>
        <time>2017-03-04T12:52:34Z</time>
      </trkpt>
      <trkpt lat="38.195941" lon="-1.894494">
        <ele>604.8</ele>
        <time>2017-03-04T12:52:40Z</time>
      </trkpt>
      <trkpt lat="38.195942" lon="-1.894544">
        <ele>604.8</ele>
        <time>2017-03-04T12:52:44Z</time>
      </trkpt>
      <trkpt lat="38.195943" lon="-1.894561">
        <ele>605.3</ele>
        <time>2017-03-04T12:52:45Z</time>
      </trkpt>
      <trkpt lat="38.195946" lon="-1.894639">
        <ele>604.8</ele>
        <time>2017-03-04T12:52:50Z</time>
      </trkpt>
      <trkpt lat="38.195943" lon="-1.894653">
        <ele>605.3</ele>
        <time>2017-03-04T12:52:51Z</time>
      </trkpt>
      <trkpt lat="38.195943" lon="-1.894667">
        <ele>605.3</ele>
        <time>2017-03-04T12:52:52Z</time>
      </trkpt>
      <trkpt lat="38.195946" lon="-1.894682">
        <ele>605.3</ele>
        <time>2017-03-04T12:52:53Z</time>
      </trkpt>
      <trkpt lat="38.195947" lon="-1.894698">
        <ele>605.3</ele>
        <time>2017-03-04T12:52:54Z</time>
      </trkpt>
      <trkpt lat="38.195949" lon="-1.894715">
        <ele>605.3</ele>
        <time>2017-03-04T12:52:55Z</time>
      </trkpt>
      <trkpt lat="38.195951" lon="-1.894732">
        <ele>605.3</ele>
        <time>2017-03-04T12:52:56Z</time>
      </trkpt>
      <trkpt lat="38.195952" lon="-1.894751">
        <ele>605.3</ele>
        <time>2017-03-04T12:52:57Z</time>
      </trkpt>
      <trkpt lat="38.195953" lon="-1.894769">
        <ele>605.3</ele>
        <time>2017-03-04T12:52:58Z</time>
      </trkpt>
      <trkpt lat="38.195962" lon="-1.894971">
        <ele>605.3</ele>
        <time>2017-03-04T12:53:11Z</time>
      </trkpt>
      <trkpt lat="38.195947" lon="-1.895168">
        <ele>604.3</ele>
        <time>2017-03-04T12:53:25Z</time>
      </trkpt>
      <trkpt lat="38.195943" lon="-1.895181">
        <ele>604.3</ele>
        <time>2017-03-04T12:53:26Z</time>
      </trkpt>
      <trkpt lat="38.195948" lon="-1.895392">
        <ele>603.8</ele>
        <time>2017-03-04T12:53:40Z</time>
      </trkpt>
      <trkpt lat="38.196051" lon="-1.895615">
        <ele>602.4</ele>
        <time>2017-03-04T12:53:55Z</time>
      </trkpt>
      <trkpt lat="38.196147" lon="-1.895746">
        <ele>601.9</ele>
        <time>2017-03-04T12:54:07Z</time>
      </trkpt>
      <trkpt lat="38.196304" lon="-1.895895">
        <ele>602.9</ele>
        <time>2017-03-04T12:54:21Z</time>
      </trkpt>
      <trkpt lat="38.196393" lon="-1.895972">
        <ele>603.8</ele>
        <time>2017-03-04T12:54:30Z</time>
      </trkpt>
      <trkpt lat="38.196404" lon="-1.895982">
        <ele>603.8</ele>
        <time>2017-03-04T12:54:31Z</time>
      </trkpt>
      <trkpt lat="38.196588" lon="-1.896066">
        <ele>605.3</ele>
        <time>2017-03-04T12:54:46Z</time>
      </trkpt>
      <trkpt lat="38.196777" lon="-1.896110">
        <ele>605.8</ele>
        <time>2017-03-04T12:54:59Z</time>
      </trkpt>
      <trkpt lat="38.197056" lon="-1.896229">
        <ele>606.2</ele>
        <time>2017-03-04T12:55:18Z</time>
      </trkpt>
      <trkpt lat="38.197117" lon="-1.896263">
        <ele>606.2</ele>
        <time>2017-03-04T12:55:30Z</time>
      </trkpt>
      <trkpt lat="38.197129" lon="-1.896272">
        <ele>605.8</ele>
        <time>2017-03-04T12:55:31Z</time>
      </trkpt>
      <trkpt lat="38.197362" lon="-1.896406">
        <ele>604.8</ele>
        <time>2017-03-04T12:55:47Z</time>
      </trkpt>
      <trkpt lat="38.197635" lon="-1.896493">
        <ele>604.3</ele>
        <time>2017-03-04T12:56:07Z</time>
      </trkpt>
      <trkpt lat="38.197856" lon="-1.896596">
        <ele>603.4</ele>
        <time>2017-03-04T12:56:24Z</time>
      </trkpt>
      <trkpt lat="38.198115" lon="-1.896784">
        <ele>601.9</ele>
        <time>2017-03-04T12:56:45Z</time>
      </trkpt>
      <trkpt lat="38.198356" lon="-1.896972">
        <ele>601.4</ele>
        <time>2017-03-04T12:57:06Z</time>
      </trkpt>
      <trkpt lat="38.198573" lon="-1.897129">
        <ele>600.5</ele>
        <time>2017-03-04T12:57:24Z</time>
      </trkpt>
      <trkpt lat="38.198726" lon="-1.897246">
        <ele>600.0</ele>
        <time>2017-03-04T12:57:39Z</time>
      </trkpt>
      <trkpt lat="38.198735" lon="-1.897254">
        <ele>600.0</ele>
        <time>2017-03-04T12:57:40Z</time>
      </trkpt>
      <trkpt lat="38.198746" lon="-1.897262">
        <ele>599.5</ele>
        <time>2017-03-04T12:57:41Z</time>
      </trkpt>
      <trkpt lat="38.198781" lon="-1.897270">
        <ele>599.5</ele>
        <time>2017-03-04T12:57:45Z</time>
      </trkpt>
      <trkpt lat="38.198987" lon="-1.897398">
        <ele>599.0</ele>
        <time>2017-03-04T12:58:22Z</time>
      </trkpt>
      <trkpt lat="38.198996" lon="-1.897416">
        <ele>598.6</ele>
        <time>2017-03-04T12:58:23Z</time>
      </trkpt>
      <trkpt lat="38.199008" lon="-1.897431">
        <ele>598.6</ele>
        <time>2017-03-04T12:58:24Z</time>
      </trkpt>
      <trkpt lat="38.199021" lon="-1.897444">
        <ele>598.1</ele>
        <time>2017-03-04T12:58:25Z</time>
      </trkpt>
      <trkpt lat="38.199034" lon="-1.897457">
        <ele>598.6</ele>
        <time>2017-03-04T12:58:26Z</time>
      </trkpt>
      <trkpt lat="38.199047" lon="-1.897469">
        <ele>598.6</ele>
        <time>2017-03-04T12:58:27Z</time>
      </trkpt>
      <trkpt lat="38.199273" lon="-1.897651">
        <ele>596.6</ele>
        <time>2017-03-04T12:58:47Z</time>
      </trkpt>
      <trkpt lat="38.199541" lon="-1.897872">
        <ele>595.2</ele>
        <time>2017-03-04T12:59:09Z</time>
      </trkpt>
      <trkpt lat="38.199726" lon="-1.898006">
        <ele>594.2</ele>
        <time>2017-03-04T12:59:25Z</time>
      </trkpt>
      <trkpt lat="38.199934" lon="-1.898206">
        <ele>594.2</ele>
        <time>2017-03-04T12:59:44Z</time>
      </trkpt>
      <trkpt lat="38.200166" lon="-1.898429">
        <ele>594.7</ele>
        <time>2017-03-04T13:00:06Z</time>
      </trkpt>
      <trkpt lat="38.200350" lon="-1.898675">
        <ele>595.2</ele>
        <time>2017-03-04T13:00:26Z</time>
      </trkpt>
      <trkpt lat="38.200473" lon="-1.898872">
        <ele>596.2</ele>
        <time>2017-03-04T13:00:41Z</time>
      </trkpt>
      <trkpt lat="38.200502" lon="-1.898898">
        <ele>596.6</ele>
        <time>2017-03-04T13:00:44Z</time>
      </trkpt>
      <trkpt lat="38.200673" lon="-1.899038">
        <ele>596.6</ele>
        <time>2017-03-04T13:01:01Z</time>
      </trkpt>
      <trkpt lat="38.200678" lon="-1.899064">
        <ele>596.6</ele>
        <time>2017-03-04T13:01:04Z</time>
      </trkpt>
      <trkpt lat="38.200795" lon="-1.899210">
        <ele>596.6</ele>
        <time>2017-03-04T13:01:18Z</time>
      </trkpt>
      <trkpt lat="38.200931" lon="-1.899463">
        <ele>598.6</ele>
        <time>2017-03-04T13:01:36Z</time>
      </trkpt>
      <trkpt lat="38.201040" lon="-1.899640">
        <ele>599.0</ele>
        <time>2017-03-04T13:01:51Z</time>
      </trkpt>
      <trkpt lat="38.201061" lon="-1.899696">
        <ele>599.0</ele>
        <time>2017-03-04T13:02:23Z</time>
      </trkpt>
      <trkpt lat="38.201161" lon="-1.899966">
        <ele>599.5</ele>
        <time>2017-03-04T13:02:42Z</time>
      </trkpt>
      <trkpt lat="38.201296" lon="-1.900276">
        <ele>599.5</ele>
        <time>2017-03-04T13:03:01Z</time>
      </trkpt>
      <trkpt lat="38.201394" lon="-1.900428">
        <ele>600.5</ele>
        <time>2017-03-04T13:03:13Z</time>
      </trkpt>
      <trkpt lat="38.201496" lon="-1.900642">
        <ele>601.0</ele>
        <time>2017-03-04T13:03:28Z</time>
      </trkpt>
      <trkpt lat="38.201498" lon="-1.900635">
        <ele>601.0</ele>
        <time>2017-03-04T13:03:31Z</time>
      </trkpt>
      <trkpt lat="38.201617" lon="-1.900910">
        <ele>602.4</ele>
        <time>2017-03-04T13:03:48Z</time>
      </trkpt>
      <trkpt lat="38.201698" lon="-1.901174">
        <ele>602.9</ele>
        <time>2017-03-04T13:04:03Z</time>
      </trkpt>
      <trkpt lat="38.201823" lon="-1.901443">
        <ele>604.3</ele>
        <time>2017-03-04T13:04:23Z</time>
      </trkpt>
      <trkpt lat="38.201830" lon="-1.901457">
        <ele>604.3</ele>
        <time>2017-03-04T13:04:24Z</time>
      </trkpt>
      <trkpt lat="38.201895" lon="-1.901682">
        <ele>603.8</ele>
        <time>2017-03-04T13:04:39Z</time>
      </trkpt>
      <trkpt lat="38.201964" lon="-1.901926">
        <ele>604.8</ele>
        <time>2017-03-04T13:04:54Z</time>
      </trkpt>
      <trkpt lat="38.202018" lon="-1.902165">
        <ele>605.8</ele>
        <time>2017-03-04T13:05:09Z</time>
      </trkpt>
      <trkpt lat="38.202013" lon="-1.902394">
        <ele>601.9</ele>
        <time>2017-03-04T13:05:23Z</time>
      </trkpt>
      <trkpt lat="38.202011" lon="-1.902408">
        <ele>601.9</ele>
        <time>2017-03-04T13:05:24Z</time>
      </trkpt>
      <trkpt lat="38.202008" lon="-1.902422">
        <ele>605.3</ele>
        <time>2017-03-04T13:05:25Z</time>
      </trkpt>
      <trkpt lat="38.201998" lon="-1.902479">
        <ele>604.3</ele>
        <time>2017-03-04T13:05:29Z</time>
      </trkpt>
      <trkpt lat="38.201921" lon="-1.902721">
        <ele>603.4</ele>
        <time>2017-03-04T13:05:45Z</time>
      </trkpt>
      <trkpt lat="38.201875" lon="-1.902834">
        <ele>602.4</ele>
        <time>2017-03-04T13:05:53Z</time>
      </trkpt>
      <trkpt lat="38.201819" lon="-1.902992">
        <ele>601.9</ele>
        <time>2017-03-04T13:06:07Z</time>
      </trkpt>
      <trkpt lat="38.201777" lon="-1.903115">
        <ele>601.9</ele>
        <time>2017-03-04T13:06:19Z</time>
      </trkpt>
      <trkpt lat="38.201732" lon="-1.903273">
        <ele>601.9</ele>
        <time>2017-03-04T13:06:32Z</time>
      </trkpt>
      <trkpt lat="38.201731" lon="-1.903275">
        <ele>601.4</ele>
        <time>2017-03-04T13:06:36Z</time>
      </trkpt>
      <trkpt lat="38.201714" lon="-1.903341">
        <ele>601.9</ele>
        <time>2017-03-04T13:06:40Z</time>
      </trkpt>
      <trkpt lat="38.201719" lon="-1.903396">
        <ele>601.0</ele>
        <time>2017-03-04T13:06:47Z</time>
      </trkpt>
      <trkpt lat="38.201718" lon="-1.903437">
        <ele>601.4</ele>
        <time>2017-03-04T13:06:53Z</time>
      </trkpt>
      <trkpt lat="38.201688" lon="-1.903761">
        <ele>601.4</ele>
        <time>2017-03-04T13:07:10Z</time>
      </trkpt>
      <trkpt lat="38.201718" lon="-1.904137">
        <ele>601.4</ele>
        <time>2017-03-04T13:07:30Z</time>
      </trkpt>
      <trkpt lat="38.201773" lon="-1.904452">
        <ele>602.4</ele>
        <time>2017-03-04T13:07:47Z</time>
      </trkpt>
      <trkpt lat="38.201773" lon="-1.904685">
        <ele>602.9</ele>
        <time>2017-03-04T13:08:04Z</time>
      </trkpt>
      <trkpt lat="38.201771" lon="-1.904676">
        <ele>602.9</ele>
        <time>2017-03-04T13:08:20Z</time>
      </trkpt>
      <trkpt lat="38.201811" lon="-1.904780">
        <ele>602.9</ele>
        <time>2017-03-04T13:08:39Z</time>
      </trkpt>
      <trkpt lat="38.201817" lon="-1.904971">
        <ele>603.4</ele>
        <time>2017-03-04T13:09:07Z</time>
      </trkpt>
      <trkpt lat="38.201829" lon="-1.905228">
        <ele>603.4</ele>
        <time>2017-03-04T13:09:24Z</time>
      </trkpt>
      <trkpt lat="38.201845" lon="-1.905526">
        <ele>603.8</ele>
        <time>2017-03-04T13:09:43Z</time>
      </trkpt>
      <trkpt lat="38.201873" lon="-1.905794">
        <ele>603.8</ele>
        <time>2017-03-04T13:10:00Z</time>
      </trkpt>
      <trkpt lat="38.201916" lon="-1.905998">
        <ele>603.8</ele>
        <time>2017-03-04T13:10:14Z</time>
      </trkpt>
      <trkpt lat="38.202013" lon="-1.906265">
        <ele>603.8</ele>
        <time>2017-03-04T13:10:31Z</time>
      </trkpt>
      <trkpt lat="38.202153" lon="-1.906555">
        <ele>603.8</ele>
        <time>2017-03-04T13:10:50Z</time>
      </trkpt>
      <trkpt lat="38.202307" lon="-1.906781">
        <ele>603.4</ele>
        <time>2017-03-04T13:11:07Z</time>
      </trkpt>
      <trkpt lat="38.202470" lon="-1.906970">
        <ele>603.4</ele>
        <time>2017-03-04T13:11:25Z</time>
      </trkpt>
      <trkpt lat="38.202605" lon="-1.907112">
        <ele>602.4</ele>
        <time>2017-03-04T13:11:43Z</time>
      </trkpt>
      <trkpt lat="38.202742" lon="-1.907304">
        <ele>602.9</ele>
        <time>2017-03-04T13:11:57Z</time>
      </trkpt>
      <trkpt lat="38.202941" lon="-1.907523">
        <ele>603.4</ele>
        <time>2017-03-04T13:12:16Z</time>
      </trkpt>
      <trkpt lat="38.203083" lon="-1.907661">
        <ele>603.8</ele>
        <time>2017-03-04T13:12:31Z</time>
      </trkpt>
      <trkpt lat="38.203228" lon="-1.907844">
        <ele>604.3</ele>
        <time>2017-03-04T13:12:47Z</time>
      </trkpt>
      <trkpt lat="38.203261" lon="-1.907867">
        <ele>604.8</ele>
        <time>2017-03-04T13:12:52Z</time>
      </trkpt>
      <trkpt lat="38.203429" lon="-1.908115">
        <ele>605.3</ele>
        <time>2017-03-04T13:13:21Z</time>
      </trkpt>
      <trkpt lat="38.203529" lon="-1.908352">
        <ele>606.7</ele>
        <time>2017-03-04T13:13:37Z</time>
      </trkpt>
      <trkpt lat="38.203551" lon="-1.908397">
        <ele>605.3</ele>
        <time>2017-03-04T13:13:40Z</time>
      </trkpt>
      <trkpt lat="38.203684" lon="-1.908707">
        <ele>604.3</ele>
        <time>2017-03-04T13:14:00Z</time>
      </trkpt>
      <trkpt lat="38.203787" lon="-1.908965">
        <ele>604.3</ele>
        <time>2017-03-04T13:14:16Z</time>
      </trkpt>
      <trkpt lat="38.203956" lon="-1.909289">
        <ele>602.9</ele>
        <time>2017-03-04T13:14:40Z</time>
      </trkpt>
      <trkpt lat="38.204126" lon="-1.909627">
        <ele>601.9</ele>
        <time>2017-03-04T13:15:04Z</time>
      </trkpt>
      <trkpt lat="38.204196" lon="-1.909775">
        <ele>603.4</ele>
        <time>2017-03-04T13:15:14Z</time>
      </trkpt>
      <trkpt lat="38.204359" lon="-1.910036">
        <ele>602.9</ele>
        <time>2017-03-04T13:15:35Z</time>
      </trkpt>
      <trkpt lat="38.204494" lon="-1.910205">
        <ele>603.4</ele>
        <time>2017-03-04T13:15:51Z</time>
      </trkpt>
      <trkpt lat="38.204655" lon="-1.910384">
        <ele>603.4</ele>
        <time>2017-03-04T13:16:09Z</time>
      </trkpt>
      <trkpt lat="38.204709" lon="-1.910430">
        <ele>599.5</ele>
        <time>2017-03-04T13:16:15Z</time>
      </trkpt>
      <trkpt lat="38.204719" lon="-1.910437">
        <ele>603.8</ele>
        <time>2017-03-04T13:16:16Z</time>
      </trkpt>
      <trkpt lat="38.204891" lon="-1.910615">
        <ele>603.4</ele>
        <time>2017-03-04T13:16:34Z</time>
      </trkpt>
      <trkpt lat="38.205046" lon="-1.910778">
        <ele>604.3</ele>
        <time>2017-03-04T13:16:50Z</time>
      </trkpt>
      <trkpt lat="38.205192" lon="-1.910947">
        <ele>604.3</ele>
        <time>2017-03-04T13:17:06Z</time>
      </trkpt>
      <trkpt lat="38.205351" lon="-1.911098">
        <ele>604.8</ele>
        <time>2017-03-04T13:17:22Z</time>
      </trkpt>
      <trkpt lat="38.205514" lon="-1.911364">
        <ele>604.8</ele>
        <time>2017-03-04T13:17:43Z</time>
      </trkpt>
      <trkpt lat="38.205524" lon="-1.911391">
        <ele>601.0</ele>
        <time>2017-03-04T13:17:45Z</time>
      </trkpt>
      <trkpt lat="38.205528" lon="-1.911408">
        <ele>608.2</ele>
        <time>2017-03-04T13:17:46Z</time>
      </trkpt>
      <trkpt lat="38.205536" lon="-1.911438">
        <ele>604.8</ele>
        <time>2017-03-04T13:17:48Z</time>
      </trkpt>
      <trkpt lat="38.205541" lon="-1.911453">
        <ele>604.8</ele>
        <time>2017-03-04T13:17:49Z</time>
      </trkpt>
      <trkpt lat="38.205602" lon="-1.911704">
        <ele>604.8</ele>
        <time>2017-03-04T13:18:05Z</time>
      </trkpt>
      <trkpt lat="38.205655" lon="-1.911936">
        <ele>604.3</ele>
        <time>2017-03-04T13:18:21Z</time>
      </trkpt>
      <trkpt lat="38.205718" lon="-1.912165">
        <ele>604.3</ele>
        <time>2017-03-04T13:18:35Z</time>
      </trkpt>
      <trkpt lat="38.205826" lon="-1.912390">
        <ele>604.8</ele>
        <time>2017-03-04T13:18:51Z</time>
      </trkpt>
      <trkpt lat="38.205923" lon="-1.912588">
        <ele>604.3</ele>
        <time>2017-03-04T13:19:07Z</time>
      </trkpt>
      <trkpt lat="38.205932" lon="-1.912605">
        <ele>604.3</ele>
        <time>2017-03-04T13:19:11Z</time>
      </trkpt>
      <trkpt lat="38.205935" lon="-1.912663">
        <ele>604.3</ele>
        <time>2017-03-04T13:19:15Z</time>
      </trkpt>
      <trkpt lat="38.206003" lon="-1.912908">
        <ele>604.3</ele>
        <time>2017-03-04T13:19:28Z</time>
      </trkpt>
      <trkpt lat="38.205998" lon="-1.912977">
        <ele>603.8</ele>
        <time>2017-03-04T13:19:32Z</time>
      </trkpt>
      <trkpt lat="38.206023" lon="-1.913114">
        <ele>604.3</ele>
        <time>2017-03-04T13:19:41Z</time>
      </trkpt>
      <trkpt lat="38.206044" lon="-1.913199">
        <ele>604.8</ele>
        <time>2017-03-04T13:19:47Z</time>
      </trkpt>
      <trkpt lat="38.206057" lon="-1.913299">
        <ele>603.8</ele>
        <time>2017-03-04T13:19:53Z</time>
      </trkpt>
      <trkpt lat="38.206082" lon="-1.913344">
        <ele>604.3</ele>
        <time>2017-03-04T13:19:56Z</time>
      </trkpt>
      <trkpt lat="38.206118" lon="-1.913588">
        <ele>604.8</ele>
        <time>2017-03-04T13:20:12Z</time>
      </trkpt>
      <trkpt lat="38.206133" lon="-1.913776">
        <ele>604.3</ele>
        <time>2017-03-04T13:20:22Z</time>
      </trkpt>
      <trkpt lat="38.206165" lon="-1.914080">
        <ele>603.8</ele>
        <time>2017-03-04T13:20:41Z</time>
      </trkpt>
      <trkpt lat="38.206176" lon="-1.914262">
        <ele>604.3</ele>
        <time>2017-03-04T13:20:53Z</time>
      </trkpt>
      <trkpt lat="38.206206" lon="-1.914536">
        <ele>603.4</ele>
        <time>2017-03-04T13:21:11Z</time>
      </trkpt>
      <trkpt lat="38.206225" lon="-1.914749">
        <ele>608.2</ele>
        <time>2017-03-04T13:21:25Z</time>
      </trkpt>
      <trkpt lat="38.206224" lon="-1.914763">
        <ele>604.3</ele>
        <time>2017-03-04T13:21:26Z</time>
      </trkpt>
      <trkpt lat="38.206257" lon="-1.915038">
        <ele>604.8</ele>
        <time>2017-03-04T13:21:42Z</time>
      </trkpt>
      <trkpt lat="38.206210" lon="-1.915319">
        <ele>603.8</ele>
        <time>2017-03-04T13:22:00Z</time>
      </trkpt>
      <trkpt lat="38.206167" lon="-1.915613">
        <ele>604.8</ele>
        <time>2017-03-04T13:22:18Z</time>
      </trkpt>
      <trkpt lat="38.206115" lon="-1.915881">
        <ele>604.3</ele>
        <time>2017-03-04T13:22:35Z</time>
      </trkpt>
      <trkpt lat="38.206081" lon="-1.916134">
        <ele>604.8</ele>
        <time>2017-03-04T13:22:51Z</time>
      </trkpt>
      <trkpt lat="38.206088" lon="-1.916246">
        <ele>604.3</ele>
        <time>2017-03-04T13:22:58Z</time>
      </trkpt>
      <trkpt lat="38.206096" lon="-1.916528">
        <ele>604.8</ele>
        <time>2017-03-04T13:23:15Z</time>
      </trkpt>
      <trkpt lat="38.206109" lon="-1.916848">
        <ele>604.3</ele>
        <time>2017-03-04T13:23:33Z</time>
      </trkpt>
      <trkpt lat="38.206116" lon="-1.917182">
        <ele>604.8</ele>
        <time>2017-03-04T13:23:53Z</time>
      </trkpt>
      <trkpt lat="38.206149" lon="-1.917530">
        <ele>604.8</ele>
        <time>2017-03-04T13:24:13Z</time>
      </trkpt>
      <trkpt lat="38.206200" lon="-1.917866">
        <ele>604.8</ele>
        <time>2017-03-04T13:24:33Z</time>
      </trkpt>
      <trkpt lat="38.206248" lon="-1.918148">
        <ele>604.3</ele>
        <time>2017-03-04T13:24:50Z</time>
      </trkpt>
      <trkpt lat="38.206252" lon="-1.918467">
        <ele>603.4</ele>
        <time>2017-03-04T13:25:09Z</time>
      </trkpt>
      <trkpt lat="38.206153" lon="-1.918742">
        <ele>603.4</ele>
        <time>2017-03-04T13:25:27Z</time>
      </trkpt>
      <trkpt lat="38.206020" lon="-1.919009">
        <ele>602.4</ele>
        <time>2017-03-04T13:25:45Z</time>
      </trkpt>
      <trkpt lat="38.205926" lon="-1.919291">
        <ele>602.9</ele>
        <time>2017-03-04T13:26:04Z</time>
      </trkpt>
      <trkpt lat="38.205865" lon="-1.919498">
        <ele>602.4</ele>
        <time>2017-03-04T13:26:19Z</time>
      </trkpt>
      <trkpt lat="38.205863" lon="-1.919596">
        <ele>602.4</ele>
        <time>2017-03-04T13:26:34Z</time>
      </trkpt>
      <trkpt lat="38.205877" lon="-1.919660">
        <ele>601.9</ele>
        <time>2017-03-04T13:26:45Z</time>
      </trkpt>
      <trkpt lat="38.205887" lon="-1.919695">
        <ele>601.9</ele>
        <time>2017-03-04T13:26:48Z</time>
      </trkpt>
      <trkpt lat="38.206008" lon="-1.919884">
        <ele>602.4</ele>
        <time>2017-03-04T13:27:04Z</time>
      </trkpt>
      <trkpt lat="38.206172" lon="-1.919990">
        <ele>602.9</ele>
        <time>2017-03-04T13:27:18Z</time>
      </trkpt>
      <trkpt lat="38.206364" lon="-1.920119">
        <ele>604.3</ele>
        <time>2017-03-04T13:27:34Z</time>
      </trkpt>
      <trkpt lat="38.206556" lon="-1.920298">
        <ele>605.3</ele>
        <time>2017-03-04T13:27:50Z</time>
      </trkpt>
      <trkpt lat="38.206742" lon="-1.920489">
        <ele>606.7</ele>
        <time>2017-03-04T13:28:06Z</time>
      </trkpt>
      <trkpt lat="38.206902" lon="-1.920669">
        <ele>607.2</ele>
        <time>2017-03-04T13:28:21Z</time>
      </trkpt>
      <trkpt lat="38.207018" lon="-1.920815">
        <ele>607.7</ele>
        <time>2017-03-04T13:28:34Z</time>
      </trkpt>
      <trkpt lat="38.207145" lon="-1.921011">
        <ele>608.7</ele>
        <time>2017-03-04T13:28:50Z</time>
      </trkpt>
      <trkpt lat="38.207271" lon="-1.921205">
        <ele>609.1</ele>
        <time>2017-03-04T13:29:07Z</time>
      </trkpt>
      <trkpt lat="38.207393" lon="-1.921388">
        <ele>609.1</ele>
        <time>2017-03-04T13:29:23Z</time>
      </trkpt>
      <trkpt lat="38.207558" lon="-1.921578">
        <ele>609.1</ele>
        <time>2017-03-04T13:29:40Z</time>
      </trkpt>
      <trkpt lat="38.207737" lon="-1.921814">
        <ele>609.6</ele>
        <time>2017-03-04T13:29:59Z</time>
      </trkpt>
      <trkpt lat="38.207897" lon="-1.922016">
        <ele>610.6</ele>
        <time>2017-03-04T13:30:15Z</time>
      </trkpt>
      <trkpt lat="38.208028" lon="-1.922208">
        <ele>611.1</ele>
        <time>2017-03-04T13:30:31Z</time>
      </trkpt>
      <trkpt lat="38.208065" lon="-1.922264">
        <ele>611.1</ele>
        <time>2017-03-04T13:30:36Z</time>
      </trkpt>
      <trkpt lat="38.208160" lon="-1.922385">
        <ele>611.1</ele>
        <time>2017-03-04T13:30:50Z</time>
      </trkpt>
      <trkpt lat="38.208268" lon="-1.922529">
        <ele>610.1</ele>
        <time>2017-03-04T13:31:03Z</time>
      </trkpt>
      <trkpt lat="38.208435" lon="-1.922730">
        <ele>609.6</ele>
        <time>2017-03-04T13:31:21Z</time>
      </trkpt>
      <trkpt lat="38.208532" lon="-1.922826">
        <ele>609.1</ele>
        <time>2017-03-04T13:31:33Z</time>
      </trkpt>
      <trkpt lat="38.208627" lon="-1.922943">
        <ele>608.7</ele>
        <time>2017-03-04T13:31:50Z</time>
      </trkpt>
      <trkpt lat="38.208633" lon="-1.922951">
        <ele>608.7</ele>
        <time>2017-03-04T13:31:51Z</time>
      </trkpt>
      <trkpt lat="38.208797" lon="-1.923146">
        <ele>608.7</ele>
        <time>2017-03-04T13:32:08Z</time>
      </trkpt>
      <trkpt lat="38.209014" lon="-1.923339">
        <ele>607.2</ele>
        <time>2017-03-04T13:32:29Z</time>
      </trkpt>
      <trkpt lat="38.209174" lon="-1.923492">
        <ele>607.2</ele>
        <time>2017-03-04T13:32:45Z</time>
      </trkpt>
      <trkpt lat="38.209317" lon="-1.923616">
        <ele>606.2</ele>
        <time>2017-03-04T13:33:00Z</time>
      </trkpt>
      <trkpt lat="38.209400" lon="-1.923700">
        <ele>606.7</ele>
        <time>2017-03-04T13:33:10Z</time>
      </trkpt>
      <trkpt lat="38.209568" lon="-1.923923">
        <ele>607.2</ele>
        <time>2017-03-04T13:33:28Z</time>
      </trkpt>
      <trkpt lat="38.209613" lon="-1.924152">
        <ele>607.2</ele>
        <time>2017-03-04T13:33:43Z</time>
      </trkpt>
      <trkpt lat="38.209568" lon="-1.924378">
        <ele>608.7</ele>
        <time>2017-03-04T13:33:58Z</time>
      </trkpt>
      <trkpt lat="38.209461" lon="-1.924558">
        <ele>608.2</ele>
        <time>2017-03-04T13:34:13Z</time>
      </trkpt>
      <trkpt lat="38.209430" lon="-1.924579">
        <ele>607.7</ele>
        <time>2017-03-04T13:34:16Z</time>
      </trkpt>
      <trkpt lat="38.209258" lon="-1.924795">
        <ele>606.2</ele>
        <time>2017-03-04T13:34:35Z</time>
      </trkpt>
      <trkpt lat="38.209183" lon="-1.924977">
        <ele>607.7</ele>
        <time>2017-03-04T13:34:52Z</time>
      </trkpt>
      <trkpt lat="38.209175" lon="-1.925118">
        <ele>607.2</ele>
        <time>2017-03-04T13:35:19Z</time>
      </trkpt>
      <trkpt lat="38.209168" lon="-1.925298">
        <ele>608.2</ele>
        <time>2017-03-04T13:35:31Z</time>
      </trkpt>
      <trkpt lat="38.209179" lon="-1.925501">
        <ele>609.1</ele>
        <time>2017-03-04T13:35:44Z</time>
      </trkpt>
      <trkpt lat="38.209097" lon="-1.925697">
        <ele>608.7</ele>
        <time>2017-03-04T13:35:58Z</time>
      </trkpt>
      <trkpt lat="38.208963" lon="-1.925923">
        <ele>607.7</ele>
        <time>2017-03-04T13:36:14Z</time>
      </trkpt>
      <trkpt lat="38.208829" lon="-1.926103">
        <ele>607.2</ele>
        <time>2017-03-04T13:36:29Z</time>
      </trkpt>
      <trkpt lat="38.208811" lon="-1.926120">
        <ele>607.2</ele>
        <time>2017-03-04T13:36:31Z</time>
      </trkpt>
      <trkpt lat="38.208793" lon="-1.926144">
        <ele>607.2</ele>
        <time>2017-03-04T13:36:33Z</time>
      </trkpt>
      <trkpt lat="38.208716" lon="-1.926202">
        <ele>607.2</ele>
        <time>2017-03-04T13:36:39Z</time>
      </trkpt>
      <trkpt lat="38.208571" lon="-1.926339">
        <ele>606.7</ele>
        <time>2017-03-04T13:36:52Z</time>
      </trkpt>
      <trkpt lat="38.208551" lon="-1.926428">
        <ele>606.2</ele>
        <time>2017-03-04T13:36:58Z</time>
      </trkpt>
      <trkpt lat="38.208552" lon="-1.926455">
        <ele>605.8</ele>
        <time>2017-03-04T13:37:00Z</time>
      </trkpt>
      <trkpt lat="38.208614" lon="-1.926580">
        <ele>606.2</ele>
        <time>2017-03-04T13:37:11Z</time>
      </trkpt>
      <trkpt lat="38.208662" lon="-1.926614">
        <ele>605.8</ele>
        <time>2017-03-04T13:37:16Z</time>
      </trkpt>
      <trkpt lat="38.208865" lon="-1.926757">
        <ele>606.7</ele>
        <time>2017-03-04T13:37:33Z</time>
      </trkpt>
      <trkpt lat="38.209007" lon="-1.926917">
        <ele>607.2</ele>
        <time>2017-03-04T13:37:48Z</time>
      </trkpt>
      <trkpt lat="38.209088" lon="-1.927017">
        <ele>607.7</ele>
        <time>2017-03-04T13:37:58Z</time>
      </trkpt>
      <trkpt lat="38.209218" lon="-1.927231">
        <ele>607.7</ele>
        <time>2017-03-04T13:38:15Z</time>
      </trkpt>
      <trkpt lat="38.209340" lon="-1.927422">
        <ele>607.7</ele>
        <time>2017-03-04T13:38:31Z</time>
      </trkpt>
      <trkpt lat="38.209448" lon="-1.927604">
        <ele>608.2</ele>
        <time>2017-03-04T13:38:47Z</time>
      </trkpt>
      <trkpt lat="38.209513" lon="-1.927712">
        <ele>608.7</ele>
        <time>2017-03-04T13:38:55Z</time>
      </trkpt>
      <trkpt lat="38.209618" lon="-1.927903">
        <ele>608.7</ele>
        <time>2017-03-04T13:39:11Z</time>
      </trkpt>
      <trkpt lat="38.209719" lon="-1.928100">
        <ele>608.2</ele>
        <time>2017-03-04T13:39:27Z</time>
      </trkpt>
      <trkpt lat="38.209855" lon="-1.928257">
        <ele>607.7</ele>
        <time>2017-03-04T13:39:42Z</time>
      </trkpt>
      <trkpt lat="38.210002" lon="-1.928404">
        <ele>606.2</ele>
        <time>2017-03-04T13:39:59Z</time>
      </trkpt>
      <trkpt lat="38.210163" lon="-1.928553">
        <ele>605.3</ele>
        <time>2017-03-04T13:40:17Z</time>
      </trkpt>
      <trkpt lat="38.210170" lon="-1.928561">
        <ele>605.3</ele>
        <time>2017-03-04T13:40:18Z</time>
      </trkpt>
      <trkpt lat="38.210188" lon="-1.928573">
        <ele>604.8</ele>
        <time>2017-03-04T13:40:20Z</time>
      </trkpt>
      <trkpt lat="38.210316" lon="-1.928736">
        <ele>604.8</ele>
        <time>2017-03-04T13:40:37Z</time>
      </trkpt>
      <trkpt lat="38.210385" lon="-1.928835">
        <ele>604.8</ele>
        <time>2017-03-04T13:40:49Z</time>
      </trkpt>
      <trkpt lat="38.210476" lon="-1.929000">
        <ele>604.8</ele>
        <time>2017-03-04T13:41:02Z</time>
      </trkpt>
      <trkpt lat="38.210654" lon="-1.929144">
        <ele>604.8</ele>
        <time>2017-03-04T13:41:20Z</time>
      </trkpt>
      <trkpt lat="38.210841" lon="-1.929239">
        <ele>604.8</ele>
        <time>2017-03-04T13:41:37Z</time>
      </trkpt>
      <trkpt lat="38.211006" lon="-1.929348">
        <ele>605.3</ele>
        <time>2017-03-04T13:41:53Z</time>
      </trkpt>
      <trkpt lat="38.211164" lon="-1.929484">
        <ele>604.8</ele>
        <time>2017-03-04T13:42:09Z</time>
      </trkpt>
      <trkpt lat="38.211297" lon="-1.929629">
        <ele>605.3</ele>
        <time>2017-03-04T13:42:23Z</time>
      </trkpt>
      <trkpt lat="38.211417" lon="-1.929786">
        <ele>605.3</ele>
        <time>2017-03-04T13:42:37Z</time>
      </trkpt>
      <trkpt lat="38.211481" lon="-1.929874">
        <ele>605.3</ele>
        <time>2017-03-04T13:42:47Z</time>
      </trkpt>
      <trkpt lat="38.211663" lon="-1.930080">
        <ele>606.2</ele>
        <time>2017-03-04T13:43:05Z</time>
      </trkpt>
      <trkpt lat="38.211855" lon="-1.930201">
        <ele>606.2</ele>
        <time>2017-03-04T13:43:21Z</time>
      </trkpt>
      <trkpt lat="38.212014" lon="-1.930257">
        <ele>606.2</ele>
        <time>2017-03-04T13:43:36Z</time>
      </trkpt>
      <trkpt lat="38.212084" lon="-1.930276">
        <ele>606.2</ele>
        <time>2017-03-04T13:43:42Z</time>
      </trkpt>
      <trkpt lat="38.212341" lon="-1.930267">
        <ele>605.3</ele>
        <time>2017-03-04T13:44:02Z</time>
      </trkpt>
      <trkpt lat="38.212359" lon="-1.930255">
        <ele>604.8</ele>
        <time>2017-03-04T13:44:04Z</time>
      </trkpt>
      <trkpt lat="38.212530" lon="-1.930151">
        <ele>603.8</ele>
        <time>2017-03-04T13:44:20Z</time>
      </trkpt>
      <trkpt lat="38.212638" lon="-1.930079">
        <ele>601.9</ele>
        <time>2017-03-04T13:44:30Z</time>
      </trkpt>
      <trkpt lat="38.212738" lon="-1.930084">
        <ele>600.0</ele>
        <time>2017-03-04T13:44:40Z</time>
      </trkpt>
      <trkpt lat="38.212899" lon="-1.930261">
        <ele>598.1</ele>
        <time>2017-03-04T13:44:56Z</time>
      </trkpt>
      <trkpt lat="38.212935" lon="-1.930338">
        <ele>598.1</ele>
        <time>2017-03-04T13:45:01Z</time>
      </trkpt>
      <trkpt lat="38.212891" lon="-1.930636">
        <ele>597.1</ele>
        <time>2017-03-04T13:45:18Z</time>
      </trkpt>
      <trkpt lat="38.212850" lon="-1.930756">
        <ele>596.6</ele>
        <time>2017-03-04T13:45:26Z</time>
      </trkpt>
      <trkpt lat="38.212787" lon="-1.930981">
        <ele>597.1</ele>
        <time>2017-03-04T13:45:41Z</time>
      </trkpt>
      <trkpt lat="38.212777" lon="-1.931027">
        <ele>597.1</ele>
        <time>2017-03-04T13:45:44Z</time>
      </trkpt>
      <trkpt lat="38.212780" lon="-1.931059">
        <ele>596.6</ele>
        <time>2017-03-04T13:45:46Z</time>
      </trkpt>
      <trkpt lat="38.212777" lon="-1.931266">
        <ele>596.6</ele>
        <time>2017-03-04T13:46:02Z</time>
      </trkpt>
      <trkpt lat="38.212754" lon="-1.931469">
        <ele>597.6</ele>
        <time>2017-03-04T13:46:17Z</time>
      </trkpt>
      <trkpt lat="38.212743" lon="-1.931673">
        <ele>596.6</ele>
        <time>2017-03-04T13:46:31Z</time>
      </trkpt>
      <trkpt lat="38.212725" lon="-1.931783">
        <ele>593.8</ele>
        <time>2017-03-04T13:46:37Z</time>
      </trkpt>
      <trkpt lat="38.212726" lon="-1.931814">
        <ele>597.1</ele>
        <time>2017-03-04T13:46:39Z</time>
      </trkpt>
      <trkpt lat="38.212721" lon="-1.931829">
        <ele>600.0</ele>
        <time>2017-03-04T13:46:40Z</time>
      </trkpt>
      <trkpt lat="38.212715" lon="-1.931842">
        <ele>597.1</ele>
        <time>2017-03-04T13:46:41Z</time>
      </trkpt>
      <trkpt lat="38.212682" lon="-1.932038">
        <ele>597.6</ele>
        <time>2017-03-04T13:46:56Z</time>
      </trkpt>
      <trkpt lat="38.212645" lon="-1.932204">
        <ele>598.1</ele>
        <time>2017-03-04T13:47:12Z</time>
      </trkpt>
      <trkpt lat="38.212616" lon="-1.932325">
        <ele>598.6</ele>
        <time>2017-03-04T13:47:22Z</time>
      </trkpt>
      <trkpt lat="38.212618" lon="-1.932378">
        <ele>598.6</ele>
        <time>2017-03-04T13:47:26Z</time>
      </trkpt>
      <trkpt lat="38.212546" lon="-1.932621">
        <ele>599.5</ele>
        <time>2017-03-04T13:47:45Z</time>
      </trkpt>
      <trkpt lat="38.212528" lon="-1.932674">
        <ele>600.0</ele>
        <time>2017-03-04T13:48:01Z</time>
      </trkpt>
      <trkpt lat="38.212483" lon="-1.932822">
        <ele>600.5</ele>
        <time>2017-03-04T13:48:15Z</time>
      </trkpt>
      <trkpt lat="38.212444" lon="-1.933019">
        <ele>600.5</ele>
        <time>2017-03-04T13:48:27Z</time>
      </trkpt>
      <trkpt lat="38.212430" lon="-1.933120">
        <ele>600.5</ele>
        <time>2017-03-04T13:48:38Z</time>
      </trkpt>
      <trkpt lat="38.212410" lon="-1.933375">
        <ele>602.9</ele>
        <time>2017-03-04T13:48:54Z</time>
      </trkpt>
      <trkpt lat="38.212388" lon="-1.933490">
        <ele>603.4</ele>
        <time>2017-03-04T13:49:00Z</time>
      </trkpt>
      <trkpt lat="38.212375" lon="-1.933539">
        <ele>603.4</ele>
        <time>2017-03-04T13:49:03Z</time>
      </trkpt>
      <trkpt lat="38.212437" lon="-1.933781">
        <ele>603.4</ele>
        <time>2017-03-04T13:49:19Z</time>
      </trkpt>
      <trkpt lat="38.212471" lon="-1.933877">
        <ele>602.9</ele>
        <time>2017-03-04T13:49:26Z</time>
      </trkpt>
      <trkpt lat="38.212464" lon="-1.933997">
        <ele>602.4</ele>
        <time>2017-03-04T13:49:33Z</time>
      </trkpt>
      <trkpt lat="38.212493" lon="-1.934153">
        <ele>601.9</ele>
        <time>2017-03-04T13:49:49Z</time>
      </trkpt>
      <trkpt lat="38.212498" lon="-1.934163">
        <ele>601.4</ele>
        <time>2017-03-04T13:49:50Z</time>
      </trkpt>
      <trkpt lat="38.212487" lon="-1.934325">
        <ele>601.0</ele>
        <time>2017-03-04T13:50:00Z</time>
      </trkpt>
      <trkpt lat="38.212495" lon="-1.934494">
        <ele>601.0</ele>
        <time>2017-03-04T13:50:12Z</time>
      </trkpt>
      <trkpt lat="38.212544" lon="-1.934694">
        <ele>600.0</ele>
        <time>2017-03-04T13:50:26Z</time>
      </trkpt>
      <trkpt lat="38.212583" lon="-1.934790">
        <ele>599.5</ele>
        <time>2017-03-04T13:50:33Z</time>
      </trkpt>
      <trkpt lat="38.212653" lon="-1.935029">
        <ele>599.0</ele>
        <time>2017-03-04T13:50:49Z</time>
      </trkpt>
      <trkpt lat="38.212757" lon="-1.935285">
        <ele>599.0</ele>
        <time>2017-03-04T13:51:05Z</time>
      </trkpt>
      <trkpt lat="38.212778" lon="-1.935318">
        <ele>599.0</ele>
        <time>2017-03-04T13:51:08Z</time>
      </trkpt>
      <trkpt lat="38.212937" lon="-1.935459">
        <ele>599.5</ele>
        <time>2017-03-04T13:51:25Z</time>
      </trkpt>
      <trkpt lat="38.213124" lon="-1.935601">
        <ele>600.0</ele>
        <time>2017-03-04T13:51:41Z</time>
      </trkpt>
      <trkpt lat="38.213293" lon="-1.935725">
        <ele>600.5</ele>
        <time>2017-03-04T13:51:57Z</time>
      </trkpt>
      <trkpt lat="38.213449" lon="-1.935847">
        <ele>600.5</ele>
        <time>2017-03-04T13:52:12Z</time>
      </trkpt>
      <trkpt lat="38.213624" lon="-1.935988">
        <ele>601.0</ele>
        <time>2017-03-04T13:52:29Z</time>
      </trkpt>
      <trkpt lat="38.213816" lon="-1.936108">
        <ele>601.0</ele>
        <time>2017-03-04T13:52:45Z</time>
      </trkpt>
      <trkpt lat="38.214057" lon="-1.936234">
        <ele>601.0</ele>
        <time>2017-03-04T13:53:04Z</time>
      </trkpt>
      <trkpt lat="38.214256" lon="-1.936336">
        <ele>601.9</ele>
        <time>2017-03-04T13:53:21Z</time>
      </trkpt>
      <trkpt lat="38.214452" lon="-1.936487">
        <ele>601.9</ele>
        <time>2017-03-04T13:53:38Z</time>
      </trkpt>
      <trkpt lat="38.214657" lon="-1.936669">
        <ele>601.9</ele>
        <time>2017-03-04T13:53:56Z</time>
      </trkpt>
      <trkpt lat="38.214876" lon="-1.936910">
        <ele>602.9</ele>
        <time>2017-03-04T13:54:16Z</time>
      </trkpt>
      <trkpt lat="38.214944" lon="-1.937029">
        <ele>603.8</ele>
        <time>2017-03-04T13:54:31Z</time>
      </trkpt>
      <trkpt lat="38.215029" lon="-1.937265">
        <ele>604.8</ele>
        <time>2017-03-04T13:54:46Z</time>
      </trkpt>
      <trkpt lat="38.214968" lon="-1.937600">
        <ele>605.3</ele>
        <time>2017-03-04T13:55:06Z</time>
      </trkpt>
      <trkpt lat="38.214824" lon="-1.937780">
        <ele>607.2</ele>
        <time>2017-03-04T13:55:21Z</time>
      </trkpt>
      <trkpt lat="38.214659" lon="-1.937931">
        <ele>608.2</ele>
        <time>2017-03-04T13:55:37Z</time>
      </trkpt>
      <trkpt lat="38.214539" lon="-1.938129">
        <ele>607.7</ele>
        <time>2017-03-04T13:55:54Z</time>
      </trkpt>
      <trkpt lat="38.214439" lon="-1.938397">
        <ele>607.2</ele>
        <time>2017-03-04T13:56:12Z</time>
      </trkpt>
      <trkpt lat="38.214452" lon="-1.938581">
        <ele>606.7</ele>
        <time>2017-03-04T13:56:26Z</time>
      </trkpt>
      <trkpt lat="38.214466" lon="-1.938602">
        <ele>606.7</ele>
        <time>2017-03-04T13:56:29Z</time>
      </trkpt>
      <trkpt lat="38.214484" lon="-1.938684">
        <ele>607.7</ele>
        <time>2017-03-04T13:56:43Z</time>
      </trkpt>
      <trkpt lat="38.214458" lon="-1.938790">
        <ele>607.2</ele>
        <time>2017-03-04T13:56:57Z</time>
      </trkpt>
      <trkpt lat="38.214450" lon="-1.938828">
        <ele>607.2</ele>
        <time>2017-03-04T13:57:00Z</time>
      </trkpt>
      <trkpt lat="38.214459" lon="-1.938973">
        <ele>607.2</ele>
        <time>2017-03-04T13:57:14Z</time>
      </trkpt>
      <trkpt lat="38.214479" lon="-1.939139">
        <ele>607.2</ele>
        <time>2017-03-04T13:57:28Z</time>
      </trkpt>
      <trkpt lat="38.214495" lon="-1.939295">
        <ele>606.7</ele>
        <time>2017-03-04T13:57:41Z</time>
      </trkpt>
      <trkpt lat="38.214499" lon="-1.939369">
        <ele>606.7</ele>
        <time>2017-03-04T13:57:45Z</time>
      </trkpt>
      <trkpt lat="38.214508" lon="-1.939496">
        <ele>607.2</ele>
        <time>2017-03-04T13:57:56Z</time>
      </trkpt>
      <trkpt lat="38.214481" lon="-1.939681">
        <ele>607.2</ele>
        <time>2017-03-04T13:58:12Z</time>
      </trkpt>
      <trkpt lat="38.214511" lon="-1.939750">
        <ele>607.2</ele>
        <time>2017-03-04T13:58:17Z</time>
      </trkpt>
      <trkpt lat="38.214515" lon="-1.939801">
        <ele>607.2</ele>
        <time>2017-03-04T13:58:20Z</time>
      </trkpt>
      <trkpt lat="38.214526" lon="-1.940062">
        <ele>606.7</ele>
        <time>2017-03-04T13:58:36Z</time>
      </trkpt>
      <trkpt lat="38.214558" lon="-1.940314">
        <ele>607.2</ele>
        <time>2017-03-04T13:58:51Z</time>
      </trkpt>
      <trkpt lat="38.214572" lon="-1.940533">
        <ele>608.2</ele>
        <time>2017-03-04T13:59:07Z</time>
      </trkpt>
      <trkpt lat="38.214560" lon="-1.940671">
        <ele>608.2</ele>
        <time>2017-03-04T13:59:17Z</time>
      </trkpt>
      <trkpt lat="38.214500" lon="-1.940994">
        <ele>609.6</ele>
        <time>2017-03-04T13:59:34Z</time>
      </trkpt>
      <trkpt lat="38.214471" lon="-1.941086">
        <ele>609.6</ele>
        <time>2017-03-04T13:59:39Z</time>
      </trkpt>
      <trkpt lat="38.214415" lon="-1.941307">
        <ele>611.1</ele>
        <time>2017-03-04T13:59:54Z</time>
      </trkpt>
      <trkpt lat="38.214346" lon="-1.941528">
        <ele>611.5</ele>
        <time>2017-03-04T14:00:10Z</time>
      </trkpt>
      <trkpt lat="38.214332" lon="-1.941714">
        <ele>612.5</ele>
        <time>2017-03-04T14:00:23Z</time>
      </trkpt>
      <trkpt lat="38.214278" lon="-1.941962">
        <ele>612.5</ele>
        <time>2017-03-04T14:00:38Z</time>
      </trkpt>
      <trkpt lat="38.214224" lon="-1.942181">
        <ele>612.5</ele>
        <time>2017-03-04T14:00:53Z</time>
      </trkpt>
      <trkpt lat="38.214159" lon="-1.942368">
        <ele>612.5</ele>
        <time>2017-03-04T14:01:05Z</time>
      </trkpt>
      <trkpt lat="38.214085" lon="-1.942597">
        <ele>611.5</ele>
        <time>2017-03-04T14:01:21Z</time>
      </trkpt>
      <trkpt lat="38.214049" lon="-1.942759">
        <ele>612.0</ele>
        <time>2017-03-04T14:01:33Z</time>
      </trkpt>
      <trkpt lat="38.213982" lon="-1.942853">
        <ele>611.5</ele>
        <time>2017-03-04T14:01:41Z</time>
      </trkpt>
      <trkpt lat="38.213881" lon="-1.942929">
        <ele>612.0</ele>
        <time>2017-03-04T14:01:52Z</time>
      </trkpt>
      <trkpt lat="38.213747" lon="-1.943034">
        <ele>610.1</ele>
        <time>2017-03-04T14:02:24Z</time>
      </trkpt>
      <trkpt lat="38.213639" lon="-1.943059">
        <ele>611.5</ele>
        <time>2017-03-04T14:04:33Z</time>
      </trkpt>
      <trkpt lat="38.213603" lon="-1.943060">
        <ele>611.5</ele>
        <time>2017-03-04T14:04:45Z</time>
      </trkpt>
      <trkpt lat="38.213377" lon="-1.943174">
        <ele>611.5</ele>
        <time>2017-03-04T14:05:01Z</time>
      </trkpt>
      <trkpt lat="38.213200" lon="-1.943329">
        <ele>614.4</ele>
        <time>2017-03-04T14:05:16Z</time>
      </trkpt>
      <trkpt lat="38.213117" lon="-1.943467">
        <ele>615.0</ele>
        <time>2017-03-25T07:17:05Z</time>
      </trkpt>
      <trkpt lat="38.213083" lon="-1.943500">
        <ele>616.0</ele>
        <time>2017-03-25T07:17:07Z</time>
      </trkpt>
      <trkpt lat="38.213050" lon="-1.943533">
        <ele>617.0</ele>
        <time>2017-03-25T07:17:11Z</time>
      </trkpt>
      <trkpt lat="38.213000" lon="-1.943567">
        <ele>617.0</ele>
        <time>2017-03-25T07:17:17Z</time>
      </trkpt>
      <trkpt lat="38.212900" lon="-1.943733">
        <ele>617.0</ele>
        <time>2017-03-25T07:17:33Z</time>
      </trkpt>
      <trkpt lat="38.212833" lon="-1.943850">
        <ele>618.0</ele>
        <time>2017-03-25T07:17:46Z</time>
      </trkpt>
      <trkpt lat="38.212767" lon="-1.943883">
        <ele>618.0</ele>
        <time>2017-03-25T07:18:00Z</time>
      </trkpt>
      <trkpt lat="38.212700" lon="-1.944017">
        <ele>619.0</ele>
        <time>2017-03-25T07:18:16Z</time>
      </trkpt>
      <trkpt lat="38.212683" lon="-1.944066">
        <ele>619.0</ele>
        <time>2017-03-25T07:18:27Z</time>
      </trkpt>
      <trkpt lat="38.212667" lon="-1.944167">
        <ele>620.0</ele>
        <time>2017-03-25T07:18:33Z</time>
      </trkpt>
      <trkpt lat="38.212583" lon="-1.944367">
        <ele>625.0</ele>
        <time>2017-03-25T07:18:46Z</time>
      </trkpt>
      <trkpt lat="38.212467" lon="-1.944600">
        <ele>630.0</ele>
        <time>2017-03-25T07:19:01Z</time>
      </trkpt>
      <trkpt lat="38.212333" lon="-1.944866">
        <ele>635.0</ele>
        <time>2017-03-25T07:19:18Z</time>
      </trkpt>
      <trkpt lat="38.212217" lon="-1.945050">
        <ele>639.0</ele>
        <time>2017-03-25T07:19:32Z</time>
      </trkpt>
      <trkpt lat="38.212191" lon="-1.945087">
        <ele>642.8</ele>
        <time>2017-03-25T07:19:34Z</time>
      </trkpt>
      <trkpt lat="38.212177" lon="-1.945113">
        <ele>643.7</ele>
        <time>2017-03-25T07:19:36Z</time>
      </trkpt>
      <trkpt lat="38.212144" lon="-1.945170">
        <ele>643.7</ele>
        <time>2017-03-25T07:19:40Z</time>
      </trkpt>
      <trkpt lat="38.212104" lon="-1.945215">
        <ele>644.7</ele>
        <time>2017-03-25T07:19:44Z</time>
      </trkpt>
      <trkpt lat="38.212064" lon="-1.945296">
        <ele>645.7</ele>
        <time>2017-03-25T07:19:50Z</time>
      </trkpt>
      <trkpt lat="38.212007" lon="-1.945349">
        <ele>646.6</ele>
        <time>2017-03-25T07:19:59Z</time>
      </trkpt>
      <trkpt lat="38.211856" lon="-1.945545">
        <ele>649.0</ele>
        <time>2017-03-25T07:20:16Z</time>
      </trkpt>
      <trkpt lat="38.211755" lon="-1.945607">
        <ele>650.5</ele>
        <time>2017-03-25T07:20:31Z</time>
      </trkpt>
      <trkpt lat="38.211661" lon="-1.945668">
        <ele>651.9</ele>
        <time>2017-03-25T07:20:44Z</time>
      </trkpt>
      <trkpt lat="38.211581" lon="-1.945842">
        <ele>653.8</ele>
        <time>2017-03-25T07:21:00Z</time>
      </trkpt>
      <trkpt lat="38.211507" lon="-1.946026">
        <ele>655.3</ele>
        <time>2017-03-25T07:21:19Z</time>
      </trkpt>
      <trkpt lat="38.211518" lon="-1.946279">
        <ele>657.7</ele>
        <time>2017-03-25T07:21:37Z</time>
      </trkpt>
      <trkpt lat="38.211553" lon="-1.946457">
        <ele>659.1</ele>
        <time>2017-03-25T07:21:52Z</time>
      </trkpt>
      <trkpt lat="38.211577" lon="-1.946506">
        <ele>660.1</ele>
        <time>2017-03-25T07:21:56Z</time>
      </trkpt>
      <trkpt lat="38.211680" lon="-1.946637">
        <ele>661.5</ele>
        <time>2017-03-25T07:22:13Z</time>
      </trkpt>
      <trkpt lat="38.211777" lon="-1.946802">
        <ele>663.0</ele>
        <time>2017-03-25T07:22:32Z</time>
      </trkpt>
      <trkpt lat="38.211834" lon="-1.946840">
        <ele>663.0</ele>
        <time>2017-03-25T07:22:46Z</time>
      </trkpt>
      <trkpt lat="38.211880" lon="-1.946932">
        <ele>663.5</ele>
        <time>2017-03-25T07:23:00Z</time>
      </trkpt>
      <trkpt lat="38.211929" lon="-1.947007">
        <ele>663.9</ele>
        <time>2017-03-25T07:23:11Z</time>
      </trkpt>
      <trkpt lat="38.212068" lon="-1.947162">
        <ele>663.5</ele>
        <time>2017-03-25T07:23:25Z</time>
      </trkpt>
      <trkpt lat="38.212077" lon="-1.947177">
        <ele>666.3</ele>
        <time>2017-03-25T07:23:26Z</time>
      </trkpt>
      <trkpt lat="38.212087" lon="-1.947190">
        <ele>666.3</ele>
        <time>2017-03-25T07:23:27Z</time>
      </trkpt>
      <trkpt lat="38.212177" lon="-1.947429">
        <ele>666.8</ele>
        <time>2017-03-25T07:23:44Z</time>
      </trkpt>
      <trkpt lat="38.212254" lon="-1.947609">
        <ele>669.2</ele>
        <time>2017-03-25T07:23:58Z</time>
      </trkpt>
      <trkpt lat="38.212305" lon="-1.947849">
        <ele>671.6</ele>
        <time>2017-03-25T07:24:14Z</time>
      </trkpt>
      <trkpt lat="38.212296" lon="-1.948046">
        <ele>673.1</ele>
        <time>2017-03-25T07:24:28Z</time>
      </trkpt>
      <trkpt lat="38.212303" lon="-1.948269">
        <ele>675.0</ele>
        <time>2017-03-25T07:24:43Z</time>
      </trkpt>
      <trkpt lat="38.212307" lon="-1.948333">
        <ele>674.5</ele>
        <time>2017-03-25T07:24:47Z</time>
      </trkpt>
      <trkpt lat="38.212297" lon="-1.948569">
        <ele>676.9</ele>
        <time>2017-03-25T07:25:01Z</time>
      </trkpt>
      <trkpt lat="38.212288" lon="-1.948766">
        <ele>678.8</ele>
        <time>2017-03-25T07:25:14Z</time>
      </trkpt>
      <trkpt lat="38.212277" lon="-1.948973">
        <ele>681.2</ele>
        <time>2017-03-25T07:25:29Z</time>
      </trkpt>
      <trkpt lat="38.212268" lon="-1.949171">
        <ele>682.7</ele>
        <time>2017-03-25T07:25:43Z</time>
      </trkpt>
      <trkpt lat="38.212283" lon="-1.949289">
        <ele>684.1</ele>
        <time>2017-03-25T07:25:53Z</time>
      </trkpt>
      <trkpt lat="38.212295" lon="-1.949362">
        <ele>684.6</ele>
        <time>2017-03-25T07:25:58Z</time>
      </trkpt>
      <trkpt lat="38.212338" lon="-1.949534">
        <ele>688.4</ele>
        <time>2017-03-25T07:26:09Z</time>
      </trkpt>
      <trkpt lat="38.212356" lon="-1.949586">
        <ele>687.0</ele>
        <time>2017-03-25T07:26:12Z</time>
      </trkpt>
      <trkpt lat="38.212390" lon="-1.949720">
        <ele>688.4</ele>
        <time>2017-03-25T07:26:20Z</time>
      </trkpt>
      <trkpt lat="38.212395" lon="-1.949817">
        <ele>688.4</ele>
        <time>2017-03-25T07:26:26Z</time>
      </trkpt>
      <trkpt lat="38.212369" lon="-1.949927">
        <ele>690.4</ele>
        <time>2017-03-25T07:26:33Z</time>
      </trkpt>
      <trkpt lat="38.212343" lon="-1.950022">
        <ele>690.4</ele>
        <time>2017-03-25T07:26:38Z</time>
      </trkpt>
      <trkpt lat="38.212317" lon="-1.950076">
        <ele>690.8</ele>
        <time>2017-03-25T07:26:43Z</time>
      </trkpt>
      <trkpt lat="38.212307" lon="-1.950137">
        <ele>691.3</ele>
        <time>2017-03-25T07:26:49Z</time>
      </trkpt>
      <trkpt lat="38.212290" lon="-1.950152">
        <ele>691.8</ele>
        <time>2017-03-25T07:26:51Z</time>
      </trkpt>
      <trkpt lat="38.212283" lon="-1.950248">
        <ele>690.8</ele>
        <time>2017-03-25T07:26:57Z</time>
      </trkpt>
      <trkpt lat="38.212280" lon="-1.950284">
        <ele>691.8</ele>
        <time>2017-03-25T07:26:59Z</time>
      </trkpt>
      <trkpt lat="38.212289" lon="-1.950428">
        <ele>692.8</ele>
        <time>2017-03-25T07:27:08Z</time>
      </trkpt>
      <trkpt lat="38.212286" lon="-1.950518">
        <ele>691.8</ele>
        <time>2017-03-25T07:27:12Z</time>
      </trkpt>
      <trkpt lat="38.212285" lon="-1.950571">
        <ele>692.8</ele>
        <time>2017-03-25T07:27:15Z</time>
      </trkpt>
      <trkpt lat="38.212282" lon="-1.950712">
        <ele>693.2</ele>
        <time>2017-03-25T07:27:23Z</time>
      </trkpt>
      <trkpt lat="38.212298" lon="-1.950797">
        <ele>693.7</ele>
        <time>2017-03-25T07:27:29Z</time>
      </trkpt>
      <trkpt lat="38.212307" lon="-1.950978">
        <ele>694.2</ele>
        <time>2017-03-25T07:27:40Z</time>
      </trkpt>
      <trkpt lat="38.212330" lon="-1.951256">
        <ele>695.2</ele>
        <time>2017-03-25T07:27:56Z</time>
      </trkpt>
      <trkpt lat="38.212329" lon="-1.951272">
        <ele>695.2</ele>
        <time>2017-03-25T07:27:57Z</time>
      </trkpt>
      <trkpt lat="38.212343" lon="-1.951383">
        <ele>696.1</ele>
        <time>2017-03-25T07:28:04Z</time>
      </trkpt>
      <trkpt lat="38.212367" lon="-1.951618">
        <ele>698.5</ele>
        <time>2017-03-25T07:28:18Z</time>
      </trkpt>
      <trkpt lat="38.212378" lon="-1.951762">
        <ele>699.5</ele>
        <time>2017-03-25T07:28:32Z</time>
      </trkpt>
      <trkpt lat="38.212394" lon="-1.951825">
        <ele>700.0</ele>
        <time>2017-03-25T07:28:57Z</time>
      </trkpt>
      <trkpt lat="38.212413" lon="-1.951903">
        <ele>700.0</ele>
        <time>2017-03-25T07:29:06Z</time>
      </trkpt>
      <trkpt lat="38.212442" lon="-1.952066">
        <ele>702.9</ele>
        <time>2017-03-25T07:29:17Z</time>
      </trkpt>
      <trkpt lat="38.212467" lon="-1.952283">
        <ele>704.8</ele>
        <time>2017-03-25T07:29:31Z</time>
      </trkpt>
      <trkpt lat="38.212472" lon="-1.952295">
        <ele>704.8</ele>
        <time>2017-03-25T07:29:32Z</time>
      </trkpt>
      <trkpt lat="38.212495" lon="-1.952481">
        <ele>707.7</ele>
        <time>2017-03-25T07:29:46Z</time>
      </trkpt>
      <trkpt lat="38.212512" lon="-1.952722">
        <ele>707.7</ele>
        <time>2017-03-25T07:30:01Z</time>
      </trkpt>
      <trkpt lat="38.212513" lon="-1.952734">
        <ele>710.5</ele>
        <time>2017-03-25T07:30:02Z</time>
      </trkpt>
      <trkpt lat="38.212513" lon="-1.952750">
        <ele>707.2</ele>
        <time>2017-03-25T07:30:03Z</time>
      </trkpt>
      <trkpt lat="38.212509" lon="-1.952764">
        <ele>713.0</ele>
        <time>2017-03-25T07:30:04Z</time>
      </trkpt>
      <trkpt lat="38.212501" lon="-1.952808">
        <ele>710.1</ele>
        <time>2017-03-25T07:30:07Z</time>
      </trkpt>
      <trkpt lat="38.212491" lon="-1.953004">
        <ele>711.0</ele>
        <time>2017-03-25T07:30:21Z</time>
      </trkpt>
      <trkpt lat="38.212456" lon="-1.953121">
        <ele>712.5</ele>
        <time>2017-03-25T07:31:27Z</time>
      </trkpt>
      <trkpt lat="38.212521" lon="-1.953180">
        <ele>711.5</ele>
        <time>2017-03-25T07:32:15Z</time>
      </trkpt>
      <trkpt lat="38.212703" lon="-1.953334">
        <ele>711.0</ele>
        <time>2017-03-25T07:32:31Z</time>
      </trkpt>
      <trkpt lat="38.212832" lon="-1.953429">
        <ele>709.6</ele>
        <time>2017-03-25T07:32:42Z</time>
      </trkpt>
      <trkpt lat="38.212903" lon="-1.953615">
        <ele>707.7</ele>
        <time>2017-03-25T07:32:55Z</time>
      </trkpt>
      <trkpt lat="38.212949" lon="-1.953749">
        <ele>707.2</ele>
        <time>2017-03-25T07:33:03Z</time>
      </trkpt>
      <trkpt lat="38.212967" lon="-1.953811">
        <ele>706.7</ele>
        <time>2017-03-25T07:33:07Z</time>
      </trkpt>
      <trkpt lat="38.212974" lon="-1.953847">
        <ele>705.3</ele>
        <time>2017-03-25T07:33:09Z</time>
      </trkpt>
      <trkpt lat="38.213021" lon="-1.953934">
        <ele>704.8</ele>
        <time>2017-03-25T07:33:14Z</time>
      </trkpt>
      <trkpt lat="38.213095" lon="-1.954007">
        <ele>704.3</ele>
        <time>2017-03-25T07:33:20Z</time>
      </trkpt>
      <trkpt lat="38.213162" lon="-1.954174">
        <ele>703.8</ele>
        <time>2017-03-25T07:33:34Z</time>
      </trkpt>
      <trkpt lat="38.213176" lon="-1.954258">
        <ele>704.3</ele>
        <time>2017-03-25T07:33:40Z</time>
      </trkpt>
      <trkpt lat="38.213178" lon="-1.954316">
        <ele>704.8</ele>
        <time>2017-03-25T07:33:44Z</time>
      </trkpt>
      <trkpt lat="38.213176" lon="-1.954528">
        <ele>705.8</ele>
        <time>2017-03-25T07:33:56Z</time>
      </trkpt>
      <trkpt lat="38.213181" lon="-1.954597">
        <ele>706.7</ele>
        <time>2017-03-25T07:34:00Z</time>
      </trkpt>
      <trkpt lat="38.213178" lon="-1.954659">
        <ele>707.2</ele>
        <time>2017-03-25T07:34:04Z</time>
      </trkpt>
      <trkpt lat="38.213188" lon="-1.954867">
        <ele>708.6</ele>
        <time>2017-03-25T07:34:17Z</time>
      </trkpt>
      <trkpt lat="38.213188" lon="-1.954955">
        <ele>709.1</ele>
        <time>2017-03-25T07:34:23Z</time>
      </trkpt>
      <trkpt lat="38.213163" lon="-1.955189">
        <ele>711.0</ele>
        <time>2017-03-25T07:34:38Z</time>
      </trkpt>
      <trkpt lat="38.213153" lon="-1.955232">
        <ele>711.5</ele>
        <time>2017-03-25T07:34:41Z</time>
      </trkpt>
      <trkpt lat="38.213129" lon="-1.955505">
        <ele>712.5</ele>
        <time>2017-03-25T07:34:58Z</time>
      </trkpt>
      <trkpt lat="38.213139" lon="-1.955740">
        <ele>713.4</ele>
        <time>2017-03-25T07:35:12Z</time>
      </trkpt>
      <trkpt lat="38.213138" lon="-1.955843">
        <ele>713.4</ele>
        <time>2017-03-25T07:35:18Z</time>
      </trkpt>
      <trkpt lat="38.213134" lon="-1.955913">
        <ele>713.4</ele>
        <time>2017-03-25T07:35:22Z</time>
      </trkpt>
      <trkpt lat="38.213061" lon="-1.956055">
        <ele>713.9</ele>
        <time>2017-03-25T07:35:33Z</time>
      </trkpt>
      <trkpt lat="38.213028" lon="-1.956075">
        <ele>714.4</ele>
        <time>2017-03-25T07:35:36Z</time>
      </trkpt>
      <trkpt lat="38.212933" lon="-1.956246">
        <ele>714.9</ele>
        <time>2017-03-25T07:35:49Z</time>
      </trkpt>
      <trkpt lat="38.212911" lon="-1.956487">
        <ele>715.4</ele>
        <time>2017-03-25T07:36:03Z</time>
      </trkpt>
      <trkpt lat="38.212926" lon="-1.956530">
        <ele>715.8</ele>
        <time>2017-03-25T07:36:06Z</time>
      </trkpt>
      <trkpt lat="38.213005" lon="-1.956745">
        <ele>716.8</ele>
        <time>2017-03-25T07:36:20Z</time>
      </trkpt>
      <trkpt lat="38.213078" lon="-1.956957">
        <ele>717.3</ele>
        <time>2017-03-25T07:36:35Z</time>
      </trkpt>
      <trkpt lat="38.213156" lon="-1.957189">
        <ele>717.8</ele>
        <time>2017-03-25T07:36:50Z</time>
      </trkpt>
      <trkpt lat="38.213161" lon="-1.957225">
        <ele>718.2</ele>
        <time>2017-03-25T07:36:53Z</time>
      </trkpt>
      <trkpt lat="38.213204" lon="-1.957417">
        <ele>718.7</ele>
        <time>2017-03-25T07:37:07Z</time>
      </trkpt>
      <trkpt lat="38.213255" lon="-1.957673">
        <ele>719.7</ele>
        <time>2017-03-25T07:37:22Z</time>
      </trkpt>
      <trkpt lat="38.213318" lon="-1.957948">
        <ele>719.7</ele>
        <time>2017-03-25T07:37:39Z</time>
      </trkpt>
      <trkpt lat="38.213427" lon="-1.958142">
        <ele>719.2</ele>
        <time>2017-03-25T07:37:53Z</time>
      </trkpt>
      <trkpt lat="38.213480" lon="-1.958247">
        <ele>719.2</ele>
        <time>2017-03-25T07:38:00Z</time>
      </trkpt>
      <trkpt lat="38.213508" lon="-1.958282">
        <ele>719.2</ele>
        <time>2017-03-25T07:38:03Z</time>
      </trkpt>
      <trkpt lat="38.213637" lon="-1.958474">
        <ele>719.7</ele>
        <time>2017-03-25T07:38:19Z</time>
      </trkpt>
      <trkpt lat="38.213752" lon="-1.958618">
        <ele>720.7</ele>
        <time>2017-03-25T07:38:33Z</time>
      </trkpt>
      <trkpt lat="38.213766" lon="-1.958625">
        <ele>721.1</ele>
        <time>2017-03-25T07:38:35Z</time>
      </trkpt>
      <trkpt lat="38.213862" lon="-1.958846">
        <ele>724.0</ele>
        <time>2017-03-25T07:38:52Z</time>
      </trkpt>
      <trkpt lat="38.213877" lon="-1.958881">
        <ele>725.0</ele>
        <time>2017-03-25T07:38:55Z</time>
      </trkpt>
      <trkpt lat="38.213904" lon="-1.959054">
        <ele>725.0</ele>
        <time>2017-03-25T07:39:05Z</time>
      </trkpt>
      <trkpt lat="38.213934" lon="-1.959292">
        <ele>724.5</ele>
        <time>2017-03-25T07:39:20Z</time>
      </trkpt>
      <trkpt lat="38.213938" lon="-1.959498">
        <ele>722.1</ele>
        <time>2017-03-25T07:39:33Z</time>
      </trkpt>
      <trkpt lat="38.213982" lon="-1.959733">
        <ele>720.2</ele>
        <time>2017-03-25T07:39:46Z</time>
      </trkpt>
      <trkpt lat="38.214039" lon="-1.959796">
        <ele>719.2</ele>
        <time>2017-03-25T07:39:52Z</time>
      </trkpt>
      <trkpt lat="38.214059" lon="-1.959827">
        <ele>718.2</ele>
        <time>2017-03-25T07:39:54Z</time>
      </trkpt>
      <trkpt lat="38.214102" lon="-1.959886">
        <ele>717.8</ele>
        <time>2017-03-25T07:39:58Z</time>
      </trkpt>
      <trkpt lat="38.214230" lon="-1.960090">
        <ele>716.8</ele>
        <time>2017-03-25T07:40:14Z</time>
      </trkpt>
      <trkpt lat="38.214367" lon="-1.960225">
        <ele>715.8</ele>
        <time>2017-03-25T07:40:27Z</time>
      </trkpt>
      <trkpt lat="38.214387" lon="-1.960274">
        <ele>716.3</ele>
        <time>2017-03-25T07:40:31Z</time>
      </trkpt>
      <trkpt lat="38.214378" lon="-1.960333">
        <ele>715.8</ele>
        <time>2017-03-25T07:40:35Z</time>
      </trkpt>
      <trkpt lat="38.214285" lon="-1.960637">
        <ele>714.9</ele>
        <time>2017-03-25T07:40:55Z</time>
      </trkpt>
      <trkpt lat="38.214300" lon="-1.960860">
        <ele>712.0</ele>
        <time>2017-03-25T07:41:07Z</time>
      </trkpt>
      <trkpt lat="38.214378" lon="-1.961139">
        <ele>709.6</ele>
        <time>2017-03-25T07:41:23Z</time>
      </trkpt>
      <trkpt lat="38.214444" lon="-1.961364">
        <ele>708.2</ele>
        <time>2017-03-25T07:41:38Z</time>
      </trkpt>
      <trkpt lat="38.214553" lon="-1.961653">
        <ele>706.7</ele>
        <time>2017-03-25T07:41:56Z</time>
      </trkpt>
      <trkpt lat="38.214643" lon="-1.961840">
        <ele>705.3</ele>
        <time>2017-03-25T07:42:09Z</time>
      </trkpt>
      <trkpt lat="38.214781" lon="-1.962039">
        <ele>703.3</ele>
        <time>2017-03-25T07:42:24Z</time>
      </trkpt>
      <trkpt lat="38.214874" lon="-1.962269">
        <ele>701.4</ele>
        <time>2017-03-25T07:42:38Z</time>
      </trkpt>
      <trkpt lat="38.214957" lon="-1.962504">
        <ele>700.9</ele>
        <time>2017-03-25T07:42:53Z</time>
      </trkpt>
      <trkpt lat="38.215062" lon="-1.962777">
        <ele>699.5</ele>
        <time>2017-03-25T07:43:11Z</time>
      </trkpt>
      <trkpt lat="38.215103" lon="-1.963062">
        <ele>699.5</ele>
        <time>2017-03-25T07:43:27Z</time>
      </trkpt>
      <trkpt lat="38.215213" lon="-1.963375">
        <ele>701.9</ele>
        <time>2017-03-25T07:43:47Z</time>
      </trkpt>
      <trkpt lat="38.215322" lon="-1.963626">
        <ele>702.9</ele>
        <time>2017-03-25T07:44:03Z</time>
      </trkpt>
      <trkpt lat="38.215330" lon="-1.963670">
        <ele>703.3</ele>
        <time>2017-03-25T07:44:06Z</time>
      </trkpt>
      <trkpt lat="38.215408" lon="-1.963942">
        <ele>704.3</ele>
        <time>2017-03-25T07:44:23Z</time>
      </trkpt>
      <trkpt lat="38.215494" lon="-1.964167">
        <ele>701.9</ele>
        <time>2017-03-25T07:44:38Z</time>
      </trkpt>
      <trkpt lat="38.215645" lon="-1.964337">
        <ele>701.4</ele>
        <time>2017-03-25T07:44:53Z</time>
      </trkpt>
      <trkpt lat="38.215812" lon="-1.964567">
        <ele>700.5</ele>
        <time>2017-03-25T07:45:09Z</time>
      </trkpt>
      <trkpt lat="38.215822" lon="-1.964584">
        <ele>700.5</ele>
        <time>2017-03-25T07:45:10Z</time>
      </trkpt>
      <trkpt lat="38.215882" lon="-1.964810">
        <ele>700.0</ele>
        <time>2017-03-25T07:45:25Z</time>
      </trkpt>
      <trkpt lat="38.215944" lon="-1.964997">
        <ele>700.0</ele>
        <time>2017-03-25T07:45:37Z</time>
      </trkpt>
      <trkpt lat="38.215988" lon="-1.965124">
        <ele>700.0</ele>
        <time>2017-03-25T07:45:45Z</time>
      </trkpt>
      <trkpt lat="38.215995" lon="-1.965187">
        <ele>699.5</ele>
        <time>2017-03-25T07:45:49Z</time>
      </trkpt>
      <trkpt lat="38.216038" lon="-1.965285">
        <ele>699.5</ele>
        <time>2017-03-25T07:45:55Z</time>
      </trkpt>
      <trkpt lat="38.216122" lon="-1.965466">
        <ele>700.5</ele>
        <time>2017-03-25T07:46:08Z</time>
      </trkpt>
      <trkpt lat="38.216171" lon="-1.965554">
        <ele>700.9</ele>
        <time>2017-03-25T07:46:14Z</time>
      </trkpt>
      <trkpt lat="38.216240" lon="-1.965642">
        <ele>701.4</ele>
        <time>2017-03-25T07:46:21Z</time>
      </trkpt>
      <trkpt lat="38.216291" lon="-1.965731">
        <ele>701.9</ele>
        <time>2017-03-25T07:46:33Z</time>
      </trkpt>
      <trkpt lat="38.216469" lon="-1.965864">
        <ele>704.3</ele>
        <time>2017-03-25T07:46:47Z</time>
      </trkpt>
      <trkpt lat="38.216612" lon="-1.965903">
        <ele>706.2</ele>
        <time>2017-03-25T07:46:59Z</time>
      </trkpt>
      <trkpt lat="38.216731" lon="-1.965948">
        <ele>707.7</ele>
        <time>2017-03-25T07:47:11Z</time>
      </trkpt>
      <trkpt lat="38.216831" lon="-1.965990">
        <ele>708.2</ele>
        <time>2017-03-25T07:47:19Z</time>
      </trkpt>
      <trkpt lat="38.216881" lon="-1.966022">
        <ele>708.6</ele>
        <time>2017-03-25T07:47:23Z</time>
      </trkpt>
      <trkpt lat="38.217079" lon="-1.966103">
        <ele>710.5</ele>
        <time>2017-03-25T07:47:38Z</time>
      </trkpt>
      <trkpt lat="38.217227" lon="-1.966240">
        <ele>710.5</ele>
        <time>2017-03-25T07:47:52Z</time>
      </trkpt>
      <trkpt lat="38.217263" lon="-1.966284">
        <ele>710.5</ele>
        <time>2017-03-25T07:47:56Z</time>
      </trkpt>
      <trkpt lat="38.217314" lon="-1.966510">
        <ele>709.6</ele>
        <time>2017-03-25T07:48:11Z</time>
      </trkpt>
      <trkpt lat="38.217315" lon="-1.966749">
        <ele>708.2</ele>
        <time>2017-03-25T07:48:25Z</time>
      </trkpt>
      <trkpt lat="38.217331" lon="-1.966965">
        <ele>706.7</ele>
        <time>2017-03-25T07:48:38Z</time>
      </trkpt>
      <trkpt lat="38.217311" lon="-1.967253">
        <ele>704.3</ele>
        <time>2017-03-25T07:48:54Z</time>
      </trkpt>
      <trkpt lat="38.217310" lon="-1.967300">
        <ele>704.3</ele>
        <time>2017-03-25T07:48:57Z</time>
      </trkpt>
      <trkpt lat="38.217299" lon="-1.967360">
        <ele>704.3</ele>
        <time>2017-03-25T07:49:01Z</time>
      </trkpt>
      <trkpt lat="38.217289" lon="-1.967423">
        <ele>703.8</ele>
        <time>2017-03-25T07:49:05Z</time>
      </trkpt>
      <trkpt lat="38.217239" lon="-1.967722">
        <ele>702.4</ele>
        <time>2017-03-25T07:49:23Z</time>
      </trkpt>
      <trkpt lat="38.217168" lon="-1.968001">
        <ele>701.4</ele>
        <time>2017-03-25T07:49:40Z</time>
      </trkpt>
      <trkpt lat="38.217109" lon="-1.968081">
        <ele>701.4</ele>
        <time>2017-03-25T07:50:46Z</time>
      </trkpt>
      <trkpt lat="38.217046" lon="-1.968284">
        <ele>701.9</ele>
        <time>2017-03-25T07:51:01Z</time>
      </trkpt>
      <trkpt lat="38.216956" lon="-1.968426">
        <ele>703.3</ele>
        <time>2017-03-25T07:51:14Z</time>
      </trkpt>
      <trkpt lat="38.216853" lon="-1.968610">
        <ele>702.9</ele>
        <time>2017-03-25T07:51:29Z</time>
      </trkpt>
      <trkpt lat="38.216826" lon="-1.968651">
        <ele>702.4</ele>
        <time>2017-03-25T07:51:32Z</time>
      </trkpt>
      <trkpt lat="38.216771" lon="-1.968884">
        <ele>702.4</ele>
        <time>2017-03-25T07:51:47Z</time>
      </trkpt>
      <trkpt lat="38.216765" lon="-1.968915">
        <ele>702.9</ele>
        <time>2017-03-25T07:51:49Z</time>
      </trkpt>
      <trkpt lat="38.216740" lon="-1.969214">
        <ele>703.3</ele>
        <time>2017-03-25T07:52:06Z</time>
      </trkpt>
      <trkpt lat="38.216825" lon="-1.969457">
        <ele>702.9</ele>
        <time>2017-03-25T07:52:21Z</time>
      </trkpt>
      <trkpt lat="38.216925" lon="-1.969620">
        <ele>703.3</ele>
        <time>2017-03-25T07:52:35Z</time>
      </trkpt>
      <trkpt lat="38.217035" lon="-1.969732">
        <ele>703.8</ele>
        <time>2017-03-25T07:53:35Z</time>
      </trkpt>
      <trkpt lat="38.217142" lon="-1.969781">
        <ele>705.3</ele>
        <time>2017-03-25T07:53:45Z</time>
      </trkpt>
      <trkpt lat="38.217201" lon="-1.969820">
        <ele>705.8</ele>
        <time>2017-03-25T07:53:59Z</time>
      </trkpt>
      <trkpt lat="38.217265" lon="-1.969854">
        <ele>706.7</ele>
        <time>2017-03-25T07:54:11Z</time>
      </trkpt>
      <trkpt lat="38.217399" lon="-1.969955">
        <ele>708.2</ele>
        <time>2017-03-25T07:54:20Z</time>
      </trkpt>
      <trkpt lat="38.217537" lon="-1.970053">
        <ele>709.1</ele>
        <time>2017-03-25T07:54:32Z</time>
      </trkpt>
      <trkpt lat="38.217587" lon="-1.970060">
        <ele>709.6</ele>
        <time>2017-03-25T07:54:36Z</time>
      </trkpt>
      <trkpt lat="38.217758" lon="-1.970167">
        <ele>711.5</ele>
        <time>2017-03-25T07:54:50Z</time>
      </trkpt>
      <trkpt lat="38.217927" lon="-1.970226">
        <ele>713.4</ele>
        <time>2017-03-25T07:55:03Z</time>
      </trkpt>
      <trkpt lat="38.218090" lon="-1.970306">
        <ele>714.4</ele>
        <time>2017-03-25T07:55:16Z</time>
      </trkpt>
      <trkpt lat="38.218260" lon="-1.970426">
        <ele>715.8</ele>
        <time>2017-03-25T07:55:31Z</time>
      </trkpt>
      <trkpt lat="38.218373" lon="-1.970511">
        <ele>716.8</ele>
        <time>2017-03-25T07:55:41Z</time>
      </trkpt>
      <trkpt lat="38.218426" lon="-1.970548">
        <ele>717.3</ele>
        <time>2017-03-25T07:55:45Z</time>
      </trkpt>
      <trkpt lat="38.218603" lon="-1.970704">
        <ele>719.7</ele>
        <time>2017-03-25T07:56:01Z</time>
      </trkpt>
      <trkpt lat="38.218653" lon="-1.970793">
        <ele>721.1</ele>
        <time>2017-03-25T07:56:08Z</time>
      </trkpt>
      <trkpt lat="38.218748" lon="-1.970957">
        <ele>724.0</ele>
        <time>2017-03-25T07:56:23Z</time>
      </trkpt>
      <trkpt lat="38.218786" lon="-1.971186">
        <ele>726.4</ele>
        <time>2017-03-25T07:56:36Z</time>
      </trkpt>
      <trkpt lat="38.218724" lon="-1.971314">
        <ele>728.8</ele>
        <time>2017-03-25T07:56:47Z</time>
      </trkpt>
      <trkpt lat="38.218696" lon="-1.971340">
        <ele>729.3</ele>
        <time>2017-03-25T07:56:50Z</time>
      </trkpt>
      <trkpt lat="38.218495" lon="-1.971398">
        <ele>731.7</ele>
        <time>2017-03-25T07:57:05Z</time>
      </trkpt>
      <trkpt lat="38.218305" lon="-1.971463">
        <ele>734.1</ele>
        <time>2017-03-25T07:57:19Z</time>
      </trkpt>
      <trkpt lat="38.218170" lon="-1.971511">
        <ele>736.5</ele>
        <time>2017-03-25T07:57:29Z</time>
      </trkpt>
      <trkpt lat="38.218024" lon="-1.971589">
        <ele>739.4</ele>
        <time>2017-03-25T07:57:42Z</time>
      </trkpt>
      <trkpt lat="38.218005" lon="-1.971621">
        <ele>737.5</ele>
        <time>2017-03-25T07:57:44Z</time>
      </trkpt>
      <trkpt lat="38.217991" lon="-1.971646">
        <ele>737.5</ele>
        <time>2017-03-25T07:57:46Z</time>
      </trkpt>
      <trkpt lat="38.217979" lon="-1.971653">
        <ele>737.0</ele>
        <time>2017-03-25T07:57:47Z</time>
      </trkpt>
      <trkpt lat="38.217928" lon="-1.971672">
        <ele>738.0</ele>
        <time>2017-03-25T07:58:45Z</time>
      </trkpt>
      <trkpt lat="38.217873" lon="-1.971693">
        <ele>738.4</ele>
        <time>2017-03-25T07:58:49Z</time>
      </trkpt>
      <trkpt lat="38.217861" lon="-1.971693">
        <ele>738.0</ele>
        <time>2017-03-25T07:58:50Z</time>
      </trkpt>
      <trkpt lat="38.217805" lon="-1.971707">
        <ele>736.0</ele>
        <time>2017-03-25T07:58:55Z</time>
      </trkpt>
      <trkpt lat="38.217794" lon="-1.971710">
        <ele>739.9</ele>
        <time>2017-03-25T07:58:56Z</time>
      </trkpt>
      <trkpt lat="38.217742" lon="-1.971698">
        <ele>738.4</ele>
        <time>2017-03-25T07:59:00Z</time>
      </trkpt>
      <trkpt lat="38.217526" lon="-1.971683">
        <ele>738.4</ele>
        <time>2017-03-25T07:59:57Z</time>
      </trkpt>
      <trkpt lat="38.217500" lon="-1.971656">
        <ele>738.9</ele>
        <time>2017-03-25T07:59:59Z</time>
      </trkpt>
      <trkpt lat="38.217486" lon="-1.971645">
        <ele>739.4</ele>
        <time>2017-03-25T08:00:00Z</time>
      </trkpt>
      <trkpt lat="38.217401" lon="-1.971697">
        <ele>738.9</ele>
        <time>2017-03-25T08:00:07Z</time>
      </trkpt>
      <trkpt lat="38.217396" lon="-1.971715">
        <ele>738.9</ele>
        <time>2017-03-25T08:00:08Z</time>
      </trkpt>
      <trkpt lat="38.217390" lon="-1.971734">
        <ele>738.9</ele>
        <time>2017-03-25T08:00:09Z</time>
      </trkpt>
      <trkpt lat="38.217384" lon="-1.971752">
        <ele>739.4</ele>
        <time>2017-03-25T08:00:10Z</time>
      </trkpt>
      <trkpt lat="38.217380" lon="-1.971770">
        <ele>738.9</ele>
        <time>2017-03-25T08:00:11Z</time>
      </trkpt>
      <trkpt lat="38.217376" lon="-1.971788">
        <ele>739.4</ele>
        <time>2017-03-25T08:00:12Z</time>
      </trkpt>
      <trkpt lat="38.217371" lon="-1.971807">
        <ele>739.9</ele>
        <time>2017-03-25T08:00:13Z</time>
      </trkpt>
      <trkpt lat="38.217366" lon="-1.971825">
        <ele>739.4</ele>
        <time>2017-03-25T08:00:14Z</time>
      </trkpt>
      <trkpt lat="38.217360" lon="-1.971847">
        <ele>739.4</ele>
        <time>2017-03-25T08:00:15Z</time>
      </trkpt>
      <trkpt lat="38.217359" lon="-1.971864">
        <ele>739.9</ele>
        <time>2017-03-25T08:00:16Z</time>
      </trkpt>
      <trkpt lat="38.217327" lon="-1.972095">
        <ele>742.8</ele>
        <time>2017-03-25T08:00:30Z</time>
      </trkpt>
      <trkpt lat="38.217318" lon="-1.972119">
        <ele>742.8</ele>
        <time>2017-03-25T08:00:32Z</time>
      </trkpt>
      <trkpt lat="38.217240" lon="-1.972356">
        <ele>744.2</ele>
        <time>2017-03-25T08:00:49Z</time>
      </trkpt>
      <trkpt lat="38.217242" lon="-1.972545">
        <ele>744.7</ele>
        <time>2017-03-25T08:01:03Z</time>
      </trkpt>
      <trkpt lat="38.217242" lon="-1.972575">
        <ele>744.2</ele>
        <time>2017-03-25T08:01:16Z</time>
      </trkpt>
      <trkpt lat="38.217261" lon="-1.972548">
        <ele>745.2</ele>
        <time>2017-03-25T08:01:33Z</time>
      </trkpt>
      <trkpt lat="38.217251" lon="-1.972548">
        <ele>744.7</ele>
        <time>2017-03-25T08:01:39Z</time>
      </trkpt>
      <trkpt lat="38.217257" lon="-1.972524">
        <ele>745.2</ele>
        <time>2017-03-25T08:01:40Z</time>
      </trkpt>
      <trkpt lat="38.217257" lon="-1.972500">
        <ele>744.7</ele>
        <time>2017-03-25T08:01:41Z</time>
      </trkpt>
      <trkpt lat="38.217223" lon="-1.972507">
        <ele>744.7</ele>
        <time>2017-03-25T08:01:53Z</time>
      </trkpt>
      <trkpt lat="38.217249" lon="-1.972598">
        <ele>744.7</ele>
        <time>2017-03-25T08:02:07Z</time>
      </trkpt>
      <trkpt lat="38.217245" lon="-1.972665">
        <ele>744.7</ele>
        <time>2017-03-25T08:02:23Z</time>
      </trkpt>
      <trkpt lat="38.217247" lon="-1.972681">
        <ele>745.2</ele>
        <time>2017-03-25T08:02:25Z</time>
      </trkpt>
      <trkpt lat="38.217235" lon="-1.972854">
        <ele>746.1</ele>
        <time>2017-03-25T08:02:41Z</time>
      </trkpt>
      <trkpt lat="38.217242" lon="-1.972964">
        <ele>746.6</ele>
        <time>2017-03-25T08:02:48Z</time>
      </trkpt>
      <trkpt lat="38.217261" lon="-1.973214">
        <ele>747.1</ele>
        <time>2017-03-25T08:03:02Z</time>
      </trkpt>
      <trkpt lat="38.217229" lon="-1.973429">
        <ele>747.6</ele>
        <time>2017-03-25T08:03:16Z</time>
      </trkpt>
      <trkpt lat="38.217107" lon="-1.973651">
        <ele>747.1</ele>
        <time>2017-03-25T08:03:32Z</time>
      </trkpt>
      <trkpt lat="38.217037" lon="-1.973748">
        <ele>746.1</ele>
        <time>2017-03-25T08:03:40Z</time>
      </trkpt>
      <trkpt lat="38.217028" lon="-1.973759">
        <ele>747.6</ele>
        <time>2017-03-25T08:03:41Z</time>
      </trkpt>
      <trkpt lat="38.217020" lon="-1.973769">
        <ele>746.6</ele>
        <time>2017-03-25T08:03:42Z</time>
      </trkpt>
      <trkpt lat="38.217011" lon="-1.973777">
        <ele>742.8</ele>
        <time>2017-03-25T08:03:43Z</time>
      </trkpt>
      <trkpt lat="38.217002" lon="-1.973784">
        <ele>752.4</ele>
        <time>2017-03-25T08:03:44Z</time>
      </trkpt>
      <trkpt lat="38.216991" lon="-1.973792">
        <ele>750.5</ele>
        <time>2017-03-25T08:03:45Z</time>
      </trkpt>
      <trkpt lat="38.216981" lon="-1.973797">
        <ele>748.0</ele>
        <time>2017-03-25T08:03:46Z</time>
      </trkpt>
      <trkpt lat="38.216846" lon="-1.973875">
        <ele>748.5</ele>
        <time>2017-03-25T08:04:01Z</time>
      </trkpt>
      <trkpt lat="38.216654" lon="-1.973893">
        <ele>750.0</ele>
        <time>2017-03-25T08:04:20Z</time>
      </trkpt>
      <trkpt lat="38.216641" lon="-1.973893">
        <ele>750.0</ele>
        <time>2017-03-25T08:04:21Z</time>
      </trkpt>
      <trkpt lat="38.216540" lon="-1.973942">
        <ele>750.9</ele>
        <time>2017-03-25T08:04:29Z</time>
      </trkpt>
      <trkpt lat="38.216531" lon="-1.973956">
        <ele>751.4</ele>
        <time>2017-03-25T08:04:30Z</time>
      </trkpt>
      <trkpt lat="38.216523" lon="-1.973972">
        <ele>751.4</ele>
        <time>2017-03-25T08:04:31Z</time>
      </trkpt>
      <trkpt lat="38.216397" lon="-1.974250">
        <ele>752.8</ele>
        <time>2017-03-25T08:04:52Z</time>
      </trkpt>
      <trkpt lat="38.216286" lon="-1.974414">
        <ele>753.8</ele>
        <time>2017-03-25T08:05:04Z</time>
      </trkpt>
      <trkpt lat="38.216198" lon="-1.974539">
        <ele>753.8</ele>
        <time>2017-03-25T08:05:20Z</time>
      </trkpt>
      <trkpt lat="38.216068" lon="-1.974688">
        <ele>754.8</ele>
        <time>2017-03-25T08:05:48Z</time>
      </trkpt>
      <trkpt lat="38.216059" lon="-1.974692">
        <ele>754.3</ele>
        <time>2017-03-25T08:05:50Z</time>
      </trkpt>
      <trkpt lat="38.216046" lon="-1.974699">
        <ele>753.3</ele>
        <time>2017-03-25T08:05:51Z</time>
      </trkpt>
      <trkpt lat="38.216030" lon="-1.974708">
        <ele>755.2</ele>
        <time>2017-03-25T08:05:52Z</time>
      </trkpt>
      <trkpt lat="38.216017" lon="-1.974718">
        <ele>755.7</ele>
        <time>2017-03-25T08:05:53Z</time>
      </trkpt>
      <trkpt lat="38.216007" lon="-1.974728">
        <ele>754.8</ele>
        <time>2017-03-25T08:05:54Z</time>
      </trkpt>
      <trkpt lat="38.215995" lon="-1.974741">
        <ele>754.8</ele>
        <time>2017-03-25T08:05:55Z</time>
      </trkpt>
      <trkpt lat="38.215984" lon="-1.974753">
        <ele>754.3</ele>
        <time>2017-03-25T08:05:56Z</time>
      </trkpt>
      <trkpt lat="38.215972" lon="-1.974764">
        <ele>753.8</ele>
        <time>2017-03-25T08:05:57Z</time>
      </trkpt>
      <trkpt lat="38.215960" lon="-1.974776">
        <ele>754.8</ele>
        <time>2017-03-25T08:05:58Z</time>
      </trkpt>
      <trkpt lat="38.215876" lon="-1.975090">
        <ele>753.8</ele>
        <time>2017-03-25T08:06:14Z</time>
      </trkpt>
      <trkpt lat="38.215881" lon="-1.975269">
        <ele>753.8</ele>
        <time>2017-03-25T08:06:23Z</time>
      </trkpt>
      <trkpt lat="38.215881" lon="-1.975298">
        <ele>753.8</ele>
        <time>2017-03-25T08:06:28Z</time>
      </trkpt>
      <trkpt lat="38.215875" lon="-1.975314">
        <ele>754.3</ele>
        <time>2017-03-25T08:06:29Z</time>
      </trkpt>
      <trkpt lat="38.215870" lon="-1.975336">
        <ele>754.3</ele>
        <time>2017-03-25T08:06:30Z</time>
      </trkpt>
      <trkpt lat="38.215868" lon="-1.975359">
        <ele>754.3</ele>
        <time>2017-03-25T08:06:31Z</time>
      </trkpt>
      <trkpt lat="38.215865" lon="-1.975380">
        <ele>754.3</ele>
        <time>2017-03-25T08:06:32Z</time>
      </trkpt>
      <trkpt lat="38.215858" lon="-1.975400">
        <ele>754.3</ele>
        <time>2017-03-25T08:06:33Z</time>
      </trkpt>
      <trkpt lat="38.215851" lon="-1.975419">
        <ele>753.8</ele>
        <time>2017-03-25T08:06:34Z</time>
      </trkpt>
      <trkpt lat="38.215845" lon="-1.975435">
        <ele>753.8</ele>
        <time>2017-03-25T08:06:35Z</time>
      </trkpt>
      <trkpt lat="38.215843" lon="-1.975538">
        <ele>752.4</ele>
        <time>2017-03-25T08:06:40Z</time>
      </trkpt>
      <trkpt lat="38.215845" lon="-1.975558">
        <ele>756.2</ele>
        <time>2017-03-25T08:06:41Z</time>
      </trkpt>
      <trkpt lat="38.215846" lon="-1.975577">
        <ele>753.8</ele>
        <time>2017-03-25T08:06:42Z</time>
      </trkpt>
      <trkpt lat="38.215842" lon="-1.975712">
        <ele>753.8</ele>
        <time>2017-03-25T08:06:50Z</time>
      </trkpt>
      <trkpt lat="38.215850" lon="-1.975750">
        <ele>753.8</ele>
        <time>2017-03-25T08:06:59Z</time>
      </trkpt>
      <trkpt lat="38.215845" lon="-1.975769">
        <ele>754.3</ele>
        <time>2017-03-25T08:07:00Z</time>
      </trkpt>
      <trkpt lat="38.215846" lon="-1.975789">
        <ele>754.3</ele>
        <time>2017-03-25T08:07:01Z</time>
      </trkpt>
      <trkpt lat="38.215847" lon="-1.975808">
        <ele>753.8</ele>
        <time>2017-03-25T08:07:02Z</time>
      </trkpt>
      <trkpt lat="38.215846" lon="-1.975827">
        <ele>754.3</ele>
        <time>2017-03-25T08:07:03Z</time>
      </trkpt>
      <trkpt lat="38.215845" lon="-1.975849">
        <ele>753.8</ele>
        <time>2017-03-25T08:07:04Z</time>
      </trkpt>
      <trkpt lat="38.215849" lon="-1.975870">
        <ele>754.8</ele>
        <time>2017-03-25T08:07:05Z</time>
      </trkpt>
      <trkpt lat="38.215853" lon="-1.975889">
        <ele>754.3</ele>
        <time>2017-03-25T08:07:06Z</time>
      </trkpt>
      <trkpt lat="38.215858" lon="-1.975912">
        <ele>754.3</ele>
        <time>2017-03-25T08:07:09Z</time>
      </trkpt>
      <trkpt lat="38.215855" lon="-1.975928">
        <ele>754.8</ele>
        <time>2017-03-25T08:07:10Z</time>
      </trkpt>
      <trkpt lat="38.215845" lon="-1.975939">
        <ele>754.3</ele>
        <time>2017-03-25T08:07:18Z</time>
      </trkpt>
      <trkpt lat="38.215850" lon="-1.975974">
        <ele>754.8</ele>
        <time>2017-03-25T08:07:21Z</time>
      </trkpt>
      <trkpt lat="38.215851" lon="-1.975998">
        <ele>754.8</ele>
        <time>2017-03-25T08:07:22Z</time>
      </trkpt>
      <trkpt lat="38.215851" lon="-1.976023">
        <ele>754.8</ele>
        <time>2017-03-25T08:07:23Z</time>
      </trkpt>
      <trkpt lat="38.215851" lon="-1.976046">
        <ele>754.8</ele>
        <time>2017-03-25T08:07:24Z</time>
      </trkpt>
      <trkpt lat="38.215849" lon="-1.976067">
        <ele>754.8</ele>
        <time>2017-03-25T08:07:25Z</time>
      </trkpt>
      <trkpt lat="38.215849" lon="-1.976084">
        <ele>755.2</ele>
        <time>2017-03-25T08:07:26Z</time>
      </trkpt>
      <trkpt lat="38.215850" lon="-1.976104">
        <ele>755.2</ele>
        <time>2017-03-25T08:07:27Z</time>
      </trkpt>
      <trkpt lat="38.215847" lon="-1.976207">
        <ele>756.7</ele>
        <time>2017-03-25T08:07:33Z</time>
      </trkpt>
      <trkpt lat="38.215828" lon="-1.976421">
        <ele>753.3</ele>
        <time>2017-03-25T08:07:44Z</time>
      </trkpt>
      <trkpt lat="38.215826" lon="-1.976437">
        <ele>754.3</ele>
        <time>2017-03-25T08:07:45Z</time>
      </trkpt>
      <trkpt lat="38.215824" lon="-1.976454">
        <ele>761.5</ele>
        <time>2017-03-25T08:07:46Z</time>
      </trkpt>
      <trkpt lat="38.215822" lon="-1.976477">
        <ele>762.0</ele>
        <time>2017-03-25T08:07:47Z</time>
      </trkpt>
      <trkpt lat="38.215816" lon="-1.976500">
        <ele>758.1</ele>
        <time>2017-03-25T08:07:48Z</time>
      </trkpt>
      <trkpt lat="38.215810" lon="-1.976518">
        <ele>758.1</ele>
        <time>2017-03-25T08:07:49Z</time>
      </trkpt>
      <trkpt lat="38.215783" lon="-1.976613">
        <ele>758.6</ele>
        <time>2017-03-25T08:07:54Z</time>
      </trkpt>
      <trkpt lat="38.215671" lon="-1.976853">
        <ele>759.6</ele>
        <time>2017-03-25T08:08:08Z</time>
      </trkpt>
      <trkpt lat="38.215663" lon="-1.976873">
        <ele>760.1</ele>
        <time>2017-03-25T08:08:09Z</time>
      </trkpt>
      <trkpt lat="38.215655" lon="-1.976889">
        <ele>760.1</ele>
        <time>2017-03-25T08:08:10Z</time>
      </trkpt>
      <trkpt lat="38.215648" lon="-1.976901">
        <ele>757.7</ele>
        <time>2017-03-25T08:08:11Z</time>
      </trkpt>
      <trkpt lat="38.215636" lon="-1.976915">
        <ele>762.5</ele>
        <time>2017-03-25T08:08:12Z</time>
      </trkpt>
      <trkpt lat="38.215580" lon="-1.977033">
        <ele>762.0</ele>
        <time>2017-03-25T08:08:25Z</time>
      </trkpt>
      <trkpt lat="38.215570" lon="-1.977045">
        <ele>761.5</ele>
        <time>2017-03-25T08:08:26Z</time>
      </trkpt>
      <trkpt lat="38.215562" lon="-1.977062">
        <ele>761.5</ele>
        <time>2017-03-25T08:08:27Z</time>
      </trkpt>
      <trkpt lat="38.215552" lon="-1.977080">
        <ele>762.0</ele>
        <time>2017-03-25T08:08:28Z</time>
      </trkpt>
      <trkpt lat="38.215543" lon="-1.977097">
        <ele>762.5</ele>
        <time>2017-03-25T08:08:29Z</time>
      </trkpt>
      <trkpt lat="38.215536" lon="-1.977115">
        <ele>762.0</ele>
        <time>2017-03-25T08:08:30Z</time>
      </trkpt>
      <trkpt lat="38.215529" lon="-1.977131">
        <ele>762.5</ele>
        <time>2017-03-25T08:08:31Z</time>
      </trkpt>
      <trkpt lat="38.215521" lon="-1.977150">
        <ele>762.5</ele>
        <time>2017-03-25T08:08:32Z</time>
      </trkpt>
      <trkpt lat="38.215491" lon="-1.977193">
        <ele>762.9</ele>
        <time>2017-03-25T08:08:35Z</time>
      </trkpt>
      <trkpt lat="38.215440" lon="-1.977289">
        <ele>763.9</ele>
        <time>2017-03-25T08:08:42Z</time>
      </trkpt>
      <trkpt lat="38.215379" lon="-1.977398">
        <ele>765.3</ele>
        <time>2017-03-25T08:08:50Z</time>
      </trkpt>
      <trkpt lat="38.215374" lon="-1.977411">
        <ele>765.8</ele>
        <time>2017-03-25T08:08:51Z</time>
      </trkpt>
      <trkpt lat="38.215369" lon="-1.977425">
        <ele>766.3</ele>
        <time>2017-03-25T08:08:52Z</time>
      </trkpt>
      <trkpt lat="38.215364" lon="-1.977438">
        <ele>766.3</ele>
        <time>2017-03-25T08:08:53Z</time>
      </trkpt>
      <trkpt lat="38.215355" lon="-1.977449">
        <ele>765.8</ele>
        <time>2017-03-25T08:08:54Z</time>
      </trkpt>
      <trkpt lat="38.215345" lon="-1.977461">
        <ele>766.3</ele>
        <time>2017-03-25T08:08:55Z</time>
      </trkpt>
      <trkpt lat="38.215260" lon="-1.977612">
        <ele>768.7</ele>
        <time>2017-03-25T08:09:07Z</time>
      </trkpt>
      <trkpt lat="38.215210" lon="-1.977730">
        <ele>769.7</ele>
        <time>2017-03-25T08:09:16Z</time>
      </trkpt>
      <trkpt lat="38.215169" lon="-1.977875">
        <ele>771.1</ele>
        <time>2017-03-25T08:09:27Z</time>
      </trkpt>
      <trkpt lat="38.215163" lon="-1.977889">
        <ele>771.1</ele>
        <time>2017-03-25T08:09:28Z</time>
      </trkpt>
      <trkpt lat="38.215156" lon="-1.977907">
        <ele>771.6</ele>
        <time>2017-03-25T08:09:29Z</time>
      </trkpt>
      <trkpt lat="38.215120" lon="-1.978103">
        <ele>771.6</ele>
        <time>2017-03-25T08:09:43Z</time>
      </trkpt>
      <trkpt lat="38.215117" lon="-1.978207">
        <ele>770.6</ele>
        <time>2017-03-25T08:09:51Z</time>
      </trkpt>
      <trkpt lat="38.215119" lon="-1.978224">
        <ele>770.2</ele>
        <time>2017-03-25T08:09:52Z</time>
      </trkpt>
      <trkpt lat="38.215114" lon="-1.978240">
        <ele>770.6</ele>
        <time>2017-03-25T08:09:53Z</time>
      </trkpt>
      <trkpt lat="38.215111" lon="-1.978257">
        <ele>770.6</ele>
        <time>2017-03-25T08:09:54Z</time>
      </trkpt>
      <trkpt lat="38.215108" lon="-1.978275">
        <ele>770.2</ele>
        <time>2017-03-25T08:09:55Z</time>
      </trkpt>
      <trkpt lat="38.215102" lon="-1.978294">
        <ele>770.2</ele>
        <time>2017-03-25T08:09:56Z</time>
      </trkpt>
      <trkpt lat="38.215095" lon="-1.978312">
        <ele>770.2</ele>
        <time>2017-03-25T08:09:57Z</time>
      </trkpt>
      <trkpt lat="38.215085" lon="-1.978437">
        <ele>769.7</ele>
        <time>2017-03-25T08:10:08Z</time>
      </trkpt>
      <trkpt lat="38.215040" lon="-1.978718">
        <ele>769.7</ele>
        <time>2017-03-25T08:10:22Z</time>
      </trkpt>
      <trkpt lat="38.215008" lon="-1.978887">
        <ele>770.2</ele>
        <time>2017-03-25T08:10:34Z</time>
      </trkpt>
      <trkpt lat="38.214969" lon="-1.978970">
        <ele>769.7</ele>
        <time>2017-03-25T08:10:44Z</time>
      </trkpt>
      <trkpt lat="38.214931" lon="-1.979051">
        <ele>770.2</ele>
        <time>2017-03-25T08:10:54Z</time>
      </trkpt>
      <trkpt lat="38.214843" lon="-1.979239">
        <ele>771.1</ele>
        <time>2017-03-25T08:11:07Z</time>
      </trkpt>
      <trkpt lat="38.214809" lon="-1.979271">
        <ele>771.1</ele>
        <time>2017-03-25T08:11:11Z</time>
      </trkpt>
      <trkpt lat="38.214800" lon="-1.979284">
        <ele>771.6</ele>
        <time>2017-03-25T08:11:12Z</time>
      </trkpt>
      <trkpt lat="38.214648" lon="-1.979501">
        <ele>775.0</ele>
        <time>2017-03-25T08:11:28Z</time>
      </trkpt>
      <trkpt lat="38.214635" lon="-1.979512">
        <ele>774.0</ele>
        <time>2017-03-25T08:11:29Z</time>
      </trkpt>
      <trkpt lat="38.214615" lon="-1.979536">
        <ele>773.0</ele>
        <time>2017-03-25T08:11:31Z</time>
      </trkpt>
      <trkpt lat="38.214555" lon="-1.979580">
        <ele>773.5</ele>
        <time>2017-03-25T08:11:36Z</time>
      </trkpt>
      <trkpt lat="38.214543" lon="-1.979585">
        <ele>773.5</ele>
        <time>2017-03-25T08:11:37Z</time>
      </trkpt>
      <trkpt lat="38.214530" lon="-1.979588">
        <ele>774.0</ele>
        <time>2017-03-25T08:11:38Z</time>
      </trkpt>
      <trkpt lat="38.214518" lon="-1.979593">
        <ele>774.0</ele>
        <time>2017-03-25T08:11:39Z</time>
      </trkpt>
      <trkpt lat="38.214411" lon="-1.979724">
        <ele>775.0</ele>
        <time>2017-03-25T08:11:51Z</time>
      </trkpt>
      <trkpt lat="38.214400" lon="-1.979734">
        <ele>775.4</ele>
        <time>2017-03-25T08:11:52Z</time>
      </trkpt>
      <trkpt lat="38.214386" lon="-1.979742">
        <ele>774.5</ele>
        <time>2017-03-25T08:11:53Z</time>
      </trkpt>
      <trkpt lat="38.214315" lon="-1.979833">
        <ele>775.4</ele>
        <time>2017-03-25T08:12:00Z</time>
      </trkpt>
      <trkpt lat="38.214232" lon="-1.980041">
        <ele>776.4</ele>
        <time>2017-03-25T08:12:14Z</time>
      </trkpt>
      <trkpt lat="38.214196" lon="-1.980111">
        <ele>776.4</ele>
        <time>2017-03-25T08:12:19Z</time>
      </trkpt>
      <trkpt lat="38.214189" lon="-1.980126">
        <ele>775.9</ele>
        <time>2017-03-25T08:12:20Z</time>
      </trkpt>
      <trkpt lat="38.214183" lon="-1.980139">
        <ele>775.9</ele>
        <time>2017-03-25T08:12:21Z</time>
      </trkpt>
      <trkpt lat="38.214177" lon="-1.980155">
        <ele>775.9</ele>
        <time>2017-03-25T08:12:22Z</time>
      </trkpt>
      <trkpt lat="38.214156" lon="-1.980430">
        <ele>776.4</ele>
        <time>2017-03-25T08:12:38Z</time>
      </trkpt>
      <trkpt lat="38.214172" lon="-1.980650">
        <ele>776.4</ele>
        <time>2017-03-25T08:12:51Z</time>
      </trkpt>
      <trkpt lat="38.214139" lon="-1.980965">
        <ele>777.4</ele>
        <time>2017-03-25T08:13:09Z</time>
      </trkpt>
      <trkpt lat="38.214137" lon="-1.980989">
        <ele>777.8</ele>
        <time>2017-03-25T08:13:10Z</time>
      </trkpt>
      <trkpt lat="38.214135" lon="-1.981007">
        <ele>777.4</ele>
        <time>2017-03-25T08:13:11Z</time>
      </trkpt>
      <trkpt lat="38.214136" lon="-1.981026">
        <ele>777.4</ele>
        <time>2017-03-25T08:13:12Z</time>
      </trkpt>
      <trkpt lat="38.214136" lon="-1.981046">
        <ele>777.4</ele>
        <time>2017-03-25T08:13:13Z</time>
      </trkpt>
      <trkpt lat="38.214133" lon="-1.981065">
        <ele>777.8</ele>
        <time>2017-03-25T08:13:14Z</time>
      </trkpt>
      <trkpt lat="38.214113" lon="-1.981263">
        <ele>778.3</ele>
        <time>2017-03-25T08:13:25Z</time>
      </trkpt>
      <trkpt lat="38.214090" lon="-1.981324">
        <ele>778.3</ele>
        <time>2017-03-25T08:13:29Z</time>
      </trkpt>
      <trkpt lat="38.214085" lon="-1.981339">
        <ele>778.3</ele>
        <time>2017-03-25T08:13:30Z</time>
      </trkpt>
      <trkpt lat="38.213995" lon="-1.981497">
        <ele>778.8</ele>
        <time>2017-03-25T08:13:43Z</time>
      </trkpt>
      <trkpt lat="38.213980" lon="-1.981500">
        <ele>778.8</ele>
        <time>2017-03-25T08:13:44Z</time>
      </trkpt>
      <trkpt lat="38.213860" lon="-1.981474">
        <ele>779.3</ele>
        <time>2017-03-25T08:13:52Z</time>
      </trkpt>
      <trkpt lat="38.213846" lon="-1.981478">
        <ele>778.8</ele>
        <time>2017-03-25T08:13:53Z</time>
      </trkpt>
      <trkpt lat="38.213828" lon="-1.981479">
        <ele>778.8</ele>
        <time>2017-03-25T08:13:54Z</time>
      </trkpt>
      <trkpt lat="38.213808" lon="-1.981477">
        <ele>779.3</ele>
        <time>2017-03-25T08:13:55Z</time>
      </trkpt>
      <trkpt lat="38.213793" lon="-1.981481">
        <ele>779.8</ele>
        <time>2017-03-25T08:13:56Z</time>
      </trkpt>
      <trkpt lat="38.213780" lon="-1.981491">
        <ele>779.8</ele>
        <time>2017-03-25T08:13:57Z</time>
      </trkpt>
      <trkpt lat="38.213769" lon="-1.981505">
        <ele>779.8</ele>
        <time>2017-03-25T08:13:58Z</time>
      </trkpt>
      <trkpt lat="38.213646" lon="-1.981719">
        <ele>781.2</ele>
        <time>2017-03-25T08:14:12Z</time>
      </trkpt>
      <trkpt lat="38.213513" lon="-1.981909">
        <ele>784.1</ele>
        <time>2017-03-25T08:14:25Z</time>
      </trkpt>
      <trkpt lat="38.213370" lon="-1.982031">
        <ele>787.0</ele>
        <time>2017-03-25T08:14:38Z</time>
      </trkpt>
      <trkpt lat="38.213257" lon="-1.982095">
        <ele>788.4</ele>
        <time>2017-03-25T08:14:47Z</time>
      </trkpt>
      <trkpt lat="38.213247" lon="-1.982105">
        <ele>788.4</ele>
        <time>2017-03-25T08:14:48Z</time>
      </trkpt>
      <trkpt lat="38.213234" lon="-1.982112">
        <ele>788.4</ele>
        <time>2017-03-25T08:14:49Z</time>
      </trkpt>
      <trkpt lat="38.213221" lon="-1.982119">
        <ele>789.4</ele>
        <time>2017-03-25T08:14:50Z</time>
      </trkpt>
      <trkpt lat="38.213205" lon="-1.982124">
        <ele>788.4</ele>
        <time>2017-03-25T08:14:51Z</time>
      </trkpt>
      <trkpt lat="38.213186" lon="-1.982123">
        <ele>788.9</ele>
        <time>2017-03-25T08:14:52Z</time>
      </trkpt>
      <trkpt lat="38.213173" lon="-1.982130">
        <ele>789.9</ele>
        <time>2017-03-25T08:14:53Z</time>
      </trkpt>
      <trkpt lat="38.213157" lon="-1.982137">
        <ele>789.9</ele>
        <time>2017-03-25T08:14:54Z</time>
      </trkpt>
      <trkpt lat="38.212980" lon="-1.982198">
        <ele>791.3</ele>
        <time>2017-03-25T08:15:07Z</time>
      </trkpt>
      <trkpt lat="38.212969" lon="-1.982209">
        <ele>791.3</ele>
        <time>2017-03-25T08:15:08Z</time>
      </trkpt>
      <trkpt lat="38.212955" lon="-1.982218">
        <ele>791.3</ele>
        <time>2017-03-25T08:15:09Z</time>
      </trkpt>
      <trkpt lat="38.212938" lon="-1.982232">
        <ele>791.3</ele>
        <time>2017-03-25T08:15:10Z</time>
      </trkpt>
      <trkpt lat="38.212924" lon="-1.982248">
        <ele>791.8</ele>
        <time>2017-03-25T08:15:11Z</time>
      </trkpt>
      <trkpt lat="38.212780" lon="-1.982445">
        <ele>792.3</ele>
        <time>2017-03-25T08:15:25Z</time>
      </trkpt>
      <trkpt lat="38.212772" lon="-1.982466">
        <ele>793.2</ele>
        <time>2017-03-25T08:15:26Z</time>
      </trkpt>
      <trkpt lat="38.212763" lon="-1.982486">
        <ele>792.3</ele>
        <time>2017-03-25T08:15:27Z</time>
      </trkpt>
      <trkpt lat="38.212753" lon="-1.982505">
        <ele>793.2</ele>
        <time>2017-03-25T08:15:28Z</time>
      </trkpt>
      <trkpt lat="38.212746" lon="-1.982527">
        <ele>792.7</ele>
        <time>2017-03-25T08:15:29Z</time>
      </trkpt>
      <trkpt lat="38.212740" lon="-1.982547">
        <ele>793.2</ele>
        <time>2017-03-25T08:15:30Z</time>
      </trkpt>
      <trkpt lat="38.212693" lon="-1.982701">
        <ele>793.2</ele>
        <time>2017-03-25T08:15:38Z</time>
      </trkpt>
      <trkpt lat="38.212694" lon="-1.982720">
        <ele>793.7</ele>
        <time>2017-03-25T08:15:39Z</time>
      </trkpt>
      <trkpt lat="38.212693" lon="-1.982740">
        <ele>793.7</ele>
        <time>2017-03-25T08:15:40Z</time>
      </trkpt>
      <trkpt lat="38.212654" lon="-1.983026">
        <ele>794.2</ele>
        <time>2017-03-25T08:15:55Z</time>
      </trkpt>
      <trkpt lat="38.212632" lon="-1.983093">
        <ele>794.2</ele>
        <time>2017-03-25T08:15:59Z</time>
      </trkpt>
      <trkpt lat="38.212626" lon="-1.983108">
        <ele>794.2</ele>
        <time>2017-03-25T08:16:00Z</time>
      </trkpt>
      <trkpt lat="38.212525" lon="-1.983280">
        <ele>794.7</ele>
        <time>2017-03-25T08:16:13Z</time>
      </trkpt>
      <trkpt lat="38.212513" lon="-1.983286">
        <ele>795.2</ele>
        <time>2017-03-25T08:16:14Z</time>
      </trkpt>
      <trkpt lat="38.212258" lon="-1.983408">
        <ele>798.0</ele>
        <time>2017-03-25T08:16:32Z</time>
      </trkpt>
      <trkpt lat="38.212009" lon="-1.983467">
        <ele>799.0</ele>
        <time>2017-03-25T08:16:49Z</time>
      </trkpt>
      <trkpt lat="38.211827" lon="-1.983598">
        <ele>799.5</ele>
        <time>2017-03-25T08:17:03Z</time>
      </trkpt>
      <trkpt lat="38.211795" lon="-1.983629">
        <ele>799.0</ele>
        <time>2017-03-25T08:17:06Z</time>
      </trkpt>
      <trkpt lat="38.211782" lon="-1.983631">
        <ele>799.0</ele>
        <time>2017-03-25T08:17:07Z</time>
      </trkpt>
      <trkpt lat="38.211770" lon="-1.983631">
        <ele>799.5</ele>
        <time>2017-03-25T08:17:08Z</time>
      </trkpt>
      <trkpt lat="38.211748" lon="-1.983639">
        <ele>799.5</ele>
        <time>2017-03-25T08:17:10Z</time>
      </trkpt>
      <trkpt lat="38.211693" lon="-1.983678">
        <ele>799.5</ele>
        <time>2017-03-25T08:17:15Z</time>
      </trkpt>
      <trkpt lat="38.211545" lon="-1.983638">
        <ele>800.0</ele>
        <time>2017-03-25T08:17:26Z</time>
      </trkpt>
      <trkpt lat="38.211474" lon="-1.983626">
        <ele>800.4</ele>
        <time>2017-03-25T08:17:32Z</time>
      </trkpt>
      <trkpt lat="38.211337" lon="-1.983584">
        <ele>801.4</ele>
        <time>2017-03-25T08:17:42Z</time>
      </trkpt>
      <trkpt lat="38.211325" lon="-1.983573">
        <ele>801.4</ele>
        <time>2017-03-25T08:17:43Z</time>
      </trkpt>
      <trkpt lat="38.211310" lon="-1.983559">
        <ele>800.9</ele>
        <time>2017-03-25T08:17:44Z</time>
      </trkpt>
      <trkpt lat="38.211160" lon="-1.983481">
        <ele>801.9</ele>
        <time>2017-03-25T08:17:56Z</time>
      </trkpt>
      <trkpt lat="38.211145" lon="-1.983482">
        <ele>802.4</ele>
        <time>2017-03-25T08:17:57Z</time>
      </trkpt>
      <trkpt lat="38.211125" lon="-1.983484">
        <ele>802.4</ele>
        <time>2017-03-25T08:17:58Z</time>
      </trkpt>
      <trkpt lat="38.211107" lon="-1.983484">
        <ele>802.4</ele>
        <time>2017-03-25T08:17:59Z</time>
      </trkpt>
      <trkpt lat="38.211089" lon="-1.983486">
        <ele>802.4</ele>
        <time>2017-03-25T08:18:00Z</time>
      </trkpt>
      <trkpt lat="38.211075" lon="-1.983487">
        <ele>802.4</ele>
        <time>2017-03-25T08:18:01Z</time>
      </trkpt>
      <trkpt lat="38.211062" lon="-1.983491">
        <ele>802.8</ele>
        <time>2017-03-25T08:18:02Z</time>
      </trkpt>
      <trkpt lat="38.210987" lon="-1.983494">
        <ele>803.3</ele>
        <time>2017-03-25T08:18:08Z</time>
      </trkpt>
      <trkpt lat="38.210805" lon="-1.983545">
        <ele>804.8</ele>
        <time>2017-03-25T08:18:23Z</time>
      </trkpt>
      <trkpt lat="38.210760" lon="-1.983567">
        <ele>805.2</ele>
        <time>2017-03-25T08:18:26Z</time>
      </trkpt>
      <trkpt lat="38.210700" lon="-1.983596">
        <ele>805.7</ele>
        <time>2017-03-25T08:18:31Z</time>
      </trkpt>
      <trkpt lat="38.210578" lon="-1.983671">
        <ele>807.2</ele>
        <time>2017-03-25T08:18:41Z</time>
      </trkpt>
      <trkpt lat="38.210534" lon="-1.983736">
        <ele>807.6</ele>
        <time>2017-03-25T08:18:46Z</time>
      </trkpt>
      <trkpt lat="38.210504" lon="-1.983763">
        <ele>807.6</ele>
        <time>2017-03-25T08:18:49Z</time>
      </trkpt>
      <trkpt lat="38.210495" lon="-1.983778">
        <ele>808.1</ele>
        <time>2017-03-25T08:18:50Z</time>
      </trkpt>
      <trkpt lat="38.210467" lon="-1.983801">
        <ele>808.6</ele>
        <time>2017-03-25T08:18:53Z</time>
      </trkpt>
      <trkpt lat="38.210388" lon="-1.983887">
        <ele>809.6</ele>
        <time>2017-03-25T08:19:01Z</time>
      </trkpt>
      <trkpt lat="38.210361" lon="-1.983951">
        <ele>811.0</ele>
        <time>2017-03-25T08:19:06Z</time>
      </trkpt>
      <trkpt lat="38.210356" lon="-1.983968">
        <ele>811.0</ele>
        <time>2017-03-25T08:19:07Z</time>
      </trkpt>
      <trkpt lat="38.210353" lon="-1.984107">
        <ele>812.5</ele>
        <time>2017-03-25T08:19:16Z</time>
      </trkpt>
      <trkpt lat="38.210360" lon="-1.984122">
        <ele>812.5</ele>
        <time>2017-03-25T08:19:17Z</time>
      </trkpt>
      <trkpt lat="38.210480" lon="-1.984235">
        <ele>815.3</ele>
        <time>2017-03-25T08:19:30Z</time>
      </trkpt>
      <trkpt lat="38.210521" lon="-1.984227">
        <ele>816.3</ele>
        <time>2017-03-25T08:19:34Z</time>
      </trkpt>
      <trkpt lat="38.210534" lon="-1.984218">
        <ele>815.3</ele>
        <time>2017-03-25T08:19:35Z</time>
      </trkpt>
      <trkpt lat="38.210652" lon="-1.984129">
        <ele>815.8</ele>
        <time>2017-03-25T08:19:46Z</time>
      </trkpt>
      <trkpt lat="38.210662" lon="-1.984114">
        <ele>816.3</ele>
        <time>2017-03-25T08:19:47Z</time>
      </trkpt>
      <trkpt lat="38.210674" lon="-1.984097">
        <ele>816.3</ele>
        <time>2017-03-25T08:19:48Z</time>
      </trkpt>
      <trkpt lat="38.210685" lon="-1.984082">
        <ele>815.3</ele>
        <time>2017-03-25T08:19:49Z</time>
      </trkpt>
      <trkpt lat="38.210698" lon="-1.984068">
        <ele>816.3</ele>
        <time>2017-03-25T08:19:50Z</time>
      </trkpt>
      <trkpt lat="38.210710" lon="-1.984056">
        <ele>817.3</ele>
        <time>2017-03-25T08:19:51Z</time>
      </trkpt>
      <trkpt lat="38.210723" lon="-1.984048">
        <ele>816.8</ele>
        <time>2017-03-25T08:19:52Z</time>
      </trkpt>
      <trkpt lat="38.210733" lon="-1.984041">
        <ele>816.8</ele>
        <time>2017-03-25T08:19:53Z</time>
      </trkpt>
      <trkpt lat="38.210743" lon="-1.984032">
        <ele>816.3</ele>
        <time>2017-03-25T08:19:54Z</time>
      </trkpt>
      <trkpt lat="38.210754" lon="-1.984012">
        <ele>816.3</ele>
        <time>2017-03-25T08:19:55Z</time>
      </trkpt>
      <trkpt lat="38.210765" lon="-1.983993">
        <ele>815.8</ele>
        <time>2017-03-25T08:19:56Z</time>
      </trkpt>
      <trkpt lat="38.210856" lon="-1.983967">
        <ele>816.8</ele>
        <time>2017-03-25T08:21:17Z</time>
      </trkpt>
      <trkpt lat="38.210869" lon="-1.983978">
        <ele>816.8</ele>
        <time>2017-03-25T08:21:18Z</time>
      </trkpt>
      <trkpt lat="38.210880" lon="-1.983993">
        <ele>816.3</ele>
        <time>2017-03-25T08:21:19Z</time>
      </trkpt>
      <trkpt lat="38.210889" lon="-1.984011">
        <ele>817.3</ele>
        <time>2017-03-25T08:21:20Z</time>
      </trkpt>
      <trkpt lat="38.210899" lon="-1.984024">
        <ele>816.8</ele>
        <time>2017-03-25T08:21:21Z</time>
      </trkpt>
      <trkpt lat="38.210910" lon="-1.984038">
        <ele>816.3</ele>
        <time>2017-03-25T08:21:22Z</time>
      </trkpt>
      <trkpt lat="38.210919" lon="-1.984053">
        <ele>815.3</ele>
        <time>2017-03-25T08:21:23Z</time>
      </trkpt>
      <trkpt lat="38.210926" lon="-1.984071">
        <ele>813.9</ele>
        <time>2017-03-25T08:21:24Z</time>
      </trkpt>
      <trkpt lat="38.210930" lon="-1.984092">
        <ele>819.7</ele>
        <time>2017-03-25T08:21:25Z</time>
      </trkpt>
      <trkpt lat="38.210934" lon="-1.984110">
        <ele>819.2</ele>
        <time>2017-03-25T08:21:26Z</time>
      </trkpt>
      <trkpt lat="38.210938" lon="-1.984144">
        <ele>818.2</ele>
        <time>2017-03-25T08:21:28Z</time>
      </trkpt>
      <trkpt lat="38.210931" lon="-1.984157">
        <ele>818.2</ele>
        <time>2017-03-25T08:21:35Z</time>
      </trkpt>
      <trkpt lat="38.210918" lon="-1.984163">
        <ele>818.2</ele>
        <time>2017-03-25T08:21:36Z</time>
      </trkpt>
      <trkpt lat="38.210908" lon="-1.984178">
        <ele>818.2</ele>
        <time>2017-03-25T08:21:37Z</time>
      </trkpt>
      <trkpt lat="38.210903" lon="-1.984198">
        <ele>818.7</ele>
        <time>2017-03-25T08:21:38Z</time>
      </trkpt>
      <trkpt lat="38.210897" lon="-1.984219">
        <ele>819.2</ele>
        <time>2017-03-25T08:21:39Z</time>
      </trkpt>
      <trkpt lat="38.210889" lon="-1.984236">
        <ele>819.2</ele>
        <time>2017-03-25T08:21:40Z</time>
      </trkpt>
      <trkpt lat="38.210883" lon="-1.984250">
        <ele>818.7</ele>
        <time>2017-03-25T08:21:41Z</time>
      </trkpt>
      <trkpt lat="38.210779" lon="-1.984445">
        <ele>821.6</ele>
        <time>2017-03-25T08:21:53Z</time>
      </trkpt>
      <trkpt lat="38.210657" lon="-1.984648">
        <ele>821.6</ele>
        <time>2017-03-25T08:22:07Z</time>
      </trkpt>
      <trkpt lat="38.210644" lon="-1.984697">
        <ele>821.1</ele>
        <time>2017-03-25T08:22:13Z</time>
      </trkpt>
      <trkpt lat="38.210630" lon="-1.984709">
        <ele>821.1</ele>
        <time>2017-03-25T08:22:14Z</time>
      </trkpt>
      <trkpt lat="38.210618" lon="-1.984719">
        <ele>821.1</ele>
        <time>2017-03-25T08:22:15Z</time>
      </trkpt>
      <trkpt lat="38.210608" lon="-1.984730">
        <ele>821.6</ele>
        <time>2017-03-25T08:22:16Z</time>
      </trkpt>
      <trkpt lat="38.210598" lon="-1.984743">
        <ele>821.6</ele>
        <time>2017-03-25T08:22:17Z</time>
      </trkpt>
      <trkpt lat="38.210587" lon="-1.984756">
        <ele>821.6</ele>
        <time>2017-03-25T08:22:18Z</time>
      </trkpt>
      <trkpt lat="38.210576" lon="-1.984769">
        <ele>821.6</ele>
        <time>2017-03-25T08:22:19Z</time>
      </trkpt>
      <trkpt lat="38.210457" lon="-1.984936">
        <ele>823.0</ele>
        <time>2017-03-25T08:22:32Z</time>
      </trkpt>
      <trkpt lat="38.210413" lon="-1.984983">
        <ele>823.0</ele>
        <time>2017-03-25T08:22:37Z</time>
      </trkpt>
      <trkpt lat="38.210405" lon="-1.984995">
        <ele>823.0</ele>
        <time>2017-03-25T08:22:38Z</time>
      </trkpt>
      <trkpt lat="38.210395" lon="-1.985005">
        <ele>822.5</ele>
        <time>2017-03-25T08:22:39Z</time>
      </trkpt>
      <trkpt lat="38.210323" lon="-1.985081">
        <ele>824.0</ele>
        <time>2017-03-25T08:22:46Z</time>
      </trkpt>
      <trkpt lat="38.210311" lon="-1.985092">
        <ele>824.0</ele>
        <time>2017-03-25T08:22:47Z</time>
      </trkpt>
      <trkpt lat="38.210302" lon="-1.985108">
        <ele>824.0</ele>
        <time>2017-03-25T08:22:48Z</time>
      </trkpt>
      <trkpt lat="38.210294" lon="-1.985121">
        <ele>824.5</ele>
        <time>2017-03-25T08:22:49Z</time>
      </trkpt>
      <trkpt lat="38.210261" lon="-1.985165">
        <ele>825.9</ele>
        <time>2017-03-25T08:22:54Z</time>
      </trkpt>
      <trkpt lat="38.210226" lon="-1.985199">
        <ele>825.9</ele>
        <time>2017-03-25T08:22:58Z</time>
      </trkpt>
      <trkpt lat="38.210219" lon="-1.985211">
        <ele>824.0</ele>
        <time>2017-03-25T08:22:59Z</time>
      </trkpt>
      <trkpt lat="38.210209" lon="-1.985222">
        <ele>827.8</ele>
        <time>2017-03-25T08:23:00Z</time>
      </trkpt>
      <trkpt lat="38.210073" lon="-1.985372">
        <ele>827.8</ele>
        <time>2017-03-25T08:23:14Z</time>
      </trkpt>
      <trkpt lat="38.210065" lon="-1.985381">
        <ele>828.3</ele>
        <time>2017-03-25T08:23:15Z</time>
      </trkpt>
      <trkpt lat="38.210057" lon="-1.985391">
        <ele>828.8</ele>
        <time>2017-03-25T08:23:16Z</time>
      </trkpt>
      <trkpt lat="38.210047" lon="-1.985403">
        <ele>828.8</ele>
        <time>2017-03-25T08:23:17Z</time>
      </trkpt>
      <trkpt lat="38.210036" lon="-1.985413">
        <ele>828.8</ele>
        <time>2017-03-25T08:23:18Z</time>
      </trkpt>
      <trkpt lat="38.210027" lon="-1.985422">
        <ele>828.8</ele>
        <time>2017-03-25T08:23:19Z</time>
      </trkpt>
      <trkpt lat="38.210016" lon="-1.985432">
        <ele>828.8</ele>
        <time>2017-03-25T08:23:20Z</time>
      </trkpt>
      <trkpt lat="38.209971" lon="-1.985472">
        <ele>829.3</ele>
        <time>2017-03-25T08:23:25Z</time>
      </trkpt>
      <trkpt lat="38.209960" lon="-1.985482">
        <ele>829.8</ele>
        <time>2017-03-25T08:23:26Z</time>
      </trkpt>
      <trkpt lat="38.209926" lon="-1.985499">
        <ele>830.2</ele>
        <time>2017-03-25T08:23:29Z</time>
      </trkpt>
      <trkpt lat="38.209918" lon="-1.985505">
        <ele>830.2</ele>
        <time>2017-03-25T08:23:30Z</time>
      </trkpt>
      <trkpt lat="38.209909" lon="-1.985514">
        <ele>830.7</ele>
        <time>2017-03-25T08:23:31Z</time>
      </trkpt>
      <trkpt lat="38.209898" lon="-1.985522">
        <ele>830.7</ele>
        <time>2017-03-25T08:23:32Z</time>
      </trkpt>
      <trkpt lat="38.209879" lon="-1.985540">
        <ele>831.2</ele>
        <time>2017-03-25T08:23:34Z</time>
      </trkpt>
      <trkpt lat="38.209849" lon="-1.985567">
        <ele>831.7</ele>
        <time>2017-03-25T08:23:37Z</time>
      </trkpt>
      <trkpt lat="38.209811" lon="-1.985597">
        <ele>832.2</ele>
        <time>2017-03-25T08:23:41Z</time>
      </trkpt>
      <trkpt lat="38.209674" lon="-1.985687">
        <ele>833.6</ele>
        <time>2017-03-25T08:23:54Z</time>
      </trkpt>
      <trkpt lat="38.209652" lon="-1.985695">
        <ele>834.1</ele>
        <time>2017-03-25T08:23:56Z</time>
      </trkpt>
      <trkpt lat="38.209615" lon="-1.985709">
        <ele>834.1</ele>
        <time>2017-03-25T08:23:59Z</time>
      </trkpt>
      <trkpt lat="38.209605" lon="-1.985717">
        <ele>834.1</ele>
        <time>2017-03-25T08:24:00Z</time>
      </trkpt>
      <trkpt lat="38.209593" lon="-1.985725">
        <ele>834.1</ele>
        <time>2017-03-25T08:24:01Z</time>
      </trkpt>
      <trkpt lat="38.209579" lon="-1.985731">
        <ele>834.1</ele>
        <time>2017-03-25T08:24:02Z</time>
      </trkpt>
      <trkpt lat="38.209568" lon="-1.985741">
        <ele>834.6</ele>
        <time>2017-03-25T08:24:03Z</time>
      </trkpt>
      <trkpt lat="38.209557" lon="-1.985750">
        <ele>834.6</ele>
        <time>2017-03-25T08:24:04Z</time>
      </trkpt>
      <trkpt lat="38.209547" lon="-1.985757">
        <ele>835.0</ele>
        <time>2017-03-25T08:24:05Z</time>
      </trkpt>
      <trkpt lat="38.209535" lon="-1.985762">
        <ele>834.6</ele>
        <time>2017-03-25T08:24:06Z</time>
      </trkpt>
      <trkpt lat="38.209523" lon="-1.985770">
        <ele>834.6</ele>
        <time>2017-03-25T08:24:07Z</time>
      </trkpt>
      <trkpt lat="38.209512" lon="-1.985778">
        <ele>834.6</ele>
        <time>2017-03-25T08:24:08Z</time>
      </trkpt>
      <trkpt lat="38.209498" lon="-1.985786">
        <ele>834.6</ele>
        <time>2017-03-25T08:24:09Z</time>
      </trkpt>
      <trkpt lat="38.209331" lon="-1.985911">
        <ele>835.5</ele>
        <time>2017-03-25T08:24:24Z</time>
      </trkpt>
      <trkpt lat="38.209259" lon="-1.985950">
        <ele>836.5</ele>
        <time>2017-03-25T08:24:30Z</time>
      </trkpt>
      <trkpt lat="38.209093" lon="-1.986051">
        <ele>837.0</ele>
        <time>2017-03-25T08:24:43Z</time>
      </trkpt>
      <trkpt lat="38.208916" lon="-1.986203">
        <ele>837.5</ele>
        <time>2017-03-25T08:24:59Z</time>
      </trkpt>
      <trkpt lat="38.208762" lon="-1.986309">
        <ele>837.5</ele>
        <time>2017-03-25T08:25:12Z</time>
      </trkpt>
      <trkpt lat="38.208742" lon="-1.986327">
        <ele>837.9</ele>
        <time>2017-03-25T08:25:14Z</time>
      </trkpt>
      <trkpt lat="38.208713" lon="-1.986363">
        <ele>837.5</ele>
        <time>2017-03-25T08:25:17Z</time>
      </trkpt>
      <trkpt lat="38.208701" lon="-1.986374">
        <ele>837.5</ele>
        <time>2017-03-25T08:25:18Z</time>
      </trkpt>
      <trkpt lat="38.208578" lon="-1.986440">
        <ele>838.9</ele>
        <time>2017-03-25T08:25:28Z</time>
      </trkpt>
      <trkpt lat="38.208567" lon="-1.986453">
        <ele>838.9</ele>
        <time>2017-03-25T08:25:29Z</time>
      </trkpt>
      <trkpt lat="38.208556" lon="-1.986462">
        <ele>837.9</ele>
        <time>2017-03-25T08:25:30Z</time>
      </trkpt>
      <trkpt lat="38.208547" lon="-1.986472">
        <ele>838.4</ele>
        <time>2017-03-25T08:25:31Z</time>
      </trkpt>
      <trkpt lat="38.208535" lon="-1.986482">
        <ele>838.9</ele>
        <time>2017-03-25T08:25:32Z</time>
      </trkpt>
      <trkpt lat="38.208491" lon="-1.986546">
        <ele>838.9</ele>
        <time>2017-03-25T08:25:36Z</time>
      </trkpt>
      <trkpt lat="38.208478" lon="-1.986558">
        <ele>839.4</ele>
        <time>2017-03-25T08:25:37Z</time>
      </trkpt>
      <trkpt lat="38.208469" lon="-1.986574">
        <ele>838.9</ele>
        <time>2017-03-25T08:25:38Z</time>
      </trkpt>
      <trkpt lat="38.208441" lon="-1.986641">
        <ele>839.4</ele>
        <time>2017-03-25T08:25:42Z</time>
      </trkpt>
      <trkpt lat="38.208429" lon="-1.986685">
        <ele>839.4</ele>
        <time>2017-03-25T08:25:45Z</time>
      </trkpt>
      <trkpt lat="38.208429" lon="-1.986705">
        <ele>839.4</ele>
        <time>2017-03-25T08:25:46Z</time>
      </trkpt>
      <trkpt lat="38.208427" lon="-1.986724">
        <ele>839.4</ele>
        <time>2017-03-25T08:25:47Z</time>
      </trkpt>
      <trkpt lat="38.208422" lon="-1.986741">
        <ele>839.8</ele>
        <time>2017-03-25T08:25:48Z</time>
      </trkpt>
      <trkpt lat="38.208415" lon="-1.986756">
        <ele>839.8</ele>
        <time>2017-03-25T08:25:49Z</time>
      </trkpt>
      <trkpt lat="38.208403" lon="-1.986769">
        <ele>839.8</ele>
        <time>2017-03-25T08:25:50Z</time>
      </trkpt>
      <trkpt lat="38.208390" lon="-1.986783">
        <ele>839.8</ele>
        <time>2017-03-25T08:25:51Z</time>
      </trkpt>
      <trkpt lat="38.208383" lon="-1.986798">
        <ele>840.3</ele>
        <time>2017-03-25T08:25:52Z</time>
      </trkpt>
      <trkpt lat="38.208357" lon="-1.986880">
        <ele>840.3</ele>
        <time>2017-03-25T08:25:58Z</time>
      </trkpt>
      <trkpt lat="38.208339" lon="-1.986951">
        <ele>841.3</ele>
        <time>2017-03-25T08:26:03Z</time>
      </trkpt>
      <trkpt lat="38.208328" lon="-1.986986">
        <ele>841.3</ele>
        <time>2017-03-25T08:26:05Z</time>
      </trkpt>
      <trkpt lat="38.208318" lon="-1.987003">
        <ele>841.8</ele>
        <time>2017-03-25T08:26:06Z</time>
      </trkpt>
      <trkpt lat="38.208270" lon="-1.987108">
        <ele>842.2</ele>
        <time>2017-03-25T08:26:14Z</time>
      </trkpt>
      <trkpt lat="38.208269" lon="-1.987123">
        <ele>842.7</ele>
        <time>2017-03-25T08:26:15Z</time>
      </trkpt>
      <trkpt lat="38.208225" lon="-1.987258">
        <ele>843.2</ele>
        <time>2017-03-25T08:26:24Z</time>
      </trkpt>
      <trkpt lat="38.208220" lon="-1.987294">
        <ele>842.7</ele>
        <time>2017-03-25T08:26:26Z</time>
      </trkpt>
      <trkpt lat="38.208213" lon="-1.987309">
        <ele>843.2</ele>
        <time>2017-03-25T08:26:27Z</time>
      </trkpt>
      <trkpt lat="38.208205" lon="-1.987321">
        <ele>843.7</ele>
        <time>2017-03-25T08:26:28Z</time>
      </trkpt>
      <trkpt lat="38.208196" lon="-1.987332">
        <ele>843.7</ele>
        <time>2017-03-25T08:26:29Z</time>
      </trkpt>
      <trkpt lat="38.208186" lon="-1.987345">
        <ele>843.7</ele>
        <time>2017-03-25T08:26:30Z</time>
      </trkpt>
      <trkpt lat="38.208085" lon="-1.987473">
        <ele>843.7</ele>
        <time>2017-03-25T08:26:42Z</time>
      </trkpt>
      <trkpt lat="38.207982" lon="-1.987543">
        <ele>844.2</ele>
        <time>2017-03-25T08:26:50Z</time>
      </trkpt>
      <trkpt lat="38.207946" lon="-1.987558">
        <ele>844.7</ele>
        <time>2017-03-25T08:26:53Z</time>
      </trkpt>
      <trkpt lat="38.207923" lon="-1.987567">
        <ele>844.2</ele>
        <time>2017-03-25T08:26:55Z</time>
      </trkpt>
      <trkpt lat="38.207855" lon="-1.987623">
        <ele>845.6</ele>
        <time>2017-03-25T08:27:01Z</time>
      </trkpt>
      <trkpt lat="38.207772" lon="-1.987658">
        <ele>845.6</ele>
        <time>2017-03-25T08:27:08Z</time>
      </trkpt>
      <trkpt lat="38.207706" lon="-1.987700">
        <ele>846.6</ele>
        <time>2017-03-25T08:27:15Z</time>
      </trkpt>
      <trkpt lat="38.207645" lon="-1.987733">
        <ele>847.5</ele>
        <time>2017-03-25T08:27:20Z</time>
      </trkpt>
      <trkpt lat="38.207495" lon="-1.987873">
        <ele>849.5</ele>
        <time>2017-03-25T08:27:33Z</time>
      </trkpt>
      <trkpt lat="38.207471" lon="-1.987902">
        <ele>849.5</ele>
        <time>2017-03-25T08:27:36Z</time>
      </trkpt>
      <trkpt lat="38.207384" lon="-1.988100">
        <ele>851.4</ele>
        <time>2017-03-25T08:27:50Z</time>
      </trkpt>
      <trkpt lat="38.207387" lon="-1.988119">
        <ele>850.4</ele>
        <time>2017-03-25T08:27:51Z</time>
      </trkpt>
      <trkpt lat="38.207394" lon="-1.988265">
        <ele>852.3</ele>
        <time>2017-03-25T08:28:00Z</time>
      </trkpt>
      <trkpt lat="38.207395" lon="-1.988363">
        <ele>853.3</ele>
        <time>2017-03-25T08:28:06Z</time>
      </trkpt>
      <trkpt lat="38.207390" lon="-1.988391">
        <ele>853.3</ele>
        <time>2017-03-25T08:28:08Z</time>
      </trkpt>
      <trkpt lat="38.207391" lon="-1.988406">
        <ele>853.8</ele>
        <time>2017-03-25T08:28:09Z</time>
      </trkpt>
      <trkpt lat="38.207389" lon="-1.988421">
        <ele>853.8</ele>
        <time>2017-03-25T08:28:10Z</time>
      </trkpt>
      <trkpt lat="38.207387" lon="-1.988440">
        <ele>853.8</ele>
        <time>2017-03-25T08:28:11Z</time>
      </trkpt>
      <trkpt lat="38.207384" lon="-1.988460">
        <ele>853.8</ele>
        <time>2017-03-25T08:28:12Z</time>
      </trkpt>
      <trkpt lat="38.207388" lon="-1.988492">
        <ele>854.3</ele>
        <time>2017-03-25T08:28:14Z</time>
      </trkpt>
      <trkpt lat="38.207393" lon="-1.988506">
        <ele>854.3</ele>
        <time>2017-03-25T08:28:15Z</time>
      </trkpt>
      <trkpt lat="38.207373" lon="-1.988600">
        <ele>855.7</ele>
        <time>2017-03-25T08:28:22Z</time>
      </trkpt>
      <trkpt lat="38.207370" lon="-1.988753">
        <ele>857.6</ele>
        <time>2017-03-25T08:28:34Z</time>
      </trkpt>
      <trkpt lat="38.207374" lon="-1.988800">
        <ele>858.1</ele>
        <time>2017-03-25T08:28:37Z</time>
      </trkpt>
      <trkpt lat="38.207367" lon="-1.988848">
        <ele>859.1</ele>
        <time>2017-03-25T08:28:40Z</time>
      </trkpt>
      <trkpt lat="38.207363" lon="-1.988940">
        <ele>859.6</ele>
        <time>2017-03-25T08:28:46Z</time>
      </trkpt>
      <trkpt lat="38.207363" lon="-1.988972">
        <ele>859.6</ele>
        <time>2017-03-25T08:28:48Z</time>
      </trkpt>
      <trkpt lat="38.207356" lon="-1.988990">
        <ele>860.0</ele>
        <time>2017-03-25T08:28:49Z</time>
      </trkpt>
      <trkpt lat="38.207355" lon="-1.989008">
        <ele>860.0</ele>
        <time>2017-03-25T08:28:50Z</time>
      </trkpt>
      <trkpt lat="38.207360" lon="-1.989026">
        <ele>860.0</ele>
        <time>2017-03-25T08:28:51Z</time>
      </trkpt>
      <trkpt lat="38.207367" lon="-1.989042">
        <ele>860.0</ele>
        <time>2017-03-25T08:28:52Z</time>
      </trkpt>
      <trkpt lat="38.207370" lon="-1.989058">
        <ele>861.0</ele>
        <time>2017-03-25T08:28:53Z</time>
      </trkpt>
      <trkpt lat="38.207371" lon="-1.989074">
        <ele>860.5</ele>
        <time>2017-03-25T08:28:54Z</time>
      </trkpt>
      <trkpt lat="38.207372" lon="-1.989093">
        <ele>860.5</ele>
        <time>2017-03-25T08:28:55Z</time>
      </trkpt>
      <trkpt lat="38.207368" lon="-1.989108">
        <ele>860.5</ele>
        <time>2017-03-25T08:28:56Z</time>
      </trkpt>
      <trkpt lat="38.207359" lon="-1.989133">
        <ele>861.0</ele>
        <time>2017-03-25T08:28:58Z</time>
      </trkpt>
      <trkpt lat="38.207358" lon="-1.989148">
        <ele>861.0</ele>
        <time>2017-03-25T08:28:59Z</time>
      </trkpt>
      <trkpt lat="38.207356" lon="-1.989164">
        <ele>861.0</ele>
        <time>2017-03-25T08:29:00Z</time>
      </trkpt>
      <trkpt lat="38.207355" lon="-1.989179">
        <ele>861.0</ele>
        <time>2017-03-25T08:29:01Z</time>
      </trkpt>
      <trkpt lat="38.207353" lon="-1.989322">
        <ele>861.0</ele>
        <time>2017-03-25T08:29:11Z</time>
      </trkpt>
      <trkpt lat="38.207358" lon="-1.989335">
        <ele>862.0</ele>
        <time>2017-03-25T08:29:12Z</time>
      </trkpt>
      <trkpt lat="38.207356" lon="-1.989379">
        <ele>861.5</ele>
        <time>2017-03-25T08:29:17Z</time>
      </trkpt>
      <trkpt lat="38.207338" lon="-1.989440">
        <ele>862.0</ele>
        <time>2017-03-25T08:29:28Z</time>
      </trkpt>
      <trkpt lat="38.207337" lon="-1.989455">
        <ele>861.5</ele>
        <time>2017-03-25T08:29:29Z</time>
      </trkpt>
      <trkpt lat="38.207332" lon="-1.989562">
        <ele>862.0</ele>
        <time>2017-03-25T08:29:35Z</time>
      </trkpt>
      <trkpt lat="38.207334" lon="-1.989583">
        <ele>862.4</ele>
        <time>2017-03-25T08:29:36Z</time>
      </trkpt>
      <trkpt lat="38.207336" lon="-1.989600">
        <ele>862.9</ele>
        <time>2017-03-25T08:29:37Z</time>
      </trkpt>
      <trkpt lat="38.207371" lon="-1.989900">
        <ele>862.9</ele>
        <time>2017-03-25T08:29:53Z</time>
      </trkpt>
      <trkpt lat="38.207358" lon="-1.989990">
        <ele>862.9</ele>
        <time>2017-03-25T08:29:59Z</time>
      </trkpt>
      <trkpt lat="38.207361" lon="-1.990005">
        <ele>862.9</ele>
        <time>2017-03-25T08:30:00Z</time>
      </trkpt>
      <trkpt lat="38.207364" lon="-1.990022">
        <ele>862.9</ele>
        <time>2017-03-25T08:30:01Z</time>
      </trkpt>
      <trkpt lat="38.207366" lon="-1.990038">
        <ele>862.9</ele>
        <time>2017-03-25T08:30:02Z</time>
      </trkpt>
      <trkpt lat="38.207368" lon="-1.990057">
        <ele>862.4</ele>
        <time>2017-03-25T08:30:03Z</time>
      </trkpt>
      <trkpt lat="38.207371" lon="-1.990077">
        <ele>862.9</ele>
        <time>2017-03-25T08:30:04Z</time>
      </trkpt>
      <trkpt lat="38.207371" lon="-1.990096">
        <ele>862.9</ele>
        <time>2017-03-25T08:30:05Z</time>
      </trkpt>
      <trkpt lat="38.207352" lon="-1.990298">
        <ele>862.9</ele>
        <time>2017-03-25T08:30:16Z</time>
      </trkpt>
      <trkpt lat="38.207353" lon="-1.990315">
        <ele>862.9</ele>
        <time>2017-03-25T08:30:17Z</time>
      </trkpt>
      <trkpt lat="38.207355" lon="-1.990331">
        <ele>863.4</ele>
        <time>2017-03-25T08:30:18Z</time>
      </trkpt>
      <trkpt lat="38.207357" lon="-1.990349">
        <ele>862.9</ele>
        <time>2017-03-25T08:30:19Z</time>
      </trkpt>
      <trkpt lat="38.207358" lon="-1.990372">
        <ele>862.9</ele>
        <time>2017-03-25T08:30:20Z</time>
      </trkpt>
      <trkpt lat="38.207358" lon="-1.990391">
        <ele>863.4</ele>
        <time>2017-03-25T08:30:21Z</time>
      </trkpt>
      <trkpt lat="38.207358" lon="-1.990408">
        <ele>863.4</ele>
        <time>2017-03-25T08:30:22Z</time>
      </trkpt>
      <trkpt lat="38.207358" lon="-1.990426">
        <ele>862.9</ele>
        <time>2017-03-25T08:30:23Z</time>
      </trkpt>
      <trkpt lat="38.207360" lon="-1.990443">
        <ele>862.9</ele>
        <time>2017-03-25T08:30:24Z</time>
      </trkpt>
      <trkpt lat="38.207358" lon="-1.990459">
        <ele>862.9</ele>
        <time>2017-03-25T08:30:25Z</time>
      </trkpt>
      <trkpt lat="38.207359" lon="-1.990477">
        <ele>863.4</ele>
        <time>2017-03-25T08:30:26Z</time>
      </trkpt>
      <trkpt lat="38.207343" lon="-1.990555">
        <ele>863.4</ele>
        <time>2017-03-25T08:30:30Z</time>
      </trkpt>
      <trkpt lat="38.207346" lon="-1.990573">
        <ele>863.4</ele>
        <time>2017-03-25T08:30:31Z</time>
      </trkpt>
      <trkpt lat="38.207351" lon="-1.990589">
        <ele>862.9</ele>
        <time>2017-03-25T08:30:32Z</time>
      </trkpt>
      <trkpt lat="38.207356" lon="-1.990605">
        <ele>863.4</ele>
        <time>2017-03-25T08:30:33Z</time>
      </trkpt>
      <trkpt lat="38.207361" lon="-1.990622">
        <ele>862.9</ele>
        <time>2017-03-25T08:30:34Z</time>
      </trkpt>
      <trkpt lat="38.207365" lon="-1.990639">
        <ele>862.9</ele>
        <time>2017-03-25T08:30:35Z</time>
      </trkpt>
      <trkpt lat="38.207368" lon="-1.990654">
        <ele>863.4</ele>
        <time>2017-03-25T08:30:36Z</time>
      </trkpt>
      <trkpt lat="38.207363" lon="-1.990725">
        <ele>862.9</ele>
        <time>2017-03-25T08:30:40Z</time>
      </trkpt>
      <trkpt lat="38.207362" lon="-1.990743">
        <ele>862.9</ele>
        <time>2017-03-25T08:30:41Z</time>
      </trkpt>
      <trkpt lat="38.207360" lon="-1.990758">
        <ele>862.9</ele>
        <time>2017-03-25T08:30:42Z</time>
      </trkpt>
      <trkpt lat="38.207363" lon="-1.990837">
        <ele>862.9</ele>
        <time>2017-03-25T08:30:47Z</time>
      </trkpt>
      <trkpt lat="38.207369" lon="-1.990854">
        <ele>862.9</ele>
        <time>2017-03-25T08:30:48Z</time>
      </trkpt>
      <trkpt lat="38.207371" lon="-1.990873">
        <ele>862.9</ele>
        <time>2017-03-25T08:30:49Z</time>
      </trkpt>
      <trkpt lat="38.207375" lon="-1.990894">
        <ele>863.4</ele>
        <time>2017-03-25T08:30:50Z</time>
      </trkpt>
      <trkpt lat="38.207379" lon="-1.990913">
        <ele>862.9</ele>
        <time>2017-03-25T08:30:51Z</time>
      </trkpt>
      <trkpt lat="38.207381" lon="-1.990930">
        <ele>862.9</ele>
        <time>2017-03-25T08:30:52Z</time>
      </trkpt>
      <trkpt lat="38.207387" lon="-1.990945">
        <ele>863.4</ele>
        <time>2017-03-25T08:30:53Z</time>
      </trkpt>
      <trkpt lat="38.207392" lon="-1.990960">
        <ele>863.4</ele>
        <time>2017-03-25T08:30:54Z</time>
      </trkpt>
      <trkpt lat="38.207396" lon="-1.990974">
        <ele>862.9</ele>
        <time>2017-03-25T08:30:55Z</time>
      </trkpt>
      <trkpt lat="38.207400" lon="-1.990986">
        <ele>863.4</ele>
        <time>2017-03-25T08:30:56Z</time>
      </trkpt>
      <trkpt lat="38.207404" lon="-1.991020">
        <ele>862.4</ele>
        <time>2017-03-25T08:30:58Z</time>
      </trkpt>
      <trkpt lat="38.207404" lon="-1.991037">
        <ele>863.4</ele>
        <time>2017-03-25T08:30:59Z</time>
      </trkpt>
      <trkpt lat="38.207402" lon="-1.991055">
        <ele>863.4</ele>
        <time>2017-03-25T08:31:00Z</time>
      </trkpt>
      <trkpt lat="38.207399" lon="-1.991071">
        <ele>863.4</ele>
        <time>2017-03-25T08:31:01Z</time>
      </trkpt>
      <trkpt lat="38.207395" lon="-1.991091">
        <ele>862.9</ele>
        <time>2017-03-25T08:31:02Z</time>
      </trkpt>
      <trkpt lat="38.207393" lon="-1.991110">
        <ele>863.4</ele>
        <time>2017-03-25T08:31:03Z</time>
      </trkpt>
      <trkpt lat="38.207394" lon="-1.991129">
        <ele>862.9</ele>
        <time>2017-03-25T08:31:04Z</time>
      </trkpt>
      <trkpt lat="38.207398" lon="-1.991148">
        <ele>862.9</ele>
        <time>2017-03-25T08:31:05Z</time>
      </trkpt>
      <trkpt lat="38.207403" lon="-1.991166">
        <ele>863.4</ele>
        <time>2017-03-25T08:31:06Z</time>
      </trkpt>
      <trkpt lat="38.207407" lon="-1.991181">
        <ele>863.4</ele>
        <time>2017-03-25T08:31:07Z</time>
      </trkpt>
      <trkpt lat="38.207427" lon="-1.991270">
        <ele>863.4</ele>
        <time>2017-03-25T08:31:12Z</time>
      </trkpt>
      <trkpt lat="38.207431" lon="-1.991287">
        <ele>863.4</ele>
        <time>2017-03-25T08:31:13Z</time>
      </trkpt>
      <trkpt lat="38.207432" lon="-1.991308">
        <ele>862.9</ele>
        <time>2017-03-25T08:31:14Z</time>
      </trkpt>
      <trkpt lat="38.207430" lon="-1.991326">
        <ele>862.9</ele>
        <time>2017-03-25T08:31:15Z</time>
      </trkpt>
      <trkpt lat="38.207426" lon="-1.991380">
        <ele>862.4</ele>
        <time>2017-03-25T08:31:18Z</time>
      </trkpt>
      <trkpt lat="38.207395" lon="-1.991457">
        <ele>862.4</ele>
        <time>2017-03-25T08:31:23Z</time>
      </trkpt>
      <trkpt lat="38.207396" lon="-1.991475">
        <ele>862.9</ele>
        <time>2017-03-25T08:31:24Z</time>
      </trkpt>
      <trkpt lat="38.207398" lon="-1.991492">
        <ele>862.9</ele>
        <time>2017-03-25T08:31:25Z</time>
      </trkpt>
      <trkpt lat="38.207397" lon="-1.991522">
        <ele>863.9</ele>
        <time>2017-03-25T08:31:27Z</time>
      </trkpt>
      <trkpt lat="38.207391" lon="-1.991534">
        <ele>863.4</ele>
        <time>2017-03-25T08:31:28Z</time>
      </trkpt>
      <trkpt lat="38.207384" lon="-1.991550">
        <ele>863.4</ele>
        <time>2017-03-25T08:31:29Z</time>
      </trkpt>
      <trkpt lat="38.207380" lon="-1.991565">
        <ele>862.9</ele>
        <time>2017-03-25T08:31:30Z</time>
      </trkpt>
      <trkpt lat="38.207377" lon="-1.991582">
        <ele>863.4</ele>
        <time>2017-03-25T08:31:31Z</time>
      </trkpt>
      <trkpt lat="38.207346" lon="-1.991656">
        <ele>863.4</ele>
        <time>2017-03-25T08:31:36Z</time>
      </trkpt>
      <trkpt lat="38.207341" lon="-1.991673">
        <ele>863.9</ele>
        <time>2017-03-25T08:31:37Z</time>
      </trkpt>
      <trkpt lat="38.207336" lon="-1.991693">
        <ele>863.9</ele>
        <time>2017-03-25T08:31:38Z</time>
      </trkpt>
      <trkpt lat="38.207332" lon="-1.991710">
        <ele>864.4</ele>
        <time>2017-03-25T08:31:39Z</time>
      </trkpt>
      <trkpt lat="38.207331" lon="-1.991727">
        <ele>864.4</ele>
        <time>2017-03-25T08:31:40Z</time>
      </trkpt>
      <trkpt lat="38.207333" lon="-1.991744">
        <ele>863.9</ele>
        <time>2017-03-25T08:31:41Z</time>
      </trkpt>
      <trkpt lat="38.207333" lon="-1.991761">
        <ele>863.9</ele>
        <time>2017-03-25T08:31:42Z</time>
      </trkpt>
      <trkpt lat="38.207327" lon="-1.991778">
        <ele>863.9</ele>
        <time>2017-03-25T08:31:43Z</time>
      </trkpt>
      <trkpt lat="38.207322" lon="-1.991797">
        <ele>863.9</ele>
        <time>2017-03-25T08:31:44Z</time>
      </trkpt>
      <trkpt lat="38.207307" lon="-1.991874">
        <ele>863.9</ele>
        <time>2017-03-25T08:31:48Z</time>
      </trkpt>
      <trkpt lat="38.207308" lon="-1.991893">
        <ele>863.9</ele>
        <time>2017-03-25T08:31:49Z</time>
      </trkpt>
      <trkpt lat="38.207309" lon="-1.991912">
        <ele>863.9</ele>
        <time>2017-03-25T08:31:50Z</time>
      </trkpt>
      <trkpt lat="38.207310" lon="-1.991928">
        <ele>864.8</ele>
        <time>2017-03-25T08:31:51Z</time>
      </trkpt>
      <trkpt lat="38.207312" lon="-1.991945">
        <ele>863.9</ele>
        <time>2017-03-25T08:31:52Z</time>
      </trkpt>
      <trkpt lat="38.207311" lon="-1.991964">
        <ele>862.4</ele>
        <time>2017-03-25T08:31:53Z</time>
      </trkpt>
      <trkpt lat="38.207309" lon="-1.991980">
        <ele>864.4</ele>
        <time>2017-03-25T08:31:54Z</time>
      </trkpt>
      <trkpt lat="38.207304" lon="-1.992012">
        <ele>864.8</ele>
        <time>2017-03-25T08:31:56Z</time>
      </trkpt>
      <trkpt lat="38.207302" lon="-1.992215">
        <ele>865.3</ele>
        <time>2017-03-25T08:32:08Z</time>
      </trkpt>
      <trkpt lat="38.207297" lon="-1.992261">
        <ele>865.8</ele>
        <time>2017-03-25T08:32:11Z</time>
      </trkpt>
      <trkpt lat="38.207300" lon="-1.992363">
        <ele>865.8</ele>
        <time>2017-03-25T08:32:17Z</time>
      </trkpt>
      <trkpt lat="38.207317" lon="-1.992603">
        <ele>866.8</ele>
        <time>2017-03-25T08:32:30Z</time>
      </trkpt>
      <trkpt lat="38.207349" lon="-1.992791">
        <ele>867.7</ele>
        <time>2017-03-25T08:32:42Z</time>
      </trkpt>
      <trkpt lat="38.207363" lon="-1.992878">
        <ele>868.7</ele>
        <time>2017-03-25T08:32:48Z</time>
      </trkpt>
      <trkpt lat="38.207376" lon="-1.992928">
        <ele>868.7</ele>
        <time>2017-03-25T08:32:51Z</time>
      </trkpt>
      <trkpt lat="38.207394" lon="-1.993023">
        <ele>869.2</ele>
        <time>2017-03-25T08:32:57Z</time>
      </trkpt>
      <trkpt lat="38.207390" lon="-1.993043">
        <ele>869.2</ele>
        <time>2017-03-25T08:32:58Z</time>
      </trkpt>
      <trkpt lat="38.207386" lon="-1.993058">
        <ele>869.2</ele>
        <time>2017-03-25T08:32:59Z</time>
      </trkpt>
      <trkpt lat="38.207372" lon="-1.993109">
        <ele>869.7</ele>
        <time>2017-03-25T08:33:02Z</time>
      </trkpt>
      <trkpt lat="38.207377" lon="-1.993148">
        <ele>869.7</ele>
        <time>2017-03-25T08:33:04Z</time>
      </trkpt>
      <trkpt lat="38.207385" lon="-1.993165">
        <ele>869.7</ele>
        <time>2017-03-25T08:33:05Z</time>
      </trkpt>
      <trkpt lat="38.207391" lon="-1.993185">
        <ele>869.7</ele>
        <time>2017-03-25T08:33:06Z</time>
      </trkpt>
      <trkpt lat="38.207427" lon="-1.993326">
        <ele>870.1</ele>
        <time>2017-03-25T08:33:14Z</time>
      </trkpt>
      <trkpt lat="38.207432" lon="-1.993338">
        <ele>870.1</ele>
        <time>2017-03-25T08:33:15Z</time>
      </trkpt>
      <trkpt lat="38.207436" lon="-1.993351">
        <ele>870.1</ele>
        <time>2017-03-25T08:33:16Z</time>
      </trkpt>
      <trkpt lat="38.207493" lon="-1.993487">
        <ele>870.1</ele>
        <time>2017-03-25T08:33:25Z</time>
      </trkpt>
      <trkpt lat="38.207495" lon="-1.993507">
        <ele>869.7</ele>
        <time>2017-03-25T08:33:26Z</time>
      </trkpt>
      <trkpt lat="38.207496" lon="-1.993529">
        <ele>870.1</ele>
        <time>2017-03-25T08:33:27Z</time>
      </trkpt>
      <trkpt lat="38.207499" lon="-1.993547">
        <ele>870.6</ele>
        <time>2017-03-25T08:33:28Z</time>
      </trkpt>
      <trkpt lat="38.207502" lon="-1.993566">
        <ele>869.7</ele>
        <time>2017-03-25T08:33:29Z</time>
      </trkpt>
      <trkpt lat="38.207509" lon="-1.993581">
        <ele>870.1</ele>
        <time>2017-03-25T08:33:30Z</time>
      </trkpt>
      <trkpt lat="38.207515" lon="-1.993597">
        <ele>870.1</ele>
        <time>2017-03-25T08:33:31Z</time>
      </trkpt>
      <trkpt lat="38.207520" lon="-1.993613">
        <ele>869.7</ele>
        <time>2017-03-25T08:33:32Z</time>
      </trkpt>
      <trkpt lat="38.207525" lon="-1.993629">
        <ele>870.1</ele>
        <time>2017-03-25T08:33:33Z</time>
      </trkpt>
      <trkpt lat="38.207561" lon="-1.993700">
        <ele>869.7</ele>
        <time>2017-03-25T08:33:38Z</time>
      </trkpt>
      <trkpt lat="38.207648" lon="-1.993969">
        <ele>869.7</ele>
        <time>2017-03-25T08:33:55Z</time>
      </trkpt>
      <trkpt lat="38.207654" lon="-1.993984">
        <ele>869.2</ele>
        <time>2017-03-25T08:33:56Z</time>
      </trkpt>
      <trkpt lat="38.207695" lon="-1.994143">
        <ele>869.2</ele>
        <time>2017-03-25T08:34:06Z</time>
      </trkpt>
      <trkpt lat="38.207786" lon="-1.994321">
        <ele>869.2</ele>
        <time>2017-03-25T08:34:18Z</time>
      </trkpt>
      <trkpt lat="38.207852" lon="-1.994459">
        <ele>869.2</ele>
        <time>2017-03-25T08:34:31Z</time>
      </trkpt>
      <trkpt lat="38.207865" lon="-1.994475">
        <ele>869.7</ele>
        <time>2017-03-25T08:34:32Z</time>
      </trkpt>
      <trkpt lat="38.207995" lon="-1.994697">
        <ele>870.1</ele>
        <time>2017-03-25T08:34:46Z</time>
      </trkpt>
      <trkpt lat="38.208097" lon="-1.994898">
        <ele>869.7</ele>
        <time>2017-03-25T08:35:00Z</time>
      </trkpt>
      <trkpt lat="38.208201" lon="-1.995077">
        <ele>869.7</ele>
        <time>2017-03-25T08:35:13Z</time>
      </trkpt>
      <trkpt lat="38.208307" lon="-1.995247">
        <ele>868.2</ele>
        <time>2017-03-25T08:35:27Z</time>
      </trkpt>
      <trkpt lat="38.208390" lon="-1.995388">
        <ele>867.2</ele>
        <time>2017-03-25T08:35:37Z</time>
      </trkpt>
      <trkpt lat="38.208400" lon="-1.995398">
        <ele>867.2</ele>
        <time>2017-03-25T08:35:38Z</time>
      </trkpt>
      <trkpt lat="38.208406" lon="-1.995412">
        <ele>867.2</ele>
        <time>2017-03-25T08:35:39Z</time>
      </trkpt>
      <trkpt lat="38.208520" lon="-1.995606">
        <ele>866.3</ele>
        <time>2017-03-25T08:35:53Z</time>
      </trkpt>
      <trkpt lat="38.208598" lon="-1.995788">
        <ele>866.8</ele>
        <time>2017-03-25T08:36:04Z</time>
      </trkpt>
      <trkpt lat="38.208647" lon="-1.995960">
        <ele>867.7</ele>
        <time>2017-03-25T08:36:15Z</time>
      </trkpt>
      <trkpt lat="38.208684" lon="-1.996082">
        <ele>868.2</ele>
        <time>2017-03-25T08:36:23Z</time>
      </trkpt>
      <trkpt lat="38.208759" lon="-1.996246">
        <ele>868.2</ele>
        <time>2017-03-25T08:36:34Z</time>
      </trkpt>
      <trkpt lat="38.208767" lon="-1.996258">
        <ele>868.7</ele>
        <time>2017-03-25T08:36:35Z</time>
      </trkpt>
      <trkpt lat="38.208777" lon="-1.996269">
        <ele>868.2</ele>
        <time>2017-03-25T08:36:36Z</time>
      </trkpt>
      <trkpt lat="38.208815" lon="-1.996318">
        <ele>868.7</ele>
        <time>2017-03-25T08:36:40Z</time>
      </trkpt>
      <trkpt lat="38.208822" lon="-1.996331">
        <ele>868.7</ele>
        <time>2017-03-25T08:36:41Z</time>
      </trkpt>
      <trkpt lat="38.208867" lon="-1.996418">
        <ele>868.7</ele>
        <time>2017-03-25T08:36:47Z</time>
      </trkpt>
      <trkpt lat="38.208875" lon="-1.996430">
        <ele>868.7</ele>
        <time>2017-03-25T08:36:48Z</time>
      </trkpt>
      <trkpt lat="38.208960" lon="-1.996624">
        <ele>870.1</ele>
        <time>2017-03-25T08:37:02Z</time>
      </trkpt>
      <trkpt lat="38.208986" lon="-1.996845">
        <ele>870.6</ele>
        <time>2017-03-25T08:37:15Z</time>
      </trkpt>
      <trkpt lat="38.208992" lon="-1.997070">
        <ele>869.7</ele>
        <time>2017-03-25T08:37:29Z</time>
      </trkpt>
      <trkpt lat="38.208967" lon="-1.997329">
        <ele>868.2</ele>
        <time>2017-03-25T08:37:44Z</time>
      </trkpt>
      <trkpt lat="38.208941" lon="-1.997364">
        <ele>868.7</ele>
        <time>2017-03-25T08:37:48Z</time>
      </trkpt>
      <trkpt lat="38.208941" lon="-1.997378">
        <ele>868.7</ele>
        <time>2017-03-25T08:37:49Z</time>
      </trkpt>
      <trkpt lat="38.208954" lon="-1.997679">
        <ele>867.7</ele>
        <time>2017-03-25T08:38:05Z</time>
      </trkpt>
      <trkpt lat="38.209036" lon="-1.997935">
        <ele>866.8</ele>
        <time>2017-03-25T08:38:22Z</time>
      </trkpt>
      <trkpt lat="38.209172" lon="-1.998087">
        <ele>866.3</ele>
        <time>2017-03-25T08:38:39Z</time>
      </trkpt>
      <trkpt lat="38.209180" lon="-1.998093">
        <ele>866.3</ele>
        <time>2017-03-25T08:38:40Z</time>
      </trkpt>
      <trkpt lat="38.209189" lon="-1.998100">
        <ele>866.3</ele>
        <time>2017-03-25T08:38:41Z</time>
      </trkpt>
      <trkpt lat="38.209264" lon="-1.998166">
        <ele>864.8</ele>
        <time>2017-03-25T08:38:48Z</time>
      </trkpt>
      <trkpt lat="38.209276" lon="-1.998174">
        <ele>865.3</ele>
        <time>2017-03-25T08:38:49Z</time>
      </trkpt>
      <trkpt lat="38.209304" lon="-1.998197">
        <ele>864.8</ele>
        <time>2017-03-25T08:38:52Z</time>
      </trkpt>
      <trkpt lat="38.209310" lon="-1.998210">
        <ele>864.4</ele>
        <time>2017-03-25T08:38:53Z</time>
      </trkpt>
      <trkpt lat="38.209317" lon="-1.998222">
        <ele>864.8</ele>
        <time>2017-03-25T08:38:54Z</time>
      </trkpt>
      <trkpt lat="38.209360" lon="-1.998260">
        <ele>863.9</ele>
        <time>2017-03-25T08:38:57Z</time>
      </trkpt>
      <trkpt lat="38.209417" lon="-1.998304">
        <ele>863.4</ele>
        <time>2017-03-25T08:39:02Z</time>
      </trkpt>
      <trkpt lat="38.209430" lon="-1.998321">
        <ele>863.4</ele>
        <time>2017-03-25T08:39:04Z</time>
      </trkpt>
      <trkpt lat="38.209440" lon="-1.998329">
        <ele>863.4</ele>
        <time>2017-03-25T08:39:05Z</time>
      </trkpt>
      <trkpt lat="38.209548" lon="-1.998458">
        <ele>862.9</ele>
        <time>2017-03-25T08:39:18Z</time>
      </trkpt>
      <trkpt lat="38.209556" lon="-1.998469">
        <ele>862.4</ele>
        <time>2017-03-25T08:39:19Z</time>
      </trkpt>
      <trkpt lat="38.209569" lon="-1.998490">
        <ele>862.4</ele>
        <time>2017-03-25T08:39:21Z</time>
      </trkpt>
      <trkpt lat="38.209628" lon="-1.998606">
        <ele>862.0</ele>
        <time>2017-03-25T08:39:30Z</time>
      </trkpt>
      <trkpt lat="38.209641" lon="-1.998620">
        <ele>862.4</ele>
        <time>2017-03-25T08:39:31Z</time>
      </trkpt>
      <trkpt lat="38.209667" lon="-1.998697">
        <ele>862.0</ele>
        <time>2017-03-25T08:39:36Z</time>
      </trkpt>
      <trkpt lat="38.209679" lon="-1.998731">
        <ele>862.9</ele>
        <time>2017-03-25T08:39:38Z</time>
      </trkpt>
      <trkpt lat="38.209719" lon="-1.998799">
        <ele>862.0</ele>
        <time>2017-03-25T08:39:43Z</time>
      </trkpt>
      <trkpt lat="38.209764" lon="-1.998910">
        <ele>862.0</ele>
        <time>2017-03-25T08:39:50Z</time>
      </trkpt>
      <trkpt lat="38.209888" lon="-1.999136">
        <ele>862.0</ele>
        <time>2017-03-25T08:40:06Z</time>
      </trkpt>
      <trkpt lat="38.209910" lon="-1.999214">
        <ele>862.0</ele>
        <time>2017-03-25T08:40:11Z</time>
      </trkpt>
      <trkpt lat="38.209907" lon="-1.999264">
        <ele>861.5</ele>
        <time>2017-03-25T08:40:17Z</time>
      </trkpt>
      <trkpt lat="38.209915" lon="-1.999277">
        <ele>862.0</ele>
        <time>2017-03-25T08:40:18Z</time>
      </trkpt>
      <trkpt lat="38.209925" lon="-1.999295">
        <ele>862.0</ele>
        <time>2017-03-25T08:40:19Z</time>
      </trkpt>
      <trkpt lat="38.210008" lon="-1.999554">
        <ele>862.4</ele>
        <time>2017-03-25T08:40:34Z</time>
      </trkpt>
      <trkpt lat="38.210014" lon="-1.999569">
        <ele>862.0</ele>
        <time>2017-03-25T08:40:35Z</time>
      </trkpt>
      <trkpt lat="38.210019" lon="-1.999584">
        <ele>862.4</ele>
        <time>2017-03-25T08:40:36Z</time>
      </trkpt>
      <trkpt lat="38.210027" lon="-1.999599">
        <ele>862.4</ele>
        <time>2017-03-25T08:40:37Z</time>
      </trkpt>
      <trkpt lat="38.210034" lon="-1.999615">
        <ele>863.4</ele>
        <time>2017-03-25T08:40:38Z</time>
      </trkpt>
      <trkpt lat="38.210082" lon="-1.999711">
        <ele>862.9</ele>
        <time>2017-03-25T08:40:44Z</time>
      </trkpt>
      <trkpt lat="38.210146" lon="-1.999937">
        <ele>862.9</ele>
        <time>2017-03-25T08:40:59Z</time>
      </trkpt>
      <trkpt lat="38.210194" lon="-2.000083">
        <ele>862.9</ele>
        <time>2017-03-25T08:41:08Z</time>
      </trkpt>
      <trkpt lat="38.210201" lon="-2.000098">
        <ele>862.0</ele>
        <time>2017-03-25T08:41:09Z</time>
      </trkpt>
      <trkpt lat="38.210207" lon="-2.000115">
        <ele>862.9</ele>
        <time>2017-03-25T08:41:10Z</time>
      </trkpt>
      <trkpt lat="38.210211" lon="-2.000131">
        <ele>862.9</ele>
        <time>2017-03-25T08:41:11Z</time>
      </trkpt>
      <trkpt lat="38.210216" lon="-2.000146">
        <ele>862.4</ele>
        <time>2017-03-25T08:41:12Z</time>
      </trkpt>
      <trkpt lat="38.210221" lon="-2.000163">
        <ele>862.9</ele>
        <time>2017-03-25T08:41:13Z</time>
      </trkpt>
      <trkpt lat="38.210226" lon="-2.000179">
        <ele>862.9</ele>
        <time>2017-03-25T08:41:14Z</time>
      </trkpt>
      <trkpt lat="38.210231" lon="-2.000195">
        <ele>862.4</ele>
        <time>2017-03-25T08:41:15Z</time>
      </trkpt>
      <trkpt lat="38.210244" lon="-2.000243">
        <ele>862.9</ele>
        <time>2017-03-25T08:41:18Z</time>
      </trkpt>
      <trkpt lat="38.210244" lon="-2.000261">
        <ele>862.4</ele>
        <time>2017-03-25T08:41:19Z</time>
      </trkpt>
      <trkpt lat="38.210246" lon="-2.000276">
        <ele>863.4</ele>
        <time>2017-03-25T08:41:20Z</time>
      </trkpt>
      <trkpt lat="38.210251" lon="-2.000292">
        <ele>862.4</ele>
        <time>2017-03-25T08:41:21Z</time>
      </trkpt>
      <trkpt lat="38.210271" lon="-2.000388">
        <ele>862.9</ele>
        <time>2017-03-25T08:41:32Z</time>
      </trkpt>
      <trkpt lat="38.210354" lon="-2.000596">
        <ele>862.9</ele>
        <time>2017-03-25T08:41:47Z</time>
      </trkpt>
      <trkpt lat="38.210360" lon="-2.000578">
        <ele>863.9</ele>
        <time>2017-03-25T08:42:09Z</time>
      </trkpt>
      <trkpt lat="38.210375" lon="-2.000648">
        <ele>863.9</ele>
        <time>2017-03-25T08:42:15Z</time>
      </trkpt>
      <trkpt lat="38.210380" lon="-2.000723">
        <ele>863.9</ele>
        <time>2017-03-25T08:42:28Z</time>
      </trkpt>
      <trkpt lat="38.210397" lon="-2.000748">
        <ele>863.4</ele>
        <time>2017-03-25T08:42:46Z</time>
      </trkpt>
      <trkpt lat="38.210416" lon="-2.000787">
        <ele>863.9</ele>
        <time>2017-03-25T08:42:58Z</time>
      </trkpt>
      <trkpt lat="38.210432" lon="-2.000857">
        <ele>863.9</ele>
        <time>2017-03-25T08:43:11Z</time>
      </trkpt>
      <trkpt lat="38.210432" lon="-2.001032">
        <ele>863.9</ele>
        <time>2017-03-25T08:43:20Z</time>
      </trkpt>
      <trkpt lat="38.210440" lon="-2.001046">
        <ele>863.9</ele>
        <time>2017-03-25T08:43:21Z</time>
      </trkpt>
      <trkpt lat="38.210446" lon="-2.001059">
        <ele>863.9</ele>
        <time>2017-03-25T08:43:22Z</time>
      </trkpt>
      <trkpt lat="38.210471" lon="-2.001207">
        <ele>864.4</ele>
        <time>2017-03-25T08:43:31Z</time>
      </trkpt>
      <trkpt lat="38.210476" lon="-2.001263">
        <ele>864.4</ele>
        <time>2017-03-25T08:43:35Z</time>
      </trkpt>
      <trkpt lat="38.210480" lon="-2.001278">
        <ele>863.9</ele>
        <time>2017-03-25T08:43:36Z</time>
      </trkpt>
      <trkpt lat="38.210513" lon="-2.001423">
        <ele>865.8</ele>
        <time>2017-03-25T08:43:45Z</time>
      </trkpt>
      <trkpt lat="38.210547" lon="-2.001579">
        <ele>864.4</ele>
        <time>2017-03-25T08:43:54Z</time>
      </trkpt>
      <trkpt lat="38.210549" lon="-2.001594">
        <ele>865.3</ele>
        <time>2017-03-25T08:43:55Z</time>
      </trkpt>
      <trkpt lat="38.210555" lon="-2.001637">
        <ele>864.8</ele>
        <time>2017-03-25T08:43:58Z</time>
      </trkpt>
      <trkpt lat="38.210561" lon="-2.001650">
        <ele>865.3</ele>
        <time>2017-03-25T08:43:59Z</time>
      </trkpt>
      <trkpt lat="38.210564" lon="-2.001664">
        <ele>865.3</ele>
        <time>2017-03-25T08:44:00Z</time>
      </trkpt>
      <trkpt lat="38.210569" lon="-2.001680">
        <ele>865.3</ele>
        <time>2017-03-25T08:44:01Z</time>
      </trkpt>
      <trkpt lat="38.210573" lon="-2.001698">
        <ele>865.3</ele>
        <time>2017-03-25T08:44:02Z</time>
      </trkpt>
      <trkpt lat="38.210578" lon="-2.001714">
        <ele>865.3</ele>
        <time>2017-03-25T08:44:03Z</time>
      </trkpt>
      <trkpt lat="38.210586" lon="-2.001728">
        <ele>865.3</ele>
        <time>2017-03-25T08:44:04Z</time>
      </trkpt>
      <trkpt lat="38.210591" lon="-2.001742">
        <ele>865.3</ele>
        <time>2017-03-25T08:44:05Z</time>
      </trkpt>
      <trkpt lat="38.210595" lon="-2.001760">
        <ele>865.3</ele>
        <time>2017-03-25T08:44:06Z</time>
      </trkpt>
      <trkpt lat="38.210601" lon="-2.001781">
        <ele>865.8</ele>
        <time>2017-03-25T08:44:07Z</time>
      </trkpt>
      <trkpt lat="38.210630" lon="-2.001909">
        <ele>865.3</ele>
        <time>2017-03-25T08:44:15Z</time>
      </trkpt>
      <trkpt lat="38.210681" lon="-2.002172">
        <ele>865.8</ele>
        <time>2017-03-25T08:44:31Z</time>
      </trkpt>
      <trkpt lat="38.210688" lon="-2.002241">
        <ele>866.3</ele>
        <time>2017-03-25T08:44:35Z</time>
      </trkpt>
      <trkpt lat="38.210686" lon="-2.002259">
        <ele>866.3</ele>
        <time>2017-03-25T08:44:36Z</time>
      </trkpt>
      <trkpt lat="38.210687" lon="-2.002276">
        <ele>866.3</ele>
        <time>2017-03-25T08:44:37Z</time>
      </trkpt>
      <trkpt lat="38.210747" lon="-2.002499">
        <ele>865.8</ele>
        <time>2017-03-25T08:44:50Z</time>
      </trkpt>
      <trkpt lat="38.210792" lon="-2.002743">
        <ele>866.3</ele>
        <time>2017-03-25T08:45:05Z</time>
      </trkpt>
      <trkpt lat="38.210834" lon="-2.002934">
        <ele>865.8</ele>
        <time>2017-03-25T08:45:16Z</time>
      </trkpt>
      <trkpt lat="38.210842" lon="-2.002961">
        <ele>865.8</ele>
        <time>2017-03-25T08:45:18Z</time>
      </trkpt>
      <trkpt lat="38.210854" lon="-2.002977">
        <ele>866.3</ele>
        <time>2017-03-25T08:45:19Z</time>
      </trkpt>
      <trkpt lat="38.210906" lon="-2.003054">
        <ele>866.3</ele>
        <time>2017-03-25T08:45:25Z</time>
      </trkpt>
      <trkpt lat="38.210913" lon="-2.003120">
        <ele>866.3</ele>
        <time>2017-03-25T08:45:29Z</time>
      </trkpt>
      <trkpt lat="38.210919" lon="-2.003146">
        <ele>866.3</ele>
        <time>2017-03-25T08:45:30Z</time>
      </trkpt>
      <trkpt lat="38.210928" lon="-2.003161">
        <ele>866.3</ele>
        <time>2017-03-25T08:45:31Z</time>
      </trkpt>
      <trkpt lat="38.210965" lon="-2.003364">
        <ele>866.3</ele>
        <time>2017-03-25T08:45:44Z</time>
      </trkpt>
      <trkpt lat="38.210982" lon="-2.003647">
        <ele>866.8</ele>
        <time>2017-03-25T08:45:58Z</time>
      </trkpt>
      <trkpt lat="38.210989" lon="-2.003730">
        <ele>866.8</ele>
        <time>2017-03-25T08:46:04Z</time>
      </trkpt>
      <trkpt lat="38.210996" lon="-2.003763">
        <ele>866.8</ele>
        <time>2017-03-25T08:46:06Z</time>
      </trkpt>
      <trkpt lat="38.210998" lon="-2.003779">
        <ele>866.8</ele>
        <time>2017-03-25T08:46:07Z</time>
      </trkpt>
      <trkpt lat="38.211000" lon="-2.003799">
        <ele>866.8</ele>
        <time>2017-03-25T08:46:08Z</time>
      </trkpt>
      <trkpt lat="38.211005" lon="-2.003819">
        <ele>866.8</ele>
        <time>2017-03-25T08:46:09Z</time>
      </trkpt>
      <trkpt lat="38.211008" lon="-2.003862">
        <ele>867.2</ele>
        <time>2017-03-25T08:46:13Z</time>
      </trkpt>
      <trkpt lat="38.211009" lon="-2.003880">
        <ele>866.8</ele>
        <time>2017-03-25T08:46:14Z</time>
      </trkpt>
      <trkpt lat="38.210997" lon="-2.003926">
        <ele>867.2</ele>
        <time>2017-03-25T08:46:17Z</time>
      </trkpt>
      <trkpt lat="38.210990" lon="-2.003947">
        <ele>866.8</ele>
        <time>2017-03-25T08:46:18Z</time>
      </trkpt>
      <trkpt lat="38.210991" lon="-2.003966">
        <ele>867.2</ele>
        <time>2017-03-25T08:46:19Z</time>
      </trkpt>
      <trkpt lat="38.210984" lon="-2.003995">
        <ele>866.8</ele>
        <time>2017-03-25T08:46:20Z</time>
      </trkpt>
      <trkpt lat="38.210984" lon="-2.004016">
        <ele>866.3</ele>
        <time>2017-03-25T08:46:21Z</time>
      </trkpt>
      <trkpt lat="38.210991" lon="-2.004032">
        <ele>866.8</ele>
        <time>2017-03-25T08:46:22Z</time>
      </trkpt>
      <trkpt lat="38.210962" lon="-2.004293">
        <ele>866.3</ele>
        <time>2017-03-25T08:46:35Z</time>
      </trkpt>
      <trkpt lat="38.210938" lon="-2.004457">
        <ele>866.3</ele>
        <time>2017-03-25T08:46:46Z</time>
      </trkpt>
      <trkpt lat="38.210892" lon="-2.004566">
        <ele>865.8</ele>
        <time>2017-03-25T08:46:59Z</time>
      </trkpt>
      <trkpt lat="38.210888" lon="-2.004676">
        <ele>866.3</ele>
        <time>2017-03-25T08:48:20Z</time>
      </trkpt>
      <trkpt lat="38.210889" lon="-2.004724">
        <ele>865.8</ele>
        <time>2017-03-25T08:48:33Z</time>
      </trkpt>
      <trkpt lat="38.210881" lon="-2.004795">
        <ele>866.3</ele>
        <time>2017-03-25T08:48:49Z</time>
      </trkpt>
      <trkpt lat="38.210874" lon="-2.004800">
        <ele>868.2</ele>
        <time>2017-03-25T08:53:29Z</time>
      </trkpt>
      <trkpt lat="38.210919" lon="-2.004943">
        <ele>869.7</ele>
        <time>2017-03-25T08:53:45Z</time>
      </trkpt>
      <trkpt lat="38.210927" lon="-2.005105">
        <ele>870.1</ele>
        <time>2017-03-25T08:54:00Z</time>
      </trkpt>
      <trkpt lat="38.210930" lon="-2.005279">
        <ele>870.6</ele>
        <time>2017-03-25T08:54:15Z</time>
      </trkpt>
      <trkpt lat="38.210935" lon="-2.005362">
        <ele>870.6</ele>
        <time>2017-03-25T08:54:21Z</time>
      </trkpt>
      <trkpt lat="38.210972" lon="-2.005560">
        <ele>871.1</ele>
        <time>2017-03-25T08:54:35Z</time>
      </trkpt>
      <trkpt lat="38.210986" lon="-2.005594">
        <ele>871.6</ele>
        <time>2017-03-25T08:54:38Z</time>
      </trkpt>
      <trkpt lat="38.210990" lon="-2.005638">
        <ele>871.1</ele>
        <time>2017-03-25T08:54:41Z</time>
      </trkpt>
      <trkpt lat="38.211002" lon="-2.005696">
        <ele>871.6</ele>
        <time>2017-03-25T08:54:45Z</time>
      </trkpt>
      <trkpt lat="38.211000" lon="-2.005803">
        <ele>871.6</ele>
        <time>2017-03-25T08:54:51Z</time>
      </trkpt>
      <trkpt lat="38.210995" lon="-2.005971">
        <ele>872.0</ele>
        <time>2017-03-25T08:55:02Z</time>
      </trkpt>
      <trkpt lat="38.210987" lon="-2.006183">
        <ele>873.0</ele>
        <time>2017-03-25T08:55:18Z</time>
      </trkpt>
      <trkpt lat="38.210989" lon="-2.006283">
        <ele>873.5</ele>
        <time>2017-03-25T08:55:29Z</time>
      </trkpt>
      <trkpt lat="38.210980" lon="-2.006323">
        <ele>874.0</ele>
        <time>2017-03-25T08:55:35Z</time>
      </trkpt>
      <trkpt lat="38.210958" lon="-2.006382">
        <ele>874.0</ele>
        <time>2017-03-25T08:55:49Z</time>
      </trkpt>
      <trkpt lat="38.210948" lon="-2.006421">
        <ele>874.5</ele>
        <time>2017-03-25T08:55:54Z</time>
      </trkpt>
      <trkpt lat="38.210938" lon="-2.006572">
        <ele>875.9</ele>
        <time>2017-03-25T08:56:08Z</time>
      </trkpt>
      <trkpt lat="38.210916" lon="-2.006612">
        <ele>875.4</ele>
        <time>2017-03-25T08:56:19Z</time>
      </trkpt>
      <trkpt lat="38.210911" lon="-2.006660">
        <ele>875.9</ele>
        <time>2017-03-25T08:56:32Z</time>
      </trkpt>
      <trkpt lat="38.210886" lon="-2.006841">
        <ele>876.9</ele>
        <time>2017-03-25T08:56:50Z</time>
      </trkpt>
      <trkpt lat="38.210818" lon="-2.007011">
        <ele>877.8</ele>
        <time>2017-03-25T08:57:07Z</time>
      </trkpt>
      <trkpt lat="38.210792" lon="-2.007123">
        <ele>878.8</ele>
        <time>2017-03-25T08:57:18Z</time>
      </trkpt>
      <trkpt lat="38.210766" lon="-2.007194">
        <ele>879.7</ele>
        <time>2017-03-25T08:57:24Z</time>
      </trkpt>
      <trkpt lat="38.210750" lon="-2.007331">
        <ele>880.2</ele>
        <time>2017-03-25T08:57:36Z</time>
      </trkpt>
      <trkpt lat="38.210751" lon="-2.007356">
        <ele>880.7</ele>
        <time>2017-03-25T08:57:38Z</time>
      </trkpt>
      <trkpt lat="38.210761" lon="-2.007504">
        <ele>882.2</ele>
        <time>2017-03-25T08:57:52Z</time>
      </trkpt>
      <trkpt lat="38.210752" lon="-2.007527">
        <ele>882.6</ele>
        <time>2017-03-25T08:57:54Z</time>
      </trkpt>
      <trkpt lat="38.210735" lon="-2.007678">
        <ele>885.5</ele>
        <time>2017-03-25T08:58:45Z</time>
      </trkpt>
      <trkpt lat="38.210745" lon="-2.007697">
        <ele>885.5</ele>
        <time>2017-03-25T08:59:09Z</time>
      </trkpt>
      <trkpt lat="38.210702" lon="-2.007843">
        <ele>887.0</ele>
        <time>2017-03-25T09:06:25Z</time>
      </trkpt>
      <trkpt lat="38.210663" lon="-2.007996">
        <ele>888.4</ele>
        <time>2017-03-25T09:06:38Z</time>
      </trkpt>
      <trkpt lat="38.210672" lon="-2.008040">
        <ele>889.4</ele>
        <time>2017-03-25T09:06:52Z</time>
      </trkpt>
      <trkpt lat="38.210602" lon="-2.008183">
        <ele>890.3</ele>
        <time>2017-03-25T09:07:06Z</time>
      </trkpt>
      <trkpt lat="38.210483" lon="-2.008371">
        <ele>892.7</ele>
        <time>2017-03-25T09:07:21Z</time>
      </trkpt>
      <trkpt lat="38.210408" lon="-2.008516">
        <ele>893.7</ele>
        <time>2017-03-25T09:07:33Z</time>
      </trkpt>
      <trkpt lat="38.210282" lon="-2.008680">
        <ele>895.6</ele>
        <time>2017-03-25T09:07:50Z</time>
      </trkpt>
      <trkpt lat="38.210171" lon="-2.008884">
        <ele>897.0</ele>
        <time>2017-03-25T09:08:05Z</time>
      </trkpt>
      <trkpt lat="38.210132" lon="-2.009126">
        <ele>898.5</ele>
        <time>2017-03-25T09:08:21Z</time>
      </trkpt>
      <trkpt lat="38.210149" lon="-2.009341">
        <ele>900.4</ele>
        <time>2017-03-25T09:08:34Z</time>
      </trkpt>
      <trkpt lat="38.210183" lon="-2.009502">
        <ele>901.8</ele>
        <time>2017-03-25T09:08:47Z</time>
      </trkpt>
      <trkpt lat="38.210168" lon="-2.009692">
        <ele>904.3</ele>
        <time>2017-03-25T09:09:02Z</time>
      </trkpt>
      <trkpt lat="38.210154" lon="-2.009720">
        <ele>904.3</ele>
        <time>2017-03-25T09:09:04Z</time>
      </trkpt>
      <trkpt lat="38.210138" lon="-2.009873">
        <ele>905.2</ele>
        <time>2017-03-25T09:09:16Z</time>
      </trkpt>
      <trkpt lat="38.210063" lon="-2.010055">
        <ele>906.2</ele>
        <time>2017-03-25T09:09:31Z</time>
      </trkpt>
      <trkpt lat="38.209992" lon="-2.010110">
        <ele>909.5</ele>
        <time>2017-03-25T09:09:39Z</time>
      </trkpt>
      <trkpt lat="38.209937" lon="-2.010094">
        <ele>908.1</ele>
        <time>2017-03-25T09:09:46Z</time>
      </trkpt>
      <trkpt lat="38.209883" lon="-2.010011">
        <ele>908.6</ele>
        <time>2017-03-25T09:09:55Z</time>
      </trkpt>
      <trkpt lat="38.209864" lon="-2.009898">
        <ele>909.1</ele>
        <time>2017-03-25T09:10:04Z</time>
      </trkpt>
      <trkpt lat="38.209821" lon="-2.009752">
        <ele>908.6</ele>
        <time>2017-03-25T09:10:16Z</time>
      </trkpt>
      <trkpt lat="38.209729" lon="-2.009636">
        <ele>909.5</ele>
        <time>2017-03-25T09:10:29Z</time>
      </trkpt>
      <trkpt lat="38.209618" lon="-2.009658">
        <ele>911.0</ele>
        <time>2017-03-25T09:10:39Z</time>
      </trkpt>
      <trkpt lat="38.209598" lon="-2.009677">
        <ele>911.5</ele>
        <time>2017-03-25T09:10:41Z</time>
      </trkpt>
      <trkpt lat="38.209567" lon="-2.009797">
        <ele>912.9</ele>
        <time>2017-03-25T09:10:50Z</time>
      </trkpt>
      <trkpt lat="38.209540" lon="-2.009909">
        <ele>913.9</ele>
        <time>2017-03-25T09:10:56Z</time>
      </trkpt>
      <trkpt lat="38.209526" lon="-2.010118">
        <ele>915.8</ele>
        <time>2017-03-25T09:11:12Z</time>
      </trkpt>
      <trkpt lat="38.209507" lon="-2.010250">
        <ele>916.3</ele>
        <time>2017-03-25T09:11:21Z</time>
      </trkpt>
      <trkpt lat="38.209451" lon="-2.010509">
        <ele>918.7</ele>
        <time>2017-03-25T09:11:40Z</time>
      </trkpt>
      <trkpt lat="38.209399" lon="-2.010574">
        <ele>919.2</ele>
        <time>2017-03-25T09:11:48Z</time>
      </trkpt>
      <trkpt lat="38.209325" lon="-2.010717">
        <ele>920.1</ele>
        <time>2017-03-25T09:12:04Z</time>
      </trkpt>
      <trkpt lat="38.209187" lon="-2.010872">
        <ele>921.6</ele>
        <time>2017-03-25T09:12:20Z</time>
      </trkpt>
      <trkpt lat="38.209125" lon="-2.010951">
        <ele>922.5</ele>
        <time>2017-03-25T09:12:27Z</time>
      </trkpt>
      <trkpt lat="38.208978" lon="-2.011131">
        <ele>924.9</ele>
        <time>2017-03-25T09:12:45Z</time>
      </trkpt>
      <trkpt lat="38.208922" lon="-2.011200">
        <ele>925.9</ele>
        <time>2017-03-25T09:12:52Z</time>
      </trkpt>
      <trkpt lat="38.208815" lon="-2.011307">
        <ele>929.2</ele>
        <time>2017-03-25T09:13:04Z</time>
      </trkpt>
      <trkpt lat="38.208812" lon="-2.011316">
        <ele>927.3</ele>
        <time>2017-03-25T09:13:05Z</time>
      </trkpt>
      <trkpt lat="38.208706" lon="-2.011511">
        <ele>928.3</ele>
        <time>2017-03-25T09:13:19Z</time>
      </trkpt>
      <trkpt lat="38.208682" lon="-2.011573">
        <ele>928.8</ele>
        <time>2017-03-25T09:13:24Z</time>
      </trkpt>
      <trkpt lat="38.208679" lon="-2.011599">
        <ele>928.8</ele>
        <time>2017-03-25T09:13:26Z</time>
      </trkpt>
      <trkpt lat="38.208626" lon="-2.011706">
        <ele>929.7</ele>
        <time>2017-03-25T09:13:34Z</time>
      </trkpt>
      <trkpt lat="38.208610" lon="-2.011783">
        <ele>931.2</ele>
        <time>2017-03-25T09:13:39Z</time>
      </trkpt>
      <trkpt lat="38.208515" lon="-2.012019">
        <ele>933.6</ele>
        <time>2017-03-25T09:13:55Z</time>
      </trkpt>
      <trkpt lat="38.208468" lon="-2.012125">
        <ele>934.5</ele>
        <time>2017-03-25T09:14:04Z</time>
      </trkpt>
      <trkpt lat="38.208404" lon="-2.012324">
        <ele>936.0</ele>
        <time>2017-03-25T09:14:20Z</time>
      </trkpt>
      <trkpt lat="38.208304" lon="-2.012561">
        <ele>936.9</ele>
        <time>2017-03-25T09:14:36Z</time>
      </trkpt>
      <trkpt lat="38.208185" lon="-2.012783">
        <ele>937.4</ele>
        <time>2017-03-25T09:14:54Z</time>
      </trkpt>
      <trkpt lat="38.208039" lon="-2.012994">
        <ele>936.5</ele>
        <time>2017-03-25T09:15:13Z</time>
      </trkpt>
      <trkpt lat="38.207884" lon="-2.013227">
        <ele>935.5</ele>
        <time>2017-03-25T09:15:30Z</time>
      </trkpt>
      <trkpt lat="38.207754" lon="-2.013412">
        <ele>934.1</ele>
        <time>2017-03-25T09:15:45Z</time>
      </trkpt>
      <trkpt lat="38.207617" lon="-2.013610">
        <ele>932.1</ele>
        <time>2017-03-25T09:16:00Z</time>
      </trkpt>
      <trkpt lat="38.207475" lon="-2.013846">
        <ele>930.2</ele>
        <time>2017-03-25T09:16:17Z</time>
      </trkpt>
      <trkpt lat="38.207321" lon="-2.014098">
        <ele>929.7</ele>
        <time>2017-03-25T09:16:36Z</time>
      </trkpt>
      <trkpt lat="38.207234" lon="-2.014285">
        <ele>930.2</ele>
        <time>2017-03-25T09:16:50Z</time>
      </trkpt>
      <trkpt lat="38.207244" lon="-2.014304">
        <ele>930.2</ele>
        <time>2017-03-25T09:16:56Z</time>
      </trkpt>
      <trkpt lat="38.207203" lon="-2.014401">
        <ele>930.7</ele>
        <time>2017-03-25T09:17:18Z</time>
      </trkpt>
      <trkpt lat="38.207084" lon="-2.014631">
        <ele>931.7</ele>
        <time>2017-03-25T09:17:35Z</time>
      </trkpt>
      <trkpt lat="38.207067" lon="-2.014662">
        <ele>931.7</ele>
        <time>2017-03-25T09:17:37Z</time>
      </trkpt>
      <trkpt lat="38.206977" lon="-2.014862">
        <ele>932.1</ele>
        <time>2017-03-25T09:17:52Z</time>
      </trkpt>
      <trkpt lat="38.206969" lon="-2.014905">
        <ele>932.1</ele>
        <time>2017-03-25T09:17:55Z</time>
      </trkpt>
      <trkpt lat="38.206925" lon="-2.015088">
        <ele>932.6</ele>
        <time>2017-03-25T09:18:09Z</time>
      </trkpt>
      <trkpt lat="38.206918" lon="-2.015138">
        <ele>932.6</ele>
        <time>2017-03-25T09:18:12Z</time>
      </trkpt>
      <trkpt lat="38.206934" lon="-2.015224">
        <ele>933.6</ele>
        <time>2017-03-25T09:18:17Z</time>
      </trkpt>
      <trkpt lat="38.207067" lon="-2.015469">
        <ele>934.1</ele>
        <time>2017-03-25T09:18:32Z</time>
      </trkpt>
      <trkpt lat="38.207217" lon="-2.015644">
        <ele>935.0</ele>
        <time>2017-03-25T09:18:46Z</time>
      </trkpt>
      <trkpt lat="38.207274" lon="-2.015803">
        <ele>936.0</ele>
        <time>2017-03-25T09:18:59Z</time>
      </trkpt>
      <trkpt lat="38.207414" lon="-2.015941">
        <ele>937.9</ele>
        <time>2017-03-25T09:19:13Z</time>
      </trkpt>
      <trkpt lat="38.207475" lon="-2.016033">
        <ele>938.9</ele>
        <time>2017-03-25T09:19:21Z</time>
      </trkpt>
      <trkpt lat="38.207500" lon="-2.016214">
        <ele>940.3</ele>
        <time>2017-03-25T09:19:35Z</time>
      </trkpt>
      <trkpt lat="38.207486" lon="-2.016269">
        <ele>940.8</ele>
        <time>2017-03-25T09:19:39Z</time>
      </trkpt>
      <trkpt lat="38.207444" lon="-2.016382">
        <ele>941.8</ele>
        <time>2017-03-25T09:19:48Z</time>
      </trkpt>
      <trkpt lat="38.207461" lon="-2.016534">
        <ele>940.8</ele>
        <time>2017-03-25T09:20:16Z</time>
      </trkpt>
      <trkpt lat="38.207452" lon="-2.016529">
        <ele>941.3</ele>
        <time>2017-03-25T09:20:23Z</time>
      </trkpt>
      <trkpt lat="38.207563" lon="-2.016688">
        <ele>940.3</ele>
        <time>2017-03-25T09:20:39Z</time>
      </trkpt>
      <trkpt lat="38.207592" lon="-2.016747">
        <ele>939.3</ele>
        <time>2017-03-25T09:20:44Z</time>
      </trkpt>
      <trkpt lat="38.207615" lon="-2.016777">
        <ele>939.3</ele>
        <time>2017-03-25T09:20:47Z</time>
      </trkpt>
      <trkpt lat="38.207668" lon="-2.016827">
        <ele>938.4</ele>
        <time>2017-03-25T09:20:52Z</time>
      </trkpt>
      <trkpt lat="38.207849" lon="-2.016876">
        <ele>936.9</ele>
        <time>2017-03-25T09:21:07Z</time>
      </trkpt>
      <trkpt lat="38.207867" lon="-2.016883">
        <ele>936.5</ele>
        <time>2017-03-25T09:21:09Z</time>
      </trkpt>
      <trkpt lat="38.207967" lon="-2.017045">
        <ele>934.5</ele>
        <time>2017-03-25T09:21:25Z</time>
      </trkpt>
      <trkpt lat="38.208016" lon="-2.017243">
        <ele>932.1</ele>
        <time>2017-03-25T09:21:40Z</time>
      </trkpt>
      <trkpt lat="38.208072" lon="-2.017462">
        <ele>930.2</ele>
        <time>2017-03-25T09:21:54Z</time>
      </trkpt>
      <trkpt lat="38.208102" lon="-2.017547">
        <ele>929.7</ele>
        <time>2017-03-25T09:22:09Z</time>
      </trkpt>
      <trkpt lat="38.208112" lon="-2.017677">
        <ele>929.2</ele>
        <time>2017-03-25T09:22:21Z</time>
      </trkpt>
      <trkpt lat="38.208172" lon="-2.017864">
        <ele>928.3</ele>
        <time>2017-03-25T09:22:34Z</time>
      </trkpt>
      <trkpt lat="38.208177" lon="-2.017921">
        <ele>928.3</ele>
        <time>2017-03-25T09:22:37Z</time>
      </trkpt>
      <trkpt lat="38.208190" lon="-2.018012">
        <ele>927.3</ele>
        <time>2017-03-25T09:22:42Z</time>
      </trkpt>
      <trkpt lat="38.208236" lon="-2.018261">
        <ele>927.3</ele>
        <time>2017-03-25T09:22:58Z</time>
      </trkpt>
      <trkpt lat="38.208241" lon="-2.018476">
        <ele>926.8</ele>
        <time>2017-03-25T09:23:13Z</time>
      </trkpt>
      <trkpt lat="38.208220" lon="-2.018715">
        <ele>925.9</ele>
        <time>2017-03-25T09:23:27Z</time>
      </trkpt>
      <trkpt lat="38.208173" lon="-2.018955">
        <ele>924.5</ele>
        <time>2017-03-25T09:23:43Z</time>
      </trkpt>
      <trkpt lat="38.208131" lon="-2.019123">
        <ele>923.5</ele>
        <time>2017-03-25T09:23:54Z</time>
      </trkpt>
      <trkpt lat="38.208117" lon="-2.019168">
        <ele>923.0</ele>
        <time>2017-03-25T09:23:57Z</time>
      </trkpt>
      <trkpt lat="38.208043" lon="-2.019402">
        <ele>921.1</ele>
        <time>2017-03-25T09:24:13Z</time>
      </trkpt>
      <trkpt lat="38.208028" lon="-2.019428">
        <ele>920.6</ele>
        <time>2017-03-25T09:24:15Z</time>
      </trkpt>
      <trkpt lat="38.207937" lon="-2.019711">
        <ele>918.7</ele>
        <time>2017-03-25T09:24:32Z</time>
      </trkpt>
      <trkpt lat="38.207921" lon="-2.019760">
        <ele>918.7</ele>
        <time>2017-03-25T09:24:35Z</time>
      </trkpt>
      <trkpt lat="38.207900" lon="-2.019842">
        <ele>918.7</ele>
        <time>2017-03-25T09:24:41Z</time>
      </trkpt>
      <trkpt lat="38.207802" lon="-2.020018">
        <ele>917.7</ele>
        <time>2017-03-25T09:24:53Z</time>
      </trkpt>
      <trkpt lat="38.207801" lon="-2.020201">
        <ele>916.8</ele>
        <time>2017-03-25T09:25:04Z</time>
      </trkpt>
      <trkpt lat="38.207797" lon="-2.020400">
        <ele>916.3</ele>
        <time>2017-03-25T09:25:47Z</time>
      </trkpt>
      <trkpt lat="38.207732" lon="-2.020587">
        <ele>916.8</ele>
        <time>2017-03-25T09:26:00Z</time>
      </trkpt>
      <trkpt lat="38.207706" lon="-2.020692">
        <ele>916.8</ele>
        <time>2017-03-25T09:26:07Z</time>
      </trkpt>
      <trkpt lat="38.207700" lon="-2.020736">
        <ele>916.8</ele>
        <time>2017-03-25T09:26:10Z</time>
      </trkpt>
      <trkpt lat="38.207722" lon="-2.020843">
        <ele>915.8</ele>
        <time>2017-03-25T09:26:19Z</time>
      </trkpt>
      <trkpt lat="38.207691" lon="-2.021083">
        <ele>914.8</ele>
        <time>2017-03-25T09:26:32Z</time>
      </trkpt>
      <trkpt lat="38.207664" lon="-2.021165">
        <ele>913.4</ele>
        <time>2017-03-25T09:26:39Z</time>
      </trkpt>
      <trkpt lat="38.207619" lon="-2.021297">
        <ele>910.0</ele>
        <time>2017-03-25T09:26:50Z</time>
      </trkpt>
      <trkpt lat="38.207613" lon="-2.021311">
        <ele>911.0</ele>
        <time>2017-03-25T09:27:05Z</time>
      </trkpt>
      <trkpt lat="38.207585" lon="-2.021352">
        <ele>909.5</ele>
        <time>2017-03-25T09:27:08Z</time>
      </trkpt>
      <trkpt lat="38.207577" lon="-2.021554">
        <ele>907.1</ele>
        <time>2017-03-25T09:27:20Z</time>
      </trkpt>
      <trkpt lat="38.207545" lon="-2.021712">
        <ele>906.2</ele>
        <time>2017-03-25T09:27:31Z</time>
      </trkpt>
      <trkpt lat="38.207494" lon="-2.021942">
        <ele>905.7</ele>
        <time>2017-03-25T09:27:47Z</time>
      </trkpt>
      <trkpt lat="38.207505" lon="-2.022047">
        <ele>905.2</ele>
        <time>2017-03-25T09:27:59Z</time>
      </trkpt>
      <trkpt lat="38.207550" lon="-2.022083">
        <ele>905.2</ele>
        <time>2017-03-25T09:28:58Z</time>
      </trkpt>
      <trkpt lat="38.207642" lon="-2.022296">
        <ele>906.7</ele>
        <time>2017-03-25T09:31:29Z</time>
      </trkpt>
      <trkpt lat="38.207634" lon="-2.022380">
        <ele>909.1</ele>
        <time>2017-03-25T09:39:03Z</time>
      </trkpt>
      <trkpt lat="38.207626" lon="-2.022392">
        <ele>909.5</ele>
        <time>2017-03-25T09:39:16Z</time>
      </trkpt>
      <trkpt lat="38.207619" lon="-2.022462">
        <ele>909.5</ele>
        <time>2017-03-25T09:40:05Z</time>
      </trkpt>
      <trkpt lat="38.207551" lon="-2.022573">
        <ele>910.5</ele>
        <time>2017-03-25T09:40:20Z</time>
      </trkpt>
      <trkpt lat="38.207490" lon="-2.022750">
        <ele>912.9</ele>
        <time>2017-03-25T09:40:37Z</time>
      </trkpt>
      <trkpt lat="38.207464" lon="-2.022821">
        <ele>913.4</ele>
        <time>2017-03-25T09:40:41Z</time>
      </trkpt>
      <trkpt lat="38.207466" lon="-2.022861">
        <ele>912.9</ele>
        <time>2017-03-25T09:40:43Z</time>
      </trkpt>
      <trkpt lat="38.207471" lon="-2.022980">
        <ele>913.9</ele>
        <time>2017-03-25T09:40:50Z</time>
      </trkpt>
      <trkpt lat="38.207474" lon="-2.023009">
        <ele>913.9</ele>
        <time>2017-03-25T09:41:02Z</time>
      </trkpt>
      <trkpt lat="38.207591" lon="-2.023212">
        <ele>914.3</ele>
        <time>2017-03-25T09:41:16Z</time>
      </trkpt>
      <trkpt lat="38.207588" lon="-2.023342">
        <ele>914.3</ele>
        <time>2017-03-25T09:41:27Z</time>
      </trkpt>
      <trkpt lat="38.207654" lon="-2.023537">
        <ele>917.2</ele>
        <time>2017-03-25T09:41:41Z</time>
      </trkpt>
      <trkpt lat="38.207652" lon="-2.023572">
        <ele>915.3</ele>
        <time>2017-03-25T09:41:44Z</time>
      </trkpt>
      <trkpt lat="38.207648" lon="-2.023584">
        <ele>918.7</ele>
        <time>2017-03-25T09:41:45Z</time>
      </trkpt>
      <trkpt lat="38.207647" lon="-2.023595">
        <ele>917.7</ele>
        <time>2017-03-25T09:41:46Z</time>
      </trkpt>
      <trkpt lat="38.207603" lon="-2.023630">
        <ele>918.2</ele>
        <time>2017-03-25T09:41:54Z</time>
      </trkpt>
      <trkpt lat="38.207566" lon="-2.023653">
        <ele>919.2</ele>
        <time>2017-03-25T09:41:58Z</time>
      </trkpt>
      <trkpt lat="38.207464" lon="-2.023735">
        <ele>921.1</ele>
        <time>2017-03-25T09:42:12Z</time>
      </trkpt>
      <trkpt lat="38.207450" lon="-2.023812">
        <ele>921.6</ele>
        <time>2017-03-25T09:42:19Z</time>
      </trkpt>
      <trkpt lat="38.207515" lon="-2.024039">
        <ele>923.0</ele>
        <time>2017-03-25T09:43:12Z</time>
      </trkpt>
      <trkpt lat="38.207517" lon="-2.024178">
        <ele>924.0</ele>
        <time>2017-03-25T09:43:20Z</time>
      </trkpt>
      <trkpt lat="38.207527" lon="-2.024245">
        <ele>924.5</ele>
        <time>2017-03-25T09:43:25Z</time>
      </trkpt>
      <trkpt lat="38.207519" lon="-2.024310">
        <ele>924.5</ele>
        <time>2017-03-25T09:43:29Z</time>
      </trkpt>
      <trkpt lat="38.207511" lon="-2.024400">
        <ele>924.5</ele>
        <time>2017-03-25T09:43:33Z</time>
      </trkpt>
      <trkpt lat="38.207431" lon="-2.024552">
        <ele>925.4</ele>
        <time>2017-03-25T09:43:43Z</time>
      </trkpt>
      <trkpt lat="38.207274" lon="-2.024501">
        <ele>926.8</ele>
        <time>2017-03-25T09:43:55Z</time>
      </trkpt>
      <trkpt lat="38.207268" lon="-2.024437">
        <ele>926.4</ele>
        <time>2017-03-25T09:44:06Z</time>
      </trkpt>
      <trkpt lat="38.207045" lon="-2.024348">
        <ele>926.4</ele>
        <time>2017-03-25T09:44:23Z</time>
      </trkpt>
      <trkpt lat="38.206945" lon="-2.024357">
        <ele>927.3</ele>
        <time>2017-03-25T09:44:31Z</time>
      </trkpt>
      <trkpt lat="38.206757" lon="-2.024337">
        <ele>928.8</ele>
        <time>2017-03-25T09:44:45Z</time>
      </trkpt>
      <trkpt lat="38.206703" lon="-2.024338">
        <ele>929.7</ele>
        <time>2017-03-25T09:44:48Z</time>
      </trkpt>
      <trkpt lat="38.206500" lon="-2.024427">
        <ele>931.2</ele>
        <time>2017-03-25T09:45:03Z</time>
      </trkpt>
      <trkpt lat="38.206470" lon="-2.024444">
        <ele>931.7</ele>
        <time>2017-03-25T09:45:05Z</time>
      </trkpt>
      <trkpt lat="38.206446" lon="-2.024503">
        <ele>932.1</ele>
        <time>2017-03-25T09:45:09Z</time>
      </trkpt>
      <trkpt lat="38.206470" lon="-2.024714">
        <ele>935.0</ele>
        <time>2017-03-25T09:45:21Z</time>
      </trkpt>
      <trkpt lat="38.206570" lon="-2.024885">
        <ele>936.0</ele>
        <time>2017-03-25T09:45:33Z</time>
      </trkpt>
      <trkpt lat="38.206643" lon="-2.024905">
        <ele>936.9</ele>
        <time>2017-03-25T09:45:38Z</time>
      </trkpt>
      <trkpt lat="38.206802" lon="-2.025098">
        <ele>938.9</ele>
        <time>2017-03-25T09:45:53Z</time>
      </trkpt>
      <trkpt lat="38.206863" lon="-2.025214">
        <ele>939.8</ele>
        <time>2017-03-25T09:46:03Z</time>
      </trkpt>
      <trkpt lat="38.206913" lon="-2.025413">
        <ele>940.3</ele>
        <time>2017-03-25T09:46:16Z</time>
      </trkpt>
      <trkpt lat="38.206926" lon="-2.025431">
        <ele>940.3</ele>
        <time>2017-03-25T09:46:18Z</time>
      </trkpt>
      <trkpt lat="38.207021" lon="-2.025573">
        <ele>941.8</ele>
        <time>2017-03-25T09:46:29Z</time>
      </trkpt>
      <trkpt lat="38.207029" lon="-2.025618">
        <ele>941.8</ele>
        <time>2017-03-25T09:46:32Z</time>
      </trkpt>
      <trkpt lat="38.207079" lon="-2.025744">
        <ele>942.2</ele>
        <time>2017-03-25T09:46:40Z</time>
      </trkpt>
      <trkpt lat="38.207108" lon="-2.025797">
        <ele>942.7</ele>
        <time>2017-03-25T09:46:44Z</time>
      </trkpt>
      <trkpt lat="38.207197" lon="-2.025890">
        <ele>944.2</ele>
        <time>2017-03-25T09:46:53Z</time>
      </trkpt>
      <trkpt lat="38.207362" lon="-2.026022">
        <ele>945.6</ele>
        <time>2017-03-25T09:47:06Z</time>
      </trkpt>
      <trkpt lat="38.207499" lon="-2.026199">
        <ele>946.6</ele>
        <time>2017-03-25T09:47:20Z</time>
      </trkpt>
      <trkpt lat="38.207573" lon="-2.026319">
        <ele>948.0</ele>
        <time>2017-03-25T09:47:33Z</time>
      </trkpt>
      <trkpt lat="38.207591" lon="-2.026352">
        <ele>948.5</ele>
        <time>2017-03-25T09:47:36Z</time>
      </trkpt>
      <trkpt lat="38.207623" lon="-2.026388">
        <ele>949.0</ele>
        <time>2017-03-25T09:47:41Z</time>
      </trkpt>
      <trkpt lat="38.207686" lon="-2.026541">
        <ele>950.4</ele>
        <time>2017-03-25T09:47:54Z</time>
      </trkpt>
      <trkpt lat="38.207695" lon="-2.026583">
        <ele>951.4</ele>
        <time>2017-03-25T09:47:57Z</time>
      </trkpt>
      <trkpt lat="38.207767" lon="-2.026702">
        <ele>951.8</ele>
        <time>2017-03-25T09:48:11Z</time>
      </trkpt>
      <trkpt lat="38.207880" lon="-2.026800">
        <ele>953.8</ele>
        <time>2017-03-25T09:48:25Z</time>
      </trkpt>
      <trkpt lat="38.207926" lon="-2.026829">
        <ele>954.2</ele>
        <time>2017-03-25T09:48:35Z</time>
      </trkpt>
      <trkpt lat="38.208024" lon="-2.026973">
        <ele>954.7</ele>
        <time>2017-03-25T09:48:44Z</time>
      </trkpt>
      <trkpt lat="38.208007" lon="-2.027157">
        <ele>955.7</ele>
        <time>2017-03-25T09:48:59Z</time>
      </trkpt>
      <trkpt lat="38.207952" lon="-2.027147">
        <ele>956.7</ele>
        <time>2017-03-25T09:49:06Z</time>
      </trkpt>
      <trkpt lat="38.207888" lon="-2.027129">
        <ele>957.1</ele>
        <time>2017-03-25T09:49:11Z</time>
      </trkpt>
      <trkpt lat="38.207820" lon="-2.027129">
        <ele>958.6</ele>
        <time>2017-03-25T09:49:24Z</time>
      </trkpt>
      <trkpt lat="38.207627" lon="-2.027026">
        <ele>960.5</ele>
        <time>2017-03-25T09:49:43Z</time>
      </trkpt>
      <trkpt lat="38.207559" lon="-2.027111">
        <ele>961.5</ele>
        <time>2017-03-25T09:49:52Z</time>
      </trkpt>
      <trkpt lat="38.207627" lon="-2.027182">
        <ele>961.9</ele>
        <time>2017-03-25T09:50:02Z</time>
      </trkpt>
      <trkpt lat="38.207632" lon="-2.027204">
        <ele>962.4</ele>
        <time>2017-03-25T09:50:04Z</time>
      </trkpt>
      <trkpt lat="38.207637" lon="-2.027264">
        <ele>962.9</ele>
        <time>2017-03-25T09:50:09Z</time>
      </trkpt>
      <trkpt lat="38.207623" lon="-2.027343">
        <ele>964.3</ele>
        <time>2017-03-25T09:50:17Z</time>
      </trkpt>
      <trkpt lat="38.207580" lon="-2.027356">
        <ele>964.3</ele>
        <time>2017-03-25T09:50:19Z</time>
      </trkpt>
      <trkpt lat="38.207443" lon="-2.027329">
        <ele>967.2</ele>
        <time>2017-03-25T09:50:30Z</time>
      </trkpt>
      <trkpt lat="38.207350" lon="-2.027398">
        <ele>970.1</ele>
        <time>2017-03-25T09:50:43Z</time>
      </trkpt>
      <trkpt lat="38.207320" lon="-2.027559">
        <ele>971.5</ele>
        <time>2017-03-25T09:50:54Z</time>
      </trkpt>
      <trkpt lat="38.207295" lon="-2.027643">
        <ele>973.5</ele>
        <time>2017-03-25T09:51:01Z</time>
      </trkpt>
      <trkpt lat="38.207181" lon="-2.027666">
        <ele>975.4</ele>
        <time>2017-03-25T09:51:15Z</time>
      </trkpt>
      <trkpt lat="38.207094" lon="-2.027654">
        <ele>975.9</ele>
        <time>2017-03-25T09:51:24Z</time>
      </trkpt>
      <trkpt lat="38.206994" lon="-2.027634">
        <ele>977.3</ele>
        <time>2017-03-25T09:51:38Z</time>
      </trkpt>
      <trkpt lat="38.206928" lon="-2.027611">
        <ele>978.8</ele>
        <time>2017-03-25T09:51:44Z</time>
      </trkpt>
      <trkpt lat="38.206834" lon="-2.027630">
        <ele>979.2</ele>
        <time>2017-03-25T09:52:00Z</time>
      </trkpt>
      <trkpt lat="38.206640" lon="-2.027606">
        <ele>981.6</ele>
        <time>2017-03-25T09:52:13Z</time>
      </trkpt>
      <trkpt lat="38.206495" lon="-2.027583">
        <ele>983.1</ele>
        <time>2017-03-25T09:52:26Z</time>
      </trkpt>
      <trkpt lat="38.206463" lon="-2.027563">
        <ele>983.6</ele>
        <time>2017-03-25T09:52:30Z</time>
      </trkpt>
      <trkpt lat="38.206292" lon="-2.027462">
        <ele>984.0</ele>
        <time>2017-03-25T09:52:44Z</time>
      </trkpt>
      <trkpt lat="38.206264" lon="-2.027452">
        <ele>984.5</ele>
        <time>2017-03-25T09:52:49Z</time>
      </trkpt>
      <trkpt lat="38.206135" lon="-2.027337">
        <ele>986.0</ele>
        <time>2017-03-25T09:53:03Z</time>
      </trkpt>
      <trkpt lat="38.206026" lon="-2.027249">
        <ele>987.4</ele>
        <time>2017-03-25T09:53:15Z</time>
      </trkpt>
      <trkpt lat="38.205912" lon="-2.027197">
        <ele>988.8</ele>
        <time>2017-03-25T09:53:32Z</time>
      </trkpt>
      <trkpt lat="38.205821" lon="-2.027206">
        <ele>989.8</ele>
        <time>2017-03-25T09:53:49Z</time>
      </trkpt>
      <trkpt lat="38.205807" lon="-2.027205">
        <ele>990.3</ele>
        <time>2017-03-25T09:53:52Z</time>
      </trkpt>
      <trkpt lat="38.205603" lon="-2.027198">
        <ele>990.8</ele>
        <time>2017-03-25T09:54:08Z</time>
      </trkpt>
      <trkpt lat="38.205465" lon="-2.027274">
        <ele>990.3</ele>
        <time>2017-03-25T09:54:24Z</time>
      </trkpt>
      <trkpt lat="38.205394" lon="-2.027315">
        <ele>989.8</ele>
        <time>2017-03-25T09:54:30Z</time>
      </trkpt>
      <trkpt lat="38.205237" lon="-2.027438">
        <ele>989.3</ele>
        <time>2017-03-25T09:54:43Z</time>
      </trkpt>
      <trkpt lat="38.205092" lon="-2.027565">
        <ele>989.3</ele>
        <time>2017-03-25T09:54:57Z</time>
      </trkpt>
      <trkpt lat="38.204950" lon="-2.027686">
        <ele>989.3</ele>
        <time>2017-03-25T09:55:11Z</time>
      </trkpt>
      <trkpt lat="38.204872" lon="-2.027795">
        <ele>988.8</ele>
        <time>2017-03-25T09:55:22Z</time>
      </trkpt>
      <trkpt lat="38.204764" lon="-2.027995">
        <ele>989.8</ele>
        <time>2017-03-25T09:55:37Z</time>
      </trkpt>
      <trkpt lat="38.204692" lon="-2.028137">
        <ele>991.7</ele>
        <time>2017-03-25T09:55:50Z</time>
      </trkpt>
      <trkpt lat="38.204583" lon="-2.028359">
        <ele>994.1</ele>
        <time>2017-03-25T09:56:09Z</time>
      </trkpt>
      <trkpt lat="38.204517" lon="-2.028468">
        <ele>995.6</ele>
        <time>2017-03-25T09:56:20Z</time>
      </trkpt>
      <trkpt lat="38.204419" lon="-2.028593">
        <ele>997.5</ele>
        <time>2017-03-25T09:56:34Z</time>
      </trkpt>
      <trkpt lat="38.204278" lon="-2.028800">
        <ele>999.0</ele>
        <time>2017-03-25T09:56:52Z</time>
      </trkpt>
      <trkpt lat="38.204215" lon="-2.028950">
        <ele>999.9</ele>
        <time>2017-03-25T09:57:06Z</time>
      </trkpt>
      <trkpt lat="38.204200" lon="-2.028981">
        <ele>999.9</ele>
        <time>2017-03-25T09:57:08Z</time>
      </trkpt>
      <trkpt lat="38.204080" lon="-2.029165">
        <ele>999.4</ele>
        <time>2017-03-25T09:57:24Z</time>
      </trkpt>
      <trkpt lat="38.204033" lon="-2.029253">
        <ele>999.4</ele>
        <time>2017-03-25T09:57:32Z</time>
      </trkpt>
      <trkpt lat="38.203928" lon="-2.029487">
        <ele>998.0</ele>
        <time>2017-03-25T09:57:48Z</time>
      </trkpt>
      <trkpt lat="38.203793" lon="-2.029805">
        <ele>996.5</ele>
        <time>2017-03-25T09:58:11Z</time>
      </trkpt>
      <trkpt lat="38.203680" lon="-2.030116">
        <ele>996.5</ele>
        <time>2017-03-25T09:58:32Z</time>
      </trkpt>
      <trkpt lat="38.203625" lon="-2.030311">
        <ele>997.0</ele>
        <time>2017-03-25T09:58:48Z</time>
      </trkpt>
      <trkpt lat="38.203592" lon="-2.030517">
        <ele>996.5</ele>
        <time>2017-03-25T09:59:06Z</time>
      </trkpt>
      <trkpt lat="38.203529" lon="-2.030819">
        <ele>994.6</ele>
        <time>2017-03-25T09:59:27Z</time>
      </trkpt>
      <trkpt lat="38.203455" lon="-2.031010">
        <ele>995.1</ele>
        <time>2017-03-25T09:59:48Z</time>
      </trkpt>
      <trkpt lat="38.203323" lon="-2.031243">
        <ele>995.1</ele>
        <time>2017-03-25T10:00:09Z</time>
      </trkpt>
      <trkpt lat="38.203259" lon="-2.031261">
        <ele>994.6</ele>
        <time>2017-03-25T10:00:27Z</time>
      </trkpt>
      <trkpt lat="38.203118" lon="-2.031423">
        <ele>995.6</ele>
        <time>2017-03-25T10:00:43Z</time>
      </trkpt>
      <trkpt lat="38.203008" lon="-2.031573">
        <ele>997.0</ele>
        <time>2017-03-25T10:00:55Z</time>
      </trkpt>
      <trkpt lat="38.202900" lon="-2.031668">
        <ele>999.0</ele>
        <time>2017-03-25T10:01:07Z</time>
      </trkpt>
      <trkpt lat="38.202789" lon="-2.031779">
        <ele>1001.3</ele>
        <time>2017-03-25T10:01:22Z</time>
      </trkpt>
      <trkpt lat="38.202664" lon="-2.031894">
        <ele>1003.3</ele>
        <time>2017-03-25T10:01:36Z</time>
      </trkpt>
      <trkpt lat="38.202531" lon="-2.032062">
        <ele>1004.7</ele>
        <time>2017-03-25T10:01:51Z</time>
      </trkpt>
      <trkpt lat="38.202412" lon="-2.032236">
        <ele>1007.6</ele>
        <time>2017-03-25T10:02:07Z</time>
      </trkpt>
      <trkpt lat="38.202319" lon="-2.032375">
        <ele>1009.5</ele>
        <time>2017-03-25T10:02:22Z</time>
      </trkpt>
      <trkpt lat="38.202221" lon="-2.032480">
        <ele>1011.4</ele>
        <time>2017-03-25T10:02:37Z</time>
      </trkpt>
      <trkpt lat="38.202150" lon="-2.032567">
        <ele>1012.9</ele>
        <time>2017-03-25T10:02:53Z</time>
      </trkpt>
      <trkpt lat="38.202077" lon="-2.032696">
        <ele>1015.3</ele>
        <time>2017-03-25T10:03:05Z</time>
      </trkpt>
      <trkpt lat="38.201968" lon="-2.032798">
        <ele>1017.7</ele>
        <time>2017-03-25T10:03:19Z</time>
      </trkpt>
      <trkpt lat="38.201798" lon="-2.032957">
        <ele>1020.1</ele>
        <time>2017-03-25T10:03:36Z</time>
      </trkpt>
      <trkpt lat="38.201688" lon="-2.033101">
        <ele>1022.0</ele>
        <time>2017-03-25T10:03:49Z</time>
      </trkpt>
      <trkpt lat="38.201575" lon="-2.033238">
        <ele>1023.5</ele>
        <time>2017-03-25T10:04:05Z</time>
      </trkpt>
      <trkpt lat="38.201533" lon="-2.033262">
        <ele>1023.9</ele>
        <time>2017-03-25T10:04:10Z</time>
      </trkpt>
      <trkpt lat="38.201408" lon="-2.033348">
        <ele>1026.8</ele>
        <time>2017-03-25T10:04:23Z</time>
      </trkpt>
      <trkpt lat="38.201301" lon="-2.033398">
        <ele>1027.8</ele>
        <time>2017-03-25T10:04:36Z</time>
      </trkpt>
      <trkpt lat="38.201196" lon="-2.033367">
        <ele>1030.2</ele>
        <time>2017-03-25T10:04:51Z</time>
      </trkpt>
      <trkpt lat="38.201056" lon="-2.033251">
        <ele>1033.1</ele>
        <time>2017-03-25T10:05:10Z</time>
      </trkpt>
      <trkpt lat="38.200935" lon="-2.033248">
        <ele>1035.0</ele>
        <time>2017-03-25T10:05:28Z</time>
      </trkpt>
      <trkpt lat="38.200876" lon="-2.033275">
        <ele>1036.0</ele>
        <time>2017-03-25T10:05:44Z</time>
      </trkpt>
      <trkpt lat="38.200754" lon="-2.033345">
        <ele>1038.8</ele>
        <time>2017-03-25T10:06:02Z</time>
      </trkpt>
      <trkpt lat="38.200613" lon="-2.033434">
        <ele>1040.3</ele>
        <time>2017-03-25T10:06:17Z</time>
      </trkpt>
      <trkpt lat="38.200494" lon="-2.033530">
        <ele>1041.2</ele>
        <time>2017-03-25T10:06:32Z</time>
      </trkpt>
      <trkpt lat="38.200471" lon="-2.033562">
        <ele>1041.2</ele>
        <time>2017-03-25T10:06:35Z</time>
      </trkpt>
      <trkpt lat="38.200408" lon="-2.033603">
        <ele>1042.2</ele>
        <time>2017-03-25T10:06:42Z</time>
      </trkpt>
      <trkpt lat="38.200312" lon="-2.033759">
        <ele>1043.7</ele>
        <time>2017-03-25T10:06:58Z</time>
      </trkpt>
      <trkpt lat="38.200282" lon="-2.033843">
        <ele>1044.1</ele>
        <time>2017-03-25T10:07:08Z</time>
      </trkpt>
      <trkpt lat="38.200208" lon="-2.033962">
        <ele>1045.6</ele>
        <time>2017-03-25T10:07:20Z</time>
      </trkpt>
      <trkpt lat="38.200130" lon="-2.034046">
        <ele>1046.5</ele>
        <time>2017-03-25T10:07:31Z</time>
      </trkpt>
      <trkpt lat="38.200046" lon="-2.034165">
        <ele>1047.5</ele>
        <time>2017-03-25T10:07:43Z</time>
      </trkpt>
      <trkpt lat="38.200033" lon="-2.034177">
        <ele>1048.0</ele>
        <time>2017-03-25T10:07:46Z</time>
      </trkpt>
      <trkpt lat="38.199978" lon="-2.034318">
        <ele>1048.0</ele>
        <time>2017-03-25T10:07:57Z</time>
      </trkpt>
      <trkpt lat="38.199972" lon="-2.034387">
        <ele>1048.9</ele>
        <time>2017-03-25T10:08:02Z</time>
      </trkpt>
      <trkpt lat="38.199909" lon="-2.034553">
        <ele>1048.9</ele>
        <time>2017-03-25T10:08:15Z</time>
      </trkpt>
      <trkpt lat="38.199876" lon="-2.034617">
        <ele>1049.9</ele>
        <time>2017-03-25T10:08:20Z</time>
      </trkpt>
      <trkpt lat="38.199795" lon="-2.034753">
        <ele>1051.3</ele>
        <time>2017-03-25T10:08:34Z</time>
      </trkpt>
      <trkpt lat="38.199760" lon="-2.034808">
        <ele>1051.8</ele>
        <time>2017-03-25T10:08:40Z</time>
      </trkpt>
      <trkpt lat="38.199686" lon="-2.034972">
        <ele>1052.3</ele>
        <time>2017-03-25T10:08:51Z</time>
      </trkpt>
      <trkpt lat="38.199649" lon="-2.035116">
        <ele>1052.3</ele>
        <time>2017-03-25T10:09:01Z</time>
      </trkpt>
      <trkpt lat="38.199599" lon="-2.035332">
        <ele>1052.3</ele>
        <time>2017-03-25T10:09:15Z</time>
      </trkpt>
      <trkpt lat="38.199562" lon="-2.035466">
        <ele>1052.3</ele>
        <time>2017-03-25T10:09:26Z</time>
      </trkpt>
      <trkpt lat="38.199545" lon="-2.035533">
        <ele>1052.3</ele>
        <time>2017-03-25T10:09:29Z</time>
      </trkpt>
      <trkpt lat="38.199505" lon="-2.035675">
        <ele>1052.3</ele>
        <time>2017-03-25T10:09:36Z</time>
      </trkpt>
      <trkpt lat="38.199504" lon="-2.035729">
        <ele>1052.3</ele>
        <time>2017-03-25T10:09:39Z</time>
      </trkpt>
      <trkpt lat="38.199475" lon="-2.035928">
        <ele>1051.8</ele>
        <time>2017-03-25T10:09:51Z</time>
      </trkpt>
      <trkpt lat="38.199460" lon="-2.036079">
        <ele>1051.8</ele>
        <time>2017-03-25T10:10:02Z</time>
      </trkpt>
      <trkpt lat="38.199448" lon="-2.036176">
        <ele>1052.3</ele>
        <time>2017-03-25T10:10:08Z</time>
      </trkpt>
      <trkpt lat="38.199436" lon="-2.036221">
        <ele>1052.3</ele>
        <time>2017-03-25T10:10:11Z</time>
      </trkpt>
      <trkpt lat="38.199441" lon="-2.036389">
        <ele>1052.8</ele>
        <time>2017-03-25T10:10:22Z</time>
      </trkpt>
      <trkpt lat="38.199457" lon="-2.036596">
        <ele>1054.7</ele>
        <time>2017-03-25T10:10:36Z</time>
      </trkpt>
      <trkpt lat="38.199486" lon="-2.036756">
        <ele>1056.6</ele>
        <time>2017-03-25T10:10:48Z</time>
      </trkpt>
      <trkpt lat="38.199466" lon="-2.036857">
        <ele>1057.6</ele>
        <time>2017-03-25T10:10:57Z</time>
      </trkpt>
      <trkpt lat="38.199342" lon="-2.036868">
        <ele>1060.0</ele>
        <time>2017-03-25T10:11:13Z</time>
      </trkpt>
      <trkpt lat="38.199199" lon="-2.036822">
        <ele>1060.9</ele>
        <time>2017-03-25T10:11:29Z</time>
      </trkpt>
      <trkpt lat="38.199069" lon="-2.036670">
        <ele>1062.9</ele>
        <time>2017-03-25T10:11:47Z</time>
      </trkpt>
      <trkpt lat="38.199030" lon="-2.036576">
        <ele>1063.8</ele>
        <time>2017-03-25T10:11:58Z</time>
      </trkpt>
      <trkpt lat="38.198996" lon="-2.036554">
        <ele>1063.8</ele>
        <time>2017-03-25T10:12:02Z</time>
      </trkpt>
      <trkpt lat="38.198875" lon="-2.036444">
        <ele>1066.2</ele>
        <time>2017-03-25T10:12:14Z</time>
      </trkpt>
      <trkpt lat="38.198803" lon="-2.036515">
        <ele>1067.7</ele>
        <time>2017-03-25T10:12:23Z</time>
      </trkpt>
      <trkpt lat="38.198742" lon="-2.036715">
        <ele>1069.1</ele>
        <time>2017-03-25T10:12:38Z</time>
      </trkpt>
      <trkpt lat="38.198680" lon="-2.036891">
        <ele>1070.6</ele>
        <time>2017-03-25T10:12:52Z</time>
      </trkpt>
      <trkpt lat="38.198650" lon="-2.037014">
        <ele>1072.0</ele>
        <time>2017-03-25T10:13:10Z</time>
      </trkpt>
      <trkpt lat="38.198581" lon="-2.037160">
        <ele>1073.4</ele>
        <time>2017-03-25T10:13:25Z</time>
      </trkpt>
      <trkpt lat="38.198569" lon="-2.037297">
        <ele>1074.4</ele>
        <time>2017-03-25T10:13:39Z</time>
      </trkpt>
      <trkpt lat="38.198533" lon="-2.037473">
        <ele>1075.8</ele>
        <time>2017-03-25T10:13:54Z</time>
      </trkpt>
      <trkpt lat="38.198477" lon="-2.037605">
        <ele>1077.3</ele>
        <time>2017-03-25T10:14:14Z</time>
      </trkpt>
      <trkpt lat="38.198389" lon="-2.037778">
        <ele>1079.2</ele>
        <time>2017-03-25T10:14:32Z</time>
      </trkpt>
      <trkpt lat="38.198325" lon="-2.037930">
        <ele>1080.2</ele>
        <time>2017-03-25T10:14:47Z</time>
      </trkpt>
      <trkpt lat="38.198237" lon="-2.038125">
        <ele>1082.1</ele>
        <time>2017-03-25T10:15:06Z</time>
      </trkpt>
      <trkpt lat="38.198122" lon="-2.038312">
        <ele>1083.5</ele>
        <time>2017-03-25T10:15:24Z</time>
      </trkpt>
      <trkpt lat="38.198039" lon="-2.038497">
        <ele>1084.5</ele>
        <time>2017-03-25T10:15:40Z</time>
      </trkpt>
      <trkpt lat="38.197972" lon="-2.038662">
        <ele>1086.9</ele>
        <time>2017-03-25T10:15:56Z</time>
      </trkpt>
      <trkpt lat="38.197939" lon="-2.038794">
        <ele>1087.9</ele>
        <time>2017-03-25T10:16:07Z</time>
      </trkpt>
      <trkpt lat="38.197930" lon="-2.038877">
        <ele>1088.3</ele>
        <time>2017-03-25T10:16:14Z</time>
      </trkpt>
      <trkpt lat="38.197890" lon="-2.039029">
        <ele>1090.8</ele>
        <time>2017-03-25T10:16:28Z</time>
      </trkpt>
      <trkpt lat="38.197863" lon="-2.039182">
        <ele>1091.7</ele>
        <time>2017-03-25T10:16:44Z</time>
      </trkpt>
      <trkpt lat="38.197828" lon="-2.039299">
        <ele>1093.2</ele>
        <time>2017-03-25T10:16:55Z</time>
      </trkpt>
      <trkpt lat="38.197822" lon="-2.039310">
        <ele>1092.7</ele>
        <time>2017-03-25T10:16:56Z</time>
      </trkpt>
      <trkpt lat="38.197766" lon="-2.039520">
        <ele>1095.1</ele>
        <time>2017-03-25T10:17:13Z</time>
      </trkpt>
      <trkpt lat="38.197747" lon="-2.039697">
        <ele>1096.5</ele>
        <time>2017-03-25T10:17:28Z</time>
      </trkpt>
      <trkpt lat="38.197716" lon="-2.039909">
        <ele>1098.4</ele>
        <time>2017-03-25T10:17:44Z</time>
      </trkpt>
      <trkpt lat="38.197714" lon="-2.040047">
        <ele>1099.9</ele>
        <time>2017-03-25T10:17:57Z</time>
      </trkpt>
      <trkpt lat="38.197709" lon="-2.040176">
        <ele>1101.3</ele>
        <time>2017-03-25T10:18:10Z</time>
      </trkpt>
      <trkpt lat="38.197697" lon="-2.040364">
        <ele>1103.7</ele>
        <time>2017-03-25T10:18:24Z</time>
      </trkpt>
      <trkpt lat="38.197699" lon="-2.040559">
        <ele>1104.7</ele>
        <time>2017-03-25T10:18:38Z</time>
      </trkpt>
      <trkpt lat="38.197683" lon="-2.040684">
        <ele>1106.6</ele>
        <time>2017-03-25T10:18:52Z</time>
      </trkpt>
      <trkpt lat="38.197625" lon="-2.040863">
        <ele>1108.5</ele>
        <time>2017-03-25T10:19:06Z</time>
      </trkpt>
      <trkpt lat="38.197599" lon="-2.041004">
        <ele>1110.5</ele>
        <time>2017-03-25T10:19:17Z</time>
      </trkpt>
      <trkpt lat="38.197543" lon="-2.041156">
        <ele>1111.9</ele>
        <time>2017-03-25T10:19:32Z</time>
      </trkpt>
      <trkpt lat="38.197539" lon="-2.041371">
        <ele>1114.8</ele>
        <time>2017-03-25T10:19:47Z</time>
      </trkpt>
      <trkpt lat="38.197523" lon="-2.041512">
        <ele>1115.8</ele>
        <time>2017-03-25T10:19:59Z</time>
      </trkpt>
      <trkpt lat="38.197496" lon="-2.041786">
        <ele>1116.7</ele>
        <time>2017-03-25T10:20:17Z</time>
      </trkpt>
      <trkpt lat="38.197500" lon="-2.041846">
        <ele>1118.2</ele>
        <time>2017-03-25T10:20:21Z</time>
      </trkpt>
      <trkpt lat="38.197499" lon="-2.042013">
        <ele>1119.6</ele>
        <time>2017-03-25T10:20:35Z</time>
      </trkpt>
      <trkpt lat="38.197489" lon="-2.042159">
        <ele>1121.5</ele>
        <time>2017-03-25T10:20:46Z</time>
      </trkpt>
      <trkpt lat="38.197591" lon="-2.042207">
        <ele>1123.9</ele>
        <time>2017-03-25T10:21:00Z</time>
      </trkpt>
      <trkpt lat="38.197608" lon="-2.042195">
        <ele>1123.9</ele>
        <time>2017-03-25T10:21:03Z</time>
      </trkpt>
      <trkpt lat="38.197699" lon="-2.042085">
        <ele>1125.4</ele>
        <time>2017-03-25T10:21:16Z</time>
      </trkpt>
      <trkpt lat="38.197731" lon="-2.042035">
        <ele>1125.8</ele>
        <time>2017-03-25T10:21:21Z</time>
      </trkpt>
      <trkpt lat="38.197794" lon="-2.041942">
        <ele>1126.3</ele>
        <time>2017-03-25T10:21:31Z</time>
      </trkpt>
      <trkpt lat="38.197809" lon="-2.041921">
        <ele>1126.8</ele>
        <time>2017-03-25T10:21:33Z</time>
      </trkpt>
      <trkpt lat="38.197876" lon="-2.041832">
        <ele>1126.8</ele>
        <time>2017-03-25T10:21:48Z</time>
      </trkpt>
      <trkpt lat="38.197890" lon="-2.041829">
        <ele>1126.3</ele>
        <time>2017-03-25T10:21:55Z</time>
      </trkpt>
      <trkpt lat="38.197903" lon="-2.041799">
        <ele>1126.8</ele>
        <time>2017-03-25T10:21:57Z</time>
      </trkpt>
      <trkpt lat="38.198073" lon="-2.041600">
        <ele>1127.3</ele>
        <time>2017-03-25T10:22:14Z</time>
      </trkpt>
      <trkpt lat="38.198234" lon="-2.041425">
        <ele>1125.8</ele>
        <time>2017-03-25T10:22:30Z</time>
      </trkpt>
      <trkpt lat="38.198325" lon="-2.041375">
        <ele>1126.3</ele>
        <time>2017-03-25T10:22:38Z</time>
      </trkpt>
      <trkpt lat="38.198512" lon="-2.041508">
        <ele>1125.4</ele>
        <time>2017-03-25T10:22:54Z</time>
      </trkpt>
      <trkpt lat="38.198543" lon="-2.041548">
        <ele>1125.8</ele>
        <time>2017-03-25T10:22:57Z</time>
      </trkpt>
      <trkpt lat="38.198563" lon="-2.041628">
        <ele>1125.8</ele>
        <time>2017-03-25T10:23:02Z</time>
      </trkpt>
      <trkpt lat="38.198603" lon="-2.041789">
        <ele>1125.4</ele>
        <time>2017-03-25T10:23:14Z</time>
      </trkpt>
      <trkpt lat="38.198650" lon="-2.042034">
        <ele>1126.8</ele>
        <time>2017-03-25T10:23:29Z</time>
      </trkpt>
      <trkpt lat="38.198697" lon="-2.042273">
        <ele>1128.2</ele>
        <time>2017-03-25T10:23:44Z</time>
      </trkpt>
      <trkpt lat="38.198746" lon="-2.042418">
        <ele>1130.2</ele>
        <time>2017-03-25T10:23:55Z</time>
      </trkpt>
      <trkpt lat="38.198793" lon="-2.042510">
        <ele>1130.7</ele>
        <time>2017-03-25T10:24:02Z</time>
      </trkpt>
      <trkpt lat="38.198900" lon="-2.042658">
        <ele>1131.6</ele>
        <time>2017-03-25T10:24:15Z</time>
      </trkpt>
      <trkpt lat="38.198977" lon="-2.042723">
        <ele>1132.1</ele>
        <time>2017-03-25T10:24:28Z</time>
      </trkpt>
      <trkpt lat="38.199026" lon="-2.042808">
        <ele>1133.1</ele>
        <time>2017-03-25T10:24:43Z</time>
      </trkpt>
      <trkpt lat="38.199034" lon="-2.042822">
        <ele>1132.6</ele>
        <time>2017-03-25T10:24:45Z</time>
      </trkpt>
      <trkpt lat="38.199114" lon="-2.042953">
        <ele>1134.0</ele>
        <time>2017-03-25T10:24:59Z</time>
      </trkpt>
      <trkpt lat="38.199171" lon="-2.043059">
        <ele>1135.9</ele>
        <time>2017-03-25T10:25:10Z</time>
      </trkpt>
      <trkpt lat="38.199203" lon="-2.043165">
        <ele>1136.9</ele>
        <time>2017-03-25T10:25:19Z</time>
      </trkpt>
      <trkpt lat="38.199226" lon="-2.043226">
        <ele>1137.4</ele>
        <time>2017-03-25T10:25:25Z</time>
      </trkpt>
      <trkpt lat="38.199258" lon="-2.043385">
        <ele>1138.3</ele>
        <time>2017-03-25T10:25:39Z</time>
      </trkpt>
      <trkpt lat="38.199310" lon="-2.043581">
        <ele>1138.3</ele>
        <time>2017-03-25T10:25:52Z</time>
      </trkpt>
      <trkpt lat="38.199392" lon="-2.043726">
        <ele>1139.3</ele>
        <time>2017-03-25T10:26:04Z</time>
      </trkpt>
      <trkpt lat="38.199528" lon="-2.043902">
        <ele>1139.8</ele>
        <time>2017-03-25T10:26:19Z</time>
      </trkpt>
      <trkpt lat="38.199635" lon="-2.044055">
        <ele>1139.8</ele>
        <time>2017-03-25T10:26:31Z</time>
      </trkpt>
      <trkpt lat="38.199648" lon="-2.044104">
        <ele>1137.9</ele>
        <time>2017-03-25T10:26:34Z</time>
      </trkpt>
      <trkpt lat="38.199654" lon="-2.044137">
        <ele>1139.8</ele>
        <time>2017-03-25T10:26:36Z</time>
      </trkpt>
      <trkpt lat="38.199682" lon="-2.044383">
        <ele>1139.3</ele>
        <time>2017-03-25T10:26:52Z</time>
      </trkpt>
      <trkpt lat="38.199672" lon="-2.044553">
        <ele>1138.8</ele>
        <time>2017-03-25T10:27:06Z</time>
      </trkpt>
      <trkpt lat="38.199679" lon="-2.044607">
        <ele>1139.3</ele>
        <time>2017-03-25T10:27:24Z</time>
      </trkpt>
      <trkpt lat="38.199678" lon="-2.044593">
        <ele>1138.8</ele>
        <time>2017-03-25T10:27:39Z</time>
      </trkpt>
      <trkpt lat="38.199684" lon="-2.044636">
        <ele>1138.8</ele>
        <time>2017-03-25T10:27:53Z</time>
      </trkpt>
      <trkpt lat="38.199675" lon="-2.044620">
        <ele>1138.8</ele>
        <time>2017-03-25T10:28:18Z</time>
      </trkpt>
      <trkpt lat="38.199688" lon="-2.044650">
        <ele>1138.8</ele>
        <time>2017-03-25T10:28:45Z</time>
      </trkpt>
      <trkpt lat="38.199694" lon="-2.044647">
        <ele>1138.8</ele>
        <time>2017-03-25T10:28:55Z</time>
      </trkpt>
      <trkpt lat="38.199682" lon="-2.044658">
        <ele>1138.8</ele>
        <time>2017-03-25T10:29:17Z</time>
      </trkpt>
      <trkpt lat="38.199674" lon="-2.044655">
        <ele>1138.8</ele>
        <time>2017-03-25T10:29:33Z</time>
      </trkpt>
      <trkpt lat="38.199697" lon="-2.044735">
        <ele>1138.3</ele>
        <time>2017-03-25T10:29:37Z</time>
      </trkpt>
      <trkpt lat="38.199693" lon="-2.044818">
        <ele>1137.4</ele>
        <time>2017-03-25T10:29:51Z</time>
      </trkpt>
      <trkpt lat="38.199715" lon="-2.044968">
        <ele>1135.4</ele>
        <time>2017-03-25T10:30:04Z</time>
      </trkpt>
      <trkpt lat="38.199702" lon="-2.044997">
        <ele>1135.0</ele>
        <time>2017-03-25T10:30:06Z</time>
      </trkpt>
      <trkpt lat="38.199693" lon="-2.045138">
        <ele>1133.5</ele>
        <time>2017-03-25T10:30:21Z</time>
      </trkpt>
      <trkpt lat="38.199693" lon="-2.045272">
        <ele>1132.1</ele>
        <time>2017-03-25T10:30:32Z</time>
      </trkpt>
      <trkpt lat="38.199680" lon="-2.045423">
        <ele>1131.1</ele>
        <time>2017-03-25T10:30:46Z</time>
      </trkpt>
      <trkpt lat="38.199640" lon="-2.045536">
        <ele>1130.2</ele>
        <time>2017-03-25T10:30:55Z</time>
      </trkpt>
      <trkpt lat="38.199559" lon="-2.045726">
        <ele>1128.7</ele>
        <time>2017-03-25T10:31:06Z</time>
      </trkpt>
      <trkpt lat="38.199499" lon="-2.045908">
        <ele>1126.8</ele>
        <time>2017-03-25T10:31:20Z</time>
      </trkpt>
      <trkpt lat="38.199430" lon="-2.046170">
        <ele>1123.9</ele>
        <time>2017-03-25T10:31:37Z</time>
      </trkpt>
      <trkpt lat="38.199372" lon="-2.046369">
        <ele>1121.0</ele>
        <time>2017-03-25T10:31:52Z</time>
      </trkpt>
      <trkpt lat="38.199309" lon="-2.046577">
        <ele>1118.2</ele>
        <time>2017-03-25T10:32:08Z</time>
      </trkpt>
      <trkpt lat="38.199291" lon="-2.046697">
        <ele>1117.2</ele>
        <time>2017-03-25T10:32:22Z</time>
      </trkpt>
      <trkpt lat="38.199262" lon="-2.046823">
        <ele>1114.8</ele>
        <time>2017-03-25T10:32:33Z</time>
      </trkpt>
      <trkpt lat="38.199242" lon="-2.046971">
        <ele>1113.8</ele>
        <time>2017-03-25T10:32:48Z</time>
      </trkpt>
      <trkpt lat="38.199204" lon="-2.047137">
        <ele>1111.9</ele>
        <time>2017-03-25T10:33:03Z</time>
      </trkpt>
      <trkpt lat="38.199189" lon="-2.047328">
        <ele>1109.5</ele>
        <time>2017-03-25T10:33:18Z</time>
      </trkpt>
      <trkpt lat="38.199186" lon="-2.047343">
        <ele>1109.0</ele>
        <time>2017-03-25T10:33:20Z</time>
      </trkpt>
      <trkpt lat="38.199199" lon="-2.047548">
        <ele>1107.6</ele>
        <time>2017-03-25T10:33:35Z</time>
      </trkpt>
      <trkpt lat="38.199186" lon="-2.047605">
        <ele>1107.1</ele>
        <time>2017-03-25T10:33:39Z</time>
      </trkpt>
      <trkpt lat="38.199145" lon="-2.047727">
        <ele>1106.1</ele>
        <time>2017-03-25T10:33:49Z</time>
      </trkpt>
      <trkpt lat="38.199137" lon="-2.047752">
        <ele>1105.2</ele>
        <time>2017-03-25T10:33:51Z</time>
      </trkpt>
      <trkpt lat="38.199097" lon="-2.047802">
        <ele>1105.7</ele>
        <time>2017-03-25T10:33:55Z</time>
      </trkpt>
      <trkpt lat="38.199022" lon="-2.047984">
        <ele>1103.7</ele>
        <time>2017-03-25T10:34:09Z</time>
      </trkpt>
      <trkpt lat="38.198961" lon="-2.048128">
        <ele>1102.8</ele>
        <time>2017-03-25T10:34:23Z</time>
      </trkpt>
      <trkpt lat="38.198893" lon="-2.048276">
        <ele>1101.3</ele>
        <time>2017-03-25T10:34:37Z</time>
      </trkpt>
      <trkpt lat="38.198853" lon="-2.048347">
        <ele>1100.8</ele>
        <time>2017-03-25T10:34:43Z</time>
      </trkpt>
      <trkpt lat="38.198762" lon="-2.048469">
        <ele>1098.9</ele>
        <time>2017-03-25T10:34:53Z</time>
      </trkpt>
      <trkpt lat="38.198733" lon="-2.048518">
        <ele>1098.0</ele>
        <time>2017-03-25T10:34:57Z</time>
      </trkpt>
      <trkpt lat="38.198628" lon="-2.048666">
        <ele>1096.5</ele>
        <time>2017-03-25T10:35:10Z</time>
      </trkpt>
      <trkpt lat="38.198611" lon="-2.048697">
        <ele>1096.0</ele>
        <time>2017-03-25T10:35:12Z</time>
      </trkpt>
      <trkpt lat="38.198566" lon="-2.048770">
        <ele>1095.6</ele>
        <time>2017-03-25T10:35:18Z</time>
      </trkpt>
      <trkpt lat="38.198538" lon="-2.048820">
        <ele>1095.6</ele>
        <time>2017-03-25T10:35:22Z</time>
      </trkpt>
      <trkpt lat="38.198452" lon="-2.048993">
        <ele>1093.6</ele>
        <time>2017-03-25T10:35:36Z</time>
      </trkpt>
      <trkpt lat="38.198345" lon="-2.049173">
        <ele>1091.7</ele>
        <time>2017-03-25T10:35:51Z</time>
      </trkpt>
      <trkpt lat="38.198252" lon="-2.049387">
        <ele>1090.8</ele>
        <time>2017-03-25T10:36:07Z</time>
      </trkpt>
      <trkpt lat="38.198207" lon="-2.049468">
        <ele>1089.8</ele>
        <time>2017-03-25T10:36:13Z</time>
      </trkpt>
      <trkpt lat="38.198184" lon="-2.049525">
        <ele>1081.6</ele>
        <time>2017-03-25T10:36:17Z</time>
      </trkpt>
      <trkpt lat="38.198181" lon="-2.049542">
        <ele>1096.0</ele>
        <time>2017-03-25T10:36:18Z</time>
      </trkpt>
      <trkpt lat="38.198178" lon="-2.049558">
        <ele>1090.3</ele>
        <time>2017-03-25T10:36:19Z</time>
      </trkpt>
      <trkpt lat="38.198189" lon="-2.049768">
        <ele>1088.3</ele>
        <time>2017-03-25T10:36:32Z</time>
      </trkpt>
      <trkpt lat="38.198192" lon="-2.049786">
        <ele>1087.9</ele>
        <time>2017-03-25T10:36:33Z</time>
      </trkpt>
      <trkpt lat="38.198204" lon="-2.049860">
        <ele>1087.9</ele>
        <time>2017-03-25T10:36:38Z</time>
      </trkpt>
      <trkpt lat="38.198298" lon="-2.050059">
        <ele>1086.4</ele>
        <time>2017-03-25T10:36:53Z</time>
      </trkpt>
      <trkpt lat="38.198389" lon="-2.050147">
        <ele>1084.5</ele>
        <time>2017-03-25T10:37:06Z</time>
      </trkpt>
      <trkpt lat="38.198399" lon="-2.050206">
        <ele>1083.1</ele>
        <time>2017-03-25T10:38:30Z</time>
      </trkpt>
      <trkpt lat="38.198468" lon="-2.050336">
        <ele>1082.1</ele>
        <time>2017-03-25T10:38:36Z</time>
      </trkpt>
      <trkpt lat="38.198520" lon="-2.050377">
        <ele>1078.3</ele>
        <time>2017-03-25T10:38:40Z</time>
      </trkpt>
      <trkpt lat="38.198533" lon="-2.050383">
        <ele>1084.5</ele>
        <time>2017-03-25T10:38:41Z</time>
      </trkpt>
      <trkpt lat="38.198568" lon="-2.050407">
        <ele>1080.7</ele>
        <time>2017-03-25T10:38:44Z</time>
      </trkpt>
      <trkpt lat="38.198657" lon="-2.050480">
        <ele>1078.7</ele>
        <time>2017-03-25T10:38:56Z</time>
      </trkpt>
      <trkpt lat="38.198814" lon="-2.050472">
        <ele>1076.3</ele>
        <time>2017-03-25T10:39:10Z</time>
      </trkpt>
      <trkpt lat="38.198959" lon="-2.050559">
        <ele>1076.8</ele>
        <time>2017-03-25T10:39:24Z</time>
      </trkpt>
      <trkpt lat="38.199037" lon="-2.050816">
        <ele>1077.3</ele>
        <time>2017-03-25T10:39:40Z</time>
      </trkpt>
      <trkpt lat="38.199106" lon="-2.051013">
        <ele>1077.3</ele>
        <time>2017-03-25T10:39:54Z</time>
      </trkpt>
      <trkpt lat="38.199116" lon="-2.051096">
        <ele>1066.7</ele>
        <time>2017-03-25T10:39:59Z</time>
      </trkpt>
      <trkpt lat="38.199121" lon="-2.051111">
        <ele>1082.6</ele>
        <time>2017-03-25T10:40:00Z</time>
      </trkpt>
      <trkpt lat="38.199127" lon="-2.051127">
        <ele>1072.5</ele>
        <time>2017-03-25T10:40:01Z</time>
      </trkpt>
      <trkpt lat="38.199135" lon="-2.051144">
        <ele>1076.8</ele>
        <time>2017-03-25T10:40:02Z</time>
      </trkpt>
      <trkpt lat="38.199150" lon="-2.051199">
        <ele>1081.1</ele>
        <time>2017-03-25T10:40:05Z</time>
      </trkpt>
      <trkpt lat="38.199152" lon="-2.051211">
        <ele>1077.8</ele>
        <time>2017-03-25T10:40:06Z</time>
      </trkpt>
      <trkpt lat="38.199191" lon="-2.051317">
        <ele>1076.8</ele>
        <time>2017-03-25T10:40:16Z</time>
      </trkpt>
      <trkpt lat="38.199283" lon="-2.051382">
        <ele>1078.3</ele>
        <time>2017-03-25T10:40:28Z</time>
      </trkpt>
      <trkpt lat="38.199295" lon="-2.051710">
        <ele>1077.8</ele>
        <time>2017-03-25T10:41:08Z</time>
      </trkpt>
      <trkpt lat="38.199252" lon="-2.051953">
        <ele>1077.8</ele>
        <time>2017-03-25T10:41:21Z</time>
      </trkpt>
      <trkpt lat="38.199247" lon="-2.052166">
        <ele>1077.8</ele>
        <time>2017-03-25T10:41:33Z</time>
      </trkpt>
      <trkpt lat="38.199206" lon="-2.052457">
        <ele>1078.3</ele>
        <time>2017-03-25T10:41:48Z</time>
      </trkpt>
      <trkpt lat="38.199210" lon="-2.052791">
        <ele>1078.3</ele>
        <time>2017-03-25T10:42:05Z</time>
      </trkpt>
      <trkpt lat="38.199264" lon="-2.053057">
        <ele>1078.7</ele>
        <time>2017-03-25T10:42:20Z</time>
      </trkpt>
      <trkpt lat="38.199309" lon="-2.053194">
        <ele>1078.7</ele>
        <time>2017-03-25T10:42:33Z</time>
      </trkpt>
      <trkpt lat="38.199282" lon="-2.053274">
        <ele>1078.3</ele>
        <time>2017-03-25T10:42:46Z</time>
      </trkpt>
      <trkpt lat="38.199244" lon="-2.053554">
        <ele>1077.3</ele>
        <time>2017-03-25T10:43:05Z</time>
      </trkpt>
      <trkpt lat="38.199235" lon="-2.053587">
        <ele>1076.8</ele>
        <time>2017-03-25T10:43:07Z</time>
      </trkpt>
      <trkpt lat="38.199188" lon="-2.053816">
        <ele>1075.4</ele>
        <time>2017-03-25T10:43:21Z</time>
      </trkpt>
      <trkpt lat="38.199149" lon="-2.053938">
        <ele>1075.4</ele>
        <time>2017-03-25T10:43:37Z</time>
      </trkpt>
      <trkpt lat="38.199134" lon="-2.053994">
        <ele>1075.4</ele>
        <time>2017-03-25T10:43:41Z</time>
      </trkpt>
      <trkpt lat="38.199053" lon="-2.054264">
        <ele>1074.9</ele>
        <time>2017-03-25T10:43:58Z</time>
      </trkpt>
      <trkpt lat="38.198951" lon="-2.054527">
        <ele>1075.4</ele>
        <time>2017-03-25T10:44:16Z</time>
      </trkpt>
      <trkpt lat="38.198865" lon="-2.054789">
        <ele>1075.4</ele>
        <time>2017-03-25T10:44:32Z</time>
      </trkpt>
      <trkpt lat="38.198850" lon="-2.054853">
        <ele>1074.9</ele>
        <time>2017-03-25T10:44:38Z</time>
      </trkpt>
      <trkpt lat="38.198792" lon="-2.054967">
        <ele>1075.4</ele>
        <time>2017-03-25T10:45:04Z</time>
      </trkpt>
      <trkpt lat="38.198702" lon="-2.055208">
        <ele>1073.9</ele>
        <time>2017-03-25T10:45:20Z</time>
      </trkpt>
      <trkpt lat="38.198598" lon="-2.055436">
        <ele>1072.5</ele>
        <time>2017-03-25T10:45:36Z</time>
      </trkpt>
      <trkpt lat="38.198499" lon="-2.055729">
        <ele>1070.1</ele>
        <time>2017-03-25T10:45:54Z</time>
      </trkpt>
      <trkpt lat="38.198388" lon="-2.056011">
        <ele>1069.1</ele>
        <time>2017-03-25T10:46:13Z</time>
      </trkpt>
      <trkpt lat="38.198284" lon="-2.056272">
        <ele>1067.2</ele>
        <time>2017-03-25T10:46:29Z</time>
      </trkpt>
      <trkpt lat="38.198182" lon="-2.056558">
        <ele>1066.7</ele>
        <time>2017-03-25T10:46:47Z</time>
      </trkpt>
      <trkpt lat="38.198078" lon="-2.056829">
        <ele>1066.2</ele>
        <time>2017-03-25T10:47:04Z</time>
      </trkpt>
      <trkpt lat="38.197967" lon="-2.057099">
        <ele>1066.2</ele>
        <time>2017-03-25T10:47:20Z</time>
      </trkpt>
      <trkpt lat="38.197851" lon="-2.057351">
        <ele>1066.7</ele>
        <time>2017-03-25T10:47:36Z</time>
      </trkpt>
      <trkpt lat="38.197736" lon="-2.057627">
        <ele>1067.7</ele>
        <time>2017-03-25T10:47:53Z</time>
      </trkpt>
      <trkpt lat="38.197636" lon="-2.057896">
        <ele>1067.2</ele>
        <time>2017-03-25T10:48:09Z</time>
      </trkpt>
      <trkpt lat="38.197541" lon="-2.058140">
        <ele>1066.7</ele>
        <time>2017-03-25T10:48:24Z</time>
      </trkpt>
      <trkpt lat="38.197437" lon="-2.058432">
        <ele>1066.7</ele>
        <time>2017-03-25T10:48:41Z</time>
      </trkpt>
      <trkpt lat="38.197346" lon="-2.058681">
        <ele>1065.3</ele>
        <time>2017-03-25T10:48:58Z</time>
      </trkpt>
      <trkpt lat="38.197274" lon="-2.058814">
        <ele>1064.8</ele>
        <time>2017-03-25T10:49:08Z</time>
      </trkpt>
      <trkpt lat="38.197195" lon="-2.059119">
        <ele>1064.3</ele>
        <time>2017-03-25T10:49:25Z</time>
      </trkpt>
      <trkpt lat="38.197109" lon="-2.059363">
        <ele>1063.4</ele>
        <time>2017-03-25T10:49:40Z</time>
      </trkpt>
      <trkpt lat="38.197013" lon="-2.059618">
        <ele>1063.8</ele>
        <time>2017-03-25T10:49:55Z</time>
      </trkpt>
      <trkpt lat="38.196942" lon="-2.059768">
        <ele>1064.3</ele>
        <time>2017-03-25T10:50:07Z</time>
      </trkpt>
      <trkpt lat="38.196938" lon="-2.059828">
        <ele>1063.8</ele>
        <time>2017-03-25T10:50:11Z</time>
      </trkpt>
      <trkpt lat="38.196882" lon="-2.060140">
        <ele>1063.8</ele>
        <time>2017-03-25T10:50:27Z</time>
      </trkpt>
      <trkpt lat="38.196902" lon="-2.060325">
        <ele>1063.4</ele>
        <time>2017-03-25T10:50:42Z</time>
      </trkpt>
      <trkpt lat="38.196905" lon="-2.060351">
        <ele>1063.8</ele>
        <time>2017-03-25T10:50:53Z</time>
      </trkpt>
      <trkpt lat="38.196914" lon="-2.060397">
        <ele>1063.8</ele>
        <time>2017-03-25T10:50:57Z</time>
      </trkpt>
      <trkpt lat="38.196958" lon="-2.060511">
        <ele>1063.4</ele>
        <time>2017-03-25T10:51:07Z</time>
      </trkpt>
      <trkpt lat="38.196950" lon="-2.060550">
        <ele>1063.8</ele>
        <time>2017-03-25T10:51:15Z</time>
      </trkpt>
      <trkpt lat="38.197133" lon="-2.060812">
        <ele>1062.9</ele>
        <time>2017-03-25T10:51:36Z</time>
      </trkpt>
      <trkpt lat="38.197132" lon="-2.060825">
        <ele>1062.9</ele>
        <time>2017-03-25T10:51:37Z</time>
      </trkpt>
      <trkpt lat="38.197181" lon="-2.060869">
        <ele>1063.4</ele>
        <time>2017-03-25T10:51:47Z</time>
      </trkpt>
      <trkpt lat="38.197239" lon="-2.060919">
        <ele>1062.9</ele>
        <time>2017-03-25T10:51:52Z</time>
      </trkpt>
      <trkpt lat="38.197481" lon="-2.061079">
        <ele>1063.8</ele>
        <time>2017-03-25T10:52:11Z</time>
      </trkpt>
      <trkpt lat="38.197670" lon="-2.061166">
        <ele>1064.8</ele>
        <time>2017-03-25T10:52:25Z</time>
      </trkpt>
      <trkpt lat="38.197873" lon="-2.061272">
        <ele>1067.2</ele>
        <time>2017-03-25T10:52:40Z</time>
      </trkpt>
      <trkpt lat="38.198079" lon="-2.061403">
        <ele>1068.2</ele>
        <time>2017-03-25T10:52:55Z</time>
      </trkpt>
      <trkpt lat="38.198076" lon="-2.061396">
        <ele>1068.2</ele>
        <time>2017-03-25T10:53:09Z</time>
      </trkpt>
      <trkpt lat="38.198064" lon="-2.061400">
        <ele>1065.3</ele>
        <time>2017-03-25T10:53:12Z</time>
      </trkpt>
      <trkpt lat="38.198057" lon="-2.061401">
        <ele>1071.1</ele>
        <time>2017-03-25T10:53:13Z</time>
      </trkpt>
      <trkpt lat="38.198054" lon="-2.061400">
        <ele>1067.7</ele>
        <time>2017-03-25T10:53:15Z</time>
      </trkpt>
      <trkpt lat="38.198059" lon="-2.061421">
        <ele>1067.7</ele>
        <time>2017-03-25T10:53:24Z</time>
      </trkpt>
      <trkpt lat="38.198274" lon="-2.061611">
        <ele>1069.1</ele>
        <time>2017-03-25T10:53:38Z</time>
      </trkpt>
      <trkpt lat="38.198448" lon="-2.061760">
        <ele>1071.1</ele>
        <time>2017-03-25T10:53:52Z</time>
      </trkpt>
      <trkpt lat="38.198626" lon="-2.061943">
        <ele>1072.5</ele>
        <time>2017-03-25T10:54:07Z</time>
      </trkpt>
      <trkpt lat="38.198774" lon="-2.062087">
        <ele>1073.9</ele>
        <time>2017-03-25T10:54:19Z</time>
      </trkpt>
      <trkpt lat="38.198929" lon="-2.062315">
        <ele>1074.9</ele>
        <time>2017-03-25T10:54:35Z</time>
      </trkpt>
      <trkpt lat="38.198934" lon="-2.062361">
        <ele>1074.9</ele>
        <time>2017-03-25T10:54:49Z</time>
      </trkpt>
      <trkpt lat="38.199034" lon="-2.062539">
        <ele>1075.4</ele>
        <time>2017-03-25T10:55:05Z</time>
      </trkpt>
      <trkpt lat="38.199108" lon="-2.062812">
        <ele>1075.4</ele>
        <time>2017-03-25T10:55:21Z</time>
      </trkpt>
      <trkpt lat="38.199096" lon="-2.062911">
        <ele>1075.4</ele>
        <time>2017-03-25T10:55:31Z</time>
      </trkpt>
      <trkpt lat="38.199096" lon="-2.062931">
        <ele>1075.4</ele>
        <time>2017-03-25T10:55:32Z</time>
      </trkpt>
      <trkpt lat="38.199093" lon="-2.062953">
        <ele>1075.4</ele>
        <time>2017-03-25T10:55:33Z</time>
      </trkpt>
      <trkpt lat="38.199090" lon="-2.062975">
        <ele>1075.4</ele>
        <time>2017-03-25T10:55:34Z</time>
      </trkpt>
      <trkpt lat="38.199087" lon="-2.062998">
        <ele>1075.4</ele>
        <time>2017-03-25T10:55:35Z</time>
      </trkpt>
      <trkpt lat="38.199084" lon="-2.063021">
        <ele>1075.4</ele>
        <time>2017-03-25T10:55:36Z</time>
      </trkpt>
      <trkpt lat="38.199075" lon="-2.063364">
        <ele>1075.8</ele>
        <time>2017-03-25T10:55:52Z</time>
      </trkpt>
      <trkpt lat="38.199015" lon="-2.063754">
        <ele>1077.3</ele>
        <time>2017-03-25T10:56:13Z</time>
      </trkpt>
      <trkpt lat="38.198966" lon="-2.064090">
        <ele>1078.7</ele>
        <time>2017-03-25T10:56:31Z</time>
      </trkpt>
      <trkpt lat="38.198918" lon="-2.064412">
        <ele>1080.2</ele>
        <time>2017-03-25T10:56:49Z</time>
      </trkpt>
      <trkpt lat="38.198916" lon="-2.064457">
        <ele>1080.7</ele>
        <time>2017-03-25T10:56:51Z</time>
      </trkpt>
      <trkpt lat="38.198917" lon="-2.064479">
        <ele>1080.2</ele>
        <time>2017-03-25T10:56:52Z</time>
      </trkpt>
      <trkpt lat="38.198915" lon="-2.064499">
        <ele>1080.7</ele>
        <time>2017-03-25T10:56:53Z</time>
      </trkpt>
      <trkpt lat="38.198826" lon="-2.064764">
        <ele>1082.6</ele>
        <time>2017-03-25T10:57:08Z</time>
      </trkpt>
      <trkpt lat="38.198616" lon="-2.065057">
        <ele>1084.5</ele>
        <time>2017-03-25T10:57:30Z</time>
      </trkpt>
      <trkpt lat="38.198361" lon="-2.065261">
        <ele>1085.0</ele>
        <time>2017-03-25T10:57:50Z</time>
      </trkpt>
      <trkpt lat="38.198237" lon="-2.065337">
        <ele>1085.0</ele>
        <time>2017-03-25T10:58:04Z</time>
      </trkpt>
      <trkpt lat="38.198151" lon="-2.065386">
        <ele>1085.0</ele>
        <time>2017-03-25T10:58:19Z</time>
      </trkpt>
      <trkpt lat="38.197978" lon="-2.065492">
        <ele>1085.5</ele>
        <time>2017-03-25T10:58:37Z</time>
      </trkpt>
      <trkpt lat="38.197815" lon="-2.065577">
        <ele>1085.9</ele>
        <time>2017-03-25T10:58:55Z</time>
      </trkpt>
      <trkpt lat="38.197790" lon="-2.065592">
        <ele>1085.9</ele>
        <time>2017-03-25T10:59:02Z</time>
      </trkpt>
      <trkpt lat="38.197780" lon="-2.065603">
        <ele>1085.9</ele>
        <time>2017-03-25T10:59:03Z</time>
      </trkpt>
      <trkpt lat="38.197599" lon="-2.065786">
        <ele>1088.8</ele>
        <time>2017-03-25T10:59:20Z</time>
      </trkpt>
      <trkpt lat="38.197398" lon="-2.065908">
        <ele>1091.7</ele>
        <time>2017-03-25T10:59:34Z</time>
      </trkpt>
      <trkpt lat="38.197317" lon="-2.066039">
        <ele>1092.7</ele>
        <time>2017-03-25T10:59:46Z</time>
      </trkpt>
      <trkpt lat="38.197211" lon="-2.066131">
        <ele>1093.2</ele>
        <time>2017-03-25T10:59:59Z</time>
      </trkpt>
      <trkpt lat="38.197185" lon="-2.066169">
        <ele>1092.7</ele>
        <time>2017-03-25T11:00:02Z</time>
      </trkpt>
      <trkpt lat="38.197166" lon="-2.066188">
        <ele>1092.7</ele>
        <time>2017-03-25T11:00:07Z</time>
      </trkpt>
      <trkpt lat="38.197154" lon="-2.066200">
        <ele>1092.2</ele>
        <time>2017-03-25T11:00:08Z</time>
      </trkpt>
      <trkpt lat="38.197142" lon="-2.066215">
        <ele>1092.7</ele>
        <time>2017-03-25T11:00:09Z</time>
      </trkpt>
      <trkpt lat="38.197131" lon="-2.066227">
        <ele>1092.2</ele>
        <time>2017-03-25T11:00:10Z</time>
      </trkpt>
      <trkpt lat="38.197118" lon="-2.066240">
        <ele>1091.7</ele>
        <time>2017-03-25T11:00:11Z</time>
      </trkpt>
      <trkpt lat="38.197104" lon="-2.066250">
        <ele>1091.7</ele>
        <time>2017-03-25T11:00:12Z</time>
      </trkpt>
      <trkpt lat="38.196867" lon="-2.066483">
        <ele>1090.8</ele>
        <time>2017-03-25T11:00:32Z</time>
      </trkpt>
      <trkpt lat="38.196650" lon="-2.066741">
        <ele>1090.3</ele>
        <time>2017-03-25T11:00:52Z</time>
      </trkpt>
      <trkpt lat="38.196534" lon="-2.066988">
        <ele>1089.3</ele>
        <time>2017-03-25T11:01:08Z</time>
      </trkpt>
      <trkpt lat="38.196490" lon="-2.067209">
        <ele>1088.8</ele>
        <time>2017-03-25T11:01:24Z</time>
      </trkpt>
      <trkpt lat="38.196392" lon="-2.067400">
        <ele>1085.0</ele>
        <time>2017-03-25T11:25:37Z</time>
      </trkpt>
      <trkpt lat="38.196393" lon="-2.067399">
        <ele>1089.3</ele>
        <time>2017-03-25T11:25:38Z</time>
      </trkpt>
      <trkpt lat="38.196396" lon="-2.067430">
        <ele>1087.9</ele>
        <time>2017-03-25T11:25:52Z</time>
      </trkpt>
      <trkpt lat="38.196375" lon="-2.067573">
        <ele>1087.4</ele>
        <time>2017-03-25T11:26:05Z</time>
      </trkpt>
      <trkpt lat="38.196374" lon="-2.067585">
        <ele>1086.9</ele>
        <time>2017-03-25T11:26:17Z</time>
      </trkpt>
      <trkpt lat="38.196362" lon="-2.067695">
        <ele>1088.3</ele>
        <time>2017-03-25T11:26:36Z</time>
      </trkpt>
      <trkpt lat="38.196350" lon="-2.067743">
        <ele>1087.4</ele>
        <time>2017-03-25T11:26:41Z</time>
      </trkpt>
      <trkpt lat="38.196344" lon="-2.067756">
        <ele>1088.3</ele>
        <time>2017-03-25T11:26:42Z</time>
      </trkpt>
      <trkpt lat="38.196337" lon="-2.067770">
        <ele>1087.9</ele>
        <time>2017-03-25T11:26:43Z</time>
      </trkpt>
      <trkpt lat="38.196271" lon="-2.068017">
        <ele>1087.4</ele>
        <time>2017-03-25T11:27:00Z</time>
      </trkpt>
      <trkpt lat="38.196215" lon="-2.068260">
        <ele>1087.4</ele>
        <time>2017-03-25T11:27:16Z</time>
      </trkpt>
      <trkpt lat="38.196189" lon="-2.068412">
        <ele>1087.4</ele>
        <time>2017-03-25T11:27:27Z</time>
      </trkpt>
      <trkpt lat="38.196157" lon="-2.068555">
        <ele>1087.4</ele>
        <time>2017-03-25T11:27:36Z</time>
      </trkpt>
      <trkpt lat="38.196154" lon="-2.068570">
        <ele>1087.4</ele>
        <time>2017-03-25T11:27:37Z</time>
      </trkpt>
      <trkpt lat="38.196152" lon="-2.068587">
        <ele>1087.4</ele>
        <time>2017-03-25T11:27:38Z</time>
      </trkpt>
      <trkpt lat="38.196136" lon="-2.068634">
        <ele>1087.4</ele>
        <time>2017-03-25T11:27:52Z</time>
      </trkpt>
      <trkpt lat="38.196138" lon="-2.068648">
        <ele>1087.9</ele>
        <time>2017-03-25T11:27:53Z</time>
      </trkpt>
      <trkpt lat="38.196139" lon="-2.068668">
        <ele>1087.4</ele>
        <time>2017-03-25T11:27:54Z</time>
      </trkpt>
      <trkpt lat="38.196141" lon="-2.068690">
        <ele>1087.4</ele>
        <time>2017-03-25T11:27:55Z</time>
      </trkpt>
      <trkpt lat="38.196110" lon="-2.068996">
        <ele>1087.4</ele>
        <time>2017-03-25T11:28:11Z</time>
      </trkpt>
      <trkpt lat="38.196106" lon="-2.069013">
        <ele>1087.4</ele>
        <time>2017-03-25T11:28:12Z</time>
      </trkpt>
      <trkpt lat="38.196102" lon="-2.069031">
        <ele>1086.9</ele>
        <time>2017-03-25T11:28:13Z</time>
      </trkpt>
      <trkpt lat="38.196090" lon="-2.069343">
        <ele>1086.4</ele>
        <time>2017-03-25T11:28:30Z</time>
      </trkpt>
      <trkpt lat="38.196080" lon="-2.069667">
        <ele>1085.9</ele>
        <time>2017-03-25T11:28:47Z</time>
      </trkpt>
      <trkpt lat="38.196037" lon="-2.069996">
        <ele>1085.9</ele>
        <time>2017-03-25T11:29:05Z</time>
      </trkpt>
      <trkpt lat="38.196015" lon="-2.070246">
        <ele>1086.4</ele>
        <time>2017-03-25T11:29:20Z</time>
      </trkpt>
      <trkpt lat="38.196012" lon="-2.070263">
        <ele>1085.9</ele>
        <time>2017-03-25T11:29:21Z</time>
      </trkpt>
      <trkpt lat="38.196013" lon="-2.070277">
        <ele>1085.9</ele>
        <time>2017-03-25T11:29:22Z</time>
      </trkpt>
      <trkpt lat="38.196014" lon="-2.070293">
        <ele>1085.9</ele>
        <time>2017-03-25T11:29:23Z</time>
      </trkpt>
      <trkpt lat="38.196015" lon="-2.070309">
        <ele>1086.4</ele>
        <time>2017-03-25T11:29:24Z</time>
      </trkpt>
      <trkpt lat="38.196007" lon="-2.070612">
        <ele>1085.9</ele>
        <time>2017-03-25T11:29:41Z</time>
      </trkpt>
      <trkpt lat="38.195983" lon="-2.070914">
        <ele>1085.9</ele>
        <time>2017-03-25T11:29:58Z</time>
      </trkpt>
      <trkpt lat="38.195965" lon="-2.071242">
        <ele>1085.5</ele>
        <time>2017-03-25T11:30:16Z</time>
      </trkpt>
      <trkpt lat="38.195938" lon="-2.071575">
        <ele>1086.9</ele>
        <time>2017-03-25T11:30:34Z</time>
      </trkpt>
      <trkpt lat="38.195907" lon="-2.071944">
        <ele>1086.9</ele>
        <time>2017-03-25T11:30:54Z</time>
      </trkpt>
      <trkpt lat="38.195901" lon="-2.072305">
        <ele>1087.9</ele>
        <time>2017-03-25T11:31:14Z</time>
      </trkpt>
      <trkpt lat="38.195903" lon="-2.072689">
        <ele>1088.3</ele>
        <time>2017-03-25T11:31:35Z</time>
      </trkpt>
      <trkpt lat="38.195905" lon="-2.072959">
        <ele>1089.3</ele>
        <time>2017-03-25T11:31:50Z</time>
      </trkpt>
      <trkpt lat="38.195911" lon="-2.073361">
        <ele>1088.8</ele>
        <time>2017-03-25T11:32:11Z</time>
      </trkpt>
      <trkpt lat="38.195937" lon="-2.073734">
        <ele>1089.8</ele>
        <time>2017-03-25T11:32:31Z</time>
      </trkpt>
      <trkpt lat="38.195967" lon="-2.073871">
        <ele>1089.3</ele>
        <time>2017-03-25T11:32:39Z</time>
      </trkpt>
      <trkpt lat="38.195967" lon="-2.073888">
        <ele>1089.8</ele>
        <time>2017-03-25T11:32:40Z</time>
      </trkpt>
      <trkpt lat="38.196045" lon="-2.074203">
        <ele>1088.8</ele>
        <time>2017-03-25T11:32:58Z</time>
      </trkpt>
      <trkpt lat="38.196036" lon="-2.074319">
        <ele>1087.9</ele>
        <time>2017-03-25T11:33:10Z</time>
      </trkpt>
      <trkpt lat="38.195983" lon="-2.074650">
        <ele>1085.0</ele>
        <time>2017-03-25T11:33:27Z</time>
      </trkpt>
      <trkpt lat="38.195966" lon="-2.074793">
        <ele>1084.0</ele>
        <time>2017-03-25T11:33:37Z</time>
      </trkpt>
      <trkpt lat="38.195798" lon="-2.075084">
        <ele>1083.1</ele>
        <time>2017-03-25T11:33:56Z</time>
      </trkpt>
      <trkpt lat="38.195718" lon="-2.075190">
        <ele>1083.1</ele>
        <time>2017-03-25T11:34:07Z</time>
      </trkpt>
      <trkpt lat="38.195705" lon="-2.075204">
        <ele>1083.1</ele>
        <time>2017-03-25T11:34:08Z</time>
      </trkpt>
      <trkpt lat="38.195697" lon="-2.075223">
        <ele>1083.5</ele>
        <time>2017-03-25T11:34:09Z</time>
      </trkpt>
      <trkpt lat="38.195600" lon="-2.075365">
        <ele>1083.1</ele>
        <time>2017-03-25T11:34:19Z</time>
      </trkpt>
      <trkpt lat="38.195588" lon="-2.075390">
        <ele>1083.5</ele>
        <time>2017-03-25T11:34:23Z</time>
      </trkpt>
      <trkpt lat="38.195383" lon="-2.075689">
        <ele>1082.6</ele>
        <time>2017-03-25T11:34:42Z</time>
      </trkpt>
      <trkpt lat="38.195237" lon="-2.076014">
        <ele>1083.1</ele>
        <time>2017-03-25T11:35:02Z</time>
      </trkpt>
      <trkpt lat="38.195215" lon="-2.076146">
        <ele>1083.1</ele>
        <time>2017-03-25T11:35:13Z</time>
      </trkpt>
      <trkpt lat="38.195184" lon="-2.076520">
        <ele>1083.1</ele>
        <time>2017-03-25T11:35:32Z</time>
      </trkpt>
      <trkpt lat="38.195159" lon="-2.076855">
        <ele>1083.5</ele>
        <time>2017-03-25T11:35:49Z</time>
      </trkpt>
      <trkpt lat="38.195129" lon="-2.077239">
        <ele>1083.5</ele>
        <time>2017-03-25T11:36:09Z</time>
      </trkpt>
      <trkpt lat="38.195091" lon="-2.077655">
        <ele>1083.1</ele>
        <time>2017-03-25T11:36:30Z</time>
      </trkpt>
      <trkpt lat="38.195046" lon="-2.078144">
        <ele>1082.6</ele>
        <time>2017-03-25T11:36:55Z</time>
      </trkpt>
      <trkpt lat="38.195054" lon="-2.078527">
        <ele>1083.1</ele>
        <time>2017-03-25T11:37:15Z</time>
      </trkpt>
      <trkpt lat="38.195137" lon="-2.078804">
        <ele>1084.0</ele>
        <time>2017-03-25T11:37:31Z</time>
      </trkpt>
      <trkpt lat="38.195316" lon="-2.079074">
        <ele>1084.5</ele>
        <time>2017-03-25T11:37:48Z</time>
      </trkpt>
      <trkpt lat="38.195540" lon="-2.079145">
        <ele>1085.0</ele>
        <time>2017-03-25T11:38:03Z</time>
      </trkpt>
      <trkpt lat="38.195602" lon="-2.079191">
        <ele>1085.0</ele>
        <time>2017-03-25T11:38:08Z</time>
      </trkpt>
      <trkpt lat="38.195821" lon="-2.079305">
        <ele>1085.9</ele>
        <time>2017-03-25T11:38:26Z</time>
      </trkpt>
      <trkpt lat="38.195882" lon="-2.079515">
        <ele>1086.4</ele>
        <time>2017-03-25T11:38:39Z</time>
      </trkpt>
      <trkpt lat="38.195891" lon="-2.079528">
        <ele>1086.4</ele>
        <time>2017-03-25T11:38:41Z</time>
      </trkpt>
      <trkpt lat="38.195906" lon="-2.079582">
        <ele>1086.4</ele>
        <time>2017-03-25T11:38:47Z</time>
      </trkpt>
      <trkpt lat="38.195828" lon="-2.079710">
        <ele>1085.5</ele>
        <time>2017-03-25T11:38:55Z</time>
      </trkpt>
      <trkpt lat="38.195741" lon="-2.079920">
        <ele>1086.9</ele>
        <time>2017-03-25T11:39:11Z</time>
      </trkpt>
      <trkpt lat="38.195733" lon="-2.080083">
        <ele>1086.4</ele>
        <time>2017-03-25T11:39:23Z</time>
      </trkpt>
      <trkpt lat="38.195703" lon="-2.080161">
        <ele>1086.4</ele>
        <time>2017-03-25T11:39:27Z</time>
      </trkpt>
      <trkpt lat="38.195643" lon="-2.080312">
        <ele>1086.4</ele>
        <time>2017-03-25T11:39:40Z</time>
      </trkpt>
      <trkpt lat="38.195569" lon="-2.080446">
        <ele>1087.4</ele>
        <time>2017-03-25T11:39:49Z</time>
      </trkpt>
      <trkpt lat="38.195525" lon="-2.080579">
        <ele>1087.9</ele>
        <time>2017-03-25T11:39:58Z</time>
      </trkpt>
      <trkpt lat="38.195467" lon="-2.080741">
        <ele>1087.9</ele>
        <time>2017-03-25T11:40:07Z</time>
      </trkpt>
      <trkpt lat="38.195449" lon="-2.080874">
        <ele>1088.8</ele>
        <time>2017-03-25T11:40:14Z</time>
      </trkpt>
      <trkpt lat="38.195400" lon="-2.081079">
        <ele>1090.3</ele>
        <time>2017-03-25T11:40:28Z</time>
      </trkpt>
      <trkpt lat="38.195398" lon="-2.081090">
        <ele>1089.8</ele>
        <time>2017-03-25T11:40:29Z</time>
      </trkpt>
      <trkpt lat="38.195342" lon="-2.081358">
        <ele>1091.7</ele>
        <time>2017-03-25T11:40:45Z</time>
      </trkpt>
      <trkpt lat="38.195359" lon="-2.081689">
        <ele>1093.2</ele>
        <time>2017-03-25T11:41:02Z</time>
      </trkpt>
      <trkpt lat="38.195393" lon="-2.081865">
        <ele>1094.6</ele>
        <time>2017-03-25T11:41:14Z</time>
      </trkpt>
      <trkpt lat="38.195393" lon="-2.081936">
        <ele>1095.1</ele>
        <time>2017-03-25T11:41:17Z</time>
      </trkpt>
      <trkpt lat="38.195410" lon="-2.081983">
        <ele>1095.1</ele>
        <time>2017-03-25T11:41:21Z</time>
      </trkpt>
      <trkpt lat="38.195435" lon="-2.082047">
        <ele>1095.6</ele>
        <time>2017-03-25T11:41:32Z</time>
      </trkpt>
      <trkpt lat="38.195472" lon="-2.082122">
        <ele>1096.0</ele>
        <time>2017-03-25T11:41:40Z</time>
      </trkpt>
      <trkpt lat="38.195486" lon="-2.082135">
        <ele>1095.6</ele>
        <time>2017-03-25T11:41:42Z</time>
      </trkpt>
      <trkpt lat="38.195489" lon="-2.082193">
        <ele>1096.5</ele>
        <time>2017-03-25T11:41:48Z</time>
      </trkpt>
      <trkpt lat="38.195650" lon="-2.082361">
        <ele>1096.0</ele>
        <time>2017-03-25T11:42:03Z</time>
      </trkpt>
      <trkpt lat="38.195907" lon="-2.082468">
        <ele>1096.5</ele>
        <time>2017-03-25T11:42:21Z</time>
      </trkpt>
      <trkpt lat="38.196093" lon="-2.082599">
        <ele>1094.6</ele>
        <time>2017-03-25T11:42:37Z</time>
      </trkpt>
      <trkpt lat="38.196199" lon="-2.082732">
        <ele>1094.6</ele>
        <time>2017-03-25T11:42:50Z</time>
      </trkpt>
      <trkpt lat="38.196218" lon="-2.082809">
        <ele>1094.1</ele>
        <time>2017-03-25T11:43:03Z</time>
      </trkpt>
      <trkpt lat="38.196228" lon="-2.082853">
        <ele>1094.1</ele>
        <time>2017-03-25T11:43:12Z</time>
      </trkpt>
      <trkpt lat="38.196303" lon="-2.082982">
        <ele>1094.1</ele>
        <time>2017-03-25T11:43:28Z</time>
      </trkpt>
      <trkpt lat="38.196387" lon="-2.083307">
        <ele>1094.1</ele>
        <time>2017-03-25T11:43:46Z</time>
      </trkpt>
      <trkpt lat="38.196438" lon="-2.083682">
        <ele>1093.6</ele>
        <time>2017-03-25T11:44:07Z</time>
      </trkpt>
      <trkpt lat="38.196452" lon="-2.083952">
        <ele>1092.7</ele>
        <time>2017-03-25T11:44:22Z</time>
      </trkpt>
      <trkpt lat="38.196483" lon="-2.084240">
        <ele>1092.7</ele>
        <time>2017-03-25T11:44:38Z</time>
      </trkpt>
      <trkpt lat="38.196526" lon="-2.084493">
        <ele>1092.7</ele>
        <time>2017-03-25T11:44:53Z</time>
      </trkpt>
      <trkpt lat="38.196542" lon="-2.084819">
        <ele>1093.2</ele>
        <time>2017-03-25T11:45:11Z</time>
      </trkpt>
      <trkpt lat="38.196535" lon="-2.085114">
        <ele>1092.2</ele>
        <time>2017-03-25T11:45:28Z</time>
      </trkpt>
      <trkpt lat="38.196499" lon="-2.085448">
        <ele>1091.2</ele>
        <time>2017-03-25T11:45:47Z</time>
      </trkpt>
      <trkpt lat="38.196497" lon="-2.085465">
        <ele>1091.2</ele>
        <time>2017-03-25T11:45:48Z</time>
      </trkpt>
      <trkpt lat="38.196449" lon="-2.085747">
        <ele>1092.2</ele>
        <time>2017-03-25T11:46:04Z</time>
      </trkpt>
      <trkpt lat="38.196460" lon="-2.086031">
        <ele>1093.2</ele>
        <time>2017-03-25T11:46:20Z</time>
      </trkpt>
      <trkpt lat="38.196457" lon="-2.086342">
        <ele>1093.6</ele>
        <time>2017-03-25T11:46:37Z</time>
      </trkpt>
      <trkpt lat="38.196455" lon="-2.086364">
        <ele>1093.6</ele>
        <time>2017-03-25T11:46:41Z</time>
      </trkpt>
      <trkpt lat="38.196453" lon="-2.086397">
        <ele>1094.1</ele>
        <time>2017-03-25T11:46:45Z</time>
      </trkpt>
      <trkpt lat="38.196445" lon="-2.086463">
        <ele>1094.1</ele>
        <time>2017-03-25T11:46:49Z</time>
      </trkpt>
      <trkpt lat="38.196456" lon="-2.086514">
        <ele>1094.6</ele>
        <time>2017-03-25T11:46:52Z</time>
      </trkpt>
      <trkpt lat="38.196493" lon="-2.086848">
        <ele>1096.0</ele>
        <time>2017-03-25T11:47:11Z</time>
      </trkpt>
      <trkpt lat="38.196494" lon="-2.086995">
        <ele>1098.0</ele>
        <time>2017-03-25T11:47:19Z</time>
      </trkpt>
      <trkpt lat="38.196489" lon="-2.087079">
        <ele>1097.5</ele>
        <time>2017-03-25T11:47:24Z</time>
      </trkpt>
      <trkpt lat="38.196488" lon="-2.087259">
        <ele>1098.0</ele>
        <time>2017-03-25T11:47:33Z</time>
      </trkpt>
      <trkpt lat="38.196479" lon="-2.087370">
        <ele>1098.0</ele>
        <time>2017-03-25T11:47:39Z</time>
      </trkpt>
      <trkpt lat="38.196491" lon="-2.087460">
        <ele>1098.9</ele>
        <time>2017-03-25T11:47:46Z</time>
      </trkpt>
      <trkpt lat="38.196506" lon="-2.087516">
        <ele>1099.4</ele>
        <time>2017-03-25T11:47:50Z</time>
      </trkpt>
      <trkpt lat="38.196504" lon="-2.087819">
        <ele>1100.4</ele>
        <time>2017-03-25T11:48:06Z</time>
      </trkpt>
      <trkpt lat="38.196548" lon="-2.088111">
        <ele>1101.8</ele>
        <time>2017-03-25T11:48:23Z</time>
      </trkpt>
      <trkpt lat="38.196662" lon="-2.088324">
        <ele>1102.8</ele>
        <time>2017-03-25T11:48:38Z</time>
      </trkpt>
      <trkpt lat="38.196811" lon="-2.088571">
        <ele>1103.2</ele>
        <time>2017-03-25T11:48:55Z</time>
      </trkpt>
      <trkpt lat="38.196894" lon="-2.088682">
        <ele>1102.8</ele>
        <time>2017-03-25T11:49:09Z</time>
      </trkpt>
      <trkpt lat="38.196907" lon="-2.088700">
        <ele>1102.8</ele>
        <time>2017-03-25T11:49:11Z</time>
      </trkpt>
      <trkpt lat="38.196914" lon="-2.088725">
        <ele>1103.2</ele>
        <time>2017-03-25T11:49:15Z</time>
      </trkpt>
      <trkpt lat="38.196945" lon="-2.088783">
        <ele>1103.2</ele>
        <time>2017-03-25T11:49:19Z</time>
      </trkpt>
      <trkpt lat="38.196970" lon="-2.088823">
        <ele>1103.2</ele>
        <time>2017-03-25T11:49:22Z</time>
      </trkpt>
      <trkpt lat="38.197097" lon="-2.089110">
        <ele>1102.8</ele>
        <time>2017-03-25T11:49:40Z</time>
      </trkpt>
      <trkpt lat="38.197136" lon="-2.089201">
        <ele>1103.7</ele>
        <time>2017-03-25T11:49:47Z</time>
      </trkpt>
      <trkpt lat="38.197142" lon="-2.089396">
        <ele>1103.2</ele>
        <time>2017-03-25T11:50:02Z</time>
      </trkpt>
      <trkpt lat="38.197134" lon="-2.089467">
        <ele>1103.2</ele>
        <time>2017-03-25T11:50:07Z</time>
      </trkpt>
      <trkpt lat="38.197115" lon="-2.089490">
        <ele>1103.2</ele>
        <time>2017-03-25T11:50:09Z</time>
      </trkpt>
      <trkpt lat="38.197106" lon="-2.089619">
        <ele>1103.2</ele>
        <time>2017-03-25T11:50:16Z</time>
      </trkpt>
      <trkpt lat="38.197119" lon="-2.089959">
        <ele>1104.2</ele>
        <time>2017-03-25T11:50:35Z</time>
      </trkpt>
      <trkpt lat="38.197135" lon="-2.090157">
        <ele>1105.2</ele>
        <time>2017-03-25T11:50:48Z</time>
      </trkpt>
      <trkpt lat="38.197139" lon="-2.090167">
        <ele>1105.2</ele>
        <time>2017-03-25T11:50:49Z</time>
      </trkpt>
      <trkpt lat="38.197160" lon="-2.090189">
        <ele>1105.2</ele>
        <time>2017-03-25T11:51:02Z</time>
      </trkpt>
      <trkpt lat="38.197176" lon="-2.090262">
        <ele>1105.2</ele>
        <time>2017-03-25T11:51:16Z</time>
      </trkpt>
      <trkpt lat="38.197238" lon="-2.090607">
        <ele>1103.7</ele>
        <time>2017-03-25T11:51:35Z</time>
      </trkpt>
      <trkpt lat="38.197289" lon="-2.090760">
        <ele>1104.2</ele>
        <time>2017-03-25T11:51:49Z</time>
      </trkpt>
      <trkpt lat="38.197316" lon="-2.090859">
        <ele>1104.2</ele>
        <time>2017-03-25T11:52:00Z</time>
      </trkpt>
      <trkpt lat="38.197343" lon="-2.091064">
        <ele>1103.7</ele>
        <time>2017-03-25T11:52:12Z</time>
      </trkpt>
      <trkpt lat="38.197405" lon="-2.091157">
        <ele>1103.2</ele>
        <time>2017-03-25T11:52:23Z</time>
      </trkpt>
      <trkpt lat="38.197435" lon="-2.091363">
        <ele>1104.2</ele>
        <time>2017-03-25T11:52:36Z</time>
      </trkpt>
      <trkpt lat="38.197440" lon="-2.091360">
        <ele>1104.7</ele>
        <time>2017-03-25T11:52:38Z</time>
      </trkpt>
      <trkpt lat="38.197369" lon="-2.091433">
        <ele>1104.7</ele>
        <time>2017-03-25T11:52:43Z</time>
      </trkpt>
      <trkpt lat="38.197290" lon="-2.091598">
        <ele>1105.7</ele>
        <time>2017-03-25T11:52:57Z</time>
      </trkpt>
      <trkpt lat="38.197272" lon="-2.091651">
        <ele>1106.1</ele>
        <time>2017-03-25T11:53:00Z</time>
      </trkpt>
      <trkpt lat="38.197281" lon="-2.091717">
        <ele>1106.1</ele>
        <time>2017-03-25T11:53:08Z</time>
      </trkpt>
      <trkpt lat="38.197220" lon="-2.091920">
        <ele>1106.1</ele>
        <time>2017-03-25T11:53:21Z</time>
      </trkpt>
      <trkpt lat="38.197211" lon="-2.091949">
        <ele>1106.1</ele>
        <time>2017-03-25T11:53:23Z</time>
      </trkpt>
      <trkpt lat="38.197196" lon="-2.091972">
        <ele>1106.1</ele>
        <time>2017-03-25T11:53:25Z</time>
      </trkpt>
      <trkpt lat="38.197112" lon="-2.092199">
        <ele>1104.7</ele>
        <time>2017-03-25T11:53:40Z</time>
      </trkpt>
      <trkpt lat="38.197091" lon="-2.092255">
        <ele>1104.2</ele>
        <time>2017-03-25T11:53:44Z</time>
      </trkpt>
      <trkpt lat="38.197027" lon="-2.092443">
        <ele>1103.7</ele>
        <time>2017-03-25T11:53:57Z</time>
      </trkpt>
      <trkpt lat="38.197018" lon="-2.092512">
        <ele>1103.7</ele>
        <time>2017-03-25T11:54:01Z</time>
      </trkpt>
      <trkpt lat="38.196963" lon="-2.092666">
        <ele>1103.2</ele>
        <time>2017-03-25T11:54:10Z</time>
      </trkpt>
      <trkpt lat="38.196892" lon="-2.092937">
        <ele>1104.2</ele>
        <time>2017-03-25T11:54:26Z</time>
      </trkpt>
      <trkpt lat="38.196815" lon="-2.093203">
        <ele>1104.2</ele>
        <time>2017-03-25T11:54:42Z</time>
      </trkpt>
      <trkpt lat="38.196757" lon="-2.093490">
        <ele>1105.7</ele>
        <time>2017-03-25T11:54:59Z</time>
      </trkpt>
      <trkpt lat="38.196750" lon="-2.093725">
        <ele>1106.1</ele>
        <time>2017-03-25T11:55:13Z</time>
      </trkpt>
      <trkpt lat="38.196765" lon="-2.094044">
        <ele>1105.2</ele>
        <time>2017-03-25T11:55:31Z</time>
      </trkpt>
      <trkpt lat="38.196795" lon="-2.094390">
        <ele>1104.7</ele>
        <time>2017-03-25T11:55:50Z</time>
      </trkpt>
      <trkpt lat="38.196812" lon="-2.094758">
        <ele>1104.7</ele>
        <time>2017-03-25T11:56:11Z</time>
      </trkpt>
      <trkpt lat="38.196833" lon="-2.095098">
        <ele>1104.2</ele>
        <time>2017-03-25T11:56:30Z</time>
      </trkpt>
      <trkpt lat="38.196829" lon="-2.095368">
        <ele>1104.7</ele>
        <time>2017-03-25T11:56:47Z</time>
      </trkpt>
      <trkpt lat="38.196768" lon="-2.095741">
        <ele>1104.7</ele>
        <time>2017-03-25T11:57:09Z</time>
      </trkpt>
      <trkpt lat="38.196743" lon="-2.096101">
        <ele>1103.2</ele>
        <time>2017-03-25T11:57:30Z</time>
      </trkpt>
      <trkpt lat="38.196739" lon="-2.096431">
        <ele>1101.8</ele>
        <time>2017-03-25T11:57:49Z</time>
      </trkpt>
      <trkpt lat="38.196646" lon="-2.096696">
        <ele>1100.4</ele>
        <time>2017-03-25T11:58:05Z</time>
      </trkpt>
      <trkpt lat="38.196471" lon="-2.096889">
        <ele>1098.0</ele>
        <time>2017-03-25T11:58:22Z</time>
      </trkpt>
      <trkpt lat="38.196235" lon="-2.096995">
        <ele>1098.9</ele>
        <time>2017-03-25T11:58:39Z</time>
      </trkpt>
      <trkpt lat="38.196037" lon="-2.097069">
        <ele>1098.9</ele>
        <time>2017-03-25T11:58:54Z</time>
      </trkpt>
      <trkpt lat="38.195848" lon="-2.097100">
        <ele>1099.4</ele>
        <time>2017-03-25T11:59:08Z</time>
      </trkpt>
      <trkpt lat="38.195665" lon="-2.097281">
        <ele>1099.9</ele>
        <time>2017-03-25T11:59:24Z</time>
      </trkpt>
      <trkpt lat="38.195649" lon="-2.097573">
        <ele>1100.8</ele>
        <time>2017-03-25T11:59:41Z</time>
      </trkpt>
      <trkpt lat="38.195658" lon="-2.097608">
        <ele>1101.3</ele>
        <time>2017-03-25T11:59:43Z</time>
      </trkpt>
      <trkpt lat="38.195687" lon="-2.097815">
        <ele>1101.8</ele>
        <time>2017-03-25T11:59:55Z</time>
      </trkpt>
      <trkpt lat="38.195679" lon="-2.098018">
        <ele>1103.7</ele>
        <time>2017-03-25T12:00:07Z</time>
      </trkpt>
      <trkpt lat="38.195671" lon="-2.098062">
        <ele>1104.7</ele>
        <time>2017-03-25T12:00:10Z</time>
      </trkpt>
      <trkpt lat="38.195665" lon="-2.098155">
        <ele>1105.2</ele>
        <time>2017-03-25T12:00:16Z</time>
      </trkpt>
      <trkpt lat="38.195623" lon="-2.098267">
        <ele>1106.1</ele>
        <time>2017-03-25T12:00:23Z</time>
      </trkpt>
      <trkpt lat="38.195514" lon="-2.098498">
        <ele>1107.6</ele>
        <time>2017-03-25T12:00:39Z</time>
      </trkpt>
      <trkpt lat="38.195398" lon="-2.098742">
        <ele>1108.5</ele>
        <time>2017-03-25T12:00:55Z</time>
      </trkpt>
      <trkpt lat="38.195273" lon="-2.098942">
        <ele>1109.5</ele>
        <time>2017-03-25T12:01:09Z</time>
      </trkpt>
      <trkpt lat="38.195206" lon="-2.099050">
        <ele>1110.0</ele>
        <time>2017-03-25T12:01:17Z</time>
      </trkpt>
      <trkpt lat="38.195185" lon="-2.099066">
        <ele>1110.0</ele>
        <time>2017-03-25T12:01:19Z</time>
      </trkpt>
      <trkpt lat="38.195030" lon="-2.099206">
        <ele>1111.4</ele>
        <time>2017-03-25T12:01:33Z</time>
      </trkpt>
      <trkpt lat="38.195004" lon="-2.099224">
        <ele>1111.9</ele>
        <time>2017-03-25T12:01:35Z</time>
      </trkpt>
      <trkpt lat="38.194897" lon="-2.099313">
        <ele>1112.9</ele>
        <time>2017-03-25T12:01:45Z</time>
      </trkpt>
      <trkpt lat="38.194841" lon="-2.099351">
        <ele>1114.3</ele>
        <time>2017-03-25T12:01:50Z</time>
      </trkpt>
      <trkpt lat="38.194709" lon="-2.099489">
        <ele>1115.8</ele>
        <time>2017-03-25T12:02:05Z</time>
      </trkpt>
      <trkpt lat="38.194666" lon="-2.099549">
        <ele>1116.2</ele>
        <time>2017-03-25T12:02:15Z</time>
      </trkpt>
      <trkpt lat="38.194664" lon="-2.099762">
        <ele>1118.6</ele>
        <time>2017-03-25T12:02:29Z</time>
      </trkpt>
      <trkpt lat="38.194673" lon="-2.099814">
        <ele>1119.1</ele>
        <time>2017-03-25T12:02:37Z</time>
      </trkpt>
      <trkpt lat="38.194687" lon="-2.099863">
        <ele>1119.6</ele>
        <time>2017-03-25T12:02:43Z</time>
      </trkpt>
      <trkpt lat="38.194700" lon="-2.099910">
        <ele>1119.1</ele>
        <time>2017-03-25T12:06:27Z</time>
      </trkpt>
      <trkpt lat="38.194890" lon="-2.100253">
        <ele>1119.1</ele>
        <time>2017-03-25T12:06:49Z</time>
      </trkpt>
      <trkpt lat="38.194924" lon="-2.100334">
        <ele>1119.1</ele>
        <time>2017-03-25T12:07:05Z</time>
      </trkpt>
      <trkpt lat="38.194936" lon="-2.100381">
        <ele>1119.1</ele>
        <time>2017-03-25T12:07:25Z</time>
      </trkpt>
      <trkpt lat="38.194963" lon="-2.100417">
        <ele>1119.1</ele>
        <time>2017-03-25T12:07:28Z</time>
      </trkpt>
      <trkpt lat="38.194973" lon="-2.100435">
        <ele>1119.6</ele>
        <time>2017-03-25T12:07:38Z</time>
      </trkpt>
      <trkpt lat="38.194960" lon="-2.100556">
        <ele>1118.6</ele>
        <time>2017-03-25T12:07:45Z</time>
      </trkpt>
      <trkpt lat="38.194892" lon="-2.100591">
        <ele>1118.2</ele>
        <time>2017-03-25T12:07:50Z</time>
      </trkpt>
      <trkpt lat="38.194732" lon="-2.100590">
        <ele>1119.1</ele>
        <time>2017-03-25T12:08:03Z</time>
      </trkpt>
      <trkpt lat="38.194731" lon="-2.100591">
        <ele>1119.6</ele>
        <time>2017-03-25T12:08:05Z</time>
      </trkpt>
      <trkpt lat="38.194481" lon="-2.100610">
        <ele>1121.0</ele>
        <time>2017-03-25T12:08:21Z</time>
      </trkpt>
      <trkpt lat="38.194315" lon="-2.100645">
        <ele>1123.0</ele>
        <time>2017-03-25T12:08:34Z</time>
      </trkpt>
      <trkpt lat="38.194062" lon="-2.100820">
        <ele>1123.4</ele>
        <time>2017-03-25T12:08:56Z</time>
      </trkpt>
      <trkpt lat="38.193965" lon="-2.101095">
        <ele>1124.9</ele>
        <time>2017-03-25T12:09:12Z</time>
      </trkpt>
      <trkpt lat="38.193871" lon="-2.101339">
        <ele>1125.8</ele>
        <time>2017-03-25T12:09:28Z</time>
      </trkpt>
      <trkpt lat="38.193796" lon="-2.101419">
        <ele>1126.8</ele>
        <time>2017-03-25T12:09:40Z</time>
      </trkpt>
      <trkpt lat="38.193786" lon="-2.101424">
        <ele>1126.8</ele>
        <time>2017-03-25T12:09:45Z</time>
      </trkpt>
      <trkpt lat="38.193759" lon="-2.101525">
        <ele>1127.3</ele>
        <time>2017-03-25T12:09:51Z</time>
      </trkpt>
      <trkpt lat="38.193687" lon="-2.101892">
        <ele>1127.8</ele>
        <time>2017-03-25T12:10:11Z</time>
      </trkpt>
      <trkpt lat="38.193724" lon="-2.102000">
        <ele>1127.8</ele>
        <time>2017-03-25T12:10:22Z</time>
      </trkpt>
      <trkpt lat="38.193759" lon="-2.102332">
        <ele>1129.2</ele>
        <time>2017-03-25T12:10:40Z</time>
      </trkpt>
      <trkpt lat="38.193735" lon="-2.102659">
        <ele>1130.2</ele>
        <time>2017-03-25T12:10:58Z</time>
      </trkpt>
      <trkpt lat="38.193740" lon="-2.102663">
        <ele>1130.2</ele>
        <time>2017-03-25T12:11:02Z</time>
      </trkpt>
      <trkpt lat="38.193724" lon="-2.102728">
        <ele>1130.7</ele>
        <time>2017-03-25T12:11:06Z</time>
      </trkpt>
      <trkpt lat="38.193682" lon="-2.103034">
        <ele>1132.1</ele>
        <time>2017-03-25T12:11:22Z</time>
      </trkpt>
      <trkpt lat="38.193698" lon="-2.103347">
        <ele>1133.5</ele>
        <time>2017-03-25T12:11:39Z</time>
      </trkpt>
      <trkpt lat="38.193724" lon="-2.103679">
        <ele>1133.5</ele>
        <time>2017-03-25T12:11:58Z</time>
      </trkpt>
      <trkpt lat="38.193721" lon="-2.103945">
        <ele>1134.0</ele>
        <time>2017-03-25T12:12:12Z</time>
      </trkpt>
      <trkpt lat="38.193715" lon="-2.103996">
        <ele>1131.1</ele>
        <time>2017-03-25T12:12:15Z</time>
      </trkpt>
      <trkpt lat="38.193710" lon="-2.104014">
        <ele>1135.9</ele>
        <time>2017-03-25T12:12:16Z</time>
      </trkpt>
      <trkpt lat="38.193694" lon="-2.104044">
        <ele>1134.5</ele>
        <time>2017-03-25T12:12:18Z</time>
      </trkpt>
      <trkpt lat="38.193684" lon="-2.104092">
        <ele>1134.5</ele>
        <time>2017-03-25T12:12:21Z</time>
      </trkpt>
      <trkpt lat="38.193652" lon="-2.104145">
        <ele>1135.9</ele>
        <time>2017-03-25T12:12:25Z</time>
      </trkpt>
      <trkpt lat="38.193634" lon="-2.104229">
        <ele>1136.4</ele>
        <time>2017-03-25T12:12:30Z</time>
      </trkpt>
      <trkpt lat="38.193517" lon="-2.104432">
        <ele>1137.9</ele>
        <time>2017-03-25T12:12:44Z</time>
      </trkpt>
      <trkpt lat="38.193481" lon="-2.104489">
        <ele>1139.3</ele>
        <time>2017-03-25T12:12:48Z</time>
      </trkpt>
      <trkpt lat="38.193332" lon="-2.104740">
        <ele>1140.3</ele>
        <time>2017-03-25T12:13:06Z</time>
      </trkpt>
      <trkpt lat="38.193287" lon="-2.105040">
        <ele>1143.1</ele>
        <time>2017-03-25T12:13:24Z</time>
      </trkpt>
      <trkpt lat="38.193306" lon="-2.105438">
        <ele>1143.6</ele>
        <time>2017-03-25T12:13:47Z</time>
      </trkpt>
      <trkpt lat="38.193313" lon="-2.105648">
        <ele>1143.1</ele>
        <time>2017-03-25T12:13:58Z</time>
      </trkpt>
      <trkpt lat="38.193317" lon="-2.105672">
        <ele>1143.6</ele>
        <time>2017-03-25T12:13:59Z</time>
      </trkpt>
      <trkpt lat="38.193317" lon="-2.105689">
        <ele>1143.6</ele>
        <time>2017-03-25T12:14:00Z</time>
      </trkpt>
      <trkpt lat="38.193318" lon="-2.105722">
        <ele>1143.1</ele>
        <time>2017-03-25T12:14:02Z</time>
      </trkpt>
      <trkpt lat="38.193314" lon="-2.105741">
        <ele>1143.1</ele>
        <time>2017-03-25T12:14:03Z</time>
      </trkpt>
      <trkpt lat="38.193315" lon="-2.105756">
        <ele>1143.6</ele>
        <time>2017-03-25T12:14:04Z</time>
      </trkpt>
      <trkpt lat="38.193316" lon="-2.105769">
        <ele>1143.6</ele>
        <time>2017-03-25T12:14:05Z</time>
      </trkpt>
      <trkpt lat="38.193315" lon="-2.105785">
        <ele>1143.6</ele>
        <time>2017-03-25T12:14:06Z</time>
      </trkpt>
      <trkpt lat="38.193311" lon="-2.105799">
        <ele>1143.6</ele>
        <time>2017-03-25T12:14:07Z</time>
      </trkpt>
      <trkpt lat="38.193301" lon="-2.105815">
        <ele>1143.6</ele>
        <time>2017-03-25T12:14:08Z</time>
      </trkpt>
      <trkpt lat="38.193296" lon="-2.105808">
        <ele>1143.1</ele>
        <time>2017-03-25T12:14:17Z</time>
      </trkpt>
      <trkpt lat="38.193280" lon="-2.105812">
        <ele>1142.7</ele>
        <time>2017-03-25T12:14:42Z</time>
      </trkpt>
      <trkpt lat="38.193298" lon="-2.105820">
        <ele>1143.1</ele>
        <time>2017-03-25T12:15:07Z</time>
      </trkpt>
      <trkpt lat="38.193308" lon="-2.105840">
        <ele>1143.1</ele>
        <time>2017-03-25T12:15:08Z</time>
      </trkpt>
      <trkpt lat="38.193308" lon="-2.105861">
        <ele>1143.6</ele>
        <time>2017-03-25T12:15:09Z</time>
      </trkpt>
      <trkpt lat="38.193310" lon="-2.105877">
        <ele>1143.6</ele>
        <time>2017-03-25T12:15:10Z</time>
      </trkpt>
      <trkpt lat="38.193313" lon="-2.105878">
        <ele>1144.1</ele>
        <time>2017-03-25T12:15:13Z</time>
      </trkpt>
      <trkpt lat="38.193311" lon="-2.105860">
        <ele>1144.1</ele>
        <time>2017-03-25T12:15:14Z</time>
      </trkpt>
      <trkpt lat="38.193308" lon="-2.105828">
        <ele>1144.1</ele>
        <time>2017-03-25T12:15:17Z</time>
      </trkpt>
      <trkpt lat="38.193324" lon="-2.105957">
        <ele>1144.1</ele>
        <time>2017-03-25T12:15:24Z</time>
      </trkpt>
      <trkpt lat="38.193330" lon="-2.106265">
        <ele>1144.6</ele>
        <time>2017-03-25T12:15:41Z</time>
      </trkpt>
      <trkpt lat="38.193378" lon="-2.106419">
        <ele>1145.1</ele>
        <time>2017-03-25T12:15:50Z</time>
      </trkpt>
      <trkpt lat="38.193450" lon="-2.106689">
        <ele>1147.5</ele>
        <time>2017-03-25T12:16:07Z</time>
      </trkpt>
      <trkpt lat="38.193454" lon="-2.106707">
        <ele>1147.9</ele>
        <time>2017-03-25T12:16:08Z</time>
      </trkpt>
      <trkpt lat="38.193490" lon="-2.106781">
        <ele>1148.9</ele>
        <time>2017-03-25T12:16:13Z</time>
      </trkpt>
      <trkpt lat="38.193579" lon="-2.107033">
        <ele>1148.9</ele>
        <time>2017-03-25T12:16:29Z</time>
      </trkpt>
      <trkpt lat="38.193630" lon="-2.107281">
        <ele>1148.4</ele>
        <time>2017-03-25T12:16:44Z</time>
      </trkpt>
      <trkpt lat="38.193688" lon="-2.107597">
        <ele>1148.9</ele>
        <time>2017-03-25T12:17:01Z</time>
      </trkpt>
      <trkpt lat="38.193718" lon="-2.107878">
        <ele>1149.4</ele>
        <time>2017-03-25T12:17:16Z</time>
      </trkpt>
      <trkpt lat="38.193690" lon="-2.108171">
        <ele>1149.9</ele>
        <time>2017-03-25T12:17:33Z</time>
      </trkpt>
      <trkpt lat="38.193696" lon="-2.108228">
        <ele>1149.4</ele>
        <time>2017-03-25T12:17:36Z</time>
      </trkpt>
      <trkpt lat="38.193714" lon="-2.108306">
        <ele>1148.9</ele>
        <time>2017-03-25T12:17:49Z</time>
      </trkpt>
      <trkpt lat="38.193808" lon="-2.108477">
        <ele>1146.0</ele>
        <time>2017-03-25T12:18:01Z</time>
      </trkpt>
      <trkpt lat="38.193804" lon="-2.108648">
        <ele>1142.7</ele>
        <time>2017-03-25T12:18:12Z</time>
      </trkpt>
      <trkpt lat="38.193741" lon="-2.108870">
        <ele>1139.3</ele>
        <time>2017-03-25T12:18:25Z</time>
      </trkpt>
      <trkpt lat="38.193694" lon="-2.109155">
        <ele>1137.4</ele>
        <time>2017-03-25T12:18:43Z</time>
      </trkpt>
      <trkpt lat="38.193718" lon="-2.109195">
        <ele>1137.4</ele>
        <time>2017-03-25T12:18:48Z</time>
      </trkpt>
      <trkpt lat="38.193773" lon="-2.109214">
        <ele>1137.9</ele>
        <time>2017-03-25T12:19:00Z</time>
      </trkpt>
      <trkpt lat="38.193777" lon="-2.109221">
        <ele>1137.9</ele>
        <time>2017-03-25T12:19:03Z</time>
      </trkpt>
      <trkpt lat="38.193811" lon="-2.109300">
        <ele>1138.3</ele>
        <time>2017-03-25T12:19:08Z</time>
      </trkpt>
      <trkpt lat="38.193948" lon="-2.109378">
        <ele>1138.8</ele>
        <time>2017-03-25T12:19:19Z</time>
      </trkpt>
      <trkpt lat="38.194035" lon="-2.109526">
        <ele>1140.3</ele>
        <time>2017-03-25T12:19:30Z</time>
      </trkpt>
      <trkpt lat="38.194144" lon="-2.109822">
        <ele>1141.7</ele>
        <time>2017-03-25T12:19:49Z</time>
      </trkpt>
      <trkpt lat="38.194251" lon="-2.110054">
        <ele>1143.6</ele>
        <time>2017-03-25T12:20:04Z</time>
      </trkpt>
      <trkpt lat="38.194261" lon="-2.110087">
        <ele>1144.1</ele>
        <time>2017-03-25T12:20:06Z</time>
      </trkpt>
      <trkpt lat="38.194279" lon="-2.110143">
        <ele>1145.1</ele>
        <time>2017-03-25T12:20:10Z</time>
      </trkpt>
      <trkpt lat="38.194284" lon="-2.110160">
        <ele>1144.6</ele>
        <time>2017-03-25T12:20:11Z</time>
      </trkpt>
      <trkpt lat="38.194300" lon="-2.110298">
        <ele>1147.0</ele>
        <time>2017-03-25T12:20:20Z</time>
      </trkpt>
      <trkpt lat="38.194316" lon="-2.110337">
        <ele>1147.0</ele>
        <time>2017-03-25T12:20:29Z</time>
      </trkpt>
      <trkpt lat="38.194320" lon="-2.110412">
        <ele>1147.5</ele>
        <time>2017-03-25T12:20:33Z</time>
      </trkpt>
      <trkpt lat="38.194325" lon="-2.110512">
        <ele>1147.5</ele>
        <time>2017-03-25T12:20:38Z</time>
      </trkpt>
      <trkpt lat="38.194335" lon="-2.110628">
        <ele>1147.9</ele>
        <time>2017-03-25T12:20:44Z</time>
      </trkpt>
      <trkpt lat="38.194336" lon="-2.110726">
        <ele>1148.4</ele>
        <time>2017-03-25T12:20:49Z</time>
      </trkpt>
      <trkpt lat="38.194371" lon="-2.110755">
        <ele>1148.4</ele>
        <time>2017-03-25T12:21:02Z</time>
      </trkpt>
      <trkpt lat="38.194373" lon="-2.110745">
        <ele>1148.4</ele>
        <time>2017-03-25T12:21:07Z</time>
      </trkpt>
      <trkpt lat="38.194365" lon="-2.110771">
        <ele>1147.9</ele>
        <time>2017-03-25T12:21:09Z</time>
      </trkpt>
      <trkpt lat="38.194364" lon="-2.110846">
        <ele>1147.9</ele>
        <time>2017-03-25T12:21:13Z</time>
      </trkpt>
      <trkpt lat="38.194347" lon="-2.111041">
        <ele>1147.5</ele>
        <time>2017-03-25T12:21:30Z</time>
      </trkpt>
      <trkpt lat="38.194338" lon="-2.111116">
        <ele>1147.0</ele>
        <time>2017-03-25T12:21:41Z</time>
      </trkpt>
      <trkpt lat="38.194388" lon="-2.111330">
        <ele>1143.1</ele>
        <time>2017-03-25T12:21:53Z</time>
      </trkpt>
      <trkpt lat="38.194404" lon="-2.111446">
        <ele>1140.7</ele>
        <time>2017-03-25T12:21:59Z</time>
      </trkpt>
      <trkpt lat="38.194391" lon="-2.111534">
        <ele>1139.3</ele>
        <time>2017-03-25T12:22:04Z</time>
      </trkpt>
      <trkpt lat="38.194376" lon="-2.111588">
        <ele>1138.3</ele>
        <time>2017-03-25T12:22:07Z</time>
      </trkpt>
      <trkpt lat="38.194370" lon="-2.111607">
        <ele>1137.9</ele>
        <time>2017-03-25T12:22:08Z</time>
      </trkpt>
      <trkpt lat="38.194388" lon="-2.111620">
        <ele>1136.9</ele>
        <time>2017-03-25T12:22:13Z</time>
      </trkpt>
      <trkpt lat="38.194310" lon="-2.111860">
        <ele>1134.0</ele>
        <time>2017-03-25T12:22:27Z</time>
      </trkpt>
      <trkpt lat="38.194262" lon="-2.112034">
        <ele>1132.6</ele>
        <time>2017-03-25T12:22:41Z</time>
      </trkpt>
      <trkpt lat="38.194221" lon="-2.112173">
        <ele>1132.1</ele>
        <time>2017-03-25T12:22:49Z</time>
      </trkpt>
      <trkpt lat="38.194169" lon="-2.112475">
        <ele>1130.7</ele>
        <time>2017-03-25T12:23:05Z</time>
      </trkpt>
      <trkpt lat="38.194166" lon="-2.112774">
        <ele>1128.7</ele>
        <time>2017-03-25T12:23:21Z</time>
      </trkpt>
      <trkpt lat="38.194164" lon="-2.112823">
        <ele>1128.2</ele>
        <time>2017-03-25T12:23:24Z</time>
      </trkpt>
      <trkpt lat="38.194171" lon="-2.112930">
        <ele>1128.2</ele>
        <time>2017-03-25T12:23:35Z</time>
      </trkpt>
      <trkpt lat="38.194229" lon="-2.113133">
        <ele>1127.3</ele>
        <time>2017-03-25T12:23:48Z</time>
      </trkpt>
      <trkpt lat="38.194238" lon="-2.113158">
        <ele>1127.3</ele>
        <time>2017-03-25T12:23:50Z</time>
      </trkpt>
      <trkpt lat="38.194307" lon="-2.113448">
        <ele>1126.8</ele>
        <time>2017-03-25T12:24:07Z</time>
      </trkpt>
      <trkpt lat="38.194397" lon="-2.113745">
        <ele>1125.4</ele>
        <time>2017-03-25T12:24:24Z</time>
      </trkpt>
      <trkpt lat="38.194451" lon="-2.113931">
        <ele>1124.9</ele>
        <time>2017-03-25T12:24:36Z</time>
      </trkpt>
      <trkpt lat="38.194459" lon="-2.114014">
        <ele>1125.4</ele>
        <time>2017-03-25T12:24:47Z</time>
      </trkpt>
      <trkpt lat="38.194488" lon="-2.114187">
        <ele>1124.4</ele>
        <time>2017-03-25T12:25:04Z</time>
      </trkpt>
      <trkpt lat="38.194487" lon="-2.114187">
        <ele>1124.9</ele>
        <time>2017-03-25T12:25:07Z</time>
      </trkpt>
      <trkpt lat="38.194474" lon="-2.114251">
        <ele>1124.9</ele>
        <time>2017-03-25T12:25:11Z</time>
      </trkpt>
      <trkpt lat="38.194451" lon="-2.114398">
        <ele>1124.4</ele>
        <time>2017-03-25T12:25:20Z</time>
      </trkpt>
      <trkpt lat="38.194435" lon="-2.114453">
        <ele>1124.4</ele>
        <time>2017-03-25T12:25:25Z</time>
      </trkpt>
      <trkpt lat="38.194428" lon="-2.114563">
        <ele>1123.4</ele>
        <time>2017-03-25T12:25:35Z</time>
      </trkpt>
      <trkpt lat="38.194448" lon="-2.114590">
        <ele>1123.4</ele>
        <time>2017-03-25T12:25:37Z</time>
      </trkpt>
      <trkpt lat="38.194459" lon="-2.114602">
        <ele>1124.4</ele>
        <time>2017-03-25T12:25:38Z</time>
      </trkpt>
      <trkpt lat="38.194471" lon="-2.114612">
        <ele>1123.9</ele>
        <time>2017-03-25T12:25:39Z</time>
      </trkpt>
      <trkpt lat="38.194583" lon="-2.114855">
        <ele>1125.4</ele>
        <time>2017-03-25T12:25:54Z</time>
      </trkpt>
      <trkpt lat="38.194720" lon="-2.115043">
        <ele>1126.8</ele>
        <time>2017-03-25T12:26:09Z</time>
      </trkpt>
      <trkpt lat="38.194728" lon="-2.115050">
        <ele>1126.8</ele>
        <time>2017-03-25T12:26:10Z</time>
      </trkpt>
      <trkpt lat="38.194736" lon="-2.115067">
        <ele>1126.3</ele>
        <time>2017-03-25T12:26:11Z</time>
      </trkpt>
      <trkpt lat="38.194742" lon="-2.115083">
        <ele>1126.3</ele>
        <time>2017-03-25T12:26:12Z</time>
      </trkpt>
      <trkpt lat="38.194751" lon="-2.115096">
        <ele>1126.3</ele>
        <time>2017-03-25T12:26:13Z</time>
      </trkpt>
      <trkpt lat="38.194785" lon="-2.115196">
        <ele>1128.2</ele>
        <time>2017-03-25T12:26:20Z</time>
      </trkpt>
      <trkpt lat="38.194871" lon="-2.115434">
        <ele>1130.7</ele>
        <time>2017-03-25T12:26:36Z</time>
      </trkpt>
      <trkpt lat="38.194912" lon="-2.115662">
        <ele>1132.1</ele>
        <time>2017-03-25T12:26:51Z</time>
      </trkpt>
      <trkpt lat="38.194970" lon="-2.115873">
        <ele>1134.0</ele>
        <time>2017-03-25T12:27:06Z</time>
      </trkpt>
      <trkpt lat="38.194975" lon="-2.115923">
        <ele>1134.0</ele>
        <time>2017-03-25T12:27:09Z</time>
      </trkpt>
      <trkpt lat="38.194977" lon="-2.115938">
        <ele>1134.0</ele>
        <time>2017-03-25T12:27:10Z</time>
      </trkpt>
      <trkpt lat="38.194979" lon="-2.115954">
        <ele>1134.5</ele>
        <time>2017-03-25T12:27:11Z</time>
      </trkpt>
      <trkpt lat="38.194993" lon="-2.116197">
        <ele>1135.4</ele>
        <time>2017-03-25T12:27:25Z</time>
      </trkpt>
      <trkpt lat="38.194994" lon="-2.116227">
        <ele>1135.9</ele>
        <time>2017-03-25T12:27:27Z</time>
      </trkpt>
      <trkpt lat="38.194992" lon="-2.116242">
        <ele>1135.4</ele>
        <time>2017-03-25T12:27:28Z</time>
      </trkpt>
      <trkpt lat="38.194992" lon="-2.116258">
        <ele>1135.4</ele>
        <time>2017-03-25T12:27:29Z</time>
      </trkpt>
      <trkpt lat="38.194991" lon="-2.116273">
        <ele>1135.4</ele>
        <time>2017-03-25T12:27:30Z</time>
      </trkpt>
      <trkpt lat="38.194990" lon="-2.116288">
        <ele>1135.9</ele>
        <time>2017-03-25T12:27:31Z</time>
      </trkpt>
      <trkpt lat="38.194990" lon="-2.116304">
        <ele>1136.4</ele>
        <time>2017-03-25T12:27:32Z</time>
      </trkpt>
      <trkpt lat="38.194970" lon="-2.116547">
        <ele>1136.4</ele>
        <time>2017-03-25T12:27:47Z</time>
      </trkpt>
      <trkpt lat="38.194962" lon="-2.116669">
        <ele>1136.9</ele>
        <time>2017-03-25T12:27:54Z</time>
      </trkpt>
      <trkpt lat="38.194951" lon="-2.116801">
        <ele>1135.4</ele>
        <time>2017-03-25T12:28:02Z</time>
      </trkpt>
      <trkpt lat="38.194951" lon="-2.116818">
        <ele>1138.8</ele>
        <time>2017-03-25T12:28:03Z</time>
      </trkpt>
      <trkpt lat="38.194951" lon="-2.116837">
        <ele>1136.9</ele>
        <time>2017-03-25T12:28:04Z</time>
      </trkpt>
      <trkpt lat="38.194962" lon="-2.117178">
        <ele>1137.9</ele>
        <time>2017-03-25T12:28:23Z</time>
      </trkpt>
      <trkpt lat="38.194997" lon="-2.117459">
        <ele>1137.9</ele>
        <time>2017-03-25T12:28:39Z</time>
      </trkpt>
      <trkpt lat="38.195010" lon="-2.117619">
        <ele>1137.9</ele>
        <time>2017-03-25T12:28:48Z</time>
      </trkpt>
      <trkpt lat="38.194996" lon="-2.117872">
        <ele>1138.8</ele>
        <time>2017-03-25T12:29:04Z</time>
      </trkpt>
      <trkpt lat="38.194925" lon="-2.117994">
        <ele>1138.8</ele>
        <time>2017-03-25T12:29:17Z</time>
      </trkpt>
      <trkpt lat="38.194871" lon="-2.118241">
        <ele>1135.9</ele>
        <time>2017-03-25T12:29:32Z</time>
      </trkpt>
      <trkpt lat="38.194889" lon="-2.118356">
        <ele>1135.0</ele>
        <time>2017-03-25T12:29:46Z</time>
      </trkpt>
      <trkpt lat="38.194895" lon="-2.118368">
        <ele>1134.5</ele>
        <time>2017-03-25T12:29:47Z</time>
      </trkpt>
      <trkpt lat="38.194923" lon="-2.118466">
        <ele>1134.0</ele>
        <time>2017-03-25T12:29:55Z</time>
      </trkpt>
      <trkpt lat="38.194926" lon="-2.118480">
        <ele>1134.5</ele>
        <time>2017-03-25T12:29:56Z</time>
      </trkpt>
      <trkpt lat="38.194943" lon="-2.118522">
        <ele>1134.0</ele>
        <time>2017-03-25T12:29:59Z</time>
      </trkpt>
      <trkpt lat="38.194946" lon="-2.118540">
        <ele>1133.5</ele>
        <time>2017-03-25T12:30:00Z</time>
      </trkpt>
      <trkpt lat="38.195012" lon="-2.118693">
        <ele>1133.5</ele>
        <time>2017-03-25T12:30:13Z</time>
      </trkpt>
      <trkpt lat="38.195020" lon="-2.118709">
        <ele>1133.5</ele>
        <time>2017-03-25T12:30:15Z</time>
      </trkpt>
      <trkpt lat="38.195024" lon="-2.118728">
        <ele>1133.5</ele>
        <time>2017-03-25T12:30:16Z</time>
      </trkpt>
      <trkpt lat="38.195100" lon="-2.118983">
        <ele>1130.7</ele>
        <time>2017-03-25T12:30:32Z</time>
      </trkpt>
      <trkpt lat="38.195108" lon="-2.118996">
        <ele>1131.1</ele>
        <time>2017-03-25T12:30:38Z</time>
      </trkpt>
      <trkpt lat="38.195111" lon="-2.119012">
        <ele>1131.1</ele>
        <time>2017-03-25T12:30:39Z</time>
      </trkpt>
      <trkpt lat="38.195119" lon="-2.119029">
        <ele>1131.1</ele>
        <time>2017-03-25T12:30:40Z</time>
      </trkpt>
      <trkpt lat="38.195129" lon="-2.119047">
        <ele>1131.1</ele>
        <time>2017-03-25T12:30:41Z</time>
      </trkpt>
      <trkpt lat="38.195137" lon="-2.119060">
        <ele>1130.7</ele>
        <time>2017-03-25T12:30:42Z</time>
      </trkpt>
      <trkpt lat="38.195174" lon="-2.119205">
        <ele>1128.7</ele>
        <time>2017-03-25T12:30:52Z</time>
      </trkpt>
      <trkpt lat="38.195156" lon="-2.119308">
        <ele>1127.3</ele>
        <time>2017-03-25T12:30:58Z</time>
      </trkpt>
      <trkpt lat="38.195171" lon="-2.119416">
        <ele>1124.4</ele>
        <time>2017-03-25T12:31:05Z</time>
      </trkpt>
      <trkpt lat="38.195175" lon="-2.119425">
        <ele>1131.1</ele>
        <time>2017-03-25T12:31:06Z</time>
      </trkpt>
      <trkpt lat="38.195181" lon="-2.119435">
        <ele>1130.7</ele>
        <time>2017-03-25T12:31:07Z</time>
      </trkpt>
      <trkpt lat="38.195187" lon="-2.119447">
        <ele>1129.2</ele>
        <time>2017-03-25T12:31:08Z</time>
      </trkpt>
      <trkpt lat="38.195192" lon="-2.119463">
        <ele>1129.2</ele>
        <time>2017-03-25T12:31:09Z</time>
      </trkpt>
      <trkpt lat="38.195195" lon="-2.119479">
        <ele>1128.7</ele>
        <time>2017-03-25T12:31:10Z</time>
      </trkpt>
      <trkpt lat="38.195198" lon="-2.119498">
        <ele>1128.7</ele>
        <time>2017-03-25T12:31:11Z</time>
      </trkpt>
      <trkpt lat="38.195201" lon="-2.119518">
        <ele>1128.7</ele>
        <time>2017-03-25T12:31:12Z</time>
      </trkpt>
      <trkpt lat="38.195205" lon="-2.119535">
        <ele>1128.2</ele>
        <time>2017-03-25T12:31:13Z</time>
      </trkpt>
      <trkpt lat="38.195209" lon="-2.119551">
        <ele>1128.2</ele>
        <time>2017-03-25T12:31:14Z</time>
      </trkpt>
      <trkpt lat="38.195234" lon="-2.119693">
        <ele>1126.8</ele>
        <time>2017-03-25T12:31:25Z</time>
      </trkpt>
      <trkpt lat="38.195276" lon="-2.119894">
        <ele>1124.9</ele>
        <time>2017-03-25T12:31:37Z</time>
      </trkpt>
      <trkpt lat="38.195303" lon="-2.120027">
        <ele>1124.9</ele>
        <time>2017-03-25T12:31:50Z</time>
      </trkpt>
      <trkpt lat="38.195294" lon="-2.120264">
        <ele>1124.4</ele>
        <time>2017-03-25T12:32:05Z</time>
      </trkpt>
      <trkpt lat="38.195390" lon="-2.120340">
        <ele>1124.4</ele>
        <time>2017-03-25T12:32:19Z</time>
      </trkpt>
      <trkpt lat="38.195419" lon="-2.120375">
        <ele>1123.9</ele>
        <time>2017-03-25T12:32:30Z</time>
      </trkpt>
      <trkpt lat="38.195438" lon="-2.120398">
        <ele>1123.9</ele>
        <time>2017-03-25T12:32:41Z</time>
      </trkpt>
      <trkpt lat="38.195418" lon="-2.120472">
        <ele>1123.9</ele>
        <time>2017-03-25T12:32:47Z</time>
      </trkpt>
      <trkpt lat="38.195412" lon="-2.120509">
        <ele>1123.9</ele>
        <time>2017-03-25T12:32:57Z</time>
      </trkpt>
      <trkpt lat="38.195408" lon="-2.120523">
        <ele>1123.4</ele>
        <time>2017-03-25T12:32:58Z</time>
      </trkpt>
      <trkpt lat="38.195496" lon="-2.120684">
        <ele>1123.4</ele>
        <time>2017-03-25T12:33:21Z</time>
      </trkpt>
      <trkpt lat="38.195499" lon="-2.120708">
        <ele>1123.4</ele>
        <time>2017-03-25T12:33:30Z</time>
      </trkpt>
      <trkpt lat="38.195479" lon="-2.120710">
        <ele>1123.4</ele>
        <time>2017-03-25T12:33:32Z</time>
      </trkpt>
      <trkpt lat="38.195471" lon="-2.120720">
        <ele>1123.9</ele>
        <time>2017-03-25T12:33:33Z</time>
      </trkpt>
      <trkpt lat="38.195463" lon="-2.120730">
        <ele>1124.4</ele>
        <time>2017-03-25T12:33:34Z</time>
      </trkpt>
      <trkpt lat="38.195454" lon="-2.120743">
        <ele>1124.4</ele>
        <time>2017-03-25T12:33:35Z</time>
      </trkpt>
      <trkpt lat="38.195429" lon="-2.120762">
        <ele>1123.4</ele>
        <time>2017-03-25T12:33:46Z</time>
      </trkpt>
      <trkpt lat="38.195379" lon="-2.120821">
        <ele>1123.4</ele>
        <time>2017-03-25T12:33:57Z</time>
      </trkpt>
      <trkpt lat="38.195379" lon="-2.120812">
        <ele>1123.9</ele>
        <time>2017-03-25T12:34:18Z</time>
      </trkpt>
      <trkpt lat="38.195270" lon="-2.120919">
        <ele>1123.4</ele>
        <time>2017-03-25T12:34:31Z</time>
      </trkpt>
      <trkpt lat="38.195215" lon="-2.120990">
        <ele>1123.9</ele>
        <time>2017-03-25T12:34:37Z</time>
      </trkpt>
      <trkpt lat="38.195208" lon="-2.120995">
        <ele>1123.9</ele>
        <time>2017-03-25T12:34:38Z</time>
      </trkpt>
      <trkpt lat="38.195198" lon="-2.121001">
        <ele>1123.9</ele>
        <time>2017-03-25T12:34:39Z</time>
      </trkpt>
      <trkpt lat="38.195083" lon="-2.121158">
        <ele>1124.4</ele>
        <time>2017-03-25T12:34:52Z</time>
      </trkpt>
      <trkpt lat="38.194992" lon="-2.121276">
        <ele>1124.4</ele>
        <time>2017-03-25T12:35:01Z</time>
      </trkpt>
      <trkpt lat="38.194987" lon="-2.121293">
        <ele>1124.4</ele>
        <time>2017-03-25T12:35:02Z</time>
      </trkpt>
      <trkpt lat="38.194985" lon="-2.121309">
        <ele>1125.4</ele>
        <time>2017-03-25T12:35:03Z</time>
      </trkpt>
      <trkpt lat="38.194983" lon="-2.121326">
        <ele>1124.9</ele>
        <time>2017-03-25T12:35:04Z</time>
      </trkpt>
      <trkpt lat="38.194982" lon="-2.121347">
        <ele>1124.4</ele>
        <time>2017-03-25T12:35:05Z</time>
      </trkpt>
      <trkpt lat="38.194981" lon="-2.121368">
        <ele>1124.4</ele>
        <time>2017-03-25T12:35:06Z</time>
      </trkpt>
      <trkpt lat="38.194905" lon="-2.121631">
        <ele>1124.4</ele>
        <time>2017-03-25T12:35:22Z</time>
      </trkpt>
      <trkpt lat="38.194819" lon="-2.121904">
        <ele>1124.9</ele>
        <time>2017-03-25T12:35:39Z</time>
      </trkpt>
      <trkpt lat="38.194710" lon="-2.122079">
        <ele>1125.4</ele>
        <time>2017-03-25T12:35:53Z</time>
      </trkpt>
      <trkpt lat="38.194580" lon="-2.122284">
        <ele>1125.8</ele>
        <time>2017-03-25T12:36:07Z</time>
      </trkpt>
      <trkpt lat="38.194481" lon="-2.122420">
        <ele>1126.3</ele>
        <time>2017-03-25T12:36:24Z</time>
      </trkpt>
      <trkpt lat="38.194378" lon="-2.122617">
        <ele>1127.8</ele>
        <time>2017-03-25T12:36:37Z</time>
      </trkpt>
      <trkpt lat="38.194242" lon="-2.122813">
        <ele>1128.2</ele>
        <time>2017-03-25T12:36:51Z</time>
      </trkpt>
      <trkpt lat="38.194099" lon="-2.123040">
        <ele>1129.7</ele>
        <time>2017-03-25T12:37:07Z</time>
      </trkpt>
      <trkpt lat="38.194017" lon="-2.123212">
        <ele>1131.1</ele>
        <time>2017-03-25T12:37:22Z</time>
      </trkpt>
      <trkpt lat="38.193937" lon="-2.123423">
        <ele>1131.6</ele>
        <time>2017-03-25T12:37:38Z</time>
      </trkpt>
      <trkpt lat="38.193936" lon="-2.123457">
        <ele>1132.1</ele>
        <time>2017-03-25T12:37:40Z</time>
      </trkpt>
      <trkpt lat="38.193940" lon="-2.123475">
        <ele>1131.6</ele>
        <time>2017-03-25T12:37:41Z</time>
      </trkpt>
      <trkpt lat="38.193940" lon="-2.123495">
        <ele>1131.6</ele>
        <time>2017-03-25T12:37:42Z</time>
      </trkpt>
      <trkpt lat="38.193860" lon="-2.123734">
        <ele>1133.1</ele>
        <time>2017-03-25T12:37:58Z</time>
      </trkpt>
      <trkpt lat="38.193759" lon="-2.123974">
        <ele>1135.0</ele>
        <time>2017-03-25T12:38:16Z</time>
      </trkpt>
      <trkpt lat="38.193805" lon="-2.123995">
        <ele>1135.0</ele>
        <time>2017-03-25T12:38:21Z</time>
      </trkpt>
      <trkpt lat="38.193838" lon="-2.124017">
        <ele>1135.0</ele>
        <time>2017-03-25T12:38:33Z</time>
      </trkpt>
      <trkpt lat="38.193864" lon="-2.124076">
        <ele>1135.4</ele>
        <time>2017-03-25T12:38:49Z</time>
      </trkpt>
      <trkpt lat="38.193920" lon="-2.124212">
        <ele>1135.4</ele>
        <time>2017-03-25T12:39:04Z</time>
      </trkpt>
      <trkpt lat="38.193927" lon="-2.124225">
        <ele>1135.9</ele>
        <time>2017-03-25T12:39:05Z</time>
      </trkpt>
      <trkpt lat="38.194003" lon="-2.124388">
        <ele>1137.4</ele>
        <time>2017-03-25T12:39:18Z</time>
      </trkpt>
      <trkpt lat="38.194059" lon="-2.124453">
        <ele>1137.9</ele>
        <time>2017-03-25T12:39:24Z</time>
      </trkpt>
      <trkpt lat="38.194068" lon="-2.124460">
        <ele>1137.9</ele>
        <time>2017-03-25T12:39:25Z</time>
      </trkpt>
      <trkpt lat="38.194076" lon="-2.124469">
        <ele>1137.9</ele>
        <time>2017-03-25T12:39:26Z</time>
      </trkpt>
      <trkpt lat="38.194173" lon="-2.124562">
        <ele>1138.8</ele>
        <time>2017-03-25T12:39:39Z</time>
      </trkpt>
      <trkpt lat="38.194219" lon="-2.124735">
        <ele>1138.8</ele>
        <time>2017-03-25T12:39:53Z</time>
      </trkpt>
      <trkpt lat="38.194220" lon="-2.124751">
        <ele>1138.8</ele>
        <time>2017-03-25T12:39:54Z</time>
      </trkpt>
      <trkpt lat="38.194227" lon="-2.124793">
        <ele>1139.3</ele>
        <time>2017-03-25T12:39:58Z</time>
      </trkpt>
      <trkpt lat="38.194225" lon="-2.124809">
        <ele>1138.8</ele>
        <time>2017-03-25T12:39:59Z</time>
      </trkpt>
      <trkpt lat="38.194226" lon="-2.124825">
        <ele>1139.8</ele>
        <time>2017-03-25T12:40:00Z</time>
      </trkpt>
      <trkpt lat="38.194269" lon="-2.125051">
        <ele>1141.2</ele>
        <time>2017-03-25T12:40:17Z</time>
      </trkpt>
      <trkpt lat="38.194272" lon="-2.125096">
        <ele>1141.7</ele>
        <time>2017-03-25T12:40:20Z</time>
      </trkpt>
      <trkpt lat="38.194266" lon="-2.125112">
        <ele>1142.2</ele>
        <time>2017-03-25T12:40:21Z</time>
      </trkpt>
      <trkpt lat="38.194265" lon="-2.125130">
        <ele>1141.7</ele>
        <time>2017-03-25T12:40:22Z</time>
      </trkpt>
      <trkpt lat="38.194267" lon="-2.125147">
        <ele>1142.2</ele>
        <time>2017-03-25T12:40:23Z</time>
      </trkpt>
      <trkpt lat="38.194267" lon="-2.125163">
        <ele>1142.2</ele>
        <time>2017-03-25T12:40:24Z</time>
      </trkpt>
      <trkpt lat="38.194268" lon="-2.125181">
        <ele>1142.2</ele>
        <time>2017-03-25T12:40:25Z</time>
      </trkpt>
      <trkpt lat="38.194283" lon="-2.125325">
        <ele>1144.6</ele>
        <time>2017-03-25T12:40:35Z</time>
      </trkpt>
      <trkpt lat="38.194281" lon="-2.125341">
        <ele>1144.1</ele>
        <time>2017-03-25T12:40:36Z</time>
      </trkpt>
      <trkpt lat="38.194283" lon="-2.125357">
        <ele>1144.6</ele>
        <time>2017-03-25T12:40:37Z</time>
      </trkpt>
      <trkpt lat="38.194318" lon="-2.125518">
        <ele>1146.0</ele>
        <time>2017-03-25T12:40:47Z</time>
      </trkpt>
      <trkpt lat="38.194344" lon="-2.125620">
        <ele>1147.9</ele>
        <time>2017-03-25T12:40:56Z</time>
      </trkpt>
      <trkpt lat="38.194356" lon="-2.125658">
        <ele>1148.4</ele>
        <time>2017-03-25T12:40:59Z</time>
      </trkpt>
      <trkpt lat="38.194359" lon="-2.125675">
        <ele>1148.9</ele>
        <time>2017-03-25T12:41:00Z</time>
      </trkpt>
      <trkpt lat="38.194361" lon="-2.125692">
        <ele>1149.4</ele>
        <time>2017-03-25T12:41:01Z</time>
      </trkpt>
      <trkpt lat="38.194367" lon="-2.125716">
        <ele>1149.4</ele>
        <time>2017-03-25T12:41:03Z</time>
      </trkpt>
      <trkpt lat="38.194398" lon="-2.125827">
        <ele>1150.3</ele>
        <time>2017-03-25T12:41:14Z</time>
      </trkpt>
      <trkpt lat="38.194449" lon="-2.125966">
        <ele>1149.4</ele>
        <time>2017-03-25T12:41:26Z</time>
      </trkpt>
      <trkpt lat="38.194524" lon="-2.126183">
        <ele>1147.0</ele>
        <time>2017-03-25T12:41:40Z</time>
      </trkpt>
      <trkpt lat="38.194559" lon="-2.126276">
        <ele>1147.0</ele>
        <time>2017-03-25T12:41:47Z</time>
      </trkpt>
      <trkpt lat="38.194565" lon="-2.126289">
        <ele>1146.5</ele>
        <time>2017-03-25T12:41:48Z</time>
      </trkpt>
      <trkpt lat="38.194567" lon="-2.126301">
        <ele>1146.5</ele>
        <time>2017-03-25T12:41:49Z</time>
      </trkpt>
      <trkpt lat="38.194568" lon="-2.126315">
        <ele>1147.0</ele>
        <time>2017-03-25T12:41:50Z</time>
      </trkpt>
      <trkpt lat="38.194572" lon="-2.126330">
        <ele>1147.0</ele>
        <time>2017-03-25T12:41:51Z</time>
      </trkpt>
      <trkpt lat="38.194577" lon="-2.126345">
        <ele>1147.0</ele>
        <time>2017-03-25T12:41:52Z</time>
      </trkpt>
      <trkpt lat="38.194581" lon="-2.126361">
        <ele>1146.5</ele>
        <time>2017-03-25T12:41:53Z</time>
      </trkpt>
      <trkpt lat="38.194672" lon="-2.126590">
        <ele>1145.1</ele>
        <time>2017-03-25T12:42:10Z</time>
      </trkpt>
      <trkpt lat="38.194730" lon="-2.126791">
        <ele>1144.6</ele>
        <time>2017-03-25T12:42:24Z</time>
      </trkpt>
      <trkpt lat="38.194738" lon="-2.126928">
        <ele>1144.6</ele>
        <time>2017-03-25T12:42:40Z</time>
      </trkpt>
      <trkpt lat="38.194770" lon="-2.127164">
        <ele>1143.1</ele>
        <time>2017-03-25T12:42:55Z</time>
      </trkpt>
      <trkpt lat="38.194843" lon="-2.127389">
        <ele>1143.6</ele>
        <time>2017-03-25T12:43:10Z</time>
      </trkpt>
      <trkpt lat="38.194975" lon="-2.127546">
        <ele>1143.6</ele>
        <time>2017-03-25T12:43:25Z</time>
      </trkpt>
      <trkpt lat="38.195164" lon="-2.127733">
        <ele>1143.1</ele>
        <time>2017-03-25T12:43:43Z</time>
      </trkpt>
      <trkpt lat="38.195257" lon="-2.127798">
        <ele>1142.7</ele>
        <time>2017-03-25T12:43:51Z</time>
      </trkpt>
      <trkpt lat="38.195263" lon="-2.127812">
        <ele>1142.2</ele>
        <time>2017-03-25T12:43:52Z</time>
      </trkpt>
      <trkpt lat="38.195309" lon="-2.127883">
        <ele>1143.1</ele>
        <time>2017-03-25T12:43:58Z</time>
      </trkpt>
      <trkpt lat="38.195312" lon="-2.127901">
        <ele>1142.7</ele>
        <time>2017-03-25T12:43:59Z</time>
      </trkpt>
      <trkpt lat="38.195315" lon="-2.127917">
        <ele>1142.7</ele>
        <time>2017-03-25T12:44:00Z</time>
      </trkpt>
      <trkpt lat="38.195324" lon="-2.127932">
        <ele>1142.7</ele>
        <time>2017-03-25T12:44:01Z</time>
      </trkpt>
      <trkpt lat="38.195328" lon="-2.127949">
        <ele>1142.7</ele>
        <time>2017-03-25T12:44:02Z</time>
      </trkpt>
      <trkpt lat="38.195333" lon="-2.127966">
        <ele>1142.2</ele>
        <time>2017-03-25T12:44:03Z</time>
      </trkpt>
      <trkpt lat="38.195342" lon="-2.127981">
        <ele>1142.7</ele>
        <time>2017-03-25T12:44:04Z</time>
      </trkpt>
      <trkpt lat="38.195354" lon="-2.127994">
        <ele>1142.7</ele>
        <time>2017-03-25T12:44:05Z</time>
      </trkpt>
      <trkpt lat="38.195425" lon="-2.128142">
        <ele>1141.7</ele>
        <time>2017-03-25T12:44:17Z</time>
      </trkpt>
      <trkpt lat="38.195439" lon="-2.128162">
        <ele>1141.7</ele>
        <time>2017-03-25T12:44:19Z</time>
      </trkpt>
      <trkpt lat="38.195523" lon="-2.128352">
        <ele>1143.1</ele>
        <time>2017-03-25T12:44:35Z</time>
      </trkpt>
      <trkpt lat="38.195601" lon="-2.128531">
        <ele>1142.7</ele>
        <time>2017-03-25T12:44:48Z</time>
      </trkpt>
      <trkpt lat="38.195643" lon="-2.128655">
        <ele>1144.6</ele>
        <time>2017-03-25T12:44:56Z</time>
      </trkpt>
      <trkpt lat="38.195652" lon="-2.128668">
        <ele>1144.6</ele>
        <time>2017-03-25T12:44:57Z</time>
      </trkpt>
      <trkpt lat="38.195694" lon="-2.128788">
        <ele>1144.1</ele>
        <time>2017-03-25T12:45:05Z</time>
      </trkpt>
      <trkpt lat="38.195703" lon="-2.128798">
        <ele>1146.0</ele>
        <time>2017-03-25T12:45:06Z</time>
      </trkpt>
      <trkpt lat="38.195709" lon="-2.128812">
        <ele>1145.1</ele>
        <time>2017-03-25T12:45:07Z</time>
      </trkpt>
      <trkpt lat="38.195826" lon="-2.129029">
        <ele>1145.6</ele>
        <time>2017-03-25T12:45:23Z</time>
      </trkpt>
      <trkpt lat="38.195833" lon="-2.129102">
        <ele>1145.6</ele>
        <time>2017-03-25T12:45:27Z</time>
      </trkpt>
      <trkpt lat="38.195834" lon="-2.129121">
        <ele>1145.6</ele>
        <time>2017-03-25T12:45:28Z</time>
      </trkpt>
      <trkpt lat="38.195826" lon="-2.129376">
        <ele>1145.6</ele>
        <time>2017-03-25T12:45:43Z</time>
      </trkpt>
      <trkpt lat="38.195779" lon="-2.129673">
        <ele>1146.5</ele>
        <time>2017-03-25T12:46:00Z</time>
      </trkpt>
      <trkpt lat="38.195728" lon="-2.129840">
        <ele>1147.9</ele>
        <time>2017-03-25T12:46:13Z</time>
      </trkpt>
      <trkpt lat="38.195599" lon="-2.130106">
        <ele>1147.9</ele>
        <time>2017-03-25T12:46:30Z</time>
      </trkpt>
      <trkpt lat="38.195456" lon="-2.130333">
        <ele>1148.9</ele>
        <time>2017-03-25T12:46:46Z</time>
      </trkpt>
      <trkpt lat="38.195407" lon="-2.130427">
        <ele>1149.4</ele>
        <time>2017-03-25T12:46:52Z</time>
      </trkpt>
      <trkpt lat="38.195396" lon="-2.130439">
        <ele>1148.9</ele>
        <time>2017-03-25T12:46:53Z</time>
      </trkpt>
      <trkpt lat="38.195266" lon="-2.130662">
        <ele>1150.8</ele>
        <time>2017-03-25T12:47:09Z</time>
      </trkpt>
      <trkpt lat="38.195231" lon="-2.130775">
        <ele>1150.8</ele>
        <time>2017-03-25T12:47:16Z</time>
      </trkpt>
      <trkpt lat="38.195246" lon="-2.131061">
        <ele>1152.3</ele>
        <time>2017-03-25T12:47:34Z</time>
      </trkpt>
      <trkpt lat="38.195301" lon="-2.131399">
        <ele>1151.8</ele>
        <time>2017-03-25T12:47:53Z</time>
      </trkpt>
      <trkpt lat="38.195443" lon="-2.131652">
        <ele>1152.3</ele>
        <time>2017-03-25T12:48:09Z</time>
      </trkpt>
      <trkpt lat="38.195533" lon="-2.131793">
        <ele>1151.8</ele>
        <time>2017-03-25T12:48:23Z</time>
      </trkpt>
      <trkpt lat="38.195594" lon="-2.131902">
        <ele>1152.8</ele>
        <time>2017-03-25T12:48:34Z</time>
      </trkpt>
      <trkpt lat="38.195601" lon="-2.131912">
        <ele>1152.8</ele>
        <time>2017-03-25T12:48:35Z</time>
      </trkpt>
      <trkpt lat="38.195611" lon="-2.131924">
        <ele>1152.3</ele>
        <time>2017-03-25T12:48:36Z</time>
      </trkpt>
      <trkpt lat="38.195804" lon="-2.132130">
        <ele>1152.3</ele>
        <time>2017-03-25T12:48:54Z</time>
      </trkpt>
      <trkpt lat="38.195926" lon="-2.132284">
        <ele>1152.3</ele>
        <time>2017-03-25T12:49:09Z</time>
      </trkpt>
      <trkpt lat="38.195942" lon="-2.132307">
        <ele>1152.3</ele>
        <time>2017-03-25T12:49:11Z</time>
      </trkpt>
      <trkpt lat="38.195956" lon="-2.132316">
        <ele>1151.8</ele>
        <time>2017-03-25T12:49:12Z</time>
      </trkpt>
      <trkpt lat="38.195967" lon="-2.132323">
        <ele>1152.3</ele>
        <time>2017-03-25T12:49:13Z</time>
      </trkpt>
      <trkpt lat="38.195977" lon="-2.132332">
        <ele>1151.8</ele>
        <time>2017-03-25T12:49:14Z</time>
      </trkpt>
      <trkpt lat="38.195985" lon="-2.132337">
        <ele>1151.8</ele>
        <time>2017-03-25T12:49:15Z</time>
      </trkpt>
      <trkpt lat="38.195996" lon="-2.132338">
        <ele>1152.3</ele>
        <time>2017-03-25T12:49:16Z</time>
      </trkpt>
      <trkpt lat="38.196009" lon="-2.132338">
        <ele>1152.3</ele>
        <time>2017-03-25T12:49:17Z</time>
      </trkpt>
      <trkpt lat="38.196144" lon="-2.132438">
        <ele>1152.3</ele>
        <time>2017-03-25T12:49:31Z</time>
      </trkpt>
      <trkpt lat="38.196270" lon="-2.132492">
        <ele>1152.3</ele>
        <time>2017-03-25T12:49:44Z</time>
      </trkpt>
      <trkpt lat="38.196381" lon="-2.132511">
        <ele>1151.8</ele>
        <time>2017-03-25T12:49:53Z</time>
      </trkpt>
      <trkpt lat="38.196399" lon="-2.132512">
        <ele>1152.3</ele>
        <time>2017-03-25T12:49:55Z</time>
      </trkpt>
      <trkpt lat="38.196411" lon="-2.132519">
        <ele>1152.3</ele>
        <time>2017-03-25T12:49:56Z</time>
      </trkpt>
      <trkpt lat="38.196422" lon="-2.132524">
        <ele>1152.8</ele>
        <time>2017-03-25T12:49:57Z</time>
      </trkpt>
      <trkpt lat="38.196478" lon="-2.132539">
        <ele>1152.8</ele>
        <time>2017-03-25T12:50:07Z</time>
      </trkpt>
      <trkpt lat="38.196488" lon="-2.132547">
        <ele>1152.8</ele>
        <time>2017-03-25T12:50:08Z</time>
      </trkpt>
      <trkpt lat="38.196498" lon="-2.132559">
        <ele>1152.8</ele>
        <time>2017-03-25T12:50:09Z</time>
      </trkpt>
      <trkpt lat="38.196521" lon="-2.132605">
        <ele>1152.3</ele>
        <time>2017-03-25T12:50:14Z</time>
      </trkpt>
      <trkpt lat="38.196532" lon="-2.132618">
        <ele>1152.8</ele>
        <time>2017-03-25T12:50:15Z</time>
      </trkpt>
      <trkpt lat="38.196542" lon="-2.132629">
        <ele>1152.8</ele>
        <time>2017-03-25T12:50:16Z</time>
      </trkpt>
      <trkpt lat="38.196722" lon="-2.132800">
        <ele>1155.2</ele>
        <time>2017-03-25T12:50:32Z</time>
      </trkpt>
      <trkpt lat="38.196851" lon="-2.132924">
        <ele>1156.1</ele>
        <time>2017-03-25T12:50:45Z</time>
      </trkpt>
      <trkpt lat="38.196995" lon="-2.133073">
        <ele>1157.6</ele>
        <time>2017-03-25T12:51:01Z</time>
      </trkpt>
      <trkpt lat="38.197033" lon="-2.133206">
        <ele>1158.1</ele>
        <time>2017-03-25T12:51:14Z</time>
      </trkpt>
      <trkpt lat="38.197080" lon="-2.133224">
        <ele>1158.5</ele>
        <time>2017-03-25T12:51:24Z</time>
      </trkpt>
      <trkpt lat="38.197096" lon="-2.133240">
        <ele>1158.5</ele>
        <time>2017-03-25T12:51:30Z</time>
      </trkpt>
      <trkpt lat="38.197103" lon="-2.133254">
        <ele>1158.5</ele>
        <time>2017-03-25T12:51:31Z</time>
      </trkpt>
      <trkpt lat="38.197305" lon="-2.133526">
        <ele>1158.5</ele>
        <time>2017-03-25T12:51:52Z</time>
      </trkpt>
      <trkpt lat="38.197408" lon="-2.133638">
        <ele>1158.5</ele>
        <time>2017-03-25T12:52:01Z</time>
      </trkpt>
      <trkpt lat="38.197425" lon="-2.133642">
        <ele>1159.0</ele>
        <time>2017-03-25T12:52:02Z</time>
      </trkpt>
      <trkpt lat="38.197438" lon="-2.133646">
        <ele>1159.0</ele>
        <time>2017-03-25T12:52:03Z</time>
      </trkpt>
      <trkpt lat="38.197457" lon="-2.133690">
        <ele>1159.5</ele>
        <time>2017-03-25T12:52:15Z</time>
      </trkpt>
      <trkpt lat="38.197459" lon="-2.133692">
        <ele>1159.0</ele>
        <time>2017-03-25T12:52:18Z</time>
      </trkpt>
      <trkpt lat="38.197469" lon="-2.133699">
        <ele>1159.5</ele>
        <time>2017-03-25T12:52:19Z</time>
      </trkpt>
      <trkpt lat="38.197549" lon="-2.133789">
        <ele>1159.5</ele>
        <time>2017-03-25T12:52:33Z</time>
      </trkpt>
      <trkpt lat="38.197608" lon="-2.134034">
        <ele>1159.0</ele>
        <time>2017-03-25T12:52:47Z</time>
      </trkpt>
      <trkpt lat="38.197623" lon="-2.134098">
        <ele>1159.5</ele>
        <time>2017-03-25T12:52:55Z</time>
      </trkpt>
      <trkpt lat="38.197621" lon="-2.134114">
        <ele>1158.5</ele>
        <time>2017-03-25T12:52:56Z</time>
      </trkpt>
      <trkpt lat="38.197632" lon="-2.134374">
        <ele>1158.1</ele>
        <time>2017-03-25T12:53:11Z</time>
      </trkpt>
      <trkpt lat="38.197647" lon="-2.134551">
        <ele>1157.6</ele>
        <time>2017-03-25T12:53:25Z</time>
      </trkpt>
      <trkpt lat="38.197702" lon="-2.134881">
        <ele>1157.1</ele>
        <time>2017-03-25T12:53:43Z</time>
      </trkpt>
      <trkpt lat="38.197748" lon="-2.135144">
        <ele>1156.6</ele>
        <time>2017-03-25T12:53:58Z</time>
      </trkpt>
      <trkpt lat="38.197796" lon="-2.135400">
        <ele>1157.1</ele>
        <time>2017-03-25T12:54:13Z</time>
      </trkpt>
      <trkpt lat="38.197832" lon="-2.135679">
        <ele>1156.1</ele>
        <time>2017-03-25T12:54:29Z</time>
      </trkpt>
      <trkpt lat="38.197870" lon="-2.135801">
        <ele>1155.2</ele>
        <time>2017-03-25T12:54:39Z</time>
      </trkpt>
      <trkpt lat="38.197871" lon="-2.135816">
        <ele>1155.2</ele>
        <time>2017-03-25T12:54:40Z</time>
      </trkpt>
      <trkpt lat="38.197876" lon="-2.135833">
        <ele>1154.7</ele>
        <time>2017-03-25T12:54:41Z</time>
      </trkpt>
      <trkpt lat="38.197878" lon="-2.135852">
        <ele>1154.7</ele>
        <time>2017-03-25T12:54:42Z</time>
      </trkpt>
      <trkpt lat="38.197879" lon="-2.135871">
        <ele>1153.7</ele>
        <time>2017-03-25T12:54:43Z</time>
      </trkpt>
      <trkpt lat="38.197882" lon="-2.135891">
        <ele>1154.2</ele>
        <time>2017-03-25T12:54:44Z</time>
      </trkpt>
      <trkpt lat="38.197887" lon="-2.135913">
        <ele>1154.2</ele>
        <time>2017-03-25T12:54:45Z</time>
      </trkpt>
      <trkpt lat="38.197908" lon="-2.136114">
        <ele>1153.7</ele>
        <time>2017-03-25T12:54:56Z</time>
      </trkpt>
      <trkpt lat="38.197910" lon="-2.136133">
        <ele>1153.2</ele>
        <time>2017-03-25T12:54:57Z</time>
      </trkpt>
      <trkpt lat="38.197912" lon="-2.136153">
        <ele>1153.2</ele>
        <time>2017-03-25T12:54:58Z</time>
      </trkpt>
      <trkpt lat="38.197917" lon="-2.136172">
        <ele>1153.7</ele>
        <time>2017-03-25T12:54:59Z</time>
      </trkpt>
      <trkpt lat="38.197924" lon="-2.136189">
        <ele>1153.7</ele>
        <time>2017-03-25T12:55:00Z</time>
      </trkpt>
      <trkpt lat="38.197929" lon="-2.136204">
        <ele>1153.2</ele>
        <time>2017-03-25T12:55:01Z</time>
      </trkpt>
      <trkpt lat="38.197934" lon="-2.136221">
        <ele>1153.2</ele>
        <time>2017-03-25T12:55:02Z</time>
      </trkpt>
      <trkpt lat="38.197939" lon="-2.136234">
        <ele>1152.8</ele>
        <time>2017-03-25T12:55:03Z</time>
      </trkpt>
      <trkpt lat="38.197946" lon="-2.136248">
        <ele>1152.8</ele>
        <time>2017-03-25T12:55:04Z</time>
      </trkpt>
      <trkpt lat="38.197953" lon="-2.136263">
        <ele>1153.2</ele>
        <time>2017-03-25T12:55:05Z</time>
      </trkpt>
      <trkpt lat="38.197961" lon="-2.136280">
        <ele>1152.8</ele>
        <time>2017-03-25T12:55:06Z</time>
      </trkpt>
      <trkpt lat="38.198118" lon="-2.136566">
        <ele>1151.8</ele>
        <time>2017-03-25T12:55:24Z</time>
      </trkpt>
      <trkpt lat="38.198206" lon="-2.136788">
        <ele>1151.3</ele>
        <time>2017-03-25T12:55:39Z</time>
      </trkpt>
      <trkpt lat="38.198208" lon="-2.136806">
        <ele>1151.8</ele>
        <time>2017-03-25T12:55:40Z</time>
      </trkpt>
      <trkpt lat="38.198212" lon="-2.136822">
        <ele>1151.3</ele>
        <time>2017-03-25T12:55:41Z</time>
      </trkpt>
      <trkpt lat="38.198218" lon="-2.136837">
        <ele>1151.3</ele>
        <time>2017-03-25T12:55:42Z</time>
      </trkpt>
      <trkpt lat="38.198224" lon="-2.136850">
        <ele>1151.8</ele>
        <time>2017-03-25T12:55:43Z</time>
      </trkpt>
      <trkpt lat="38.198270" lon="-2.136982">
        <ele>1151.8</ele>
        <time>2017-03-25T12:55:53Z</time>
      </trkpt>
      <trkpt lat="38.198270" lon="-2.136994">
        <ele>1151.3</ele>
        <time>2017-03-25T12:55:54Z</time>
      </trkpt>
      <trkpt lat="38.198272" lon="-2.137006">
        <ele>1151.8</ele>
        <time>2017-03-25T12:55:55Z</time>
      </trkpt>
      <trkpt lat="38.198276" lon="-2.137019">
        <ele>1151.8</ele>
        <time>2017-03-25T12:55:56Z</time>
      </trkpt>
      <trkpt lat="38.198278" lon="-2.137061">
        <ele>1151.3</ele>
        <time>2017-03-25T12:55:59Z</time>
      </trkpt>
      <trkpt lat="38.198283" lon="-2.137077">
        <ele>1151.8</ele>
        <time>2017-03-25T12:56:00Z</time>
      </trkpt>
      <trkpt lat="38.198288" lon="-2.137094">
        <ele>1151.8</ele>
        <time>2017-03-25T12:56:01Z</time>
      </trkpt>
      <trkpt lat="38.198405" lon="-2.137290">
        <ele>1151.8</ele>
        <time>2017-03-25T12:56:16Z</time>
      </trkpt>
      <trkpt lat="38.198543" lon="-2.137504">
        <ele>1152.3</ele>
        <time>2017-03-25T12:56:31Z</time>
      </trkpt>
      <trkpt lat="38.198555" lon="-2.137511">
        <ele>1152.8</ele>
        <time>2017-03-25T12:56:32Z</time>
      </trkpt>
      <trkpt lat="38.198565" lon="-2.137521">
        <ele>1152.8</ele>
        <time>2017-03-25T12:56:33Z</time>
      </trkpt>
      <trkpt lat="38.198577" lon="-2.137534">
        <ele>1152.8</ele>
        <time>2017-03-25T12:56:34Z</time>
      </trkpt>
      <trkpt lat="38.198590" lon="-2.137550">
        <ele>1152.8</ele>
        <time>2017-03-25T12:56:35Z</time>
      </trkpt>
      <trkpt lat="38.198604" lon="-2.137563">
        <ele>1152.8</ele>
        <time>2017-03-25T12:56:36Z</time>
      </trkpt>
      <trkpt lat="38.198615" lon="-2.137574">
        <ele>1152.8</ele>
        <time>2017-03-25T12:56:37Z</time>
      </trkpt>
      <trkpt lat="38.198625" lon="-2.137585">
        <ele>1152.3</ele>
        <time>2017-03-25T12:56:38Z</time>
      </trkpt>
      <trkpt lat="38.198685" lon="-2.137661">
        <ele>1152.8</ele>
        <time>2017-03-25T12:56:45Z</time>
      </trkpt>
      <trkpt lat="38.198688" lon="-2.137672">
        <ele>1153.2</ele>
        <time>2017-03-25T12:56:46Z</time>
      </trkpt>
      <trkpt lat="38.198694" lon="-2.137683">
        <ele>1153.2</ele>
        <time>2017-03-25T12:56:47Z</time>
      </trkpt>
      <trkpt lat="38.198702" lon="-2.137694">
        <ele>1153.2</ele>
        <time>2017-03-25T12:56:48Z</time>
      </trkpt>
      <trkpt lat="38.198712" lon="-2.137708">
        <ele>1153.2</ele>
        <time>2017-03-25T12:56:49Z</time>
      </trkpt>
      <trkpt lat="38.198719" lon="-2.137723">
        <ele>1153.2</ele>
        <time>2017-03-25T12:56:50Z</time>
      </trkpt>
      <trkpt lat="38.198786" lon="-2.137896">
        <ele>1153.2</ele>
        <time>2017-03-25T12:57:03Z</time>
      </trkpt>
      <trkpt lat="38.198803" lon="-2.137943">
        <ele>1153.2</ele>
        <time>2017-03-25T12:57:06Z</time>
      </trkpt>
      <trkpt lat="38.198812" lon="-2.137953">
        <ele>1154.2</ele>
        <time>2017-03-25T12:57:07Z</time>
      </trkpt>
      <trkpt lat="38.198821" lon="-2.137963">
        <ele>1153.7</ele>
        <time>2017-03-25T12:57:08Z</time>
      </trkpt>
      <trkpt lat="38.198881" lon="-2.138112">
        <ele>1153.2</ele>
        <time>2017-03-25T12:57:19Z</time>
      </trkpt>
      <trkpt lat="38.198894" lon="-2.138122">
        <ele>1153.2</ele>
        <time>2017-03-25T12:57:20Z</time>
      </trkpt>
      <trkpt lat="38.198905" lon="-2.138133">
        <ele>1153.2</ele>
        <time>2017-03-25T12:57:21Z</time>
      </trkpt>
      <trkpt lat="38.198918" lon="-2.138144">
        <ele>1153.7</ele>
        <time>2017-03-25T12:57:22Z</time>
      </trkpt>
      <trkpt lat="38.198931" lon="-2.138156">
        <ele>1153.2</ele>
        <time>2017-03-25T12:57:23Z</time>
      </trkpt>
      <trkpt lat="38.198939" lon="-2.138168">
        <ele>1153.2</ele>
        <time>2017-03-25T12:57:24Z</time>
      </trkpt>
      <trkpt lat="38.198948" lon="-2.138177">
        <ele>1154.2</ele>
        <time>2017-03-25T12:57:25Z</time>
      </trkpt>
      <trkpt lat="38.199069" lon="-2.138305">
        <ele>1154.7</ele>
        <time>2017-03-25T12:57:38Z</time>
      </trkpt>
      <trkpt lat="38.199197" lon="-2.138461">
        <ele>1155.2</ele>
        <time>2017-03-25T12:57:51Z</time>
      </trkpt>
      <trkpt lat="38.199202" lon="-2.138474">
        <ele>1155.2</ele>
        <time>2017-03-25T12:57:52Z</time>
      </trkpt>
      <trkpt lat="38.199208" lon="-2.138487">
        <ele>1155.6</ele>
        <time>2017-03-25T12:57:53Z</time>
      </trkpt>
      <trkpt lat="38.199269" lon="-2.138688">
        <ele>1156.1</ele>
        <time>2017-03-25T12:58:07Z</time>
      </trkpt>
      <trkpt lat="38.199316" lon="-2.138937">
        <ele>1157.1</ele>
        <time>2017-03-25T12:58:22Z</time>
      </trkpt>
      <trkpt lat="38.199367" lon="-2.139172">
        <ele>1157.6</ele>
        <time>2017-03-25T12:58:38Z</time>
      </trkpt>
      <trkpt lat="38.199375" lon="-2.139254">
        <ele>1157.6</ele>
        <time>2017-03-25T12:58:43Z</time>
      </trkpt>
      <trkpt lat="38.199396" lon="-2.139363">
        <ele>1157.6</ele>
        <time>2017-03-25T12:58:49Z</time>
      </trkpt>
      <trkpt lat="38.199396" lon="-2.139380">
        <ele>1157.6</ele>
        <time>2017-03-25T12:58:50Z</time>
      </trkpt>
      <trkpt lat="38.199430" lon="-2.139550">
        <ele>1158.5</ele>
        <time>2017-03-25T12:59:01Z</time>
      </trkpt>
      <trkpt lat="38.199448" lon="-2.139713">
        <ele>1158.1</ele>
        <time>2017-03-25T12:59:11Z</time>
      </trkpt>
      <trkpt lat="38.199444" lon="-2.139730">
        <ele>1158.5</ele>
        <time>2017-03-25T12:59:12Z</time>
      </trkpt>
      <trkpt lat="38.199443" lon="-2.139747">
        <ele>1158.5</ele>
        <time>2017-03-25T12:59:13Z</time>
      </trkpt>
      <trkpt lat="38.199444" lon="-2.139765">
        <ele>1159.0</ele>
        <time>2017-03-25T12:59:14Z</time>
      </trkpt>
      <trkpt lat="38.199446" lon="-2.139782">
        <ele>1159.5</ele>
        <time>2017-03-25T12:59:15Z</time>
      </trkpt>
      <trkpt lat="38.199416" lon="-2.140032">
        <ele>1160.0</ele>
        <time>2017-03-25T12:59:29Z</time>
      </trkpt>
      <trkpt lat="38.199426" lon="-2.140057">
        <ele>1159.5</ele>
        <time>2017-03-25T12:59:36Z</time>
      </trkpt>
      <trkpt lat="38.199433" lon="-2.140069">
        <ele>1160.0</ele>
        <time>2017-03-25T12:59:37Z</time>
      </trkpt>
      <trkpt lat="38.199431" lon="-2.140085">
        <ele>1160.0</ele>
        <time>2017-03-25T12:59:38Z</time>
      </trkpt>
      <trkpt lat="38.199428" lon="-2.140101">
        <ele>1160.0</ele>
        <time>2017-03-25T12:59:39Z</time>
      </trkpt>
      <trkpt lat="38.199430" lon="-2.140149">
        <ele>1160.0</ele>
        <time>2017-03-25T12:59:42Z</time>
      </trkpt>
      <trkpt lat="38.199424" lon="-2.140169">
        <ele>1160.4</ele>
        <time>2017-03-25T12:59:43Z</time>
      </trkpt>
      <trkpt lat="38.199421" lon="-2.140190">
        <ele>1160.4</ele>
        <time>2017-03-25T12:59:44Z</time>
      </trkpt>
      <trkpt lat="38.199418" lon="-2.140210">
        <ele>1160.0</ele>
        <time>2017-03-25T12:59:45Z</time>
      </trkpt>
      <trkpt lat="38.199413" lon="-2.140229">
        <ele>1160.9</ele>
        <time>2017-03-25T12:59:46Z</time>
      </trkpt>
      <trkpt lat="38.199409" lon="-2.140246">
        <ele>1160.9</ele>
        <time>2017-03-25T12:59:47Z</time>
      </trkpt>
      <trkpt lat="38.199407" lon="-2.140262">
        <ele>1160.9</ele>
        <time>2017-03-25T12:59:48Z</time>
      </trkpt>
      <trkpt lat="38.199398" lon="-2.140313">
        <ele>1160.9</ele>
        <time>2017-03-25T12:59:52Z</time>
      </trkpt>
      <trkpt lat="38.199391" lon="-2.140326">
        <ele>1160.9</ele>
        <time>2017-03-25T12:59:53Z</time>
      </trkpt>
      <trkpt lat="38.199387" lon="-2.140344">
        <ele>1161.4</ele>
        <time>2017-03-25T12:59:54Z</time>
      </trkpt>
      <trkpt lat="38.199379" lon="-2.140436">
        <ele>1161.9</ele>
        <time>2017-03-25T12:59:59Z</time>
      </trkpt>
      <trkpt lat="38.199377" lon="-2.140449">
        <ele>1161.9</ele>
        <time>2017-03-25T13:00:00Z</time>
      </trkpt>
      <trkpt lat="38.199374" lon="-2.140465">
        <ele>1161.4</ele>
        <time>2017-03-25T13:00:01Z</time>
      </trkpt>
      <trkpt lat="38.199370" lon="-2.140483">
        <ele>1161.4</ele>
        <time>2017-03-25T13:00:02Z</time>
      </trkpt>
      <trkpt lat="38.199370" lon="-2.140502">
        <ele>1161.4</ele>
        <time>2017-03-25T13:00:03Z</time>
      </trkpt>
      <trkpt lat="38.199368" lon="-2.140520">
        <ele>1161.9</ele>
        <time>2017-03-25T13:00:04Z</time>
      </trkpt>
      <trkpt lat="38.199337" lon="-2.140685">
        <ele>1161.9</ele>
        <time>2017-03-25T13:00:17Z</time>
      </trkpt>
      <trkpt lat="38.199313" lon="-2.140838">
        <ele>1162.8</ele>
        <time>2017-03-25T13:00:28Z</time>
      </trkpt>
      <trkpt lat="38.199289" lon="-2.141050">
        <ele>1163.3</ele>
        <time>2017-03-25T13:00:41Z</time>
      </trkpt>
      <trkpt lat="38.199283" lon="-2.141115">
        <ele>1163.3</ele>
        <time>2017-03-25T13:00:46Z</time>
      </trkpt>
      <trkpt lat="38.199279" lon="-2.141146">
        <ele>1163.8</ele>
        <time>2017-03-25T13:00:48Z</time>
      </trkpt>
      <trkpt lat="38.199274" lon="-2.141162">
        <ele>1164.3</ele>
        <time>2017-03-25T13:00:49Z</time>
      </trkpt>
      <trkpt lat="38.199272" lon="-2.141178">
        <ele>1164.3</ele>
        <time>2017-03-25T13:00:50Z</time>
      </trkpt>
      <trkpt lat="38.199259" lon="-2.141401">
        <ele>1165.3</ele>
        <time>2017-03-25T13:01:04Z</time>
      </trkpt>
      <trkpt lat="38.199262" lon="-2.141435">
        <ele>1165.3</ele>
        <time>2017-03-25T13:01:06Z</time>
      </trkpt>
      <trkpt lat="38.199266" lon="-2.141450">
        <ele>1165.3</ele>
        <time>2017-03-25T13:01:07Z</time>
      </trkpt>
      <trkpt lat="38.199266" lon="-2.141464">
        <ele>1165.3</ele>
        <time>2017-03-25T13:01:08Z</time>
      </trkpt>
      <trkpt lat="38.199287" lon="-2.141772">
        <ele>1166.2</ele>
        <time>2017-03-25T13:01:28Z</time>
      </trkpt>
      <trkpt lat="38.199298" lon="-2.142102">
        <ele>1167.2</ele>
        <time>2017-03-25T13:01:48Z</time>
      </trkpt>
      <trkpt lat="38.199263" lon="-2.142376">
        <ele>1167.7</ele>
        <time>2017-03-25T13:02:04Z</time>
      </trkpt>
      <trkpt lat="38.199246" lon="-2.142680">
        <ele>1167.7</ele>
        <time>2017-03-25T13:02:24Z</time>
      </trkpt>
      <trkpt lat="38.199256" lon="-2.142694">
        <ele>1167.2</ele>
        <time>2017-03-25T13:02:25Z</time>
      </trkpt>
      <trkpt lat="38.199264" lon="-2.142707">
        <ele>1166.7</ele>
        <time>2017-03-25T13:02:26Z</time>
      </trkpt>
      <trkpt lat="38.199271" lon="-2.142726">
        <ele>1167.2</ele>
        <time>2017-03-25T13:02:27Z</time>
      </trkpt>
      <trkpt lat="38.199274" lon="-2.142744">
        <ele>1166.7</ele>
        <time>2017-03-25T13:02:28Z</time>
      </trkpt>
      <trkpt lat="38.199307" lon="-2.143009">
        <ele>1166.7</ele>
        <time>2017-03-25T13:02:43Z</time>
      </trkpt>
      <trkpt lat="38.199313" lon="-2.143266">
        <ele>1166.2</ele>
        <time>2017-03-25T13:02:58Z</time>
      </trkpt>
      <trkpt lat="38.199301" lon="-2.143565">
        <ele>1163.8</ele>
        <time>2017-03-25T13:03:14Z</time>
      </trkpt>
      <trkpt lat="38.199276" lon="-2.143787">
        <ele>1163.3</ele>
        <time>2017-03-25T13:03:28Z</time>
      </trkpt>
      <trkpt lat="38.199234" lon="-2.144024">
        <ele>1164.3</ele>
        <time>2017-03-25T13:03:43Z</time>
      </trkpt>
      <trkpt lat="38.199204" lon="-2.144276">
        <ele>1165.7</ele>
        <time>2017-03-25T13:03:59Z</time>
      </trkpt>
      <trkpt lat="38.199179" lon="-2.144611">
        <ele>1167.2</ele>
        <time>2017-03-25T13:04:21Z</time>
      </trkpt>
      <trkpt lat="38.199123" lon="-2.144950">
        <ele>1168.1</ele>
        <time>2017-03-25T13:04:41Z</time>
      </trkpt>
      <trkpt lat="38.199088" lon="-2.145245">
        <ele>1168.6</ele>
        <time>2017-03-25T13:04:59Z</time>
      </trkpt>
      <trkpt lat="38.199069" lon="-2.145503">
        <ele>1169.1</ele>
        <time>2017-03-25T13:05:14Z</time>
      </trkpt>
      <trkpt lat="38.199049" lon="-2.145807">
        <ele>1169.1</ele>
        <time>2017-03-25T13:05:32Z</time>
      </trkpt>
      <trkpt lat="38.199033" lon="-2.146100">
        <ele>1170.1</ele>
        <time>2017-03-25T13:05:49Z</time>
      </trkpt>
      <trkpt lat="38.199061" lon="-2.146317">
        <ele>1169.1</ele>
        <time>2017-03-25T13:06:02Z</time>
      </trkpt>
      <trkpt lat="38.199149" lon="-2.146646">
        <ele>1170.5</ele>
        <time>2017-03-25T13:06:22Z</time>
      </trkpt>
      <trkpt lat="38.199158" lon="-2.146898">
        <ele>1171.5</ele>
        <time>2017-03-25T13:06:37Z</time>
      </trkpt>
      <trkpt lat="38.199146" lon="-2.146959">
        <ele>1171.0</ele>
        <time>2017-03-25T13:06:41Z</time>
      </trkpt>
      <trkpt lat="38.199149" lon="-2.146974">
        <ele>1171.0</ele>
        <time>2017-03-25T13:06:42Z</time>
      </trkpt>
      <trkpt lat="38.199141" lon="-2.147233">
        <ele>1170.5</ele>
        <time>2017-03-25T13:06:57Z</time>
      </trkpt>
      <trkpt lat="38.199123" lon="-2.147509">
        <ele>1170.5</ele>
        <time>2017-03-25T13:07:13Z</time>
      </trkpt>
      <trkpt lat="38.199145" lon="-2.147700">
        <ele>1170.1</ele>
        <time>2017-03-25T13:07:25Z</time>
      </trkpt>
      <trkpt lat="38.199147" lon="-2.147717">
        <ele>1170.1</ele>
        <time>2017-03-25T13:07:26Z</time>
      </trkpt>
      <trkpt lat="38.199149" lon="-2.147734">
        <ele>1169.6</ele>
        <time>2017-03-25T13:07:27Z</time>
      </trkpt>
      <trkpt lat="38.199153" lon="-2.147750">
        <ele>1170.5</ele>
        <time>2017-03-25T13:07:28Z</time>
      </trkpt>
      <trkpt lat="38.199157" lon="-2.147771">
        <ele>1170.1</ele>
        <time>2017-03-25T13:07:29Z</time>
      </trkpt>
      <trkpt lat="38.199162" lon="-2.147790">
        <ele>1170.1</ele>
        <time>2017-03-25T13:07:30Z</time>
      </trkpt>
      <trkpt lat="38.199171" lon="-2.147805">
        <ele>1170.1</ele>
        <time>2017-03-25T13:07:31Z</time>
      </trkpt>
      <trkpt lat="38.199177" lon="-2.147822">
        <ele>1170.1</ele>
        <time>2017-03-25T13:07:32Z</time>
      </trkpt>
      <trkpt lat="38.199180" lon="-2.147837">
        <ele>1170.1</ele>
        <time>2017-03-25T13:07:33Z</time>
      </trkpt>
      <trkpt lat="38.199181" lon="-2.147852">
        <ele>1169.6</ele>
        <time>2017-03-25T13:07:34Z</time>
      </trkpt>
      <trkpt lat="38.199185" lon="-2.147867">
        <ele>1170.1</ele>
        <time>2017-03-25T13:07:35Z</time>
      </trkpt>
      <trkpt lat="38.199187" lon="-2.147884">
        <ele>1170.1</ele>
        <time>2017-03-25T13:07:36Z</time>
      </trkpt>
      <trkpt lat="38.199189" lon="-2.147902">
        <ele>1170.5</ele>
        <time>2017-03-25T13:07:37Z</time>
      </trkpt>
      <trkpt lat="38.199199" lon="-2.147978">
        <ele>1170.1</ele>
        <time>2017-03-25T13:07:41Z</time>
      </trkpt>
      <trkpt lat="38.199199" lon="-2.147996">
        <ele>1170.1</ele>
        <time>2017-03-25T13:07:42Z</time>
      </trkpt>
      <trkpt lat="38.199200" lon="-2.148013">
        <ele>1170.1</ele>
        <time>2017-03-25T13:07:43Z</time>
      </trkpt>
      <trkpt lat="38.199218" lon="-2.148354">
        <ele>1170.5</ele>
        <time>2017-03-25T13:08:02Z</time>
      </trkpt>
      <trkpt lat="38.199204" lon="-2.148642">
        <ele>1171.0</ele>
        <time>2017-03-25T13:08:19Z</time>
      </trkpt>
      <trkpt lat="38.199180" lon="-2.148854">
        <ele>1171.5</ele>
        <time>2017-03-25T13:08:33Z</time>
      </trkpt>
      <trkpt lat="38.199176" lon="-2.148870">
        <ele>1171.5</ele>
        <time>2017-03-25T13:08:34Z</time>
      </trkpt>
      <trkpt lat="38.199174" lon="-2.148887">
        <ele>1171.5</ele>
        <time>2017-03-25T13:08:35Z</time>
      </trkpt>
      <trkpt lat="38.199171" lon="-2.148905">
        <ele>1172.0</ele>
        <time>2017-03-25T13:08:36Z</time>
      </trkpt>
      <trkpt lat="38.199167" lon="-2.148927">
        <ele>1171.5</ele>
        <time>2017-03-25T13:08:37Z</time>
      </trkpt>
      <trkpt lat="38.199162" lon="-2.148947">
        <ele>1171.5</ele>
        <time>2017-03-25T13:08:38Z</time>
      </trkpt>
      <trkpt lat="38.199155" lon="-2.148966">
        <ele>1171.0</ele>
        <time>2017-03-25T13:08:39Z</time>
      </trkpt>
      <trkpt lat="38.199152" lon="-2.148983">
        <ele>1171.5</ele>
        <time>2017-03-25T13:08:40Z</time>
      </trkpt>
      <trkpt lat="38.199148" lon="-2.149000">
        <ele>1172.0</ele>
        <time>2017-03-25T13:08:41Z</time>
      </trkpt>
      <trkpt lat="38.199088" lon="-2.149263">
        <ele>1172.5</ele>
        <time>2017-03-25T13:08:57Z</time>
      </trkpt>
      <trkpt lat="38.199020" lon="-2.149548">
        <ele>1172.5</ele>
        <time>2017-03-25T13:09:14Z</time>
      </trkpt>
      <trkpt lat="38.198917" lon="-2.149794">
        <ele>1173.4</ele>
        <time>2017-03-25T13:09:29Z</time>
      </trkpt>
      <trkpt lat="38.198912" lon="-2.149812">
        <ele>1172.9</ele>
        <time>2017-03-25T13:09:30Z</time>
      </trkpt>
      <trkpt lat="38.198905" lon="-2.149830">
        <ele>1173.4</ele>
        <time>2017-03-25T13:09:31Z</time>
      </trkpt>
      <trkpt lat="38.198829" lon="-2.150004">
        <ele>1173.9</ele>
        <time>2017-03-25T13:09:41Z</time>
      </trkpt>
      <trkpt lat="38.198790" lon="-2.150243">
        <ele>1173.9</ele>
        <time>2017-03-25T13:09:56Z</time>
      </trkpt>
      <trkpt lat="38.198794" lon="-2.150261">
        <ele>1173.9</ele>
        <time>2017-03-25T13:10:00Z</time>
      </trkpt>
      <trkpt lat="38.198792" lon="-2.150276">
        <ele>1173.9</ele>
        <time>2017-03-25T13:10:01Z</time>
      </trkpt>
      <trkpt lat="38.198790" lon="-2.150294">
        <ele>1173.4</ele>
        <time>2017-03-25T13:10:02Z</time>
      </trkpt>
      <trkpt lat="38.198794" lon="-2.150671">
        <ele>1172.9</ele>
        <time>2017-03-25T13:10:23Z</time>
      </trkpt>
      <trkpt lat="38.198802" lon="-2.150991">
        <ele>1173.9</ele>
        <time>2017-03-25T13:10:41Z</time>
      </trkpt>
      <trkpt lat="38.198842" lon="-2.151026">
        <ele>1173.4</ele>
        <time>2017-03-25T13:10:52Z</time>
      </trkpt>
      <trkpt lat="38.198854" lon="-2.151265">
        <ele>1173.4</ele>
        <time>2017-03-25T13:11:08Z</time>
      </trkpt>
      <trkpt lat="38.198871" lon="-2.151465">
        <ele>1172.5</ele>
        <time>2017-03-25T13:11:22Z</time>
      </trkpt>
      <trkpt lat="38.198918" lon="-2.151712">
        <ele>1172.5</ele>
        <time>2017-03-25T13:11:36Z</time>
      </trkpt>
      <trkpt lat="38.198931" lon="-2.151715">
        <ele>1173.4</ele>
        <time>2017-03-25T13:11:37Z</time>
      </trkpt>
      <trkpt lat="38.198945" lon="-2.151721">
        <ele>1172.5</ele>
        <time>2017-03-25T13:11:38Z</time>
      </trkpt>
      <trkpt lat="38.198955" lon="-2.151734">
        <ele>1172.9</ele>
        <time>2017-03-25T13:11:39Z</time>
      </trkpt>
      <trkpt lat="38.198963" lon="-2.151752">
        <ele>1172.9</ele>
        <time>2017-03-25T13:11:40Z</time>
      </trkpt>
      <trkpt lat="38.199111" lon="-2.151913">
        <ele>1173.9</ele>
        <time>2017-03-25T13:11:53Z</time>
      </trkpt>
      <trkpt lat="38.199149" lon="-2.151981">
        <ele>1173.9</ele>
        <time>2017-03-25T13:12:04Z</time>
      </trkpt>
      <trkpt lat="38.199153" lon="-2.151995">
        <ele>1174.4</ele>
        <time>2017-03-25T13:12:05Z</time>
      </trkpt>
      <trkpt lat="38.199257" lon="-2.152233">
        <ele>1175.3</ele>
        <time>2017-03-25T13:12:19Z</time>
      </trkpt>
      <trkpt lat="38.199277" lon="-2.152273">
        <ele>1175.8</ele>
        <time>2017-03-25T13:12:26Z</time>
      </trkpt>
      <trkpt lat="38.199279" lon="-2.152293">
        <ele>1175.8</ele>
        <time>2017-03-25T13:12:27Z</time>
      </trkpt>
      <trkpt lat="38.199284" lon="-2.152313">
        <ele>1175.3</ele>
        <time>2017-03-25T13:12:28Z</time>
      </trkpt>
      <trkpt lat="38.199315" lon="-2.152457">
        <ele>1175.8</ele>
        <time>2017-03-25T13:12:37Z</time>
      </trkpt>
      <trkpt lat="38.199323" lon="-2.152471">
        <ele>1175.8</ele>
        <time>2017-03-25T13:12:39Z</time>
      </trkpt>
      <trkpt lat="38.199329" lon="-2.152495">
        <ele>1176.3</ele>
        <time>2017-03-25T13:12:41Z</time>
      </trkpt>
      <trkpt lat="38.199333" lon="-2.152507">
        <ele>1176.3</ele>
        <time>2017-03-25T13:12:42Z</time>
      </trkpt>
      <trkpt lat="38.199339" lon="-2.152525">
        <ele>1176.3</ele>
        <time>2017-03-25T13:12:43Z</time>
      </trkpt>
      <trkpt lat="38.199342" lon="-2.152544">
        <ele>1176.8</ele>
        <time>2017-03-25T13:12:44Z</time>
      </trkpt>
      <trkpt lat="38.199344" lon="-2.152561">
        <ele>1176.8</ele>
        <time>2017-03-25T13:12:45Z</time>
      </trkpt>
      <trkpt lat="38.199397" lon="-2.152828">
        <ele>1178.7</ele>
        <time>2017-03-25T13:13:01Z</time>
      </trkpt>
      <trkpt lat="38.199429" lon="-2.152964">
        <ele>1179.7</ele>
        <time>2017-03-25T13:13:12Z</time>
      </trkpt>
      <trkpt lat="38.199478" lon="-2.153109">
        <ele>1179.7</ele>
        <time>2017-03-25T13:13:25Z</time>
      </trkpt>
      <trkpt lat="38.199494" lon="-2.153119">
        <ele>1180.2</ele>
        <time>2017-03-25T13:13:41Z</time>
      </trkpt>
      <trkpt lat="38.199487" lon="-2.153189">
        <ele>1180.2</ele>
        <time>2017-03-25T13:14:23Z</time>
      </trkpt>
      <trkpt lat="38.199496" lon="-2.153230">
        <ele>1180.2</ele>
        <time>2017-03-25T13:14:25Z</time>
      </trkpt>
      <trkpt lat="38.199543" lon="-2.153493">
        <ele>1180.6</ele>
        <time>2017-03-25T13:14:44Z</time>
      </trkpt>
      <trkpt lat="38.199597" lon="-2.153724">
        <ele>1181.1</ele>
        <time>2017-03-25T13:15:00Z</time>
      </trkpt>
      <trkpt lat="38.199634" lon="-2.153913">
        <ele>1181.1</ele>
        <time>2017-03-25T13:15:14Z</time>
      </trkpt>
      <trkpt lat="38.199661" lon="-2.154044">
        <ele>1181.6</ele>
        <time>2017-03-25T13:15:25Z</time>
      </trkpt>
      <trkpt lat="38.199666" lon="-2.154076">
        <ele>1181.6</ele>
        <time>2017-03-25T13:15:32Z</time>
      </trkpt>
      <trkpt lat="38.199670" lon="-2.154096">
        <ele>1181.6</ele>
        <time>2017-03-25T13:15:33Z</time>
      </trkpt>
      <trkpt lat="38.199715" lon="-2.154335">
        <ele>1182.1</ele>
        <time>2017-03-25T13:15:48Z</time>
      </trkpt>
      <trkpt lat="38.199771" lon="-2.154598">
        <ele>1183.5</ele>
        <time>2017-03-25T13:16:04Z</time>
      </trkpt>
      <trkpt lat="38.199819" lon="-2.154700">
        <ele>1184.0</ele>
        <time>2017-03-25T13:16:18Z</time>
      </trkpt>
      <trkpt lat="38.199977" lon="-2.154890">
        <ele>1185.4</ele>
        <time>2017-03-25T13:16:34Z</time>
      </trkpt>
      <trkpt lat="38.199987" lon="-2.154902">
        <ele>1185.0</ele>
        <time>2017-03-25T13:16:35Z</time>
      </trkpt>
      <trkpt lat="38.200117" lon="-2.155085">
        <ele>1186.9</ele>
        <time>2017-03-25T13:16:50Z</time>
      </trkpt>
      <trkpt lat="38.200153" lon="-2.155144">
        <ele>1187.8</ele>
        <time>2017-03-25T13:16:56Z</time>
      </trkpt>
      <trkpt lat="38.200162" lon="-2.155152">
        <ele>1187.8</ele>
        <time>2017-03-25T13:16:57Z</time>
      </trkpt>
      <trkpt lat="38.200171" lon="-2.155162">
        <ele>1187.8</ele>
        <time>2017-03-25T13:16:58Z</time>
      </trkpt>
      <trkpt lat="38.200181" lon="-2.155174">
        <ele>1187.8</ele>
        <time>2017-03-25T13:16:59Z</time>
      </trkpt>
      <trkpt lat="38.200189" lon="-2.155185">
        <ele>1187.8</ele>
        <time>2017-03-25T13:17:00Z</time>
      </trkpt>
      <trkpt lat="38.200197" lon="-2.155194">
        <ele>1187.8</ele>
        <time>2017-03-25T13:17:01Z</time>
      </trkpt>
      <trkpt lat="38.200309" lon="-2.155417">
        <ele>1189.8</ele>
        <time>2017-03-25T13:17:18Z</time>
      </trkpt>
      <trkpt lat="38.200492" lon="-2.155723">
        <ele>1191.7</ele>
        <time>2017-03-25T13:17:39Z</time>
      </trkpt>
      <trkpt lat="38.200638" lon="-2.155823">
        <ele>1192.2</ele>
        <time>2017-03-25T13:17:52Z</time>
      </trkpt>
      <trkpt lat="38.200817" lon="-2.155972">
        <ele>1193.1</ele>
        <time>2017-03-25T13:18:08Z</time>
      </trkpt>
      <trkpt lat="38.200981" lon="-2.156136">
        <ele>1193.6</ele>
        <time>2017-03-25T13:18:24Z</time>
      </trkpt>
      <trkpt lat="38.201172" lon="-2.156322">
        <ele>1193.6</ele>
        <time>2017-03-25T13:18:42Z</time>
      </trkpt>
      <trkpt lat="38.201345" lon="-2.156404">
        <ele>1194.1</ele>
        <time>2017-03-25T13:18:56Z</time>
      </trkpt>
      <trkpt lat="38.201460" lon="-2.156451">
        <ele>1195.5</ele>
        <time>2017-03-25T13:19:08Z</time>
      </trkpt>
      <trkpt lat="38.201494" lon="-2.156458">
        <ele>1196.5</ele>
        <time>2017-03-25T13:19:11Z</time>
      </trkpt>
      <trkpt lat="38.201516" lon="-2.156467">
        <ele>1196.5</ele>
        <time>2017-03-25T13:19:13Z</time>
      </trkpt>
      <trkpt lat="38.201530" lon="-2.156469">
        <ele>1196.5</ele>
        <time>2017-03-25T13:19:14Z</time>
      </trkpt>
      <trkpt lat="38.201613" lon="-2.156496">
        <ele>1197.0</ele>
        <time>2017-03-25T13:19:21Z</time>
      </trkpt>
      <trkpt lat="38.201624" lon="-2.156493">
        <ele>1197.0</ele>
        <time>2017-03-25T13:19:22Z</time>
      </trkpt>
      <trkpt lat="38.201637" lon="-2.156492">
        <ele>1197.0</ele>
        <time>2017-03-25T13:19:23Z</time>
      </trkpt>
      <trkpt lat="38.201649" lon="-2.156495">
        <ele>1197.0</ele>
        <time>2017-03-25T13:19:24Z</time>
      </trkpt>
      <trkpt lat="38.201665" lon="-2.156498">
        <ele>1196.5</ele>
        <time>2017-03-25T13:19:25Z</time>
      </trkpt>
      <trkpt lat="38.201677" lon="-2.156503">
        <ele>1196.0</ele>
        <time>2017-03-25T13:19:26Z</time>
      </trkpt>
      <trkpt lat="38.201688" lon="-2.156510">
        <ele>1197.9</ele>
        <time>2017-03-25T13:19:27Z</time>
      </trkpt>
      <trkpt lat="38.201699" lon="-2.156517">
        <ele>1197.9</ele>
        <time>2017-03-25T13:19:28Z</time>
      </trkpt>
      <trkpt lat="38.201872" lon="-2.156562">
        <ele>1197.9</ele>
        <time>2017-03-25T13:19:43Z</time>
      </trkpt>
      <trkpt lat="38.202083" lon="-2.156586">
        <ele>1198.4</ele>
        <time>2017-03-25T13:19:59Z</time>
      </trkpt>
      <trkpt lat="38.202291" lon="-2.156605">
        <ele>1198.4</ele>
        <time>2017-03-25T13:20:15Z</time>
      </trkpt>
      <trkpt lat="38.202312" lon="-2.156601">
        <ele>1198.9</ele>
        <time>2017-03-25T13:20:29Z</time>
      </trkpt>
      <trkpt lat="38.202319" lon="-2.156599">
        <ele>1197.9</ele>
        <time>2017-03-25T13:20:39Z</time>
      </trkpt>
      <trkpt lat="38.202443" lon="-2.156594">
        <ele>1197.9</ele>
        <time>2017-03-25T13:20:49Z</time>
      </trkpt>
      <trkpt lat="38.202455" lon="-2.156591">
        <ele>1197.9</ele>
        <time>2017-03-25T13:20:50Z</time>
      </trkpt>
      <trkpt lat="38.202618" lon="-2.156653">
        <ele>1198.4</ele>
        <time>2017-03-25T13:21:10Z</time>
      </trkpt>
      <trkpt lat="38.202610" lon="-2.156666">
        <ele>1197.9</ele>
        <time>2017-03-25T13:21:11Z</time>
      </trkpt>
      <trkpt lat="38.202611" lon="-2.156681">
        <ele>1198.4</ele>
        <time>2017-03-25T13:21:12Z</time>
      </trkpt>
      <trkpt lat="38.202621" lon="-2.156693">
        <ele>1198.4</ele>
        <time>2017-03-25T13:21:13Z</time>
      </trkpt>
      <trkpt lat="38.202634" lon="-2.156705">
        <ele>1197.9</ele>
        <time>2017-03-25T13:21:14Z</time>
      </trkpt>
      <trkpt lat="38.202871" lon="-2.156879">
        <ele>1197.9</ele>
        <time>2017-03-25T13:21:32Z</time>
      </trkpt>
      <trkpt lat="38.203100" lon="-2.157004">
        <ele>1198.4</ele>
        <time>2017-03-25T13:21:51Z</time>
      </trkpt>
      <trkpt lat="38.203223" lon="-2.157040">
        <ele>1198.4</ele>
        <time>2017-03-25T13:22:07Z</time>
      </trkpt>
      <trkpt lat="38.203233" lon="-2.157058">
        <ele>1198.4</ele>
        <time>2017-03-25T13:22:12Z</time>
      </trkpt>
      <trkpt lat="38.203270" lon="-2.157113">
        <ele>1198.9</ele>
        <time>2017-03-25T13:22:28Z</time>
      </trkpt>
      <trkpt lat="38.203271" lon="-2.157142">
        <ele>1198.9</ele>
        <time>2017-03-25T13:22:54Z</time>
      </trkpt>
      <trkpt lat="38.203240" lon="-2.157341">
        <ele>1198.9</ele>
        <time>2017-03-25T13:23:10Z</time>
      </trkpt>
      <trkpt lat="38.203232" lon="-2.157364">
        <ele>1199.4</ele>
        <time>2017-03-25T13:23:28Z</time>
      </trkpt>
      <trkpt lat="38.203220" lon="-2.157386">
        <ele>1199.4</ele>
        <time>2017-03-25T13:23:32Z</time>
      </trkpt>
      <trkpt lat="38.203189" lon="-2.157389">
        <ele>1199.4</ele>
        <time>2017-03-25T13:23:39Z</time>
      </trkpt>
      <trkpt lat="38.203101" lon="-2.157544">
        <ele>1199.9</ele>
        <time>2017-03-25T13:26:54Z</time>
      </trkpt>
      <trkpt lat="38.203108" lon="-2.157588">
        <ele>1200.3</ele>
        <time>2017-03-25T13:27:05Z</time>
      </trkpt>
      <trkpt lat="38.203042" lon="-2.157688">
        <ele>1200.8</ele>
        <time>2017-03-25T13:27:14Z</time>
      </trkpt>
      <trkpt lat="38.202981" lon="-2.157715">
        <ele>1200.8</ele>
        <time>2017-03-25T13:27:19Z</time>
      </trkpt>
      <trkpt lat="38.202800" lon="-2.158024">
        <ele>1201.3</ele>
        <time>2017-03-25T13:27:39Z</time>
      </trkpt>
      <trkpt lat="38.202673" lon="-2.158319">
        <ele>1203.2</ele>
        <time>2017-03-25T13:27:58Z</time>
      </trkpt>
      <trkpt lat="38.202661" lon="-2.158334">
        <ele>1203.2</ele>
        <time>2017-03-25T13:28:04Z</time>
      </trkpt>
      <trkpt lat="38.202669" lon="-2.158424">
        <ele>1203.7</ele>
        <time>2017-03-25T13:28:14Z</time>
      </trkpt>
      <trkpt lat="38.202663" lon="-2.158535">
        <ele>1204.2</ele>
        <time>2017-03-25T13:28:22Z</time>
      </trkpt>
      <trkpt lat="38.202645" lon="-2.158553">
        <ele>1204.2</ele>
        <time>2017-03-25T13:28:28Z</time>
      </trkpt>
      <trkpt lat="38.202607" lon="-2.158630">
        <ele>1204.2</ele>
        <time>2017-03-25T13:28:43Z</time>
      </trkpt>
      <trkpt lat="38.202421" lon="-2.158728">
        <ele>1205.6</ele>
        <time>2017-03-25T13:28:59Z</time>
      </trkpt>
      <trkpt lat="38.202373" lon="-2.158811">
        <ele>1206.1</ele>
        <time>2017-03-25T13:29:05Z</time>
      </trkpt>
      <trkpt lat="38.202175" lon="-2.159033">
        <ele>1209.0</ele>
        <time>2017-03-25T13:29:23Z</time>
      </trkpt>
      <trkpt lat="38.202017" lon="-2.159232">
        <ele>1211.4</ele>
        <time>2017-03-25T13:29:39Z</time>
      </trkpt>
      <trkpt lat="38.201857" lon="-2.159432">
        <ele>1213.3</ele>
        <time>2017-03-25T13:29:55Z</time>
      </trkpt>
      <trkpt lat="38.201699" lon="-2.159603">
        <ele>1214.8</ele>
        <time>2017-03-25T13:30:10Z</time>
      </trkpt>
      <trkpt lat="38.201524" lon="-2.159784">
        <ele>1217.2</ele>
        <time>2017-03-25T13:30:26Z</time>
      </trkpt>
      <trkpt lat="38.201379" lon="-2.159950">
        <ele>1218.1</ele>
        <time>2017-03-25T13:30:40Z</time>
      </trkpt>
      <trkpt lat="38.201209" lon="-2.160121">
        <ele>1220.1</ele>
        <time>2017-03-25T13:30:56Z</time>
      </trkpt>
      <trkpt lat="38.201061" lon="-2.160269">
        <ele>1220.5</ele>
        <time>2017-03-25T13:31:10Z</time>
      </trkpt>
      <trkpt lat="38.200911" lon="-2.160421">
        <ele>1222.0</ele>
        <time>2017-03-25T13:31:25Z</time>
      </trkpt>
      <trkpt lat="38.200720" lon="-2.160606">
        <ele>1222.9</ele>
        <time>2017-03-25T13:31:43Z</time>
      </trkpt>
      <trkpt lat="38.200582" lon="-2.160743">
        <ele>1223.4</ele>
        <time>2017-03-25T13:31:57Z</time>
      </trkpt>
      <trkpt lat="38.200439" lon="-2.160909">
        <ele>1224.9</ele>
        <time>2017-03-25T13:32:13Z</time>
      </trkpt>
      <trkpt lat="38.200425" lon="-2.160934">
        <ele>1224.9</ele>
        <time>2017-03-25T13:32:16Z</time>
      </trkpt>
      <trkpt lat="38.200433" lon="-2.161000">
        <ele>1224.9</ele>
        <time>2017-03-25T13:32:27Z</time>
      </trkpt>
      <trkpt lat="38.200174" lon="-2.161255">
        <ele>1226.3</ele>
        <time>2017-03-25T13:32:49Z</time>
      </trkpt>
      <trkpt lat="38.199993" lon="-2.161430">
        <ele>1226.3</ele>
        <time>2017-03-25T13:33:05Z</time>
      </trkpt>
      <trkpt lat="38.199866" lon="-2.161558">
        <ele>1227.3</ele>
        <time>2017-03-25T13:33:21Z</time>
      </trkpt>
      <trkpt lat="38.199797" lon="-2.161621">
        <ele>1226.8</ele>
        <time>2017-03-25T13:33:27Z</time>
      </trkpt>
      <trkpt lat="38.199767" lon="-2.161652">
        <ele>1226.8</ele>
        <time>2017-03-25T13:33:30Z</time>
      </trkpt>
      <trkpt lat="38.199488" lon="-2.161887">
        <ele>1226.8</ele>
        <time>2017-03-25T13:33:52Z</time>
      </trkpt>
      <trkpt lat="38.199264" lon="-2.162112">
        <ele>1226.3</ele>
        <time>2017-03-25T13:34:12Z</time>
      </trkpt>
      <trkpt lat="38.199084" lon="-2.162298">
        <ele>1225.8</ele>
        <time>2017-03-25T13:34:30Z</time>
      </trkpt>
      <trkpt lat="38.198879" lon="-2.162479">
        <ele>1225.8</ele>
        <time>2017-03-25T13:34:49Z</time>
      </trkpt>
      <trkpt lat="38.198712" lon="-2.162640">
        <ele>1225.3</ele>
        <time>2017-03-25T13:35:05Z</time>
      </trkpt>
      <trkpt lat="38.198534" lon="-2.162819">
        <ele>1224.9</ele>
        <time>2017-03-25T13:35:22Z</time>
      </trkpt>
      <trkpt lat="38.198343" lon="-2.163012">
        <ele>1225.3</ele>
        <time>2017-03-25T13:35:41Z</time>
      </trkpt>
      <trkpt lat="38.198147" lon="-2.163183">
        <ele>1223.9</ele>
        <time>2017-03-25T13:35:58Z</time>
      </trkpt>
      <trkpt lat="38.197958" lon="-2.163366">
        <ele>1223.9</ele>
        <time>2017-03-25T13:36:16Z</time>
      </trkpt>
      <trkpt lat="38.197748" lon="-2.163572">
        <ele>1223.4</ele>
        <time>2017-03-25T13:36:36Z</time>
      </trkpt>
      <trkpt lat="38.197555" lon="-2.163758">
        <ele>1222.9</ele>
        <time>2017-03-25T13:36:54Z</time>
      </trkpt>
      <trkpt lat="38.197401" lon="-2.163915">
        <ele>1222.4</ele>
        <time>2017-03-25T13:37:09Z</time>
      </trkpt>
      <trkpt lat="38.197198" lon="-2.164098">
        <ele>1221.5</ele>
        <time>2017-03-25T13:37:27Z</time>
      </trkpt>
      <trkpt lat="38.197013" lon="-2.164291">
        <ele>1221.0</ele>
        <time>2017-03-25T13:37:46Z</time>
      </trkpt>
      <trkpt lat="38.196841" lon="-2.164461">
        <ele>1221.0</ele>
        <time>2017-03-25T13:38:02Z</time>
      </trkpt>
      <trkpt lat="38.196612" lon="-2.164666">
        <ele>1220.1</ele>
        <time>2017-03-25T13:38:22Z</time>
      </trkpt>
      <trkpt lat="38.196449" lon="-2.164818">
        <ele>1220.1</ele>
        <time>2017-03-25T13:38:38Z</time>
      </trkpt>
      <trkpt lat="38.196258" lon="-2.164995">
        <ele>1218.1</ele>
        <time>2017-03-25T13:38:55Z</time>
      </trkpt>
      <trkpt lat="38.196057" lon="-2.165180">
        <ele>1219.1</ele>
        <time>2017-03-25T13:39:12Z</time>
      </trkpt>
      <trkpt lat="38.195870" lon="-2.165362">
        <ele>1219.1</ele>
        <time>2017-03-25T13:39:29Z</time>
      </trkpt>
      <trkpt lat="38.195681" lon="-2.165546">
        <ele>1217.2</ele>
        <time>2017-03-25T13:39:46Z</time>
      </trkpt>
      <trkpt lat="38.195487" lon="-2.165724">
        <ele>1217.2</ele>
        <time>2017-03-25T13:40:04Z</time>
      </trkpt>
      <trkpt lat="38.195351" lon="-2.165865">
        <ele>1217.2</ele>
        <time>2017-03-25T13:40:17Z</time>
      </trkpt>
      <trkpt lat="38.195217" lon="-2.165985">
        <ele>1217.7</ele>
        <time>2017-03-25T13:40:32Z</time>
      </trkpt>
      <trkpt lat="38.195143" lon="-2.166039">
        <ele>1217.2</ele>
        <time>2017-03-25T13:40:38Z</time>
      </trkpt>
      <trkpt lat="38.195127" lon="-2.166060">
        <ele>1216.7</ele>
        <time>2017-03-25T13:40:40Z</time>
      </trkpt>
      <trkpt lat="38.194917" lon="-2.166264">
        <ele>1216.7</ele>
        <time>2017-03-25T13:41:00Z</time>
      </trkpt>
      <trkpt lat="38.194758" lon="-2.166404">
        <ele>1216.7</ele>
        <time>2017-03-25T13:41:15Z</time>
      </trkpt>
      <trkpt lat="38.194547" lon="-2.166590">
        <ele>1217.2</ele>
        <time>2017-03-25T13:41:35Z</time>
      </trkpt>
      <trkpt lat="38.194403" lon="-2.166715">
        <ele>1217.7</ele>
        <time>2017-03-25T13:41:49Z</time>
      </trkpt>
      <trkpt lat="38.194383" lon="-2.166733">
        <ele>1217.7</ele>
        <time>2017-03-25T13:41:51Z</time>
      </trkpt>
      <trkpt lat="38.194330" lon="-2.166782">
        <ele>1217.7</ele>
        <time>2017-03-25T13:41:56Z</time>
      </trkpt>
      <trkpt lat="38.194135" lon="-2.166977">
        <ele>1218.1</ele>
        <time>2017-03-25T13:42:14Z</time>
      </trkpt>
      <trkpt lat="38.193983" lon="-2.167127">
        <ele>1219.1</ele>
        <time>2017-03-25T13:42:29Z</time>
      </trkpt>
      <trkpt lat="38.193813" lon="-2.167279">
        <ele>1219.6</ele>
        <time>2017-03-25T13:42:45Z</time>
      </trkpt>
      <trkpt lat="38.193649" lon="-2.167393">
        <ele>1220.1</ele>
        <time>2017-03-25T13:43:00Z</time>
      </trkpt>
      <trkpt lat="38.193527" lon="-2.167464">
        <ele>1220.1</ele>
        <time>2017-03-25T13:43:10Z</time>
      </trkpt>
      <trkpt lat="38.193504" lon="-2.167477">
        <ele>1219.1</ele>
        <time>2017-03-25T13:43:12Z</time>
      </trkpt>
      <trkpt lat="38.193290" lon="-2.167616">
        <ele>1220.5</ele>
        <time>2017-03-25T13:43:30Z</time>
      </trkpt>
      <trkpt lat="38.193080" lon="-2.167708">
        <ele>1220.5</ele>
        <time>2017-03-25T13:43:46Z</time>
      </trkpt>
      <trkpt lat="38.192883" lon="-2.167817">
        <ele>1220.5</ele>
        <time>2017-03-25T13:44:02Z</time>
      </trkpt>
      <trkpt lat="38.192662" lon="-2.167947">
        <ele>1221.5</ele>
        <time>2017-03-25T13:44:20Z</time>
      </trkpt>
      <trkpt lat="38.192457" lon="-2.168063">
        <ele>1222.4</ele>
        <time>2017-03-25T13:44:37Z</time>
      </trkpt>
      <trkpt lat="38.192197" lon="-2.168205">
        <ele>1223.9</ele>
        <time>2017-03-25T13:44:58Z</time>
      </trkpt>
      <trkpt lat="38.192022" lon="-2.168310">
        <ele>1224.4</ele>
        <time>2017-03-25T13:45:13Z</time>
      </trkpt>
      <trkpt lat="38.191827" lon="-2.168421">
        <ele>1225.8</ele>
        <time>2017-03-25T13:45:29Z</time>
      </trkpt>
      <trkpt lat="38.191606" lon="-2.168527">
        <ele>1225.8</ele>
        <time>2017-03-25T13:45:46Z</time>
      </trkpt>
      <trkpt lat="38.191420" lon="-2.168634">
        <ele>1226.3</ele>
        <time>2017-03-25T13:46:01Z</time>
      </trkpt>
      <trkpt lat="38.191252" lon="-2.168741">
        <ele>1226.8</ele>
        <time>2017-03-25T13:46:16Z</time>
      </trkpt>
      <trkpt lat="38.191131" lon="-2.168832">
        <ele>1226.8</ele>
        <time>2017-03-25T13:46:30Z</time>
      </trkpt>
      <trkpt lat="38.190919" lon="-2.168934">
        <ele>1226.8</ele>
        <time>2017-03-25T13:46:47Z</time>
      </trkpt>
      <trkpt lat="38.190794" lon="-2.168974">
        <ele>1227.3</ele>
        <time>2017-03-25T13:47:00Z</time>
      </trkpt>
      <trkpt lat="38.190709" lon="-2.168976">
        <ele>1227.7</ele>
        <time>2017-03-25T13:47:07Z</time>
      </trkpt>
      <trkpt lat="38.190492" lon="-2.169054">
        <ele>1229.2</ele>
        <time>2017-03-25T13:47:25Z</time>
      </trkpt>
      <trkpt lat="38.190353" lon="-2.169059">
        <ele>1231.1</ele>
        <time>2017-03-25T13:47:37Z</time>
      </trkpt>
      <trkpt lat="38.190292" lon="-2.169053">
        <ele>1231.6</ele>
        <time>2017-03-25T13:47:41Z</time>
      </trkpt>
      <trkpt lat="38.190224" lon="-2.169052">
        <ele>1232.1</ele>
        <time>2017-03-25T13:47:45Z</time>
      </trkpt>
      <trkpt lat="38.189985" lon="-2.169080">
        <ele>1233.5</ele>
        <time>2017-03-25T13:48:02Z</time>
      </trkpt>
      <trkpt lat="38.189781" lon="-2.169102">
        <ele>1234.5</ele>
        <time>2017-03-25T13:48:18Z</time>
      </trkpt>
      <trkpt lat="38.189749" lon="-2.169106">
        <ele>1234.9</ele>
        <time>2017-03-25T13:48:21Z</time>
      </trkpt>
      <trkpt lat="38.189545" lon="-2.169126">
        <ele>1234.5</ele>
        <time>2017-03-25T13:48:37Z</time>
      </trkpt>
      <trkpt lat="38.189339" lon="-2.169161">
        <ele>1234.9</ele>
        <time>2017-03-25T13:48:53Z</time>
      </trkpt>
      <trkpt lat="38.189216" lon="-2.169187">
        <ele>1234.9</ele>
        <time>2017-03-25T13:49:05Z</time>
      </trkpt>
      <trkpt lat="38.189204" lon="-2.169188">
        <ele>1235.4</ele>
        <time>2017-03-25T13:49:06Z</time>
      </trkpt>
      <trkpt lat="38.189169" lon="-2.169202">
        <ele>1234.9</ele>
        <time>2017-03-25T13:49:09Z</time>
      </trkpt>
      <trkpt lat="38.189001" lon="-2.169213">
        <ele>1234.0</ele>
        <time>2017-03-25T13:49:22Z</time>
      </trkpt>
      <trkpt lat="38.188756" lon="-2.169262">
        <ele>1234.5</ele>
        <time>2017-03-25T13:49:43Z</time>
      </trkpt>
      <trkpt lat="38.188723" lon="-2.169281">
        <ele>1234.0</ele>
        <time>2017-03-25T13:49:55Z</time>
      </trkpt>
      <trkpt lat="38.188695" lon="-2.169304">
        <ele>1234.0</ele>
        <time>2017-03-25T13:50:18Z</time>
      </trkpt>
      <trkpt lat="38.188491" lon="-2.169291">
        <ele>1233.5</ele>
        <time>2017-03-25T13:50:35Z</time>
      </trkpt>
      <trkpt lat="38.188321" lon="-2.169298">
        <ele>1233.5</ele>
        <time>2017-03-25T13:50:48Z</time>
      </trkpt>
      <trkpt lat="38.188307" lon="-2.169296">
        <ele>1233.5</ele>
        <time>2017-03-25T13:50:49Z</time>
      </trkpt>
      <trkpt lat="38.188198" lon="-2.169316">
        <ele>1233.5</ele>
        <time>2017-03-25T13:50:58Z</time>
      </trkpt>
      <trkpt lat="38.187977" lon="-2.169293">
        <ele>1233.5</ele>
        <time>2017-03-25T13:51:17Z</time>
      </trkpt>
      <trkpt lat="38.187815" lon="-2.169128">
        <ele>1233.5</ele>
        <time>2017-03-25T13:51:35Z</time>
      </trkpt>
      <trkpt lat="38.187696" lon="-2.168968">
        <ele>1233.5</ele>
        <time>2017-03-25T13:51:49Z</time>
      </trkpt>
      <trkpt lat="38.187549" lon="-2.168749">
        <ele>1234.0</ele>
        <time>2017-03-25T13:52:05Z</time>
      </trkpt>
      <trkpt lat="38.187406" lon="-2.168522">
        <ele>1234.5</ele>
        <time>2017-03-25T13:52:21Z</time>
      </trkpt>
      <trkpt lat="38.187185" lon="-2.168286">
        <ele>1234.9</ele>
        <time>2017-03-25T13:52:42Z</time>
      </trkpt>
      <trkpt lat="38.186963" lon="-2.168220">
        <ele>1236.4</ele>
        <time>2017-03-25T13:52:59Z</time>
      </trkpt>
      <trkpt lat="38.186742" lon="-2.168247">
        <ele>1236.9</ele>
        <time>2017-03-25T13:53:16Z</time>
      </trkpt>
      <trkpt lat="38.186496" lon="-2.168276">
        <ele>1237.3</ele>
        <time>2017-03-25T13:53:34Z</time>
      </trkpt>
      <trkpt lat="38.186239" lon="-2.168307">
        <ele>1236.4</ele>
        <time>2017-03-25T13:53:53Z</time>
      </trkpt>
      <trkpt lat="38.186001" lon="-2.168328">
        <ele>1236.9</ele>
        <time>2017-03-25T13:54:11Z</time>
      </trkpt>
      <trkpt lat="38.185747" lon="-2.168340">
        <ele>1236.9</ele>
        <time>2017-03-25T13:54:29Z</time>
      </trkpt>
      <trkpt lat="38.185476" lon="-2.168389">
        <ele>1236.4</ele>
        <time>2017-03-25T13:54:48Z</time>
      </trkpt>
      <trkpt lat="38.185261" lon="-2.168397">
        <ele>1235.9</ele>
        <time>2017-03-25T13:55:05Z</time>
      </trkpt>
      <trkpt lat="38.185022" lon="-2.168415">
        <ele>1235.9</ele>
        <time>2017-03-25T13:55:23Z</time>
      </trkpt>
      <trkpt lat="38.184715" lon="-2.168452">
        <ele>1235.4</ele>
        <time>2017-03-25T13:55:46Z</time>
      </trkpt>
      <trkpt lat="38.184401" lon="-2.168485">
        <ele>1235.4</ele>
        <time>2017-03-25T13:56:09Z</time>
      </trkpt>
      <trkpt lat="38.184162" lon="-2.168481">
        <ele>1234.9</ele>
        <time>2017-03-25T13:56:27Z</time>
      </trkpt>
      <trkpt lat="38.183827" lon="-2.168474">
        <ele>1234.0</ele>
        <time>2017-03-25T13:56:51Z</time>
      </trkpt>
      <trkpt lat="38.183578" lon="-2.168456">
        <ele>1233.5</ele>
        <time>2017-03-25T13:57:10Z</time>
      </trkpt>
      <trkpt lat="38.183329" lon="-2.168445">
        <ele>1232.6</ele>
        <time>2017-03-25T13:57:28Z</time>
      </trkpt>
      <trkpt lat="38.183069" lon="-2.168404">
        <ele>1231.6</ele>
        <time>2017-03-25T13:57:47Z</time>
      </trkpt>
      <trkpt lat="38.182833" lon="-2.168382">
        <ele>1231.1</ele>
        <time>2017-03-25T13:58:05Z</time>
      </trkpt>
      <trkpt lat="38.182542" lon="-2.168339">
        <ele>1231.1</ele>
        <time>2017-03-25T13:58:26Z</time>
      </trkpt>
      <trkpt lat="38.182306" lon="-2.168345">
        <ele>1231.1</ele>
        <time>2017-03-25T13:58:44Z</time>
      </trkpt>
      <trkpt lat="38.182035" lon="-2.168353">
        <ele>1230.6</ele>
        <time>2017-03-25T13:59:05Z</time>
      </trkpt>
      <trkpt lat="38.181755" lon="-2.168396">
        <ele>1230.6</ele>
        <time>2017-03-25T13:59:25Z</time>
      </trkpt>
      <trkpt lat="38.181523" lon="-2.168426">
        <ele>1229.7</ele>
        <time>2017-03-25T13:59:43Z</time>
      </trkpt>
      <trkpt lat="38.181343" lon="-2.168465">
        <ele>1226.8</ele>
        <time>2017-03-25T13:59:57Z</time>
      </trkpt>
      <trkpt lat="38.181295" lon="-2.168473">
        <ele>1226.8</ele>
        <time>2017-03-25T14:00:01Z</time>
      </trkpt>
      <trkpt lat="38.181082" lon="-2.168535">
        <ele>1225.3</ele>
        <time>2017-03-25T14:00:16Z</time>
      </trkpt>
      <trkpt lat="38.180881" lon="-2.168728">
        <ele>1225.3</ele>
        <time>2017-03-25T14:00:34Z</time>
      </trkpt>
      <trkpt lat="38.180801" lon="-2.168987">
        <ele>1226.3</ele>
        <time>2017-03-25T14:00:50Z</time>
      </trkpt>
      <trkpt lat="38.180774" lon="-2.169257">
        <ele>1225.8</ele>
        <time>2017-03-25T14:01:05Z</time>
      </trkpt>
      <trkpt lat="38.180749" lon="-2.169349">
        <ele>1227.7</ele>
        <time>2017-03-25T14:01:11Z</time>
      </trkpt>
      <trkpt lat="38.180704" lon="-2.169585">
        <ele>1229.2</ele>
        <time>2017-03-25T14:01:26Z</time>
      </trkpt>
      <trkpt lat="38.180659" lon="-2.169740">
        <ele>1230.6</ele>
        <time>2017-03-25T14:01:37Z</time>
      </trkpt>
      <trkpt lat="38.180619" lon="-2.169842">
        <ele>1231.1</ele>
        <time>2017-03-25T14:01:47Z</time>
      </trkpt>
      <trkpt lat="38.180599" lon="-2.169882">
        <ele>1231.6</ele>
        <time>2017-03-25T14:01:51Z</time>
      </trkpt>
      <trkpt lat="38.180580" lon="-2.169915">
        <ele>1232.1</ele>
        <time>2017-03-25T14:01:54Z</time>
      </trkpt>
      <trkpt lat="38.180553" lon="-2.169957">
        <ele>1232.1</ele>
        <time>2017-03-25T14:01:59Z</time>
      </trkpt>
      <trkpt lat="38.180548" lon="-2.169984">
        <ele>1232.6</ele>
        <time>2017-03-25T14:02:01Z</time>
      </trkpt>
      <trkpt lat="38.180515" lon="-2.170026">
        <ele>1233.0</ele>
        <time>2017-03-25T14:02:06Z</time>
      </trkpt>
      <trkpt lat="38.180499" lon="-2.170062">
        <ele>1233.0</ele>
        <time>2017-03-25T14:02:10Z</time>
      </trkpt>
      <trkpt lat="38.180434" lon="-2.170179">
        <ele>1234.9</ele>
        <time>2017-03-25T14:02:23Z</time>
      </trkpt>
      <trkpt lat="38.180387" lon="-2.170249">
        <ele>1235.4</ele>
        <time>2017-03-25T14:02:32Z</time>
      </trkpt>
      <trkpt lat="38.180322" lon="-2.170394">
        <ele>1236.4</ele>
        <time>2017-03-25T14:02:47Z</time>
      </trkpt>
      <trkpt lat="38.180287" lon="-2.170466">
        <ele>1237.3</ele>
        <time>2017-03-25T14:02:54Z</time>
      </trkpt>
      <trkpt lat="38.180249" lon="-2.170525">
        <ele>1237.8</ele>
        <time>2017-03-25T14:02:59Z</time>
      </trkpt>
      <trkpt lat="38.180125" lon="-2.170665">
        <ele>1238.3</ele>
        <time>2017-03-25T14:03:14Z</time>
      </trkpt>
      <trkpt lat="38.179984" lon="-2.170780">
        <ele>1239.3</ele>
        <time>2017-03-25T14:03:29Z</time>
      </trkpt>
      <trkpt lat="38.179835" lon="-2.170829">
        <ele>1239.8</ele>
        <time>2017-03-25T14:03:42Z</time>
      </trkpt>
      <trkpt lat="38.179785" lon="-2.170886">
        <ele>1239.3</ele>
        <time>2017-03-25T14:03:56Z</time>
      </trkpt>
      <trkpt lat="38.179663" lon="-2.170882">
        <ele>1240.2</ele>
        <time>2017-03-25T14:04:36Z</time>
      </trkpt>
      <trkpt lat="38.179629" lon="-2.170914">
        <ele>1241.2</ele>
        <time>2017-03-25T14:14:03Z</time>
      </trkpt>
      <trkpt lat="38.179503" lon="-2.170822">
        <ele>1241.7</ele>
        <time>2017-03-25T14:14:13Z</time>
      </trkpt>
      <trkpt lat="38.179445" lon="-2.170799">
        <ele>1241.2</ele>
        <time>2017-03-25T14:14:21Z</time>
      </trkpt>
      <trkpt lat="38.179304" lon="-2.170734">
        <ele>1241.7</ele>
        <time>2017-03-25T14:14:37Z</time>
      </trkpt>
      <trkpt lat="38.179260" lon="-2.170711">
        <ele>1241.7</ele>
        <time>2017-03-25T14:15:33Z</time>
      </trkpt>
      <trkpt lat="38.179174" lon="-2.170648">
        <ele>1242.6</ele>
        <time>2017-03-25T14:15:38Z</time>
      </trkpt>
      <trkpt lat="38.178945" lon="-2.170511">
        <ele>1243.1</ele>
        <time>2017-03-25T14:15:55Z</time>
      </trkpt>
      <trkpt lat="38.178858" lon="-2.170455">
        <ele>1243.6</ele>
        <time>2017-03-25T14:16:07Z</time>
      </trkpt>
      <trkpt lat="38.178840" lon="-2.170478">
        <ele>1243.6</ele>
        <time>2017-03-25T14:16:19Z</time>
      </trkpt>
      <trkpt lat="38.178722" lon="-2.170519">
        <ele>1243.6</ele>
        <time>2017-03-25T14:16:31Z</time>
      </trkpt>
      <trkpt lat="38.178560" lon="-2.170536">
        <ele>1243.6</ele>
        <time>2017-03-25T14:16:45Z</time>
      </trkpt>
      <trkpt lat="38.178556" lon="-2.170535">
        <ele>1243.1</ele>
        <time>2017-03-25T14:16:47Z</time>
      </trkpt>
      <trkpt lat="38.178465" lon="-2.170505">
        <ele>1243.6</ele>
        <time>2017-03-25T14:16:53Z</time>
      </trkpt>
      <trkpt lat="38.178388" lon="-2.170487">
        <ele>1243.6</ele>
        <time>2017-03-25T14:17:01Z</time>
      </trkpt>
      <trkpt lat="38.178381" lon="-2.170468">
        <ele>1243.6</ele>
        <time>2017-03-25T14:17:13Z</time>
      </trkpt>
      <trkpt lat="38.178192" lon="-2.170358">
        <ele>1240.7</ele>
        <time>2017-03-25T14:17:28Z</time>
      </trkpt>
      <trkpt lat="38.177989" lon="-2.170232">
        <ele>1237.3</ele>
        <time>2017-03-25T14:17:43Z</time>
      </trkpt>
      <trkpt lat="38.177755" lon="-2.170074">
        <ele>1234.9</ele>
        <time>2017-03-25T14:18:02Z</time>
      </trkpt>
      <trkpt lat="38.177575" lon="-2.169912">
        <ele>1234.0</ele>
        <time>2017-03-25T14:18:17Z</time>
      </trkpt>
      <trkpt lat="38.177339" lon="-2.169811">
        <ele>1232.1</ele>
        <time>2017-03-25T14:18:35Z</time>
      </trkpt>
      <trkpt lat="38.177234" lon="-2.169866">
        <ele>1230.6</ele>
        <time>2017-03-25T14:18:49Z</time>
      </trkpt>
      <trkpt lat="38.177191" lon="-2.169917">
        <ele>1229.7</ele>
        <time>2017-03-25T14:18:53Z</time>
      </trkpt>
      <trkpt lat="38.177051" lon="-2.170153">
        <ele>1225.8</ele>
        <time>2017-03-25T14:19:09Z</time>
      </trkpt>
      <trkpt lat="38.176905" lon="-2.170454">
        <ele>1223.9</ele>
        <time>2017-03-25T14:19:27Z</time>
      </trkpt>
      <trkpt lat="38.176747" lon="-2.170781">
        <ele>1221.5</ele>
        <time>2017-03-25T14:19:48Z</time>
      </trkpt>
      <trkpt lat="38.176694" lon="-2.170915">
        <ele>1221.0</ele>
        <time>2017-03-25T14:20:01Z</time>
      </trkpt>
      <trkpt lat="38.176678" lon="-2.170973">
        <ele>1220.5</ele>
        <time>2017-03-25T14:20:05Z</time>
      </trkpt>
      <trkpt lat="38.176533" lon="-2.171248">
        <ele>1218.6</ele>
        <time>2017-03-25T14:20:23Z</time>
      </trkpt>
      <trkpt lat="38.176462" lon="-2.171453">
        <ele>1216.2</ele>
        <time>2017-03-25T14:20:36Z</time>
      </trkpt>
      <trkpt lat="38.176365" lon="-2.171643">
        <ele>1215.2</ele>
        <time>2017-03-25T14:20:49Z</time>
      </trkpt>
      <trkpt lat="38.176325" lon="-2.171710">
        <ele>1214.8</ele>
        <time>2017-03-25T14:20:53Z</time>
      </trkpt>
      <trkpt lat="38.176201" lon="-2.171929">
        <ele>1211.4</ele>
        <time>2017-03-25T14:21:09Z</time>
      </trkpt>
      <trkpt lat="38.176017" lon="-2.172174">
        <ele>1208.5</ele>
        <time>2017-03-25T14:21:29Z</time>
      </trkpt>
      <trkpt lat="38.175838" lon="-2.172411">
        <ele>1206.1</ele>
        <time>2017-03-25T14:21:46Z</time>
      </trkpt>
      <trkpt lat="38.175755" lon="-2.172552">
        <ele>1205.6</ele>
        <time>2017-03-25T14:22:02Z</time>
      </trkpt>
      <trkpt lat="38.175728" lon="-2.172620">
        <ele>1204.7</ele>
        <time>2017-03-25T14:22:07Z</time>
      </trkpt>
      <trkpt lat="38.175692" lon="-2.172782">
        <ele>1203.7</ele>
        <time>2017-03-25T14:22:17Z</time>
      </trkpt>
      <trkpt lat="38.175684" lon="-2.172859">
        <ele>1203.2</ele>
        <time>2017-03-25T14:22:22Z</time>
      </trkpt>
      <trkpt lat="38.175691" lon="-2.172874">
        <ele>1203.2</ele>
        <time>2017-03-25T14:22:36Z</time>
      </trkpt>
      <trkpt lat="38.175682" lon="-2.172878">
        <ele>1204.2</ele>
        <time>2017-03-25T14:22:45Z</time>
      </trkpt>
      <trkpt lat="38.175690" lon="-2.172881">
        <ele>1203.7</ele>
        <time>2017-03-25T14:22:53Z</time>
      </trkpt>
      <trkpt lat="38.175687" lon="-2.172881">
        <ele>1203.2</ele>
        <time>2017-03-25T14:22:57Z</time>
      </trkpt>
      <trkpt lat="38.175659" lon="-2.172923">
        <ele>1203.2</ele>
        <time>2017-03-25T14:23:01Z</time>
      </trkpt>
      <trkpt lat="38.175602" lon="-2.173203">
        <ele>1201.8</ele>
        <time>2017-03-25T14:23:17Z</time>
      </trkpt>
      <trkpt lat="38.175602" lon="-2.173397">
        <ele>1200.3</ele>
        <time>2017-03-25T14:23:29Z</time>
      </trkpt>
      <trkpt lat="38.175589" lon="-2.173700">
        <ele>1198.4</ele>
        <time>2017-03-25T14:23:46Z</time>
      </trkpt>
      <trkpt lat="38.175575" lon="-2.174106">
        <ele>1197.0</ele>
        <time>2017-03-25T14:24:08Z</time>
      </trkpt>
      <trkpt lat="38.175564" lon="-2.174451">
        <ele>1196.0</ele>
        <time>2017-03-25T14:24:25Z</time>
      </trkpt>
      <trkpt lat="38.175605" lon="-2.174712">
        <ele>1195.1</ele>
        <time>2017-03-25T14:24:40Z</time>
      </trkpt>
      <trkpt lat="38.175601" lon="-2.174771">
        <ele>1195.5</ele>
        <time>2017-03-25T14:24:43Z</time>
      </trkpt>
      <trkpt lat="38.175589" lon="-2.174813">
        <ele>1195.5</ele>
        <time>2017-03-25T14:24:48Z</time>
      </trkpt>
      <trkpt lat="38.175502" lon="-2.174878">
        <ele>1193.1</ele>
        <time>2017-03-25T14:24:54Z</time>
      </trkpt>
      <trkpt lat="38.175346" lon="-2.174945">
        <ele>1190.7</ele>
        <time>2017-03-25T14:25:06Z</time>
      </trkpt>
      <trkpt lat="38.175304" lon="-2.174978">
        <ele>1189.3</ele>
        <time>2017-03-25T14:25:09Z</time>
      </trkpt>
      <trkpt lat="38.175217" lon="-2.174996">
        <ele>1187.8</ele>
        <time>2017-03-25T14:25:24Z</time>
      </trkpt>
      <trkpt lat="38.175112" lon="-2.175062">
        <ele>1185.0</ele>
        <time>2017-03-25T14:25:50Z</time>
      </trkpt>
      <trkpt lat="38.175054" lon="-2.175072">
        <ele>1184.0</ele>
        <time>2017-03-25T14:25:55Z</time>
      </trkpt>
      <trkpt lat="38.174925" lon="-2.175039">
        <ele>1181.1</ele>
        <time>2017-03-25T14:26:04Z</time>
      </trkpt>
      <trkpt lat="38.174860" lon="-2.175080">
        <ele>1180.2</ele>
        <time>2017-03-25T14:26:08Z</time>
      </trkpt>
      <trkpt lat="38.174828" lon="-2.175110">
        <ele>1179.2</ele>
        <time>2017-03-25T14:26:10Z</time>
      </trkpt>
      <trkpt lat="38.174794" lon="-2.175218">
        <ele>1176.8</ele>
        <time>2017-03-25T14:26:16Z</time>
      </trkpt>
      <trkpt lat="38.174758" lon="-2.175280">
        <ele>1176.3</ele>
        <time>2017-03-25T14:26:19Z</time>
      </trkpt>
      <trkpt lat="38.174768" lon="-2.175371">
        <ele>1175.8</ele>
        <time>2017-03-25T14:26:23Z</time>
      </trkpt>
      <trkpt lat="38.174613" lon="-2.175646">
        <ele>1173.9</ele>
        <time>2017-03-25T14:26:38Z</time>
      </trkpt>
      <trkpt lat="38.174552" lon="-2.175756">
        <ele>1172.9</ele>
        <time>2017-03-25T14:26:45Z</time>
      </trkpt>
      <trkpt lat="38.174670" lon="-2.176001">
        <ele>1172.5</ele>
        <time>2017-03-25T14:27:00Z</time>
      </trkpt>
      <trkpt lat="38.174733" lon="-2.176121">
        <ele>1172.9</ele>
        <time>2017-03-25T14:27:07Z</time>
      </trkpt>
      <trkpt lat="38.174686" lon="-2.176138">
        <ele>1173.4</ele>
        <time>2017-03-25T14:27:11Z</time>
      </trkpt>
      <trkpt lat="38.174567" lon="-2.176082">
        <ele>1173.9</ele>
        <time>2017-03-25T14:27:25Z</time>
      </trkpt>
      <trkpt lat="38.174393" lon="-2.176013">
        <ele>1173.4</ele>
        <time>2017-03-25T14:29:43Z</time>
      </trkpt>
      <trkpt lat="38.174379" lon="-2.176051">
        <ele>1170.5</ele>
        <time>2017-03-25T14:29:45Z</time>
      </trkpt>
      <trkpt lat="38.174376" lon="-2.176075">
        <ele>1175.3</ele>
        <time>2017-03-25T14:29:46Z</time>
      </trkpt>
      <trkpt lat="38.174362" lon="-2.176152">
        <ele>1172.5</ele>
        <time>2017-03-25T14:29:51Z</time>
      </trkpt>
      <trkpt lat="38.174336" lon="-2.176380">
        <ele>1172.5</ele>
        <time>2017-03-25T14:30:04Z</time>
      </trkpt>
      <trkpt lat="38.174280" lon="-2.176662">
        <ele>1173.9</ele>
        <time>2017-03-25T14:30:19Z</time>
      </trkpt>
      <trkpt lat="38.174277" lon="-2.176682">
        <ele>1173.4</ele>
        <time>2017-03-25T14:30:20Z</time>
      </trkpt>
      <trkpt lat="38.174274" lon="-2.176721">
        <ele>1172.0</ele>
        <time>2017-03-25T14:30:22Z</time>
      </trkpt>
      <trkpt lat="38.174270" lon="-2.176737">
        <ele>1175.3</ele>
        <time>2017-03-25T14:30:23Z</time>
      </trkpt>
      <trkpt lat="38.174269" lon="-2.176752">
        <ele>1173.4</ele>
        <time>2017-03-25T14:30:24Z</time>
      </trkpt>
      <trkpt lat="38.174215" lon="-2.177041">
        <ele>1172.9</ele>
        <time>2017-03-25T14:30:39Z</time>
      </trkpt>
      <trkpt lat="38.174119" lon="-2.177266">
        <ele>1173.4</ele>
        <time>2017-03-25T14:30:53Z</time>
      </trkpt>
      <trkpt lat="38.174093" lon="-2.177309">
        <ele>1172.9</ele>
        <time>2017-03-25T14:30:56Z</time>
      </trkpt>
      <trkpt lat="38.173993" lon="-2.177539">
        <ele>1175.3</ele>
        <time>2017-03-25T14:31:13Z</time>
      </trkpt>
      <trkpt lat="38.173966" lon="-2.177608">
        <ele>1176.8</ele>
        <time>2017-03-25T14:31:18Z</time>
      </trkpt>
      <trkpt lat="38.173910" lon="-2.177787">
        <ele>1178.2</ele>
        <time>2017-03-25T14:31:29Z</time>
      </trkpt>
      <trkpt lat="38.173884" lon="-2.177923">
        <ele>1178.2</ele>
        <time>2017-03-25T14:31:37Z</time>
      </trkpt>
      <trkpt lat="38.173713" lon="-2.178143">
        <ele>1175.8</ele>
        <time>2017-03-25T14:31:55Z</time>
      </trkpt>
      <trkpt lat="38.173480" lon="-2.178181">
        <ele>1176.8</ele>
        <time>2017-03-25T14:32:13Z</time>
      </trkpt>
      <trkpt lat="38.173302" lon="-2.178176">
        <ele>1177.3</ele>
        <time>2017-03-25T14:32:26Z</time>
      </trkpt>
      <trkpt lat="38.173046" lon="-2.178246">
        <ele>1178.2</ele>
        <time>2017-03-25T14:32:45Z</time>
      </trkpt>
      <trkpt lat="38.172818" lon="-2.178324">
        <ele>1179.7</ele>
        <time>2017-03-25T14:33:02Z</time>
      </trkpt>
      <trkpt lat="38.172616" lon="-2.178392">
        <ele>1180.2</ele>
        <time>2017-03-25T14:33:17Z</time>
      </trkpt>
      <trkpt lat="38.172482" lon="-2.178568">
        <ele>1181.1</ele>
        <time>2017-03-25T14:33:31Z</time>
      </trkpt>
      <trkpt lat="38.172442" lon="-2.178661">
        <ele>1180.2</ele>
        <time>2017-03-25T14:33:37Z</time>
      </trkpt>
      <trkpt lat="38.172290" lon="-2.178912">
        <ele>1181.1</ele>
        <time>2017-03-25T14:33:54Z</time>
      </trkpt>
      <trkpt lat="38.172161" lon="-2.179192">
        <ele>1182.1</ele>
        <time>2017-03-25T14:34:11Z</time>
      </trkpt>
      <trkpt lat="38.172050" lon="-2.179466">
        <ele>1183.0</ele>
        <time>2017-03-25T14:34:27Z</time>
      </trkpt>
      <trkpt lat="38.171923" lon="-2.179723">
        <ele>1183.5</ele>
        <time>2017-03-25T14:34:43Z</time>
      </trkpt>
      <trkpt lat="38.171872" lon="-2.179852">
        <ele>1185.0</ele>
        <time>2017-03-25T14:34:52Z</time>
      </trkpt>
      <trkpt lat="38.171850" lon="-2.179894">
        <ele>1185.0</ele>
        <time>2017-03-25T14:34:59Z</time>
      </trkpt>
      <trkpt lat="38.171762" lon="-2.180011">
        <ele>1185.4</ele>
        <time>2017-03-25T14:35:08Z</time>
      </trkpt>
      <trkpt lat="38.171722" lon="-2.180070">
        <ele>1185.9</ele>
        <time>2017-03-25T14:35:13Z</time>
      </trkpt>
      <trkpt lat="38.171559" lon="-2.180268">
        <ele>1187.8</ele>
        <time>2017-03-25T14:35:29Z</time>
      </trkpt>
      <trkpt lat="38.171421" lon="-2.180442">
        <ele>1188.3</ele>
        <time>2017-03-25T14:35:42Z</time>
      </trkpt>
      <trkpt lat="38.171293" lon="-2.180618">
        <ele>1189.3</ele>
        <time>2017-03-25T14:35:58Z</time>
      </trkpt>
      <trkpt lat="38.171174" lon="-2.180816">
        <ele>1190.2</ele>
        <time>2017-03-25T14:36:13Z</time>
      </trkpt>
      <trkpt lat="38.171111" lon="-2.181032">
        <ele>1191.2</ele>
        <time>2017-03-25T14:36:27Z</time>
      </trkpt>
      <trkpt lat="38.171060" lon="-2.181308">
        <ele>1192.7</ele>
        <time>2017-03-25T14:36:44Z</time>
      </trkpt>
      <trkpt lat="38.170989" lon="-2.181599">
        <ele>1192.2</ele>
        <time>2017-03-25T14:37:02Z</time>
      </trkpt>
      <trkpt lat="38.170929" lon="-2.181856">
        <ele>1192.7</ele>
        <time>2017-03-25T14:37:18Z</time>
      </trkpt>
      <trkpt lat="38.170851" lon="-2.182119">
        <ele>1193.6</ele>
        <time>2017-03-25T14:37:34Z</time>
      </trkpt>
      <trkpt lat="38.170760" lon="-2.182426">
        <ele>1195.1</ele>
        <time>2017-03-25T14:37:53Z</time>
      </trkpt>
      <trkpt lat="38.170676" lon="-2.182702">
        <ele>1195.1</ele>
        <time>2017-03-25T14:38:09Z</time>
      </trkpt>
      <trkpt lat="38.170606" lon="-2.182956">
        <ele>1196.0</ele>
        <time>2017-03-25T14:38:24Z</time>
      </trkpt>
      <trkpt lat="38.170557" lon="-2.183160">
        <ele>1196.5</ele>
        <time>2017-03-25T14:38:36Z</time>
      </trkpt>
      <trkpt lat="38.170496" lon="-2.183429">
        <ele>1197.5</ele>
        <time>2017-03-25T14:38:52Z</time>
      </trkpt>
      <trkpt lat="38.170441" lon="-2.183664">
        <ele>1198.4</ele>
        <time>2017-03-25T14:39:07Z</time>
      </trkpt>
      <trkpt lat="38.170430" lon="-2.183765">
        <ele>1198.9</ele>
        <time>2017-03-25T14:39:13Z</time>
      </trkpt>
      <trkpt lat="38.170405" lon="-2.183879">
        <ele>1199.4</ele>
        <time>2017-03-25T14:39:21Z</time>
      </trkpt>
      <trkpt lat="38.170380" lon="-2.184142">
        <ele>1200.8</ele>
        <time>2017-03-25T14:39:37Z</time>
      </trkpt>
      <trkpt lat="38.170381" lon="-2.184475">
        <ele>1202.3</ele>
        <time>2017-03-25T14:39:59Z</time>
      </trkpt>
      <trkpt lat="38.170364" lon="-2.184835">
        <ele>1204.7</ele>
        <time>2017-03-25T14:40:23Z</time>
      </trkpt>
      <trkpt lat="38.170383" lon="-2.185113">
        <ele>1206.1</ele>
        <time>2017-03-25T14:40:40Z</time>
      </trkpt>
      <trkpt lat="38.170412" lon="-2.185403">
        <ele>1205.2</ele>
        <time>2017-03-25T14:40:58Z</time>
      </trkpt>
      <trkpt lat="38.170418" lon="-2.185719">
        <ele>1204.7</ele>
        <time>2017-03-25T14:41:16Z</time>
      </trkpt>
      <trkpt lat="38.170461" lon="-2.185949">
        <ele>1203.7</ele>
        <time>2017-03-25T14:41:31Z</time>
      </trkpt>
      <trkpt lat="38.170410" lon="-2.186325">
        <ele>1204.7</ele>
        <time>2017-03-25T14:41:53Z</time>
      </trkpt>
      <trkpt lat="38.170381" lon="-2.186641">
        <ele>1205.6</ele>
        <time>2017-03-25T14:42:13Z</time>
      </trkpt>
      <trkpt lat="38.170469" lon="-2.186997">
        <ele>1202.8</ele>
        <time>2017-03-25T14:42:37Z</time>
      </trkpt>
      <trkpt lat="38.170491" lon="-2.187305">
        <ele>1200.3</ele>
        <time>2017-03-25T14:42:55Z</time>
      </trkpt>
      <trkpt lat="38.170521" lon="-2.187638">
        <ele>1198.9</ele>
        <time>2017-03-25T14:43:17Z</time>
      </trkpt>
      <trkpt lat="38.170555" lon="-2.187970">
        <ele>1197.0</ele>
        <time>2017-03-25T14:43:38Z</time>
      </trkpt>
      <trkpt lat="38.170590" lon="-2.188272">
        <ele>1196.0</ele>
        <time>2017-03-25T14:43:56Z</time>
      </trkpt>
      <trkpt lat="38.170650" lon="-2.188526">
        <ele>1195.5</ele>
        <time>2017-03-25T14:44:12Z</time>
      </trkpt>
      <trkpt lat="38.170733" lon="-2.188765">
        <ele>1194.6</ele>
        <time>2017-03-25T14:44:30Z</time>
      </trkpt>
      <trkpt lat="38.170761" lon="-2.188814">
        <ele>1194.6</ele>
        <time>2017-03-25T14:44:33Z</time>
      </trkpt>
      <trkpt lat="38.170799" lon="-2.188880">
        <ele>1194.1</ele>
        <time>2017-03-25T14:44:48Z</time>
      </trkpt>
      <trkpt lat="38.170812" lon="-2.188910">
        <ele>1194.1</ele>
        <time>2017-03-25T14:45:01Z</time>
      </trkpt>
      <trkpt lat="38.170877" lon="-2.189106">
        <ele>1194.1</ele>
        <time>2017-03-25T14:45:14Z</time>
      </trkpt>
      <trkpt lat="38.170984" lon="-2.189307">
        <ele>1194.1</ele>
        <time>2017-03-25T14:45:29Z</time>
      </trkpt>
      <trkpt lat="38.170998" lon="-2.189332">
        <ele>1193.6</ele>
        <time>2017-03-25T14:45:31Z</time>
      </trkpt>
      <trkpt lat="38.171141" lon="-2.189545">
        <ele>1192.7</ele>
        <time>2017-03-25T14:45:47Z</time>
      </trkpt>
      <trkpt lat="38.171185" lon="-2.189723">
        <ele>1191.2</ele>
        <time>2017-03-25T14:46:01Z</time>
      </trkpt>
      <trkpt lat="38.171193" lon="-2.190004">
        <ele>1189.8</ele>
        <time>2017-03-25T14:46:18Z</time>
      </trkpt>
      <trkpt lat="38.171154" lon="-2.190287">
        <ele>1188.8</ele>
        <time>2017-03-25T14:46:33Z</time>
      </trkpt>
      <trkpt lat="38.171100" lon="-2.190650">
        <ele>1187.8</ele>
        <time>2017-03-25T14:46:53Z</time>
      </trkpt>
      <trkpt lat="38.170987" lon="-2.190931">
        <ele>1187.4</ele>
        <time>2017-03-25T14:47:10Z</time>
      </trkpt>
      <trkpt lat="38.170879" lon="-2.191199">
        <ele>1185.0</ele>
        <time>2017-03-25T14:47:27Z</time>
      </trkpt>
      <trkpt lat="38.170831" lon="-2.191301">
        <ele>1184.5</ele>
        <time>2017-03-25T14:47:36Z</time>
      </trkpt>
      <trkpt lat="38.170713" lon="-2.191555">
        <ele>1182.6</ele>
        <time>2017-03-25T14:47:52Z</time>
      </trkpt>
      <trkpt lat="38.170821" lon="-2.191620">
        <ele>1181.6</ele>
        <time>2017-03-25T14:49:39Z</time>
      </trkpt>
      <trkpt lat="38.170840" lon="-2.191609">
        <ele>1182.1</ele>
        <time>2017-03-25T14:49:51Z</time>
      </trkpt>
      <trkpt lat="38.170884" lon="-2.191602">
        <ele>1181.6</ele>
        <time>2017-03-25T14:50:15Z</time>
      </trkpt>
      <trkpt lat="38.170910" lon="-2.191605">
        <ele>1181.6</ele>
        <time>2017-03-25T14:50:17Z</time>
      </trkpt>
      <trkpt lat="38.170926" lon="-2.191615">
        <ele>1181.6</ele>
        <time>2017-03-25T14:50:19Z</time>
      </trkpt>
      <trkpt lat="38.170950" lon="-2.191622">
        <ele>1181.6</ele>
        <time>2017-03-25T14:50:32Z</time>
      </trkpt>
      <trkpt lat="38.171108" lon="-2.191570">
        <ele>1182.6</ele>
        <time>2017-03-25T14:50:48Z</time>
      </trkpt>
      <trkpt lat="38.171207" lon="-2.191563">
        <ele>1181.6</ele>
        <time>2017-03-25T14:51:01Z</time>
      </trkpt>
      <trkpt lat="38.171401" lon="-2.191543">
        <ele>1181.1</ele>
        <time>2017-03-25T14:51:15Z</time>
      </trkpt>
      <trkpt lat="38.171498" lon="-2.191605">
        <ele>1182.1</ele>
        <time>2017-03-25T14:51:26Z</time>
      </trkpt>
      <trkpt lat="38.171522" lon="-2.191636">
        <ele>1181.1</ele>
        <time>2017-03-25T14:51:33Z</time>
      </trkpt>
      <trkpt lat="38.171544" lon="-2.191680">
        <ele>1180.6</ele>
        <time>2017-03-25T14:51:44Z</time>
      </trkpt>
      <trkpt lat="38.171550" lon="-2.191714">
        <ele>1180.6</ele>
        <time>2017-03-25T14:51:47Z</time>
      </trkpt>
      <trkpt lat="38.171598" lon="-2.191799">
        <ele>1180.6</ele>
        <time>2017-03-25T14:51:56Z</time>
      </trkpt>
      <trkpt lat="38.171612" lon="-2.191816">
        <ele>1181.6</ele>
        <time>2017-03-25T14:51:58Z</time>
      </trkpt>
      <trkpt lat="38.171618" lon="-2.191842">
        <ele>1181.1</ele>
        <time>2017-03-25T14:52:00Z</time>
      </trkpt>
      <trkpt lat="38.171627" lon="-2.191855">
        <ele>1181.1</ele>
        <time>2017-03-25T14:52:02Z</time>
      </trkpt>
      <trkpt lat="38.171650" lon="-2.191874">
        <ele>1181.6</ele>
        <time>2017-03-25T14:52:21Z</time>
      </trkpt>
      <trkpt lat="38.171666" lon="-2.191953">
        <ele>1181.1</ele>
        <time>2017-03-25T14:52:31Z</time>
      </trkpt>
      <trkpt lat="38.171702" lon="-2.192030">
        <ele>1181.6</ele>
        <time>2017-03-25T14:52:43Z</time>
      </trkpt>
      <trkpt lat="38.171737" lon="-2.192105">
        <ele>1181.6</ele>
        <time>2017-03-25T14:52:54Z</time>
      </trkpt>
      <trkpt lat="38.171761" lon="-2.192194">
        <ele>1181.6</ele>
        <time>2017-03-25T14:53:00Z</time>
      </trkpt>
      <trkpt lat="38.171839" lon="-2.192378">
        <ele>1182.1</ele>
        <time>2017-03-25T14:53:16Z</time>
      </trkpt>
      <trkpt lat="38.171960" lon="-2.192669">
        <ele>1182.1</ele>
        <time>2017-03-25T14:53:36Z</time>
      </trkpt>
      <trkpt lat="38.172028" lon="-2.192774">
        <ele>1182.1</ele>
        <time>2017-03-25T14:53:44Z</time>
      </trkpt>
      <trkpt lat="38.172061" lon="-2.192886">
        <ele>1182.6</ele>
        <time>2017-03-25T14:54:25Z</time>
      </trkpt>
      <trkpt lat="38.172093" lon="-2.192930">
        <ele>1182.6</ele>
        <time>2017-03-25T14:54:28Z</time>
      </trkpt>
      <trkpt lat="38.172134" lon="-2.193027">
        <ele>1182.6</ele>
        <time>2017-03-25T14:54:45Z</time>
      </trkpt>
      <trkpt lat="38.172202" lon="-2.193382">
        <ele>1183.5</ele>
        <time>2017-03-25T14:55:04Z</time>
      </trkpt>
      <trkpt lat="38.172183" lon="-2.193510">
        <ele>1176.3</ele>
        <time>2017-03-25T14:55:10Z</time>
      </trkpt>
      <trkpt lat="38.172180" lon="-2.193526">
        <ele>1188.8</ele>
        <time>2017-03-25T14:55:11Z</time>
      </trkpt>
      <trkpt lat="38.172177" lon="-2.193541">
        <ele>1185.4</ele>
        <time>2017-03-25T14:55:12Z</time>
      </trkpt>
      <trkpt lat="38.172151" lon="-2.193740">
        <ele>1184.5</ele>
        <time>2017-03-25T14:55:27Z</time>
      </trkpt>
      <trkpt lat="38.172180" lon="-2.193859">
        <ele>1184.0</ele>
        <time>2017-03-25T14:55:45Z</time>
      </trkpt>
      <trkpt lat="38.172291" lon="-2.193982">
        <ele>1184.5</ele>
        <time>2017-03-25T14:56:00Z</time>
      </trkpt>
      <trkpt lat="38.172335" lon="-2.194022">
        <ele>1185.4</ele>
        <time>2017-03-25T14:56:05Z</time>
      </trkpt>
      <trkpt lat="38.172478" lon="-2.194085">
        <ele>1186.9</ele>
        <time>2017-03-25T14:56:19Z</time>
      </trkpt>
      <trkpt lat="38.172542" lon="-2.194160">
        <ele>1186.4</ele>
        <time>2017-03-25T14:56:27Z</time>
      </trkpt>
      <trkpt lat="38.172560" lon="-2.194330">
        <ele>1187.8</ele>
        <time>2017-03-25T14:56:41Z</time>
      </trkpt>
      <trkpt lat="38.172563" lon="-2.194322">
        <ele>1187.8</ele>
        <time>2017-03-25T14:56:43Z</time>
      </trkpt>
      <trkpt lat="38.172561" lon="-2.194395">
        <ele>1187.8</ele>
        <time>2017-03-25T14:56:50Z</time>
      </trkpt>
      <trkpt lat="38.172546" lon="-2.194575">
        <ele>1188.3</ele>
        <time>2017-03-25T14:57:06Z</time>
      </trkpt>
      <trkpt lat="38.172545" lon="-2.194569">
        <ele>1187.8</ele>
        <time>2017-03-25T14:57:13Z</time>
      </trkpt>
      <trkpt lat="38.172576" lon="-2.194640">
        <ele>1187.8</ele>
        <time>2017-03-25T14:57:29Z</time>
      </trkpt>
      <trkpt lat="38.172576" lon="-2.194960">
        <ele>1188.8</ele>
        <time>2017-03-25T14:57:44Z</time>
      </trkpt>
      <trkpt lat="38.172570" lon="-2.195209">
        <ele>1189.8</ele>
        <time>2017-03-25T14:57:57Z</time>
      </trkpt>
      <trkpt lat="38.172536" lon="-2.195279">
        <ele>1189.3</ele>
        <time>2017-03-25T14:58:02Z</time>
      </trkpt>
      <trkpt lat="38.172332" lon="-2.195290">
        <ele>1192.2</ele>
        <time>2017-03-25T14:58:18Z</time>
      </trkpt>
      <trkpt lat="38.172156" lon="-2.195330">
        <ele>1193.1</ele>
        <time>2017-03-25T14:58:31Z</time>
      </trkpt>
      <trkpt lat="38.171949" lon="-2.195553">
        <ele>1192.7</ele>
        <time>2017-03-25T14:58:50Z</time>
      </trkpt>
      <trkpt lat="38.171989" lon="-2.195888">
        <ele>1194.1</ele>
        <time>2017-03-25T14:59:09Z</time>
      </trkpt>
      <trkpt lat="38.171952" lon="-2.196162">
        <ele>1194.6</ele>
        <time>2017-03-25T14:59:26Z</time>
      </trkpt>
      <trkpt lat="38.171834" lon="-2.196277">
        <ele>1196.5</ele>
        <time>2017-03-25T14:59:38Z</time>
      </trkpt>
      <trkpt lat="38.171777" lon="-2.196339">
        <ele>1197.0</ele>
        <time>2017-03-25T14:59:44Z</time>
      </trkpt>
      <trkpt lat="38.171765" lon="-2.196428">
        <ele>1197.5</ele>
        <time>2017-03-25T14:59:49Z</time>
      </trkpt>
      <trkpt lat="38.171748" lon="-2.196759">
        <ele>1198.9</ele>
        <time>2017-03-25T15:00:06Z</time>
      </trkpt>
      <trkpt lat="38.171750" lon="-2.196963">
        <ele>1200.3</ele>
        <time>2017-03-25T15:00:19Z</time>
      </trkpt>
      <trkpt lat="38.171752" lon="-2.196984">
        <ele>1200.3</ele>
        <time>2017-03-25T15:00:21Z</time>
      </trkpt>
      <trkpt lat="38.171740" lon="-2.197109">
        <ele>1200.3</ele>
        <time>2017-03-25T15:00:28Z</time>
      </trkpt>
      <trkpt lat="38.171821" lon="-2.197287">
        <ele>1201.8</ele>
        <time>2017-03-25T15:00:41Z</time>
      </trkpt>
      <trkpt lat="38.171921" lon="-2.197395">
        <ele>1203.2</ele>
        <time>2017-03-25T15:00:52Z</time>
      </trkpt>
      <trkpt lat="38.171977" lon="-2.197450">
        <ele>1203.7</ele>
        <time>2017-03-25T15:00:58Z</time>
      </trkpt>
      <trkpt lat="38.172069" lon="-2.197547">
        <ele>1204.2</ele>
        <time>2017-03-25T15:01:07Z</time>
      </trkpt>
      <trkpt lat="38.172096" lon="-2.197603">
        <ele>1205.2</ele>
        <time>2017-03-25T15:01:11Z</time>
      </trkpt>
      <trkpt lat="38.172129" lon="-2.197741">
        <ele>1205.2</ele>
        <time>2017-03-25T15:01:20Z</time>
      </trkpt>
      <trkpt lat="38.172116" lon="-2.197854">
        <ele>1206.6</ele>
        <time>2017-03-25T15:01:27Z</time>
      </trkpt>
      <trkpt lat="38.172126" lon="-2.198021">
        <ele>1207.1</ele>
        <time>2017-03-25T15:01:37Z</time>
      </trkpt>
      <trkpt lat="38.172116" lon="-2.198176">
        <ele>1207.6</ele>
        <time>2017-03-25T15:01:46Z</time>
      </trkpt>
      <trkpt lat="38.172182" lon="-2.198450">
        <ele>1208.0</ele>
        <time>2017-03-25T15:02:03Z</time>
      </trkpt>
      <trkpt lat="38.172253" lon="-2.198589">
        <ele>1209.0</ele>
        <time>2017-03-25T15:02:13Z</time>
      </trkpt>
      <trkpt lat="38.172201" lon="-2.198844">
        <ele>1209.0</ele>
        <time>2017-03-25T15:02:30Z</time>
      </trkpt>
      <trkpt lat="38.172158" lon="-2.198987">
        <ele>1210.0</ele>
        <time>2017-03-25T15:02:40Z</time>
      </trkpt>
      <trkpt lat="38.172178" lon="-2.199269">
        <ele>1211.4</ele>
        <time>2017-03-25T15:02:57Z</time>
      </trkpt>
      <trkpt lat="38.172285" lon="-2.199528">
        <ele>1212.8</ele>
        <time>2017-03-25T15:03:13Z</time>
      </trkpt>
      <trkpt lat="38.172366" lon="-2.199737">
        <ele>1214.8</ele>
        <time>2017-03-25T15:03:27Z</time>
      </trkpt>
      <trkpt lat="38.172383" lon="-2.199856">
        <ele>1214.8</ele>
        <time>2017-03-25T15:03:35Z</time>
      </trkpt>
      <trkpt lat="38.172384" lon="-2.199922">
        <ele>1215.2</ele>
        <time>2017-03-25T15:03:39Z</time>
      </trkpt>
      <trkpt lat="38.172420" lon="-2.200205">
        <ele>1214.8</ele>
        <time>2017-03-25T15:03:57Z</time>
      </trkpt>
      <trkpt lat="38.172411" lon="-2.200545">
        <ele>1215.7</ele>
        <time>2017-03-25T15:04:19Z</time>
      </trkpt>
      <trkpt lat="38.172415" lon="-2.200886">
        <ele>1217.2</ele>
        <time>2017-03-25T15:04:41Z</time>
      </trkpt>
      <trkpt lat="38.172471" lon="-2.201244">
        <ele>1219.6</ele>
        <time>2017-03-25T15:05:03Z</time>
      </trkpt>
      <trkpt lat="38.172573" lon="-2.201513">
        <ele>1221.0</ele>
        <time>2017-03-25T15:05:23Z</time>
      </trkpt>
      <trkpt lat="38.172574" lon="-2.201536">
        <ele>1221.5</ele>
        <time>2017-03-25T15:05:25Z</time>
      </trkpt>
      <trkpt lat="38.172581" lon="-2.201587">
        <ele>1221.5</ele>
        <time>2017-03-25T15:05:28Z</time>
      </trkpt>
      <trkpt lat="38.172619" lon="-2.201785">
        <ele>1222.9</ele>
        <time>2017-03-25T15:05:41Z</time>
      </trkpt>
      <trkpt lat="38.172636" lon="-2.201898">
        <ele>1224.4</ele>
        <time>2017-03-25T15:05:48Z</time>
      </trkpt>
      <trkpt lat="38.172664" lon="-2.202199">
        <ele>1225.3</ele>
        <time>2017-03-25T15:06:07Z</time>
      </trkpt>
      <trkpt lat="38.172707" lon="-2.202342">
        <ele>1225.8</ele>
        <time>2017-03-25T15:06:16Z</time>
      </trkpt>
      <trkpt lat="38.172730" lon="-2.202479">
        <ele>1227.3</ele>
        <time>2017-03-25T15:06:24Z</time>
      </trkpt>
      <trkpt lat="38.172786" lon="-2.202694">
        <ele>1228.7</ele>
        <time>2017-03-25T15:06:38Z</time>
      </trkpt>
      <trkpt lat="38.172833" lon="-2.202904">
        <ele>1228.7</ele>
        <time>2017-03-25T15:06:51Z</time>
      </trkpt>
      <trkpt lat="38.172846" lon="-2.202933">
        <ele>1230.1</ele>
        <time>2017-03-25T15:06:53Z</time>
      </trkpt>
      <trkpt lat="38.172911" lon="-2.203142">
        <ele>1231.6</ele>
        <time>2017-03-25T15:07:06Z</time>
      </trkpt>
      <trkpt lat="38.172919" lon="-2.203155">
        <ele>1231.1</ele>
        <time>2017-03-25T15:07:07Z</time>
      </trkpt>
      <trkpt lat="38.173000" lon="-2.203279">
        <ele>1232.1</ele>
        <time>2017-03-25T15:07:22Z</time>
      </trkpt>
      <trkpt lat="38.173097" lon="-2.203440">
        <ele>1233.0</ele>
        <time>2017-03-25T15:07:35Z</time>
      </trkpt>
      <trkpt lat="38.173216" lon="-2.203632">
        <ele>1233.0</ele>
        <time>2017-03-25T15:07:50Z</time>
      </trkpt>
      <trkpt lat="38.173346" lon="-2.203746">
        <ele>1236.4</ele>
        <time>2017-03-25T15:08:02Z</time>
      </trkpt>
      <trkpt lat="38.173446" lon="-2.203837">
        <ele>1234.5</ele>
        <time>2017-03-25T15:08:12Z</time>
      </trkpt>
      <trkpt lat="38.173521" lon="-2.203866">
        <ele>1235.4</ele>
        <time>2017-03-25T15:08:22Z</time>
      </trkpt>
      <trkpt lat="38.173748" lon="-2.203946">
        <ele>1234.5</ele>
        <time>2017-03-25T15:08:39Z</time>
      </trkpt>
      <trkpt lat="38.173922" lon="-2.204093">
        <ele>1234.5</ele>
        <time>2017-03-25T15:08:53Z</time>
      </trkpt>
      <trkpt lat="38.173968" lon="-2.204146">
        <ele>1234.9</ele>
        <time>2017-03-25T15:08:57Z</time>
      </trkpt>
      <trkpt lat="38.174104" lon="-2.204308">
        <ele>1235.9</ele>
        <time>2017-03-25T15:09:12Z</time>
      </trkpt>
      <trkpt lat="38.174316" lon="-2.204428">
        <ele>1235.4</ele>
        <time>2017-03-25T15:09:28Z</time>
      </trkpt>
      <trkpt lat="38.174347" lon="-2.204434">
        <ele>1235.9</ele>
        <time>2017-03-25T15:09:30Z</time>
      </trkpt>
      <trkpt lat="38.174420" lon="-2.204446">
        <ele>1234.9</ele>
        <time>2017-03-25T15:09:35Z</time>
      </trkpt>
      <trkpt lat="38.174575" lon="-2.204579">
        <ele>1237.3</ele>
        <time>2017-03-25T15:09:50Z</time>
      </trkpt>
      <trkpt lat="38.174685" lon="-2.204724">
        <ele>1238.8</ele>
        <time>2017-03-25T15:10:06Z</time>
      </trkpt>
      <trkpt lat="38.174691" lon="-2.204724">
        <ele>1238.3</ele>
        <time>2017-03-25T15:10:24Z</time>
      </trkpt>
      <trkpt lat="38.174694" lon="-2.204716">
        <ele>1238.3</ele>
        <time>2017-03-25T15:10:50Z</time>
      </trkpt>
      <trkpt lat="38.174743" lon="-2.204772">
        <ele>1238.3</ele>
        <time>2017-03-25T15:11:13Z</time>
      </trkpt>
      <trkpt lat="38.174930" lon="-2.204782">
        <ele>1235.9</ele>
        <time>2017-03-25T15:11:29Z</time>
      </trkpt>
      <trkpt lat="38.175090" lon="-2.204818">
        <ele>1233.0</ele>
        <time>2017-03-25T15:11:43Z</time>
      </trkpt>
      <trkpt lat="38.175146" lon="-2.204838">
        <ele>1231.6</ele>
        <time>2017-03-25T15:11:48Z</time>
      </trkpt>
      <trkpt lat="38.175326" lon="-2.204882">
        <ele>1228.2</ele>
        <time>2017-03-25T15:12:04Z</time>
      </trkpt>
      <trkpt lat="38.175478" lon="-2.204919">
        <ele>1224.9</ele>
        <time>2017-03-25T15:12:16Z</time>
      </trkpt>
      <trkpt lat="38.175646" lon="-2.205023">
        <ele>1222.4</ele>
        <time>2017-03-25T15:12:31Z</time>
      </trkpt>
      <trkpt lat="38.175793" lon="-2.205151">
        <ele>1220.5</ele>
        <time>2017-03-25T15:12:45Z</time>
      </trkpt>
      <trkpt lat="38.175940" lon="-2.205243">
        <ele>1217.7</ele>
        <time>2017-03-25T15:13:02Z</time>
      </trkpt>
      <trkpt lat="38.175975" lon="-2.205236">
        <ele>1217.7</ele>
        <time>2017-03-25T15:13:08Z</time>
      </trkpt>
      <trkpt lat="38.176126" lon="-2.205287">
        <ele>1215.2</ele>
        <time>2017-03-25T15:13:22Z</time>
      </trkpt>
      <trkpt lat="38.176287" lon="-2.205283">
        <ele>1214.8</ele>
        <time>2017-03-25T15:13:36Z</time>
      </trkpt>
      <trkpt lat="38.176385" lon="-2.205246">
        <ele>1213.8</ele>
        <time>2017-03-25T15:13:45Z</time>
      </trkpt>
      <trkpt lat="38.176566" lon="-2.205163">
        <ele>1210.9</ele>
        <time>2017-03-25T15:14:01Z</time>
      </trkpt>
      <trkpt lat="38.176701" lon="-2.205148">
        <ele>1209.0</ele>
        <time>2017-03-25T15:14:13Z</time>
      </trkpt>
      <trkpt lat="38.176887" lon="-2.205112">
        <ele>1206.1</ele>
        <time>2017-03-25T15:14:28Z</time>
      </trkpt>
      <trkpt lat="38.177071" lon="-2.205046">
        <ele>1204.2</ele>
        <time>2017-03-25T15:14:42Z</time>
      </trkpt>
      <trkpt lat="38.177283" lon="-2.204940">
        <ele>1201.8</ele>
        <time>2017-03-25T15:14:59Z</time>
      </trkpt>
      <trkpt lat="38.177445" lon="-2.204739">
        <ele>1201.8</ele>
        <time>2017-03-25T15:15:16Z</time>
      </trkpt>
      <trkpt lat="38.177551" lon="-2.204572">
        <ele>1200.8</ele>
        <time>2017-03-25T15:15:29Z</time>
      </trkpt>
      <trkpt lat="38.177682" lon="-2.204438">
        <ele>1200.8</ele>
        <time>2017-03-25T15:15:42Z</time>
      </trkpt>
      <trkpt lat="38.177714" lon="-2.204419">
        <ele>1200.3</ele>
        <time>2017-03-25T15:15:45Z</time>
      </trkpt>
      <trkpt lat="38.177755" lon="-2.204393">
        <ele>1200.3</ele>
        <time>2017-03-25T15:15:49Z</time>
      </trkpt>
      <trkpt lat="38.177920" lon="-2.204280">
        <ele>1199.4</ele>
        <time>2017-03-25T15:16:05Z</time>
      </trkpt>
      <trkpt lat="38.178077" lon="-2.204175">
        <ele>1198.4</ele>
        <time>2017-03-25T15:16:19Z</time>
      </trkpt>
      <trkpt lat="38.178275" lon="-2.204078">
        <ele>1196.0</ele>
        <time>2017-03-25T15:16:36Z</time>
      </trkpt>
      <trkpt lat="38.178411" lon="-2.204175">
        <ele>1194.6</ele>
        <time>2017-03-25T15:16:49Z</time>
      </trkpt>
      <trkpt lat="38.178605" lon="-2.204233">
        <ele>1191.7</ele>
        <time>2017-03-25T15:17:05Z</time>
      </trkpt>
      <trkpt lat="38.178788" lon="-2.204354">
        <ele>1189.8</ele>
        <time>2017-03-25T15:17:19Z</time>
      </trkpt>
      <trkpt lat="38.178969" lon="-2.204428">
        <ele>1188.8</ele>
        <time>2017-03-25T15:17:34Z</time>
      </trkpt>
      <trkpt lat="38.179031" lon="-2.204374">
        <ele>1186.4</ele>
        <time>2017-03-25T15:17:38Z</time>
      </trkpt>
      <trkpt lat="38.179040" lon="-2.204364">
        <ele>1186.4</ele>
        <time>2017-03-25T15:17:39Z</time>
      </trkpt>
      <trkpt lat="38.179064" lon="-2.204325">
        <ele>1185.9</ele>
        <time>2017-03-25T15:17:43Z</time>
      </trkpt>
      <trkpt lat="38.179108" lon="-2.204099">
        <ele>1183.0</ele>
        <time>2017-03-25T15:17:57Z</time>
      </trkpt>
      <trkpt lat="38.179130" lon="-2.203929">
        <ele>1182.1</ele>
        <time>2017-03-25T15:18:09Z</time>
      </trkpt>
      <trkpt lat="38.179136" lon="-2.203882">
        <ele>1182.1</ele>
        <time>2017-03-25T15:18:16Z</time>
      </trkpt>
      <trkpt lat="38.179146" lon="-2.203858">
        <ele>1182.1</ele>
        <time>2017-03-25T15:18:18Z</time>
      </trkpt>
      <trkpt lat="38.179193" lon="-2.203829">
        <ele>1181.6</ele>
        <time>2017-03-25T15:18:22Z</time>
      </trkpt>
      <trkpt lat="38.179375" lon="-2.203736">
        <ele>1179.2</ele>
        <time>2017-03-25T15:18:36Z</time>
      </trkpt>
      <trkpt lat="38.179585" lon="-2.203559">
        <ele>1177.8</ele>
        <time>2017-03-25T15:18:52Z</time>
      </trkpt>
      <trkpt lat="38.179622" lon="-2.203481">
        <ele>1176.8</ele>
        <time>2017-03-25T15:18:57Z</time>
      </trkpt>
      <trkpt lat="38.179729" lon="-2.203272">
        <ele>1173.9</ele>
        <time>2017-03-25T15:19:11Z</time>
      </trkpt>
      <trkpt lat="38.179797" lon="-2.203208">
        <ele>1172.5</ele>
        <time>2017-03-25T15:19:17Z</time>
      </trkpt>
      <trkpt lat="38.179865" lon="-2.203153">
        <ele>1172.0</ele>
        <time>2017-03-25T15:19:23Z</time>
      </trkpt>
      <trkpt lat="38.179912" lon="-2.203125">
        <ele>1171.5</ele>
        <time>2017-03-25T15:19:27Z</time>
      </trkpt>
      <trkpt lat="38.180003" lon="-2.203039">
        <ele>1170.1</ele>
        <time>2017-03-25T15:19:34Z</time>
      </trkpt>
      <trkpt lat="38.180029" lon="-2.202985">
        <ele>1169.6</ele>
        <time>2017-03-25T15:19:37Z</time>
      </trkpt>
      <trkpt lat="38.180066" lon="-2.202888">
        <ele>1168.1</ele>
        <time>2017-03-25T15:19:44Z</time>
      </trkpt>
      <trkpt lat="38.180147" lon="-2.202826">
        <ele>1167.2</ele>
        <time>2017-03-25T15:19:51Z</time>
      </trkpt>
      <trkpt lat="38.180246" lon="-2.202823">
        <ele>1166.2</ele>
        <time>2017-03-25T15:19:58Z</time>
      </trkpt>
      <trkpt lat="38.180337" lon="-2.202838">
        <ele>1165.7</ele>
        <time>2017-03-25T15:20:05Z</time>
      </trkpt>
      <trkpt lat="38.180366" lon="-2.202833">
        <ele>1164.8</ele>
        <time>2017-03-25T15:20:07Z</time>
      </trkpt>
      <trkpt lat="38.180469" lon="-2.202829">
        <ele>1164.3</ele>
        <time>2017-03-25T15:20:14Z</time>
      </trkpt>
      <trkpt lat="38.180590" lon="-2.202793">
        <ele>1162.4</ele>
        <time>2017-03-25T15:20:22Z</time>
      </trkpt>
      <trkpt lat="38.180625" lon="-2.202788">
        <ele>1161.9</ele>
        <time>2017-03-25T15:20:25Z</time>
      </trkpt>
      <trkpt lat="38.180705" lon="-2.202748">
        <ele>1160.4</ele>
        <time>2017-03-25T15:20:31Z</time>
      </trkpt>
      <trkpt lat="38.180934" lon="-2.202692">
        <ele>1158.1</ele>
        <time>2017-03-25T15:20:46Z</time>
      </trkpt>
      <trkpt lat="38.181150" lon="-2.202660">
        <ele>1156.6</ele>
        <time>2017-03-25T15:21:01Z</time>
      </trkpt>
      <trkpt lat="38.181337" lon="-2.202557">
        <ele>1154.2</ele>
        <time>2017-03-25T15:21:14Z</time>
      </trkpt>
      <trkpt lat="38.181482" lon="-2.202344">
        <ele>1153.2</ele>
        <time>2017-03-25T15:21:29Z</time>
      </trkpt>
      <trkpt lat="38.181617" lon="-2.202134">
        <ele>1150.8</ele>
        <time>2017-03-25T15:21:44Z</time>
      </trkpt>
      <trkpt lat="38.181744" lon="-2.202022">
        <ele>1148.9</ele>
        <time>2017-03-25T15:21:55Z</time>
      </trkpt>
      <trkpt lat="38.181905" lon="-2.201893">
        <ele>1146.0</ele>
        <time>2017-03-25T15:22:09Z</time>
      </trkpt>
      <trkpt lat="38.181944" lon="-2.201757">
        <ele>1145.6</ele>
        <time>2017-03-25T15:22:16Z</time>
      </trkpt>
      <trkpt lat="38.182003" lon="-2.201641">
        <ele>1144.6</ele>
        <time>2017-03-25T15:22:24Z</time>
      </trkpt>
      <trkpt lat="38.182030" lon="-2.201605">
        <ele>1144.1</ele>
        <time>2017-03-25T15:22:28Z</time>
      </trkpt>
      <trkpt lat="38.182071" lon="-2.201575">
        <ele>1143.1</ele>
        <time>2017-03-25T15:22:32Z</time>
      </trkpt>
      <trkpt lat="38.182223" lon="-2.201485">
        <ele>1140.7</ele>
        <time>2017-03-25T15:22:45Z</time>
      </trkpt>
      <trkpt lat="38.182309" lon="-2.201437">
        <ele>1138.3</ele>
        <time>2017-03-25T15:22:56Z</time>
      </trkpt>
      <trkpt lat="38.182418" lon="-2.201402">
        <ele>1136.4</ele>
        <time>2017-03-25T15:23:09Z</time>
      </trkpt>
      <trkpt lat="38.182532" lon="-2.201391">
        <ele>1135.4</ele>
        <time>2017-03-25T15:23:16Z</time>
      </trkpt>
      <trkpt lat="38.182625" lon="-2.201325">
        <ele>1134.0</ele>
        <time>2017-03-25T15:23:23Z</time>
      </trkpt>
      <trkpt lat="38.182660" lon="-2.201281">
        <ele>1133.5</ele>
        <time>2017-03-25T15:23:27Z</time>
      </trkpt>
      <trkpt lat="38.182690" lon="-2.201228">
        <ele>1132.6</ele>
        <time>2017-03-25T15:23:31Z</time>
      </trkpt>
      <trkpt lat="38.182783" lon="-2.201089">
        <ele>1128.7</ele>
        <time>2017-03-25T15:23:43Z</time>
      </trkpt>
      <trkpt lat="38.182800" lon="-2.201045">
        <ele>1128.7</ele>
        <time>2017-03-25T15:23:46Z</time>
      </trkpt>
      <trkpt lat="38.182987" lon="-2.200826">
        <ele>1126.3</ele>
        <time>2017-03-25T15:24:01Z</time>
      </trkpt>
      <trkpt lat="38.183150" lon="-2.200606">
        <ele>1124.4</ele>
        <time>2017-03-25T15:24:18Z</time>
      </trkpt>
      <trkpt lat="38.183276" lon="-2.200435">
        <ele>1122.0</ele>
        <time>2017-03-25T15:24:32Z</time>
      </trkpt>
      <trkpt lat="38.183321" lon="-2.200327">
        <ele>1120.1</ele>
        <time>2017-03-25T15:24:44Z</time>
      </trkpt>
      <trkpt lat="38.183402" lon="-2.200216">
        <ele>1118.2</ele>
        <time>2017-03-25T15:24:53Z</time>
      </trkpt>
      <trkpt lat="38.183415" lon="-2.200205">
        <ele>1118.2</ele>
        <time>2017-03-25T15:24:54Z</time>
      </trkpt>
      <trkpt lat="38.183428" lon="-2.200194">
        <ele>1117.2</ele>
        <time>2017-03-25T15:24:55Z</time>
      </trkpt>
      <trkpt lat="38.183436" lon="-2.200185">
        <ele>1117.7</ele>
        <time>2017-03-25T15:24:56Z</time>
      </trkpt>
      <trkpt lat="38.183444" lon="-2.200173">
        <ele>1116.7</ele>
        <time>2017-03-25T15:24:57Z</time>
      </trkpt>
      <trkpt lat="38.183452" lon="-2.200161">
        <ele>1117.2</ele>
        <time>2017-03-25T15:24:58Z</time>
      </trkpt>
      <trkpt lat="38.183593" lon="-2.199928">
        <ele>1114.8</ele>
        <time>2017-03-25T15:25:14Z</time>
      </trkpt>
      <trkpt lat="38.183694" lon="-2.199804">
        <ele>1113.8</ele>
        <time>2017-03-25T15:25:29Z</time>
      </trkpt>
      <trkpt lat="38.183702" lon="-2.199809">
        <ele>1113.3</ele>
        <time>2017-03-25T15:25:30Z</time>
      </trkpt>
      <trkpt lat="38.183709" lon="-2.199814">
        <ele>1113.3</ele>
        <time>2017-03-25T15:25:31Z</time>
      </trkpt>
      <trkpt lat="38.183716" lon="-2.199857">
        <ele>1112.9</ele>
        <time>2017-03-25T15:25:36Z</time>
      </trkpt>
      <trkpt lat="38.183707" lon="-2.200146">
        <ele>1112.9</ele>
        <time>2017-03-25T15:25:52Z</time>
      </trkpt>
      <trkpt lat="38.183734" lon="-2.200423">
        <ele>1111.9</ele>
        <time>2017-03-25T15:26:08Z</time>
      </trkpt>
      <trkpt lat="38.183770" lon="-2.200538">
        <ele>1110.0</ele>
        <time>2017-03-25T15:26:18Z</time>
      </trkpt>
      <trkpt lat="38.183797" lon="-2.200625">
        <ele>1110.0</ele>
        <time>2017-03-25T15:26:23Z</time>
      </trkpt>
      <trkpt lat="38.183799" lon="-2.200644">
        <ele>1109.5</ele>
        <time>2017-03-25T15:26:24Z</time>
      </trkpt>
      <trkpt lat="38.183813" lon="-2.200701">
        <ele>1110.0</ele>
        <time>2017-03-25T15:26:28Z</time>
      </trkpt>
      <trkpt lat="38.183816" lon="-2.200715">
        <ele>1109.0</ele>
        <time>2017-03-25T15:26:29Z</time>
      </trkpt>
      <trkpt lat="38.183871" lon="-2.201009">
        <ele>1108.1</ele>
        <time>2017-03-25T15:26:45Z</time>
      </trkpt>
      <trkpt lat="38.183898" lon="-2.201169">
        <ele>1106.1</ele>
        <time>2017-03-25T15:26:54Z</time>
      </trkpt>
      <trkpt lat="38.183960" lon="-2.201337">
        <ele>1105.2</ele>
        <time>2017-03-25T15:27:03Z</time>
      </trkpt>
      <trkpt lat="38.183969" lon="-2.201349">
        <ele>1105.2</ele>
        <time>2017-03-25T15:27:04Z</time>
      </trkpt>
      <trkpt lat="38.183978" lon="-2.201360">
        <ele>1104.7</ele>
        <time>2017-03-25T15:27:05Z</time>
      </trkpt>
      <trkpt lat="38.183986" lon="-2.201375">
        <ele>1105.2</ele>
        <time>2017-03-25T15:27:06Z</time>
      </trkpt>
      <trkpt lat="38.183991" lon="-2.201391">
        <ele>1104.2</ele>
        <time>2017-03-25T15:27:07Z</time>
      </trkpt>
      <trkpt lat="38.183996" lon="-2.201409">
        <ele>1104.7</ele>
        <time>2017-03-25T15:27:08Z</time>
      </trkpt>
      <trkpt lat="38.184003" lon="-2.201427">
        <ele>1104.2</ele>
        <time>2017-03-25T15:27:09Z</time>
      </trkpt>
      <trkpt lat="38.184011" lon="-2.201439">
        <ele>1103.7</ele>
        <time>2017-03-25T15:27:10Z</time>
      </trkpt>
      <trkpt lat="38.184166" lon="-2.201667">
        <ele>1100.4</ele>
        <time>2017-03-25T15:27:26Z</time>
      </trkpt>
      <trkpt lat="38.184249" lon="-2.201859">
        <ele>1098.9</ele>
        <time>2017-03-25T15:27:38Z</time>
      </trkpt>
      <trkpt lat="38.184331" lon="-2.202045">
        <ele>1096.0</ele>
        <time>2017-03-25T15:27:51Z</time>
      </trkpt>
      <trkpt lat="38.184378" lon="-2.202275">
        <ele>1093.6</ele>
        <time>2017-03-25T15:28:06Z</time>
      </trkpt>
      <trkpt lat="38.184371" lon="-2.202342">
        <ele>1092.7</ele>
        <time>2017-03-25T15:28:10Z</time>
      </trkpt>
      <trkpt lat="38.184368" lon="-2.202585">
        <ele>1091.2</ele>
        <time>2017-03-25T15:28:23Z</time>
      </trkpt>
      <trkpt lat="38.184374" lon="-2.202604">
        <ele>1090.8</ele>
        <time>2017-03-25T15:28:24Z</time>
      </trkpt>
      <trkpt lat="38.184379" lon="-2.202621">
        <ele>1090.3</ele>
        <time>2017-03-25T15:28:25Z</time>
      </trkpt>
      <trkpt lat="38.184386" lon="-2.202638">
        <ele>1090.3</ele>
        <time>2017-03-25T15:28:26Z</time>
      </trkpt>
      <trkpt lat="38.184391" lon="-2.202655">
        <ele>1089.8</ele>
        <time>2017-03-25T15:28:27Z</time>
      </trkpt>
      <trkpt lat="38.184395" lon="-2.202673">
        <ele>1089.8</ele>
        <time>2017-03-25T15:28:28Z</time>
      </trkpt>
      <trkpt lat="38.184399" lon="-2.202692">
        <ele>1089.3</ele>
        <time>2017-03-25T15:28:29Z</time>
      </trkpt>
      <trkpt lat="38.184421" lon="-2.202989">
        <ele>1086.9</ele>
        <time>2017-03-25T15:28:44Z</time>
      </trkpt>
      <trkpt lat="38.184422" lon="-2.203006">
        <ele>1086.4</ele>
        <time>2017-03-25T15:28:45Z</time>
      </trkpt>
      <trkpt lat="38.184422" lon="-2.203025">
        <ele>1085.9</ele>
        <time>2017-03-25T15:28:46Z</time>
      </trkpt>
      <trkpt lat="38.184422" lon="-2.203042">
        <ele>1086.4</ele>
        <time>2017-03-25T15:28:47Z</time>
      </trkpt>
      <trkpt lat="38.184424" lon="-2.203063">
        <ele>1085.9</ele>
        <time>2017-03-25T15:28:48Z</time>
      </trkpt>
      <trkpt lat="38.184480" lon="-2.203272">
        <ele>1083.1</ele>
        <time>2017-03-25T15:28:59Z</time>
      </trkpt>
      <trkpt lat="38.184521" lon="-2.203394">
        <ele>1080.7</ele>
        <time>2017-03-25T15:29:07Z</time>
      </trkpt>
      <trkpt lat="38.184507" lon="-2.203498">
        <ele>1079.7</ele>
        <time>2017-03-25T15:29:13Z</time>
      </trkpt>
      <trkpt lat="38.184507" lon="-2.203530">
        <ele>1079.7</ele>
        <time>2017-03-25T15:29:15Z</time>
      </trkpt>
      <trkpt lat="38.184504" lon="-2.203549">
        <ele>1079.7</ele>
        <time>2017-03-25T15:29:16Z</time>
      </trkpt>
      <trkpt lat="38.184502" lon="-2.203568">
        <ele>1078.7</ele>
        <time>2017-03-25T15:29:17Z</time>
      </trkpt>
      <trkpt lat="38.184499" lon="-2.203588">
        <ele>1077.8</ele>
        <time>2017-03-25T15:29:18Z</time>
      </trkpt>
      <trkpt lat="38.184496" lon="-2.203607">
        <ele>1078.3</ele>
        <time>2017-03-25T15:29:19Z</time>
      </trkpt>
      <trkpt lat="38.184496" lon="-2.203628">
        <ele>1078.3</ele>
        <time>2017-03-25T15:29:20Z</time>
      </trkpt>
      <trkpt lat="38.184498" lon="-2.203648">
        <ele>1077.3</ele>
        <time>2017-03-25T15:29:21Z</time>
      </trkpt>
      <trkpt lat="38.184499" lon="-2.203666">
        <ele>1076.8</ele>
        <time>2017-03-25T15:29:22Z</time>
      </trkpt>
      <trkpt lat="38.184458" lon="-2.203977">
        <ele>1074.4</ele>
        <time>2017-03-25T15:29:39Z</time>
      </trkpt>
      <trkpt lat="38.184450" lon="-2.204078">
        <ele>1073.4</ele>
        <time>2017-03-25T15:29:44Z</time>
      </trkpt>
      <trkpt lat="38.184438" lon="-2.204361">
        <ele>1071.5</ele>
        <time>2017-03-25T15:29:59Z</time>
      </trkpt>
      <trkpt lat="38.184434" lon="-2.204402">
        <ele>1071.1</ele>
        <time>2017-03-25T15:30:01Z</time>
      </trkpt>
      <trkpt lat="38.184429" lon="-2.204438">
        <ele>1070.1</ele>
        <time>2017-03-25T15:30:03Z</time>
      </trkpt>
      <trkpt lat="38.184426" lon="-2.204453">
        <ele>1070.6</ele>
        <time>2017-03-25T15:30:04Z</time>
      </trkpt>
      <trkpt lat="38.184422" lon="-2.204470">
        <ele>1070.1</ele>
        <time>2017-03-25T15:30:05Z</time>
      </trkpt>
      <trkpt lat="38.184418" lon="-2.204487">
        <ele>1070.1</ele>
        <time>2017-03-25T15:30:06Z</time>
      </trkpt>
      <trkpt lat="38.184415" lon="-2.204503">
        <ele>1070.1</ele>
        <time>2017-03-25T15:30:07Z</time>
      </trkpt>
      <trkpt lat="38.184411" lon="-2.204521">
        <ele>1069.1</ele>
        <time>2017-03-25T15:30:08Z</time>
      </trkpt>
      <trkpt lat="38.184407" lon="-2.204540">
        <ele>1069.1</ele>
        <time>2017-03-25T15:30:09Z</time>
      </trkpt>
      <trkpt lat="38.184327" lon="-2.204777">
        <ele>1068.6</ele>
        <time>2017-03-25T15:30:23Z</time>
      </trkpt>
      <trkpt lat="38.184037" lon="-2.205363">
        <ele>1066.7</ele>
        <time>2017-03-25T15:31:36Z</time>
      </trkpt>
      <trkpt lat="38.184018" lon="-2.205469">
        <ele>1066.7</ele>
        <time>2017-03-25T15:31:48Z</time>
      </trkpt>
      <trkpt lat="38.183972" lon="-2.205643">
        <ele>1067.2</ele>
        <time>2017-03-25T15:32:01Z</time>
      </trkpt>
      <trkpt lat="38.183956" lon="-2.205917">
        <ele>1066.2</ele>
        <time>2017-03-25T15:32:16Z</time>
      </trkpt>
      <trkpt lat="38.183955" lon="-2.205936">
        <ele>1066.7</ele>
        <time>2017-03-25T15:32:17Z</time>
      </trkpt>
      <trkpt lat="38.183955" lon="-2.205955">
        <ele>1067.2</ele>
        <time>2017-03-25T15:32:18Z</time>
      </trkpt>
      <trkpt lat="38.183952" lon="-2.205977">
        <ele>1066.7</ele>
        <time>2017-03-25T15:32:19Z</time>
      </trkpt>
      <trkpt lat="38.183962" lon="-2.206248">
        <ele>1067.2</ele>
        <time>2017-03-25T15:32:35Z</time>
      </trkpt>
      <trkpt lat="38.183954" lon="-2.206515">
        <ele>1068.2</ele>
        <time>2017-03-25T15:32:51Z</time>
      </trkpt>
      <trkpt lat="38.183942" lon="-2.206558">
        <ele>1067.7</ele>
        <time>2017-03-25T15:32:54Z</time>
      </trkpt>
      <trkpt lat="38.183941" lon="-2.206571">
        <ele>1067.7</ele>
        <time>2017-03-25T15:32:55Z</time>
      </trkpt>
      <trkpt lat="38.183939" lon="-2.206589">
        <ele>1068.2</ele>
        <time>2017-03-25T15:32:56Z</time>
      </trkpt>
      <trkpt lat="38.183863" lon="-2.206829">
        <ele>1067.7</ele>
        <time>2017-03-25T15:33:11Z</time>
      </trkpt>
      <trkpt lat="38.183804" lon="-2.207103">
        <ele>1068.2</ele>
        <time>2017-03-25T15:33:28Z</time>
      </trkpt>
      <trkpt lat="38.183787" lon="-2.207394">
        <ele>1068.6</ele>
        <time>2017-03-25T15:33:45Z</time>
      </trkpt>
      <trkpt lat="38.183684" lon="-2.207613">
        <ele>1070.1</ele>
        <time>2017-03-25T15:34:00Z</time>
      </trkpt>
      <trkpt lat="38.183575" lon="-2.207819">
        <ele>1071.5</ele>
        <time>2017-03-25T15:34:16Z</time>
      </trkpt>
      <trkpt lat="38.183501" lon="-2.207902">
        <ele>1070.6</ele>
        <time>2017-03-25T15:34:28Z</time>
      </trkpt>
      <trkpt lat="38.183383" lon="-2.208099">
        <ele>1069.1</ele>
        <time>2017-03-25T15:34:43Z</time>
      </trkpt>
      <trkpt lat="38.183355" lon="-2.208250">
        <ele>1069.1</ele>
        <time>2017-03-25T15:34:52Z</time>
      </trkpt>
      <trkpt lat="38.183372" lon="-2.208539">
        <ele>1066.7</ele>
        <time>2017-03-25T15:35:09Z</time>
      </trkpt>
      <trkpt lat="38.183392" lon="-2.208693">
        <ele>1066.7</ele>
        <time>2017-03-25T15:35:18Z</time>
      </trkpt>
      <trkpt lat="38.183376" lon="-2.208793">
        <ele>1065.8</ele>
        <time>2017-03-25T15:35:24Z</time>
      </trkpt>
      <trkpt lat="38.183349" lon="-2.208820">
        <ele>1065.8</ele>
        <time>2017-03-25T15:35:30Z</time>
      </trkpt>
      <trkpt lat="38.183355" lon="-2.208888">
        <ele>1071.5</ele>
        <time>2017-05-06T06:59:54Z</time>
      </trkpt>
      <trkpt lat="38.183331" lon="-2.209029">
        <ele>1071.5</ele>
        <time>2017-05-06T07:00:07Z</time>
      </trkpt>
      <trkpt lat="38.183326" lon="-2.209042">
        <ele>1072.0</ele>
        <time>2017-05-06T07:00:08Z</time>
      </trkpt>
      <trkpt lat="38.183178" lon="-2.209274">
        <ele>1071.5</ele>
        <time>2017-05-06T07:00:27Z</time>
      </trkpt>
      <trkpt lat="38.183072" lon="-2.209460">
        <ele>1071.5</ele>
        <time>2017-05-06T07:00:41Z</time>
      </trkpt>
      <trkpt lat="38.182952" lon="-2.209711">
        <ele>1072.0</ele>
        <time>2017-05-06T07:00:55Z</time>
      </trkpt>
      <trkpt lat="38.182837" lon="-2.209948">
        <ele>1072.0</ele>
        <time>2017-05-06T07:01:10Z</time>
      </trkpt>
      <trkpt lat="38.182670" lon="-2.210309">
        <ele>1071.1</ele>
        <time>2017-05-06T07:01:46Z</time>
      </trkpt>
      <trkpt lat="38.182597" lon="-2.210572">
        <ele>1069.1</ele>
        <time>2017-05-06T07:02:01Z</time>
      </trkpt>
      <trkpt lat="38.182592" lon="-2.210692">
        <ele>1068.6</ele>
        <time>2017-05-06T07:02:15Z</time>
      </trkpt>
      <trkpt lat="38.182544" lon="-2.210906">
        <ele>1068.2</ele>
        <time>2017-05-06T07:02:29Z</time>
      </trkpt>
      <trkpt lat="38.182480" lon="-2.211025">
        <ele>1067.7</ele>
        <time>2017-05-06T07:02:44Z</time>
      </trkpt>
      <trkpt lat="38.182458" lon="-2.211088">
        <ele>1067.7</ele>
        <time>2017-05-06T07:02:56Z</time>
      </trkpt>
      <trkpt lat="38.182448" lon="-2.211099">
        <ele>1067.2</ele>
        <time>2017-05-06T07:02:57Z</time>
      </trkpt>
      <trkpt lat="38.182438" lon="-2.211111">
        <ele>1067.2</ele>
        <time>2017-05-06T07:02:58Z</time>
      </trkpt>
      <trkpt lat="38.182426" lon="-2.211125">
        <ele>1067.7</ele>
        <time>2017-05-06T07:02:59Z</time>
      </trkpt>
      <trkpt lat="38.182419" lon="-2.211132">
        <ele>1068.2</ele>
        <time>2017-05-06T07:03:00Z</time>
      </trkpt>
      <trkpt lat="38.182408" lon="-2.211140">
        <ele>1068.2</ele>
        <time>2017-05-06T07:03:01Z</time>
      </trkpt>
      <trkpt lat="38.182232" lon="-2.211398">
        <ele>1067.7</ele>
        <time>2017-05-06T07:03:22Z</time>
      </trkpt>
      <trkpt lat="38.182224" lon="-2.211402">
        <ele>1067.7</ele>
        <time>2017-05-06T07:03:31Z</time>
      </trkpt>
      <trkpt lat="38.182212" lon="-2.211401">
        <ele>1067.7</ele>
        <time>2017-05-06T07:03:32Z</time>
      </trkpt>
      <trkpt lat="38.181812" lon="-2.211666">
        <ele>1064.8</ele>
        <time>2017-05-06T07:04:11Z</time>
      </trkpt>
      <trkpt lat="38.181754" lon="-2.211730">
        <ele>1064.3</ele>
        <time>2017-05-06T07:04:20Z</time>
      </trkpt>
      <trkpt lat="38.181645" lon="-2.211753">
        <ele>1063.4</ele>
        <time>2017-05-06T07:04:32Z</time>
      </trkpt>
      <trkpt lat="38.181636" lon="-2.211755">
        <ele>1063.4</ele>
        <time>2017-05-06T07:04:35Z</time>
      </trkpt>
      <trkpt lat="38.181616" lon="-2.211762">
        <ele>1062.9</ele>
        <time>2017-05-06T07:04:37Z</time>
      </trkpt>
      <trkpt lat="38.181601" lon="-2.211765">
        <ele>1062.9</ele>
        <time>2017-05-06T07:04:38Z</time>
      </trkpt>
      <trkpt lat="38.181586" lon="-2.211766">
        <ele>1062.4</ele>
        <time>2017-05-06T07:04:39Z</time>
      </trkpt>
      <trkpt lat="38.181317" lon="-2.211809">
        <ele>1060.0</ele>
        <time>2017-05-06T07:05:17Z</time>
      </trkpt>
      <trkpt lat="38.181113" lon="-2.212001">
        <ele>1060.5</ele>
        <time>2017-05-06T07:05:33Z</time>
      </trkpt>
      <trkpt lat="38.181059" lon="-2.212113">
        <ele>1059.5</ele>
        <time>2017-05-06T07:05:41Z</time>
      </trkpt>
      <trkpt lat="38.180800" lon="-2.212292">
        <ele>1060.9</ele>
        <time>2017-05-06T07:06:53Z</time>
      </trkpt>
      <trkpt lat="38.180197" lon="-2.212634">
        <ele>1057.6</ele>
        <time>2017-05-06T07:07:55Z</time>
      </trkpt>
      <trkpt lat="38.179993" lon="-2.212858">
        <ele>1057.1</ele>
        <time>2017-05-06T07:08:15Z</time>
      </trkpt>
      <trkpt lat="38.179768" lon="-2.213018">
        <ele>1056.6</ele>
        <time>2017-05-06T07:08:31Z</time>
      </trkpt>
      <trkpt lat="38.179754" lon="-2.213212">
        <ele>1056.2</ele>
        <time>2017-05-06T07:08:44Z</time>
      </trkpt>
      <trkpt lat="38.179757" lon="-2.213379">
        <ele>1054.2</ele>
        <time>2017-05-06T07:08:53Z</time>
      </trkpt>
      <trkpt lat="38.179809" lon="-2.213586">
        <ele>1052.3</ele>
        <time>2017-05-06T07:09:07Z</time>
      </trkpt>
      <trkpt lat="38.179910" lon="-2.213824">
        <ele>1051.3</ele>
        <time>2017-05-06T07:09:24Z</time>
      </trkpt>
      <trkpt lat="38.179884" lon="-2.214000">
        <ele>1050.9</ele>
        <time>2017-05-06T07:09:31Z</time>
      </trkpt>
      <trkpt lat="38.179893" lon="-2.214175">
        <ele>1048.0</ele>
        <time>2017-05-06T07:09:42Z</time>
      </trkpt>
      <trkpt lat="38.179873" lon="-2.214388">
        <ele>1046.5</ele>
        <time>2017-05-06T07:09:58Z</time>
      </trkpt>
      <trkpt lat="38.179849" lon="-2.214563">
        <ele>1044.6</ele>
        <time>2017-05-06T07:10:07Z</time>
      </trkpt>
      <trkpt lat="38.179793" lon="-2.214783">
        <ele>1042.2</ele>
        <time>2017-05-06T07:10:23Z</time>
      </trkpt>
      <trkpt lat="38.179635" lon="-2.215123">
        <ele>1042.2</ele>
        <time>2017-05-06T07:10:25Z</time>
      </trkpt>
      <trkpt lat="38.179482" lon="-2.215168">
        <ele>1039.8</ele>
        <time>2017-05-06T07:10:50Z</time>
      </trkpt>
      <trkpt lat="38.179208" lon="-2.215292">
        <ele>1040.3</ele>
        <time>2017-05-06T07:11:29Z</time>
      </trkpt>
      <trkpt lat="38.179148" lon="-2.215329">
        <ele>1041.2</ele>
        <time>2017-05-06T07:11:47Z</time>
      </trkpt>
      <trkpt lat="38.178938" lon="-2.215512">
        <ele>1039.8</ele>
        <time>2017-05-06T07:12:01Z</time>
      </trkpt>
      <trkpt lat="38.178762" lon="-2.215735">
        <ele>1040.3</ele>
        <time>2017-05-06T07:12:18Z</time>
      </trkpt>
      <trkpt lat="38.178701" lon="-2.215798">
        <ele>1039.8</ele>
        <time>2017-05-06T07:12:25Z</time>
      </trkpt>
      <trkpt lat="38.178484" lon="-2.215856">
        <ele>1039.3</ele>
        <time>2017-05-06T07:12:41Z</time>
      </trkpt>
      <trkpt lat="38.178280" lon="-2.215903">
        <ele>1038.8</ele>
        <time>2017-05-06T07:12:55Z</time>
      </trkpt>
      <trkpt lat="38.178057" lon="-2.215950">
        <ele>1039.3</ele>
        <time>2017-05-06T07:13:09Z</time>
      </trkpt>
      <trkpt lat="38.177944" lon="-2.215989">
        <ele>1039.8</ele>
        <time>2017-05-06T07:13:16Z</time>
      </trkpt>
      <trkpt lat="38.177763" lon="-2.216204">
        <ele>1040.8</ele>
        <time>2017-05-06T07:13:32Z</time>
      </trkpt>
      <trkpt lat="38.177560" lon="-2.216323">
        <ele>1043.2</ele>
        <time>2017-05-06T07:13:48Z</time>
      </trkpt>
      <trkpt lat="38.177390" lon="-2.216437">
        <ele>1045.1</ele>
        <time>2017-05-06T07:14:01Z</time>
      </trkpt>
      <trkpt lat="38.177248" lon="-2.216624">
        <ele>1047.0</ele>
        <time>2017-05-06T07:14:12Z</time>
      </trkpt>
      <trkpt lat="38.177109" lon="-2.216808">
        <ele>1047.5</ele>
        <time>2017-05-06T07:14:25Z</time>
      </trkpt>
      <trkpt lat="38.176989" lon="-2.216967">
        <ele>1048.9</ele>
        <time>2017-05-06T07:14:38Z</time>
      </trkpt>
      <trkpt lat="38.176858" lon="-2.217126">
        <ele>1048.9</ele>
        <time>2017-05-06T07:14:49Z</time>
      </trkpt>
      <trkpt lat="38.176714" lon="-2.217278">
        <ele>1049.9</ele>
        <time>2017-05-06T07:15:01Z</time>
      </trkpt>
      <trkpt lat="38.176557" lon="-2.217493">
        <ele>1050.4</ele>
        <time>2017-05-06T07:15:15Z</time>
      </trkpt>
      <trkpt lat="38.176400" lon="-2.217698">
        <ele>1051.3</ele>
        <time>2017-05-06T07:15:31Z</time>
      </trkpt>
      <trkpt lat="38.176281" lon="-2.217870">
        <ele>1052.8</ele>
        <time>2017-05-06T07:15:43Z</time>
      </trkpt>
      <trkpt lat="38.176225" lon="-2.217961">
        <ele>1053.3</ele>
        <time>2017-05-06T07:15:49Z</time>
      </trkpt>
      <trkpt lat="38.176126" lon="-2.218064">
        <ele>1053.7</ele>
        <time>2017-05-06T07:16:02Z</time>
      </trkpt>
      <trkpt lat="38.176095" lon="-2.218161">
        <ele>1053.7</ele>
        <time>2017-05-06T07:16:17Z</time>
      </trkpt>
      <trkpt lat="38.175960" lon="-2.218384">
        <ele>1053.7</ele>
        <time>2017-05-06T07:16:30Z</time>
      </trkpt>
      <trkpt lat="38.175806" lon="-2.218550">
        <ele>1053.7</ele>
        <time>2017-05-06T07:16:43Z</time>
      </trkpt>
      <trkpt lat="38.175639" lon="-2.218733">
        <ele>1053.3</ele>
        <time>2017-05-06T07:16:58Z</time>
      </trkpt>
      <trkpt lat="38.175482" lon="-2.218992">
        <ele>1053.7</ele>
        <time>2017-05-06T07:17:14Z</time>
      </trkpt>
      <trkpt lat="38.175352" lon="-2.219217">
        <ele>1054.2</ele>
        <time>2017-05-06T07:17:29Z</time>
      </trkpt>
      <trkpt lat="38.175283" lon="-2.219476">
        <ele>1053.7</ele>
        <time>2017-05-06T07:17:45Z</time>
      </trkpt>
      <trkpt lat="38.175227" lon="-2.219685">
        <ele>1051.8</ele>
        <time>2017-05-06T07:17:59Z</time>
      </trkpt>
      <trkpt lat="38.175170" lon="-2.219769">
        <ele>1052.3</ele>
        <time>2017-05-06T07:18:16Z</time>
      </trkpt>
      <trkpt lat="38.175024" lon="-2.219983">
        <ele>1049.9</ele>
        <time>2017-05-06T07:18:29Z</time>
      </trkpt>
      <trkpt lat="38.174891" lon="-2.220209">
        <ele>1046.5</ele>
        <time>2017-05-06T07:18:39Z</time>
      </trkpt>
      <trkpt lat="38.174638" lon="-2.220510">
        <ele>1044.1</ele>
        <time>2017-05-06T07:18:57Z</time>
      </trkpt>
      <trkpt lat="38.174479" lon="-2.220734">
        <ele>1042.7</ele>
        <time>2017-05-06T07:19:11Z</time>
      </trkpt>
      <trkpt lat="38.174473" lon="-2.220758">
        <ele>1042.7</ele>
        <time>2017-05-06T07:19:15Z</time>
      </trkpt>
      <trkpt lat="38.174463" lon="-2.220769">
        <ele>1042.7</ele>
        <time>2017-05-06T07:19:16Z</time>
      </trkpt>
      <trkpt lat="38.174363" lon="-2.220836">
        <ele>1042.2</ele>
        <time>2017-05-06T07:19:28Z</time>
      </trkpt>
      <trkpt lat="38.174149" lon="-2.220974">
        <ele>1039.8</ele>
        <time>2017-05-06T07:19:44Z</time>
      </trkpt>
      <trkpt lat="38.173929" lon="-2.221142">
        <ele>1038.8</ele>
        <time>2017-05-06T07:20:30Z</time>
      </trkpt>
      <trkpt lat="38.173919" lon="-2.221147">
        <ele>1038.8</ele>
        <time>2017-05-06T07:20:44Z</time>
      </trkpt>
      <trkpt lat="38.173904" lon="-2.221144">
        <ele>1038.8</ele>
        <time>2017-05-06T07:20:45Z</time>
      </trkpt>
      <trkpt lat="38.173887" lon="-2.221140">
        <ele>1038.4</ele>
        <time>2017-05-06T07:20:46Z</time>
      </trkpt>
      <trkpt lat="38.173869" lon="-2.221136">
        <ele>1038.8</ele>
        <time>2017-05-06T07:20:47Z</time>
      </trkpt>
      <trkpt lat="38.173852" lon="-2.221135">
        <ele>1038.8</ele>
        <time>2017-05-06T07:20:48Z</time>
      </trkpt>
      <trkpt lat="38.173835" lon="-2.221135">
        <ele>1039.3</ele>
        <time>2017-05-06T07:20:49Z</time>
      </trkpt>
      <trkpt lat="38.173641" lon="-2.221109">
        <ele>1038.8</ele>
        <time>2017-05-06T07:21:02Z</time>
      </trkpt>
      <trkpt lat="38.173520" lon="-2.221052">
        <ele>1038.8</ele>
        <time>2017-05-06T07:21:15Z</time>
      </trkpt>
      <trkpt lat="38.173518" lon="-2.221036">
        <ele>1038.8</ele>
        <time>2017-05-06T07:21:17Z</time>
      </trkpt>
      <trkpt lat="38.173515" lon="-2.221026">
        <ele>1038.8</ele>
        <time>2017-05-06T07:21:18Z</time>
      </trkpt>
      <trkpt lat="38.173512" lon="-2.221014">
        <ele>1039.3</ele>
        <time>2017-05-06T07:21:19Z</time>
      </trkpt>
      <trkpt lat="38.173506" lon="-2.221000">
        <ele>1039.3</ele>
        <time>2017-05-06T07:21:20Z</time>
      </trkpt>
      <trkpt lat="38.173494" lon="-2.220988">
        <ele>1039.3</ele>
        <time>2017-05-06T07:21:21Z</time>
      </trkpt>
      <trkpt lat="38.173482" lon="-2.220973">
        <ele>1038.8</ele>
        <time>2017-05-06T07:21:22Z</time>
      </trkpt>
      <trkpt lat="38.173473" lon="-2.220961">
        <ele>1039.3</ele>
        <time>2017-05-06T07:21:23Z</time>
      </trkpt>
      <trkpt lat="38.173369" lon="-2.220820">
        <ele>1039.3</ele>
        <time>2017-05-06T07:21:35Z</time>
      </trkpt>
      <trkpt lat="38.173278" lon="-2.220735">
        <ele>1039.3</ele>
        <time>2017-05-06T07:21:49Z</time>
      </trkpt>
      <trkpt lat="38.173249" lon="-2.220706">
        <ele>1039.3</ele>
        <time>2017-05-06T07:22:03Z</time>
      </trkpt>
      <trkpt lat="38.173257" lon="-2.220688">
        <ele>1038.8</ele>
        <time>2017-05-06T07:22:06Z</time>
      </trkpt>
      <trkpt lat="38.173247" lon="-2.220673">
        <ele>1038.8</ele>
        <time>2017-05-06T07:22:07Z</time>
      </trkpt>
      <trkpt lat="38.173158" lon="-2.220566">
        <ele>1039.3</ele>
        <time>2017-05-06T07:22:16Z</time>
      </trkpt>
      <trkpt lat="38.172926" lon="-2.220395">
        <ele>1039.8</ele>
        <time>2017-05-06T07:22:33Z</time>
      </trkpt>
      <trkpt lat="38.172701" lon="-2.220268">
        <ele>1040.3</ele>
        <time>2017-05-06T07:22:47Z</time>
      </trkpt>
      <trkpt lat="38.172426" lon="-2.220151">
        <ele>1040.8</ele>
        <time>2017-05-06T07:23:04Z</time>
      </trkpt>
      <trkpt lat="38.172324" lon="-2.220129">
        <ele>1041.2</ele>
        <time>2017-05-06T07:23:10Z</time>
      </trkpt>
      <trkpt lat="38.172099" lon="-2.220122">
        <ele>1042.2</ele>
        <time>2017-05-06T07:23:24Z</time>
      </trkpt>
      <trkpt lat="38.172089" lon="-2.220135">
        <ele>1042.7</ele>
        <time>2017-05-06T07:23:28Z</time>
      </trkpt>
      <trkpt lat="38.172076" lon="-2.220129">
        <ele>1043.2</ele>
        <time>2017-05-06T07:23:29Z</time>
      </trkpt>
      <trkpt lat="38.172063" lon="-2.220127">
        <ele>1042.7</ele>
        <time>2017-05-06T07:23:30Z</time>
      </trkpt>
      <trkpt lat="38.172048" lon="-2.220128">
        <ele>1042.7</ele>
        <time>2017-05-06T07:23:31Z</time>
      </trkpt>
      <trkpt lat="38.172034" lon="-2.220127">
        <ele>1042.7</ele>
        <time>2017-05-06T07:23:32Z</time>
      </trkpt>
      <trkpt lat="38.172024" lon="-2.220122">
        <ele>1043.2</ele>
        <time>2017-05-06T07:23:33Z</time>
      </trkpt>
      <trkpt lat="38.171946" lon="-2.220111">
        <ele>1043.2</ele>
        <time>2017-05-06T07:23:40Z</time>
      </trkpt>
      <trkpt lat="38.171936" lon="-2.220106">
        <ele>1043.2</ele>
        <time>2017-05-06T07:23:41Z</time>
      </trkpt>
      <trkpt lat="38.171922" lon="-2.220105">
        <ele>1043.7</ele>
        <time>2017-05-06T07:23:42Z</time>
      </trkpt>
      <trkpt lat="38.171718" lon="-2.220103">
        <ele>1043.2</ele>
        <time>2017-05-06T07:23:55Z</time>
      </trkpt>
      <trkpt lat="38.171503" lon="-2.220182">
        <ele>1041.7</ele>
        <time>2017-05-06T07:24:11Z</time>
      </trkpt>
      <trkpt lat="38.171298" lon="-2.220243">
        <ele>1040.8</ele>
        <time>2017-05-06T07:24:28Z</time>
      </trkpt>
      <trkpt lat="38.171154" lon="-2.220334">
        <ele>1039.8</ele>
        <time>2017-05-06T07:24:38Z</time>
      </trkpt>
      <trkpt lat="38.171109" lon="-2.220363">
        <ele>1039.3</ele>
        <time>2017-05-06T07:24:44Z</time>
      </trkpt>
      <trkpt lat="38.170883" lon="-2.220486">
        <ele>1037.4</ele>
        <time>2017-05-06T07:25:01Z</time>
      </trkpt>
      <trkpt lat="38.170672" lon="-2.220647">
        <ele>1035.5</ele>
        <time>2017-05-06T07:25:18Z</time>
      </trkpt>
      <trkpt lat="38.170517" lon="-2.220716">
        <ele>1034.5</ele>
        <time>2017-05-06T07:25:30Z</time>
      </trkpt>
      <trkpt lat="38.170504" lon="-2.220714">
        <ele>1033.6</ele>
        <time>2017-05-06T07:25:31Z</time>
      </trkpt>
      <trkpt lat="38.170440" lon="-2.220711">
        <ele>1033.1</ele>
        <time>2017-05-06T07:25:41Z</time>
      </trkpt>
      <trkpt lat="38.170435" lon="-2.220714">
        <ele>1033.1</ele>
        <time>2017-05-06T07:25:42Z</time>
      </trkpt>
      <trkpt lat="38.170407" lon="-2.220708">
        <ele>1032.6</ele>
        <time>2017-05-06T07:25:51Z</time>
      </trkpt>
      <trkpt lat="38.170293" lon="-2.220693">
        <ele>1031.2</ele>
        <time>2017-05-06T07:26:05Z</time>
      </trkpt>
      <trkpt lat="38.170229" lon="-2.220649">
        <ele>1030.7</ele>
        <time>2017-05-06T07:26:14Z</time>
      </trkpt>
      <trkpt lat="38.170119" lon="-2.220453">
        <ele>1030.2</ele>
        <time>2017-05-06T07:26:30Z</time>
      </trkpt>
      <trkpt lat="38.170112" lon="-2.220436">
        <ele>1030.2</ele>
        <time>2017-05-06T07:26:31Z</time>
      </trkpt>
      <trkpt lat="38.170102" lon="-2.220420">
        <ele>1029.7</ele>
        <time>2017-05-06T07:26:32Z</time>
      </trkpt>
      <trkpt lat="38.170093" lon="-2.220405">
        <ele>1029.7</ele>
        <time>2017-05-06T07:26:33Z</time>
      </trkpt>
      <trkpt lat="38.170088" lon="-2.220387">
        <ele>1029.2</ele>
        <time>2017-05-06T07:26:34Z</time>
      </trkpt>
      <trkpt lat="38.169989" lon="-2.220245">
        <ele>1029.2</ele>
        <time>2017-05-06T07:26:45Z</time>
      </trkpt>
      <trkpt lat="38.169898" lon="-2.220223">
        <ele>1029.2</ele>
        <time>2017-05-06T07:27:01Z</time>
      </trkpt>
      <trkpt lat="38.169858" lon="-2.220229">
        <ele>1029.7</ele>
        <time>2017-05-06T07:27:05Z</time>
      </trkpt>
      <trkpt lat="38.169848" lon="-2.220220">
        <ele>1029.2</ele>
        <time>2017-05-06T07:27:06Z</time>
      </trkpt>
      <trkpt lat="38.169696" lon="-2.220007">
        <ele>1028.8</ele>
        <time>2017-05-06T07:27:19Z</time>
      </trkpt>
      <trkpt lat="38.169602" lon="-2.219848">
        <ele>1029.7</ele>
        <time>2017-05-06T07:27:30Z</time>
      </trkpt>
      <trkpt lat="38.169602" lon="-2.219835">
        <ele>1029.7</ele>
        <time>2017-05-06T07:27:31Z</time>
      </trkpt>
      <trkpt lat="38.169593" lon="-2.219821">
        <ele>1029.2</ele>
        <time>2017-05-06T07:27:32Z</time>
      </trkpt>
      <trkpt lat="38.169578" lon="-2.219808">
        <ele>1029.2</ele>
        <time>2017-05-06T07:27:33Z</time>
      </trkpt>
      <trkpt lat="38.169566" lon="-2.219796">
        <ele>1029.7</ele>
        <time>2017-05-06T07:27:34Z</time>
      </trkpt>
      <trkpt lat="38.169554" lon="-2.219780">
        <ele>1029.7</ele>
        <time>2017-05-06T07:27:35Z</time>
      </trkpt>
      <trkpt lat="38.169542" lon="-2.219766">
        <ele>1029.7</ele>
        <time>2017-05-06T07:27:36Z</time>
      </trkpt>
      <trkpt lat="38.169529" lon="-2.219752">
        <ele>1029.7</ele>
        <time>2017-05-06T07:27:37Z</time>
      </trkpt>
      <trkpt lat="38.169398" lon="-2.219644">
        <ele>1030.2</ele>
        <time>2017-05-06T07:27:50Z</time>
      </trkpt>
      <trkpt lat="38.169351" lon="-2.219574">
        <ele>1030.7</ele>
        <time>2017-05-06T07:27:57Z</time>
      </trkpt>
      <trkpt lat="38.169343" lon="-2.219557">
        <ele>1030.7</ele>
        <time>2017-05-06T07:27:58Z</time>
      </trkpt>
      <trkpt lat="38.169331" lon="-2.219541">
        <ele>1030.7</ele>
        <time>2017-05-06T07:27:59Z</time>
      </trkpt>
      <trkpt lat="38.169239" lon="-2.219451">
        <ele>1030.2</ele>
        <time>2017-05-06T07:28:11Z</time>
      </trkpt>
      <trkpt lat="38.169230" lon="-2.219439">
        <ele>1030.2</ele>
        <time>2017-05-06T07:28:12Z</time>
      </trkpt>
      <trkpt lat="38.169218" lon="-2.219426">
        <ele>1030.7</ele>
        <time>2017-05-06T07:28:13Z</time>
      </trkpt>
      <trkpt lat="38.169206" lon="-2.219413">
        <ele>1030.7</ele>
        <time>2017-05-06T07:28:14Z</time>
      </trkpt>
      <trkpt lat="38.169202" lon="-2.219398">
        <ele>1030.2</ele>
        <time>2017-05-06T07:28:15Z</time>
      </trkpt>
      <trkpt lat="38.169194" lon="-2.219381">
        <ele>1030.7</ele>
        <time>2017-05-06T07:28:16Z</time>
      </trkpt>
      <trkpt lat="38.169182" lon="-2.219367">
        <ele>1030.7</ele>
        <time>2017-05-06T07:28:17Z</time>
      </trkpt>
      <trkpt lat="38.169168" lon="-2.219354">
        <ele>1030.2</ele>
        <time>2017-05-06T07:28:18Z</time>
      </trkpt>
      <trkpt lat="38.169152" lon="-2.219340">
        <ele>1030.7</ele>
        <time>2017-05-06T07:28:19Z</time>
      </trkpt>
      <trkpt lat="38.169137" lon="-2.219328">
        <ele>1030.7</ele>
        <time>2017-05-06T07:28:20Z</time>
      </trkpt>
      <trkpt lat="38.169124" lon="-2.219319">
        <ele>1030.7</ele>
        <time>2017-05-06T07:28:21Z</time>
      </trkpt>
      <trkpt lat="38.169002" lon="-2.219202">
        <ele>1030.2</ele>
        <time>2017-05-06T07:28:35Z</time>
      </trkpt>
      <trkpt lat="38.168987" lon="-2.219216">
        <ele>1029.2</ele>
        <time>2017-05-06T07:28:40Z</time>
      </trkpt>
      <trkpt lat="38.168971" lon="-2.219212">
        <ele>1029.7</ele>
        <time>2017-05-06T07:28:41Z</time>
      </trkpt>
      <trkpt lat="38.168957" lon="-2.219209">
        <ele>1030.2</ele>
        <time>2017-05-06T07:28:42Z</time>
      </trkpt>
      <trkpt lat="38.168946" lon="-2.219208">
        <ele>1029.7</ele>
        <time>2017-05-06T07:28:43Z</time>
      </trkpt>
      <trkpt lat="38.168933" lon="-2.219209">
        <ele>1029.7</ele>
        <time>2017-05-06T07:28:44Z</time>
      </trkpt>
      <trkpt lat="38.168914" lon="-2.219209">
        <ele>1029.7</ele>
        <time>2017-05-06T07:28:45Z</time>
      </trkpt>
      <trkpt lat="38.168893" lon="-2.219212">
        <ele>1029.7</ele>
        <time>2017-05-06T07:28:46Z</time>
      </trkpt>
      <trkpt lat="38.168634" lon="-2.219208">
        <ele>1029.2</ele>
        <time>2017-05-06T07:29:01Z</time>
      </trkpt>
      <trkpt lat="38.168497" lon="-2.219185">
        <ele>1029.2</ele>
        <time>2017-05-06T07:29:15Z</time>
      </trkpt>
      <trkpt lat="38.168246" lon="-2.219132">
        <ele>1028.3</ele>
        <time>2017-05-06T07:29:32Z</time>
      </trkpt>
      <trkpt lat="38.168030" lon="-2.219077">
        <ele>1026.8</ele>
        <time>2017-05-06T07:29:46Z</time>
      </trkpt>
      <trkpt lat="38.168017" lon="-2.219070">
        <ele>1026.8</ele>
        <time>2017-05-06T07:29:47Z</time>
      </trkpt>
      <trkpt lat="38.168002" lon="-2.219060">
        <ele>1026.8</ele>
        <time>2017-05-06T07:29:48Z</time>
      </trkpt>
      <trkpt lat="38.167990" lon="-2.219051">
        <ele>1026.8</ele>
        <time>2017-05-06T07:29:49Z</time>
      </trkpt>
      <trkpt lat="38.167774" lon="-2.218915">
        <ele>1026.8</ele>
        <time>2017-05-06T07:30:06Z</time>
      </trkpt>
      <trkpt lat="38.167633" lon="-2.218880">
        <ele>1027.8</ele>
        <time>2017-05-06T07:30:18Z</time>
      </trkpt>
      <trkpt lat="38.167451" lon="-2.218775">
        <ele>1027.3</ele>
        <time>2017-05-06T07:30:32Z</time>
      </trkpt>
      <trkpt lat="38.167325" lon="-2.218744">
        <ele>1027.8</ele>
        <time>2017-05-06T07:30:44Z</time>
      </trkpt>
      <trkpt lat="38.167312" lon="-2.218726">
        <ele>1028.3</ele>
        <time>2017-05-06T07:30:50Z</time>
      </trkpt>
      <trkpt lat="38.167296" lon="-2.218720">
        <ele>1028.3</ele>
        <time>2017-05-06T07:30:51Z</time>
      </trkpt>
      <trkpt lat="38.167252" lon="-2.218728">
        <ele>1027.8</ele>
        <time>2017-05-06T07:30:54Z</time>
      </trkpt>
      <trkpt lat="38.167234" lon="-2.218718">
        <ele>1027.3</ele>
        <time>2017-05-06T07:30:55Z</time>
      </trkpt>
      <trkpt lat="38.167130" lon="-2.218618">
        <ele>1028.3</ele>
        <time>2017-05-06T07:31:06Z</time>
      </trkpt>
      <trkpt lat="38.167121" lon="-2.218604">
        <ele>1027.8</ele>
        <time>2017-05-06T07:31:07Z</time>
      </trkpt>
      <trkpt lat="38.167108" lon="-2.218594">
        <ele>1027.3</ele>
        <time>2017-05-06T07:31:08Z</time>
      </trkpt>
      <trkpt lat="38.167093" lon="-2.218584">
        <ele>1029.2</ele>
        <time>2017-05-06T07:31:09Z</time>
      </trkpt>
      <trkpt lat="38.167077" lon="-2.218577">
        <ele>1028.3</ele>
        <time>2017-05-06T07:31:10Z</time>
      </trkpt>
      <trkpt lat="38.167058" lon="-2.218571">
        <ele>1028.3</ele>
        <time>2017-05-06T07:31:11Z</time>
      </trkpt>
      <trkpt lat="38.167040" lon="-2.218562">
        <ele>1027.8</ele>
        <time>2017-05-06T07:31:12Z</time>
      </trkpt>
      <trkpt lat="38.167025" lon="-2.218553">
        <ele>1028.3</ele>
        <time>2017-05-06T07:31:13Z</time>
      </trkpt>
      <trkpt lat="38.167007" lon="-2.218546">
        <ele>1028.8</ele>
        <time>2017-05-06T07:31:14Z</time>
      </trkpt>
      <trkpt lat="38.166826" lon="-2.218411">
        <ele>1028.3</ele>
        <time>2017-05-06T07:31:27Z</time>
      </trkpt>
      <trkpt lat="38.166718" lon="-2.218311">
        <ele>1028.8</ele>
        <time>2017-05-06T07:31:39Z</time>
      </trkpt>
      <trkpt lat="38.166688" lon="-2.218323">
        <ele>1028.8</ele>
        <time>2017-05-06T07:31:45Z</time>
      </trkpt>
      <trkpt lat="38.166660" lon="-2.218338">
        <ele>1029.2</ele>
        <time>2017-05-06T07:31:47Z</time>
      </trkpt>
      <trkpt lat="38.166468" lon="-2.218473">
        <ele>1027.8</ele>
        <time>2017-05-06T07:32:00Z</time>
      </trkpt>
      <trkpt lat="38.166323" lon="-2.218568">
        <ele>1027.8</ele>
        <time>2017-05-06T07:33:18Z</time>
      </trkpt>
      <trkpt lat="38.166308" lon="-2.218579">
        <ele>1027.3</ele>
        <time>2017-05-06T07:33:19Z</time>
      </trkpt>
      <trkpt lat="38.166226" lon="-2.218644">
        <ele>1027.8</ele>
        <time>2017-05-06T07:33:32Z</time>
      </trkpt>
      <trkpt lat="38.166175" lon="-2.218690">
        <ele>1028.8</ele>
        <time>2017-05-06T07:33:38Z</time>
      </trkpt>
      <trkpt lat="38.166153" lon="-2.218704">
        <ele>1029.7</ele>
        <time>2017-05-06T07:33:40Z</time>
      </trkpt>
      <trkpt lat="38.166071" lon="-2.218765">
        <ele>1029.7</ele>
        <time>2017-05-06T07:33:46Z</time>
      </trkpt>
      <trkpt lat="38.166057" lon="-2.218770">
        <ele>1029.7</ele>
        <time>2017-05-06T07:33:47Z</time>
      </trkpt>
      <trkpt lat="38.165847" lon="-2.218923">
        <ele>1032.1</ele>
        <time>2017-05-06T07:34:02Z</time>
      </trkpt>
      <trkpt lat="38.165742" lon="-2.219013">
        <ele>1034.0</ele>
        <time>2017-05-06T07:34:14Z</time>
      </trkpt>
      <trkpt lat="38.165724" lon="-2.219029">
        <ele>1033.6</ele>
        <time>2017-05-06T07:34:18Z</time>
      </trkpt>
      <trkpt lat="38.165708" lon="-2.219031">
        <ele>1034.0</ele>
        <time>2017-05-06T07:34:19Z</time>
      </trkpt>
      <trkpt lat="38.165497" lon="-2.219154">
        <ele>1035.0</ele>
        <time>2017-05-06T07:34:34Z</time>
      </trkpt>
      <trkpt lat="38.165424" lon="-2.219211">
        <ele>1036.0</ele>
        <time>2017-05-06T07:34:40Z</time>
      </trkpt>
      <trkpt lat="38.165424" lon="-2.219234">
        <ele>1036.4</ele>
        <time>2017-05-06T07:34:45Z</time>
      </trkpt>
      <trkpt lat="38.165401" lon="-2.219246">
        <ele>1036.4</ele>
        <time>2017-05-06T07:34:47Z</time>
      </trkpt>
      <trkpt lat="38.165387" lon="-2.219256">
        <ele>1036.4</ele>
        <time>2017-05-06T07:34:48Z</time>
      </trkpt>
      <trkpt lat="38.165373" lon="-2.219266">
        <ele>1037.4</ele>
        <time>2017-05-06T07:34:49Z</time>
      </trkpt>
      <trkpt lat="38.165359" lon="-2.219274">
        <ele>1036.4</ele>
        <time>2017-05-06T07:34:50Z</time>
      </trkpt>
      <trkpt lat="38.165345" lon="-2.219283">
        <ele>1036.9</ele>
        <time>2017-05-06T07:34:51Z</time>
      </trkpt>
      <trkpt lat="38.165338" lon="-2.219298">
        <ele>1036.9</ele>
        <time>2017-05-06T07:34:52Z</time>
      </trkpt>
      <trkpt lat="38.165330" lon="-2.219329">
        <ele>1037.9</ele>
        <time>2017-05-06T07:34:55Z</time>
      </trkpt>
      <trkpt lat="38.165321" lon="-2.219324">
        <ele>1037.4</ele>
        <time>2017-05-06T07:34:56Z</time>
      </trkpt>
      <trkpt lat="38.165302" lon="-2.219332">
        <ele>1036.9</ele>
        <time>2017-05-06T07:34:57Z</time>
      </trkpt>
      <trkpt lat="38.165285" lon="-2.219343">
        <ele>1037.9</ele>
        <time>2017-05-06T07:34:58Z</time>
      </trkpt>
      <trkpt lat="38.165270" lon="-2.219356">
        <ele>1037.4</ele>
        <time>2017-05-06T07:34:59Z</time>
      </trkpt>
      <trkpt lat="38.165071" lon="-2.219491">
        <ele>1038.8</ele>
        <time>2017-05-06T07:35:13Z</time>
      </trkpt>
      <trkpt lat="38.164840" lon="-2.219633">
        <ele>1038.8</ele>
        <time>2017-05-06T07:35:29Z</time>
      </trkpt>
      <trkpt lat="38.164665" lon="-2.219718">
        <ele>1040.3</ele>
        <time>2017-05-06T07:35:41Z</time>
      </trkpt>
      <trkpt lat="38.164482" lon="-2.219836">
        <ele>1040.8</ele>
        <time>2017-05-06T07:35:56Z</time>
      </trkpt>
      <trkpt lat="38.164307" lon="-2.219956">
        <ele>1040.8</ele>
        <time>2017-05-06T07:36:12Z</time>
      </trkpt>
      <trkpt lat="38.164123" lon="-2.220000">
        <ele>1042.2</ele>
        <time>2017-05-06T07:36:28Z</time>
      </trkpt>
      <trkpt lat="38.163959" lon="-2.220044">
        <ele>1043.2</ele>
        <time>2017-05-06T07:36:42Z</time>
      </trkpt>
      <trkpt lat="38.163914" lon="-2.220035">
        <ele>1043.7</ele>
        <time>2017-05-06T07:36:46Z</time>
      </trkpt>
      <trkpt lat="38.163900" lon="-2.220031">
        <ele>1043.7</ele>
        <time>2017-05-06T07:36:47Z</time>
      </trkpt>
      <trkpt lat="38.163886" lon="-2.220027">
        <ele>1044.1</ele>
        <time>2017-05-06T07:36:48Z</time>
      </trkpt>
      <trkpt lat="38.163873" lon="-2.220024">
        <ele>1044.1</ele>
        <time>2017-05-06T07:36:49Z</time>
      </trkpt>
      <trkpt lat="38.163859" lon="-2.220023">
        <ele>1044.1</ele>
        <time>2017-05-06T07:36:50Z</time>
      </trkpt>
      <trkpt lat="38.163847" lon="-2.220021">
        <ele>1044.1</ele>
        <time>2017-05-06T07:36:51Z</time>
      </trkpt>
      <trkpt lat="38.163790" lon="-2.220012">
        <ele>1046.1</ele>
        <time>2017-05-06T07:36:56Z</time>
      </trkpt>
      <trkpt lat="38.163624" lon="-2.220015">
        <ele>1046.5</ele>
        <time>2017-05-06T07:37:11Z</time>
      </trkpt>
      <trkpt lat="38.163571" lon="-2.220036">
        <ele>1047.0</ele>
        <time>2017-05-06T07:37:15Z</time>
      </trkpt>
      <trkpt lat="38.163558" lon="-2.220053">
        <ele>1047.5</ele>
        <time>2017-05-06T07:37:16Z</time>
      </trkpt>
      <trkpt lat="38.163506" lon="-2.220130">
        <ele>1047.0</ele>
        <time>2017-05-06T07:37:21Z</time>
      </trkpt>
      <trkpt lat="38.163499" lon="-2.220145">
        <ele>1047.5</ele>
        <time>2017-05-06T07:37:22Z</time>
      </trkpt>
      <trkpt lat="38.163491" lon="-2.220156">
        <ele>1046.5</ele>
        <time>2017-05-06T07:37:23Z</time>
      </trkpt>
      <trkpt lat="38.163451" lon="-2.220227">
        <ele>1048.0</ele>
        <time>2017-05-06T07:37:29Z</time>
      </trkpt>
      <trkpt lat="38.163394" lon="-2.220418">
        <ele>1048.9</ele>
        <time>2017-05-06T07:37:43Z</time>
      </trkpt>
      <trkpt lat="38.163316" lon="-2.220580">
        <ele>1050.9</ele>
        <time>2017-05-06T07:37:57Z</time>
      </trkpt>
      <trkpt lat="38.163210" lon="-2.220754">
        <ele>1052.8</ele>
        <time>2017-05-06T07:38:13Z</time>
      </trkpt>
      <trkpt lat="38.163200" lon="-2.220761">
        <ele>1052.8</ele>
        <time>2017-05-06T07:38:14Z</time>
      </trkpt>
      <trkpt lat="38.163114" lon="-2.220862">
        <ele>1054.2</ele>
        <time>2017-05-06T07:38:25Z</time>
      </trkpt>
      <trkpt lat="38.163032" lon="-2.221016">
        <ele>1056.2</ele>
        <time>2017-05-06T07:38:38Z</time>
      </trkpt>
      <trkpt lat="38.162940" lon="-2.221118">
        <ele>1056.6</ele>
        <time>2017-05-06T07:38:49Z</time>
      </trkpt>
      <trkpt lat="38.162823" lon="-2.221185">
        <ele>1058.1</ele>
        <time>2017-05-06T07:39:03Z</time>
      </trkpt>
      <trkpt lat="38.162701" lon="-2.221281">
        <ele>1060.0</ele>
        <time>2017-05-06T07:39:17Z</time>
      </trkpt>
      <trkpt lat="38.162523" lon="-2.221379">
        <ele>1061.4</ele>
        <time>2017-05-06T07:39:31Z</time>
      </trkpt>
      <trkpt lat="38.162408" lon="-2.221501">
        <ele>1063.4</ele>
        <time>2017-05-06T07:39:44Z</time>
      </trkpt>
      <trkpt lat="38.162187" lon="-2.221633">
        <ele>1064.8</ele>
        <time>2017-05-06T07:40:00Z</time>
      </trkpt>
      <trkpt lat="38.162077" lon="-2.221736">
        <ele>1065.3</ele>
        <time>2017-05-06T07:40:12Z</time>
      </trkpt>
      <trkpt lat="38.161881" lon="-2.221871">
        <ele>1065.8</ele>
        <time>2017-05-06T07:40:30Z</time>
      </trkpt>
      <trkpt lat="38.161727" lon="-2.221931">
        <ele>1066.7</ele>
        <time>2017-05-06T07:40:40Z</time>
      </trkpt>
      <trkpt lat="38.161495" lon="-2.221972">
        <ele>1067.7</ele>
        <time>2017-05-06T07:40:56Z</time>
      </trkpt>
      <trkpt lat="38.161420" lon="-2.221971">
        <ele>1068.2</ele>
        <time>2017-05-06T07:41:04Z</time>
      </trkpt>
      <trkpt lat="38.161411" lon="-2.221961">
        <ele>1068.2</ele>
        <time>2017-05-06T07:41:05Z</time>
      </trkpt>
      <trkpt lat="38.161385" lon="-2.221947">
        <ele>1068.2</ele>
        <time>2017-05-06T07:41:07Z</time>
      </trkpt>
      <trkpt lat="38.161360" lon="-2.221953">
        <ele>1068.2</ele>
        <time>2017-05-06T07:41:12Z</time>
      </trkpt>
      <trkpt lat="38.161350" lon="-2.221950">
        <ele>1067.7</ele>
        <time>2017-05-06T07:41:13Z</time>
      </trkpt>
      <trkpt lat="38.161238" lon="-2.221940">
        <ele>1068.2</ele>
        <time>2017-05-06T07:41:26Z</time>
      </trkpt>
      <trkpt lat="38.161202" lon="-2.221934">
        <ele>1068.2</ele>
        <time>2017-05-06T07:41:30Z</time>
      </trkpt>
      <trkpt lat="38.161189" lon="-2.221931">
        <ele>1068.6</ele>
        <time>2017-05-06T07:41:31Z</time>
      </trkpt>
      <trkpt lat="38.161028" lon="-2.221926">
        <ele>1068.6</ele>
        <time>2017-05-06T07:41:46Z</time>
      </trkpt>
      <trkpt lat="38.161016" lon="-2.221927">
        <ele>1069.6</ele>
        <time>2017-05-06T07:41:48Z</time>
      </trkpt>
      <trkpt lat="38.161006" lon="-2.221923">
        <ele>1069.1</ele>
        <time>2017-05-06T07:41:49Z</time>
      </trkpt>
      <trkpt lat="38.160993" lon="-2.221919">
        <ele>1069.6</ele>
        <time>2017-05-06T07:41:50Z</time>
      </trkpt>
      <trkpt lat="38.160746" lon="-2.221896">
        <ele>1069.6</ele>
        <time>2017-05-06T07:42:06Z</time>
      </trkpt>
      <trkpt lat="38.160700" lon="-2.221893">
        <ele>1070.1</ele>
        <time>2017-05-06T07:42:09Z</time>
      </trkpt>
      <trkpt lat="38.160684" lon="-2.221893">
        <ele>1069.6</ele>
        <time>2017-05-06T07:42:10Z</time>
      </trkpt>
      <trkpt lat="38.160667" lon="-2.221886">
        <ele>1069.6</ele>
        <time>2017-05-06T07:42:11Z</time>
      </trkpt>
      <trkpt lat="38.160652" lon="-2.221884">
        <ele>1069.6</ele>
        <time>2017-05-06T07:42:12Z</time>
      </trkpt>
      <trkpt lat="38.160636" lon="-2.221881">
        <ele>1069.6</ele>
        <time>2017-05-06T07:42:13Z</time>
      </trkpt>
      <trkpt lat="38.160623" lon="-2.221877">
        <ele>1070.1</ele>
        <time>2017-05-06T07:42:14Z</time>
      </trkpt>
      <trkpt lat="38.160609" lon="-2.221872">
        <ele>1070.1</ele>
        <time>2017-05-06T07:42:15Z</time>
      </trkpt>
      <trkpt lat="38.160596" lon="-2.221876">
        <ele>1070.1</ele>
        <time>2017-05-06T07:42:16Z</time>
      </trkpt>
      <trkpt lat="38.160583" lon="-2.221879">
        <ele>1070.6</ele>
        <time>2017-05-06T07:42:17Z</time>
      </trkpt>
      <trkpt lat="38.160504" lon="-2.221862">
        <ele>1070.6</ele>
        <time>2017-05-06T07:42:23Z</time>
      </trkpt>
      <trkpt lat="38.160481" lon="-2.221827">
        <ele>1070.1</ele>
        <time>2017-05-06T07:42:34Z</time>
      </trkpt>
      <trkpt lat="38.160493" lon="-2.221809">
        <ele>1070.6</ele>
        <time>2017-05-06T07:42:45Z</time>
      </trkpt>
      <trkpt lat="38.160436" lon="-2.221845">
        <ele>1070.6</ele>
        <time>2017-05-06T07:42:51Z</time>
      </trkpt>
      <trkpt lat="38.160232" lon="-2.221837">
        <ele>1071.1</ele>
        <time>2017-05-06T07:43:07Z</time>
      </trkpt>
      <trkpt lat="38.160088" lon="-2.221829">
        <ele>1071.1</ele>
        <time>2017-05-06T07:43:19Z</time>
      </trkpt>
      <trkpt lat="38.159913" lon="-2.221794">
        <ele>1071.5</ele>
        <time>2017-05-06T07:43:32Z</time>
      </trkpt>
      <trkpt lat="38.159770" lon="-2.221728">
        <ele>1072.5</ele>
        <time>2017-05-06T07:43:44Z</time>
      </trkpt>
      <trkpt lat="38.159671" lon="-2.221722">
        <ele>1073.0</ele>
        <time>2017-05-06T07:43:52Z</time>
      </trkpt>
      <trkpt lat="38.159480" lon="-2.221734">
        <ele>1073.9</ele>
        <time>2017-05-06T07:44:08Z</time>
      </trkpt>
      <trkpt lat="38.159309" lon="-2.221720">
        <ele>1074.9</ele>
        <time>2017-05-06T07:44:22Z</time>
      </trkpt>
      <trkpt lat="38.159210" lon="-2.221676">
        <ele>1076.3</ele>
        <time>2017-05-06T07:44:31Z</time>
      </trkpt>
      <trkpt lat="38.159196" lon="-2.221677">
        <ele>1075.8</ele>
        <time>2017-05-06T07:44:32Z</time>
      </trkpt>
      <trkpt lat="38.159181" lon="-2.221674">
        <ele>1075.8</ele>
        <time>2017-05-06T07:44:33Z</time>
      </trkpt>
      <trkpt lat="38.159167" lon="-2.221665">
        <ele>1075.8</ele>
        <time>2017-05-06T07:44:34Z</time>
      </trkpt>
      <trkpt lat="38.159154" lon="-2.221660">
        <ele>1075.8</ele>
        <time>2017-05-06T07:44:35Z</time>
      </trkpt>
      <trkpt lat="38.159117" lon="-2.221623">
        <ele>1076.3</ele>
        <time>2017-05-06T07:44:39Z</time>
      </trkpt>
      <trkpt lat="38.158941" lon="-2.221632">
        <ele>1076.8</ele>
        <time>2017-05-06T07:44:52Z</time>
      </trkpt>
      <trkpt lat="38.158875" lon="-2.221654">
        <ele>1078.7</ele>
        <time>2017-05-06T07:44:57Z</time>
      </trkpt>
      <trkpt lat="38.158861" lon="-2.221673">
        <ele>1078.3</ele>
        <time>2017-05-06T07:44:58Z</time>
      </trkpt>
      <trkpt lat="38.158850" lon="-2.221689">
        <ele>1078.3</ele>
        <time>2017-05-06T07:44:59Z</time>
      </trkpt>
      <trkpt lat="38.158840" lon="-2.221699">
        <ele>1078.3</ele>
        <time>2017-05-06T07:45:00Z</time>
      </trkpt>
      <trkpt lat="38.158814" lon="-2.221709">
        <ele>1078.3</ele>
        <time>2017-05-06T07:45:02Z</time>
      </trkpt>
      <trkpt lat="38.158799" lon="-2.221712">
        <ele>1078.3</ele>
        <time>2017-05-06T07:45:03Z</time>
      </trkpt>
      <trkpt lat="38.158712" lon="-2.221793">
        <ele>1078.3</ele>
        <time>2017-05-06T07:45:16Z</time>
      </trkpt>
      <trkpt lat="38.158688" lon="-2.221818">
        <ele>1078.7</ele>
        <time>2017-05-06T07:45:23Z</time>
      </trkpt>
      <trkpt lat="38.158667" lon="-2.221825">
        <ele>1078.7</ele>
        <time>2017-05-06T07:45:24Z</time>
      </trkpt>
      <trkpt lat="38.158471" lon="-2.221948">
        <ele>1080.7</ele>
        <time>2017-05-06T07:45:40Z</time>
      </trkpt>
      <trkpt lat="38.158352" lon="-2.222052">
        <ele>1081.1</ele>
        <time>2017-05-06T07:45:52Z</time>
      </trkpt>
      <trkpt lat="38.158157" lon="-2.222247">
        <ele>1080.7</ele>
        <time>2017-05-06T07:46:10Z</time>
      </trkpt>
      <trkpt lat="38.157976" lon="-2.222440">
        <ele>1079.7</ele>
        <time>2017-05-06T07:46:27Z</time>
      </trkpt>
      <trkpt lat="38.157885" lon="-2.222457">
        <ele>1079.2</ele>
        <time>2017-05-06T07:46:34Z</time>
      </trkpt>
      <trkpt lat="38.157699" lon="-2.222385">
        <ele>1079.7</ele>
        <time>2017-05-06T07:46:49Z</time>
      </trkpt>
      <trkpt lat="38.157648" lon="-2.222342">
        <ele>1080.2</ele>
        <time>2017-05-06T07:47:03Z</time>
      </trkpt>
      <trkpt lat="38.157645" lon="-2.222332">
        <ele>1080.2</ele>
        <time>2017-05-06T07:47:04Z</time>
      </trkpt>
      <trkpt lat="38.157569" lon="-2.222216">
        <ele>1081.1</ele>
        <time>2017-05-06T07:47:15Z</time>
      </trkpt>
      <trkpt lat="38.157487" lon="-2.222152">
        <ele>1081.6</ele>
        <time>2017-05-06T07:47:23Z</time>
      </trkpt>
      <trkpt lat="38.157476" lon="-2.222144">
        <ele>1082.6</ele>
        <time>2017-05-06T07:47:24Z</time>
      </trkpt>
      <trkpt lat="38.157308" lon="-2.222037">
        <ele>1083.5</ele>
        <time>2017-05-06T07:47:38Z</time>
      </trkpt>
      <trkpt lat="38.157112" lon="-2.221896">
        <ele>1085.0</ele>
        <time>2017-05-06T07:47:54Z</time>
      </trkpt>
      <trkpt lat="38.157100" lon="-2.221880">
        <ele>1085.0</ele>
        <time>2017-05-06T07:47:56Z</time>
      </trkpt>
      <trkpt lat="38.157008" lon="-2.221825">
        <ele>1085.5</ele>
        <time>2017-05-06T07:48:04Z</time>
      </trkpt>
      <trkpt lat="38.156991" lon="-2.221816">
        <ele>1085.5</ele>
        <time>2017-05-06T07:48:05Z</time>
      </trkpt>
      <trkpt lat="38.156950" lon="-2.221798">
        <ele>1085.5</ele>
        <time>2017-05-06T07:48:08Z</time>
      </trkpt>
      <trkpt lat="38.156936" lon="-2.221792">
        <ele>1085.9</ele>
        <time>2017-05-06T07:48:09Z</time>
      </trkpt>
      <trkpt lat="38.156907" lon="-2.221784">
        <ele>1085.9</ele>
        <time>2017-05-06T07:48:11Z</time>
      </trkpt>
      <trkpt lat="38.156722" lon="-2.221747">
        <ele>1086.9</ele>
        <time>2017-05-06T07:48:24Z</time>
      </trkpt>
      <trkpt lat="38.156592" lon="-2.221777">
        <ele>1087.9</ele>
        <time>2017-05-06T07:48:34Z</time>
      </trkpt>
      <trkpt lat="38.156575" lon="-2.221772">
        <ele>1088.3</ele>
        <time>2017-05-06T07:48:35Z</time>
      </trkpt>
      <trkpt lat="38.156557" lon="-2.221772">
        <ele>1087.9</ele>
        <time>2017-05-06T07:48:36Z</time>
      </trkpt>
      <trkpt lat="38.156465" lon="-2.221785">
        <ele>1088.8</ele>
        <time>2017-05-06T07:48:45Z</time>
      </trkpt>
      <trkpt lat="38.156449" lon="-2.221774">
        <ele>1088.8</ele>
        <time>2017-05-06T07:48:46Z</time>
      </trkpt>
      <trkpt lat="38.156428" lon="-2.221771">
        <ele>1089.3</ele>
        <time>2017-05-06T07:48:47Z</time>
      </trkpt>
      <trkpt lat="38.156396" lon="-2.221761">
        <ele>1089.3</ele>
        <time>2017-05-06T07:48:52Z</time>
      </trkpt>
      <trkpt lat="38.156358" lon="-2.221765">
        <ele>1089.3</ele>
        <time>2017-05-06T07:48:55Z</time>
      </trkpt>
      <trkpt lat="38.156340" lon="-2.221767">
        <ele>1089.3</ele>
        <time>2017-05-06T07:48:56Z</time>
      </trkpt>
      <trkpt lat="38.156323" lon="-2.221768">
        <ele>1089.3</ele>
        <time>2017-05-06T07:48:57Z</time>
      </trkpt>
      <trkpt lat="38.156305" lon="-2.221768">
        <ele>1089.8</ele>
        <time>2017-05-06T07:48:58Z</time>
      </trkpt>
      <trkpt lat="38.156291" lon="-2.221765">
        <ele>1089.3</ele>
        <time>2017-05-06T07:48:59Z</time>
      </trkpt>
      <trkpt lat="38.156123" lon="-2.221728">
        <ele>1090.8</ele>
        <time>2017-05-06T07:49:11Z</time>
      </trkpt>
      <trkpt lat="38.156091" lon="-2.221713">
        <ele>1091.2</ele>
        <time>2017-05-06T07:49:13Z</time>
      </trkpt>
      <trkpt lat="38.155885" lon="-2.221667">
        <ele>1093.6</ele>
        <time>2017-05-06T07:49:27Z</time>
      </trkpt>
      <trkpt lat="38.155782" lon="-2.221673">
        <ele>1094.1</ele>
        <time>2017-05-06T07:49:39Z</time>
      </trkpt>
      <trkpt lat="38.155762" lon="-2.221671">
        <ele>1094.6</ele>
        <time>2017-05-06T07:49:41Z</time>
      </trkpt>
      <trkpt lat="38.155746" lon="-2.221667">
        <ele>1094.1</ele>
        <time>2017-05-06T07:49:42Z</time>
      </trkpt>
      <trkpt lat="38.155690" lon="-2.221665">
        <ele>1094.6</ele>
        <time>2017-05-06T07:49:49Z</time>
      </trkpt>
      <trkpt lat="38.155661" lon="-2.221651">
        <ele>1095.1</ele>
        <time>2017-05-06T07:49:51Z</time>
      </trkpt>
      <trkpt lat="38.155522" lon="-2.221628">
        <ele>1096.0</ele>
        <time>2017-05-06T07:50:04Z</time>
      </trkpt>
      <trkpt lat="38.155341" lon="-2.221642">
        <ele>1097.5</ele>
        <time>2017-05-06T07:50:20Z</time>
      </trkpt>
      <trkpt lat="38.155310" lon="-2.221642">
        <ele>1098.4</ele>
        <time>2017-05-06T07:50:24Z</time>
      </trkpt>
      <trkpt lat="38.155284" lon="-2.221636">
        <ele>1098.0</ele>
        <time>2017-05-06T07:50:25Z</time>
      </trkpt>
      <trkpt lat="38.155051" lon="-2.221622">
        <ele>1098.4</ele>
        <time>2017-05-06T07:50:39Z</time>
      </trkpt>
      <trkpt lat="38.154845" lon="-2.221693">
        <ele>1099.9</ele>
        <time>2017-05-06T07:50:54Z</time>
      </trkpt>
      <trkpt lat="38.154672" lon="-2.221783">
        <ele>1100.4</ele>
        <time>2017-05-06T07:51:08Z</time>
      </trkpt>
      <trkpt lat="38.154611" lon="-2.221867">
        <ele>1100.4</ele>
        <time>2017-05-06T07:51:14Z</time>
      </trkpt>
      <trkpt lat="38.154539" lon="-2.221998">
        <ele>1101.3</ele>
        <time>2017-05-06T07:51:25Z</time>
      </trkpt>
      <trkpt lat="38.154527" lon="-2.222009">
        <ele>1101.3</ele>
        <time>2017-05-06T07:51:26Z</time>
      </trkpt>
      <trkpt lat="38.154357" lon="-2.222180">
        <ele>1102.3</ele>
        <time>2017-05-06T07:51:42Z</time>
      </trkpt>
      <trkpt lat="38.154153" lon="-2.222323">
        <ele>1104.2</ele>
        <time>2017-05-06T07:51:57Z</time>
      </trkpt>
      <trkpt lat="38.153919" lon="-2.222413">
        <ele>1105.2</ele>
        <time>2017-05-06T07:52:13Z</time>
      </trkpt>
      <trkpt lat="38.153842" lon="-2.222497">
        <ele>1105.2</ele>
        <time>2017-05-06T07:52:24Z</time>
      </trkpt>
      <trkpt lat="38.153704" lon="-2.222621">
        <ele>1105.2</ele>
        <time>2017-05-06T07:52:39Z</time>
      </trkpt>
      <trkpt lat="38.153527" lon="-2.222802">
        <ele>1104.2</ele>
        <time>2017-05-06T07:52:55Z</time>
      </trkpt>
      <trkpt lat="38.153339" lon="-2.222928">
        <ele>1104.7</ele>
        <time>2017-05-06T07:53:10Z</time>
      </trkpt>
      <trkpt lat="38.153097" lon="-2.223073">
        <ele>1104.7</ele>
        <time>2017-05-06T07:53:29Z</time>
      </trkpt>
      <trkpt lat="38.153026" lon="-2.223242">
        <ele>1104.2</ele>
        <time>2017-05-06T07:53:44Z</time>
      </trkpt>
      <trkpt lat="38.152951" lon="-2.223306">
        <ele>1103.7</ele>
        <time>2017-05-06T07:53:55Z</time>
      </trkpt>
      <trkpt lat="38.152865" lon="-2.223394">
        <ele>1103.7</ele>
        <time>2017-05-06T07:54:04Z</time>
      </trkpt>
      <trkpt lat="38.152714" lon="-2.223543">
        <ele>1103.2</ele>
        <time>2017-05-06T07:54:18Z</time>
      </trkpt>
      <trkpt lat="38.152568" lon="-2.223733">
        <ele>1101.8</ele>
        <time>2017-05-06T07:54:34Z</time>
      </trkpt>
      <trkpt lat="38.152381" lon="-2.223902">
        <ele>1101.3</ele>
        <time>2017-05-06T07:54:52Z</time>
      </trkpt>
      <trkpt lat="38.152212" lon="-2.224119">
        <ele>1100.4</ele>
        <time>2017-05-06T07:55:10Z</time>
      </trkpt>
      <trkpt lat="38.152012" lon="-2.224318">
        <ele>1099.9</ele>
        <time>2017-05-06T07:55:28Z</time>
      </trkpt>
      <trkpt lat="38.151812" lon="-2.224533">
        <ele>1099.4</ele>
        <time>2017-05-06T07:55:46Z</time>
      </trkpt>
      <trkpt lat="38.151657" lon="-2.224756">
        <ele>1098.4</ele>
        <time>2017-05-06T07:56:02Z</time>
      </trkpt>
      <trkpt lat="38.151520" lon="-2.224991">
        <ele>1096.5</ele>
        <time>2017-05-06T07:56:18Z</time>
      </trkpt>
      <trkpt lat="38.151381" lon="-2.225242">
        <ele>1096.0</ele>
        <time>2017-05-06T07:56:36Z</time>
      </trkpt>
      <trkpt lat="38.151226" lon="-2.225511">
        <ele>1094.1</ele>
        <time>2017-05-06T07:56:56Z</time>
      </trkpt>
      <trkpt lat="38.151063" lon="-2.225763">
        <ele>1093.6</ele>
        <time>2017-05-06T07:57:14Z</time>
      </trkpt>
      <trkpt lat="38.150926" lon="-2.225998">
        <ele>1092.7</ele>
        <time>2017-05-06T07:57:31Z</time>
      </trkpt>
      <trkpt lat="38.150777" lon="-2.226205">
        <ele>1091.7</ele>
        <time>2017-05-06T07:57:47Z</time>
      </trkpt>
      <trkpt lat="38.150661" lon="-2.226390">
        <ele>1091.7</ele>
        <time>2017-05-06T07:58:02Z</time>
      </trkpt>
      <trkpt lat="38.150575" lon="-2.226467">
        <ele>1091.2</ele>
        <time>2017-05-06T07:58:16Z</time>
      </trkpt>
      <trkpt lat="38.150567" lon="-2.226471">
        <ele>1091.2</ele>
        <time>2017-05-06T07:58:17Z</time>
      </trkpt>
      <trkpt lat="38.150544" lon="-2.226492">
        <ele>1091.7</ele>
        <time>2017-05-06T07:58:32Z</time>
      </trkpt>
      <trkpt lat="38.150452" lon="-2.226743">
        <ele>1090.8</ele>
        <time>2017-05-06T08:00:47Z</time>
      </trkpt>
      <trkpt lat="38.150319" lon="-2.226890">
        <ele>1090.8</ele>
        <time>2017-05-06T08:01:03Z</time>
      </trkpt>
      <trkpt lat="38.150300" lon="-2.226927">
        <ele>1091.2</ele>
        <time>2017-05-06T08:01:23Z</time>
      </trkpt>
      <trkpt lat="38.150134" lon="-2.227121">
        <ele>1090.8</ele>
        <time>2017-05-06T08:02:17Z</time>
      </trkpt>
      <trkpt lat="38.150031" lon="-2.227170">
        <ele>1090.8</ele>
        <time>2017-05-06T08:02:25Z</time>
      </trkpt>
      <trkpt lat="38.149962" lon="-2.227180">
        <ele>1090.8</ele>
        <time>2017-05-06T08:02:30Z</time>
      </trkpt>
      <trkpt lat="38.149950" lon="-2.227186">
        <ele>1090.8</ele>
        <time>2017-05-06T08:02:31Z</time>
      </trkpt>
      <trkpt lat="38.149739" lon="-2.227275">
        <ele>1091.2</ele>
        <time>2017-05-06T08:02:46Z</time>
      </trkpt>
      <trkpt lat="38.149470" lon="-2.227426">
        <ele>1091.2</ele>
        <time>2017-05-06T08:03:06Z</time>
      </trkpt>
      <trkpt lat="38.149265" lon="-2.227588">
        <ele>1091.2</ele>
        <time>2017-05-06T08:03:23Z</time>
      </trkpt>
      <trkpt lat="38.149214" lon="-2.227619">
        <ele>1091.2</ele>
        <time>2017-05-06T08:03:27Z</time>
      </trkpt>
      <trkpt lat="38.149207" lon="-2.227629">
        <ele>1091.7</ele>
        <time>2017-05-06T08:03:28Z</time>
      </trkpt>
      <trkpt lat="38.149198" lon="-2.227641">
        <ele>1091.2</ele>
        <time>2017-05-06T08:03:29Z</time>
      </trkpt>
      <trkpt lat="38.149187" lon="-2.227653">
        <ele>1091.2</ele>
        <time>2017-05-06T08:03:30Z</time>
      </trkpt>
      <trkpt lat="38.149170" lon="-2.227663">
        <ele>1091.2</ele>
        <time>2017-05-06T08:03:31Z</time>
      </trkpt>
      <trkpt lat="38.149157" lon="-2.227673">
        <ele>1091.2</ele>
        <time>2017-05-06T08:03:32Z</time>
      </trkpt>
      <trkpt lat="38.149143" lon="-2.227681">
        <ele>1092.2</ele>
        <time>2017-05-06T08:03:33Z</time>
      </trkpt>
      <trkpt lat="38.149129" lon="-2.227689">
        <ele>1091.2</ele>
        <time>2017-05-06T08:03:34Z</time>
      </trkpt>
      <trkpt lat="38.148940" lon="-2.227871">
        <ele>1092.7</ele>
        <time>2017-05-06T08:03:51Z</time>
      </trkpt>
      <trkpt lat="38.148821" lon="-2.227959">
        <ele>1093.2</ele>
        <time>2017-05-06T08:04:00Z</time>
      </trkpt>
      <trkpt lat="38.148806" lon="-2.227968">
        <ele>1093.6</ele>
        <time>2017-05-06T08:04:01Z</time>
      </trkpt>
      <trkpt lat="38.148608" lon="-2.228060">
        <ele>1094.6</ele>
        <time>2017-05-06T08:04:15Z</time>
      </trkpt>
      <trkpt lat="38.148593" lon="-2.228061">
        <ele>1094.6</ele>
        <time>2017-05-06T08:04:16Z</time>
      </trkpt>
      <trkpt lat="38.148429" lon="-2.228027">
        <ele>1095.6</ele>
        <time>2017-05-06T08:04:29Z</time>
      </trkpt>
      <trkpt lat="38.148413" lon="-2.228022">
        <ele>1095.6</ele>
        <time>2017-05-06T08:04:30Z</time>
      </trkpt>
      <trkpt lat="38.148218" lon="-2.227961">
        <ele>1096.5</ele>
        <time>2017-05-06T08:04:44Z</time>
      </trkpt>
      <trkpt lat="38.148030" lon="-2.227898">
        <ele>1097.5</ele>
        <time>2017-05-06T08:04:57Z</time>
      </trkpt>
      <trkpt lat="38.147853" lon="-2.227888">
        <ele>1098.9</ele>
        <time>2017-05-06T08:05:11Z</time>
      </trkpt>
      <trkpt lat="38.147628" lon="-2.227889">
        <ele>1100.8</ele>
        <time>2017-05-06T08:05:28Z</time>
      </trkpt>
      <trkpt lat="38.147508" lon="-2.227907">
        <ele>1101.8</ele>
        <time>2017-05-06T08:05:36Z</time>
      </trkpt>
      <trkpt lat="38.147498" lon="-2.227915">
        <ele>1102.3</ele>
        <time>2017-05-06T08:05:37Z</time>
      </trkpt>
      <trkpt lat="38.147485" lon="-2.227925">
        <ele>1102.3</ele>
        <time>2017-05-06T08:05:38Z</time>
      </trkpt>
      <trkpt lat="38.147300" lon="-2.228036">
        <ele>1103.7</ele>
        <time>2017-05-06T08:05:53Z</time>
      </trkpt>
      <trkpt lat="38.147285" lon="-2.228035">
        <ele>1103.2</ele>
        <time>2017-05-06T08:05:54Z</time>
      </trkpt>
      <trkpt lat="38.147269" lon="-2.228035">
        <ele>1103.7</ele>
        <time>2017-05-06T08:05:55Z</time>
      </trkpt>
      <trkpt lat="38.147050" lon="-2.228108">
        <ele>1104.7</ele>
        <time>2017-05-06T08:06:11Z</time>
      </trkpt>
      <trkpt lat="38.146817" lon="-2.228152">
        <ele>1106.1</ele>
        <time>2017-05-06T08:06:27Z</time>
      </trkpt>
      <trkpt lat="38.146652" lon="-2.228154">
        <ele>1107.1</ele>
        <time>2017-05-06T08:06:38Z</time>
      </trkpt>
      <trkpt lat="38.146445" lon="-2.228201">
        <ele>1108.5</ele>
        <time>2017-05-06T08:06:53Z</time>
      </trkpt>
      <trkpt lat="38.146224" lon="-2.228242">
        <ele>1109.0</ele>
        <time>2017-05-06T08:07:08Z</time>
      </trkpt>
      <trkpt lat="38.145994" lon="-2.228294">
        <ele>1110.0</ele>
        <time>2017-05-06T08:07:25Z</time>
      </trkpt>
      <trkpt lat="38.145803" lon="-2.228321">
        <ele>1110.5</ele>
        <time>2017-05-06T08:07:39Z</time>
      </trkpt>
      <trkpt lat="38.145583" lon="-2.228248">
        <ele>1111.4</ele>
        <time>2017-05-06T08:07:54Z</time>
      </trkpt>
      <trkpt lat="38.145402" lon="-2.228188">
        <ele>1112.4</ele>
        <time>2017-05-06T08:08:08Z</time>
      </trkpt>
      <trkpt lat="38.145156" lon="-2.228177">
        <ele>1114.3</ele>
        <time>2017-05-06T08:08:26Z</time>
      </trkpt>
      <trkpt lat="38.144932" lon="-2.228227">
        <ele>1112.9</ele>
        <time>2017-05-06T08:08:42Z</time>
      </trkpt>
      <trkpt lat="38.144857" lon="-2.228194">
        <ele>1112.4</ele>
        <time>2017-05-06T08:08:48Z</time>
      </trkpt>
      <trkpt lat="38.144843" lon="-2.228186">
        <ele>1112.4</ele>
        <time>2017-05-06T08:08:49Z</time>
      </trkpt>
      <trkpt lat="38.144665" lon="-2.228127">
        <ele>1112.4</ele>
        <time>2017-05-06T08:09:03Z</time>
      </trkpt>
      <trkpt lat="38.144651" lon="-2.228121">
        <ele>1111.9</ele>
        <time>2017-05-06T08:09:04Z</time>
      </trkpt>
      <trkpt lat="38.144637" lon="-2.228113">
        <ele>1111.4</ele>
        <time>2017-05-06T08:09:05Z</time>
      </trkpt>
      <trkpt lat="38.144624" lon="-2.228109">
        <ele>1111.9</ele>
        <time>2017-05-06T08:09:06Z</time>
      </trkpt>
      <trkpt lat="38.144397" lon="-2.228051">
        <ele>1110.9</ele>
        <time>2017-05-06T08:09:22Z</time>
      </trkpt>
      <trkpt lat="38.144213" lon="-2.227896">
        <ele>1110.0</ele>
        <time>2017-05-06T08:09:39Z</time>
      </trkpt>
      <trkpt lat="38.143962" lon="-2.227770">
        <ele>1109.0</ele>
        <time>2017-05-06T08:09:57Z</time>
      </trkpt>
      <trkpt lat="38.143709" lon="-2.227819">
        <ele>1108.1</ele>
        <time>2017-05-06T08:10:15Z</time>
      </trkpt>
      <trkpt lat="38.143577" lon="-2.227890">
        <ele>1107.6</ele>
        <time>2017-05-06T08:10:26Z</time>
      </trkpt>
      <trkpt lat="38.143547" lon="-2.227902">
        <ele>1107.1</ele>
        <time>2017-05-06T08:10:32Z</time>
      </trkpt>
      <trkpt lat="38.143531" lon="-2.227907">
        <ele>1107.1</ele>
        <time>2017-05-06T08:10:33Z</time>
      </trkpt>
      <trkpt lat="38.143328" lon="-2.228012">
        <ele>1106.1</ele>
        <time>2017-05-06T08:10:47Z</time>
      </trkpt>
      <trkpt lat="38.143084" lon="-2.228142">
        <ele>1105.7</ele>
        <time>2017-05-06T08:11:05Z</time>
      </trkpt>
      <trkpt lat="38.142868" lon="-2.228254">
        <ele>1105.7</ele>
        <time>2017-05-06T08:11:21Z</time>
      </trkpt>
      <trkpt lat="38.142663" lon="-2.228372">
        <ele>1106.1</ele>
        <time>2017-05-06T08:11:37Z</time>
      </trkpt>
      <trkpt lat="38.142491" lon="-2.228470">
        <ele>1106.6</ele>
        <time>2017-05-06T08:11:51Z</time>
      </trkpt>
      <trkpt lat="38.142301" lon="-2.228563">
        <ele>1107.6</ele>
        <time>2017-05-06T08:12:06Z</time>
      </trkpt>
      <trkpt lat="38.142159" lon="-2.228690">
        <ele>1109.0</ele>
        <time>2017-05-06T08:14:38Z</time>
      </trkpt>
      <trkpt lat="38.142111" lon="-2.228707">
        <ele>1108.5</ele>
        <time>2017-05-06T08:14:43Z</time>
      </trkpt>
      <trkpt lat="38.141880" lon="-2.228811">
        <ele>1109.0</ele>
        <time>2017-05-06T08:14:59Z</time>
      </trkpt>
      <trkpt lat="38.141702" lon="-2.228915">
        <ele>1109.5</ele>
        <time>2017-05-06T08:15:14Z</time>
      </trkpt>
      <trkpt lat="38.141512" lon="-2.228966">
        <ele>1111.4</ele>
        <time>2017-05-06T08:15:29Z</time>
      </trkpt>
      <trkpt lat="38.141260" lon="-2.228999">
        <ele>1111.9</ele>
        <time>2017-05-06T08:15:46Z</time>
      </trkpt>
      <trkpt lat="38.141094" lon="-2.228958">
        <ele>1111.4</ele>
        <time>2017-05-06T08:16:00Z</time>
      </trkpt>
      <trkpt lat="38.140829" lon="-2.228916">
        <ele>1111.4</ele>
        <time>2017-05-06T08:16:15Z</time>
      </trkpt>
      <trkpt lat="38.140594" lon="-2.228909">
        <ele>1111.4</ele>
        <time>2017-05-06T08:16:33Z</time>
      </trkpt>
      <trkpt lat="38.140390" lon="-2.228876">
        <ele>1110.5</ele>
        <time>2017-05-06T08:16:46Z</time>
      </trkpt>
      <trkpt lat="38.140171" lon="-2.228832">
        <ele>1111.4</ele>
        <time>2017-05-06T08:17:01Z</time>
      </trkpt>
      <trkpt lat="38.139968" lon="-2.228773">
        <ele>1110.9</ele>
        <time>2017-05-06T08:17:16Z</time>
      </trkpt>
      <trkpt lat="38.139749" lon="-2.228670">
        <ele>1111.9</ele>
        <time>2017-05-06T08:17:32Z</time>
      </trkpt>
      <trkpt lat="38.139702" lon="-2.228667">
        <ele>1111.4</ele>
        <time>2017-05-06T08:17:36Z</time>
      </trkpt>
      <trkpt lat="38.139685" lon="-2.228661">
        <ele>1111.9</ele>
        <time>2017-05-06T08:17:37Z</time>
      </trkpt>
      <trkpt lat="38.139668" lon="-2.228657">
        <ele>1111.9</ele>
        <time>2017-05-06T08:17:38Z</time>
      </trkpt>
      <trkpt lat="38.139484" lon="-2.228562">
        <ele>1112.4</ele>
        <time>2017-05-06T08:17:52Z</time>
      </trkpt>
      <trkpt lat="38.139268" lon="-2.228493">
        <ele>1113.3</ele>
        <time>2017-05-06T08:18:06Z</time>
      </trkpt>
      <trkpt lat="38.139209" lon="-2.228476">
        <ele>1112.9</ele>
        <time>2017-05-06T08:18:10Z</time>
      </trkpt>
      <trkpt lat="38.139014" lon="-2.228473">
        <ele>1113.3</ele>
        <time>2017-05-06T08:18:24Z</time>
      </trkpt>
      <trkpt lat="38.138785" lon="-2.228555">
        <ele>1113.8</ele>
        <time>2017-05-06T08:18:40Z</time>
      </trkpt>
      <trkpt lat="38.138572" lon="-2.228634">
        <ele>1113.8</ele>
        <time>2017-05-06T08:18:55Z</time>
      </trkpt>
      <trkpt lat="38.138426" lon="-2.228620">
        <ele>1113.8</ele>
        <time>2017-05-06T08:19:09Z</time>
      </trkpt>
      <trkpt lat="38.138347" lon="-2.228617">
        <ele>1113.8</ele>
        <time>2017-05-06T08:19:27Z</time>
      </trkpt>
      <trkpt lat="38.138289" lon="-2.228586">
        <ele>1113.8</ele>
        <time>2017-05-06T08:20:25Z</time>
      </trkpt>
      <trkpt lat="38.138264" lon="-2.228573">
        <ele>1113.8</ele>
        <time>2017-05-06T08:20:26Z</time>
      </trkpt>
      <trkpt lat="38.138222" lon="-2.228543">
        <ele>1114.3</ele>
        <time>2017-05-06T08:20:29Z</time>
      </trkpt>
      <trkpt lat="38.138188" lon="-2.228521">
        <ele>1114.3</ele>
        <time>2017-05-06T08:20:32Z</time>
      </trkpt>
      <trkpt lat="38.138174" lon="-2.228514">
        <ele>1114.3</ele>
        <time>2017-05-06T08:20:33Z</time>
      </trkpt>
      <trkpt lat="38.137912" lon="-2.228383">
        <ele>1114.8</ele>
        <time>2017-05-06T08:20:50Z</time>
      </trkpt>
      <trkpt lat="38.137695" lon="-2.228289">
        <ele>1115.3</ele>
        <time>2017-05-06T08:21:05Z</time>
      </trkpt>
      <trkpt lat="38.137589" lon="-2.228247">
        <ele>1115.8</ele>
        <time>2017-05-06T08:21:12Z</time>
      </trkpt>
      <trkpt lat="38.137576" lon="-2.228240">
        <ele>1115.8</ele>
        <time>2017-05-06T08:21:13Z</time>
      </trkpt>
      <trkpt lat="38.137561" lon="-2.228238">
        <ele>1116.2</ele>
        <time>2017-05-06T08:21:14Z</time>
      </trkpt>
      <trkpt lat="38.137547" lon="-2.228237">
        <ele>1116.2</ele>
        <time>2017-05-06T08:21:15Z</time>
      </trkpt>
      <trkpt lat="38.137383" lon="-2.228186">
        <ele>1116.2</ele>
        <time>2017-05-06T08:21:29Z</time>
      </trkpt>
      <trkpt lat="38.137358" lon="-2.228172">
        <ele>1116.2</ele>
        <time>2017-05-06T08:21:32Z</time>
      </trkpt>
      <trkpt lat="38.137324" lon="-2.228156">
        <ele>1116.7</ele>
        <time>2017-05-06T08:21:34Z</time>
      </trkpt>
      <trkpt lat="38.137102" lon="-2.228062">
        <ele>1116.7</ele>
        <time>2017-05-06T08:21:48Z</time>
      </trkpt>
      <trkpt lat="38.137087" lon="-2.228064">
        <ele>1116.7</ele>
        <time>2017-05-06T08:21:49Z</time>
      </trkpt>
      <trkpt lat="38.136950" lon="-2.228003">
        <ele>1117.2</ele>
        <time>2017-05-06T08:21:59Z</time>
      </trkpt>
      <trkpt lat="38.136762" lon="-2.228001">
        <ele>1117.2</ele>
        <time>2017-05-06T08:22:12Z</time>
      </trkpt>
      <trkpt lat="38.136743" lon="-2.227996">
        <ele>1117.7</ele>
        <time>2017-05-06T08:22:13Z</time>
      </trkpt>
      <trkpt lat="38.136728" lon="-2.227995">
        <ele>1117.7</ele>
        <time>2017-05-06T08:22:14Z</time>
      </trkpt>
      <trkpt lat="38.136470" lon="-2.227965">
        <ele>1118.6</ele>
        <time>2017-05-06T08:22:30Z</time>
      </trkpt>
      <trkpt lat="38.136190" lon="-2.227994">
        <ele>1119.6</ele>
        <time>2017-05-06T08:22:48Z</time>
      </trkpt>
      <trkpt lat="38.135983" lon="-2.227978">
        <ele>1120.1</ele>
        <time>2017-05-06T08:23:02Z</time>
      </trkpt>
      <trkpt lat="38.135968" lon="-2.227978">
        <ele>1120.6</ele>
        <time>2017-05-06T08:23:03Z</time>
      </trkpt>
      <trkpt lat="38.135953" lon="-2.227981">
        <ele>1120.6</ele>
        <time>2017-05-06T08:23:04Z</time>
      </trkpt>
      <trkpt lat="38.135939" lon="-2.227983">
        <ele>1120.1</ele>
        <time>2017-05-06T08:23:05Z</time>
      </trkpt>
      <trkpt lat="38.135924" lon="-2.227987">
        <ele>1120.6</ele>
        <time>2017-05-06T08:23:06Z</time>
      </trkpt>
      <trkpt lat="38.135911" lon="-2.227990">
        <ele>1120.1</ele>
        <time>2017-05-06T08:23:07Z</time>
      </trkpt>
      <trkpt lat="38.135734" lon="-2.228000">
        <ele>1121.0</ele>
        <time>2017-05-06T08:23:19Z</time>
      </trkpt>
      <trkpt lat="38.135547" lon="-2.227982">
        <ele>1122.0</ele>
        <time>2017-05-06T08:23:32Z</time>
      </trkpt>
      <trkpt lat="38.135313" lon="-2.227979">
        <ele>1123.0</ele>
        <time>2017-05-06T08:23:48Z</time>
      </trkpt>
      <trkpt lat="38.135038" lon="-2.227964">
        <ele>1124.4</ele>
        <time>2017-05-06T08:24:07Z</time>
      </trkpt>
      <trkpt lat="38.134941" lon="-2.227943">
        <ele>1124.9</ele>
        <time>2017-05-06T08:24:13Z</time>
      </trkpt>
      <trkpt lat="38.134717" lon="-2.227870">
        <ele>1124.4</ele>
        <time>2017-05-06T08:24:29Z</time>
      </trkpt>
      <trkpt lat="38.134532" lon="-2.227780">
        <ele>1124.9</ele>
        <time>2017-05-06T08:24:43Z</time>
      </trkpt>
      <trkpt lat="38.134518" lon="-2.227773">
        <ele>1124.9</ele>
        <time>2017-05-06T08:24:44Z</time>
      </trkpt>
      <trkpt lat="38.134329" lon="-2.227672">
        <ele>1124.9</ele>
        <time>2017-05-06T08:24:58Z</time>
      </trkpt>
      <trkpt lat="38.134129" lon="-2.227566">
        <ele>1124.9</ele>
        <time>2017-05-06T08:25:13Z</time>
      </trkpt>
      <trkpt lat="38.133995" lon="-2.227480">
        <ele>1124.9</ele>
        <time>2017-05-06T08:25:23Z</time>
      </trkpt>
      <trkpt lat="38.133985" lon="-2.227475">
        <ele>1124.9</ele>
        <time>2017-05-06T08:25:24Z</time>
      </trkpt>
      <trkpt lat="38.133804" lon="-2.227328">
        <ele>1124.9</ele>
        <time>2017-05-06T08:25:37Z</time>
      </trkpt>
      <trkpt lat="38.133789" lon="-2.227326">
        <ele>1124.9</ele>
        <time>2017-05-06T08:25:38Z</time>
      </trkpt>
      <trkpt lat="38.133745" lon="-2.227325">
        <ele>1124.9</ele>
        <time>2017-05-06T08:25:41Z</time>
      </trkpt>
      <trkpt lat="38.133733" lon="-2.227328">
        <ele>1125.4</ele>
        <time>2017-05-06T08:25:42Z</time>
      </trkpt>
      <trkpt lat="38.133721" lon="-2.227329">
        <ele>1125.4</ele>
        <time>2017-05-06T08:25:43Z</time>
      </trkpt>
      <trkpt lat="38.133710" lon="-2.227323">
        <ele>1125.4</ele>
        <time>2017-05-06T08:25:44Z</time>
      </trkpt>
      <trkpt lat="38.133694" lon="-2.227316">
        <ele>1125.4</ele>
        <time>2017-05-06T08:25:45Z</time>
      </trkpt>
      <trkpt lat="38.133463" lon="-2.227209">
        <ele>1124.9</ele>
        <time>2017-05-06T08:26:02Z</time>
      </trkpt>
      <trkpt lat="38.133246" lon="-2.227091">
        <ele>1125.4</ele>
        <time>2017-05-06T08:26:18Z</time>
      </trkpt>
      <trkpt lat="38.133047" lon="-2.227000">
        <ele>1125.4</ele>
        <time>2017-05-06T08:26:30Z</time>
      </trkpt>
      <trkpt lat="38.133028" lon="-2.226990">
        <ele>1125.8</ele>
        <time>2017-05-06T08:26:31Z</time>
      </trkpt>
      <trkpt lat="38.132990" lon="-2.226979">
        <ele>1125.8</ele>
        <time>2017-05-06T08:26:33Z</time>
      </trkpt>
      <trkpt lat="38.132963" lon="-2.226981">
        <ele>1126.3</ele>
        <time>2017-05-06T08:26:35Z</time>
      </trkpt>
      <trkpt lat="38.132854" lon="-2.226964">
        <ele>1126.8</ele>
        <time>2017-05-06T08:26:43Z</time>
      </trkpt>
      <trkpt lat="38.132841" lon="-2.226963">
        <ele>1126.8</ele>
        <time>2017-05-06T08:26:44Z</time>
      </trkpt>
      <trkpt lat="38.132598" lon="-2.226923">
        <ele>1128.2</ele>
        <time>2017-05-06T08:27:00Z</time>
      </trkpt>
      <trkpt lat="38.132337" lon="-2.226935">
        <ele>1130.2</ele>
        <time>2017-05-06T08:27:18Z</time>
      </trkpt>
      <trkpt lat="38.132256" lon="-2.226954">
        <ele>1131.6</ele>
        <time>2017-05-06T08:27:24Z</time>
      </trkpt>
      <trkpt lat="38.132239" lon="-2.226958">
        <ele>1131.6</ele>
        <time>2017-05-06T08:27:25Z</time>
      </trkpt>
      <trkpt lat="38.132222" lon="-2.226959">
        <ele>1132.1</ele>
        <time>2017-05-06T08:27:26Z</time>
      </trkpt>
      <trkpt lat="38.132004" lon="-2.227032">
        <ele>1132.6</ele>
        <time>2017-05-06T08:27:41Z</time>
      </trkpt>
      <trkpt lat="38.131938" lon="-2.227045">
        <ele>1133.1</ele>
        <time>2017-05-06T08:27:46Z</time>
      </trkpt>
      <trkpt lat="38.131723" lon="-2.227147">
        <ele>1133.5</ele>
        <time>2017-05-06T08:28:01Z</time>
      </trkpt>
      <trkpt lat="38.131574" lon="-2.227241">
        <ele>1134.5</ele>
        <time>2017-05-06T08:28:13Z</time>
      </trkpt>
      <trkpt lat="38.131373" lon="-2.227312">
        <ele>1134.5</ele>
        <time>2017-05-06T08:28:27Z</time>
      </trkpt>
      <trkpt lat="38.131178" lon="-2.227327">
        <ele>1134.5</ele>
        <time>2017-05-06T08:28:44Z</time>
      </trkpt>
      <trkpt lat="38.131153" lon="-2.227328">
        <ele>1135.4</ele>
        <time>2017-05-06T08:28:49Z</time>
      </trkpt>
      <trkpt lat="38.131085" lon="-2.227284">
        <ele>1135.4</ele>
        <time>2017-05-06T08:28:59Z</time>
      </trkpt>
      <trkpt lat="38.131063" lon="-2.227225">
        <ele>1135.4</ele>
        <time>2017-05-06T08:29:06Z</time>
      </trkpt>
      <trkpt lat="38.131046" lon="-2.227176">
        <ele>1135.0</ele>
        <time>2017-05-06T08:29:25Z</time>
      </trkpt>
      <trkpt lat="38.131033" lon="-2.227165">
        <ele>1135.0</ele>
        <time>2017-05-06T08:29:26Z</time>
      </trkpt>
      <trkpt lat="38.130998" lon="-2.227132">
        <ele>1135.4</ele>
        <time>2017-05-06T08:29:29Z</time>
      </trkpt>
      <trkpt lat="38.130907" lon="-2.227021">
        <ele>1135.4</ele>
        <time>2017-05-06T08:29:42Z</time>
      </trkpt>
      <trkpt lat="38.130897" lon="-2.226998">
        <ele>1135.9</ele>
        <time>2017-05-06T08:29:44Z</time>
      </trkpt>
      <trkpt lat="38.130889" lon="-2.226981">
        <ele>1135.4</ele>
        <time>2017-05-06T08:29:45Z</time>
      </trkpt>
      <trkpt lat="38.130880" lon="-2.226961">
        <ele>1135.4</ele>
        <time>2017-05-06T08:29:46Z</time>
      </trkpt>
      <trkpt lat="38.130738" lon="-2.226724">
        <ele>1135.4</ele>
        <time>2017-05-06T08:30:02Z</time>
      </trkpt>
      <trkpt lat="38.130637" lon="-2.226553">
        <ele>1136.4</ele>
        <time>2017-05-06T08:30:16Z</time>
      </trkpt>
      <trkpt lat="38.130585" lon="-2.226477">
        <ele>1137.9</ele>
        <time>2017-05-06T08:30:27Z</time>
      </trkpt>
      <trkpt lat="38.130513" lon="-2.226306">
        <ele>1137.4</ele>
        <time>2017-05-06T08:30:40Z</time>
      </trkpt>
      <trkpt lat="38.130398" lon="-2.226137">
        <ele>1138.8</ele>
        <time>2017-05-06T08:30:54Z</time>
      </trkpt>
      <trkpt lat="38.130221" lon="-2.225910">
        <ele>1140.3</ele>
        <time>2017-05-06T08:31:10Z</time>
      </trkpt>
      <trkpt lat="38.130051" lon="-2.225746">
        <ele>1139.8</ele>
        <time>2017-05-06T08:31:25Z</time>
      </trkpt>
      <trkpt lat="38.129841" lon="-2.225643">
        <ele>1141.2</ele>
        <time>2017-05-06T08:31:40Z</time>
      </trkpt>
      <trkpt lat="38.129639" lon="-2.225565">
        <ele>1141.7</ele>
        <time>2017-05-06T08:31:55Z</time>
      </trkpt>
      <trkpt lat="38.129518" lon="-2.225526">
        <ele>1142.2</ele>
        <time>2017-05-06T08:32:07Z</time>
      </trkpt>
      <trkpt lat="38.129505" lon="-2.225526">
        <ele>1142.2</ele>
        <time>2017-05-06T08:32:08Z</time>
      </trkpt>
      <trkpt lat="38.129288" lon="-2.225474">
        <ele>1142.7</ele>
        <time>2017-05-06T08:32:24Z</time>
      </trkpt>
      <trkpt lat="38.129074" lon="-2.225440">
        <ele>1143.6</ele>
        <time>2017-05-06T08:32:40Z</time>
      </trkpt>
      <trkpt lat="38.128867" lon="-2.225389">
        <ele>1142.7</ele>
        <time>2017-05-06T08:32:54Z</time>
      </trkpt>
      <trkpt lat="38.128646" lon="-2.225364">
        <ele>1143.6</ele>
        <time>2017-05-06T08:33:10Z</time>
      </trkpt>
      <trkpt lat="38.128494" lon="-2.225331">
        <ele>1143.6</ele>
        <time>2017-05-06T08:33:23Z</time>
      </trkpt>
      <trkpt lat="38.128456" lon="-2.225325">
        <ele>1144.6</ele>
        <time>2017-05-06T08:33:26Z</time>
      </trkpt>
      <trkpt lat="38.128441" lon="-2.225318">
        <ele>1144.6</ele>
        <time>2017-05-06T08:33:27Z</time>
      </trkpt>
      <trkpt lat="38.128425" lon="-2.225313">
        <ele>1145.1</ele>
        <time>2017-05-06T08:33:28Z</time>
      </trkpt>
      <trkpt lat="38.128412" lon="-2.225311">
        <ele>1144.6</ele>
        <time>2017-05-06T08:33:29Z</time>
      </trkpt>
      <trkpt lat="38.128399" lon="-2.225305">
        <ele>1145.1</ele>
        <time>2017-05-06T08:33:30Z</time>
      </trkpt>
      <trkpt lat="38.128386" lon="-2.225298">
        <ele>1144.1</ele>
        <time>2017-05-06T08:33:31Z</time>
      </trkpt>
      <trkpt lat="38.128372" lon="-2.225293">
        <ele>1145.1</ele>
        <time>2017-05-06T08:33:32Z</time>
      </trkpt>
      <trkpt lat="38.128259" lon="-2.225241">
        <ele>1145.1</ele>
        <time>2017-05-06T08:33:46Z</time>
      </trkpt>
      <trkpt lat="38.128168" lon="-2.225227">
        <ele>1146.0</ele>
        <time>2017-05-06T08:33:58Z</time>
      </trkpt>
      <trkpt lat="38.128158" lon="-2.225237">
        <ele>1145.6</ele>
        <time>2017-05-06T08:34:00Z</time>
      </trkpt>
      <trkpt lat="38.128148" lon="-2.225248">
        <ele>1146.5</ele>
        <time>2017-05-06T08:34:01Z</time>
      </trkpt>
      <trkpt lat="38.128138" lon="-2.225262">
        <ele>1146.0</ele>
        <time>2017-05-06T08:34:02Z</time>
      </trkpt>
      <trkpt lat="38.128130" lon="-2.225248">
        <ele>1145.6</ele>
        <time>2017-05-06T08:51:27Z</time>
      </trkpt>
      <trkpt lat="38.128080" lon="-2.225170">
        <ele>1145.6</ele>
        <time>2017-05-06T08:51:33Z</time>
      </trkpt>
      <trkpt lat="38.127977" lon="-2.225184">
        <ele>1145.6</ele>
        <time>2017-05-06T08:51:40Z</time>
      </trkpt>
      <trkpt lat="38.127735" lon="-2.225149">
        <ele>1147.0</ele>
        <time>2017-05-06T08:51:57Z</time>
      </trkpt>
      <trkpt lat="38.127537" lon="-2.225177">
        <ele>1147.0</ele>
        <time>2017-05-06T08:52:12Z</time>
      </trkpt>
      <trkpt lat="38.127444" lon="-2.225222">
        <ele>1147.5</ele>
        <time>2017-05-06T08:52:20Z</time>
      </trkpt>
      <trkpt lat="38.127377" lon="-2.225228">
        <ele>1150.3</ele>
        <time>2017-05-06T08:52:25Z</time>
      </trkpt>
      <trkpt lat="38.127223" lon="-2.225279">
        <ele>1147.5</ele>
        <time>2017-05-06T08:52:38Z</time>
      </trkpt>
      <trkpt lat="38.127038" lon="-2.225298">
        <ele>1147.9</ele>
        <time>2017-05-06T08:52:52Z</time>
      </trkpt>
      <trkpt lat="38.126893" lon="-2.225326">
        <ele>1147.9</ele>
        <time>2017-05-06T08:53:02Z</time>
      </trkpt>
      <trkpt lat="38.126856" lon="-2.225337">
        <ele>1148.4</ele>
        <time>2017-05-06T08:53:05Z</time>
      </trkpt>
      <trkpt lat="38.126839" lon="-2.225340">
        <ele>1148.4</ele>
        <time>2017-05-06T08:53:06Z</time>
      </trkpt>
      <trkpt lat="38.126826" lon="-2.225348">
        <ele>1148.4</ele>
        <time>2017-05-06T08:53:07Z</time>
      </trkpt>
      <trkpt lat="38.126814" lon="-2.225348">
        <ele>1148.9</ele>
        <time>2017-05-06T08:53:08Z</time>
      </trkpt>
      <trkpt lat="38.126802" lon="-2.225347">
        <ele>1148.9</ele>
        <time>2017-05-06T08:53:09Z</time>
      </trkpt>
      <trkpt lat="38.126603" lon="-2.225355">
        <ele>1150.3</ele>
        <time>2017-05-06T08:53:22Z</time>
      </trkpt>
      <trkpt lat="38.126541" lon="-2.225368">
        <ele>1150.8</ele>
        <time>2017-05-06T08:53:27Z</time>
      </trkpt>
      <trkpt lat="38.126523" lon="-2.225381">
        <ele>1151.3</ele>
        <time>2017-05-06T08:53:29Z</time>
      </trkpt>
      <trkpt lat="38.126512" lon="-2.225382">
        <ele>1150.8</ele>
        <time>2017-05-06T08:53:30Z</time>
      </trkpt>
      <trkpt lat="38.126469" lon="-2.225385">
        <ele>1150.8</ele>
        <time>2017-05-06T08:53:33Z</time>
      </trkpt>
      <trkpt lat="38.126459" lon="-2.225389">
        <ele>1151.3</ele>
        <time>2017-05-06T08:53:34Z</time>
      </trkpt>
      <trkpt lat="38.126268" lon="-2.225418">
        <ele>1151.3</ele>
        <time>2017-05-06T08:53:48Z</time>
      </trkpt>
      <trkpt lat="38.126080" lon="-2.225470">
        <ele>1153.2</ele>
        <time>2017-05-06T08:54:03Z</time>
      </trkpt>
      <trkpt lat="38.125883" lon="-2.225524">
        <ele>1154.7</ele>
        <time>2017-05-06T08:54:18Z</time>
      </trkpt>
      <trkpt lat="38.125720" lon="-2.225562">
        <ele>1155.6</ele>
        <time>2017-05-06T08:54:31Z</time>
      </trkpt>
      <trkpt lat="38.125493" lon="-2.225617">
        <ele>1157.6</ele>
        <time>2017-05-06T08:54:48Z</time>
      </trkpt>
      <trkpt lat="38.125372" lon="-2.225654">
        <ele>1158.1</ele>
        <time>2017-05-06T08:54:57Z</time>
      </trkpt>
      <trkpt lat="38.125359" lon="-2.225659">
        <ele>1158.1</ele>
        <time>2017-05-06T08:54:58Z</time>
      </trkpt>
      <trkpt lat="38.125346" lon="-2.225663">
        <ele>1158.1</ele>
        <time>2017-05-06T08:54:59Z</time>
      </trkpt>
      <trkpt lat="38.125332" lon="-2.225663">
        <ele>1158.1</ele>
        <time>2017-05-06T08:55:00Z</time>
      </trkpt>
      <trkpt lat="38.125318" lon="-2.225665">
        <ele>1158.5</ele>
        <time>2017-05-06T08:55:01Z</time>
      </trkpt>
      <trkpt lat="38.125303" lon="-2.225668">
        <ele>1158.1</ele>
        <time>2017-05-06T08:55:02Z</time>
      </trkpt>
      <trkpt lat="38.125290" lon="-2.225673">
        <ele>1158.5</ele>
        <time>2017-05-06T08:55:03Z</time>
      </trkpt>
      <trkpt lat="38.125277" lon="-2.225675">
        <ele>1157.6</ele>
        <time>2017-05-06T08:55:04Z</time>
      </trkpt>
      <trkpt lat="38.125265" lon="-2.225675">
        <ele>1158.1</ele>
        <time>2017-05-06T08:55:05Z</time>
      </trkpt>
      <trkpt lat="38.125195" lon="-2.225688">
        <ele>1158.5</ele>
        <time>2017-05-06T08:55:10Z</time>
      </trkpt>
      <trkpt lat="38.125183" lon="-2.225692">
        <ele>1159.0</ele>
        <time>2017-05-06T08:55:11Z</time>
      </trkpt>
      <trkpt lat="38.124991" lon="-2.225733">
        <ele>1160.0</ele>
        <time>2017-05-06T08:55:26Z</time>
      </trkpt>
      <trkpt lat="38.124805" lon="-2.225758">
        <ele>1160.4</ele>
        <time>2017-05-06T08:55:40Z</time>
      </trkpt>
      <trkpt lat="38.124732" lon="-2.225787">
        <ele>1160.9</ele>
        <time>2017-05-06T08:55:46Z</time>
      </trkpt>
      <trkpt lat="38.124701" lon="-2.225786">
        <ele>1160.9</ele>
        <time>2017-05-06T08:55:48Z</time>
      </trkpt>
      <trkpt lat="38.124529" lon="-2.225808">
        <ele>1162.4</ele>
        <time>2017-05-06T08:56:03Z</time>
      </trkpt>
      <trkpt lat="38.124450" lon="-2.225831">
        <ele>1163.3</ele>
        <time>2017-05-06T08:56:18Z</time>
      </trkpt>
      <trkpt lat="38.124250" lon="-2.225860">
        <ele>1165.3</ele>
        <time>2017-05-06T08:56:33Z</time>
      </trkpt>
      <trkpt lat="38.124148" lon="-2.225900">
        <ele>1165.7</ele>
        <time>2017-05-06T08:56:48Z</time>
      </trkpt>
      <trkpt lat="38.124132" lon="-2.225891">
        <ele>1166.7</ele>
        <time>2017-05-06T08:56:49Z</time>
      </trkpt>
      <trkpt lat="38.124007" lon="-2.225899">
        <ele>1167.2</ele>
        <time>2017-05-06T08:56:59Z</time>
      </trkpt>
      <trkpt lat="38.123993" lon="-2.225900">
        <ele>1166.7</ele>
        <time>2017-05-06T08:57:00Z</time>
      </trkpt>
      <trkpt lat="38.123858" lon="-2.225946">
        <ele>1167.7</ele>
        <time>2017-05-06T08:57:14Z</time>
      </trkpt>
      <trkpt lat="38.123639" lon="-2.226105">
        <ele>1168.1</ele>
        <time>2017-05-06T08:57:31Z</time>
      </trkpt>
      <trkpt lat="38.123484" lon="-2.226301">
        <ele>1168.1</ele>
        <time>2017-05-06T08:57:47Z</time>
      </trkpt>
      <trkpt lat="38.123328" lon="-2.226470">
        <ele>1167.2</ele>
        <time>2017-05-06T08:58:01Z</time>
      </trkpt>
      <trkpt lat="38.123130" lon="-2.226550">
        <ele>1166.7</ele>
        <time>2017-05-06T08:58:18Z</time>
      </trkpt>
      <trkpt lat="38.123060" lon="-2.226471">
        <ele>1167.2</ele>
        <time>2017-05-06T08:58:26Z</time>
      </trkpt>
      <trkpt lat="38.123050" lon="-2.226460">
        <ele>1167.7</ele>
        <time>2017-05-06T08:58:27Z</time>
      </trkpt>
      <trkpt lat="38.123040" lon="-2.226450">
        <ele>1167.7</ele>
        <time>2017-05-06T08:58:28Z</time>
      </trkpt>
      <trkpt lat="38.123028" lon="-2.226445">
        <ele>1167.7</ele>
        <time>2017-05-06T08:58:29Z</time>
      </trkpt>
      <trkpt lat="38.123018" lon="-2.226435">
        <ele>1167.2</ele>
        <time>2017-05-06T08:58:30Z</time>
      </trkpt>
      <trkpt lat="38.123008" lon="-2.226421">
        <ele>1168.1</ele>
        <time>2017-05-06T08:58:31Z</time>
      </trkpt>
      <trkpt lat="38.122902" lon="-2.226311">
        <ele>1169.1</ele>
        <time>2017-05-06T08:58:45Z</time>
      </trkpt>
      <trkpt lat="38.122779" lon="-2.226212">
        <ele>1170.5</ele>
        <time>2017-05-06T08:59:19Z</time>
      </trkpt>
      <trkpt lat="38.122759" lon="-2.226201">
        <ele>1170.1</ele>
        <time>2017-05-06T08:59:20Z</time>
      </trkpt>
      <trkpt lat="38.122734" lon="-2.226187">
        <ele>1170.5</ele>
        <time>2017-05-06T08:59:21Z</time>
      </trkpt>
      <trkpt lat="38.122717" lon="-2.226175">
        <ele>1170.1</ele>
        <time>2017-05-06T08:59:22Z</time>
      </trkpt>
      <trkpt lat="38.122675" lon="-2.226144">
        <ele>1171.5</ele>
        <time>2017-05-06T08:59:34Z</time>
      </trkpt>
      <trkpt lat="38.122579" lon="-2.226132">
        <ele>1172.5</ele>
        <time>2017-05-06T08:59:55Z</time>
      </trkpt>
      <trkpt lat="38.122387" lon="-2.226116">
        <ele>1174.4</ele>
        <time>2017-05-06T09:00:14Z</time>
      </trkpt>
      <trkpt lat="38.122191" lon="-2.226115">
        <ele>1174.9</ele>
        <time>2017-05-06T09:00:27Z</time>
      </trkpt>
      <trkpt lat="38.122037" lon="-2.226101">
        <ele>1176.8</ele>
        <time>2017-05-06T09:00:40Z</time>
      </trkpt>
      <trkpt lat="38.121900" lon="-2.226091">
        <ele>1177.8</ele>
        <time>2017-05-06T09:00:53Z</time>
      </trkpt>
      <trkpt lat="38.121689" lon="-2.226083">
        <ele>1179.7</ele>
        <time>2017-05-06T09:01:08Z</time>
      </trkpt>
      <trkpt lat="38.121518" lon="-2.226098">
        <ele>1181.6</ele>
        <time>2017-05-06T09:01:23Z</time>
      </trkpt>
      <trkpt lat="38.121402" lon="-2.226115">
        <ele>1182.6</ele>
        <time>2017-05-06T09:01:35Z</time>
      </trkpt>
      <trkpt lat="38.121362" lon="-2.226121">
        <ele>1183.0</ele>
        <time>2017-05-06T09:01:38Z</time>
      </trkpt>
      <trkpt lat="38.121335" lon="-2.226127">
        <ele>1183.0</ele>
        <time>2017-05-06T09:01:40Z</time>
      </trkpt>
      <trkpt lat="38.121299" lon="-2.226135">
        <ele>1183.0</ele>
        <time>2017-05-06T09:01:43Z</time>
      </trkpt>
      <trkpt lat="38.121286" lon="-2.226136">
        <ele>1183.0</ele>
        <time>2017-05-06T09:01:44Z</time>
      </trkpt>
      <trkpt lat="38.121274" lon="-2.226140">
        <ele>1182.6</ele>
        <time>2017-05-06T09:01:45Z</time>
      </trkpt>
      <trkpt lat="38.121253" lon="-2.226149">
        <ele>1183.0</ele>
        <time>2017-05-06T09:01:47Z</time>
      </trkpt>
      <trkpt lat="38.121242" lon="-2.226158">
        <ele>1182.6</ele>
        <time>2017-05-06T09:01:48Z</time>
      </trkpt>
      <trkpt lat="38.121232" lon="-2.226166">
        <ele>1183.0</ele>
        <time>2017-05-06T09:01:49Z</time>
      </trkpt>
      <trkpt lat="38.121221" lon="-2.226171">
        <ele>1182.6</ele>
        <time>2017-05-06T09:01:50Z</time>
      </trkpt>
      <trkpt lat="38.121209" lon="-2.226175">
        <ele>1182.6</ele>
        <time>2017-05-06T09:01:51Z</time>
      </trkpt>
      <trkpt lat="38.121039" lon="-2.226236">
        <ele>1183.5</ele>
        <time>2017-05-06T09:02:05Z</time>
      </trkpt>
      <trkpt lat="38.120852" lon="-2.226198">
        <ele>1184.0</ele>
        <time>2017-05-06T09:02:23Z</time>
      </trkpt>
      <trkpt lat="38.120705" lon="-2.226169">
        <ele>1185.4</ele>
        <time>2017-05-06T09:02:36Z</time>
      </trkpt>
      <trkpt lat="38.120509" lon="-2.226120">
        <ele>1186.9</ele>
        <time>2017-05-06T09:02:53Z</time>
      </trkpt>
      <trkpt lat="38.120318" lon="-2.226094">
        <ele>1187.8</ele>
        <time>2017-05-06T09:03:08Z</time>
      </trkpt>
      <trkpt lat="38.120195" lon="-2.226057">
        <ele>1188.8</ele>
        <time>2017-05-06T09:03:18Z</time>
      </trkpt>
      <trkpt lat="38.120184" lon="-2.226058">
        <ele>1188.8</ele>
        <time>2017-05-06T09:03:19Z</time>
      </trkpt>
      <trkpt lat="38.120123" lon="-2.226059">
        <ele>1188.8</ele>
        <time>2017-05-06T09:03:24Z</time>
      </trkpt>
      <trkpt lat="38.120111" lon="-2.226052">
        <ele>1188.8</ele>
        <time>2017-05-06T09:03:25Z</time>
      </trkpt>
      <trkpt lat="38.120100" lon="-2.226053">
        <ele>1189.3</ele>
        <time>2017-05-06T09:03:26Z</time>
      </trkpt>
      <trkpt lat="38.120088" lon="-2.226054">
        <ele>1189.3</ele>
        <time>2017-05-06T09:03:27Z</time>
      </trkpt>
      <trkpt lat="38.120076" lon="-2.226054">
        <ele>1188.8</ele>
        <time>2017-05-06T09:03:28Z</time>
      </trkpt>
      <trkpt lat="38.119898" lon="-2.226065">
        <ele>1188.3</ele>
        <time>2017-05-06T09:03:41Z</time>
      </trkpt>
      <trkpt lat="38.119862" lon="-2.226073">
        <ele>1188.3</ele>
        <time>2017-05-06T09:03:44Z</time>
      </trkpt>
      <trkpt lat="38.119690" lon="-2.226142">
        <ele>1186.9</ele>
        <time>2017-05-06T09:03:57Z</time>
      </trkpt>
      <trkpt lat="38.119665" lon="-2.226157">
        <ele>1186.4</ele>
        <time>2017-05-06T09:03:59Z</time>
      </trkpt>
      <trkpt lat="38.119649" lon="-2.226165">
        <ele>1186.9</ele>
        <time>2017-05-06T09:04:00Z</time>
      </trkpt>
      <trkpt lat="38.119633" lon="-2.226173">
        <ele>1186.9</ele>
        <time>2017-05-06T09:04:01Z</time>
      </trkpt>
      <trkpt lat="38.119599" lon="-2.226191">
        <ele>1186.4</ele>
        <time>2017-05-06T09:04:04Z</time>
      </trkpt>
      <trkpt lat="38.119476" lon="-2.226394">
        <ele>1185.0</ele>
        <time>2017-05-06T09:04:20Z</time>
      </trkpt>
      <trkpt lat="38.119413" lon="-2.226592">
        <ele>1182.1</ele>
        <time>2017-05-06T09:04:32Z</time>
      </trkpt>
      <trkpt lat="38.119406" lon="-2.226622">
        <ele>1182.1</ele>
        <time>2017-05-06T09:04:34Z</time>
      </trkpt>
      <trkpt lat="38.119400" lon="-2.226638">
        <ele>1181.6</ele>
        <time>2017-05-06T09:04:35Z</time>
      </trkpt>
      <trkpt lat="38.119378" lon="-2.226714">
        <ele>1180.6</ele>
        <time>2017-05-06T09:04:40Z</time>
      </trkpt>
      <trkpt lat="38.119364" lon="-2.226754">
        <ele>1180.2</ele>
        <time>2017-05-06T09:04:43Z</time>
      </trkpt>
      <trkpt lat="38.119357" lon="-2.226768">
        <ele>1180.2</ele>
        <time>2017-05-06T09:04:44Z</time>
      </trkpt>
      <trkpt lat="38.119281" lon="-2.227001">
        <ele>1177.8</ele>
        <time>2017-05-06T09:04:58Z</time>
      </trkpt>
      <trkpt lat="38.119218" lon="-2.227240">
        <ele>1175.8</ele>
        <time>2017-05-06T09:05:14Z</time>
      </trkpt>
      <trkpt lat="38.119170" lon="-2.227496">
        <ele>1172.9</ele>
        <time>2017-05-06T09:05:30Z</time>
      </trkpt>
      <trkpt lat="38.119008" lon="-2.227616">
        <ele>1171.5</ele>
        <time>2017-05-06T09:05:45Z</time>
      </trkpt>
      <trkpt lat="38.118903" lon="-2.227607">
        <ele>1172.0</ele>
        <time>2017-05-06T09:05:54Z</time>
      </trkpt>
      <trkpt lat="38.118893" lon="-2.227605">
        <ele>1172.0</ele>
        <time>2017-05-06T09:05:55Z</time>
      </trkpt>
      <trkpt lat="38.118883" lon="-2.227604">
        <ele>1172.5</ele>
        <time>2017-05-06T09:05:56Z</time>
      </trkpt>
      <trkpt lat="38.118790" lon="-2.227545">
        <ele>1172.5</ele>
        <time>2017-05-06T09:06:04Z</time>
      </trkpt>
      <trkpt lat="38.118776" lon="-2.227534">
        <ele>1172.5</ele>
        <time>2017-05-06T09:06:05Z</time>
      </trkpt>
      <trkpt lat="38.118714" lon="-2.227487">
        <ele>1172.9</ele>
        <time>2017-05-06T09:06:11Z</time>
      </trkpt>
      <trkpt lat="38.118704" lon="-2.227475">
        <ele>1172.9</ele>
        <time>2017-05-06T09:06:12Z</time>
      </trkpt>
      <trkpt lat="38.118564" lon="-2.227376">
        <ele>1173.9</ele>
        <time>2017-05-06T09:06:25Z</time>
      </trkpt>
      <trkpt lat="38.118501" lon="-2.227325">
        <ele>1173.9</ele>
        <time>2017-05-06T09:06:31Z</time>
      </trkpt>
      <trkpt lat="38.118488" lon="-2.227321">
        <ele>1173.4</ele>
        <time>2017-05-06T09:06:32Z</time>
      </trkpt>
      <trkpt lat="38.118476" lon="-2.227317">
        <ele>1173.4</ele>
        <time>2017-05-06T09:06:33Z</time>
      </trkpt>
      <trkpt lat="38.118467" lon="-2.227311">
        <ele>1172.9</ele>
        <time>2017-05-06T09:06:34Z</time>
      </trkpt>
      <trkpt lat="38.118457" lon="-2.227302">
        <ele>1172.9</ele>
        <time>2017-05-06T09:06:35Z</time>
      </trkpt>
      <trkpt lat="38.118446" lon="-2.227289">
        <ele>1173.4</ele>
        <time>2017-05-06T09:06:36Z</time>
      </trkpt>
      <trkpt lat="38.118268" lon="-2.227098">
        <ele>1173.4</ele>
        <time>2017-05-06T09:06:53Z</time>
      </trkpt>
      <trkpt lat="38.118118" lon="-2.226932">
        <ele>1174.4</ele>
        <time>2017-05-06T09:07:09Z</time>
      </trkpt>
      <trkpt lat="38.118014" lon="-2.226738">
        <ele>1176.3</ele>
        <time>2017-05-06T09:07:24Z</time>
      </trkpt>
      <trkpt lat="38.117921" lon="-2.226533">
        <ele>1179.2</ele>
        <time>2017-05-06T09:07:38Z</time>
      </trkpt>
      <trkpt lat="38.117890" lon="-2.226462">
        <ele>1179.7</ele>
        <time>2017-05-06T09:07:44Z</time>
      </trkpt>
      <trkpt lat="38.117881" lon="-2.226450">
        <ele>1180.2</ele>
        <time>2017-05-06T09:07:45Z</time>
      </trkpt>
      <trkpt lat="38.117873" lon="-2.226436">
        <ele>1179.7</ele>
        <time>2017-05-06T09:07:46Z</time>
      </trkpt>
      <trkpt lat="38.117853" lon="-2.226376">
        <ele>1180.6</ele>
        <time>2017-05-06T09:07:50Z</time>
      </trkpt>
      <trkpt lat="38.117842" lon="-2.226365">
        <ele>1180.6</ele>
        <time>2017-05-06T09:07:51Z</time>
      </trkpt>
      <trkpt lat="38.117831" lon="-2.226353">
        <ele>1181.1</ele>
        <time>2017-05-06T09:07:52Z</time>
      </trkpt>
      <trkpt lat="38.117824" lon="-2.226340">
        <ele>1181.1</ele>
        <time>2017-05-06T09:07:53Z</time>
      </trkpt>
      <trkpt lat="38.117816" lon="-2.226329">
        <ele>1181.6</ele>
        <time>2017-05-06T09:07:54Z</time>
      </trkpt>
      <trkpt lat="38.117809" lon="-2.226317">
        <ele>1181.6</ele>
        <time>2017-05-06T09:07:55Z</time>
      </trkpt>
      <trkpt lat="38.117709" lon="-2.226198">
        <ele>1183.0</ele>
        <time>2017-05-06T09:08:06Z</time>
      </trkpt>
      <trkpt lat="38.117536" lon="-2.226070">
        <ele>1184.0</ele>
        <time>2017-05-06T09:08:21Z</time>
      </trkpt>
      <trkpt lat="38.117335" lon="-2.226042">
        <ele>1185.4</ele>
        <time>2017-05-06T09:08:36Z</time>
      </trkpt>
      <trkpt lat="38.117098" lon="-2.226051">
        <ele>1186.9</ele>
        <time>2017-05-06T09:08:54Z</time>
      </trkpt>
      <trkpt lat="38.117084" lon="-2.226053">
        <ele>1187.4</ele>
        <time>2017-05-06T09:08:55Z</time>
      </trkpt>
      <trkpt lat="38.117072" lon="-2.226054">
        <ele>1186.9</ele>
        <time>2017-05-06T09:08:56Z</time>
      </trkpt>
      <trkpt lat="38.117061" lon="-2.226055">
        <ele>1186.9</ele>
        <time>2017-05-06T09:08:57Z</time>
      </trkpt>
      <trkpt lat="38.117048" lon="-2.226055">
        <ele>1187.4</ele>
        <time>2017-05-06T09:08:58Z</time>
      </trkpt>
      <trkpt lat="38.117034" lon="-2.226053">
        <ele>1187.4</ele>
        <time>2017-05-06T09:08:59Z</time>
      </trkpt>
      <trkpt lat="38.117021" lon="-2.226052">
        <ele>1187.8</ele>
        <time>2017-05-06T09:09:00Z</time>
      </trkpt>
      <trkpt lat="38.117008" lon="-2.226050">
        <ele>1187.8</ele>
        <time>2017-05-06T09:09:01Z</time>
      </trkpt>
      <trkpt lat="38.116838" lon="-2.226047">
        <ele>1189.3</ele>
        <time>2017-05-06T09:09:14Z</time>
      </trkpt>
      <trkpt lat="38.116638" lon="-2.226040">
        <ele>1190.2</ele>
        <time>2017-05-06T09:09:29Z</time>
      </trkpt>
      <trkpt lat="38.116598" lon="-2.226038">
        <ele>1190.2</ele>
        <time>2017-05-06T09:09:32Z</time>
      </trkpt>
      <trkpt lat="38.116399" lon="-2.226035">
        <ele>1191.2</ele>
        <time>2017-05-06T09:09:47Z</time>
      </trkpt>
      <trkpt lat="38.116315" lon="-2.226023">
        <ele>1192.2</ele>
        <time>2017-05-06T09:09:53Z</time>
      </trkpt>
      <trkpt lat="38.116303" lon="-2.226022">
        <ele>1192.2</ele>
        <time>2017-05-06T09:09:54Z</time>
      </trkpt>
      <trkpt lat="38.116294" lon="-2.226021">
        <ele>1192.7</ele>
        <time>2017-05-06T09:09:55Z</time>
      </trkpt>
      <trkpt lat="38.116283" lon="-2.226023">
        <ele>1192.2</ele>
        <time>2017-05-06T09:09:56Z</time>
      </trkpt>
      <trkpt lat="38.116270" lon="-2.226024">
        <ele>1192.2</ele>
        <time>2017-05-06T09:09:57Z</time>
      </trkpt>
      <trkpt lat="38.116255" lon="-2.226026">
        <ele>1192.2</ele>
        <time>2017-05-06T09:09:58Z</time>
      </trkpt>
      <trkpt lat="38.116242" lon="-2.226026">
        <ele>1192.2</ele>
        <time>2017-05-06T09:09:59Z</time>
      </trkpt>
      <trkpt lat="38.116228" lon="-2.226026">
        <ele>1192.7</ele>
        <time>2017-05-06T09:10:00Z</time>
      </trkpt>
      <trkpt lat="38.116215" lon="-2.226022">
        <ele>1192.2</ele>
        <time>2017-05-06T09:10:01Z</time>
      </trkpt>
      <trkpt lat="38.115963" lon="-2.226023">
        <ele>1193.6</ele>
        <time>2017-05-06T09:10:20Z</time>
      </trkpt>
      <trkpt lat="38.115913" lon="-2.226043">
        <ele>1193.6</ele>
        <time>2017-05-06T09:10:25Z</time>
      </trkpt>
      <trkpt lat="38.115905" lon="-2.226045">
        <ele>1193.6</ele>
        <time>2017-05-06T09:10:26Z</time>
      </trkpt>
      <trkpt lat="38.115897" lon="-2.226049">
        <ele>1193.6</ele>
        <time>2017-05-06T09:10:27Z</time>
      </trkpt>
      <trkpt lat="38.115888" lon="-2.226050">
        <ele>1194.1</ele>
        <time>2017-05-06T09:10:28Z</time>
      </trkpt>
      <trkpt lat="38.115871" lon="-2.226050">
        <ele>1194.1</ele>
        <time>2017-05-06T09:10:29Z</time>
      </trkpt>
      <trkpt lat="38.115853" lon="-2.226052">
        <ele>1193.6</ele>
        <time>2017-05-06T09:10:30Z</time>
      </trkpt>
      <trkpt lat="38.115660" lon="-2.226125">
        <ele>1193.6</ele>
        <time>2017-05-06T09:10:44Z</time>
      </trkpt>
      <trkpt lat="38.115491" lon="-2.226221">
        <ele>1193.1</ele>
        <time>2017-05-06T09:10:57Z</time>
      </trkpt>
      <trkpt lat="38.115467" lon="-2.226226">
        <ele>1193.1</ele>
        <time>2017-05-06T09:10:59Z</time>
      </trkpt>
      <trkpt lat="38.115454" lon="-2.226228">
        <ele>1193.6</ele>
        <time>2017-05-06T09:11:00Z</time>
      </trkpt>
      <trkpt lat="38.115440" lon="-2.226227">
        <ele>1192.7</ele>
        <time>2017-05-06T09:11:01Z</time>
      </trkpt>
      <trkpt lat="38.115424" lon="-2.226228">
        <ele>1193.6</ele>
        <time>2017-05-06T09:11:02Z</time>
      </trkpt>
      <trkpt lat="38.115408" lon="-2.226232">
        <ele>1193.6</ele>
        <time>2017-05-06T09:11:03Z</time>
      </trkpt>
      <trkpt lat="38.115391" lon="-2.226238">
        <ele>1193.6</ele>
        <time>2017-05-06T09:11:04Z</time>
      </trkpt>
      <trkpt lat="38.115325" lon="-2.226264">
        <ele>1193.1</ele>
        <time>2017-05-06T09:11:09Z</time>
      </trkpt>
      <trkpt lat="38.115318" lon="-2.226276">
        <ele>1193.6</ele>
        <time>2017-05-06T09:11:10Z</time>
      </trkpt>
      <trkpt lat="38.115307" lon="-2.226284">
        <ele>1193.1</ele>
        <time>2017-05-06T09:11:11Z</time>
      </trkpt>
      <trkpt lat="38.115293" lon="-2.226291">
        <ele>1193.1</ele>
        <time>2017-05-06T09:11:12Z</time>
      </trkpt>
      <trkpt lat="38.115279" lon="-2.226294">
        <ele>1193.1</ele>
        <time>2017-05-06T09:11:13Z</time>
      </trkpt>
      <trkpt lat="38.115249" lon="-2.226301">
        <ele>1192.7</ele>
        <time>2017-05-06T09:11:15Z</time>
      </trkpt>
      <trkpt lat="38.115233" lon="-2.226307">
        <ele>1192.7</ele>
        <time>2017-05-06T09:11:16Z</time>
      </trkpt>
      <trkpt lat="38.115034" lon="-2.226402">
        <ele>1192.2</ele>
        <time>2017-05-06T09:11:32Z</time>
      </trkpt>
      <trkpt lat="38.114826" lon="-2.226457">
        <ele>1192.7</ele>
        <time>2017-05-06T09:11:48Z</time>
      </trkpt>
      <trkpt lat="38.114771" lon="-2.226477">
        <ele>1193.1</ele>
        <time>2017-05-06T09:11:52Z</time>
      </trkpt>
      <trkpt lat="38.114758" lon="-2.226479">
        <ele>1192.7</ele>
        <time>2017-05-06T09:11:53Z</time>
      </trkpt>
      <trkpt lat="38.114606" lon="-2.226536">
        <ele>1193.6</ele>
        <time>2017-05-06T09:12:05Z</time>
      </trkpt>
      <trkpt lat="38.114590" lon="-2.226536">
        <ele>1193.1</ele>
        <time>2017-05-06T09:12:06Z</time>
      </trkpt>
      <trkpt lat="38.114577" lon="-2.226537">
        <ele>1192.7</ele>
        <time>2017-05-06T09:12:07Z</time>
      </trkpt>
      <trkpt lat="38.114337" lon="-2.226579">
        <ele>1194.1</ele>
        <time>2017-05-06T09:12:25Z</time>
      </trkpt>
      <trkpt lat="38.114164" lon="-2.226637">
        <ele>1194.1</ele>
        <time>2017-05-06T09:12:40Z</time>
      </trkpt>
      <trkpt lat="38.113944" lon="-2.226657">
        <ele>1195.1</ele>
        <time>2017-05-06T09:12:56Z</time>
      </trkpt>
      <trkpt lat="38.113735" lon="-2.226690">
        <ele>1196.0</ele>
        <time>2017-05-06T09:13:12Z</time>
      </trkpt>
      <trkpt lat="38.113544" lon="-2.226719">
        <ele>1197.9</ele>
        <time>2017-05-06T09:13:27Z</time>
      </trkpt>
      <trkpt lat="38.113326" lon="-2.226782">
        <ele>1197.9</ele>
        <time>2017-05-06T09:13:43Z</time>
      </trkpt>
      <trkpt lat="38.113274" lon="-2.226807">
        <ele>1197.0</ele>
        <time>2017-05-06T09:13:47Z</time>
      </trkpt>
      <trkpt lat="38.113259" lon="-2.226807">
        <ele>1197.9</ele>
        <time>2017-05-06T09:13:48Z</time>
      </trkpt>
      <trkpt lat="38.113064" lon="-2.226931">
        <ele>1197.0</ele>
        <time>2017-05-06T09:14:05Z</time>
      </trkpt>
      <trkpt lat="38.112875" lon="-2.227113">
        <ele>1196.0</ele>
        <time>2017-05-06T09:14:21Z</time>
      </trkpt>
      <trkpt lat="38.112711" lon="-2.227311">
        <ele>1194.1</ele>
        <time>2017-05-06T09:14:37Z</time>
      </trkpt>
      <trkpt lat="38.112568" lon="-2.227506">
        <ele>1192.2</ele>
        <time>2017-05-06T09:14:52Z</time>
      </trkpt>
      <trkpt lat="38.112423" lon="-2.227752">
        <ele>1189.3</ele>
        <time>2017-05-06T09:15:10Z</time>
      </trkpt>
      <trkpt lat="38.112222" lon="-2.227775">
        <ele>1188.8</ele>
        <time>2017-05-06T09:15:26Z</time>
      </trkpt>
      <trkpt lat="38.112098" lon="-2.227614">
        <ele>1188.8</ele>
        <time>2017-05-06T09:15:42Z</time>
      </trkpt>
      <trkpt lat="38.112009" lon="-2.227417">
        <ele>1189.8</ele>
        <time>2017-05-06T09:15:56Z</time>
      </trkpt>
      <trkpt lat="38.111924" lon="-2.227225">
        <ele>1191.7</ele>
        <time>2017-05-06T09:16:10Z</time>
      </trkpt>
      <trkpt lat="38.111871" lon="-2.227075">
        <ele>1192.7</ele>
        <time>2017-05-06T09:16:21Z</time>
      </trkpt>
      <trkpt lat="38.111864" lon="-2.227063">
        <ele>1193.1</ele>
        <time>2017-05-06T09:16:22Z</time>
      </trkpt>
      <trkpt lat="38.111861" lon="-2.227051">
        <ele>1192.7</ele>
        <time>2017-05-06T09:16:23Z</time>
      </trkpt>
      <trkpt lat="38.111855" lon="-2.227037">
        <ele>1193.1</ele>
        <time>2017-05-06T09:16:24Z</time>
      </trkpt>
      <trkpt lat="38.111849" lon="-2.227020">
        <ele>1193.1</ele>
        <time>2017-05-06T09:16:25Z</time>
      </trkpt>
      <trkpt lat="38.111844" lon="-2.227002">
        <ele>1193.1</ele>
        <time>2017-05-06T09:16:26Z</time>
      </trkpt>
      <trkpt lat="38.111840" lon="-2.226984">
        <ele>1193.6</ele>
        <time>2017-05-06T09:16:27Z</time>
      </trkpt>
      <trkpt lat="38.111835" lon="-2.226968">
        <ele>1193.6</ele>
        <time>2017-05-06T09:16:28Z</time>
      </trkpt>
      <trkpt lat="38.111831" lon="-2.226954">
        <ele>1194.1</ele>
        <time>2017-05-06T09:16:29Z</time>
      </trkpt>
      <trkpt lat="38.111827" lon="-2.226939">
        <ele>1194.1</ele>
        <time>2017-05-06T09:16:30Z</time>
      </trkpt>
      <trkpt lat="38.111822" lon="-2.226925">
        <ele>1194.1</ele>
        <time>2017-05-06T09:16:31Z</time>
      </trkpt>
      <trkpt lat="38.111815" lon="-2.226914">
        <ele>1194.1</ele>
        <time>2017-05-06T09:16:32Z</time>
      </trkpt>
      <trkpt lat="38.111805" lon="-2.226883">
        <ele>1194.6</ele>
        <time>2017-05-06T09:16:34Z</time>
      </trkpt>
      <trkpt lat="38.111797" lon="-2.226870">
        <ele>1195.5</ele>
        <time>2017-05-06T09:16:35Z</time>
      </trkpt>
      <trkpt lat="38.111789" lon="-2.226861">
        <ele>1195.1</ele>
        <time>2017-05-06T09:16:36Z</time>
      </trkpt>
      <trkpt lat="38.111665" lon="-2.226778">
        <ele>1196.0</ele>
        <time>2017-05-06T09:16:50Z</time>
      </trkpt>
      <trkpt lat="38.111649" lon="-2.226755">
        <ele>1196.0</ele>
        <time>2017-05-06T09:16:56Z</time>
      </trkpt>
      <trkpt lat="38.111613" lon="-2.226729">
        <ele>1196.0</ele>
        <time>2017-05-06T09:16:59Z</time>
      </trkpt>
      <trkpt lat="38.111597" lon="-2.226719">
        <ele>1196.0</ele>
        <time>2017-05-06T09:17:00Z</time>
      </trkpt>
      <trkpt lat="38.111585" lon="-2.226710">
        <ele>1196.0</ele>
        <time>2017-05-06T09:17:01Z</time>
      </trkpt>
      <trkpt lat="38.111560" lon="-2.226682">
        <ele>1196.5</ele>
        <time>2017-05-06T09:17:07Z</time>
      </trkpt>
      <trkpt lat="38.111310" lon="-2.226713">
        <ele>1197.5</ele>
        <time>2017-05-06T09:17:24Z</time>
      </trkpt>
      <trkpt lat="38.111098" lon="-2.226777">
        <ele>1197.9</ele>
        <time>2017-05-06T09:17:39Z</time>
      </trkpt>
      <trkpt lat="38.110954" lon="-2.226819">
        <ele>1197.9</ele>
        <time>2017-05-06T09:17:51Z</time>
      </trkpt>
      <trkpt lat="38.110906" lon="-2.226828">
        <ele>1199.9</ele>
        <time>2017-05-06T09:17:55Z</time>
      </trkpt>
      <trkpt lat="38.110895" lon="-2.226834">
        <ele>1200.3</ele>
        <time>2017-05-06T09:17:56Z</time>
      </trkpt>
      <trkpt lat="38.110883" lon="-2.226841">
        <ele>1198.4</ele>
        <time>2017-05-06T09:17:57Z</time>
      </trkpt>
      <trkpt lat="38.110870" lon="-2.226846">
        <ele>1198.4</ele>
        <time>2017-05-06T09:17:58Z</time>
      </trkpt>
      <trkpt lat="38.110775" lon="-2.226885">
        <ele>1198.9</ele>
        <time>2017-05-06T09:18:06Z</time>
      </trkpt>
      <trkpt lat="38.110763" lon="-2.226887">
        <ele>1198.9</ele>
        <time>2017-05-06T09:18:07Z</time>
      </trkpt>
      <trkpt lat="38.110529" lon="-2.226930">
        <ele>1200.3</ele>
        <time>2017-05-06T09:18:25Z</time>
      </trkpt>
      <trkpt lat="38.110328" lon="-2.226946">
        <ele>1202.3</ele>
        <time>2017-05-06T09:18:40Z</time>
      </trkpt>
      <trkpt lat="38.110232" lon="-2.226963">
        <ele>1202.8</ele>
        <time>2017-05-06T09:18:48Z</time>
      </trkpt>
      <trkpt lat="38.110076" lon="-2.226995">
        <ele>1203.7</ele>
        <time>2017-05-06T09:19:01Z</time>
      </trkpt>
      <trkpt lat="38.109902" lon="-2.227015">
        <ele>1205.6</ele>
        <time>2017-05-06T09:19:16Z</time>
      </trkpt>
      <trkpt lat="38.109700" lon="-2.227073">
        <ele>1206.6</ele>
        <time>2017-05-06T09:19:32Z</time>
      </trkpt>
      <trkpt lat="38.109542" lon="-2.227167">
        <ele>1207.6</ele>
        <time>2017-05-06T09:19:46Z</time>
      </trkpt>
      <trkpt lat="38.109494" lon="-2.227196">
        <ele>1207.6</ele>
        <time>2017-05-06T09:19:50Z</time>
      </trkpt>
      <trkpt lat="38.109483" lon="-2.227209">
        <ele>1207.6</ele>
        <time>2017-05-06T09:19:51Z</time>
      </trkpt>
      <trkpt lat="38.109451" lon="-2.227235">
        <ele>1208.0</ele>
        <time>2017-05-06T09:19:54Z</time>
      </trkpt>
      <trkpt lat="38.109437" lon="-2.227241">
        <ele>1208.0</ele>
        <time>2017-05-06T09:19:55Z</time>
      </trkpt>
      <trkpt lat="38.109286" lon="-2.227346">
        <ele>1208.5</ele>
        <time>2017-05-06T09:20:09Z</time>
      </trkpt>
      <trkpt lat="38.109070" lon="-2.227467">
        <ele>1209.0</ele>
        <time>2017-05-06T09:20:26Z</time>
      </trkpt>
      <trkpt lat="38.109015" lon="-2.227516">
        <ele>1209.5</ele>
        <time>2017-05-06T09:20:32Z</time>
      </trkpt>
      <trkpt lat="38.108805" lon="-2.227652">
        <ele>1210.0</ele>
        <time>2017-05-06T09:20:50Z</time>
      </trkpt>
      <trkpt lat="38.108630" lon="-2.227770">
        <ele>1210.0</ele>
        <time>2017-05-06T09:21:05Z</time>
      </trkpt>
      <trkpt lat="38.108443" lon="-2.227922">
        <ele>1210.9</ele>
        <time>2017-05-06T09:21:21Z</time>
      </trkpt>
      <trkpt lat="38.108304" lon="-2.228052">
        <ele>1211.4</ele>
        <time>2017-05-06T09:21:36Z</time>
      </trkpt>
      <trkpt lat="38.108220" lon="-2.228206">
        <ele>1211.9</ele>
        <time>2017-05-06T09:21:49Z</time>
      </trkpt>
      <trkpt lat="38.108135" lon="-2.228338">
        <ele>1211.9</ele>
        <time>2017-05-06T09:21:59Z</time>
      </trkpt>
      <trkpt lat="38.108126" lon="-2.228355">
        <ele>1212.4</ele>
        <time>2017-05-06T09:22:00Z</time>
      </trkpt>
      <trkpt lat="38.108119" lon="-2.228370">
        <ele>1212.4</ele>
        <time>2017-05-06T09:22:01Z</time>
      </trkpt>
      <trkpt lat="38.108109" lon="-2.228389">
        <ele>1211.9</ele>
        <time>2017-05-06T09:22:02Z</time>
      </trkpt>
      <trkpt lat="38.108101" lon="-2.228405">
        <ele>1211.9</ele>
        <time>2017-05-06T09:22:03Z</time>
      </trkpt>
      <trkpt lat="38.108094" lon="-2.228423">
        <ele>1211.9</ele>
        <time>2017-05-06T09:22:04Z</time>
      </trkpt>
      <trkpt lat="38.108086" lon="-2.228438">
        <ele>1211.9</ele>
        <time>2017-05-06T09:22:05Z</time>
      </trkpt>
      <trkpt lat="38.108077" lon="-2.228450">
        <ele>1211.9</ele>
        <time>2017-05-06T09:22:06Z</time>
      </trkpt>
      <trkpt lat="38.108067" lon="-2.228462">
        <ele>1211.9</ele>
        <time>2017-05-06T09:22:07Z</time>
      </trkpt>
      <trkpt lat="38.108058" lon="-2.228477">
        <ele>1211.4</ele>
        <time>2017-05-06T09:22:08Z</time>
      </trkpt>
      <trkpt lat="38.108049" lon="-2.228490">
        <ele>1211.9</ele>
        <time>2017-05-06T09:22:09Z</time>
      </trkpt>
      <trkpt lat="38.107945" lon="-2.228712">
        <ele>1212.4</ele>
        <time>2017-05-06T09:22:24Z</time>
      </trkpt>
      <trkpt lat="38.107825" lon="-2.228910">
        <ele>1213.3</ele>
        <time>2017-05-06T09:22:39Z</time>
      </trkpt>
      <trkpt lat="38.107712" lon="-2.229107">
        <ele>1213.8</ele>
        <time>2017-05-06T09:22:53Z</time>
      </trkpt>
      <trkpt lat="38.107588" lon="-2.229305">
        <ele>1214.3</ele>
        <time>2017-05-06T09:23:08Z</time>
      </trkpt>
      <trkpt lat="38.107457" lon="-2.229558">
        <ele>1214.3</ele>
        <time>2017-05-06T09:23:26Z</time>
      </trkpt>
      <trkpt lat="38.107334" lon="-2.229788">
        <ele>1214.8</ele>
        <time>2017-05-06T09:23:42Z</time>
      </trkpt>
      <trkpt lat="38.107187" lon="-2.230046">
        <ele>1215.2</ele>
        <time>2017-05-06T09:24:01Z</time>
      </trkpt>
      <trkpt lat="38.107071" lon="-2.230277">
        <ele>1216.7</ele>
        <time>2017-05-06T09:24:17Z</time>
      </trkpt>
      <trkpt lat="38.107033" lon="-2.230319">
        <ele>1216.2</ele>
        <time>2017-05-06T09:24:21Z</time>
      </trkpt>
      <trkpt lat="38.107027" lon="-2.230335">
        <ele>1216.2</ele>
        <time>2017-05-06T09:24:22Z</time>
      </trkpt>
      <trkpt lat="38.107022" lon="-2.230351">
        <ele>1216.2</ele>
        <time>2017-05-06T09:24:23Z</time>
      </trkpt>
      <trkpt lat="38.107019" lon="-2.230370">
        <ele>1216.2</ele>
        <time>2017-05-06T09:24:24Z</time>
      </trkpt>
      <trkpt lat="38.107013" lon="-2.230390">
        <ele>1216.2</ele>
        <time>2017-05-06T09:24:25Z</time>
      </trkpt>
      <trkpt lat="38.107006" lon="-2.230402">
        <ele>1216.7</ele>
        <time>2017-05-06T09:24:26Z</time>
      </trkpt>
      <trkpt lat="38.106997" lon="-2.230415">
        <ele>1216.7</ele>
        <time>2017-05-06T09:24:27Z</time>
      </trkpt>
      <trkpt lat="38.106988" lon="-2.230429">
        <ele>1216.2</ele>
        <time>2017-05-06T09:24:28Z</time>
      </trkpt>
      <trkpt lat="38.106981" lon="-2.230443">
        <ele>1216.7</ele>
        <time>2017-05-06T09:24:29Z</time>
      </trkpt>
      <trkpt lat="38.106974" lon="-2.230456">
        <ele>1217.2</ele>
        <time>2017-05-06T09:24:30Z</time>
      </trkpt>
      <trkpt lat="38.106966" lon="-2.230472">
        <ele>1216.7</ele>
        <time>2017-05-06T09:24:31Z</time>
      </trkpt>
      <trkpt lat="38.106958" lon="-2.230487">
        <ele>1216.7</ele>
        <time>2017-05-06T09:24:32Z</time>
      </trkpt>
      <trkpt lat="38.106844" lon="-2.230698">
        <ele>1217.2</ele>
        <time>2017-05-06T09:24:47Z</time>
      </trkpt>
      <trkpt lat="38.106732" lon="-2.230915">
        <ele>1218.6</ele>
        <time>2017-05-06T09:25:02Z</time>
      </trkpt>
      <trkpt lat="38.106653" lon="-2.231086">
        <ele>1219.1</ele>
        <time>2017-05-06T09:25:14Z</time>
      </trkpt>
      <trkpt lat="38.106637" lon="-2.231128">
        <ele>1219.6</ele>
        <time>2017-05-06T09:25:17Z</time>
      </trkpt>
      <trkpt lat="38.106532" lon="-2.231348">
        <ele>1219.6</ele>
        <time>2017-05-06T09:25:32Z</time>
      </trkpt>
      <trkpt lat="38.106447" lon="-2.231526">
        <ele>1221.5</ele>
        <time>2017-05-06T09:25:46Z</time>
      </trkpt>
      <trkpt lat="38.106367" lon="-2.231732">
        <ele>1222.0</ele>
        <time>2017-05-06T09:25:59Z</time>
      </trkpt>
      <trkpt lat="38.106309" lon="-2.231888">
        <ele>1223.4</ele>
        <time>2017-05-06T09:26:11Z</time>
      </trkpt>
      <trkpt lat="38.106242" lon="-2.232098">
        <ele>1223.9</ele>
        <time>2017-05-06T09:26:25Z</time>
      </trkpt>
      <trkpt lat="38.106188" lon="-2.232246">
        <ele>1224.9</ele>
        <time>2017-05-06T09:26:37Z</time>
      </trkpt>
      <trkpt lat="38.106187" lon="-2.232260">
        <ele>1224.9</ele>
        <time>2017-05-06T09:26:38Z</time>
      </trkpt>
      <trkpt lat="38.106111" lon="-2.232479">
        <ele>1225.8</ele>
        <time>2017-05-06T09:26:53Z</time>
      </trkpt>
      <trkpt lat="38.106065" lon="-2.232613">
        <ele>1226.8</ele>
        <time>2017-05-06T09:27:02Z</time>
      </trkpt>
      <trkpt lat="38.105987" lon="-2.232805">
        <ele>1227.7</ele>
        <time>2017-05-06T09:27:16Z</time>
      </trkpt>
      <trkpt lat="38.105895" lon="-2.233003">
        <ele>1230.1</ele>
        <time>2017-05-06T09:27:32Z</time>
      </trkpt>
      <trkpt lat="38.105853" lon="-2.233078">
        <ele>1229.7</ele>
        <time>2017-05-06T09:27:38Z</time>
      </trkpt>
      <trkpt lat="38.105808" lon="-2.233143">
        <ele>1230.1</ele>
        <time>2017-05-06T09:27:43Z</time>
      </trkpt>
      <trkpt lat="38.105800" lon="-2.233160">
        <ele>1230.1</ele>
        <time>2017-05-06T09:27:44Z</time>
      </trkpt>
      <trkpt lat="38.105794" lon="-2.233175">
        <ele>1229.7</ele>
        <time>2017-05-06T09:27:45Z</time>
      </trkpt>
      <trkpt lat="38.105785" lon="-2.233191">
        <ele>1230.1</ele>
        <time>2017-05-06T09:27:46Z</time>
      </trkpt>
      <trkpt lat="38.105684" lon="-2.233363">
        <ele>1231.1</ele>
        <time>2017-05-06T09:28:00Z</time>
      </trkpt>
      <trkpt lat="38.105682" lon="-2.233380">
        <ele>1231.6</ele>
        <time>2017-05-06T09:28:01Z</time>
      </trkpt>
      <trkpt lat="38.105671" lon="-2.233414">
        <ele>1231.6</ele>
        <time>2017-05-06T09:28:03Z</time>
      </trkpt>
      <trkpt lat="38.105661" lon="-2.233431">
        <ele>1231.6</ele>
        <time>2017-05-06T09:28:04Z</time>
      </trkpt>
      <trkpt lat="38.105652" lon="-2.233444">
        <ele>1231.1</ele>
        <time>2017-05-06T09:28:05Z</time>
      </trkpt>
      <trkpt lat="38.105536" lon="-2.233666">
        <ele>1232.6</ele>
        <time>2017-05-06T09:28:22Z</time>
      </trkpt>
      <trkpt lat="38.105427" lon="-2.233876">
        <ele>1233.0</ele>
        <time>2017-05-06T09:28:38Z</time>
      </trkpt>
      <trkpt lat="38.105290" lon="-2.234102">
        <ele>1234.5</ele>
        <time>2017-05-06T09:28:55Z</time>
      </trkpt>
      <trkpt lat="38.105186" lon="-2.234311">
        <ele>1234.5</ele>
        <time>2017-05-06T09:29:11Z</time>
      </trkpt>
      <trkpt lat="38.105153" lon="-2.234468">
        <ele>1234.0</ele>
        <time>2017-05-06T09:29:25Z</time>
      </trkpt>
      <trkpt lat="38.104969" lon="-2.234706">
        <ele>1234.0</ele>
        <time>2017-05-06T09:29:41Z</time>
      </trkpt>
      <trkpt lat="38.104887" lon="-2.234903">
        <ele>1234.5</ele>
        <time>2017-05-06T09:29:55Z</time>
      </trkpt>
      <trkpt lat="38.104766" lon="-2.235129">
        <ele>1234.5</ele>
        <time>2017-05-06T09:30:11Z</time>
      </trkpt>
      <trkpt lat="38.104628" lon="-2.235382">
        <ele>1234.9</ele>
        <time>2017-05-06T09:30:29Z</time>
      </trkpt>
      <trkpt lat="38.104500" lon="-2.235642">
        <ele>1235.4</ele>
        <time>2017-05-06T09:30:47Z</time>
      </trkpt>
      <trkpt lat="38.104382" lon="-2.235861">
        <ele>1234.9</ele>
        <time>2017-05-06T09:31:03Z</time>
      </trkpt>
      <trkpt lat="38.104303" lon="-2.235994">
        <ele>1235.9</ele>
        <time>2017-05-06T09:31:13Z</time>
      </trkpt>
      <trkpt lat="38.104301" lon="-2.236041">
        <ele>1235.4</ele>
        <time>2017-05-06T09:31:16Z</time>
      </trkpt>
      <trkpt lat="38.104194" lon="-2.236246">
        <ele>1235.4</ele>
        <time>2017-05-06T09:31:31Z</time>
      </trkpt>
      <trkpt lat="38.104067" lon="-2.236487">
        <ele>1237.3</ele>
        <time>2017-05-06T09:31:48Z</time>
      </trkpt>
      <trkpt lat="38.103925" lon="-2.236762">
        <ele>1237.3</ele>
        <time>2017-05-06T09:32:08Z</time>
      </trkpt>
      <trkpt lat="38.103793" lon="-2.236996">
        <ele>1238.3</ele>
        <time>2017-05-06T09:32:25Z</time>
      </trkpt>
      <trkpt lat="38.103715" lon="-2.237147">
        <ele>1238.8</ele>
        <time>2017-05-06T09:32:36Z</time>
      </trkpt>
      <trkpt lat="38.103710" lon="-2.237165">
        <ele>1238.3</ele>
        <time>2017-05-06T09:32:37Z</time>
      </trkpt>
      <trkpt lat="38.103703" lon="-2.237182">
        <ele>1238.3</ele>
        <time>2017-05-06T09:32:38Z</time>
      </trkpt>
      <trkpt lat="38.103557" lon="-2.237437">
        <ele>1239.8</ele>
        <time>2017-05-06T09:32:57Z</time>
      </trkpt>
      <trkpt lat="38.103419" lon="-2.237661">
        <ele>1240.2</ele>
        <time>2017-05-06T09:33:13Z</time>
      </trkpt>
      <trkpt lat="38.103308" lon="-2.237858">
        <ele>1241.2</ele>
        <time>2017-05-06T09:33:28Z</time>
      </trkpt>
      <trkpt lat="38.103174" lon="-2.238107">
        <ele>1240.2</ele>
        <time>2017-05-06T09:33:45Z</time>
      </trkpt>
      <trkpt lat="38.103045" lon="-2.238356">
        <ele>1240.7</ele>
        <time>2017-05-06T09:34:03Z</time>
      </trkpt>
      <trkpt lat="38.102981" lon="-2.238441">
        <ele>1240.2</ele>
        <time>2017-05-06T09:34:10Z</time>
      </trkpt>
      <trkpt lat="38.102972" lon="-2.238453">
        <ele>1239.3</ele>
        <time>2017-05-06T09:34:11Z</time>
      </trkpt>
      <trkpt lat="38.102963" lon="-2.238463">
        <ele>1239.8</ele>
        <time>2017-05-06T09:34:12Z</time>
      </trkpt>
      <trkpt lat="38.102786" lon="-2.238643">
        <ele>1239.3</ele>
        <time>2017-05-06T09:34:30Z</time>
      </trkpt>
      <trkpt lat="38.102765" lon="-2.238664">
        <ele>1239.3</ele>
        <time>2017-05-06T09:34:32Z</time>
      </trkpt>
      <trkpt lat="38.102602" lon="-2.238838">
        <ele>1238.3</ele>
        <time>2017-05-06T09:34:48Z</time>
      </trkpt>
      <trkpt lat="38.102397" lon="-2.239024">
        <ele>1237.3</ele>
        <time>2017-05-06T09:35:07Z</time>
      </trkpt>
      <trkpt lat="38.102386" lon="-2.239033">
        <ele>1237.3</ele>
        <time>2017-05-06T09:35:08Z</time>
      </trkpt>
      <trkpt lat="38.102220" lon="-2.239215">
        <ele>1237.3</ele>
        <time>2017-05-06T09:35:25Z</time>
      </trkpt>
      <trkpt lat="38.102061" lon="-2.239483">
        <ele>1236.9</ele>
        <time>2017-05-06T09:35:44Z</time>
      </trkpt>
      <trkpt lat="38.102011" lon="-2.239802">
        <ele>1235.4</ele>
        <time>2017-05-06T09:36:02Z</time>
      </trkpt>
      <trkpt lat="38.102005" lon="-2.239868">
        <ele>1235.9</ele>
        <time>2017-05-06T09:36:06Z</time>
      </trkpt>
      <trkpt lat="38.102007" lon="-2.239887">
        <ele>1235.4</ele>
        <time>2017-05-06T09:36:07Z</time>
      </trkpt>
      <trkpt lat="38.102009" lon="-2.239906">
        <ele>1234.9</ele>
        <time>2017-05-06T09:36:08Z</time>
      </trkpt>
      <trkpt lat="38.102011" lon="-2.239921">
        <ele>1234.9</ele>
        <time>2017-05-06T09:36:09Z</time>
      </trkpt>
      <trkpt lat="38.102013" lon="-2.239937">
        <ele>1235.4</ele>
        <time>2017-05-06T09:36:10Z</time>
      </trkpt>
      <trkpt lat="38.102010" lon="-2.240249">
        <ele>1234.9</ele>
        <time>2017-05-06T09:36:29Z</time>
      </trkpt>
      <trkpt lat="38.102020" lon="-2.240302">
        <ele>1234.5</ele>
        <time>2017-05-06T09:36:32Z</time>
      </trkpt>
      <trkpt lat="38.102019" lon="-2.240316">
        <ele>1234.9</ele>
        <time>2017-05-06T09:36:33Z</time>
      </trkpt>
      <trkpt lat="38.102020" lon="-2.240331">
        <ele>1234.9</ele>
        <time>2017-05-06T09:36:34Z</time>
      </trkpt>
      <trkpt lat="38.102021" lon="-2.240347">
        <ele>1234.9</ele>
        <time>2017-05-06T09:36:35Z</time>
      </trkpt>
      <trkpt lat="38.102031" lon="-2.240530">
        <ele>1234.5</ele>
        <time>2017-05-06T09:36:48Z</time>
      </trkpt>
      <trkpt lat="38.102005" lon="-2.240765">
        <ele>1234.0</ele>
        <time>2017-05-06T09:37:02Z</time>
      </trkpt>
      <trkpt lat="38.102004" lon="-2.240781">
        <ele>1234.0</ele>
        <time>2017-05-06T09:37:03Z</time>
      </trkpt>
      <trkpt lat="38.102018" lon="-2.241030">
        <ele>1234.9</ele>
        <time>2017-05-06T09:37:18Z</time>
      </trkpt>
      <trkpt lat="38.102030" lon="-2.241163">
        <ele>1234.9</ele>
        <time>2017-05-06T09:37:26Z</time>
      </trkpt>
      <trkpt lat="38.102027" lon="-2.241180">
        <ele>1234.9</ele>
        <time>2017-05-06T09:37:27Z</time>
      </trkpt>
      <trkpt lat="38.102030" lon="-2.241197">
        <ele>1234.9</ele>
        <time>2017-05-06T09:37:28Z</time>
      </trkpt>
      <trkpt lat="38.102033" lon="-2.241215">
        <ele>1234.9</ele>
        <time>2017-05-06T09:37:29Z</time>
      </trkpt>
      <trkpt lat="38.102034" lon="-2.241232">
        <ele>1234.9</ele>
        <time>2017-05-06T09:37:30Z</time>
      </trkpt>
      <trkpt lat="38.102035" lon="-2.241248">
        <ele>1235.4</ele>
        <time>2017-05-06T09:37:31Z</time>
      </trkpt>
      <trkpt lat="38.102035" lon="-2.241266">
        <ele>1235.4</ele>
        <time>2017-05-06T09:37:32Z</time>
      </trkpt>
      <trkpt lat="38.102032" lon="-2.241283">
        <ele>1235.4</ele>
        <time>2017-05-06T09:37:33Z</time>
      </trkpt>
      <trkpt lat="38.102034" lon="-2.241385">
        <ele>1236.4</ele>
        <time>2017-05-06T09:37:40Z</time>
      </trkpt>
      <trkpt lat="38.102038" lon="-2.241403">
        <ele>1236.4</ele>
        <time>2017-05-06T09:37:41Z</time>
      </trkpt>
      <trkpt lat="38.102039" lon="-2.241495">
        <ele>1236.9</ele>
        <time>2017-05-06T09:37:47Z</time>
      </trkpt>
      <trkpt lat="38.102042" lon="-2.241507">
        <ele>1237.3</ele>
        <time>2017-05-06T09:37:48Z</time>
      </trkpt>
      <trkpt lat="38.102040" lon="-2.241520">
        <ele>1237.3</ele>
        <time>2017-05-06T09:37:49Z</time>
      </trkpt>
      <trkpt lat="38.102040" lon="-2.241535">
        <ele>1236.9</ele>
        <time>2017-05-06T09:37:50Z</time>
      </trkpt>
      <trkpt lat="38.102038" lon="-2.241549">
        <ele>1237.8</ele>
        <time>2017-05-06T09:37:51Z</time>
      </trkpt>
      <trkpt lat="38.102039" lon="-2.241613">
        <ele>1237.3</ele>
        <time>2017-05-06T09:37:55Z</time>
      </trkpt>
      <trkpt lat="38.102040" lon="-2.241628">
        <ele>1237.8</ele>
        <time>2017-05-06T09:37:56Z</time>
      </trkpt>
      <trkpt lat="38.102042" lon="-2.241642">
        <ele>1237.8</ele>
        <time>2017-05-06T09:37:57Z</time>
      </trkpt>
      <trkpt lat="38.102044" lon="-2.241655">
        <ele>1237.8</ele>
        <time>2017-05-06T09:37:58Z</time>
      </trkpt>
      <trkpt lat="38.102049" lon="-2.241764">
        <ele>1237.8</ele>
        <time>2017-05-06T09:38:05Z</time>
      </trkpt>
      <trkpt lat="38.102050" lon="-2.241779">
        <ele>1237.8</ele>
        <time>2017-05-06T09:38:06Z</time>
      </trkpt>
      <trkpt lat="38.102049" lon="-2.241793">
        <ele>1237.8</ele>
        <time>2017-05-06T09:38:07Z</time>
      </trkpt>
      <trkpt lat="38.102052" lon="-2.241809">
        <ele>1238.3</ele>
        <time>2017-05-06T09:38:08Z</time>
      </trkpt>
      <trkpt lat="38.102055" lon="-2.241824">
        <ele>1238.8</ele>
        <time>2017-05-06T09:38:09Z</time>
      </trkpt>
      <trkpt lat="38.102054" lon="-2.241838">
        <ele>1238.8</ele>
        <time>2017-05-06T09:38:10Z</time>
      </trkpt>
      <trkpt lat="38.102054" lon="-2.241851">
        <ele>1238.8</ele>
        <time>2017-05-06T09:38:11Z</time>
      </trkpt>
      <trkpt lat="38.102046" lon="-2.242061">
        <ele>1240.7</ele>
        <time>2017-05-06T09:38:27Z</time>
      </trkpt>
      <trkpt lat="38.102045" lon="-2.242071">
        <ele>1240.7</ele>
        <time>2017-05-06T09:38:30Z</time>
      </trkpt>
      <trkpt lat="38.102044" lon="-2.242084">
        <ele>1240.2</ele>
        <time>2017-05-06T09:38:31Z</time>
      </trkpt>
      <trkpt lat="38.102012" lon="-2.242209">
        <ele>1241.2</ele>
        <time>2017-05-06T09:38:43Z</time>
      </trkpt>
      <trkpt lat="38.102010" lon="-2.242244">
        <ele>1240.7</ele>
        <time>2017-05-06T09:38:45Z</time>
      </trkpt>
      <trkpt lat="38.102009" lon="-2.242265">
        <ele>1241.2</ele>
        <time>2017-05-06T09:38:46Z</time>
      </trkpt>
      <trkpt lat="38.102006" lon="-2.242283">
        <ele>1240.7</ele>
        <time>2017-05-06T09:38:47Z</time>
      </trkpt>
      <trkpt lat="38.101979" lon="-2.242556">
        <ele>1241.7</ele>
        <time>2017-05-06T09:39:04Z</time>
      </trkpt>
      <trkpt lat="38.101916" lon="-2.242843">
        <ele>1242.2</ele>
        <time>2017-05-06T09:39:22Z</time>
      </trkpt>
      <trkpt lat="38.101896" lon="-2.243061">
        <ele>1243.1</ele>
        <time>2017-05-06T09:39:36Z</time>
      </trkpt>
      <trkpt lat="38.101869" lon="-2.243326">
        <ele>1243.6</ele>
        <time>2017-05-06T09:39:52Z</time>
      </trkpt>
      <trkpt lat="38.101861" lon="-2.243380">
        <ele>1243.6</ele>
        <time>2017-05-06T09:39:55Z</time>
      </trkpt>
      <trkpt lat="38.101859" lon="-2.243398">
        <ele>1244.1</ele>
        <time>2017-05-06T09:39:56Z</time>
      </trkpt>
      <trkpt lat="38.101830" lon="-2.243619">
        <ele>1244.1</ele>
        <time>2017-05-06T09:40:10Z</time>
      </trkpt>
      <trkpt lat="38.101814" lon="-2.243729">
        <ele>1244.1</ele>
        <time>2017-05-06T09:40:17Z</time>
      </trkpt>
      <trkpt lat="38.101809" lon="-2.243746">
        <ele>1245.0</ele>
        <time>2017-05-06T09:40:18Z</time>
      </trkpt>
      <trkpt lat="38.101807" lon="-2.243763">
        <ele>1245.0</ele>
        <time>2017-05-06T09:40:19Z</time>
      </trkpt>
      <trkpt lat="38.101776" lon="-2.243946">
        <ele>1245.5</ele>
        <time>2017-05-06T09:40:32Z</time>
      </trkpt>
      <trkpt lat="38.101771" lon="-2.243980">
        <ele>1245.5</ele>
        <time>2017-05-06T09:40:34Z</time>
      </trkpt>
      <trkpt lat="38.101766" lon="-2.243994">
        <ele>1246.5</ele>
        <time>2017-05-06T09:40:35Z</time>
      </trkpt>
      <trkpt lat="38.101759" lon="-2.244048">
        <ele>1246.5</ele>
        <time>2017-05-06T09:40:39Z</time>
      </trkpt>
      <trkpt lat="38.101755" lon="-2.244088">
        <ele>1247.0</ele>
        <time>2017-05-06T09:40:42Z</time>
      </trkpt>
      <trkpt lat="38.101754" lon="-2.244117">
        <ele>1247.0</ele>
        <time>2017-05-06T09:40:44Z</time>
      </trkpt>
      <trkpt lat="38.101751" lon="-2.244130">
        <ele>1247.0</ele>
        <time>2017-05-06T09:40:45Z</time>
      </trkpt>
      <trkpt lat="38.101749" lon="-2.244144">
        <ele>1247.0</ele>
        <time>2017-05-06T09:40:46Z</time>
      </trkpt>
      <trkpt lat="38.101746" lon="-2.244156">
        <ele>1247.4</ele>
        <time>2017-05-06T09:40:47Z</time>
      </trkpt>
      <trkpt lat="38.101739" lon="-2.244185">
        <ele>1247.9</ele>
        <time>2017-05-06T09:40:54Z</time>
      </trkpt>
      <trkpt lat="38.101723" lon="-2.244450">
        <ele>1248.9</ele>
        <time>2017-05-06T09:41:11Z</time>
      </trkpt>
      <trkpt lat="38.101693" lon="-2.244666">
        <ele>1250.8</ele>
        <time>2017-05-06T09:41:25Z</time>
      </trkpt>
      <trkpt lat="38.101665" lon="-2.244864">
        <ele>1252.2</ele>
        <time>2017-05-06T09:41:38Z</time>
      </trkpt>
      <trkpt lat="38.101629" lon="-2.245051">
        <ele>1253.2</ele>
        <time>2017-05-06T09:41:51Z</time>
      </trkpt>
      <trkpt lat="38.101628" lon="-2.245067">
        <ele>1252.7</ele>
        <time>2017-05-06T09:41:52Z</time>
      </trkpt>
      <trkpt lat="38.101627" lon="-2.245083">
        <ele>1253.7</ele>
        <time>2017-05-06T09:41:53Z</time>
      </trkpt>
      <trkpt lat="38.101624" lon="-2.245098">
        <ele>1253.7</ele>
        <time>2017-05-06T09:41:54Z</time>
      </trkpt>
      <trkpt lat="38.101614" lon="-2.245199">
        <ele>1254.2</ele>
        <time>2017-05-06T09:42:01Z</time>
      </trkpt>
      <trkpt lat="38.101619" lon="-2.245215">
        <ele>1253.7</ele>
        <time>2017-05-06T09:42:02Z</time>
      </trkpt>
      <trkpt lat="38.101621" lon="-2.245232">
        <ele>1253.7</ele>
        <time>2017-05-06T09:42:03Z</time>
      </trkpt>
      <trkpt lat="38.101619" lon="-2.245246">
        <ele>1254.2</ele>
        <time>2017-05-06T09:42:04Z</time>
      </trkpt>
      <trkpt lat="38.101616" lon="-2.245262">
        <ele>1254.2</ele>
        <time>2017-05-06T09:42:05Z</time>
      </trkpt>
      <trkpt lat="38.101585" lon="-2.245454">
        <ele>1256.1</ele>
        <time>2017-05-06T09:42:18Z</time>
      </trkpt>
      <trkpt lat="38.101573" lon="-2.245509">
        <ele>1256.6</ele>
        <time>2017-05-06T09:42:22Z</time>
      </trkpt>
      <trkpt lat="38.101568" lon="-2.245524">
        <ele>1256.1</ele>
        <time>2017-05-06T09:42:23Z</time>
      </trkpt>
      <trkpt lat="38.101538" lon="-2.245728">
        <ele>1257.5</ele>
        <time>2017-05-06T09:42:36Z</time>
      </trkpt>
      <trkpt lat="38.101508" lon="-2.245939">
        <ele>1256.6</ele>
        <time>2017-05-06T09:42:50Z</time>
      </trkpt>
      <trkpt lat="38.101481" lon="-2.246122">
        <ele>1259.5</ele>
        <time>2017-05-06T09:43:01Z</time>
      </trkpt>
      <trkpt lat="38.101481" lon="-2.246135">
        <ele>1259.0</ele>
        <time>2017-05-06T09:43:02Z</time>
      </trkpt>
      <trkpt lat="38.101480" lon="-2.246149">
        <ele>1259.0</ele>
        <time>2017-05-06T09:43:03Z</time>
      </trkpt>
      <trkpt lat="38.101479" lon="-2.246166">
        <ele>1259.5</ele>
        <time>2017-05-06T09:43:04Z</time>
      </trkpt>
      <trkpt lat="38.101479" lon="-2.246185">
        <ele>1259.5</ele>
        <time>2017-05-06T09:43:05Z</time>
      </trkpt>
      <trkpt lat="38.101476" lon="-2.246200">
        <ele>1259.5</ele>
        <time>2017-05-06T09:43:06Z</time>
      </trkpt>
      <trkpt lat="38.101471" lon="-2.246214">
        <ele>1259.9</ele>
        <time>2017-05-06T09:43:07Z</time>
      </trkpt>
      <trkpt lat="38.101467" lon="-2.246230">
        <ele>1259.5</ele>
        <time>2017-05-06T09:43:08Z</time>
      </trkpt>
      <trkpt lat="38.101463" lon="-2.246249">
        <ele>1259.0</ele>
        <time>2017-05-06T09:43:09Z</time>
      </trkpt>
      <trkpt lat="38.101463" lon="-2.246266">
        <ele>1259.9</ele>
        <time>2017-05-06T09:43:10Z</time>
      </trkpt>
      <trkpt lat="38.101461" lon="-2.246281">
        <ele>1259.9</ele>
        <time>2017-05-06T09:43:11Z</time>
      </trkpt>
      <trkpt lat="38.101462" lon="-2.246296">
        <ele>1259.0</ele>
        <time>2017-05-06T09:43:12Z</time>
      </trkpt>
      <trkpt lat="38.101462" lon="-2.246311">
        <ele>1259.0</ele>
        <time>2017-05-06T09:43:13Z</time>
      </trkpt>
      <trkpt lat="38.101459" lon="-2.246328">
        <ele>1259.5</ele>
        <time>2017-05-06T09:43:14Z</time>
      </trkpt>
      <trkpt lat="38.101455" lon="-2.246343">
        <ele>1259.9</ele>
        <time>2017-05-06T09:43:15Z</time>
      </trkpt>
      <trkpt lat="38.101452" lon="-2.246356">
        <ele>1259.9</ele>
        <time>2017-05-06T09:43:16Z</time>
      </trkpt>
      <trkpt lat="38.101423" lon="-2.246513">
        <ele>1260.4</ele>
        <time>2017-05-06T09:43:27Z</time>
      </trkpt>
      <trkpt lat="38.101340" lon="-2.246750">
        <ele>1261.9</ele>
        <time>2017-05-06T09:43:44Z</time>
      </trkpt>
      <trkpt lat="38.101267" lon="-2.246915">
        <ele>1263.8</ele>
        <time>2017-05-06T09:43:56Z</time>
      </trkpt>
      <trkpt lat="38.101262" lon="-2.246929">
        <ele>1263.3</ele>
        <time>2017-05-06T09:43:57Z</time>
      </trkpt>
      <trkpt lat="38.101257" lon="-2.246942">
        <ele>1263.8</ele>
        <time>2017-05-06T09:43:58Z</time>
      </trkpt>
      <trkpt lat="38.101254" lon="-2.246954">
        <ele>1263.8</ele>
        <time>2017-05-06T09:43:59Z</time>
      </trkpt>
      <trkpt lat="38.101248" lon="-2.246968">
        <ele>1263.3</ele>
        <time>2017-05-06T09:44:00Z</time>
      </trkpt>
      <trkpt lat="38.101238" lon="-2.246979">
        <ele>1263.8</ele>
        <time>2017-05-06T09:44:01Z</time>
      </trkpt>
      <trkpt lat="38.101233" lon="-2.246993">
        <ele>1263.8</ele>
        <time>2017-05-06T09:44:02Z</time>
      </trkpt>
      <trkpt lat="38.101228" lon="-2.247008">
        <ele>1264.3</ele>
        <time>2017-05-06T09:44:03Z</time>
      </trkpt>
      <trkpt lat="38.101216" lon="-2.247033">
        <ele>1264.3</ele>
        <time>2017-05-06T09:44:05Z</time>
      </trkpt>
      <trkpt lat="38.101207" lon="-2.247044">
        <ele>1264.3</ele>
        <time>2017-05-06T09:44:06Z</time>
      </trkpt>
      <trkpt lat="38.101201" lon="-2.247056">
        <ele>1264.8</ele>
        <time>2017-05-06T09:44:07Z</time>
      </trkpt>
      <trkpt lat="38.101109" lon="-2.247231">
        <ele>1265.7</ele>
        <time>2017-05-06T09:44:21Z</time>
      </trkpt>
      <trkpt lat="38.101006" lon="-2.247399">
        <ele>1267.2</ele>
        <time>2017-05-06T09:44:36Z</time>
      </trkpt>
      <trkpt lat="38.100889" lon="-2.247601">
        <ele>1268.6</ele>
        <time>2017-05-06T09:44:52Z</time>
      </trkpt>
      <trkpt lat="38.100762" lon="-2.247791">
        <ele>1270.0</ele>
        <time>2017-05-06T09:45:08Z</time>
      </trkpt>
      <trkpt lat="38.100652" lon="-2.248012">
        <ele>1270.5</ele>
        <time>2017-05-06T09:45:25Z</time>
      </trkpt>
      <trkpt lat="38.100498" lon="-2.248300">
        <ele>1271.0</ele>
        <time>2017-05-06T09:45:47Z</time>
      </trkpt>
      <trkpt lat="38.100361" lon="-2.248540">
        <ele>1272.0</ele>
        <time>2017-05-06T09:46:05Z</time>
      </trkpt>
      <trkpt lat="38.100220" lon="-2.248808">
        <ele>1272.4</ele>
        <time>2017-05-06T09:46:24Z</time>
      </trkpt>
      <trkpt lat="38.100057" lon="-2.249071">
        <ele>1273.9</ele>
        <time>2017-05-06T09:46:44Z</time>
      </trkpt>
      <trkpt lat="38.099988" lon="-2.249188">
        <ele>1274.4</ele>
        <time>2017-05-06T09:46:52Z</time>
      </trkpt>
      <trkpt lat="38.099876" lon="-2.249414">
        <ele>1275.8</ele>
        <time>2017-05-06T09:47:08Z</time>
      </trkpt>
      <trkpt lat="38.099819" lon="-2.249592">
        <ele>1276.3</ele>
        <time>2017-05-06T09:47:20Z</time>
      </trkpt>
      <trkpt lat="38.099814" lon="-2.249610">
        <ele>1276.3</ele>
        <time>2017-05-06T09:47:21Z</time>
      </trkpt>
      <trkpt lat="38.099810" lon="-2.249629">
        <ele>1276.3</ele>
        <time>2017-05-06T09:47:22Z</time>
      </trkpt>
      <trkpt lat="38.099772" lon="-2.249811">
        <ele>1275.8</ele>
        <time>2017-05-06T09:47:39Z</time>
      </trkpt>
      <trkpt lat="38.099768" lon="-2.249904">
        <ele>1276.3</ele>
        <time>2017-05-06T09:47:45Z</time>
      </trkpt>
      <trkpt lat="38.099769" lon="-2.249919">
        <ele>1276.3</ele>
        <time>2017-05-06T09:47:46Z</time>
      </trkpt>
      <trkpt lat="38.099777" lon="-2.250186">
        <ele>1275.8</ele>
        <time>2017-05-06T09:48:02Z</time>
      </trkpt>
      <trkpt lat="38.099798" lon="-2.250444">
        <ele>1274.8</ele>
        <time>2017-05-06T09:48:18Z</time>
      </trkpt>
      <trkpt lat="38.099828" lon="-2.250668">
        <ele>1273.4</ele>
        <time>2017-05-06T09:48:32Z</time>
      </trkpt>
      <trkpt lat="38.099849" lon="-2.250868">
        <ele>1272.9</ele>
        <time>2017-05-06T09:48:45Z</time>
      </trkpt>
      <trkpt lat="38.099850" lon="-2.250947">
        <ele>1272.9</ele>
        <time>2017-05-06T09:48:56Z</time>
      </trkpt>
      <trkpt lat="38.099772" lon="-2.251191">
        <ele>1272.9</ele>
        <time>2017-05-06T09:49:11Z</time>
      </trkpt>
      <trkpt lat="38.099665" lon="-2.251275">
        <ele>1274.4</ele>
        <time>2017-05-06T09:49:23Z</time>
      </trkpt>
      <trkpt lat="38.099494" lon="-2.251302">
        <ele>1275.8</ele>
        <time>2017-05-06T09:49:38Z</time>
      </trkpt>
      <trkpt lat="38.099346" lon="-2.251308">
        <ele>1277.2</ele>
        <time>2017-05-06T09:49:50Z</time>
      </trkpt>
      <trkpt lat="38.099210" lon="-2.251373">
        <ele>1278.7</ele>
        <time>2017-05-06T09:50:04Z</time>
      </trkpt>
      <trkpt lat="38.099196" lon="-2.251388">
        <ele>1278.7</ele>
        <time>2017-05-06T09:50:17Z</time>
      </trkpt>
      <trkpt lat="38.099123" lon="-2.251426">
        <ele>1278.7</ele>
        <time>2017-05-06T09:50:37Z</time>
      </trkpt>
      <trkpt lat="38.099002" lon="-2.251548">
        <ele>1280.1</ele>
        <time>2017-05-06T09:50:50Z</time>
      </trkpt>
      <trkpt lat="38.098892" lon="-2.251690">
        <ele>1279.7</ele>
        <time>2017-05-06T09:51:05Z</time>
      </trkpt>
      <trkpt lat="38.098898" lon="-2.251692">
        <ele>1279.7</ele>
        <time>2017-05-06T09:51:13Z</time>
      </trkpt>
      <trkpt lat="38.098886" lon="-2.251706">
        <ele>1280.1</ele>
        <time>2017-05-06T09:51:14Z</time>
      </trkpt>
      <trkpt lat="38.098871" lon="-2.251720">
        <ele>1279.7</ele>
        <time>2017-05-06T09:51:15Z</time>
      </trkpt>
      <trkpt lat="38.098857" lon="-2.251737">
        <ele>1280.1</ele>
        <time>2017-05-06T09:51:16Z</time>
      </trkpt>
      <trkpt lat="38.098844" lon="-2.251755">
        <ele>1279.7</ele>
        <time>2017-05-06T09:51:17Z</time>
      </trkpt>
      <trkpt lat="38.098752" lon="-2.251919">
        <ele>1279.2</ele>
        <time>2017-05-06T09:51:32Z</time>
      </trkpt>
      <trkpt lat="38.098732" lon="-2.251943">
        <ele>1279.7</ele>
        <time>2017-05-06T09:51:35Z</time>
      </trkpt>
      <trkpt lat="38.098719" lon="-2.251957">
        <ele>1279.2</ele>
        <time>2017-05-06T09:51:36Z</time>
      </trkpt>
      <trkpt lat="38.098712" lon="-2.251974">
        <ele>1279.2</ele>
        <time>2017-05-06T09:51:37Z</time>
      </trkpt>
      <trkpt lat="38.098701" lon="-2.251991">
        <ele>1279.2</ele>
        <time>2017-05-06T09:51:38Z</time>
      </trkpt>
      <trkpt lat="38.098687" lon="-2.252005">
        <ele>1279.2</ele>
        <time>2017-05-06T09:51:39Z</time>
      </trkpt>
      <trkpt lat="38.098633" lon="-2.252097">
        <ele>1279.2</ele>
        <time>2017-05-06T09:51:49Z</time>
      </trkpt>
      <trkpt lat="38.098622" lon="-2.252108">
        <ele>1279.2</ele>
        <time>2017-05-06T09:51:50Z</time>
      </trkpt>
      <trkpt lat="38.098611" lon="-2.252119">
        <ele>1279.2</ele>
        <time>2017-05-06T09:51:51Z</time>
      </trkpt>
      <trkpt lat="38.098599" lon="-2.252133">
        <ele>1278.7</ele>
        <time>2017-05-06T09:51:52Z</time>
      </trkpt>
      <trkpt lat="38.098587" lon="-2.252148">
        <ele>1279.2</ele>
        <time>2017-05-06T09:51:53Z</time>
      </trkpt>
      <trkpt lat="38.098504" lon="-2.252236">
        <ele>1278.7</ele>
        <time>2017-05-06T09:52:06Z</time>
      </trkpt>
      <trkpt lat="38.098338" lon="-2.252444">
        <ele>1278.7</ele>
        <time>2017-05-06T09:52:22Z</time>
      </trkpt>
      <trkpt lat="38.098191" lon="-2.252649">
        <ele>1278.2</ele>
        <time>2017-05-06T09:52:37Z</time>
      </trkpt>
      <trkpt lat="38.097983" lon="-2.252859">
        <ele>1278.2</ele>
        <time>2017-05-06T09:52:55Z</time>
      </trkpt>
      <trkpt lat="38.097797" lon="-2.253064">
        <ele>1278.2</ele>
        <time>2017-05-06T09:53:12Z</time>
      </trkpt>
      <trkpt lat="38.097611" lon="-2.253261">
        <ele>1277.7</ele>
        <time>2017-05-06T09:53:29Z</time>
      </trkpt>
      <trkpt lat="38.097401" lon="-2.253458">
        <ele>1278.2</ele>
        <time>2017-05-06T09:53:47Z</time>
      </trkpt>
      <trkpt lat="38.097201" lon="-2.253684">
        <ele>1278.2</ele>
        <time>2017-05-06T09:54:05Z</time>
      </trkpt>
      <trkpt lat="38.097017" lon="-2.253855">
        <ele>1278.7</ele>
        <time>2017-05-06T09:54:21Z</time>
      </trkpt>
      <trkpt lat="38.096822" lon="-2.254016">
        <ele>1277.7</ele>
        <time>2017-05-06T09:54:36Z</time>
      </trkpt>
      <trkpt lat="38.096639" lon="-2.254216">
        <ele>1279.2</ele>
        <time>2017-05-06T09:54:53Z</time>
      </trkpt>
      <trkpt lat="38.096450" lon="-2.254415">
        <ele>1280.1</ele>
        <time>2017-05-06T09:55:10Z</time>
      </trkpt>
      <trkpt lat="38.096378" lon="-2.254494">
        <ele>1279.7</ele>
        <time>2017-05-06T09:55:17Z</time>
      </trkpt>
      <trkpt lat="38.096366" lon="-2.254506">
        <ele>1280.1</ele>
        <time>2017-05-06T09:55:18Z</time>
      </trkpt>
      <trkpt lat="38.096188" lon="-2.254695">
        <ele>1281.6</ele>
        <time>2017-05-06T09:55:34Z</time>
      </trkpt>
      <trkpt lat="38.096160" lon="-2.254738">
        <ele>1281.1</ele>
        <time>2017-05-06T09:55:37Z</time>
      </trkpt>
      <trkpt lat="38.096148" lon="-2.254749">
        <ele>1281.6</ele>
        <time>2017-05-06T09:55:38Z</time>
      </trkpt>
      <trkpt lat="38.096135" lon="-2.254759">
        <ele>1281.6</ele>
        <time>2017-05-06T09:55:39Z</time>
      </trkpt>
      <trkpt lat="38.096102" lon="-2.254793">
        <ele>1282.1</ele>
        <time>2017-05-06T09:55:42Z</time>
      </trkpt>
      <trkpt lat="38.096092" lon="-2.254803">
        <ele>1281.6</ele>
        <time>2017-05-06T09:55:43Z</time>
      </trkpt>
      <trkpt lat="38.095949" lon="-2.254939">
        <ele>1283.0</ele>
        <time>2017-05-06T09:55:56Z</time>
      </trkpt>
      <trkpt lat="38.095826" lon="-2.255060">
        <ele>1284.9</ele>
        <time>2017-05-06T09:56:08Z</time>
      </trkpt>
      <trkpt lat="38.095696" lon="-2.255244">
        <ele>1285.9</ele>
        <time>2017-05-06T09:56:22Z</time>
      </trkpt>
      <trkpt lat="38.095636" lon="-2.255349">
        <ele>1286.4</ele>
        <time>2017-05-06T09:56:32Z</time>
      </trkpt>
      <trkpt lat="38.095624" lon="-2.255359">
        <ele>1286.4</ele>
        <time>2017-05-06T09:56:33Z</time>
      </trkpt>
      <trkpt lat="38.095610" lon="-2.255374">
        <ele>1286.4</ele>
        <time>2017-05-06T09:56:34Z</time>
      </trkpt>
      <trkpt lat="38.095604" lon="-2.255389">
        <ele>1286.9</ele>
        <time>2017-05-06T09:56:35Z</time>
      </trkpt>
      <trkpt lat="38.095583" lon="-2.255434">
        <ele>1287.3</ele>
        <time>2017-05-06T09:56:44Z</time>
      </trkpt>
      <trkpt lat="38.095572" lon="-2.255450">
        <ele>1287.3</ele>
        <time>2017-05-06T09:56:45Z</time>
      </trkpt>
      <trkpt lat="38.095455" lon="-2.255610">
        <ele>1288.3</ele>
        <time>2017-05-06T09:56:58Z</time>
      </trkpt>
      <trkpt lat="38.095330" lon="-2.255791">
        <ele>1289.8</ele>
        <time>2017-05-06T09:57:12Z</time>
      </trkpt>
      <trkpt lat="38.095306" lon="-2.255838">
        <ele>1289.8</ele>
        <time>2017-05-06T09:57:15Z</time>
      </trkpt>
      <trkpt lat="38.095295" lon="-2.255854">
        <ele>1289.3</ele>
        <time>2017-05-06T09:57:16Z</time>
      </trkpt>
      <trkpt lat="38.095154" lon="-2.256062">
        <ele>1292.6</ele>
        <time>2017-05-06T09:57:31Z</time>
      </trkpt>
      <trkpt lat="38.095026" lon="-2.256258">
        <ele>1293.6</ele>
        <time>2017-05-06T09:57:46Z</time>
      </trkpt>
      <trkpt lat="38.094963" lon="-2.256359">
        <ele>1294.1</ele>
        <time>2017-05-06T09:57:53Z</time>
      </trkpt>
      <trkpt lat="38.094956" lon="-2.256373">
        <ele>1294.1</ele>
        <time>2017-05-06T09:57:54Z</time>
      </trkpt>
      <trkpt lat="38.094867" lon="-2.256500">
        <ele>1294.6</ele>
        <time>2017-05-06T09:58:04Z</time>
      </trkpt>
      <trkpt lat="38.094861" lon="-2.256514">
        <ele>1294.6</ele>
        <time>2017-05-06T09:58:05Z</time>
      </trkpt>
      <trkpt lat="38.094853" lon="-2.256526">
        <ele>1294.6</ele>
        <time>2017-05-06T09:58:06Z</time>
      </trkpt>
      <trkpt lat="38.094846" lon="-2.256541">
        <ele>1295.0</ele>
        <time>2017-05-06T09:58:07Z</time>
      </trkpt>
      <trkpt lat="38.094838" lon="-2.256558">
        <ele>1295.0</ele>
        <time>2017-05-06T09:58:08Z</time>
      </trkpt>
      <trkpt lat="38.094830" lon="-2.256573">
        <ele>1295.0</ele>
        <time>2017-05-06T09:58:09Z</time>
      </trkpt>
      <trkpt lat="38.094822" lon="-2.256585">
        <ele>1295.0</ele>
        <time>2017-05-06T09:58:10Z</time>
      </trkpt>
      <trkpt lat="38.094654" lon="-2.256778">
        <ele>1297.0</ele>
        <time>2017-05-06T09:58:26Z</time>
      </trkpt>
      <trkpt lat="38.094621" lon="-2.256800">
        <ele>1296.5</ele>
        <time>2017-05-06T09:58:29Z</time>
      </trkpt>
      <trkpt lat="38.094611" lon="-2.256804">
        <ele>1296.0</ele>
        <time>2017-05-06T09:58:30Z</time>
      </trkpt>
      <trkpt lat="38.094551" lon="-2.256840">
        <ele>1297.0</ele>
        <time>2017-05-06T09:58:35Z</time>
      </trkpt>
      <trkpt lat="38.094346" lon="-2.256829">
        <ele>1298.9</ele>
        <time>2017-05-06T09:58:50Z</time>
      </trkpt>
      <trkpt lat="38.094197" lon="-2.256789">
        <ele>1300.3</ele>
        <time>2017-05-06T09:59:01Z</time>
      </trkpt>
      <trkpt lat="38.094183" lon="-2.256784">
        <ele>1300.3</ele>
        <time>2017-05-06T09:59:02Z</time>
      </trkpt>
      <trkpt lat="38.094119" lon="-2.256766">
        <ele>1300.3</ele>
        <time>2017-05-06T09:59:06Z</time>
      </trkpt>
      <trkpt lat="38.094097" lon="-2.256762">
        <ele>1300.3</ele>
        <time>2017-05-06T09:59:07Z</time>
      </trkpt>
      <trkpt lat="38.094078" lon="-2.256764">
        <ele>1300.8</ele>
        <time>2017-05-06T09:59:08Z</time>
      </trkpt>
      <trkpt lat="38.094062" lon="-2.256769">
        <ele>1300.8</ele>
        <time>2017-05-06T09:59:09Z</time>
      </trkpt>
      <trkpt lat="38.094046" lon="-2.256776">
        <ele>1301.3</ele>
        <time>2017-05-06T09:59:10Z</time>
      </trkpt>
      <trkpt lat="38.094034" lon="-2.256783">
        <ele>1301.8</ele>
        <time>2017-05-06T09:59:11Z</time>
      </trkpt>
      <trkpt lat="38.094020" lon="-2.256789">
        <ele>1301.3</ele>
        <time>2017-05-06T09:59:12Z</time>
      </trkpt>
      <trkpt lat="38.094007" lon="-2.256798">
        <ele>1301.8</ele>
        <time>2017-05-06T09:59:13Z</time>
      </trkpt>
      <trkpt lat="38.093994" lon="-2.256807">
        <ele>1301.8</ele>
        <time>2017-05-06T09:59:14Z</time>
      </trkpt>
      <trkpt lat="38.093978" lon="-2.256813">
        <ele>1301.8</ele>
        <time>2017-05-06T09:59:15Z</time>
      </trkpt>
      <trkpt lat="38.093961" lon="-2.256814">
        <ele>1302.2</ele>
        <time>2017-05-06T09:59:16Z</time>
      </trkpt>
      <trkpt lat="38.093946" lon="-2.256816">
        <ele>1302.2</ele>
        <time>2017-05-06T09:59:17Z</time>
      </trkpt>
      <trkpt lat="38.093929" lon="-2.256820">
        <ele>1301.8</ele>
        <time>2017-05-06T09:59:18Z</time>
      </trkpt>
      <trkpt lat="38.093770" lon="-2.256862">
        <ele>1303.7</ele>
        <time>2017-05-06T09:59:29Z</time>
      </trkpt>
      <trkpt lat="38.093756" lon="-2.256870">
        <ele>1303.7</ele>
        <time>2017-05-06T09:59:30Z</time>
      </trkpt>
      <trkpt lat="38.093743" lon="-2.256879">
        <ele>1303.7</ele>
        <time>2017-05-06T09:59:31Z</time>
      </trkpt>
      <trkpt lat="38.093731" lon="-2.256890">
        <ele>1303.7</ele>
        <time>2017-05-06T09:59:32Z</time>
      </trkpt>
      <trkpt lat="38.093718" lon="-2.256899">
        <ele>1304.2</ele>
        <time>2017-05-06T09:59:33Z</time>
      </trkpt>
      <trkpt lat="38.093706" lon="-2.256905">
        <ele>1303.7</ele>
        <time>2017-05-06T09:59:34Z</time>
      </trkpt>
      <trkpt lat="38.093691" lon="-2.256909">
        <ele>1304.2</ele>
        <time>2017-05-06T09:59:35Z</time>
      </trkpt>
      <trkpt lat="38.093616" lon="-2.256940">
        <ele>1304.7</ele>
        <time>2017-05-06T09:59:40Z</time>
      </trkpt>
      <trkpt lat="38.093598" lon="-2.256945">
        <ele>1305.1</ele>
        <time>2017-05-06T09:59:41Z</time>
      </trkpt>
      <trkpt lat="38.093584" lon="-2.256955">
        <ele>1304.7</ele>
        <time>2017-05-06T09:59:42Z</time>
      </trkpt>
      <trkpt lat="38.093443" lon="-2.257063">
        <ele>1306.1</ele>
        <time>2017-05-06T09:59:55Z</time>
      </trkpt>
      <trkpt lat="38.093421" lon="-2.257077">
        <ele>1306.6</ele>
        <time>2017-05-06T09:59:57Z</time>
      </trkpt>
      <trkpt lat="38.093407" lon="-2.257084">
        <ele>1306.6</ele>
        <time>2017-05-06T09:59:58Z</time>
      </trkpt>
      <trkpt lat="38.093395" lon="-2.257097">
        <ele>1306.6</ele>
        <time>2017-05-06T09:59:59Z</time>
      </trkpt>
      <trkpt lat="38.093266" lon="-2.257292">
        <ele>1308.5</ele>
        <time>2017-05-06T10:00:13Z</time>
      </trkpt>
      <trkpt lat="38.093255" lon="-2.257323">
        <ele>1308.0</ele>
        <time>2017-05-06T10:00:15Z</time>
      </trkpt>
      <trkpt lat="38.093219" lon="-2.257421">
        <ele>1309.4</ele>
        <time>2017-05-06T10:00:21Z</time>
      </trkpt>
      <trkpt lat="38.093208" lon="-2.257433">
        <ele>1309.4</ele>
        <time>2017-05-06T10:00:22Z</time>
      </trkpt>
      <trkpt lat="38.093077" lon="-2.257635">
        <ele>1310.9</ele>
        <time>2017-05-06T10:00:36Z</time>
      </trkpt>
      <trkpt lat="38.092999" lon="-2.257879">
        <ele>1313.3</ele>
        <time>2017-05-06T10:00:51Z</time>
      </trkpt>
      <trkpt lat="38.092882" lon="-2.258125">
        <ele>1315.2</ele>
        <time>2017-05-06T10:01:07Z</time>
      </trkpt>
      <trkpt lat="38.092777" lon="-2.258346">
        <ele>1316.7</ele>
        <time>2017-05-06T10:01:23Z</time>
      </trkpt>
      <trkpt lat="38.092661" lon="-2.258557">
        <ele>1318.6</ele>
        <time>2017-05-06T10:01:39Z</time>
      </trkpt>
      <trkpt lat="38.092564" lon="-2.258779">
        <ele>1321.9</ele>
        <time>2017-05-06T10:01:55Z</time>
      </trkpt>
      <trkpt lat="38.092537" lon="-2.258832">
        <ele>1322.4</ele>
        <time>2017-05-06T10:01:59Z</time>
      </trkpt>
      <trkpt lat="38.092532" lon="-2.258843">
        <ele>1322.4</ele>
        <time>2017-05-06T10:02:00Z</time>
      </trkpt>
      <trkpt lat="38.092448" lon="-2.259101">
        <ele>1325.3</ele>
        <time>2017-05-06T10:02:18Z</time>
      </trkpt>
      <trkpt lat="38.092376" lon="-2.259398">
        <ele>1326.8</ele>
        <time>2017-05-06T10:02:36Z</time>
      </trkpt>
      <trkpt lat="38.092375" lon="-2.259660">
        <ele>1329.2</ele>
        <time>2017-05-06T10:02:52Z</time>
      </trkpt>
      <trkpt lat="38.092385" lon="-2.259850">
        <ele>1329.6</ele>
        <time>2017-05-06T10:03:04Z</time>
      </trkpt>
      <trkpt lat="38.092380" lon="-2.259898">
        <ele>1330.1</ele>
        <time>2017-05-06T10:03:07Z</time>
      </trkpt>
      <trkpt lat="38.092380" lon="-2.259913">
        <ele>1330.6</ele>
        <time>2017-05-06T10:03:08Z</time>
      </trkpt>
      <trkpt lat="38.092388" lon="-2.260128">
        <ele>1331.6</ele>
        <time>2017-05-06T10:03:23Z</time>
      </trkpt>
      <trkpt lat="38.092417" lon="-2.260419">
        <ele>1333.0</ele>
        <time>2017-05-06T10:03:42Z</time>
      </trkpt>
      <trkpt lat="38.092445" lon="-2.260647">
        <ele>1334.4</ele>
        <time>2017-05-06T10:03:57Z</time>
      </trkpt>
      <trkpt lat="38.092480" lon="-2.260899">
        <ele>1335.9</ele>
        <time>2017-05-06T10:04:13Z</time>
      </trkpt>
      <trkpt lat="38.092485" lon="-2.260913">
        <ele>1335.9</ele>
        <time>2017-05-06T10:04:14Z</time>
      </trkpt>
      <trkpt lat="38.092487" lon="-2.260926">
        <ele>1335.9</ele>
        <time>2017-05-06T10:04:15Z</time>
      </trkpt>
      <trkpt lat="38.092488" lon="-2.260941">
        <ele>1335.9</ele>
        <time>2017-05-06T10:04:16Z</time>
      </trkpt>
      <trkpt lat="38.092489" lon="-2.260960">
        <ele>1335.9</ele>
        <time>2017-05-06T10:04:17Z</time>
      </trkpt>
      <trkpt lat="38.092490" lon="-2.260976">
        <ele>1336.8</ele>
        <time>2017-05-06T10:04:18Z</time>
      </trkpt>
      <trkpt lat="38.092494" lon="-2.260992">
        <ele>1336.4</ele>
        <time>2017-05-06T10:04:19Z</time>
      </trkpt>
      <trkpt lat="38.092498" lon="-2.261007">
        <ele>1336.4</ele>
        <time>2017-05-06T10:04:20Z</time>
      </trkpt>
      <trkpt lat="38.092499" lon="-2.261020">
        <ele>1336.4</ele>
        <time>2017-05-06T10:04:21Z</time>
      </trkpt>
      <trkpt lat="38.092500" lon="-2.261035">
        <ele>1336.4</ele>
        <time>2017-05-06T10:04:22Z</time>
      </trkpt>
      <trkpt lat="38.092502" lon="-2.261054">
        <ele>1336.8</ele>
        <time>2017-05-06T10:04:23Z</time>
      </trkpt>
      <trkpt lat="38.092507" lon="-2.261076">
        <ele>1337.3</ele>
        <time>2017-05-06T10:04:24Z</time>
      </trkpt>
      <trkpt lat="38.092522" lon="-2.261168">
        <ele>1337.8</ele>
        <time>2017-05-06T10:05:04Z</time>
      </trkpt>
      <trkpt lat="38.092517" lon="-2.261221">
        <ele>1338.3</ele>
        <time>2017-05-06T10:05:12Z</time>
      </trkpt>
      <trkpt lat="38.092517" lon="-2.261312">
        <ele>1338.3</ele>
        <time>2017-05-06T10:05:18Z</time>
      </trkpt>
      <trkpt lat="38.092542" lon="-2.261515">
        <ele>1339.7</ele>
        <time>2017-05-06T10:05:32Z</time>
      </trkpt>
      <trkpt lat="38.092545" lon="-2.261605">
        <ele>1340.7</ele>
        <time>2017-05-06T10:05:39Z</time>
      </trkpt>
      <trkpt lat="38.092549" lon="-2.261620">
        <ele>1341.2</ele>
        <time>2017-05-06T10:05:40Z</time>
      </trkpt>
      <trkpt lat="38.092586" lon="-2.261807">
        <ele>1342.1</ele>
        <time>2017-05-06T10:05:53Z</time>
      </trkpt>
      <trkpt lat="38.092606" lon="-2.262007">
        <ele>1344.1</ele>
        <time>2017-05-06T10:06:06Z</time>
      </trkpt>
      <trkpt lat="38.092618" lon="-2.262259">
        <ele>1346.5</ele>
        <time>2017-05-06T10:06:21Z</time>
      </trkpt>
      <trkpt lat="38.092621" lon="-2.262349">
        <ele>1346.5</ele>
        <time>2017-05-06T10:06:30Z</time>
      </trkpt>
      <trkpt lat="38.092618" lon="-2.262364">
        <ele>1346.5</ele>
        <time>2017-05-06T10:06:31Z</time>
      </trkpt>
      <trkpt lat="38.092587" lon="-2.262696">
        <ele>1349.3</ele>
        <time>2017-05-06T10:06:50Z</time>
      </trkpt>
      <trkpt lat="38.092576" lon="-2.262767">
        <ele>1348.9</ele>
        <time>2017-05-06T10:06:56Z</time>
      </trkpt>
      <trkpt lat="38.092573" lon="-2.262784">
        <ele>1348.9</ele>
        <time>2017-05-06T10:06:57Z</time>
      </trkpt>
      <trkpt lat="38.092567" lon="-2.262802">
        <ele>1348.9</ele>
        <time>2017-05-06T10:06:58Z</time>
      </trkpt>
      <trkpt lat="38.092557" lon="-2.262820">
        <ele>1348.9</ele>
        <time>2017-05-06T10:06:59Z</time>
      </trkpt>
      <trkpt lat="38.092547" lon="-2.262835">
        <ele>1348.9</ele>
        <time>2017-05-06T10:07:00Z</time>
      </trkpt>
      <trkpt lat="38.092522" lon="-2.262868">
        <ele>1349.3</ele>
        <time>2017-05-06T10:07:03Z</time>
      </trkpt>
      <trkpt lat="38.092365" lon="-2.262997">
        <ele>1348.9</ele>
        <time>2017-05-06T10:07:19Z</time>
      </trkpt>
      <trkpt lat="38.092185" lon="-2.263001">
        <ele>1350.3</ele>
        <time>2017-05-06T10:07:32Z</time>
      </trkpt>
      <trkpt lat="38.092171" lon="-2.263000">
        <ele>1350.8</ele>
        <time>2017-05-06T10:07:33Z</time>
      </trkpt>
      <trkpt lat="38.092139" lon="-2.262983">
        <ele>1350.3</ele>
        <time>2017-05-06T10:07:38Z</time>
      </trkpt>
      <trkpt lat="38.092130" lon="-2.262978">
        <ele>1350.8</ele>
        <time>2017-05-06T10:07:39Z</time>
      </trkpt>
      <trkpt lat="38.092121" lon="-2.262973">
        <ele>1350.8</ele>
        <time>2017-05-06T10:07:40Z</time>
      </trkpt>
      <trkpt lat="38.092060" lon="-2.262965">
        <ele>1351.8</ele>
        <time>2017-05-06T10:07:52Z</time>
      </trkpt>
      <trkpt lat="38.091906" lon="-2.262950">
        <ele>1354.2</ele>
        <time>2017-05-06T10:08:03Z</time>
      </trkpt>
      <trkpt lat="38.091913" lon="-2.262940">
        <ele>1353.7</ele>
        <time>2017-05-06T10:08:07Z</time>
      </trkpt>
      <trkpt lat="38.091899" lon="-2.262944">
        <ele>1354.2</ele>
        <time>2017-05-06T10:08:08Z</time>
      </trkpt>
      <trkpt lat="38.091883" lon="-2.262948">
        <ele>1354.2</ele>
        <time>2017-05-06T10:08:09Z</time>
      </trkpt>
      <trkpt lat="38.091865" lon="-2.262949">
        <ele>1354.2</ele>
        <time>2017-05-06T10:08:10Z</time>
      </trkpt>
      <trkpt lat="38.091850" lon="-2.262948">
        <ele>1354.6</ele>
        <time>2017-05-06T10:08:11Z</time>
      </trkpt>
      <trkpt lat="38.091743" lon="-2.262958">
        <ele>1355.6</ele>
        <time>2017-05-06T10:08:19Z</time>
      </trkpt>
      <trkpt lat="38.091717" lon="-2.262983">
        <ele>1355.6</ele>
        <time>2017-05-06T10:08:22Z</time>
      </trkpt>
      <trkpt lat="38.091705" lon="-2.262985">
        <ele>1355.1</ele>
        <time>2017-05-06T10:08:23Z</time>
      </trkpt>
      <trkpt lat="38.091691" lon="-2.262986">
        <ele>1355.6</ele>
        <time>2017-05-06T10:08:24Z</time>
      </trkpt>
      <trkpt lat="38.091676" lon="-2.262988">
        <ele>1355.6</ele>
        <time>2017-05-06T10:08:25Z</time>
      </trkpt>
      <trkpt lat="38.091661" lon="-2.262989">
        <ele>1355.6</ele>
        <time>2017-05-06T10:08:26Z</time>
      </trkpt>
      <trkpt lat="38.091647" lon="-2.262987">
        <ele>1356.1</ele>
        <time>2017-05-06T10:08:27Z</time>
      </trkpt>
      <trkpt lat="38.091631" lon="-2.262985">
        <ele>1356.1</ele>
        <time>2017-05-06T10:08:28Z</time>
      </trkpt>
      <trkpt lat="38.091613" lon="-2.262986">
        <ele>1356.6</ele>
        <time>2017-05-06T10:08:29Z</time>
      </trkpt>
      <trkpt lat="38.091598" lon="-2.262989">
        <ele>1356.6</ele>
        <time>2017-05-06T10:08:30Z</time>
      </trkpt>
      <trkpt lat="38.091375" lon="-2.263070">
        <ele>1358.0</ele>
        <time>2017-05-06T10:08:46Z</time>
      </trkpt>
      <trkpt lat="38.091250" lon="-2.263120">
        <ele>1359.0</ele>
        <time>2017-05-06T10:08:56Z</time>
      </trkpt>
      <trkpt lat="38.091239" lon="-2.263127">
        <ele>1359.4</ele>
        <time>2017-05-06T10:08:57Z</time>
      </trkpt>
      <trkpt lat="38.091227" lon="-2.263133">
        <ele>1359.4</ele>
        <time>2017-05-06T10:08:58Z</time>
      </trkpt>
      <trkpt lat="38.091056" lon="-2.263230">
        <ele>1360.9</ele>
        <time>2017-05-06T10:09:13Z</time>
      </trkpt>
      <trkpt lat="38.091045" lon="-2.263238">
        <ele>1360.9</ele>
        <time>2017-05-06T10:09:14Z</time>
      </trkpt>
      <trkpt lat="38.090888" lon="-2.263372">
        <ele>1362.8</ele>
        <time>2017-05-06T10:09:29Z</time>
      </trkpt>
      <trkpt lat="38.090859" lon="-2.263375">
        <ele>1362.3</ele>
        <time>2017-05-06T10:09:31Z</time>
      </trkpt>
      <trkpt lat="38.090849" lon="-2.263382">
        <ele>1363.3</ele>
        <time>2017-05-06T10:09:32Z</time>
      </trkpt>
      <trkpt lat="38.090838" lon="-2.263392">
        <ele>1362.8</ele>
        <time>2017-05-06T10:09:33Z</time>
      </trkpt>
      <trkpt lat="38.090827" lon="-2.263399">
        <ele>1362.8</ele>
        <time>2017-05-06T10:09:34Z</time>
      </trkpt>
      <trkpt lat="38.090817" lon="-2.263406">
        <ele>1363.3</ele>
        <time>2017-05-06T10:09:35Z</time>
      </trkpt>
      <trkpt lat="38.090808" lon="-2.263416">
        <ele>1362.8</ele>
        <time>2017-05-06T10:09:36Z</time>
      </trkpt>
      <trkpt lat="38.090799" lon="-2.263430">
        <ele>1363.3</ele>
        <time>2017-05-06T10:09:37Z</time>
      </trkpt>
      <trkpt lat="38.090793" lon="-2.263445">
        <ele>1363.3</ele>
        <time>2017-05-06T10:09:38Z</time>
      </trkpt>
      <trkpt lat="38.090692" lon="-2.263589">
        <ele>1364.2</ele>
        <time>2017-05-06T10:09:51Z</time>
      </trkpt>
      <trkpt lat="38.090680" lon="-2.263614">
        <ele>1364.7</ele>
        <time>2017-05-06T10:09:53Z</time>
      </trkpt>
      <trkpt lat="38.090671" lon="-2.263621">
        <ele>1364.7</ele>
        <time>2017-05-06T10:09:54Z</time>
      </trkpt>
      <trkpt lat="38.090667" lon="-2.263633">
        <ele>1364.7</ele>
        <time>2017-05-06T10:09:55Z</time>
      </trkpt>
      <trkpt lat="38.090541" lon="-2.263789">
        <ele>1366.7</ele>
        <time>2017-05-06T10:10:09Z</time>
      </trkpt>
      <trkpt lat="38.090439" lon="-2.263990">
        <ele>1367.6</ele>
        <time>2017-05-06T10:10:24Z</time>
      </trkpt>
      <trkpt lat="38.090336" lon="-2.264188">
        <ele>1369.5</ele>
        <time>2017-05-06T10:10:39Z</time>
      </trkpt>
      <trkpt lat="38.090329" lon="-2.264203">
        <ele>1369.5</ele>
        <time>2017-05-06T10:10:40Z</time>
      </trkpt>
      <trkpt lat="38.090322" lon="-2.264221">
        <ele>1369.5</ele>
        <time>2017-05-06T10:10:41Z</time>
      </trkpt>
      <trkpt lat="38.090221" lon="-2.264443">
        <ele>1371.5</ele>
        <time>2017-05-06T10:10:56Z</time>
      </trkpt>
      <trkpt lat="38.090161" lon="-2.264671">
        <ele>1372.4</ele>
        <time>2017-05-06T10:11:12Z</time>
      </trkpt>
      <trkpt lat="38.090123" lon="-2.264882">
        <ele>1373.9</ele>
        <time>2017-05-06T10:11:27Z</time>
      </trkpt>
      <trkpt lat="38.090082" lon="-2.265137">
        <ele>1375.8</ele>
        <time>2017-05-06T10:11:43Z</time>
      </trkpt>
      <trkpt lat="38.090083" lon="-2.265150">
        <ele>1374.8</ele>
        <time>2017-05-06T10:11:44Z</time>
      </trkpt>
      <trkpt lat="38.090078" lon="-2.265163">
        <ele>1375.8</ele>
        <time>2017-05-06T10:11:57Z</time>
      </trkpt>
      <trkpt lat="38.090077" lon="-2.265177">
        <ele>1375.8</ele>
        <time>2017-05-06T10:11:59Z</time>
      </trkpt>
      <trkpt lat="38.090078" lon="-2.265193">
        <ele>1375.8</ele>
        <time>2017-05-06T10:12:00Z</time>
      </trkpt>
      <trkpt lat="38.090080" lon="-2.265211">
        <ele>1375.3</ele>
        <time>2017-05-06T10:12:01Z</time>
      </trkpt>
      <trkpt lat="38.090082" lon="-2.265232">
        <ele>1376.3</ele>
        <time>2017-05-06T10:12:02Z</time>
      </trkpt>
      <trkpt lat="38.090084" lon="-2.265254">
        <ele>1375.3</ele>
        <time>2017-05-06T10:12:03Z</time>
      </trkpt>
      <trkpt lat="38.090084" lon="-2.265411">
        <ele>1376.3</ele>
        <time>2017-05-06T10:12:17Z</time>
      </trkpt>
      <trkpt lat="38.090092" lon="-2.265540">
        <ele>1376.8</ele>
        <time>2017-05-06T10:12:23Z</time>
      </trkpt>
      <trkpt lat="38.090089" lon="-2.265556">
        <ele>1377.2</ele>
        <time>2017-05-06T10:12:24Z</time>
      </trkpt>
      <trkpt lat="38.090089" lon="-2.265575">
        <ele>1377.2</ele>
        <time>2017-05-06T10:12:25Z</time>
      </trkpt>
      <trkpt lat="38.090085" lon="-2.265746">
        <ele>1378.7</ele>
        <time>2017-05-06T10:12:52Z</time>
      </trkpt>
      <trkpt lat="38.090054" lon="-2.265927">
        <ele>1379.2</ele>
        <time>2017-05-06T10:13:08Z</time>
      </trkpt>
      <trkpt lat="38.090047" lon="-2.266032">
        <ele>1379.2</ele>
        <time>2017-05-06T10:13:14Z</time>
      </trkpt>
      <trkpt lat="38.090051" lon="-2.266049">
        <ele>1379.6</ele>
        <time>2017-05-06T10:13:15Z</time>
      </trkpt>
      <trkpt lat="38.090054" lon="-2.266065">
        <ele>1380.1</ele>
        <time>2017-05-06T10:13:16Z</time>
      </trkpt>
      <trkpt lat="38.090055" lon="-2.266084">
        <ele>1380.6</ele>
        <time>2017-05-06T10:13:17Z</time>
      </trkpt>
      <trkpt lat="38.090056" lon="-2.266103">
        <ele>1380.1</ele>
        <time>2017-05-06T10:13:18Z</time>
      </trkpt>
      <trkpt lat="38.090042" lon="-2.266406">
        <ele>1382.5</ele>
        <time>2017-05-06T10:13:36Z</time>
      </trkpt>
      <trkpt lat="38.090047" lon="-2.266579">
        <ele>1383.5</ele>
        <time>2017-05-06T10:13:47Z</time>
      </trkpt>
      <trkpt lat="38.090046" lon="-2.266592">
        <ele>1384.0</ele>
        <time>2017-05-06T10:13:48Z</time>
      </trkpt>
      <trkpt lat="38.090023" lon="-2.266800">
        <ele>1385.4</ele>
        <time>2017-05-06T10:14:01Z</time>
      </trkpt>
      <trkpt lat="38.090009" lon="-2.266917">
        <ele>1386.8</ele>
        <time>2017-05-06T10:14:09Z</time>
      </trkpt>
      <trkpt lat="38.090007" lon="-2.266936">
        <ele>1386.4</ele>
        <time>2017-05-06T10:14:10Z</time>
      </trkpt>
      <trkpt lat="38.090002" lon="-2.267172">
        <ele>1387.8</ele>
        <time>2017-05-06T10:14:24Z</time>
      </trkpt>
      <trkpt lat="38.090002" lon="-2.267187">
        <ele>1387.8</ele>
        <time>2017-05-06T10:14:25Z</time>
      </trkpt>
      <trkpt lat="38.090002" lon="-2.267206">
        <ele>1388.3</ele>
        <time>2017-05-06T10:14:26Z</time>
      </trkpt>
      <trkpt lat="38.090002" lon="-2.267223">
        <ele>1388.8</ele>
        <time>2017-05-06T10:14:27Z</time>
      </trkpt>
      <trkpt lat="38.090021" lon="-2.267379">
        <ele>1389.2</ele>
        <time>2017-05-06T10:14:38Z</time>
      </trkpt>
      <trkpt lat="38.090049" lon="-2.267657">
        <ele>1390.7</ele>
        <time>2017-05-06T10:14:53Z</time>
      </trkpt>
      <trkpt lat="38.090094" lon="-2.267848">
        <ele>1390.2</ele>
        <time>2017-05-06T10:15:06Z</time>
      </trkpt>
      <trkpt lat="38.090153" lon="-2.268096">
        <ele>1391.7</ele>
        <time>2017-05-06T10:15:21Z</time>
      </trkpt>
      <trkpt lat="38.090217" lon="-2.268401">
        <ele>1393.1</ele>
        <time>2017-05-06T10:15:39Z</time>
      </trkpt>
      <trkpt lat="38.090237" lon="-2.268582">
        <ele>1394.1</ele>
        <time>2017-05-06T10:15:50Z</time>
      </trkpt>
      <trkpt lat="38.090242" lon="-2.268608">
        <ele>1394.1</ele>
        <time>2017-05-06T10:15:53Z</time>
      </trkpt>
      <trkpt lat="38.090238" lon="-2.268620">
        <ele>1394.1</ele>
        <time>2017-05-06T10:15:54Z</time>
      </trkpt>
      <trkpt lat="38.090239" lon="-2.268634">
        <ele>1394.1</ele>
        <time>2017-05-06T10:15:55Z</time>
      </trkpt>
      <trkpt lat="38.090246" lon="-2.268655">
        <ele>1393.6</ele>
        <time>2017-05-06T10:15:56Z</time>
      </trkpt>
      <trkpt lat="38.090251" lon="-2.268678">
        <ele>1394.1</ele>
        <time>2017-05-06T10:15:57Z</time>
      </trkpt>
      <trkpt lat="38.090251" lon="-2.268697">
        <ele>1393.6</ele>
        <time>2017-05-06T10:15:58Z</time>
      </trkpt>
      <trkpt lat="38.090261" lon="-2.268925">
        <ele>1395.0</ele>
        <time>2017-05-06T10:16:12Z</time>
      </trkpt>
      <trkpt lat="38.090294" lon="-2.269188">
        <ele>1396.0</ele>
        <time>2017-05-06T10:16:26Z</time>
      </trkpt>
      <trkpt lat="38.090323" lon="-2.269309">
        <ele>1396.9</ele>
        <time>2017-05-06T10:16:37Z</time>
      </trkpt>
      <trkpt lat="38.090322" lon="-2.269318">
        <ele>1396.9</ele>
        <time>2017-05-06T10:16:38Z</time>
      </trkpt>
      <trkpt lat="38.090320" lon="-2.269333">
        <ele>1397.4</ele>
        <time>2017-05-06T10:16:39Z</time>
      </trkpt>
      <trkpt lat="38.090319" lon="-2.269458">
        <ele>1397.4</ele>
        <time>2017-05-06T10:16:49Z</time>
      </trkpt>
      <trkpt lat="38.090334" lon="-2.269689">
        <ele>1399.3</ele>
        <time>2017-05-06T10:17:03Z</time>
      </trkpt>
      <trkpt lat="38.090349" lon="-2.269710">
        <ele>1398.9</ele>
        <time>2017-05-06T10:17:07Z</time>
      </trkpt>
      <trkpt lat="38.090349" lon="-2.269727">
        <ele>1399.3</ele>
        <time>2017-05-06T10:17:08Z</time>
      </trkpt>
      <trkpt lat="38.090346" lon="-2.269825">
        <ele>1400.3</ele>
        <time>2017-05-06T10:17:14Z</time>
      </trkpt>
      <trkpt lat="38.090347" lon="-2.269840">
        <ele>1399.8</ele>
        <time>2017-05-06T10:17:15Z</time>
      </trkpt>
      <trkpt lat="38.090346" lon="-2.269974">
        <ele>1400.3</ele>
        <time>2017-05-06T10:17:24Z</time>
      </trkpt>
      <trkpt lat="38.090388" lon="-2.270038">
        <ele>1401.3</ele>
        <time>2017-05-06T10:17:37Z</time>
      </trkpt>
      <trkpt lat="38.090391" lon="-2.270128">
        <ele>1402.2</ele>
        <time>2017-05-06T10:17:48Z</time>
      </trkpt>
      <trkpt lat="38.090380" lon="-2.270589">
        <ele>1404.6</ele>
        <time>2017-05-06T10:18:11Z</time>
      </trkpt>
      <trkpt lat="38.090425" lon="-2.270854">
        <ele>1406.1</ele>
        <time>2017-05-06T10:18:25Z</time>
      </trkpt>
      <trkpt lat="38.090495" lon="-2.271108">
        <ele>1407.5</ele>
        <time>2017-05-06T10:18:40Z</time>
      </trkpt>
      <trkpt lat="38.090555" lon="-2.271277">
        <ele>1408.5</ele>
        <time>2017-05-06T10:18:55Z</time>
      </trkpt>
      <trkpt lat="38.090626" lon="-2.271454">
        <ele>1408.9</ele>
        <time>2017-05-06T10:19:07Z</time>
      </trkpt>
      <trkpt lat="38.090652" lon="-2.271665">
        <ele>1408.9</ele>
        <time>2017-05-06T10:19:21Z</time>
      </trkpt>
      <trkpt lat="38.090650" lon="-2.271747">
        <ele>1409.4</ele>
        <time>2017-05-06T10:19:26Z</time>
      </trkpt>
      <trkpt lat="38.090645" lon="-2.271765">
        <ele>1409.9</ele>
        <time>2017-05-06T10:19:27Z</time>
      </trkpt>
      <trkpt lat="38.090589" lon="-2.271857">
        <ele>1409.4</ele>
        <time>2017-05-06T10:19:35Z</time>
      </trkpt>
      <trkpt lat="38.090449" lon="-2.271853">
        <ele>1410.4</ele>
        <time>2017-05-06T10:19:49Z</time>
      </trkpt>
      <trkpt lat="38.090385" lon="-2.271837">
        <ele>1410.9</ele>
        <time>2017-05-06T10:20:05Z</time>
      </trkpt>
      <trkpt lat="38.090276" lon="-2.271827">
        <ele>1411.3</ele>
        <time>2017-05-06T10:20:18Z</time>
      </trkpt>
      <trkpt lat="38.090263" lon="-2.271820">
        <ele>1411.3</ele>
        <time>2017-05-06T10:20:19Z</time>
      </trkpt>
      <trkpt lat="38.090250" lon="-2.271814">
        <ele>1411.3</ele>
        <time>2017-05-06T10:20:20Z</time>
      </trkpt>
      <trkpt lat="38.090238" lon="-2.271808">
        <ele>1411.3</ele>
        <time>2017-05-06T10:20:21Z</time>
      </trkpt>
      <trkpt lat="38.090146" lon="-2.271782">
        <ele>1412.3</ele>
        <time>2017-05-06T10:20:36Z</time>
      </trkpt>
      <trkpt lat="38.090011" lon="-2.271783">
        <ele>1413.8</ele>
        <time>2017-05-06T10:20:52Z</time>
      </trkpt>
      <trkpt lat="38.089800" lon="-2.271734">
        <ele>1415.2</ele>
        <time>2017-05-06T10:21:08Z</time>
      </trkpt>
      <trkpt lat="38.089642" lon="-2.271717">
        <ele>1415.7</ele>
        <time>2017-05-06T10:21:20Z</time>
      </trkpt>
      <trkpt lat="38.089470" lon="-2.271689">
        <ele>1417.6</ele>
        <time>2017-05-06T10:21:34Z</time>
      </trkpt>
      <trkpt lat="38.089317" lon="-2.271693">
        <ele>1418.6</ele>
        <time>2017-05-06T10:21:48Z</time>
      </trkpt>
      <trkpt lat="38.089151" lon="-2.271640">
        <ele>1420.0</ele>
        <time>2017-05-06T10:22:02Z</time>
      </trkpt>
      <trkpt lat="38.089079" lon="-2.271631">
        <ele>1420.0</ele>
        <time>2017-05-06T10:22:07Z</time>
      </trkpt>
      <trkpt lat="38.088959" lon="-2.271624">
        <ele>1421.9</ele>
        <time>2017-05-06T10:22:20Z</time>
      </trkpt>
      <trkpt lat="38.088766" lon="-2.271629">
        <ele>1423.4</ele>
        <time>2017-05-06T10:22:37Z</time>
      </trkpt>
      <trkpt lat="38.088524" lon="-2.271588">
        <ele>1424.8</ele>
        <time>2017-05-06T10:22:56Z</time>
      </trkpt>
      <trkpt lat="38.088428" lon="-2.271583">
        <ele>1425.8</ele>
        <time>2017-05-06T10:23:08Z</time>
      </trkpt>
      <trkpt lat="38.088155" lon="-2.271561">
        <ele>1428.7</ele>
        <time>2017-05-06T10:23:29Z</time>
      </trkpt>
      <trkpt lat="38.087837" lon="-2.271563">
        <ele>1431.1</ele>
        <time>2017-05-06T10:23:54Z</time>
      </trkpt>
      <trkpt lat="38.087533" lon="-2.271580">
        <ele>1433.0</ele>
        <time>2017-05-06T10:24:19Z</time>
      </trkpt>
      <trkpt lat="38.087458" lon="-2.271607">
        <ele>1433.9</ele>
        <time>2017-05-06T10:24:33Z</time>
      </trkpt>
      <trkpt lat="38.087415" lon="-2.271592">
        <ele>1433.5</ele>
        <time>2017-05-06T10:24:38Z</time>
      </trkpt>
      <trkpt lat="38.087276" lon="-2.271637">
        <ele>1433.5</ele>
        <time>2017-05-06T10:24:54Z</time>
      </trkpt>
      <trkpt lat="38.087263" lon="-2.271630">
        <ele>1433.9</ele>
        <time>2017-05-06T10:24:55Z</time>
      </trkpt>
      <trkpt lat="38.087247" lon="-2.271625">
        <ele>1433.5</ele>
        <time>2017-05-06T10:24:56Z</time>
      </trkpt>
      <trkpt lat="38.087229" lon="-2.271623">
        <ele>1433.9</ele>
        <time>2017-05-06T10:24:57Z</time>
      </trkpt>
      <trkpt lat="38.087213" lon="-2.271627">
        <ele>1433.5</ele>
        <time>2017-05-06T10:24:58Z</time>
      </trkpt>
      <trkpt lat="38.087196" lon="-2.271628">
        <ele>1433.5</ele>
        <time>2017-05-06T10:24:59Z</time>
      </trkpt>
      <trkpt lat="38.087179" lon="-2.271633">
        <ele>1433.5</ele>
        <time>2017-05-06T10:25:00Z</time>
      </trkpt>
      <trkpt lat="38.087069" lon="-2.271640">
        <ele>1434.4</ele>
        <time>2017-05-06T10:25:08Z</time>
      </trkpt>
      <trkpt lat="38.086981" lon="-2.271658">
        <ele>1434.9</ele>
        <time>2017-05-06T10:25:16Z</time>
      </trkpt>
      <trkpt lat="38.086968" lon="-2.271659">
        <ele>1434.9</ele>
        <time>2017-05-06T10:25:17Z</time>
      </trkpt>
      <trkpt lat="38.086953" lon="-2.271660">
        <ele>1435.4</ele>
        <time>2017-05-06T10:25:18Z</time>
      </trkpt>
      <trkpt lat="38.086939" lon="-2.271660">
        <ele>1434.9</ele>
        <time>2017-05-06T10:25:19Z</time>
      </trkpt>
      <trkpt lat="38.086926" lon="-2.271663">
        <ele>1434.9</ele>
        <time>2017-05-06T10:25:20Z</time>
      </trkpt>
      <trkpt lat="38.086882" lon="-2.271680">
        <ele>1434.9</ele>
        <time>2017-05-06T10:25:24Z</time>
      </trkpt>
      <trkpt lat="38.086873" lon="-2.271680">
        <ele>1435.4</ele>
        <time>2017-05-06T10:25:25Z</time>
      </trkpt>
      <trkpt lat="38.086849" lon="-2.271671">
        <ele>1434.9</ele>
        <time>2017-05-06T10:25:30Z</time>
      </trkpt>
      <trkpt lat="38.086837" lon="-2.271668">
        <ele>1435.9</ele>
        <time>2017-05-06T10:25:31Z</time>
      </trkpt>
      <trkpt lat="38.086654" lon="-2.271690">
        <ele>1436.3</ele>
        <time>2017-05-06T10:25:45Z</time>
      </trkpt>
      <trkpt lat="38.086511" lon="-2.271718">
        <ele>1437.8</ele>
        <time>2017-05-06T10:25:59Z</time>
      </trkpt>
      <trkpt lat="38.086444" lon="-2.271722">
        <ele>1437.8</ele>
        <time>2017-05-06T10:26:11Z</time>
      </trkpt>
      <trkpt lat="38.086380" lon="-2.271741">
        <ele>1438.8</ele>
        <time>2017-05-06T10:26:19Z</time>
      </trkpt>
      <trkpt lat="38.086370" lon="-2.271746">
        <ele>1439.2</ele>
        <time>2017-05-06T10:26:20Z</time>
      </trkpt>
      <trkpt lat="38.086360" lon="-2.271750">
        <ele>1439.2</ele>
        <time>2017-05-06T10:26:21Z</time>
      </trkpt>
      <trkpt lat="38.086347" lon="-2.271753">
        <ele>1439.2</ele>
        <time>2017-05-06T10:26:22Z</time>
      </trkpt>
      <trkpt lat="38.086332" lon="-2.271754">
        <ele>1438.8</ele>
        <time>2017-05-06T10:26:23Z</time>
      </trkpt>
      <trkpt lat="38.086316" lon="-2.271759">
        <ele>1439.2</ele>
        <time>2017-05-06T10:26:24Z</time>
      </trkpt>
      <trkpt lat="38.086297" lon="-2.271771">
        <ele>1439.7</ele>
        <time>2017-05-06T10:26:38Z</time>
      </trkpt>
      <trkpt lat="38.086287" lon="-2.271771">
        <ele>1439.7</ele>
        <time>2017-05-06T10:26:41Z</time>
      </trkpt>
      <trkpt lat="38.086275" lon="-2.271780">
        <ele>1439.2</ele>
        <time>2017-05-06T10:26:42Z</time>
      </trkpt>
      <trkpt lat="38.086262" lon="-2.271785">
        <ele>1439.2</ele>
        <time>2017-05-06T10:26:43Z</time>
      </trkpt>
      <trkpt lat="38.086248" lon="-2.271790">
        <ele>1439.2</ele>
        <time>2017-05-06T10:26:44Z</time>
      </trkpt>
      <trkpt lat="38.086236" lon="-2.271798">
        <ele>1439.2</ele>
        <time>2017-05-06T10:26:45Z</time>
      </trkpt>
      <trkpt lat="38.086115" lon="-2.271875">
        <ele>1439.7</ele>
        <time>2017-05-06T10:27:01Z</time>
      </trkpt>
      <trkpt lat="38.086002" lon="-2.271937">
        <ele>1440.2</ele>
        <time>2017-05-06T10:27:13Z</time>
      </trkpt>
      <trkpt lat="38.085976" lon="-2.271946">
        <ele>1440.2</ele>
        <time>2017-05-06T10:29:06Z</time>
      </trkpt>
      <trkpt lat="38.085937" lon="-2.271950">
        <ele>1440.2</ele>
        <time>2017-05-06T10:29:08Z</time>
      </trkpt>
      <trkpt lat="38.085919" lon="-2.271956">
        <ele>1439.7</ele>
        <time>2017-05-06T10:29:09Z</time>
      </trkpt>
      <trkpt lat="38.085904" lon="-2.271965">
        <ele>1439.7</ele>
        <time>2017-05-06T10:29:10Z</time>
      </trkpt>
      <trkpt lat="38.085892" lon="-2.271973">
        <ele>1439.7</ele>
        <time>2017-05-06T10:29:11Z</time>
      </trkpt>
      <trkpt lat="38.085880" lon="-2.271983">
        <ele>1439.7</ele>
        <time>2017-05-06T10:29:12Z</time>
      </trkpt>
      <trkpt lat="38.085866" lon="-2.271990">
        <ele>1439.7</ele>
        <time>2017-05-06T10:29:13Z</time>
      </trkpt>
      <trkpt lat="38.085851" lon="-2.271997">
        <ele>1440.2</ele>
        <time>2017-05-06T10:29:14Z</time>
      </trkpt>
      <trkpt lat="38.085747" lon="-2.272051">
        <ele>1440.2</ele>
        <time>2017-05-06T10:29:24Z</time>
      </trkpt>
      <trkpt lat="38.085701" lon="-2.272067">
        <ele>1440.2</ele>
        <time>2017-05-06T10:29:34Z</time>
      </trkpt>
      <trkpt lat="38.085615" lon="-2.272098">
        <ele>1440.7</ele>
        <time>2017-05-06T10:29:41Z</time>
      </trkpt>
      <trkpt lat="38.085600" lon="-2.272095">
        <ele>1441.2</ele>
        <time>2017-05-06T10:29:42Z</time>
      </trkpt>
      <trkpt lat="38.085587" lon="-2.272096">
        <ele>1441.6</ele>
        <time>2017-05-06T10:29:43Z</time>
      </trkpt>
      <trkpt lat="38.085578" lon="-2.272104">
        <ele>1441.2</ele>
        <time>2017-05-06T10:29:44Z</time>
      </trkpt>
      <trkpt lat="38.085571" lon="-2.272116">
        <ele>1441.2</ele>
        <time>2017-05-06T10:29:45Z</time>
      </trkpt>
      <trkpt lat="38.085562" lon="-2.272126">
        <ele>1441.2</ele>
        <time>2017-05-06T10:29:46Z</time>
      </trkpt>
      <trkpt lat="38.085551" lon="-2.272132">
        <ele>1441.2</ele>
        <time>2017-05-06T10:29:47Z</time>
      </trkpt>
      <trkpt lat="38.085540" lon="-2.272137">
        <ele>1441.2</ele>
        <time>2017-05-06T10:29:48Z</time>
      </trkpt>
      <trkpt lat="38.085528" lon="-2.272140">
        <ele>1441.2</ele>
        <time>2017-05-06T10:29:49Z</time>
      </trkpt>
      <trkpt lat="38.085317" lon="-2.272227">
        <ele>1443.6</ele>
        <time>2017-05-06T10:30:06Z</time>
      </trkpt>
      <trkpt lat="38.085250" lon="-2.272270">
        <ele>1444.0</ele>
        <time>2017-05-06T10:30:12Z</time>
      </trkpt>
      <trkpt lat="38.085236" lon="-2.272274">
        <ele>1444.5</ele>
        <time>2017-05-06T10:30:13Z</time>
      </trkpt>
      <trkpt lat="38.085070" lon="-2.272354">
        <ele>1446.9</ele>
        <time>2017-05-06T10:30:26Z</time>
      </trkpt>
      <trkpt lat="38.084975" lon="-2.272429">
        <ele>1447.9</ele>
        <time>2017-05-06T10:30:35Z</time>
      </trkpt>
      <trkpt lat="38.084963" lon="-2.272436">
        <ele>1447.9</ele>
        <time>2017-05-06T10:30:36Z</time>
      </trkpt>
      <trkpt lat="38.084951" lon="-2.272442">
        <ele>1447.9</ele>
        <time>2017-05-06T10:30:37Z</time>
      </trkpt>
      <trkpt lat="38.084933" lon="-2.272460">
        <ele>1448.8</ele>
        <time>2017-05-06T10:30:39Z</time>
      </trkpt>
      <trkpt lat="38.084925" lon="-2.272468">
        <ele>1448.8</ele>
        <time>2017-05-06T10:30:40Z</time>
      </trkpt>
      <trkpt lat="38.084915" lon="-2.272474">
        <ele>1449.3</ele>
        <time>2017-05-06T10:30:41Z</time>
      </trkpt>
      <trkpt lat="38.084907" lon="-2.272480">
        <ele>1448.8</ele>
        <time>2017-05-06T10:30:42Z</time>
      </trkpt>
      <trkpt lat="38.084785" lon="-2.272619">
        <ele>1449.8</ele>
        <time>2017-05-06T10:30:56Z</time>
      </trkpt>
      <trkpt lat="38.084709" lon="-2.272722">
        <ele>1451.7</ele>
        <time>2017-05-06T10:31:05Z</time>
      </trkpt>
      <trkpt lat="38.084701" lon="-2.272735">
        <ele>1451.7</ele>
        <time>2017-05-06T10:31:06Z</time>
      </trkpt>
      <trkpt lat="38.084693" lon="-2.272751">
        <ele>1452.2</ele>
        <time>2017-05-06T10:31:07Z</time>
      </trkpt>
      <trkpt lat="38.084682" lon="-2.272766">
        <ele>1452.2</ele>
        <time>2017-05-06T10:31:08Z</time>
      </trkpt>
      <trkpt lat="38.084671" lon="-2.272779">
        <ele>1451.7</ele>
        <time>2017-05-06T10:31:09Z</time>
      </trkpt>
      <trkpt lat="38.084661" lon="-2.272792">
        <ele>1452.2</ele>
        <time>2017-05-06T10:31:10Z</time>
      </trkpt>
      <trkpt lat="38.084653" lon="-2.272807">
        <ele>1452.2</ele>
        <time>2017-05-06T10:31:11Z</time>
      </trkpt>
      <trkpt lat="38.084646" lon="-2.272821">
        <ele>1452.2</ele>
        <time>2017-05-06T10:31:12Z</time>
      </trkpt>
      <trkpt lat="38.084641" lon="-2.272842">
        <ele>1452.7</ele>
        <time>2017-05-06T10:31:13Z</time>
      </trkpt>
      <trkpt lat="38.084633" lon="-2.272857">
        <ele>1451.7</ele>
        <time>2017-05-06T10:31:14Z</time>
      </trkpt>
      <trkpt lat="38.084626" lon="-2.272869">
        <ele>1451.7</ele>
        <time>2017-05-06T10:31:15Z</time>
      </trkpt>
      <trkpt lat="38.084618" lon="-2.272883">
        <ele>1452.2</ele>
        <time>2017-05-06T10:31:16Z</time>
      </trkpt>
      <trkpt lat="38.084605" lon="-2.272893">
        <ele>1452.2</ele>
        <time>2017-05-06T10:31:17Z</time>
      </trkpt>
      <trkpt lat="38.084594" lon="-2.272905">
        <ele>1453.7</ele>
        <time>2017-05-06T10:31:18Z</time>
      </trkpt>
      <trkpt lat="38.084587" lon="-2.272920">
        <ele>1452.7</ele>
        <time>2017-05-06T10:31:19Z</time>
      </trkpt>
      <trkpt lat="38.084579" lon="-2.272933">
        <ele>1453.2</ele>
        <time>2017-05-06T10:31:20Z</time>
      </trkpt>
      <trkpt lat="38.084572" lon="-2.272948">
        <ele>1452.7</ele>
        <time>2017-05-06T10:31:21Z</time>
      </trkpt>
      <trkpt lat="38.084566" lon="-2.272960">
        <ele>1452.7</ele>
        <time>2017-05-06T10:31:22Z</time>
      </trkpt>
      <trkpt lat="38.084558" lon="-2.272969">
        <ele>1454.1</ele>
        <time>2017-05-06T10:31:23Z</time>
      </trkpt>
      <trkpt lat="38.084549" lon="-2.272977">
        <ele>1453.7</ele>
        <time>2017-05-06T10:31:24Z</time>
      </trkpt>
      <trkpt lat="38.084444" lon="-2.273115">
        <ele>1455.1</ele>
        <time>2017-05-06T10:31:37Z</time>
      </trkpt>
      <trkpt lat="38.084438" lon="-2.273127">
        <ele>1455.6</ele>
        <time>2017-05-06T10:31:38Z</time>
      </trkpt>
      <trkpt lat="38.084428" lon="-2.273139">
        <ele>1456.1</ele>
        <time>2017-05-06T10:31:39Z</time>
      </trkpt>
      <trkpt lat="38.084418" lon="-2.273146">
        <ele>1456.5</ele>
        <time>2017-05-06T10:31:40Z</time>
      </trkpt>
      <trkpt lat="38.084406" lon="-2.273153">
        <ele>1456.1</ele>
        <time>2017-05-06T10:31:41Z</time>
      </trkpt>
      <trkpt lat="38.084397" lon="-2.273165">
        <ele>1456.1</ele>
        <time>2017-05-06T10:31:42Z</time>
      </trkpt>
      <trkpt lat="38.084367" lon="-2.273217">
        <ele>1456.5</ele>
        <time>2017-05-06T10:31:46Z</time>
      </trkpt>
      <trkpt lat="38.084358" lon="-2.273224">
        <ele>1456.5</ele>
        <time>2017-05-06T10:31:47Z</time>
      </trkpt>
      <trkpt lat="38.084347" lon="-2.273234">
        <ele>1456.5</ele>
        <time>2017-05-06T10:31:48Z</time>
      </trkpt>
      <trkpt lat="38.084340" lon="-2.273248">
        <ele>1457.0</ele>
        <time>2017-05-06T10:31:49Z</time>
      </trkpt>
      <trkpt lat="38.084333" lon="-2.273261">
        <ele>1457.0</ele>
        <time>2017-05-06T10:31:50Z</time>
      </trkpt>
      <trkpt lat="38.084327" lon="-2.273277">
        <ele>1457.0</ele>
        <time>2017-05-06T10:31:51Z</time>
      </trkpt>
      <trkpt lat="38.084238" lon="-2.273379">
        <ele>1458.5</ele>
        <time>2017-05-06T10:32:00Z</time>
      </trkpt>
      <trkpt lat="38.084231" lon="-2.273390">
        <ele>1458.0</ele>
        <time>2017-05-06T10:32:01Z</time>
      </trkpt>
      <trkpt lat="38.084101" lon="-2.273638">
        <ele>1460.4</ele>
        <time>2017-05-06T10:32:19Z</time>
      </trkpt>
      <trkpt lat="38.084091" lon="-2.273663">
        <ele>1460.9</ele>
        <time>2017-05-06T10:32:21Z</time>
      </trkpt>
      <trkpt lat="38.084035" lon="-2.273832">
        <ele>1462.3</ele>
        <time>2017-05-06T10:32:31Z</time>
      </trkpt>
      <trkpt lat="38.084035" lon="-2.273850">
        <ele>1461.8</ele>
        <time>2017-05-06T10:32:32Z</time>
      </trkpt>
      <trkpt lat="38.084028" lon="-2.273862">
        <ele>1462.8</ele>
        <time>2017-05-06T10:32:33Z</time>
      </trkpt>
      <trkpt lat="38.084025" lon="-2.273871">
        <ele>1462.8</ele>
        <time>2017-05-06T10:32:34Z</time>
      </trkpt>
      <trkpt lat="38.084025" lon="-2.273888">
        <ele>1462.8</ele>
        <time>2017-05-06T10:32:35Z</time>
      </trkpt>
      <trkpt lat="38.084024" lon="-2.273904">
        <ele>1462.8</ele>
        <time>2017-05-06T10:32:36Z</time>
      </trkpt>
      <trkpt lat="38.083962" lon="-2.274160">
        <ele>1463.3</ele>
        <time>2017-05-06T10:32:53Z</time>
      </trkpt>
      <trkpt lat="38.083937" lon="-2.274234">
        <ele>1464.7</ele>
        <time>2017-05-06T10:32:58Z</time>
      </trkpt>
      <trkpt lat="38.083928" lon="-2.274312">
        <ele>1464.7</ele>
        <time>2017-05-06T10:33:03Z</time>
      </trkpt>
      <trkpt lat="38.083924" lon="-2.274329">
        <ele>1465.7</ele>
        <time>2017-05-06T10:33:04Z</time>
      </trkpt>
      <trkpt lat="38.083921" lon="-2.274343">
        <ele>1465.2</ele>
        <time>2017-05-06T10:33:05Z</time>
      </trkpt>
      <trkpt lat="38.083918" lon="-2.274358">
        <ele>1465.7</ele>
        <time>2017-05-06T10:33:06Z</time>
      </trkpt>
      <trkpt lat="38.083913" lon="-2.274373">
        <ele>1465.7</ele>
        <time>2017-05-06T10:33:07Z</time>
      </trkpt>
      <trkpt lat="38.083908" lon="-2.274388">
        <ele>1466.2</ele>
        <time>2017-05-06T10:33:08Z</time>
      </trkpt>
      <trkpt lat="38.083882" lon="-2.274519">
        <ele>1467.1</ele>
        <time>2017-05-06T10:33:16Z</time>
      </trkpt>
      <trkpt lat="38.083880" lon="-2.274536">
        <ele>1466.2</ele>
        <time>2017-05-06T10:33:17Z</time>
      </trkpt>
      <trkpt lat="38.083846" lon="-2.274721">
        <ele>1469.0</ele>
        <time>2017-05-06T10:33:29Z</time>
      </trkpt>
      <trkpt lat="38.083827" lon="-2.274781">
        <ele>1469.5</ele>
        <time>2017-05-06T10:33:33Z</time>
      </trkpt>
      <trkpt lat="38.083739" lon="-2.274986">
        <ele>1471.4</ele>
        <time>2017-05-06T10:33:47Z</time>
      </trkpt>
      <trkpt lat="38.083701" lon="-2.275095">
        <ele>1472.4</ele>
        <time>2017-05-06T10:33:54Z</time>
      </trkpt>
      <trkpt lat="38.083693" lon="-2.275122">
        <ele>1472.4</ele>
        <time>2017-05-06T10:33:56Z</time>
      </trkpt>
      <trkpt lat="38.083610" lon="-2.275275">
        <ele>1473.8</ele>
        <time>2017-05-06T10:34:07Z</time>
      </trkpt>
      <trkpt lat="38.083603" lon="-2.275281">
        <ele>1473.8</ele>
        <time>2017-05-06T10:34:08Z</time>
      </trkpt>
      <trkpt lat="38.083556" lon="-2.275353">
        <ele>1474.3</ele>
        <time>2017-05-06T10:34:14Z</time>
      </trkpt>
      <trkpt lat="38.083516" lon="-2.275422">
        <ele>1475.3</ele>
        <time>2017-05-06T10:34:19Z</time>
      </trkpt>
      <trkpt lat="38.083505" lon="-2.275437">
        <ele>1475.3</ele>
        <time>2017-05-06T10:34:20Z</time>
      </trkpt>
      <trkpt lat="38.083391" lon="-2.275627">
        <ele>1477.2</ele>
        <time>2017-05-06T10:34:34Z</time>
      </trkpt>
      <trkpt lat="38.083379" lon="-2.275654">
        <ele>1477.7</ele>
        <time>2017-05-06T10:34:36Z</time>
      </trkpt>
      <trkpt lat="38.083374" lon="-2.275668">
        <ele>1478.2</ele>
        <time>2017-05-06T10:34:37Z</time>
      </trkpt>
      <trkpt lat="38.083263" lon="-2.275879">
        <ele>1479.1</ele>
        <time>2017-05-06T10:34:52Z</time>
      </trkpt>
      <trkpt lat="38.083204" lon="-2.276005">
        <ele>1480.6</ele>
        <time>2017-05-06T10:35:00Z</time>
      </trkpt>
      <trkpt lat="38.083194" lon="-2.276019">
        <ele>1481.1</ele>
        <time>2017-05-06T10:35:01Z</time>
      </trkpt>
      <trkpt lat="38.083185" lon="-2.276033">
        <ele>1481.5</ele>
        <time>2017-05-06T10:35:02Z</time>
      </trkpt>
      <trkpt lat="38.083178" lon="-2.276048">
        <ele>1481.1</ele>
        <time>2017-05-06T10:35:03Z</time>
      </trkpt>
      <trkpt lat="38.083170" lon="-2.276064">
        <ele>1481.5</ele>
        <time>2017-05-06T10:35:04Z</time>
      </trkpt>
      <trkpt lat="38.083114" lon="-2.276210">
        <ele>1483.0</ele>
        <time>2017-05-06T10:35:13Z</time>
      </trkpt>
      <trkpt lat="38.083085" lon="-2.276281">
        <ele>1483.0</ele>
        <time>2017-05-06T10:35:18Z</time>
      </trkpt>
      <trkpt lat="38.083078" lon="-2.276295">
        <ele>1483.0</ele>
        <time>2017-05-06T10:35:19Z</time>
      </trkpt>
      <trkpt lat="38.083070" lon="-2.276308">
        <ele>1483.0</ele>
        <time>2017-05-06T10:35:20Z</time>
      </trkpt>
      <trkpt lat="38.083063" lon="-2.276322">
        <ele>1483.0</ele>
        <time>2017-05-06T10:35:21Z</time>
      </trkpt>
      <trkpt lat="38.083057" lon="-2.276336">
        <ele>1483.4</ele>
        <time>2017-05-06T10:35:22Z</time>
      </trkpt>
      <trkpt lat="38.082943" lon="-2.276563">
        <ele>1485.8</ele>
        <time>2017-05-06T10:35:37Z</time>
      </trkpt>
      <trkpt lat="38.082813" lon="-2.276744">
        <ele>1487.3</ele>
        <time>2017-05-06T10:35:51Z</time>
      </trkpt>
      <trkpt lat="38.082670" lon="-2.276884">
        <ele>1488.7</ele>
        <time>2017-05-06T10:36:05Z</time>
      </trkpt>
      <trkpt lat="38.082616" lon="-2.276935">
        <ele>1488.7</ele>
        <time>2017-05-06T10:36:10Z</time>
      </trkpt>
      <trkpt lat="38.082603" lon="-2.276936">
        <ele>1488.7</ele>
        <time>2017-05-06T10:36:11Z</time>
      </trkpt>
      <trkpt lat="38.082590" lon="-2.276943">
        <ele>1488.7</ele>
        <time>2017-05-06T10:36:12Z</time>
      </trkpt>
      <trkpt lat="38.082578" lon="-2.276955">
        <ele>1488.7</ele>
        <time>2017-05-06T10:36:13Z</time>
      </trkpt>
      <trkpt lat="38.082568" lon="-2.276966">
        <ele>1488.7</ele>
        <time>2017-05-06T10:36:14Z</time>
      </trkpt>
      <trkpt lat="38.082558" lon="-2.276972">
        <ele>1489.2</ele>
        <time>2017-05-06T10:36:15Z</time>
      </trkpt>
      <trkpt lat="38.082412" lon="-2.277085">
        <ele>1490.7</ele>
        <time>2017-05-06T10:36:29Z</time>
      </trkpt>
      <trkpt lat="38.082283" lon="-2.277199">
        <ele>1491.1</ele>
        <time>2017-05-06T10:36:42Z</time>
      </trkpt>
      <trkpt lat="38.082245" lon="-2.277257">
        <ele>1492.6</ele>
        <time>2017-05-06T10:36:54Z</time>
      </trkpt>
      <trkpt lat="38.082157" lon="-2.277322">
        <ele>1492.6</ele>
        <time>2017-05-06T10:37:07Z</time>
      </trkpt>
      <trkpt lat="38.082030" lon="-2.277429">
        <ele>1493.1</ele>
        <time>2017-05-06T10:37:20Z</time>
      </trkpt>
      <trkpt lat="38.081997" lon="-2.277427">
        <ele>1493.1</ele>
        <time>2017-05-06T10:37:24Z</time>
      </trkpt>
      <trkpt lat="38.081940" lon="-2.277458">
        <ele>1493.6</ele>
        <time>2017-05-06T10:37:37Z</time>
      </trkpt>
      <trkpt lat="38.081944" lon="-2.277440">
        <ele>1493.6</ele>
        <time>2017-05-06T10:37:51Z</time>
      </trkpt>
      <trkpt lat="38.081937" lon="-2.277452">
        <ele>1493.6</ele>
        <time>2017-05-06T10:37:55Z</time>
      </trkpt>
      <trkpt lat="38.081922" lon="-2.277462">
        <ele>1493.6</ele>
        <time>2017-05-06T10:37:57Z</time>
      </trkpt>
      <trkpt lat="38.081825" lon="-2.277593">
        <ele>1494.5</ele>
        <time>2017-05-06T10:38:11Z</time>
      </trkpt>
      <trkpt lat="38.081670" lon="-2.277717">
        <ele>1496.4</ele>
        <time>2017-05-06T10:38:28Z</time>
      </trkpt>
      <trkpt lat="38.081539" lon="-2.277831">
        <ele>1496.4</ele>
        <time>2017-05-06T10:38:42Z</time>
      </trkpt>
      <trkpt lat="38.081527" lon="-2.277842">
        <ele>1496.9</ele>
        <time>2017-05-06T10:38:43Z</time>
      </trkpt>
      <trkpt lat="38.081352" lon="-2.277957">
        <ele>1497.9</ele>
        <time>2017-05-06T10:38:58Z</time>
      </trkpt>
      <trkpt lat="38.081177" lon="-2.278080">
        <ele>1499.3</ele>
        <time>2017-05-06T10:39:12Z</time>
      </trkpt>
      <trkpt lat="38.081095" lon="-2.278158">
        <ele>1500.8</ele>
        <time>2017-05-06T10:39:20Z</time>
      </trkpt>
      <trkpt lat="38.081073" lon="-2.278188">
        <ele>1500.8</ele>
        <time>2017-05-06T10:39:30Z</time>
      </trkpt>
      <trkpt lat="38.081060" lon="-2.278197">
        <ele>1500.8</ele>
        <time>2017-05-06T10:39:31Z</time>
      </trkpt>
      <trkpt lat="38.081045" lon="-2.278209">
        <ele>1500.3</ele>
        <time>2017-05-06T10:39:32Z</time>
      </trkpt>
      <trkpt lat="38.080998" lon="-2.278236">
        <ele>1501.2</ele>
        <time>2017-05-06T10:39:35Z</time>
      </trkpt>
      <trkpt lat="38.081000" lon="-2.278258">
        <ele>1501.7</ele>
        <time>2017-05-06T10:39:51Z</time>
      </trkpt>
      <trkpt lat="38.080893" lon="-2.278306">
        <ele>1502.7</ele>
        <time>2017-05-06T10:40:04Z</time>
      </trkpt>
      <trkpt lat="38.080767" lon="-2.278414">
        <ele>1503.6</ele>
        <time>2017-05-06T10:40:17Z</time>
      </trkpt>
      <trkpt lat="38.080579" lon="-2.278604">
        <ele>1504.1</ele>
        <time>2017-05-06T10:40:35Z</time>
      </trkpt>
      <trkpt lat="38.080426" lon="-2.278774">
        <ele>1504.6</ele>
        <time>2017-05-06T10:40:53Z</time>
      </trkpt>
      <trkpt lat="38.080246" lon="-2.278959">
        <ele>1505.1</ele>
        <time>2017-05-06T10:41:11Z</time>
      </trkpt>
      <trkpt lat="38.080158" lon="-2.279058">
        <ele>1505.1</ele>
        <time>2017-05-06T10:41:26Z</time>
      </trkpt>
      <trkpt lat="38.080038" lon="-2.279215">
        <ele>1504.6</ele>
        <time>2017-05-06T10:42:00Z</time>
      </trkpt>
      <trkpt lat="38.080019" lon="-2.279226">
        <ele>1508.4</ele>
        <time>2017-05-06T11:10:28Z</time>
      </trkpt>
      <trkpt lat="38.080030" lon="-2.279266">
        <ele>1508.0</ele>
        <time>2017-05-06T11:10:35Z</time>
      </trkpt>
      <trkpt lat="38.079956" lon="-2.279360">
        <ele>1508.0</ele>
        <time>2017-05-06T11:11:10Z</time>
      </trkpt>
      <trkpt lat="38.079897" lon="-2.279404">
        <ele>1508.0</ele>
        <time>2017-05-06T11:11:23Z</time>
      </trkpt>
      <trkpt lat="38.079854" lon="-2.279479">
        <ele>1507.5</ele>
        <time>2017-05-06T11:11:39Z</time>
      </trkpt>
      <trkpt lat="38.079803" lon="-2.279549">
        <ele>1506.5</ele>
        <time>2017-05-06T11:12:45Z</time>
      </trkpt>
      <trkpt lat="38.079781" lon="-2.279564">
        <ele>1507.0</ele>
        <time>2017-05-06T11:12:49Z</time>
      </trkpt>
      <trkpt lat="38.079712" lon="-2.279665">
        <ele>1507.0</ele>
        <time>2017-05-06T11:13:05Z</time>
      </trkpt>
      <trkpt lat="38.079712" lon="-2.279687">
        <ele>1507.0</ele>
        <time>2017-05-06T11:13:18Z</time>
      </trkpt>
      <trkpt lat="38.079657" lon="-2.279736">
        <ele>1507.0</ele>
        <time>2017-05-06T11:13:28Z</time>
      </trkpt>
      <trkpt lat="38.079636" lon="-2.279767">
        <ele>1507.0</ele>
        <time>2017-05-06T11:13:31Z</time>
      </trkpt>
      <trkpt lat="38.079531" lon="-2.279911">
        <ele>1506.0</ele>
        <time>2017-05-06T11:13:45Z</time>
      </trkpt>
      <trkpt lat="38.079528" lon="-2.279923">
        <ele>1506.5</ele>
        <time>2017-05-06T11:13:46Z</time>
      </trkpt>
      <trkpt lat="38.079475" lon="-2.280020">
        <ele>1505.6</ele>
        <time>2017-05-06T11:13:58Z</time>
      </trkpt>
      <trkpt lat="38.079399" lon="-2.280096">
        <ele>1505.6</ele>
        <time>2017-05-06T11:14:11Z</time>
      </trkpt>
      <trkpt lat="38.079379" lon="-2.280121">
        <ele>1506.0</ele>
        <time>2017-05-06T11:14:14Z</time>
      </trkpt>
      <trkpt lat="38.079374" lon="-2.280132">
        <ele>1506.0</ele>
        <time>2017-05-06T11:14:15Z</time>
      </trkpt>
      <trkpt lat="38.079299" lon="-2.280225">
        <ele>1504.6</ele>
        <time>2017-05-06T11:14:28Z</time>
      </trkpt>
      <trkpt lat="38.079297" lon="-2.280237">
        <ele>1504.6</ele>
        <time>2017-05-06T11:14:29Z</time>
      </trkpt>
      <trkpt lat="38.079210" lon="-2.280378">
        <ele>1503.6</ele>
        <time>2017-05-06T11:14:45Z</time>
      </trkpt>
      <trkpt lat="38.079145" lon="-2.280467">
        <ele>1503.2</ele>
        <time>2017-05-06T11:15:51Z</time>
      </trkpt>
      <trkpt lat="38.079116" lon="-2.280499">
        <ele>1503.2</ele>
        <time>2017-05-06T11:16:02Z</time>
      </trkpt>
      <trkpt lat="38.079108" lon="-2.280511">
        <ele>1502.2</ele>
        <time>2017-05-06T11:16:03Z</time>
      </trkpt>
      <trkpt lat="38.078978" lon="-2.280637">
        <ele>1502.2</ele>
        <time>2017-05-06T11:16:19Z</time>
      </trkpt>
      <trkpt lat="38.078834" lon="-2.280815">
        <ele>1500.8</ele>
        <time>2017-05-06T11:16:35Z</time>
      </trkpt>
      <trkpt lat="38.078812" lon="-2.280852">
        <ele>1500.8</ele>
        <time>2017-05-06T11:16:38Z</time>
      </trkpt>
      <trkpt lat="38.078802" lon="-2.280855">
        <ele>1500.3</ele>
        <time>2017-05-06T11:16:39Z</time>
      </trkpt>
      <trkpt lat="38.078650" lon="-2.281001">
        <ele>1499.8</ele>
        <time>2017-05-06T11:16:56Z</time>
      </trkpt>
      <trkpt lat="38.078519" lon="-2.281120">
        <ele>1498.8</ele>
        <time>2017-05-06T11:17:12Z</time>
      </trkpt>
      <trkpt lat="38.078511" lon="-2.281124">
        <ele>1498.8</ele>
        <time>2017-05-06T11:17:13Z</time>
      </trkpt>
      <trkpt lat="38.078365" lon="-2.281198">
        <ele>1497.9</ele>
        <time>2017-05-06T11:17:29Z</time>
      </trkpt>
      <trkpt lat="38.078205" lon="-2.281313">
        <ele>1496.9</ele>
        <time>2017-05-06T11:17:47Z</time>
      </trkpt>
      <trkpt lat="38.078035" lon="-2.281406">
        <ele>1495.9</ele>
        <time>2017-05-06T11:18:05Z</time>
      </trkpt>
      <trkpt lat="38.077878" lon="-2.281497">
        <ele>1495.0</ele>
        <time>2017-05-06T11:18:22Z</time>
      </trkpt>
      <trkpt lat="38.077765" lon="-2.281579">
        <ele>1495.0</ele>
        <time>2017-05-06T11:18:33Z</time>
      </trkpt>
      <trkpt lat="38.077609" lon="-2.281662">
        <ele>1493.6</ele>
        <time>2017-05-06T11:18:50Z</time>
      </trkpt>
      <trkpt lat="38.077537" lon="-2.281695">
        <ele>1493.1</ele>
        <time>2017-05-06T11:18:57Z</time>
      </trkpt>
      <trkpt lat="38.077378" lon="-2.281782">
        <ele>1491.6</ele>
        <time>2017-05-06T11:19:14Z</time>
      </trkpt>
      <trkpt lat="38.077349" lon="-2.281798">
        <ele>1491.6</ele>
        <time>2017-05-06T11:19:17Z</time>
      </trkpt>
      <trkpt lat="38.077338" lon="-2.281804">
        <ele>1491.1</ele>
        <time>2017-05-06T11:19:18Z</time>
      </trkpt>
      <trkpt lat="38.077329" lon="-2.281810">
        <ele>1491.6</ele>
        <time>2017-05-06T11:19:19Z</time>
      </trkpt>
      <trkpt lat="38.077318" lon="-2.281814">
        <ele>1491.6</ele>
        <time>2017-05-06T11:19:20Z</time>
      </trkpt>
      <trkpt lat="38.077311" lon="-2.281819">
        <ele>1491.6</ele>
        <time>2017-05-06T11:19:21Z</time>
      </trkpt>
      <trkpt lat="38.077304" lon="-2.281823">
        <ele>1491.6</ele>
        <time>2017-05-06T11:19:22Z</time>
      </trkpt>
      <trkpt lat="38.077119" lon="-2.281915">
        <ele>1490.2</ele>
        <time>2017-05-06T11:19:39Z</time>
      </trkpt>
      <trkpt lat="38.076934" lon="-2.282054">
        <ele>1488.3</ele>
        <time>2017-05-06T11:19:58Z</time>
      </trkpt>
      <trkpt lat="38.076768" lon="-2.282188">
        <ele>1487.3</ele>
        <time>2017-05-06T11:20:16Z</time>
      </trkpt>
      <trkpt lat="38.076608" lon="-2.282366">
        <ele>1486.8</ele>
        <time>2017-05-06T11:20:35Z</time>
      </trkpt>
      <trkpt lat="38.076476" lon="-2.282541">
        <ele>1485.4</ele>
        <time>2017-05-06T11:20:51Z</time>
      </trkpt>
      <trkpt lat="38.076377" lon="-2.282641">
        <ele>1484.4</ele>
        <time>2017-05-06T11:21:02Z</time>
      </trkpt>
      <trkpt lat="38.076369" lon="-2.282652">
        <ele>1484.4</ele>
        <time>2017-05-06T11:21:03Z</time>
      </trkpt>
      <trkpt lat="38.076361" lon="-2.282664">
        <ele>1484.9</ele>
        <time>2017-05-06T11:21:04Z</time>
      </trkpt>
      <trkpt lat="38.076352" lon="-2.282675">
        <ele>1484.4</ele>
        <time>2017-05-06T11:21:05Z</time>
      </trkpt>
      <trkpt lat="38.076328" lon="-2.282694">
        <ele>1484.4</ele>
        <time>2017-05-06T11:21:08Z</time>
      </trkpt>
      <trkpt lat="38.076320" lon="-2.282702">
        <ele>1483.9</ele>
        <time>2017-05-06T11:21:09Z</time>
      </trkpt>
      <trkpt lat="38.076313" lon="-2.282711">
        <ele>1483.9</ele>
        <time>2017-05-06T11:21:10Z</time>
      </trkpt>
      <trkpt lat="38.076303" lon="-2.282719">
        <ele>1483.9</ele>
        <time>2017-05-06T11:21:11Z</time>
      </trkpt>
      <trkpt lat="38.076293" lon="-2.282727">
        <ele>1483.9</ele>
        <time>2017-05-06T11:21:12Z</time>
      </trkpt>
      <trkpt lat="38.076284" lon="-2.282733">
        <ele>1483.9</ele>
        <time>2017-05-06T11:21:13Z</time>
      </trkpt>
      <trkpt lat="38.076274" lon="-2.282739">
        <ele>1483.9</ele>
        <time>2017-05-06T11:21:14Z</time>
      </trkpt>
      <trkpt lat="38.076266" lon="-2.282745">
        <ele>1483.9</ele>
        <time>2017-05-06T11:21:15Z</time>
      </trkpt>
      <trkpt lat="38.076162" lon="-2.282873">
        <ele>1483.0</ele>
        <time>2017-05-06T11:21:29Z</time>
      </trkpt>
      <trkpt lat="38.076153" lon="-2.282880">
        <ele>1482.5</ele>
        <time>2017-05-06T11:21:30Z</time>
      </trkpt>
      <trkpt lat="38.076144" lon="-2.282889">
        <ele>1483.0</ele>
        <time>2017-05-06T11:21:31Z</time>
      </trkpt>
      <trkpt lat="38.076137" lon="-2.282900">
        <ele>1482.5</ele>
        <time>2017-05-06T11:21:32Z</time>
      </trkpt>
      <trkpt lat="38.076130" lon="-2.282911">
        <ele>1482.5</ele>
        <time>2017-05-06T11:21:33Z</time>
      </trkpt>
      <trkpt lat="38.076123" lon="-2.282921">
        <ele>1483.0</ele>
        <time>2017-05-06T11:21:34Z</time>
      </trkpt>
      <trkpt lat="38.076117" lon="-2.282933">
        <ele>1482.5</ele>
        <time>2017-05-06T11:21:35Z</time>
      </trkpt>
      <trkpt lat="38.076110" lon="-2.282943">
        <ele>1483.0</ele>
        <time>2017-05-06T11:21:36Z</time>
      </trkpt>
      <trkpt lat="38.076100" lon="-2.282950">
        <ele>1483.0</ele>
        <time>2017-05-06T11:21:37Z</time>
      </trkpt>
      <trkpt lat="38.076092" lon="-2.282956">
        <ele>1482.5</ele>
        <time>2017-05-06T11:21:38Z</time>
      </trkpt>
      <trkpt lat="38.076082" lon="-2.282967">
        <ele>1482.5</ele>
        <time>2017-05-06T11:21:39Z</time>
      </trkpt>
      <trkpt lat="38.076078" lon="-2.282978">
        <ele>1483.0</ele>
        <time>2017-05-06T11:21:40Z</time>
      </trkpt>
      <trkpt lat="38.076061" lon="-2.283005">
        <ele>1482.5</ele>
        <time>2017-05-06T11:21:43Z</time>
      </trkpt>
      <trkpt lat="38.076052" lon="-2.283010">
        <ele>1482.5</ele>
        <time>2017-05-06T11:21:44Z</time>
      </trkpt>
      <trkpt lat="38.076020" lon="-2.283045">
        <ele>1482.0</ele>
        <time>2017-05-06T11:21:48Z</time>
      </trkpt>
      <trkpt lat="38.076000" lon="-2.283077">
        <ele>1482.5</ele>
        <time>2017-05-06T11:21:51Z</time>
      </trkpt>
      <trkpt lat="38.075990" lon="-2.283085">
        <ele>1482.5</ele>
        <time>2017-05-06T11:21:52Z</time>
      </trkpt>
      <trkpt lat="38.075957" lon="-2.283123">
        <ele>1481.5</ele>
        <time>2017-05-06T11:21:56Z</time>
      </trkpt>
      <trkpt lat="38.075878" lon="-2.283252">
        <ele>1481.1</ele>
        <time>2017-05-06T11:22:08Z</time>
      </trkpt>
      <trkpt lat="38.075874" lon="-2.283261">
        <ele>1481.5</ele>
        <time>2017-05-06T11:22:09Z</time>
      </trkpt>
      <trkpt lat="38.075753" lon="-2.283394">
        <ele>1481.1</ele>
        <time>2017-05-06T11:22:24Z</time>
      </trkpt>
      <trkpt lat="38.075705" lon="-2.283449">
        <ele>1480.6</ele>
        <time>2017-05-06T11:22:30Z</time>
      </trkpt>
      <trkpt lat="38.075697" lon="-2.283464">
        <ele>1481.1</ele>
        <time>2017-05-06T11:22:31Z</time>
      </trkpt>
      <trkpt lat="38.075687" lon="-2.283474">
        <ele>1480.1</ele>
        <time>2017-05-06T11:22:32Z</time>
      </trkpt>
      <trkpt lat="38.075678" lon="-2.283483">
        <ele>1480.1</ele>
        <time>2017-05-06T11:22:33Z</time>
      </trkpt>
      <trkpt lat="38.075669" lon="-2.283491">
        <ele>1480.1</ele>
        <time>2017-05-06T11:22:34Z</time>
      </trkpt>
      <trkpt lat="38.075661" lon="-2.283501">
        <ele>1480.1</ele>
        <time>2017-05-06T11:22:35Z</time>
      </trkpt>
      <trkpt lat="38.075655" lon="-2.283514">
        <ele>1480.6</ele>
        <time>2017-05-06T11:22:36Z</time>
      </trkpt>
      <trkpt lat="38.075648" lon="-2.283526">
        <ele>1480.1</ele>
        <time>2017-05-06T11:22:37Z</time>
      </trkpt>
      <trkpt lat="38.075519" lon="-2.283704">
        <ele>1478.7</ele>
        <time>2017-05-06T11:22:53Z</time>
      </trkpt>
      <trkpt lat="38.075369" lon="-2.283905">
        <ele>1478.2</ele>
        <time>2017-05-06T11:23:12Z</time>
      </trkpt>
      <trkpt lat="38.075262" lon="-2.284041">
        <ele>1477.2</ele>
        <time>2017-05-06T11:23:27Z</time>
      </trkpt>
      <trkpt lat="38.075136" lon="-2.284180">
        <ele>1475.3</ele>
        <time>2017-05-06T11:23:45Z</time>
      </trkpt>
      <trkpt lat="38.075074" lon="-2.284245">
        <ele>1474.3</ele>
        <time>2017-05-06T11:23:55Z</time>
      </trkpt>
      <trkpt lat="38.075065" lon="-2.284257">
        <ele>1474.8</ele>
        <time>2017-05-06T11:23:56Z</time>
      </trkpt>
      <trkpt lat="38.075053" lon="-2.284269">
        <ele>1474.3</ele>
        <time>2017-05-06T11:23:57Z</time>
      </trkpt>
      <trkpt lat="38.075044" lon="-2.284281">
        <ele>1474.3</ele>
        <time>2017-05-06T11:23:58Z</time>
      </trkpt>
      <trkpt lat="38.075032" lon="-2.284291">
        <ele>1474.3</ele>
        <time>2017-05-06T11:23:59Z</time>
      </trkpt>
      <trkpt lat="38.075022" lon="-2.284300">
        <ele>1474.3</ele>
        <time>2017-05-06T11:24:00Z</time>
      </trkpt>
      <trkpt lat="38.074807" lon="-2.284482">
        <ele>1472.4</ele>
        <time>2017-05-06T11:24:19Z</time>
      </trkpt>
      <trkpt lat="38.074604" lon="-2.284685">
        <ele>1470.0</ele>
        <time>2017-05-06T11:24:41Z</time>
      </trkpt>
      <trkpt lat="38.074477" lon="-2.284802">
        <ele>1469.0</ele>
        <time>2017-05-06T11:24:54Z</time>
      </trkpt>
      <trkpt lat="38.074444" lon="-2.284869">
        <ele>1468.1</ele>
        <time>2017-05-06T11:25:07Z</time>
      </trkpt>
      <trkpt lat="38.074344" lon="-2.284935">
        <ele>1466.2</ele>
        <time>2017-05-06T11:25:20Z</time>
      </trkpt>
      <trkpt lat="38.074158" lon="-2.285012">
        <ele>1464.2</ele>
        <time>2017-05-06T11:25:34Z</time>
      </trkpt>
      <trkpt lat="38.073950" lon="-2.285155">
        <ele>1461.8</ele>
        <time>2017-05-06T11:25:50Z</time>
      </trkpt>
      <trkpt lat="38.073938" lon="-2.285164">
        <ele>1461.8</ele>
        <time>2017-05-06T11:25:51Z</time>
      </trkpt>
      <trkpt lat="38.073928" lon="-2.285172">
        <ele>1462.3</ele>
        <time>2017-05-06T11:25:52Z</time>
      </trkpt>
      <trkpt lat="38.073881" lon="-2.285203">
        <ele>1461.8</ele>
        <time>2017-05-06T11:25:56Z</time>
      </trkpt>
      <trkpt lat="38.073864" lon="-2.285208">
        <ele>1461.3</ele>
        <time>2017-05-06T11:25:57Z</time>
      </trkpt>
      <trkpt lat="38.073834" lon="-2.285240">
        <ele>1461.3</ele>
        <time>2017-05-06T11:26:00Z</time>
      </trkpt>
      <trkpt lat="38.073676" lon="-2.285430">
        <ele>1459.4</ele>
        <time>2017-05-06T11:26:18Z</time>
      </trkpt>
      <trkpt lat="38.073586" lon="-2.285530">
        <ele>1459.4</ele>
        <time>2017-05-06T11:26:29Z</time>
      </trkpt>
      <trkpt lat="38.073557" lon="-2.285560">
        <ele>1458.5</ele>
        <time>2017-05-06T11:26:32Z</time>
      </trkpt>
      <trkpt lat="38.073383" lon="-2.285722">
        <ele>1456.5</ele>
        <time>2017-05-06T11:26:49Z</time>
      </trkpt>
      <trkpt lat="38.073274" lon="-2.285775">
        <ele>1457.0</ele>
        <time>2017-05-06T11:27:00Z</time>
      </trkpt>
      <trkpt lat="38.073263" lon="-2.285778">
        <ele>1457.0</ele>
        <time>2017-05-06T11:27:01Z</time>
      </trkpt>
      <trkpt lat="38.073253" lon="-2.285780">
        <ele>1456.5</ele>
        <time>2017-05-06T11:27:02Z</time>
      </trkpt>
      <trkpt lat="38.073086" lon="-2.285852">
        <ele>1455.6</ele>
        <time>2017-05-06T11:27:17Z</time>
      </trkpt>
      <trkpt lat="38.072821" lon="-2.286078">
        <ele>1453.7</ele>
        <time>2017-05-06T11:27:43Z</time>
      </trkpt>
      <trkpt lat="38.072646" lon="-2.286295">
        <ele>1450.3</ele>
        <time>2017-05-06T11:28:29Z</time>
      </trkpt>
      <trkpt lat="38.072461" lon="-2.286545">
        <ele>1449.3</ele>
        <time>2017-05-06T11:28:52Z</time>
      </trkpt>
      <trkpt lat="38.072364" lon="-2.286752">
        <ele>1447.9</ele>
        <time>2017-05-06T11:29:06Z</time>
      </trkpt>
      <trkpt lat="38.072326" lon="-2.286831">
        <ele>1447.4</ele>
        <time>2017-05-06T11:29:11Z</time>
      </trkpt>
      <trkpt lat="38.072310" lon="-2.286858">
        <ele>1447.4</ele>
        <time>2017-05-06T11:29:13Z</time>
      </trkpt>
      <trkpt lat="38.072287" lon="-2.286902">
        <ele>1447.4</ele>
        <time>2017-05-06T11:29:16Z</time>
      </trkpt>
      <trkpt lat="38.072276" lon="-2.286917">
        <ele>1446.9</ele>
        <time>2017-05-06T11:29:17Z</time>
      </trkpt>
      <trkpt lat="38.072168" lon="-2.287083">
        <ele>1446.0</ele>
        <time>2017-05-06T11:29:31Z</time>
      </trkpt>
      <trkpt lat="38.072041" lon="-2.287239">
        <ele>1445.5</ele>
        <time>2017-05-06T11:29:44Z</time>
      </trkpt>
      <trkpt lat="38.072029" lon="-2.287252">
        <ele>1445.0</ele>
        <time>2017-05-06T11:29:45Z</time>
      </trkpt>
      <trkpt lat="38.072021" lon="-2.287265">
        <ele>1445.0</ele>
        <time>2017-05-06T11:29:46Z</time>
      </trkpt>
      <trkpt lat="38.071912" lon="-2.287353">
        <ele>1444.5</ele>
        <time>2017-05-06T11:29:58Z</time>
      </trkpt>
      <trkpt lat="38.071882" lon="-2.287391">
        <ele>1444.0</ele>
        <time>2017-05-06T11:30:02Z</time>
      </trkpt>
      <trkpt lat="38.071735" lon="-2.287554">
        <ele>1442.6</ele>
        <time>2017-05-06T11:30:16Z</time>
      </trkpt>
      <trkpt lat="38.071720" lon="-2.287587">
        <ele>1442.6</ele>
        <time>2017-05-06T11:30:17Z</time>
      </trkpt>
      <trkpt lat="38.071703" lon="-2.287612">
        <ele>1442.6</ele>
        <time>2017-05-06T11:30:18Z</time>
      </trkpt>
      <trkpt lat="38.071556" lon="-2.287783">
        <ele>1441.2</ele>
        <time>2017-05-06T11:30:31Z</time>
      </trkpt>
      <trkpt lat="38.071549" lon="-2.287795">
        <ele>1441.2</ele>
        <time>2017-05-06T11:30:32Z</time>
      </trkpt>
      <trkpt lat="38.071420" lon="-2.287979">
        <ele>1439.2</ele>
        <time>2017-05-06T11:30:47Z</time>
      </trkpt>
      <trkpt lat="38.071415" lon="-2.287993">
        <ele>1439.2</ele>
        <time>2017-05-06T11:30:48Z</time>
      </trkpt>
      <trkpt lat="38.071291" lon="-2.288123">
        <ele>1438.3</ele>
        <time>2017-05-06T11:31:01Z</time>
      </trkpt>
      <trkpt lat="38.071148" lon="-2.288221">
        <ele>1437.8</ele>
        <time>2017-05-06T11:31:14Z</time>
      </trkpt>
      <trkpt lat="38.071011" lon="-2.288349">
        <ele>1436.3</ele>
        <time>2017-05-06T11:31:27Z</time>
      </trkpt>
      <trkpt lat="38.071000" lon="-2.288360">
        <ele>1435.9</ele>
        <time>2017-05-06T11:31:28Z</time>
      </trkpt>
      <trkpt lat="38.070989" lon="-2.288370">
        <ele>1436.3</ele>
        <time>2017-05-06T11:31:29Z</time>
      </trkpt>
      <trkpt lat="38.070976" lon="-2.288379">
        <ele>1437.3</ele>
        <time>2017-05-06T11:31:30Z</time>
      </trkpt>
      <trkpt lat="38.070963" lon="-2.288388">
        <ele>1436.8</ele>
        <time>2017-05-06T11:31:31Z</time>
      </trkpt>
      <trkpt lat="38.070779" lon="-2.288500">
        <ele>1435.4</ele>
        <time>2017-05-06T11:31:46Z</time>
      </trkpt>
      <trkpt lat="38.070692" lon="-2.288573">
        <ele>1434.9</ele>
        <time>2017-05-06T11:31:54Z</time>
      </trkpt>
      <trkpt lat="38.070682" lon="-2.288582">
        <ele>1434.9</ele>
        <time>2017-05-06T11:31:55Z</time>
      </trkpt>
      <trkpt lat="38.070659" lon="-2.288602">
        <ele>1434.4</ele>
        <time>2017-05-06T11:31:57Z</time>
      </trkpt>
      <trkpt lat="38.070639" lon="-2.288621">
        <ele>1434.4</ele>
        <time>2017-05-06T11:31:59Z</time>
      </trkpt>
      <trkpt lat="38.070629" lon="-2.288626">
        <ele>1434.9</ele>
        <time>2017-05-06T11:32:00Z</time>
      </trkpt>
      <trkpt lat="38.070620" lon="-2.288632">
        <ele>1435.4</ele>
        <time>2017-05-06T11:32:01Z</time>
      </trkpt>
      <trkpt lat="38.070609" lon="-2.288636">
        <ele>1434.9</ele>
        <time>2017-05-06T11:32:02Z</time>
      </trkpt>
      <trkpt lat="38.070481" lon="-2.288759">
        <ele>1433.5</ele>
        <time>2017-05-06T11:32:16Z</time>
      </trkpt>
      <trkpt lat="38.070351" lon="-2.288880">
        <ele>1431.5</ele>
        <time>2017-05-06T11:32:29Z</time>
      </trkpt>
      <trkpt lat="38.070214" lon="-2.289006">
        <ele>1430.6</ele>
        <time>2017-05-06T11:32:43Z</time>
      </trkpt>
      <trkpt lat="38.070087" lon="-2.289134">
        <ele>1429.6</ele>
        <time>2017-05-06T11:32:56Z</time>
      </trkpt>
      <trkpt lat="38.070031" lon="-2.289197">
        <ele>1429.1</ele>
        <time>2017-05-06T11:33:02Z</time>
      </trkpt>
      <trkpt lat="38.070021" lon="-2.289209">
        <ele>1429.1</ele>
        <time>2017-05-06T11:33:03Z</time>
      </trkpt>
      <trkpt lat="38.070010" lon="-2.289219">
        <ele>1428.7</ele>
        <time>2017-05-06T11:33:04Z</time>
      </trkpt>
      <trkpt lat="38.069999" lon="-2.289230">
        <ele>1428.7</ele>
        <time>2017-05-06T11:33:05Z</time>
      </trkpt>
      <trkpt lat="38.069989" lon="-2.289239">
        <ele>1429.1</ele>
        <time>2017-05-06T11:33:06Z</time>
      </trkpt>
      <trkpt lat="38.069979" lon="-2.289247">
        <ele>1428.7</ele>
        <time>2017-05-06T11:33:07Z</time>
      </trkpt>
      <trkpt lat="38.069852" lon="-2.289364">
        <ele>1427.7</ele>
        <time>2017-05-06T11:33:21Z</time>
      </trkpt>
      <trkpt lat="38.069740" lon="-2.289508">
        <ele>1427.2</ele>
        <time>2017-05-06T11:33:34Z</time>
      </trkpt>
      <trkpt lat="38.069731" lon="-2.289516">
        <ele>1427.2</ele>
        <time>2017-05-06T11:33:35Z</time>
      </trkpt>
      <trkpt lat="38.069608" lon="-2.289642">
        <ele>1426.7</ele>
        <time>2017-05-06T11:33:48Z</time>
      </trkpt>
      <trkpt lat="38.069488" lon="-2.289781">
        <ele>1426.2</ele>
        <time>2017-05-06T11:34:01Z</time>
      </trkpt>
      <trkpt lat="38.069352" lon="-2.289913">
        <ele>1425.3</ele>
        <time>2017-05-06T11:34:16Z</time>
      </trkpt>
      <trkpt lat="38.069231" lon="-2.290059">
        <ele>1424.8</ele>
        <time>2017-05-06T11:34:30Z</time>
      </trkpt>
      <trkpt lat="38.069082" lon="-2.290205">
        <ele>1424.8</ele>
        <time>2017-05-06T11:34:45Z</time>
      </trkpt>
      <trkpt lat="38.068937" lon="-2.290353">
        <ele>1423.8</ele>
        <time>2017-05-06T11:35:00Z</time>
      </trkpt>
      <trkpt lat="38.068848" lon="-2.290402">
        <ele>1423.8</ele>
        <time>2017-05-06T11:35:09Z</time>
      </trkpt>
      <trkpt lat="38.068837" lon="-2.290410">
        <ele>1424.3</ele>
        <time>2017-05-06T11:35:10Z</time>
      </trkpt>
      <trkpt lat="38.068683" lon="-2.290546">
        <ele>1423.8</ele>
        <time>2017-05-06T11:35:25Z</time>
      </trkpt>
      <trkpt lat="38.068519" lon="-2.290682">
        <ele>1422.9</ele>
        <time>2017-05-06T11:35:40Z</time>
      </trkpt>
      <trkpt lat="38.068358" lon="-2.290847">
        <ele>1421.9</ele>
        <time>2017-05-06T11:35:57Z</time>
      </trkpt>
      <trkpt lat="38.068234" lon="-2.290952">
        <ele>1422.4</ele>
        <time>2017-05-06T11:36:10Z</time>
      </trkpt>
      <trkpt lat="38.068096" lon="-2.291145">
        <ele>1421.9</ele>
        <time>2017-05-06T11:36:26Z</time>
      </trkpt>
      <trkpt lat="38.068016" lon="-2.291296">
        <ele>1421.4</ele>
        <time>2017-05-06T11:36:40Z</time>
      </trkpt>
      <trkpt lat="38.067902" lon="-2.291603">
        <ele>1419.5</ele>
        <time>2017-05-06T11:36:59Z</time>
      </trkpt>
      <trkpt lat="38.067878" lon="-2.291665">
        <ele>1420.5</ele>
        <time>2017-05-06T11:37:04Z</time>
      </trkpt>
      <trkpt lat="38.067870" lon="-2.291677">
        <ele>1420.0</ele>
        <time>2017-05-06T11:37:05Z</time>
      </trkpt>
      <trkpt lat="38.067798" lon="-2.291870">
        <ele>1420.0</ele>
        <time>2017-05-06T11:37:21Z</time>
      </trkpt>
      <trkpt lat="38.067763" lon="-2.292038">
        <ele>1420.0</ele>
        <time>2017-05-06T11:37:39Z</time>
      </trkpt>
      <trkpt lat="38.067703" lon="-2.292176">
        <ele>1419.5</ele>
        <time>2017-05-06T11:37:48Z</time>
      </trkpt>
      <trkpt lat="38.067696" lon="-2.292190">
        <ele>1420.0</ele>
        <time>2017-05-06T11:37:49Z</time>
      </trkpt>
      <trkpt lat="38.067689" lon="-2.292206">
        <ele>1420.0</ele>
        <time>2017-05-06T11:37:50Z</time>
      </trkpt>
      <trkpt lat="38.067595" lon="-2.292479">
        <ele>1418.6</ele>
        <time>2017-05-06T11:38:09Z</time>
      </trkpt>
      <trkpt lat="38.067502" lon="-2.292744">
        <ele>1419.0</ele>
        <time>2017-05-06T11:38:27Z</time>
      </trkpt>
      <trkpt lat="38.067436" lon="-2.292962">
        <ele>1418.1</ele>
        <time>2017-05-06T11:38:42Z</time>
      </trkpt>
      <trkpt lat="38.067374" lon="-2.293174">
        <ele>1417.6</ele>
        <time>2017-05-06T11:38:57Z</time>
      </trkpt>
      <trkpt lat="38.067304" lon="-2.293437">
        <ele>1417.6</ele>
        <time>2017-05-06T11:39:15Z</time>
      </trkpt>
      <trkpt lat="38.067238" lon="-2.293696">
        <ele>1417.1</ele>
        <time>2017-05-06T11:39:32Z</time>
      </trkpt>
      <trkpt lat="38.067203" lon="-2.293829">
        <ele>1417.1</ele>
        <time>2017-05-06T11:39:46Z</time>
      </trkpt>
      <trkpt lat="38.067201" lon="-2.293843">
        <ele>1416.6</ele>
        <time>2017-05-06T11:39:47Z</time>
      </trkpt>
      <trkpt lat="38.067202" lon="-2.293860">
        <ele>1417.6</ele>
        <time>2017-05-06T11:39:48Z</time>
      </trkpt>
      <trkpt lat="38.067204" lon="-2.293877">
        <ele>1417.1</ele>
        <time>2017-05-06T11:39:49Z</time>
      </trkpt>
      <trkpt lat="38.067202" lon="-2.293894">
        <ele>1417.1</ele>
        <time>2017-05-06T11:39:50Z</time>
      </trkpt>
      <trkpt lat="38.067198" lon="-2.293909">
        <ele>1416.6</ele>
        <time>2017-05-06T11:39:51Z</time>
      </trkpt>
      <trkpt lat="38.067192" lon="-2.293921">
        <ele>1417.1</ele>
        <time>2017-05-06T11:39:52Z</time>
      </trkpt>
      <trkpt lat="38.067179" lon="-2.293955">
        <ele>1416.6</ele>
        <time>2017-05-06T11:39:57Z</time>
      </trkpt>
      <trkpt lat="38.067175" lon="-2.293973">
        <ele>1416.6</ele>
        <time>2017-05-06T11:39:58Z</time>
      </trkpt>
      <trkpt lat="38.067171" lon="-2.293987">
        <ele>1416.6</ele>
        <time>2017-05-06T11:39:59Z</time>
      </trkpt>
      <trkpt lat="38.067168" lon="-2.294002">
        <ele>1416.2</ele>
        <time>2017-05-06T11:40:00Z</time>
      </trkpt>
      <trkpt lat="38.067167" lon="-2.294020">
        <ele>1416.6</ele>
        <time>2017-05-06T11:40:01Z</time>
      </trkpt>
      <trkpt lat="38.067165" lon="-2.294036">
        <ele>1416.6</ele>
        <time>2017-05-06T11:40:02Z</time>
      </trkpt>
      <trkpt lat="38.067160" lon="-2.294052">
        <ele>1416.2</ele>
        <time>2017-05-06T11:40:03Z</time>
      </trkpt>
      <trkpt lat="38.067138" lon="-2.294090">
        <ele>1417.1</ele>
        <time>2017-05-06T11:40:09Z</time>
      </trkpt>
      <trkpt lat="38.067112" lon="-2.294103">
        <ele>1416.2</ele>
        <time>2017-05-06T11:40:15Z</time>
      </trkpt>
      <trkpt lat="38.067111" lon="-2.294121">
        <ele>1416.2</ele>
        <time>2017-05-06T11:40:16Z</time>
      </trkpt>
      <trkpt lat="38.067101" lon="-2.294176">
        <ele>1416.6</ele>
        <time>2017-05-06T11:40:20Z</time>
      </trkpt>
      <trkpt lat="38.067093" lon="-2.294192">
        <ele>1416.2</ele>
        <time>2017-05-06T11:40:21Z</time>
      </trkpt>
      <trkpt lat="38.067087" lon="-2.294210">
        <ele>1416.2</ele>
        <time>2017-05-06T11:40:22Z</time>
      </trkpt>
      <trkpt lat="38.067082" lon="-2.294227">
        <ele>1416.2</ele>
        <time>2017-05-06T11:40:23Z</time>
      </trkpt>
      <trkpt lat="38.067075" lon="-2.294246">
        <ele>1416.6</ele>
        <time>2017-05-06T11:40:24Z</time>
      </trkpt>
      <trkpt lat="38.067067" lon="-2.294265">
        <ele>1416.2</ele>
        <time>2017-05-06T11:40:25Z</time>
      </trkpt>
      <trkpt lat="38.067063" lon="-2.294285">
        <ele>1416.2</ele>
        <time>2017-05-06T11:40:26Z</time>
      </trkpt>
      <trkpt lat="38.067058" lon="-2.294306">
        <ele>1415.7</ele>
        <time>2017-05-06T11:40:27Z</time>
      </trkpt>
      <trkpt lat="38.067053" lon="-2.294327">
        <ele>1415.2</ele>
        <time>2017-05-06T11:40:28Z</time>
      </trkpt>
      <trkpt lat="38.067013" lon="-2.294523">
        <ele>1415.7</ele>
        <time>2017-05-06T11:40:40Z</time>
      </trkpt>
      <trkpt lat="38.067009" lon="-2.294536">
        <ele>1415.7</ele>
        <time>2017-05-06T11:40:41Z</time>
      </trkpt>
      <trkpt lat="38.067006" lon="-2.294553">
        <ele>1415.7</ele>
        <time>2017-05-06T11:40:42Z</time>
      </trkpt>
      <trkpt lat="38.066958" lon="-2.294749">
        <ele>1415.7</ele>
        <time>2017-05-06T11:41:39Z</time>
      </trkpt>
      <trkpt lat="38.066879" lon="-2.295038">
        <ele>1415.2</ele>
        <time>2017-05-06T11:41:55Z</time>
      </trkpt>
      <trkpt lat="38.066779" lon="-2.295232">
        <ele>1415.7</ele>
        <time>2017-05-06T11:42:10Z</time>
      </trkpt>
      <trkpt lat="38.066656" lon="-2.295435">
        <ele>1415.2</ele>
        <time>2017-05-06T11:42:28Z</time>
      </trkpt>
      <trkpt lat="38.066523" lon="-2.295635">
        <ele>1415.7</ele>
        <time>2017-05-06T11:42:44Z</time>
      </trkpt>
      <trkpt lat="38.066355" lon="-2.295879">
        <ele>1415.2</ele>
        <time>2017-05-06T11:43:02Z</time>
      </trkpt>
      <trkpt lat="38.066218" lon="-2.296048">
        <ele>1415.7</ele>
        <time>2017-05-06T11:43:16Z</time>
      </trkpt>
      <trkpt lat="38.066143" lon="-2.296111">
        <ele>1415.2</ele>
        <time>2017-05-06T11:43:31Z</time>
      </trkpt>
      <trkpt lat="38.065913" lon="-2.296131">
        <ele>1413.3</ele>
        <time>2017-05-06T11:46:03Z</time>
      </trkpt>
      <trkpt lat="38.065823" lon="-2.296068">
        <ele>1412.8</ele>
        <time>2017-05-06T11:46:11Z</time>
      </trkpt>
      <trkpt lat="38.065516" lon="-2.296026">
        <ele>1410.9</ele>
        <time>2017-05-06T11:46:30Z</time>
      </trkpt>
      <trkpt lat="38.065337" lon="-2.296109">
        <ele>1409.4</ele>
        <time>2017-05-06T11:46:44Z</time>
      </trkpt>
      <trkpt lat="38.065195" lon="-2.296143">
        <ele>1408.5</ele>
        <time>2017-05-06T11:46:55Z</time>
      </trkpt>
      <trkpt lat="38.065133" lon="-2.296148">
        <ele>1408.0</ele>
        <time>2017-05-06T11:47:00Z</time>
      </trkpt>
      <trkpt lat="38.064927" lon="-2.296183">
        <ele>1406.1</ele>
        <time>2017-05-06T11:47:16Z</time>
      </trkpt>
      <trkpt lat="38.064692" lon="-2.296222">
        <ele>1404.6</ele>
        <time>2017-05-06T11:47:35Z</time>
      </trkpt>
      <trkpt lat="38.064462" lon="-2.296280">
        <ele>1403.2</ele>
        <time>2017-05-06T11:47:51Z</time>
      </trkpt>
      <trkpt lat="38.064328" lon="-2.296319">
        <ele>1401.7</ele>
        <time>2017-05-06T11:48:01Z</time>
      </trkpt>
      <trkpt lat="38.064133" lon="-2.296380">
        <ele>1400.3</ele>
        <time>2017-05-06T11:48:15Z</time>
      </trkpt>
      <trkpt lat="38.063888" lon="-2.296466">
        <ele>1397.9</ele>
        <time>2017-05-06T11:48:32Z</time>
      </trkpt>
      <trkpt lat="38.063658" lon="-2.296591">
        <ele>1396.0</ele>
        <time>2017-05-06T11:48:49Z</time>
      </trkpt>
      <trkpt lat="38.063431" lon="-2.296676">
        <ele>1393.6</ele>
        <time>2017-05-06T11:49:05Z</time>
      </trkpt>
      <trkpt lat="38.063297" lon="-2.296809">
        <ele>1393.6</ele>
        <time>2017-05-06T11:49:20Z</time>
      </trkpt>
      <trkpt lat="38.063292" lon="-2.296813">
        <ele>1393.1</ele>
        <time>2017-05-06T11:49:21Z</time>
      </trkpt>
      <trkpt lat="38.063091" lon="-2.296841">
        <ele>1392.6</ele>
        <time>2017-05-06T11:49:37Z</time>
      </trkpt>
      <trkpt lat="38.062991" lon="-2.296877">
        <ele>1392.6</ele>
        <time>2017-05-06T11:49:53Z</time>
      </trkpt>
      <trkpt lat="38.062704" lon="-2.297013">
        <ele>1391.2</ele>
        <time>2017-05-06T11:50:14Z</time>
      </trkpt>
      <trkpt lat="38.062513" lon="-2.297093">
        <ele>1389.7</ele>
        <time>2017-05-06T11:50:28Z</time>
      </trkpt>
      <trkpt lat="38.062269" lon="-2.297207">
        <ele>1388.8</ele>
        <time>2017-05-06T11:50:46Z</time>
      </trkpt>
      <trkpt lat="38.062075" lon="-2.297297">
        <ele>1388.3</ele>
        <time>2017-05-06T11:51:01Z</time>
      </trkpt>
      <trkpt lat="38.061870" lon="-2.297376">
        <ele>1387.3</ele>
        <time>2017-05-06T11:51:16Z</time>
      </trkpt>
      <trkpt lat="38.061692" lon="-2.297474">
        <ele>1385.9</ele>
        <time>2017-05-06T11:51:30Z</time>
      </trkpt>
      <trkpt lat="38.061558" lon="-2.297528">
        <ele>1385.9</ele>
        <time>2017-05-06T11:51:40Z</time>
      </trkpt>
      <trkpt lat="38.061386" lon="-2.297654">
        <ele>1385.4</ele>
        <time>2017-05-06T11:51:55Z</time>
      </trkpt>
      <trkpt lat="38.061190" lon="-2.297752">
        <ele>1383.5</ele>
        <time>2017-05-06T11:52:10Z</time>
      </trkpt>
      <trkpt lat="38.061148" lon="-2.297752">
        <ele>1383.0</ele>
        <time>2017-05-06T11:52:13Z</time>
      </trkpt>
      <trkpt lat="38.060915" lon="-2.297749">
        <ele>1381.6</ele>
        <time>2017-05-06T11:52:30Z</time>
      </trkpt>
      <trkpt lat="38.060660" lon="-2.297700">
        <ele>1379.2</ele>
        <time>2017-05-06T11:52:51Z</time>
      </trkpt>
      <trkpt lat="38.060312" lon="-2.297696">
        <ele>1376.3</ele>
        <time>2017-05-06T11:53:17Z</time>
      </trkpt>
      <trkpt lat="38.060298" lon="-2.297702">
        <ele>1376.3</ele>
        <time>2017-05-06T11:53:18Z</time>
      </trkpt>
      <trkpt lat="38.060252" lon="-2.297712">
        <ele>1376.3</ele>
        <time>2017-05-06T11:53:21Z</time>
      </trkpt>
      <trkpt lat="38.060132" lon="-2.297710">
        <ele>1374.3</ele>
        <time>2017-05-06T11:53:29Z</time>
      </trkpt>
      <trkpt lat="38.060022" lon="-2.297687">
        <ele>1373.9</ele>
        <time>2017-05-06T11:53:38Z</time>
      </trkpt>
      <trkpt lat="38.059985" lon="-2.297669">
        <ele>1373.4</ele>
        <time>2017-05-06T11:53:41Z</time>
      </trkpt>
      <trkpt lat="38.059817" lon="-2.297549">
        <ele>1372.4</ele>
        <time>2017-05-06T11:53:55Z</time>
      </trkpt>
      <trkpt lat="38.059780" lon="-2.297498">
        <ele>1371.9</ele>
        <time>2017-05-06T11:53:59Z</time>
      </trkpt>
      <trkpt lat="38.059734" lon="-2.297437">
        <ele>1371.5</ele>
        <time>2017-05-06T11:54:04Z</time>
      </trkpt>
      <trkpt lat="38.059558" lon="-2.297292">
        <ele>1369.5</ele>
        <time>2017-05-06T11:54:20Z</time>
      </trkpt>
      <trkpt lat="38.059365" lon="-2.297192">
        <ele>1367.1</ele>
        <time>2017-05-06T11:54:36Z</time>
      </trkpt>
      <trkpt lat="38.059288" lon="-2.297207">
        <ele>1366.2</ele>
        <time>2017-05-06T11:54:41Z</time>
      </trkpt>
      <trkpt lat="38.059235" lon="-2.297309">
        <ele>1365.2</ele>
        <time>2017-05-06T11:54:49Z</time>
      </trkpt>
      <trkpt lat="38.059184" lon="-2.297642">
        <ele>1362.3</ele>
        <time>2017-05-06T11:55:07Z</time>
      </trkpt>
      <trkpt lat="38.059164" lon="-2.297733">
        <ele>1361.8</ele>
        <time>2017-05-06T11:55:12Z</time>
      </trkpt>
      <trkpt lat="38.059145" lon="-2.297774">
        <ele>1361.4</ele>
        <time>2017-05-06T11:55:15Z</time>
      </trkpt>
      <trkpt lat="38.058939" lon="-2.297834">
        <ele>1360.9</ele>
        <time>2017-05-06T11:55:30Z</time>
      </trkpt>
      <trkpt lat="38.058847" lon="-2.297780">
        <ele>1360.4</ele>
        <time>2017-05-06T11:55:37Z</time>
      </trkpt>
      <trkpt lat="38.058732" lon="-2.297671">
        <ele>1360.4</ele>
        <time>2017-05-06T11:55:47Z</time>
      </trkpt>
      <trkpt lat="38.058695" lon="-2.297672">
        <ele>1359.9</ele>
        <time>2017-05-06T11:55:50Z</time>
      </trkpt>
      <trkpt lat="38.058499" lon="-2.297575">
        <ele>1359.0</ele>
        <time>2017-05-06T11:56:05Z</time>
      </trkpt>
      <trkpt lat="38.058306" lon="-2.297449">
        <ele>1358.0</ele>
        <time>2017-05-06T11:56:19Z</time>
      </trkpt>
      <trkpt lat="38.058149" lon="-2.297356">
        <ele>1357.0</ele>
        <time>2017-05-06T11:56:31Z</time>
      </trkpt>
      <trkpt lat="38.057923" lon="-2.297274">
        <ele>1356.6</ele>
        <time>2017-05-06T11:56:48Z</time>
      </trkpt>
      <trkpt lat="38.057796" lon="-2.297241">
        <ele>1355.6</ele>
        <time>2017-05-06T11:56:57Z</time>
      </trkpt>
      <trkpt lat="38.057613" lon="-2.297200">
        <ele>1355.1</ele>
        <time>2017-05-06T11:57:09Z</time>
      </trkpt>
      <trkpt lat="38.057554" lon="-2.297193">
        <ele>1354.2</ele>
        <time>2017-05-06T11:57:13Z</time>
      </trkpt>
      <trkpt lat="38.057320" lon="-2.297301">
        <ele>1353.7</ele>
        <time>2017-05-06T11:57:31Z</time>
      </trkpt>
      <trkpt lat="38.057135" lon="-2.297412">
        <ele>1352.2</ele>
        <time>2017-05-06T11:57:46Z</time>
      </trkpt>
      <trkpt lat="38.057079" lon="-2.297473">
        <ele>1352.2</ele>
        <time>2017-05-06T11:57:51Z</time>
      </trkpt>
      <trkpt lat="38.057031" lon="-2.297514">
        <ele>1351.8</ele>
        <time>2017-05-06T11:57:55Z</time>
      </trkpt>
      <trkpt lat="38.056962" lon="-2.297547">
        <ele>1351.8</ele>
        <time>2017-05-06T11:58:00Z</time>
      </trkpt>
      <trkpt lat="38.056807" lon="-2.297598">
        <ele>1351.3</ele>
        <time>2017-05-06T11:58:10Z</time>
      </trkpt>
      <trkpt lat="38.056782" lon="-2.297624">
        <ele>1351.3</ele>
        <time>2017-05-06T11:58:12Z</time>
      </trkpt>
      <trkpt lat="38.056625" lon="-2.297729">
        <ele>1350.3</ele>
        <time>2017-05-06T11:58:25Z</time>
      </trkpt>
      <trkpt lat="38.056419" lon="-2.297844">
        <ele>1349.8</ele>
        <time>2017-05-06T11:58:40Z</time>
      </trkpt>
      <trkpt lat="38.056255" lon="-2.297907">
        <ele>1349.3</ele>
        <time>2017-05-06T11:58:51Z</time>
      </trkpt>
      <trkpt lat="38.056204" lon="-2.297963">
        <ele>1348.9</ele>
        <time>2017-05-06T11:58:55Z</time>
      </trkpt>
      <trkpt lat="38.055991" lon="-2.298097">
        <ele>1349.3</ele>
        <time>2017-05-06T11:59:13Z</time>
      </trkpt>
      <trkpt lat="38.055890" lon="-2.298131">
        <ele>1348.4</ele>
        <time>2017-05-06T11:59:58Z</time>
      </trkpt>
      <trkpt lat="38.055719" lon="-2.298239">
        <ele>1346.9</ele>
        <time>2017-05-06T12:00:12Z</time>
      </trkpt>
      <trkpt lat="38.055525" lon="-2.298367">
        <ele>1345.5</ele>
        <time>2017-05-06T12:00:27Z</time>
      </trkpt>
      <trkpt lat="38.055309" lon="-2.298456">
        <ele>1345.0</ele>
        <time>2017-05-06T12:00:42Z</time>
      </trkpt>
      <trkpt lat="38.055097" lon="-2.298563">
        <ele>1343.6</ele>
        <time>2017-05-06T12:01:00Z</time>
      </trkpt>
      <trkpt lat="38.054908" lon="-2.298648">
        <ele>1343.1</ele>
        <time>2017-05-06T12:01:14Z</time>
      </trkpt>
      <trkpt lat="38.054667" lon="-2.298710">
        <ele>1342.6</ele>
        <time>2017-05-06T12:01:30Z</time>
      </trkpt>
      <trkpt lat="38.054564" lon="-2.298776">
        <ele>1342.1</ele>
        <time>2017-05-06T12:01:38Z</time>
      </trkpt>
      <trkpt lat="38.054476" lon="-2.298811">
        <ele>1341.2</ele>
        <time>2017-05-06T12:01:46Z</time>
      </trkpt>
      <trkpt lat="38.054173" lon="-2.298885">
        <ele>1340.7</ele>
        <time>2017-05-06T12:02:05Z</time>
      </trkpt>
      <trkpt lat="38.053914" lon="-2.298969">
        <ele>1340.2</ele>
        <time>2017-05-06T12:02:23Z</time>
      </trkpt>
      <trkpt lat="38.053707" lon="-2.299037">
        <ele>1340.2</ele>
        <time>2017-05-06T12:02:38Z</time>
      </trkpt>
      <trkpt lat="38.053472" lon="-2.299097">
        <ele>1340.2</ele>
        <time>2017-05-06T12:02:54Z</time>
      </trkpt>
      <trkpt lat="38.053261" lon="-2.299102">
        <ele>1340.2</ele>
        <time>2017-05-06T12:03:11Z</time>
      </trkpt>
      <trkpt lat="38.053061" lon="-2.299082">
        <ele>1339.7</ele>
        <time>2017-05-06T12:03:26Z</time>
      </trkpt>
      <trkpt lat="38.052844" lon="-2.299056">
        <ele>1339.2</ele>
        <time>2017-05-06T12:03:42Z</time>
      </trkpt>
      <trkpt lat="38.052767" lon="-2.299036">
        <ele>1338.3</ele>
        <time>2017-05-06T12:03:48Z</time>
      </trkpt>
      <trkpt lat="38.052531" lon="-2.299008">
        <ele>1337.8</ele>
        <time>2017-05-06T12:04:05Z</time>
      </trkpt>
      <trkpt lat="38.052478" lon="-2.298990">
        <ele>1337.8</ele>
        <time>2017-05-06T12:04:13Z</time>
      </trkpt>
      <trkpt lat="38.052432" lon="-2.298965">
        <ele>1337.8</ele>
        <time>2017-05-06T12:04:17Z</time>
      </trkpt>
      <trkpt lat="38.052219" lon="-2.298900">
        <ele>1336.4</ele>
        <time>2017-05-06T12:04:33Z</time>
      </trkpt>
      <trkpt lat="38.052148" lon="-2.298875">
        <ele>1336.4</ele>
        <time>2017-05-06T12:04:38Z</time>
      </trkpt>
      <trkpt lat="38.051907" lon="-2.298785">
        <ele>1335.4</ele>
        <time>2017-05-06T12:04:54Z</time>
      </trkpt>
      <trkpt lat="38.051764" lon="-2.298751">
        <ele>1334.9</ele>
        <time>2017-05-06T12:05:04Z</time>
      </trkpt>
      <trkpt lat="38.051657" lon="-2.298696">
        <ele>1334.0</ele>
        <time>2017-05-06T12:05:12Z</time>
      </trkpt>
      <trkpt lat="38.051413" lon="-2.298665">
        <ele>1333.0</ele>
        <time>2017-05-06T12:05:28Z</time>
      </trkpt>
      <trkpt lat="38.051088" lon="-2.298706">
        <ele>1333.0</ele>
        <time>2017-05-06T12:05:49Z</time>
      </trkpt>
      <trkpt lat="38.050848" lon="-2.298726">
        <ele>1332.5</ele>
        <time>2017-05-06T12:06:06Z</time>
      </trkpt>
      <trkpt lat="38.050587" lon="-2.298757">
        <ele>1332.0</ele>
        <time>2017-05-06T12:06:24Z</time>
      </trkpt>
      <trkpt lat="38.050398" lon="-2.298794">
        <ele>1332.5</ele>
        <time>2017-05-06T12:06:37Z</time>
      </trkpt>
      <trkpt lat="38.050186" lon="-2.298810">
        <ele>1333.0</ele>
        <time>2017-05-06T12:06:51Z</time>
      </trkpt>
      <trkpt lat="38.049898" lon="-2.298848">
        <ele>1332.0</ele>
        <time>2017-05-06T12:07:11Z</time>
      </trkpt>
      <trkpt lat="38.049627" lon="-2.298874">
        <ele>1331.1</ele>
        <time>2017-05-06T12:07:28Z</time>
      </trkpt>
      <trkpt lat="38.049420" lon="-2.298902">
        <ele>1330.6</ele>
        <time>2017-05-06T12:07:43Z</time>
      </trkpt>
      <trkpt lat="38.049180" lon="-2.298954">
        <ele>1330.1</ele>
        <time>2017-05-06T12:08:02Z</time>
      </trkpt>
      <trkpt lat="38.048943" lon="-2.298985">
        <ele>1329.2</ele>
        <time>2017-05-06T12:08:17Z</time>
      </trkpt>
      <trkpt lat="38.048685" lon="-2.299014">
        <ele>1329.6</ele>
        <time>2017-05-06T12:08:36Z</time>
      </trkpt>
      <trkpt lat="38.048321" lon="-2.299003">
        <ele>1329.2</ele>
        <time>2017-05-06T12:09:00Z</time>
      </trkpt>
      <trkpt lat="38.048085" lon="-2.298996">
        <ele>1328.7</ele>
        <time>2017-05-06T12:09:17Z</time>
      </trkpt>
      <trkpt lat="38.047821" lon="-2.298962">
        <ele>1327.2</ele>
        <time>2017-05-06T12:09:36Z</time>
      </trkpt>
      <trkpt lat="38.047708" lon="-2.298941">
        <ele>1327.7</ele>
        <time>2017-05-06T12:09:44Z</time>
      </trkpt>
      <trkpt lat="38.047444" lon="-2.298910">
        <ele>1324.8</ele>
        <time>2017-05-06T12:10:04Z</time>
      </trkpt>
      <trkpt lat="38.047115" lon="-2.298860">
        <ele>1324.3</ele>
        <time>2017-05-06T12:10:26Z</time>
      </trkpt>
      <trkpt lat="38.046879" lon="-2.298828">
        <ele>1323.9</ele>
        <time>2017-05-06T12:10:44Z</time>
      </trkpt>
      <trkpt lat="38.046669" lon="-2.298800">
        <ele>1322.9</ele>
        <time>2017-05-06T12:11:01Z</time>
      </trkpt>
      <trkpt lat="38.046441" lon="-2.298738">
        <ele>1321.5</ele>
        <time>2017-05-06T12:11:17Z</time>
      </trkpt>
      <trkpt lat="38.046179" lon="-2.298617">
        <ele>1321.9</ele>
        <time>2017-05-06T12:11:36Z</time>
      </trkpt>
      <trkpt lat="38.046047" lon="-2.298528">
        <ele>1321.0</ele>
        <time>2017-05-06T12:11:46Z</time>
      </trkpt>
      <trkpt lat="38.046036" lon="-2.298519">
        <ele>1321.5</ele>
        <time>2017-05-06T12:11:47Z</time>
      </trkpt>
      <trkpt lat="38.046021" lon="-2.298512">
        <ele>1321.0</ele>
        <time>2017-05-06T12:11:48Z</time>
      </trkpt>
      <trkpt lat="38.045813" lon="-2.298376">
        <ele>1321.0</ele>
        <time>2017-05-06T12:12:04Z</time>
      </trkpt>
      <trkpt lat="38.045590" lon="-2.298186">
        <ele>1320.0</ele>
        <time>2017-05-06T12:12:22Z</time>
      </trkpt>
      <trkpt lat="38.045399" lon="-2.298010">
        <ele>1319.1</ele>
        <time>2017-05-06T12:12:37Z</time>
      </trkpt>
      <trkpt lat="38.045213" lon="-2.297838">
        <ele>1318.6</ele>
        <time>2017-05-06T12:12:54Z</time>
      </trkpt>
      <trkpt lat="38.045018" lon="-2.297664">
        <ele>1317.6</ele>
        <time>2017-05-06T12:13:11Z</time>
      </trkpt>
      <trkpt lat="38.044854" lon="-2.297526">
        <ele>1316.7</ele>
        <time>2017-05-06T12:13:27Z</time>
      </trkpt>
      <trkpt lat="38.044813" lon="-2.297487">
        <ele>1316.2</ele>
        <time>2017-05-06T12:13:31Z</time>
      </trkpt>
      <trkpt lat="38.044804" lon="-2.297476">
        <ele>1316.7</ele>
        <time>2017-05-06T12:13:32Z</time>
      </trkpt>
      <trkpt lat="38.044795" lon="-2.297466">
        <ele>1316.2</ele>
        <time>2017-05-06T12:13:33Z</time>
      </trkpt>
      <trkpt lat="38.044786" lon="-2.297457">
        <ele>1316.2</ele>
        <time>2017-05-06T12:13:34Z</time>
      </trkpt>
      <trkpt lat="38.044776" lon="-2.297447">
        <ele>1316.2</ele>
        <time>2017-05-06T12:13:35Z</time>
      </trkpt>
      <trkpt lat="38.044766" lon="-2.297437">
        <ele>1316.2</ele>
        <time>2017-05-06T12:13:36Z</time>
      </trkpt>
      <trkpt lat="38.044556" lon="-2.297261">
        <ele>1315.7</ele>
        <time>2017-05-06T12:13:55Z</time>
      </trkpt>
      <trkpt lat="38.044512" lon="-2.297233">
        <ele>1315.7</ele>
        <time>2017-05-06T12:13:59Z</time>
      </trkpt>
      <trkpt lat="38.044506" lon="-2.297221">
        <ele>1315.2</ele>
        <time>2017-05-06T12:14:00Z</time>
      </trkpt>
      <trkpt lat="38.044500" lon="-2.297210">
        <ele>1315.7</ele>
        <time>2017-05-06T12:14:01Z</time>
      </trkpt>
      <trkpt lat="38.044492" lon="-2.297200">
        <ele>1315.7</ele>
        <time>2017-05-06T12:14:02Z</time>
      </trkpt>
      <trkpt lat="38.044483" lon="-2.297190">
        <ele>1315.2</ele>
        <time>2017-05-06T12:14:03Z</time>
      </trkpt>
      <trkpt lat="38.044454" lon="-2.297164">
        <ele>1315.7</ele>
        <time>2017-05-06T12:14:06Z</time>
      </trkpt>
      <trkpt lat="38.044446" lon="-2.297152">
        <ele>1315.2</ele>
        <time>2017-05-06T12:14:07Z</time>
      </trkpt>
      <trkpt lat="38.044436" lon="-2.297142">
        <ele>1315.2</ele>
        <time>2017-05-06T12:14:08Z</time>
      </trkpt>
      <trkpt lat="38.044427" lon="-2.297134">
        <ele>1315.2</ele>
        <time>2017-05-06T12:14:09Z</time>
      </trkpt>
      <trkpt lat="38.044417" lon="-2.297129">
        <ele>1315.2</ele>
        <time>2017-05-06T12:14:10Z</time>
      </trkpt>
      <trkpt lat="38.044320" lon="-2.296968">
        <ele>1315.2</ele>
        <time>2017-05-06T12:14:24Z</time>
      </trkpt>
      <trkpt lat="38.044206" lon="-2.296703">
        <ele>1313.8</ele>
        <time>2017-05-06T12:14:41Z</time>
      </trkpt>
      <trkpt lat="38.044109" lon="-2.296459">
        <ele>1312.8</ele>
        <time>2017-05-06T12:15:00Z</time>
      </trkpt>
      <trkpt lat="38.043994" lon="-2.296246">
        <ele>1311.4</ele>
        <time>2017-05-06T12:15:16Z</time>
      </trkpt>
      <trkpt lat="38.043968" lon="-2.296210">
        <ele>1310.9</ele>
        <time>2017-05-06T12:15:20Z</time>
      </trkpt>
      <trkpt lat="38.043864" lon="-2.296058">
        <ele>1309.9</ele>
        <time>2017-05-06T12:15:33Z</time>
      </trkpt>
      <trkpt lat="38.043709" lon="-2.295862">
        <ele>1309.0</ele>
        <time>2017-05-06T12:15:49Z</time>
      </trkpt>
      <trkpt lat="38.043517" lon="-2.295704">
        <ele>1309.0</ele>
        <time>2017-05-06T12:16:07Z</time>
      </trkpt>
      <trkpt lat="38.043357" lon="-2.295625">
        <ele>1309.0</ele>
        <time>2017-05-06T12:16:20Z</time>
      </trkpt>
      <trkpt lat="38.043149" lon="-2.295511">
        <ele>1308.0</ele>
        <time>2017-05-06T12:16:36Z</time>
      </trkpt>
      <trkpt lat="38.042899" lon="-2.295406">
        <ele>1307.1</ele>
        <time>2017-05-06T12:16:55Z</time>
      </trkpt>
      <trkpt lat="38.042609" lon="-2.295278">
        <ele>1307.5</ele>
        <time>2017-05-06T12:17:21Z</time>
      </trkpt>
      <trkpt lat="38.042393" lon="-2.295043">
        <ele>1307.1</ele>
        <time>2017-05-06T12:17:41Z</time>
      </trkpt>
      <trkpt lat="38.042226" lon="-2.294871">
        <ele>1306.1</ele>
        <time>2017-05-06T12:17:57Z</time>
      </trkpt>
      <trkpt lat="38.042036" lon="-2.294627">
        <ele>1305.1</ele>
        <time>2017-05-06T12:18:18Z</time>
      </trkpt>
      <trkpt lat="38.041909" lon="-2.294444">
        <ele>1305.1</ele>
        <time>2017-05-06T12:18:31Z</time>
      </trkpt>
      <trkpt lat="38.041737" lon="-2.294214">
        <ele>1303.7</ele>
        <time>2017-05-06T12:18:48Z</time>
      </trkpt>
      <trkpt lat="38.041554" lon="-2.294048">
        <ele>1304.2</ele>
        <time>2017-05-06T12:19:03Z</time>
      </trkpt>
      <trkpt lat="38.041348" lon="-2.293897">
        <ele>1304.7</ele>
        <time>2017-05-06T12:19:19Z</time>
      </trkpt>
      <trkpt lat="38.041162" lon="-2.293822">
        <ele>1304.2</ele>
        <time>2017-05-06T12:19:35Z</time>
      </trkpt>
      <trkpt lat="38.040890" lon="-2.293737">
        <ele>1304.2</ele>
        <time>2017-05-06T12:19:53Z</time>
      </trkpt>
      <trkpt lat="38.040796" lon="-2.293715">
        <ele>1303.7</ele>
        <time>2017-05-06T12:20:02Z</time>
      </trkpt>
      <trkpt lat="38.040785" lon="-2.293717">
        <ele>1303.7</ele>
        <time>2017-05-06T12:20:03Z</time>
      </trkpt>
      <trkpt lat="38.040777" lon="-2.293715">
        <ele>1303.7</ele>
        <time>2017-05-06T12:20:04Z</time>
      </trkpt>
      <trkpt lat="38.040764" lon="-2.293706">
        <ele>1303.7</ele>
        <time>2017-05-06T12:20:05Z</time>
      </trkpt>
      <trkpt lat="38.040748" lon="-2.293688">
        <ele>1303.7</ele>
        <time>2017-05-06T12:20:06Z</time>
      </trkpt>
      <trkpt lat="38.040732" lon="-2.293675">
        <ele>1303.2</ele>
        <time>2017-05-06T12:20:07Z</time>
      </trkpt>
      <trkpt lat="38.040717" lon="-2.293668">
        <ele>1303.7</ele>
        <time>2017-05-06T12:20:08Z</time>
      </trkpt>
      <trkpt lat="38.040524" lon="-2.293610">
        <ele>1303.2</ele>
        <time>2017-05-06T12:20:22Z</time>
      </trkpt>
      <trkpt lat="38.040381" lon="-2.293552">
        <ele>1302.2</ele>
        <time>2017-05-06T12:20:34Z</time>
      </trkpt>
      <trkpt lat="38.040167" lon="-2.293448">
        <ele>1300.8</ele>
        <time>2017-05-06T12:20:53Z</time>
      </trkpt>
      <trkpt lat="38.039910" lon="-2.293349">
        <ele>1299.8</ele>
        <time>2017-05-06T12:21:14Z</time>
      </trkpt>
      <trkpt lat="38.039646" lon="-2.293236">
        <ele>1300.3</ele>
        <time>2017-05-06T12:21:36Z</time>
      </trkpt>
      <trkpt lat="38.039439" lon="-2.293161">
        <ele>1300.8</ele>
        <time>2017-05-06T12:21:52Z</time>
      </trkpt>
      <trkpt lat="38.039428" lon="-2.293155">
        <ele>1300.8</ele>
        <time>2017-05-06T12:21:53Z</time>
      </trkpt>
      <trkpt lat="38.039233" lon="-2.293072">
        <ele>1299.8</ele>
        <time>2017-05-06T12:22:09Z</time>
      </trkpt>
      <trkpt lat="38.038957" lon="-2.292952">
        <ele>1298.9</ele>
        <time>2017-05-06T12:22:30Z</time>
      </trkpt>
      <trkpt lat="38.038933" lon="-2.292940">
        <ele>1298.9</ele>
        <time>2017-05-06T12:22:32Z</time>
      </trkpt>
      <trkpt lat="38.038922" lon="-2.292932">
        <ele>1298.4</ele>
        <time>2017-05-06T12:22:33Z</time>
      </trkpt>
      <trkpt lat="38.038911" lon="-2.292929">
        <ele>1297.9</ele>
        <time>2017-05-06T12:22:34Z</time>
      </trkpt>
      <trkpt lat="38.038898" lon="-2.292929">
        <ele>1297.9</ele>
        <time>2017-05-06T12:22:35Z</time>
      </trkpt>
      <trkpt lat="38.038885" lon="-2.292924">
        <ele>1297.9</ele>
        <time>2017-05-06T12:22:36Z</time>
      </trkpt>
      <trkpt lat="38.038872" lon="-2.292916">
        <ele>1298.9</ele>
        <time>2017-05-06T12:22:37Z</time>
      </trkpt>
      <trkpt lat="38.038634" lon="-2.292831">
        <ele>1297.4</ele>
        <time>2017-05-06T12:22:55Z</time>
      </trkpt>
      <trkpt lat="38.038478" lon="-2.292774">
        <ele>1297.4</ele>
        <time>2017-05-06T12:23:07Z</time>
      </trkpt>
      <trkpt lat="38.038443" lon="-2.292761">
        <ele>1298.4</ele>
        <time>2017-05-06T12:23:12Z</time>
      </trkpt>
      <trkpt lat="38.038423" lon="-2.292751">
        <ele>1297.4</ele>
        <time>2017-05-06T12:23:15Z</time>
      </trkpt>
      <trkpt lat="38.038410" lon="-2.292744">
        <ele>1297.4</ele>
        <time>2017-05-06T12:23:16Z</time>
      </trkpt>
      <trkpt lat="38.038400" lon="-2.292741">
        <ele>1297.4</ele>
        <time>2017-05-06T12:23:17Z</time>
      </trkpt>
      <trkpt lat="38.038389" lon="-2.292736">
        <ele>1297.4</ele>
        <time>2017-05-06T12:23:18Z</time>
      </trkpt>
      <trkpt lat="38.038377" lon="-2.292734">
        <ele>1297.4</ele>
        <time>2017-05-06T12:23:19Z</time>
      </trkpt>
      <trkpt lat="38.038365" lon="-2.292729">
        <ele>1297.4</ele>
        <time>2017-05-06T12:23:20Z</time>
      </trkpt>
      <trkpt lat="38.038354" lon="-2.292725">
        <ele>1297.4</ele>
        <time>2017-05-06T12:23:21Z</time>
      </trkpt>
      <trkpt lat="38.038164" lon="-2.292641">
        <ele>1297.0</ele>
        <time>2017-05-06T12:23:38Z</time>
      </trkpt>
      <trkpt lat="38.038134" lon="-2.292648">
        <ele>1297.4</ele>
        <time>2017-05-06T12:23:49Z</time>
      </trkpt>
      <trkpt lat="38.038048" lon="-2.292636">
        <ele>1297.4</ele>
        <time>2017-05-06T12:24:00Z</time>
      </trkpt>
      <trkpt lat="38.037905" lon="-2.292585">
        <ele>1297.0</ele>
        <time>2017-05-06T12:24:15Z</time>
      </trkpt>
      <trkpt lat="38.037868" lon="-2.292575">
        <ele>1297.0</ele>
        <time>2017-05-06T12:24:19Z</time>
      </trkpt>
      <trkpt lat="38.037854" lon="-2.292571">
        <ele>1297.0</ele>
        <time>2017-05-06T12:24:20Z</time>
      </trkpt>
      <trkpt lat="38.037665" lon="-2.292508">
        <ele>1296.5</ele>
        <time>2017-05-06T12:24:36Z</time>
      </trkpt>
      <trkpt lat="38.037569" lon="-2.292456">
        <ele>1296.0</ele>
        <time>2017-05-06T12:24:47Z</time>
      </trkpt>
      <trkpt lat="38.037560" lon="-2.292451">
        <ele>1296.0</ele>
        <time>2017-05-06T12:24:48Z</time>
      </trkpt>
      <trkpt lat="38.037502" lon="-2.292378">
        <ele>1296.0</ele>
        <time>2017-05-06T12:24:57Z</time>
      </trkpt>
      <trkpt lat="38.037474" lon="-2.292377">
        <ele>1295.5</ele>
        <time>2017-05-06T12:25:03Z</time>
      </trkpt>
      <trkpt lat="38.037464" lon="-2.292368">
        <ele>1295.5</ele>
        <time>2017-05-06T12:25:04Z</time>
      </trkpt>
      <trkpt lat="38.037452" lon="-2.292359">
        <ele>1295.5</ele>
        <time>2017-05-06T12:25:05Z</time>
      </trkpt>
      <trkpt lat="38.037440" lon="-2.292347">
        <ele>1295.5</ele>
        <time>2017-05-06T12:25:06Z</time>
      </trkpt>
      <trkpt lat="38.037428" lon="-2.292331">
        <ele>1295.5</ele>
        <time>2017-05-06T12:25:07Z</time>
      </trkpt>
      <trkpt lat="38.037415" lon="-2.292323">
        <ele>1296.0</ele>
        <time>2017-05-06T12:25:08Z</time>
      </trkpt>
      <trkpt lat="38.037190" lon="-2.292138">
        <ele>1294.6</ele>
        <time>2017-05-06T12:25:26Z</time>
      </trkpt>
      <trkpt lat="38.037182" lon="-2.292135">
        <ele>1294.6</ele>
        <time>2017-05-06T12:25:27Z</time>
      </trkpt>
      <trkpt lat="38.037169" lon="-2.292126">
        <ele>1294.1</ele>
        <time>2017-05-06T12:25:28Z</time>
      </trkpt>
      <trkpt lat="38.036983" lon="-2.291982">
        <ele>1293.6</ele>
        <time>2017-05-06T12:25:44Z</time>
      </trkpt>
      <trkpt lat="38.036978" lon="-2.291996">
        <ele>1293.1</ele>
        <time>2017-05-06T12:25:57Z</time>
      </trkpt>
      <trkpt lat="38.036964" lon="-2.291988">
        <ele>1292.6</ele>
        <time>2017-05-06T12:25:58Z</time>
      </trkpt>
      <trkpt lat="38.036950" lon="-2.291977">
        <ele>1293.1</ele>
        <time>2017-05-06T12:25:59Z</time>
      </trkpt>
      <trkpt lat="38.036935" lon="-2.291965">
        <ele>1293.1</ele>
        <time>2017-05-06T12:26:00Z</time>
      </trkpt>
      <trkpt lat="38.036920" lon="-2.291958">
        <ele>1293.1</ele>
        <time>2017-05-06T12:26:01Z</time>
      </trkpt>
      <trkpt lat="38.036868" lon="-2.291931">
        <ele>1293.1</ele>
        <time>2017-05-06T12:26:12Z</time>
      </trkpt>
      <trkpt lat="38.036755" lon="-2.291852">
        <ele>1292.2</ele>
        <time>2017-05-06T12:26:25Z</time>
      </trkpt>
      <trkpt lat="38.036701" lon="-2.291805">
        <ele>1292.6</ele>
        <time>2017-05-06T12:26:30Z</time>
      </trkpt>
      <trkpt lat="38.036545" lon="-2.291692">
        <ele>1292.6</ele>
        <time>2017-05-06T12:26:43Z</time>
      </trkpt>
      <trkpt lat="38.036520" lon="-2.291673">
        <ele>1292.2</ele>
        <time>2017-05-06T12:26:45Z</time>
      </trkpt>
      <trkpt lat="38.036507" lon="-2.291660">
        <ele>1292.6</ele>
        <time>2017-05-06T12:26:46Z</time>
      </trkpt>
      <trkpt lat="38.036497" lon="-2.291649">
        <ele>1292.6</ele>
        <time>2017-05-06T12:26:47Z</time>
      </trkpt>
      <trkpt lat="38.036487" lon="-2.291641">
        <ele>1292.2</ele>
        <time>2017-05-06T12:26:48Z</time>
      </trkpt>
      <trkpt lat="38.036476" lon="-2.291636">
        <ele>1291.7</ele>
        <time>2017-05-06T12:26:49Z</time>
      </trkpt>
      <trkpt lat="38.036467" lon="-2.291627">
        <ele>1292.2</ele>
        <time>2017-05-06T12:26:50Z</time>
      </trkpt>
      <trkpt lat="38.036456" lon="-2.291617">
        <ele>1292.2</ele>
        <time>2017-05-06T12:26:51Z</time>
      </trkpt>
      <trkpt lat="38.036445" lon="-2.291608">
        <ele>1291.7</ele>
        <time>2017-05-06T12:26:52Z</time>
      </trkpt>
      <trkpt lat="38.036386" lon="-2.291580">
        <ele>1291.7</ele>
        <time>2017-05-06T12:27:05Z</time>
      </trkpt>
      <trkpt lat="38.036301" lon="-2.291527">
        <ele>1291.2</ele>
        <time>2017-05-06T12:27:12Z</time>
      </trkpt>
      <trkpt lat="38.036286" lon="-2.291525">
        <ele>1291.2</ele>
        <time>2017-05-06T12:27:13Z</time>
      </trkpt>
      <trkpt lat="38.036273" lon="-2.291521">
        <ele>1291.2</ele>
        <time>2017-05-06T12:27:14Z</time>
      </trkpt>
      <trkpt lat="38.036259" lon="-2.291519">
        <ele>1291.2</ele>
        <time>2017-05-06T12:27:15Z</time>
      </trkpt>
      <trkpt lat="38.036239" lon="-2.291513">
        <ele>1291.2</ele>
        <time>2017-05-06T12:27:17Z</time>
      </trkpt>
      <trkpt lat="38.036231" lon="-2.291503">
        <ele>1291.7</ele>
        <time>2017-05-06T12:27:18Z</time>
      </trkpt>
      <trkpt lat="38.036224" lon="-2.291484">
        <ele>1291.2</ele>
        <time>2017-05-06T12:27:19Z</time>
      </trkpt>
      <trkpt lat="38.036213" lon="-2.291467">
        <ele>1291.2</ele>
        <time>2017-05-06T12:27:20Z</time>
      </trkpt>
      <trkpt lat="38.036199" lon="-2.291452">
        <ele>1290.7</ele>
        <time>2017-05-06T12:27:21Z</time>
      </trkpt>
      <trkpt lat="38.036187" lon="-2.291443">
        <ele>1290.7</ele>
        <time>2017-05-06T12:27:22Z</time>
      </trkpt>
      <trkpt lat="38.036174" lon="-2.291436">
        <ele>1290.7</ele>
        <time>2017-05-06T12:27:23Z</time>
      </trkpt>
      <trkpt lat="38.036163" lon="-2.291430">
        <ele>1291.2</ele>
        <time>2017-05-06T12:27:24Z</time>
      </trkpt>
      <trkpt lat="38.036086" lon="-2.291378">
        <ele>1291.2</ele>
        <time>2017-05-06T12:27:32Z</time>
      </trkpt>
      <trkpt lat="38.036055" lon="-2.291336">
        <ele>1290.7</ele>
        <time>2017-05-06T12:27:37Z</time>
      </trkpt>
      <trkpt lat="38.036046" lon="-2.291325">
        <ele>1290.7</ele>
        <time>2017-05-06T12:27:38Z</time>
      </trkpt>
      <trkpt lat="38.036036" lon="-2.291313">
        <ele>1290.7</ele>
        <time>2017-05-06T12:27:39Z</time>
      </trkpt>
      <trkpt lat="38.036025" lon="-2.291302">
        <ele>1290.7</ele>
        <time>2017-05-06T12:27:40Z</time>
      </trkpt>
      <trkpt lat="38.036015" lon="-2.291295">
        <ele>1290.2</ele>
        <time>2017-05-06T12:27:41Z</time>
      </trkpt>
      <trkpt lat="38.036003" lon="-2.291286">
        <ele>1290.2</ele>
        <time>2017-05-06T12:27:42Z</time>
      </trkpt>
      <trkpt lat="38.035993" lon="-2.291276">
        <ele>1290.7</ele>
        <time>2017-05-06T12:27:43Z</time>
      </trkpt>
      <trkpt lat="38.035981" lon="-2.291269">
        <ele>1290.7</ele>
        <time>2017-05-06T12:27:44Z</time>
      </trkpt>
      <trkpt lat="38.035969" lon="-2.291263">
        <ele>1290.7</ele>
        <time>2017-05-06T12:27:45Z</time>
      </trkpt>
      <trkpt lat="38.035909" lon="-2.291240">
        <ele>1291.2</ele>
        <time>2017-05-06T12:27:51Z</time>
      </trkpt>
      <trkpt lat="38.035894" lon="-2.291236">
        <ele>1290.2</ele>
        <time>2017-05-06T12:27:52Z</time>
      </trkpt>
      <trkpt lat="38.035881" lon="-2.291234">
        <ele>1290.7</ele>
        <time>2017-05-06T12:27:53Z</time>
      </trkpt>
      <trkpt lat="38.035857" lon="-2.291222">
        <ele>1291.2</ele>
        <time>2017-05-06T12:27:56Z</time>
      </trkpt>
      <trkpt lat="38.035769" lon="-2.291136">
        <ele>1290.7</ele>
        <time>2017-05-06T12:28:07Z</time>
      </trkpt>
      <trkpt lat="38.035700" lon="-2.291104">
        <ele>1291.2</ele>
        <time>2017-05-06T12:28:19Z</time>
      </trkpt>
      <trkpt lat="38.035567" lon="-2.290961">
        <ele>1290.2</ele>
        <time>2017-05-06T12:28:34Z</time>
      </trkpt>
      <trkpt lat="38.035394" lon="-2.290822">
        <ele>1289.3</ele>
        <time>2017-05-06T12:28:49Z</time>
      </trkpt>
      <trkpt lat="38.035176" lon="-2.290662">
        <ele>1288.3</ele>
        <time>2017-05-06T12:29:10Z</time>
      </trkpt>
      <trkpt lat="38.034897" lon="-2.290373">
        <ele>1287.8</ele>
        <time>2017-05-06T12:29:36Z</time>
      </trkpt>
      <trkpt lat="38.034663" lon="-2.290194">
        <ele>1287.3</ele>
        <time>2017-05-06T12:29:59Z</time>
      </trkpt>
      <trkpt lat="38.034358" lon="-2.289937">
        <ele>1286.9</ele>
        <time>2017-05-06T12:30:25Z</time>
      </trkpt>
      <trkpt lat="38.034036" lon="-2.289654">
        <ele>1286.9</ele>
        <time>2017-05-06T12:30:52Z</time>
      </trkpt>
      <trkpt lat="38.033710" lon="-2.289388">
        <ele>1286.4</ele>
        <time>2017-05-06T12:31:20Z</time>
      </trkpt>
      <trkpt lat="38.033523" lon="-2.289208">
        <ele>1285.4</ele>
        <time>2017-05-06T12:31:38Z</time>
      </trkpt>
      <trkpt lat="38.033477" lon="-2.289157">
        <ele>1284.9</ele>
        <time>2017-05-06T12:31:52Z</time>
      </trkpt>
      <trkpt lat="38.033344" lon="-2.289044">
        <ele>1284.9</ele>
        <time>2017-05-06T12:32:09Z</time>
      </trkpt>
      <trkpt lat="38.033138" lon="-2.288853">
        <ele>1284.5</ele>
        <time>2017-05-06T12:32:29Z</time>
      </trkpt>
      <trkpt lat="38.032871" lon="-2.288595">
        <ele>1284.0</ele>
        <time>2017-05-06T12:32:54Z</time>
      </trkpt>
      <trkpt lat="38.032705" lon="-2.288420">
        <ele>1283.0</ele>
        <time>2017-05-06T12:33:15Z</time>
      </trkpt>
      <trkpt lat="38.032498" lon="-2.288197">
        <ele>1283.0</ele>
        <time>2017-05-06T12:33:32Z</time>
      </trkpt>
      <trkpt lat="38.032264" lon="-2.287888">
        <ele>1282.5</ele>
        <time>2017-05-06T12:33:56Z</time>
      </trkpt>
      <trkpt lat="38.032197" lon="-2.287500">
        <ele>1282.1</ele>
        <time>2017-05-06T12:34:19Z</time>
      </trkpt>
      <trkpt lat="38.032160" lon="-2.287095">
        <ele>1281.1</ele>
        <time>2017-05-06T12:34:43Z</time>
      </trkpt>
      <trkpt lat="38.032113" lon="-2.286702">
        <ele>1280.6</ele>
        <time>2017-05-06T12:35:06Z</time>
      </trkpt>
      <trkpt lat="38.031979" lon="-2.286233">
        <ele>1281.1</ele>
        <time>2017-05-06T12:35:34Z</time>
      </trkpt>
      <trkpt lat="38.031872" lon="-2.285964">
        <ele>1281.1</ele>
        <time>2017-05-06T12:35:50Z</time>
      </trkpt>
      <trkpt lat="38.031756" lon="-2.285694">
        <ele>1280.6</ele>
        <time>2017-05-06T12:36:06Z</time>
      </trkpt>
      <trkpt lat="38.031692" lon="-2.285443">
        <ele>1281.6</ele>
        <time>2017-05-06T12:36:21Z</time>
      </trkpt>
      <trkpt lat="38.031623" lon="-2.285161">
        <ele>1281.1</ele>
        <time>2017-05-06T12:36:38Z</time>
      </trkpt>
      <trkpt lat="38.031554" lon="-2.284830">
        <ele>1280.6</ele>
        <time>2017-05-06T12:36:56Z</time>
      </trkpt>
      <trkpt lat="38.031525" lon="-2.284747">
        <ele>1280.6</ele>
        <time>2017-05-06T12:37:01Z</time>
      </trkpt>
      <trkpt lat="38.031524" lon="-2.284731">
        <ele>1280.6</ele>
        <time>2017-05-06T12:37:02Z</time>
      </trkpt>
      <trkpt lat="38.031430" lon="-2.284421">
        <ele>1282.1</ele>
        <time>2017-05-06T12:37:21Z</time>
      </trkpt>
      <trkpt lat="38.031425" lon="-2.284388">
        <ele>1281.1</ele>
        <time>2017-05-06T12:37:23Z</time>
      </trkpt>
      <trkpt lat="38.031363" lon="-2.284073">
        <ele>1280.6</ele>
        <time>2017-05-06T12:37:40Z</time>
      </trkpt>
      <trkpt lat="38.031324" lon="-2.283757">
        <ele>1280.6</ele>
        <time>2017-05-06T12:37:57Z</time>
      </trkpt>
      <trkpt lat="38.031263" lon="-2.283465">
        <ele>1280.1</ele>
        <time>2017-05-06T12:38:13Z</time>
      </trkpt>
      <trkpt lat="38.031223" lon="-2.283353">
        <ele>1279.7</ele>
        <time>2017-05-06T12:38:27Z</time>
      </trkpt>
      <trkpt lat="38.031217" lon="-2.283339">
        <ele>1280.1</ele>
        <time>2017-05-06T12:38:32Z</time>
      </trkpt>
      <trkpt lat="38.031213" lon="-2.283325">
        <ele>1279.2</ele>
        <time>2017-05-06T12:38:33Z</time>
      </trkpt>
      <trkpt lat="38.031208" lon="-2.283310">
        <ele>1279.2</ele>
        <time>2017-05-06T12:38:34Z</time>
      </trkpt>
      <trkpt lat="38.031203" lon="-2.283293">
        <ele>1279.7</ele>
        <time>2017-05-06T12:38:35Z</time>
      </trkpt>
      <trkpt lat="38.031198" lon="-2.283276">
        <ele>1279.7</ele>
        <time>2017-05-06T12:38:36Z</time>
      </trkpt>
      <trkpt lat="38.031163" lon="-2.283094">
        <ele>1279.2</ele>
        <time>2017-05-06T12:38:50Z</time>
      </trkpt>
      <trkpt lat="38.031161" lon="-2.282855">
        <ele>1278.7</ele>
        <time>2017-05-06T12:39:06Z</time>
      </trkpt>
      <trkpt lat="38.031157" lon="-2.282838">
        <ele>1278.7</ele>
        <time>2017-05-06T12:39:07Z</time>
      </trkpt>
      <trkpt lat="38.031142" lon="-2.282740">
        <ele>1278.7</ele>
        <time>2017-05-06T12:39:13Z</time>
      </trkpt>
      <trkpt lat="38.031138" lon="-2.282725">
        <ele>1279.2</ele>
        <time>2017-05-06T12:39:14Z</time>
      </trkpt>
      <trkpt lat="38.031134" lon="-2.282709">
        <ele>1279.7</ele>
        <time>2017-05-06T12:39:15Z</time>
      </trkpt>
      <trkpt lat="38.031127" lon="-2.282693">
        <ele>1279.2</ele>
        <time>2017-05-06T12:39:16Z</time>
      </trkpt>
      <trkpt lat="38.031121" lon="-2.282677">
        <ele>1279.2</ele>
        <time>2017-05-06T12:39:17Z</time>
      </trkpt>
      <trkpt lat="38.031117" lon="-2.282660">
        <ele>1278.7</ele>
        <time>2017-05-06T12:39:18Z</time>
      </trkpt>
      <trkpt lat="38.031079" lon="-2.282567">
        <ele>1278.7</ele>
        <time>2017-05-06T12:39:28Z</time>
      </trkpt>
      <trkpt lat="38.031074" lon="-2.282555">
        <ele>1278.7</ele>
        <time>2017-05-06T12:39:29Z</time>
      </trkpt>
      <trkpt lat="38.031044" lon="-2.282421">
        <ele>1279.2</ele>
        <time>2017-05-06T12:39:40Z</time>
      </trkpt>
      <trkpt lat="38.031039" lon="-2.282404">
        <ele>1279.2</ele>
        <time>2017-05-06T12:39:41Z</time>
      </trkpt>
      <trkpt lat="38.031033" lon="-2.282386">
        <ele>1278.7</ele>
        <time>2017-05-06T12:39:42Z</time>
      </trkpt>
      <trkpt lat="38.030980" lon="-2.282174">
        <ele>1279.2</ele>
        <time>2017-05-06T12:40:08Z</time>
      </trkpt>
      <trkpt lat="38.030977" lon="-2.282152">
        <ele>1279.7</ele>
        <time>2017-05-06T12:40:09Z</time>
      </trkpt>
      <trkpt lat="38.030938" lon="-2.281923">
        <ele>1278.7</ele>
        <time>2017-05-06T12:40:21Z</time>
      </trkpt>
      <trkpt lat="38.030908" lon="-2.281914">
        <ele>1278.7</ele>
        <time>2017-05-06T12:40:48Z</time>
      </trkpt>
      <trkpt lat="38.030900" lon="-2.281900">
        <ele>1278.7</ele>
        <time>2017-05-06T12:40:49Z</time>
      </trkpt>
      <trkpt lat="38.030889" lon="-2.281887">
        <ele>1277.7</ele>
        <time>2017-05-06T12:40:50Z</time>
      </trkpt>
      <trkpt lat="38.030767" lon="-2.281706">
        <ele>1277.7</ele>
        <time>2017-05-06T12:41:05Z</time>
      </trkpt>
      <trkpt lat="38.030679" lon="-2.281521">
        <ele>1276.8</ele>
        <time>2017-05-06T12:41:21Z</time>
      </trkpt>
      <trkpt lat="38.030545" lon="-2.281237">
        <ele>1276.3</ele>
        <time>2017-05-06T12:42:17Z</time>
      </trkpt>
      <trkpt lat="38.030464" lon="-2.281131">
        <ele>1276.3</ele>
        <time>2017-05-06T12:42:29Z</time>
      </trkpt>
      <trkpt lat="38.030479" lon="-2.281024">
        <ele>1275.8</ele>
        <time>2017-05-06T12:42:36Z</time>
      </trkpt>
      <trkpt lat="38.030509" lon="-2.280866">
        <ele>1275.8</ele>
        <time>2017-05-06T12:42:48Z</time>
      </trkpt>
      <trkpt lat="38.030523" lon="-2.280789">
        <ele>1276.8</ele>
        <time>2017-05-06T12:42:55Z</time>
      </trkpt>
      <trkpt lat="38.030520" lon="-2.280742">
        <ele>1276.8</ele>
        <time>2017-05-06T12:42:58Z</time>
      </trkpt>
      <trkpt lat="38.030535" lon="-2.280662">
        <ele>1276.8</ele>
        <time>2017-05-06T12:43:04Z</time>
      </trkpt>
      <trkpt lat="38.030540" lon="-2.280452">
        <ele>1276.8</ele>
        <time>2017-05-06T12:43:17Z</time>
      </trkpt>
      <trkpt lat="38.030509" lon="-2.280414">
        <ele>1275.8</ele>
        <time>2017-05-06T13:01:13Z</time>
      </trkpt>
      <trkpt lat="38.030341" lon="-2.280360">
        <ele>1274.8</ele>
        <time>2017-05-06T13:01:29Z</time>
      </trkpt>
      <trkpt lat="38.030324" lon="-2.280351">
        <ele>1274.8</ele>
        <time>2017-05-06T13:01:44Z</time>
      </trkpt>
      <trkpt lat="38.030282" lon="-2.280322">
        <ele>1273.4</ele>
        <time>2017-05-06T13:01:56Z</time>
      </trkpt>
      <trkpt lat="38.030281" lon="-2.280330">
        <ele>1273.4</ele>
        <time>2017-05-06T13:02:11Z</time>
      </trkpt>
      <trkpt lat="38.030278" lon="-2.280283">
        <ele>1273.4</ele>
        <time>2017-05-06T13:02:25Z</time>
      </trkpt>
      <trkpt lat="38.030271" lon="-2.280249">
        <ele>1272.9</ele>
        <time>2017-05-06T13:02:28Z</time>
      </trkpt>
      <trkpt lat="38.030268" lon="-2.280216">
        <ele>1272.4</ele>
        <time>2017-05-06T13:02:32Z</time>
      </trkpt>
      <trkpt lat="38.030254" lon="-2.280192">
        <ele>1272.9</ele>
        <time>2017-05-06T13:02:34Z</time>
      </trkpt>
      <trkpt lat="38.030238" lon="-2.280177">
        <ele>1272.9</ele>
        <time>2017-05-06T13:02:36Z</time>
      </trkpt>
      <trkpt lat="38.030167" lon="-2.279999">
        <ele>1272.4</ele>
        <time>2017-05-06T13:02:49Z</time>
      </trkpt>
      <trkpt lat="38.029982" lon="-2.279997">
        <ele>1271.0</ele>
        <time>2017-05-06T13:03:04Z</time>
      </trkpt>
      <trkpt lat="38.029699" lon="-2.280085">
        <ele>1268.6</ele>
        <time>2017-05-06T13:03:26Z</time>
      </trkpt>
      <trkpt lat="38.029539" lon="-2.280288">
        <ele>1267.6</ele>
        <time>2017-05-06T13:03:42Z</time>
      </trkpt>
      <trkpt lat="38.029415" lon="-2.280473">
        <ele>1266.7</ele>
        <time>2017-05-06T13:03:56Z</time>
      </trkpt>
      <trkpt lat="38.029276" lon="-2.280620">
        <ele>1265.7</ele>
        <time>2017-05-06T13:04:13Z</time>
      </trkpt>
      <trkpt lat="38.029269" lon="-2.280625">
        <ele>1265.7</ele>
        <time>2017-05-06T13:04:14Z</time>
      </trkpt>
      <trkpt lat="38.029263" lon="-2.280635">
        <ele>1265.7</ele>
        <time>2017-05-06T13:04:15Z</time>
      </trkpt>
      <trkpt lat="38.029238" lon="-2.280663">
        <ele>1266.2</ele>
        <time>2017-05-06T13:04:26Z</time>
      </trkpt>
      <trkpt lat="38.029226" lon="-2.280670">
        <ele>1265.7</ele>
        <time>2017-05-06T13:04:27Z</time>
      </trkpt>
      <trkpt lat="38.029047" lon="-2.280849">
        <ele>1264.8</ele>
        <time>2017-05-06T13:04:44Z</time>
      </trkpt>
      <trkpt lat="38.029019" lon="-2.280879">
        <ele>1263.3</ele>
        <time>2017-05-06T13:04:47Z</time>
      </trkpt>
      <trkpt lat="38.029005" lon="-2.280903">
        <ele>1267.6</ele>
        <time>2017-05-06T13:04:49Z</time>
      </trkpt>
      <trkpt lat="38.028994" lon="-2.280907">
        <ele>1265.2</ele>
        <time>2017-05-06T13:04:50Z</time>
      </trkpt>
      <trkpt lat="38.028982" lon="-2.280914">
        <ele>1264.8</ele>
        <time>2017-05-06T13:04:51Z</time>
      </trkpt>
      <trkpt lat="38.028970" lon="-2.280934">
        <ele>1264.8</ele>
        <time>2017-05-06T13:04:53Z</time>
      </trkpt>
      <trkpt lat="38.028965" lon="-2.280956">
        <ele>1264.8</ele>
        <time>2017-05-06T13:04:54Z</time>
      </trkpt>
      <trkpt lat="38.028924" lon="-2.280992">
        <ele>1264.8</ele>
        <time>2017-05-06T13:04:58Z</time>
      </trkpt>
      <trkpt lat="38.028911" lon="-2.281004">
        <ele>1264.8</ele>
        <time>2017-05-06T13:04:59Z</time>
      </trkpt>
      <trkpt lat="38.028900" lon="-2.281017">
        <ele>1263.8</ele>
        <time>2017-05-06T13:05:00Z</time>
      </trkpt>
      <trkpt lat="38.028888" lon="-2.281032">
        <ele>1264.3</ele>
        <time>2017-05-06T13:05:01Z</time>
      </trkpt>
      <trkpt lat="38.028876" lon="-2.281045">
        <ele>1264.3</ele>
        <time>2017-05-06T13:05:02Z</time>
      </trkpt>
      <trkpt lat="38.028865" lon="-2.281055">
        <ele>1264.3</ele>
        <time>2017-05-06T13:05:03Z</time>
      </trkpt>
      <trkpt lat="38.028855" lon="-2.281061">
        <ele>1264.3</ele>
        <time>2017-05-06T13:05:04Z</time>
      </trkpt>
      <trkpt lat="38.028847" lon="-2.281065">
        <ele>1264.3</ele>
        <time>2017-05-06T13:05:05Z</time>
      </trkpt>
      <trkpt lat="38.028837" lon="-2.281075">
        <ele>1264.3</ele>
        <time>2017-05-06T13:05:06Z</time>
      </trkpt>
      <trkpt lat="38.028723" lon="-2.281188">
        <ele>1262.8</ele>
        <time>2017-05-06T13:05:19Z</time>
      </trkpt>
      <trkpt lat="38.028728" lon="-2.281183">
        <ele>1262.8</ele>
        <time>2017-05-06T13:05:53Z</time>
      </trkpt>
      <trkpt lat="38.028696" lon="-2.281219">
        <ele>1264.3</ele>
        <time>2017-05-06T13:05:57Z</time>
      </trkpt>
      <trkpt lat="38.028683" lon="-2.281232">
        <ele>1263.8</ele>
        <time>2017-05-06T13:05:58Z</time>
      </trkpt>
      <trkpt lat="38.028670" lon="-2.281247">
        <ele>1263.8</ele>
        <time>2017-05-06T13:05:59Z</time>
      </trkpt>
      <trkpt lat="38.028600" lon="-2.281338">
        <ele>1259.9</ele>
        <time>2017-05-06T13:06:05Z</time>
      </trkpt>
      <trkpt lat="38.028588" lon="-2.281349">
        <ele>1264.8</ele>
        <time>2017-05-06T13:06:06Z</time>
      </trkpt>
      <trkpt lat="38.028577" lon="-2.281360">
        <ele>1259.5</ele>
        <time>2017-05-06T13:06:07Z</time>
      </trkpt>
      <trkpt lat="38.028567" lon="-2.281372">
        <ele>1263.8</ele>
        <time>2017-05-06T13:06:08Z</time>
      </trkpt>
      <trkpt lat="38.028557" lon="-2.281381">
        <ele>1267.6</ele>
        <time>2017-05-06T13:06:09Z</time>
      </trkpt>
      <trkpt lat="38.028546" lon="-2.281389">
        <ele>1259.9</ele>
        <time>2017-05-06T13:06:10Z</time>
      </trkpt>
      <trkpt lat="38.028525" lon="-2.281411">
        <ele>1264.8</ele>
        <time>2017-05-06T13:06:12Z</time>
      </trkpt>
      <trkpt lat="38.028514" lon="-2.281421">
        <ele>1264.8</ele>
        <time>2017-05-06T13:06:13Z</time>
      </trkpt>
      <trkpt lat="38.028470" lon="-2.281460">
        <ele>1257.1</ele>
        <time>2017-05-06T13:06:17Z</time>
      </trkpt>
      <trkpt lat="38.028457" lon="-2.281472">
        <ele>1262.3</ele>
        <time>2017-05-06T13:06:18Z</time>
      </trkpt>
      <trkpt lat="38.028436" lon="-2.281493">
        <ele>1266.7</ele>
        <time>2017-05-06T13:06:20Z</time>
      </trkpt>
      <trkpt lat="38.028427" lon="-2.281505">
        <ele>1265.7</ele>
        <time>2017-05-06T13:06:21Z</time>
      </trkpt>
      <trkpt lat="38.028417" lon="-2.281516">
        <ele>1262.3</ele>
        <time>2017-05-06T13:06:22Z</time>
      </trkpt>
      <trkpt lat="38.028407" lon="-2.281527">
        <ele>1262.8</ele>
        <time>2017-05-06T13:06:23Z</time>
      </trkpt>
      <trkpt lat="38.028265" lon="-2.281653">
        <ele>1262.3</ele>
        <time>2017-05-06T13:06:37Z</time>
      </trkpt>
      <trkpt lat="38.028218" lon="-2.281703">
        <ele>1261.9</ele>
        <time>2017-05-06T13:06:49Z</time>
      </trkpt>
      <trkpt lat="38.028173" lon="-2.281726">
        <ele>1261.9</ele>
        <time>2017-05-06T13:07:08Z</time>
      </trkpt>
      <trkpt lat="38.027989" lon="-2.281897">
        <ele>1261.4</ele>
        <time>2017-05-06T13:07:23Z</time>
      </trkpt>
      <trkpt lat="38.027808" lon="-2.282064">
        <ele>1260.4</ele>
        <time>2017-05-06T13:07:38Z</time>
      </trkpt>
      <trkpt lat="38.027626" lon="-2.282210">
        <ele>1259.5</ele>
        <time>2017-05-06T13:07:53Z</time>
      </trkpt>
      <trkpt lat="38.027409" lon="-2.282391">
        <ele>1258.5</ele>
        <time>2017-05-06T13:08:10Z</time>
      </trkpt>
      <trkpt lat="38.027170" lon="-2.282588">
        <ele>1257.1</ele>
        <time>2017-05-06T13:08:30Z</time>
      </trkpt>
      <trkpt lat="38.026955" lon="-2.282756">
        <ele>1256.6</ele>
        <time>2017-05-06T13:08:47Z</time>
      </trkpt>
      <trkpt lat="38.026759" lon="-2.282875">
        <ele>1256.6</ele>
        <time>2017-05-06T13:09:01Z</time>
      </trkpt>
      <trkpt lat="38.026574" lon="-2.283049">
        <ele>1255.6</ele>
        <time>2017-05-06T13:09:17Z</time>
      </trkpt>
      <trkpt lat="38.026357" lon="-2.283225">
        <ele>1255.1</ele>
        <time>2017-05-06T13:09:35Z</time>
      </trkpt>
      <trkpt lat="38.026143" lon="-2.283404">
        <ele>1254.7</ele>
        <time>2017-05-06T13:09:51Z</time>
      </trkpt>
      <trkpt lat="38.025934" lon="-2.283584">
        <ele>1254.2</ele>
        <time>2017-05-06T13:10:08Z</time>
      </trkpt>
      <trkpt lat="38.025789" lon="-2.283737">
        <ele>1254.2</ele>
        <time>2017-05-06T13:10:22Z</time>
      </trkpt>
      <trkpt lat="38.025722" lon="-2.283802">
        <ele>1254.7</ele>
        <time>2017-05-06T13:10:29Z</time>
      </trkpt>
      <trkpt lat="38.025712" lon="-2.283812">
        <ele>1254.7</ele>
        <time>2017-05-06T13:10:30Z</time>
      </trkpt>
      <trkpt lat="38.025540" lon="-2.283946">
        <ele>1253.7</ele>
        <time>2017-05-06T13:10:47Z</time>
      </trkpt>
      <trkpt lat="38.025434" lon="-2.284059">
        <ele>1253.7</ele>
        <time>2017-05-06T13:11:00Z</time>
      </trkpt>
      <trkpt lat="38.025296" lon="-2.284190">
        <ele>1253.7</ele>
        <time>2017-05-06T13:11:14Z</time>
      </trkpt>
      <trkpt lat="38.025111" lon="-2.284336">
        <ele>1253.7</ele>
        <time>2017-05-06T13:11:32Z</time>
      </trkpt>
      <trkpt lat="38.024973" lon="-2.284442">
        <ele>1252.7</ele>
        <time>2017-05-06T13:11:45Z</time>
      </trkpt>
      <trkpt lat="38.024962" lon="-2.284452">
        <ele>1253.2</ele>
        <time>2017-05-06T13:11:46Z</time>
      </trkpt>
      <trkpt lat="38.024954" lon="-2.284464">
        <ele>1253.2</ele>
        <time>2017-05-06T13:11:47Z</time>
      </trkpt>
      <trkpt lat="38.024944" lon="-2.284475">
        <ele>1252.7</ele>
        <time>2017-05-06T13:11:48Z</time>
      </trkpt>
      <trkpt lat="38.024933" lon="-2.284486">
        <ele>1252.7</ele>
        <time>2017-05-06T13:11:49Z</time>
      </trkpt>
      <trkpt lat="38.024923" lon="-2.284497">
        <ele>1252.7</ele>
        <time>2017-05-06T13:11:50Z</time>
      </trkpt>
      <trkpt lat="38.024914" lon="-2.284504">
        <ele>1253.2</ele>
        <time>2017-05-06T13:11:51Z</time>
      </trkpt>
      <trkpt lat="38.024735" lon="-2.284631">
        <ele>1253.2</ele>
        <time>2017-05-06T13:12:08Z</time>
      </trkpt>
      <trkpt lat="38.024571" lon="-2.284758">
        <ele>1252.7</ele>
        <time>2017-05-06T13:12:23Z</time>
      </trkpt>
      <trkpt lat="38.024412" lon="-2.284878">
        <ele>1252.2</ele>
        <time>2017-05-06T13:12:38Z</time>
      </trkpt>
      <trkpt lat="38.024253" lon="-2.285013">
        <ele>1252.7</ele>
        <time>2017-05-06T13:12:52Z</time>
      </trkpt>
      <trkpt lat="38.024154" lon="-2.285136">
        <ele>1252.7</ele>
        <time>2017-05-06T13:13:05Z</time>
      </trkpt>
      <trkpt lat="38.024143" lon="-2.285149">
        <ele>1251.8</ele>
        <time>2017-05-06T13:13:06Z</time>
      </trkpt>
      <trkpt lat="38.024017" lon="-2.285275">
        <ele>1252.2</ele>
        <time>2017-05-06T13:13:31Z</time>
      </trkpt>
      <trkpt lat="38.023675" lon="-2.285666">
        <ele>1249.4</ele>
        <time>2017-05-06T13:14:22Z</time>
      </trkpt>
      <trkpt lat="38.023642" lon="-2.285742">
        <ele>1249.8</ele>
        <time>2017-05-06T13:14:26Z</time>
      </trkpt>
      <trkpt lat="38.023632" lon="-2.285755">
        <ele>1249.8</ele>
        <time>2017-05-06T13:14:27Z</time>
      </trkpt>
      <trkpt lat="38.023623" lon="-2.285763">
        <ele>1249.8</ele>
        <time>2017-05-06T13:14:28Z</time>
      </trkpt>
      <trkpt lat="38.023600" lon="-2.285793">
        <ele>1249.4</ele>
        <time>2017-05-06T13:14:37Z</time>
      </trkpt>
      <trkpt lat="38.023428" lon="-2.286127">
        <ele>1249.8</ele>
        <time>2017-05-06T13:14:58Z</time>
      </trkpt>
      <trkpt lat="38.023304" lon="-2.286335">
        <ele>1250.3</ele>
        <time>2017-05-06T13:15:18Z</time>
      </trkpt>
      <trkpt lat="38.023188" lon="-2.286485">
        <ele>1249.8</ele>
        <time>2017-05-06T13:15:30Z</time>
      </trkpt>
      <trkpt lat="38.023033" lon="-2.286706">
        <ele>1249.8</ele>
        <time>2017-05-06T13:15:45Z</time>
      </trkpt>
      <trkpt lat="38.022872" lon="-2.286903">
        <ele>1249.8</ele>
        <time>2017-05-06T13:16:00Z</time>
      </trkpt>
      <trkpt lat="38.022727" lon="-2.287084">
        <ele>1250.3</ele>
        <time>2017-05-06T13:16:16Z</time>
      </trkpt>
      <trkpt lat="38.022670" lon="-2.287171">
        <ele>1249.8</ele>
        <time>2017-05-06T13:16:25Z</time>
      </trkpt>
      <trkpt lat="38.022659" lon="-2.287184">
        <ele>1249.8</ele>
        <time>2017-05-06T13:16:26Z</time>
      </trkpt>
      <trkpt lat="38.022649" lon="-2.287199">
        <ele>1250.3</ele>
        <time>2017-05-06T13:16:27Z</time>
      </trkpt>
      <trkpt lat="38.022639" lon="-2.287214">
        <ele>1250.3</ele>
        <time>2017-05-06T13:16:28Z</time>
      </trkpt>
      <trkpt lat="38.022631" lon="-2.287225">
        <ele>1250.3</ele>
        <time>2017-05-06T13:16:29Z</time>
      </trkpt>
      <trkpt lat="38.022610" lon="-2.287252">
        <ele>1250.3</ele>
        <time>2017-05-06T13:16:32Z</time>
      </trkpt>
      <trkpt lat="38.022563" lon="-2.287367">
        <ele>1250.3</ele>
        <time>2017-05-06T13:16:45Z</time>
      </trkpt>
      <trkpt lat="38.022451" lon="-2.287624">
        <ele>1250.8</ele>
        <time>2017-05-06T13:17:04Z</time>
      </trkpt>
      <trkpt lat="38.022258" lon="-2.288095">
        <ele>1249.8</ele>
        <time>2017-05-06T13:17:52Z</time>
      </trkpt>
      <trkpt lat="38.022241" lon="-2.288098">
        <ele>1250.3</ele>
        <time>2017-05-06T13:18:07Z</time>
      </trkpt>
      <trkpt lat="38.022170" lon="-2.288256">
        <ele>1250.3</ele>
        <time>2017-05-06T13:18:24Z</time>
      </trkpt>
      <trkpt lat="38.022167" lon="-2.288273">
        <ele>1249.8</ele>
        <time>2017-05-06T13:18:25Z</time>
      </trkpt>
      <trkpt lat="38.022162" lon="-2.288288">
        <ele>1249.8</ele>
        <time>2017-05-06T13:18:26Z</time>
      </trkpt>
      <trkpt lat="38.022147" lon="-2.288281">
        <ele>1249.8</ele>
        <time>2017-05-06T13:18:43Z</time>
      </trkpt>
      <trkpt lat="38.022100" lon="-2.288557">
        <ele>1249.8</ele>
        <time>2017-05-06T13:18:59Z</time>
      </trkpt>
      <trkpt lat="38.022044" lon="-2.288873">
        <ele>1249.4</ele>
        <time>2017-05-06T13:19:16Z</time>
      </trkpt>
      <trkpt lat="38.022032" lon="-2.288920">
        <ele>1249.8</ele>
        <time>2017-05-06T13:19:31Z</time>
      </trkpt>
      <trkpt lat="38.021997" lon="-2.289036">
        <ele>1249.8</ele>
        <time>2017-05-06T13:19:44Z</time>
      </trkpt>
      <trkpt lat="38.021893" lon="-2.289274">
        <ele>1249.8</ele>
        <time>2017-05-06T13:19:58Z</time>
      </trkpt>
      <trkpt lat="38.021729" lon="-2.289585">
        <ele>1249.4</ele>
        <time>2017-05-06T13:20:18Z</time>
      </trkpt>
      <trkpt lat="38.021653" lon="-2.289765">
        <ele>1249.4</ele>
        <time>2017-05-06T13:20:32Z</time>
      </trkpt>
      <trkpt lat="38.021595" lon="-2.289903">
        <ele>1248.9</ele>
        <time>2017-05-06T13:20:46Z</time>
      </trkpt>
      <trkpt lat="38.021548" lon="-2.289974">
        <ele>1249.4</ele>
        <time>2017-05-06T13:20:53Z</time>
      </trkpt>
      <trkpt lat="38.021539" lon="-2.289989">
        <ele>1248.9</ele>
        <time>2017-05-06T13:20:54Z</time>
      </trkpt>
      <trkpt lat="38.021531" lon="-2.290008">
        <ele>1248.4</ele>
        <time>2017-05-06T13:20:55Z</time>
      </trkpt>
      <trkpt lat="38.021523" lon="-2.290025">
        <ele>1248.4</ele>
        <time>2017-05-06T13:20:56Z</time>
      </trkpt>
      <trkpt lat="38.021514" lon="-2.290040">
        <ele>1248.4</ele>
        <time>2017-05-06T13:20:57Z</time>
      </trkpt>
      <trkpt lat="38.021505" lon="-2.290057">
        <ele>1248.4</ele>
        <time>2017-05-06T13:20:58Z</time>
      </trkpt>
      <trkpt lat="38.021459" lon="-2.290164">
        <ele>1247.9</ele>
        <time>2017-05-06T13:21:05Z</time>
      </trkpt>
      <trkpt lat="38.021449" lon="-2.290179">
        <ele>1248.4</ele>
        <time>2017-05-06T13:21:06Z</time>
      </trkpt>
      <trkpt lat="38.021442" lon="-2.290195">
        <ele>1248.4</ele>
        <time>2017-05-06T13:21:07Z</time>
      </trkpt>
      <trkpt lat="38.021436" lon="-2.290212">
        <ele>1247.9</ele>
        <time>2017-05-06T13:21:08Z</time>
      </trkpt>
      <trkpt lat="38.021429" lon="-2.290228">
        <ele>1247.9</ele>
        <time>2017-05-06T13:21:09Z</time>
      </trkpt>
      <trkpt lat="38.021421" lon="-2.290236">
        <ele>1247.9</ele>
        <time>2017-05-06T13:21:10Z</time>
      </trkpt>
      <trkpt lat="38.021405" lon="-2.290274">
        <ele>1248.4</ele>
        <time>2017-05-06T13:21:15Z</time>
      </trkpt>
      <trkpt lat="38.021391" lon="-2.290292">
        <ele>1248.9</ele>
        <time>2017-05-06T13:21:18Z</time>
      </trkpt>
      <trkpt lat="38.021379" lon="-2.290319">
        <ele>1248.4</ele>
        <time>2017-05-06T13:21:20Z</time>
      </trkpt>
      <trkpt lat="38.021344" lon="-2.290428">
        <ele>1248.9</ele>
        <time>2017-05-06T13:21:35Z</time>
      </trkpt>
      <trkpt lat="38.021317" lon="-2.290476">
        <ele>1247.9</ele>
        <time>2017-05-06T13:21:40Z</time>
      </trkpt>
      <trkpt lat="38.021264" lon="-2.290587">
        <ele>1248.4</ele>
        <time>2017-05-06T13:21:47Z</time>
      </trkpt>
      <trkpt lat="38.021254" lon="-2.290599">
        <ele>1248.4</ele>
        <time>2017-05-06T13:21:48Z</time>
      </trkpt>
      <trkpt lat="38.021245" lon="-2.290613">
        <ele>1247.9</ele>
        <time>2017-05-06T13:21:49Z</time>
      </trkpt>
      <trkpt lat="38.021235" lon="-2.290629">
        <ele>1248.4</ele>
        <time>2017-05-06T13:21:50Z</time>
      </trkpt>
      <trkpt lat="38.021227" lon="-2.290646">
        <ele>1248.4</ele>
        <time>2017-05-06T13:21:51Z</time>
      </trkpt>
      <trkpt lat="38.021166" lon="-2.290739">
        <ele>1248.4</ele>
        <time>2017-05-06T13:22:05Z</time>
      </trkpt>
      <trkpt lat="38.021145" lon="-2.290755">
        <ele>1247.9</ele>
        <time>2017-05-06T13:22:08Z</time>
      </trkpt>
      <trkpt lat="38.021131" lon="-2.290761">
        <ele>1247.4</ele>
        <time>2017-05-06T13:22:09Z</time>
      </trkpt>
      <trkpt lat="38.020910" lon="-2.290855">
        <ele>1247.4</ele>
        <time>2017-05-06T13:22:24Z</time>
      </trkpt>
      <trkpt lat="38.020801" lon="-2.290881">
        <ele>1248.4</ele>
        <time>2017-05-06T13:22:32Z</time>
      </trkpt>
      <trkpt lat="38.020788" lon="-2.290886">
        <ele>1247.9</ele>
        <time>2017-05-06T13:22:33Z</time>
      </trkpt>
      <trkpt lat="38.020685" lon="-2.290894">
        <ele>1248.4</ele>
        <time>2017-05-06T13:22:40Z</time>
      </trkpt>
      <trkpt lat="38.020670" lon="-2.290900">
        <ele>1248.9</ele>
        <time>2017-05-06T13:22:41Z</time>
      </trkpt>
      <trkpt lat="38.020650" lon="-2.290902">
        <ele>1248.4</ele>
        <time>2017-05-06T13:22:42Z</time>
      </trkpt>
      <trkpt lat="38.020595" lon="-2.290914">
        <ele>1248.9</ele>
        <time>2017-05-06T13:22:46Z</time>
      </trkpt>
      <trkpt lat="38.020421" lon="-2.290964">
        <ele>1248.4</ele>
        <time>2017-05-06T13:22:59Z</time>
      </trkpt>
      <trkpt lat="38.020291" lon="-2.290980">
        <ele>1248.9</ele>
        <time>2017-05-06T13:23:12Z</time>
      </trkpt>
      <trkpt lat="38.020233" lon="-2.290984">
        <ele>1250.3</ele>
        <time>2017-05-06T13:23:24Z</time>
      </trkpt>
      <trkpt lat="38.020182" lon="-2.291010">
        <ele>1248.9</ele>
        <time>2017-05-06T13:23:37Z</time>
      </trkpt>
      <trkpt lat="38.020179" lon="-2.291012">
        <ele>1248.9</ele>
        <time>2017-05-06T13:23:42Z</time>
      </trkpt>
      <trkpt lat="38.020165" lon="-2.291018">
        <ele>1248.4</ele>
        <time>2017-05-06T13:23:43Z</time>
      </trkpt>
      <trkpt lat="38.020151" lon="-2.291022">
        <ele>1248.4</ele>
        <time>2017-05-06T13:23:44Z</time>
      </trkpt>
      <trkpt lat="38.020037" lon="-2.291042">
        <ele>1248.4</ele>
        <time>2017-05-06T13:23:56Z</time>
      </trkpt>
      <trkpt lat="38.019764" lon="-2.291081">
        <ele>1247.4</ele>
        <time>2017-05-06T13:24:13Z</time>
      </trkpt>
      <trkpt lat="38.019537" lon="-2.291187">
        <ele>1247.4</ele>
        <time>2017-05-06T13:24:28Z</time>
      </trkpt>
      <trkpt lat="38.019362" lon="-2.291350">
        <ele>1247.0</ele>
        <time>2017-05-06T13:24:43Z</time>
      </trkpt>
      <trkpt lat="38.019117" lon="-2.291476">
        <ele>1246.5</ele>
        <time>2017-05-06T13:25:00Z</time>
      </trkpt>
      <trkpt lat="38.018944" lon="-2.291577">
        <ele>1246.5</ele>
        <time>2017-05-06T13:25:14Z</time>
      </trkpt>
      <trkpt lat="38.018783" lon="-2.291671">
        <ele>1246.0</ele>
        <time>2017-05-06T13:25:28Z</time>
      </trkpt>
      <trkpt lat="38.018575" lon="-2.291756">
        <ele>1246.0</ele>
        <time>2017-05-06T13:25:44Z</time>
      </trkpt>
      <trkpt lat="38.018405" lon="-2.291844">
        <ele>1246.5</ele>
        <time>2017-05-06T13:25:58Z</time>
      </trkpt>
      <trkpt lat="38.018304" lon="-2.291922">
        <ele>1246.0</ele>
        <time>2017-05-06T13:26:07Z</time>
      </trkpt>
      <trkpt lat="38.018298" lon="-2.291935">
        <ele>1246.0</ele>
        <time>2017-05-06T13:26:08Z</time>
      </trkpt>
      <trkpt lat="38.018291" lon="-2.291947">
        <ele>1246.5</ele>
        <time>2017-05-06T13:26:09Z</time>
      </trkpt>
      <trkpt lat="38.018281" lon="-2.291959">
        <ele>1246.0</ele>
        <time>2017-05-06T13:26:10Z</time>
      </trkpt>
      <trkpt lat="38.018270" lon="-2.291969">
        <ele>1246.0</ele>
        <time>2017-05-06T13:26:11Z</time>
      </trkpt>
      <trkpt lat="38.018100" lon="-2.292080">
        <ele>1246.0</ele>
        <time>2017-05-06T13:26:25Z</time>
      </trkpt>
      <trkpt lat="38.018088" lon="-2.292087">
        <ele>1246.0</ele>
        <time>2017-05-06T13:26:26Z</time>
      </trkpt>
      <trkpt lat="38.018079" lon="-2.292095">
        <ele>1245.5</ele>
        <time>2017-05-06T13:26:27Z</time>
      </trkpt>
      <trkpt lat="38.018069" lon="-2.292105">
        <ele>1246.0</ele>
        <time>2017-05-06T13:26:28Z</time>
      </trkpt>
      <trkpt lat="38.018057" lon="-2.292111">
        <ele>1246.0</ele>
        <time>2017-05-06T13:26:29Z</time>
      </trkpt>
      <trkpt lat="38.018044" lon="-2.292120">
        <ele>1245.5</ele>
        <time>2017-05-06T13:26:30Z</time>
      </trkpt>
      <trkpt lat="38.017868" lon="-2.292249">
        <ele>1246.0</ele>
        <time>2017-05-06T13:26:46Z</time>
      </trkpt>
      <trkpt lat="38.017648" lon="-2.292438">
        <ele>1244.6</ele>
        <time>2017-05-06T13:27:07Z</time>
      </trkpt>
      <trkpt lat="38.017421" lon="-2.292562">
        <ele>1244.6</ele>
        <time>2017-05-06T13:27:24Z</time>
      </trkpt>
      <trkpt lat="38.017295" lon="-2.292649">
        <ele>1245.0</ele>
        <time>2017-05-06T13:27:36Z</time>
      </trkpt>
      <trkpt lat="38.017124" lon="-2.292775">
        <ele>1244.6</ele>
        <time>2017-05-06T13:27:51Z</time>
      </trkpt>
      <trkpt lat="38.016969" lon="-2.292880">
        <ele>1245.5</ele>
        <time>2017-05-06T13:28:04Z</time>
      </trkpt>
      <trkpt lat="38.016960" lon="-2.292878">
        <ele>1245.0</ele>
        <time>2017-05-06T13:28:05Z</time>
      </trkpt>
      <trkpt lat="38.016953" lon="-2.292906">
        <ele>1245.0</ele>
        <time>2017-05-06T13:28:13Z</time>
      </trkpt>
      <trkpt lat="38.016941" lon="-2.292911">
        <ele>1245.0</ele>
        <time>2017-05-06T13:28:14Z</time>
      </trkpt>
      <trkpt lat="38.016750" lon="-2.293027">
        <ele>1244.6</ele>
        <time>2017-05-06T13:28:30Z</time>
      </trkpt>
      <trkpt lat="38.016587" lon="-2.293131">
        <ele>1245.0</ele>
        <time>2017-05-06T13:28:44Z</time>
      </trkpt>
      <trkpt lat="38.016407" lon="-2.293250">
        <ele>1243.6</ele>
        <time>2017-05-06T13:29:01Z</time>
      </trkpt>
      <trkpt lat="38.016259" lon="-2.293360">
        <ele>1244.1</ele>
        <time>2017-05-06T13:29:13Z</time>
      </trkpt>
      <trkpt lat="38.016251" lon="-2.293374">
        <ele>1243.6</ele>
        <time>2017-05-06T13:29:14Z</time>
      </trkpt>
      <trkpt lat="38.016240" lon="-2.293387">
        <ele>1243.6</ele>
        <time>2017-05-06T13:29:15Z</time>
      </trkpt>
      <trkpt lat="38.016229" lon="-2.293400">
        <ele>1244.1</ele>
        <time>2017-05-06T13:29:16Z</time>
      </trkpt>
      <trkpt lat="38.016220" lon="-2.293414">
        <ele>1244.1</ele>
        <time>2017-05-06T13:29:17Z</time>
      </trkpt>
      <trkpt lat="38.016210" lon="-2.293429">
        <ele>1244.1</ele>
        <time>2017-05-06T13:29:18Z</time>
      </trkpt>
      <trkpt lat="38.016200" lon="-2.293444">
        <ele>1244.6</ele>
        <time>2017-05-06T13:29:19Z</time>
      </trkpt>
      <trkpt lat="38.016044" lon="-2.293577">
        <ele>1243.6</ele>
        <time>2017-05-06T13:29:34Z</time>
      </trkpt>
      <trkpt lat="38.015898" lon="-2.293790">
        <ele>1243.6</ele>
        <time>2017-05-06T13:29:51Z</time>
      </trkpt>
      <trkpt lat="38.015780" lon="-2.293995">
        <ele>1243.1</ele>
        <time>2017-05-06T13:30:07Z</time>
      </trkpt>
      <trkpt lat="38.015655" lon="-2.294198">
        <ele>1244.1</ele>
        <time>2017-05-06T13:30:23Z</time>
      </trkpt>
      <trkpt lat="38.015617" lon="-2.294250">
        <ele>1244.1</ele>
        <time>2017-05-06T13:30:31Z</time>
      </trkpt>
      <trkpt lat="38.015606" lon="-2.294261">
        <ele>1244.1</ele>
        <time>2017-05-06T13:30:32Z</time>
      </trkpt>
      <trkpt lat="38.015450" lon="-2.294473">
        <ele>1244.1</ele>
        <time>2017-05-06T13:30:48Z</time>
      </trkpt>
      <trkpt lat="38.015357" lon="-2.294609">
        <ele>1243.1</ele>
        <time>2017-05-06T13:30:58Z</time>
      </trkpt>
      <trkpt lat="38.015344" lon="-2.294620">
        <ele>1243.1</ele>
        <time>2017-05-06T13:30:59Z</time>
      </trkpt>
      <trkpt lat="38.015331" lon="-2.294632">
        <ele>1243.6</ele>
        <time>2017-05-06T13:31:00Z</time>
      </trkpt>
      <trkpt lat="38.015321" lon="-2.294645">
        <ele>1243.1</ele>
        <time>2017-05-06T13:31:01Z</time>
      </trkpt>
      <trkpt lat="38.015312" lon="-2.294659">
        <ele>1243.1</ele>
        <time>2017-05-06T13:31:02Z</time>
      </trkpt>
      <trkpt lat="38.015139" lon="-2.294886">
        <ele>1243.1</ele>
        <time>2017-05-06T13:31:20Z</time>
      </trkpt>
      <trkpt lat="38.015007" lon="-2.295063">
        <ele>1243.6</ele>
        <time>2017-05-06T13:31:34Z</time>
      </trkpt>
      <trkpt lat="38.014892" lon="-2.295239">
        <ele>1243.1</ele>
        <time>2017-05-06T13:31:47Z</time>
      </trkpt>
      <trkpt lat="38.014776" lon="-2.295417">
        <ele>1243.1</ele>
        <time>2017-05-06T13:32:02Z</time>
      </trkpt>
      <trkpt lat="38.014638" lon="-2.295629">
        <ele>1243.1</ele>
        <time>2017-05-06T13:32:18Z</time>
      </trkpt>
      <trkpt lat="38.014533" lon="-2.295797">
        <ele>1243.1</ele>
        <time>2017-05-06T13:32:30Z</time>
      </trkpt>
      <trkpt lat="38.014527" lon="-2.295813">
        <ele>1243.1</ele>
        <time>2017-05-06T13:32:31Z</time>
      </trkpt>
      <trkpt lat="38.014522" lon="-2.295830">
        <ele>1243.6</ele>
        <time>2017-05-06T13:32:32Z</time>
      </trkpt>
      <trkpt lat="38.014516" lon="-2.295844">
        <ele>1243.1</ele>
        <time>2017-05-06T13:32:33Z</time>
      </trkpt>
      <trkpt lat="38.014510" lon="-2.295857">
        <ele>1243.1</ele>
        <time>2017-05-06T13:32:34Z</time>
      </trkpt>
      <trkpt lat="38.014403" lon="-2.296067">
        <ele>1243.6</ele>
        <time>2017-05-06T13:32:49Z</time>
      </trkpt>
      <trkpt lat="38.014268" lon="-2.296321">
        <ele>1243.1</ele>
        <time>2017-05-06T13:33:07Z</time>
      </trkpt>
      <trkpt lat="38.014169" lon="-2.296517">
        <ele>1244.1</ele>
        <time>2017-05-06T13:33:22Z</time>
      </trkpt>
      <trkpt lat="38.014013" lon="-2.296753">
        <ele>1244.1</ele>
        <time>2017-05-06T13:33:41Z</time>
      </trkpt>
      <trkpt lat="38.013939" lon="-2.296874">
        <ele>1243.1</ele>
        <time>2017-05-06T13:33:55Z</time>
      </trkpt>
      <trkpt lat="38.013930" lon="-2.296889">
        <ele>1243.6</ele>
        <time>2017-05-06T13:34:06Z</time>
      </trkpt>
      <trkpt lat="38.013926" lon="-2.296909">
        <ele>1244.6</ele>
        <time>2017-05-06T13:34:07Z</time>
      </trkpt>
      <trkpt lat="38.013921" lon="-2.296932">
        <ele>1243.6</ele>
        <time>2017-05-06T13:34:08Z</time>
      </trkpt>
      <trkpt lat="38.013913" lon="-2.296953">
        <ele>1243.6</ele>
        <time>2017-05-06T13:34:09Z</time>
      </trkpt>
      <trkpt lat="38.013904" lon="-2.296970">
        <ele>1243.6</ele>
        <time>2017-05-06T13:34:10Z</time>
      </trkpt>
      <trkpt lat="38.013895" lon="-2.296989">
        <ele>1244.1</ele>
        <time>2017-05-06T13:34:11Z</time>
      </trkpt>
      <trkpt lat="38.013887" lon="-2.297008">
        <ele>1244.1</ele>
        <time>2017-05-06T13:34:12Z</time>
      </trkpt>
      <trkpt lat="38.013876" lon="-2.297026">
        <ele>1244.1</ele>
        <time>2017-05-06T13:34:13Z</time>
      </trkpt>
      <trkpt lat="38.013868" lon="-2.297045">
        <ele>1243.6</ele>
        <time>2017-05-06T13:34:14Z</time>
      </trkpt>
      <trkpt lat="38.013863" lon="-2.297062">
        <ele>1243.6</ele>
        <time>2017-05-06T13:34:15Z</time>
      </trkpt>
      <trkpt lat="38.013745" lon="-2.297293">
        <ele>1243.6</ele>
        <time>2017-05-06T13:34:30Z</time>
      </trkpt>
      <trkpt lat="38.013579" lon="-2.297537">
        <ele>1243.6</ele>
        <time>2017-05-06T13:34:47Z</time>
      </trkpt>
      <trkpt lat="38.013451" lon="-2.297783">
        <ele>1244.6</ele>
        <time>2017-05-06T13:35:02Z</time>
      </trkpt>
      <trkpt lat="38.013298" lon="-2.297996">
        <ele>1244.1</ele>
        <time>2017-05-06T13:35:17Z</time>
      </trkpt>
      <trkpt lat="38.013236" lon="-2.298104">
        <ele>1244.6</ele>
        <time>2017-05-06T13:35:32Z</time>
      </trkpt>
      <trkpt lat="38.013235" lon="-2.298112">
        <ele>1244.6</ele>
        <time>2017-05-06T13:35:33Z</time>
      </trkpt>
      <trkpt lat="38.013233" lon="-2.298126">
        <ele>1244.6</ele>
        <time>2017-05-06T13:35:34Z</time>
      </trkpt>
      <trkpt lat="38.013229" lon="-2.298139">
        <ele>1244.1</ele>
        <time>2017-05-06T13:35:35Z</time>
      </trkpt>
      <trkpt lat="38.013130" lon="-2.298327">
        <ele>1244.1</ele>
        <time>2017-05-06T13:35:47Z</time>
      </trkpt>
      <trkpt lat="38.013118" lon="-2.298376">
        <ele>1244.1</ele>
        <time>2017-05-06T13:36:25Z</time>
      </trkpt>
      <trkpt lat="38.013109" lon="-2.298395">
        <ele>1244.1</ele>
        <time>2017-05-06T13:36:26Z</time>
      </trkpt>
      <trkpt lat="38.012995" lon="-2.298598">
        <ele>1244.1</ele>
        <time>2017-05-06T13:36:39Z</time>
      </trkpt>
      <trkpt lat="38.012970" lon="-2.298636">
        <ele>1244.1</ele>
        <time>2017-05-06T13:36:47Z</time>
      </trkpt>
      <trkpt lat="38.012961" lon="-2.298651">
        <ele>1243.6</ele>
        <time>2017-05-06T13:36:48Z</time>
      </trkpt>
      <trkpt lat="38.012950" lon="-2.298666">
        <ele>1243.6</ele>
        <time>2017-05-06T13:36:49Z</time>
      </trkpt>
      <trkpt lat="38.012940" lon="-2.298680">
        <ele>1243.6</ele>
        <time>2017-05-06T13:36:50Z</time>
      </trkpt>
      <trkpt lat="38.012928" lon="-2.298696">
        <ele>1244.1</ele>
        <time>2017-05-06T13:36:51Z</time>
      </trkpt>
      <trkpt lat="38.012876" lon="-2.298762">
        <ele>1243.6</ele>
        <time>2017-05-06T13:37:01Z</time>
      </trkpt>
      <trkpt lat="38.012863" lon="-2.298774">
        <ele>1243.6</ele>
        <time>2017-05-06T13:37:02Z</time>
      </trkpt>
      <trkpt lat="38.012848" lon="-2.298791">
        <ele>1243.6</ele>
        <time>2017-05-06T13:37:03Z</time>
      </trkpt>
      <trkpt lat="38.012670" lon="-2.299020">
        <ele>1243.1</ele>
        <time>2017-05-06T13:37:19Z</time>
      </trkpt>
      <trkpt lat="38.012476" lon="-2.299190">
        <ele>1244.1</ele>
        <time>2017-05-06T13:37:34Z</time>
      </trkpt>
      <trkpt lat="38.012263" lon="-2.299283">
        <ele>1244.1</ele>
        <time>2017-05-06T13:37:50Z</time>
      </trkpt>
      <trkpt lat="38.012062" lon="-2.299302">
        <ele>1244.1</ele>
        <time>2017-05-06T13:38:03Z</time>
      </trkpt>
      <trkpt lat="38.011850" lon="-2.299363">
        <ele>1244.6</ele>
        <time>2017-05-06T13:38:17Z</time>
      </trkpt>
      <trkpt lat="38.011678" lon="-2.299406">
        <ele>1244.6</ele>
        <time>2017-05-06T13:38:30Z</time>
      </trkpt>
      <trkpt lat="38.011654" lon="-2.299407">
        <ele>1244.6</ele>
        <time>2017-05-06T13:38:38Z</time>
      </trkpt>
      <trkpt lat="38.011641" lon="-2.299427">
        <ele>1244.6</ele>
        <time>2017-05-06T13:38:39Z</time>
      </trkpt>
      <trkpt lat="38.011619" lon="-2.299447">
        <ele>1244.1</ele>
        <time>2017-05-06T13:38:40Z</time>
      </trkpt>
      <trkpt lat="38.011367" lon="-2.299651">
        <ele>1243.6</ele>
        <time>2017-05-06T13:38:51Z</time>
      </trkpt>
      <trkpt lat="38.011207" lon="-2.299783">
        <ele>1244.1</ele>
        <time>2017-05-06T13:39:03Z</time>
      </trkpt>
      <trkpt lat="38.011200" lon="-2.299800">
        <ele>1244.1</ele>
        <time>2017-05-06T13:39:04Z</time>
      </trkpt>
      <trkpt lat="38.011194" lon="-2.299818">
        <ele>1243.6</ele>
        <time>2017-05-06T13:39:05Z</time>
      </trkpt>
      <trkpt lat="38.011028" lon="-2.300072">
        <ele>1244.6</ele>
        <time>2017-05-06T13:39:21Z</time>
      </trkpt>
      <trkpt lat="38.010962" lon="-2.300148">
        <ele>1245.0</ele>
        <time>2017-05-06T13:39:34Z</time>
      </trkpt>
      <trkpt lat="38.010881" lon="-2.300313">
        <ele>1244.6</ele>
        <time>2017-05-06T13:39:43Z</time>
      </trkpt>
      <trkpt lat="38.010877" lon="-2.300334">
        <ele>1245.0</ele>
        <time>2017-05-06T13:39:44Z</time>
      </trkpt>
      <trkpt lat="38.010872" lon="-2.300352">
        <ele>1245.5</ele>
        <time>2017-05-06T13:39:45Z</time>
      </trkpt>
      <trkpt lat="38.010865" lon="-2.300368">
        <ele>1244.6</ele>
        <time>2017-05-06T13:39:46Z</time>
      </trkpt>
      <trkpt lat="38.010860" lon="-2.300384">
        <ele>1244.6</ele>
        <time>2017-05-06T13:39:47Z</time>
      </trkpt>
      <trkpt lat="38.010763" lon="-2.300634">
        <ele>1245.0</ele>
        <time>2017-05-06T13:40:02Z</time>
      </trkpt>
      <trkpt lat="38.010681" lon="-2.300948">
        <ele>1245.5</ele>
        <time>2017-05-06T13:40:20Z</time>
      </trkpt>
      <trkpt lat="38.010584" lon="-2.301248">
        <ele>1246.5</ele>
        <time>2017-05-06T13:40:36Z</time>
      </trkpt>
      <trkpt lat="38.010533" lon="-2.301467">
        <ele>1246.5</ele>
        <time>2017-05-06T13:40:49Z</time>
      </trkpt>
      <trkpt lat="38.010442" lon="-2.301761">
        <ele>1247.0</ele>
        <time>2017-05-06T13:41:06Z</time>
      </trkpt>
      <trkpt lat="38.010405" lon="-2.301889">
        <ele>1246.0</ele>
        <time>2017-05-06T13:41:13Z</time>
      </trkpt>
      <trkpt lat="38.010401" lon="-2.301905">
        <ele>1247.0</ele>
        <time>2017-05-06T13:41:14Z</time>
      </trkpt>
      <trkpt lat="38.010350" lon="-2.302121">
        <ele>1247.4</ele>
        <time>2017-05-06T13:41:28Z</time>
      </trkpt>
      <trkpt lat="38.010347" lon="-2.302307">
        <ele>1247.4</ele>
        <time>2017-05-06T13:41:40Z</time>
      </trkpt>
      <trkpt lat="38.010322" lon="-2.302626">
        <ele>1247.4</ele>
        <time>2017-05-06T13:41:57Z</time>
      </trkpt>
      <trkpt lat="38.010283" lon="-2.302876">
        <ele>1247.9</ele>
        <time>2017-05-06T13:42:10Z</time>
      </trkpt>
      <trkpt lat="38.010275" lon="-2.303191">
        <ele>1248.4</ele>
        <time>2017-05-06T13:42:26Z</time>
      </trkpt>
      <trkpt lat="38.010277" lon="-2.303452">
        <ele>1248.4</ele>
        <time>2017-05-06T13:42:40Z</time>
      </trkpt>
      <trkpt lat="38.010285" lon="-2.303737">
        <ele>1249.4</ele>
        <time>2017-05-06T13:42:55Z</time>
      </trkpt>
      <trkpt lat="38.010303" lon="-2.303838">
        <ele>1248.9</ele>
        <time>2017-05-06T13:43:01Z</time>
      </trkpt>
      <trkpt lat="38.010302" lon="-2.303858">
        <ele>1249.4</ele>
        <time>2017-05-06T13:43:02Z</time>
      </trkpt>
      <trkpt lat="38.010303" lon="-2.303954">
        <ele>1249.4</ele>
        <time>2017-05-06T13:43:07Z</time>
      </trkpt>
      <trkpt lat="38.010305" lon="-2.303969">
        <ele>1248.9</ele>
        <time>2017-05-06T13:43:08Z</time>
      </trkpt>
      <trkpt lat="38.010303" lon="-2.303986">
        <ele>1249.8</ele>
        <time>2017-05-06T13:43:09Z</time>
      </trkpt>
      <trkpt lat="38.010303" lon="-2.304003">
        <ele>1249.4</ele>
        <time>2017-05-06T13:43:10Z</time>
      </trkpt>
      <trkpt lat="38.010304" lon="-2.304020">
        <ele>1249.4</ele>
        <time>2017-05-06T13:43:11Z</time>
      </trkpt>
      <trkpt lat="38.010304" lon="-2.304035">
        <ele>1249.4</ele>
        <time>2017-05-06T13:43:12Z</time>
      </trkpt>
      <trkpt lat="38.010298" lon="-2.304294">
        <ele>1249.8</ele>
        <time>2017-05-06T13:43:26Z</time>
      </trkpt>
      <trkpt lat="38.010275" lon="-2.304570">
        <ele>1250.3</ele>
        <time>2017-05-06T13:43:42Z</time>
      </trkpt>
      <trkpt lat="38.010241" lon="-2.304826">
        <ele>1250.8</ele>
        <time>2017-05-06T13:43:56Z</time>
      </trkpt>
      <trkpt lat="38.010237" lon="-2.304875">
        <ele>1250.8</ele>
        <time>2017-05-06T13:43:59Z</time>
      </trkpt>
      <trkpt lat="38.010231" lon="-2.304892">
        <ele>1250.3</ele>
        <time>2017-05-06T13:44:00Z</time>
      </trkpt>
      <trkpt lat="38.010215" lon="-2.305143">
        <ele>1251.3</ele>
        <time>2017-05-06T13:44:15Z</time>
      </trkpt>
      <trkpt lat="38.010253" lon="-2.305379">
        <ele>1251.3</ele>
        <time>2017-05-06T13:44:30Z</time>
      </trkpt>
      <trkpt lat="38.010316" lon="-2.305468">
        <ele>1251.8</ele>
        <time>2017-05-06T13:44:37Z</time>
      </trkpt>
      <trkpt lat="38.010322" lon="-2.305482">
        <ele>1252.2</ele>
        <time>2017-05-06T13:44:38Z</time>
      </trkpt>
      <trkpt lat="38.010328" lon="-2.305497">
        <ele>1251.8</ele>
        <time>2017-05-06T13:44:39Z</time>
      </trkpt>
      <trkpt lat="38.010336" lon="-2.305512">
        <ele>1251.8</ele>
        <time>2017-05-06T13:44:40Z</time>
      </trkpt>
      <trkpt lat="38.010345" lon="-2.305527">
        <ele>1252.2</ele>
        <time>2017-05-06T13:44:41Z</time>
      </trkpt>
      <trkpt lat="38.010355" lon="-2.305541">
        <ele>1252.2</ele>
        <time>2017-05-06T13:44:42Z</time>
      </trkpt>
      <trkpt lat="38.010364" lon="-2.305555">
        <ele>1252.2</ele>
        <time>2017-05-06T13:44:43Z</time>
      </trkpt>
      <trkpt lat="38.010372" lon="-2.305570">
        <ele>1252.2</ele>
        <time>2017-05-06T13:44:44Z</time>
      </trkpt>
      <trkpt lat="38.010414" lon="-2.305681">
        <ele>1252.7</ele>
        <time>2017-05-06T13:44:52Z</time>
      </trkpt>
      <trkpt lat="38.010421" lon="-2.305694">
        <ele>1253.2</ele>
        <time>2017-05-06T13:44:53Z</time>
      </trkpt>
      <trkpt lat="38.010431" lon="-2.305704">
        <ele>1253.2</ele>
        <time>2017-05-06T13:44:54Z</time>
      </trkpt>
      <trkpt lat="38.010439" lon="-2.305718">
        <ele>1253.2</ele>
        <time>2017-05-06T13:44:55Z</time>
      </trkpt>
      <trkpt lat="38.010444" lon="-2.305733">
        <ele>1253.2</ele>
        <time>2017-05-06T13:44:56Z</time>
      </trkpt>
      <trkpt lat="38.010470" lon="-2.305830">
        <ele>1253.2</ele>
        <time>2017-05-06T13:45:03Z</time>
      </trkpt>
      <trkpt lat="38.010491" lon="-2.305995">
        <ele>1253.7</ele>
        <time>2017-05-06T13:45:14Z</time>
      </trkpt>
      <trkpt lat="38.010492" lon="-2.306013">
        <ele>1253.7</ele>
        <time>2017-05-06T13:45:15Z</time>
      </trkpt>
      <trkpt lat="38.010493" lon="-2.306034">
        <ele>1253.2</ele>
        <time>2017-05-06T13:45:16Z</time>
      </trkpt>
      <trkpt lat="38.010495" lon="-2.306051">
        <ele>1253.2</ele>
        <time>2017-05-06T13:45:17Z</time>
      </trkpt>
      <trkpt lat="38.010498" lon="-2.306066">
        <ele>1253.2</ele>
        <time>2017-05-06T13:45:18Z</time>
      </trkpt>
      <trkpt lat="38.010499" lon="-2.306083">
        <ele>1253.2</ele>
        <time>2017-05-06T13:45:19Z</time>
      </trkpt>
      <trkpt lat="38.010502" lon="-2.306100">
        <ele>1253.2</ele>
        <time>2017-05-06T13:45:20Z</time>
      </trkpt>
      <trkpt lat="38.010508" lon="-2.306117">
        <ele>1253.7</ele>
        <time>2017-05-06T13:45:21Z</time>
      </trkpt>
      <trkpt lat="38.010512" lon="-2.306135">
        <ele>1253.7</ele>
        <time>2017-05-06T13:45:22Z</time>
      </trkpt>
      <trkpt lat="38.010515" lon="-2.306152">
        <ele>1253.2</ele>
        <time>2017-05-06T13:45:23Z</time>
      </trkpt>
      <trkpt lat="38.010515" lon="-2.306170">
        <ele>1253.7</ele>
        <time>2017-05-06T13:45:24Z</time>
      </trkpt>
      <trkpt lat="38.010515" lon="-2.306324">
        <ele>1253.2</ele>
        <time>2017-05-06T13:45:33Z</time>
      </trkpt>
      <trkpt lat="38.010507" lon="-2.306380">
        <ele>1253.7</ele>
        <time>2017-05-06T13:45:36Z</time>
      </trkpt>
      <trkpt lat="38.010506" lon="-2.306397">
        <ele>1253.7</ele>
        <time>2017-05-06T13:45:37Z</time>
      </trkpt>
      <trkpt lat="38.010497" lon="-2.306641">
        <ele>1253.2</ele>
        <time>2017-05-06T13:45:50Z</time>
      </trkpt>
      <trkpt lat="38.010493" lon="-2.306835">
        <ele>1253.2</ele>
        <time>2017-05-06T13:46:02Z</time>
      </trkpt>
      <trkpt lat="38.010393" lon="-2.307025">
        <ele>1252.7</ele>
        <time>2017-05-06T13:46:15Z</time>
      </trkpt>
      <trkpt lat="38.010273" lon="-2.307249">
        <ele>1252.7</ele>
        <time>2017-05-06T13:46:31Z</time>
      </trkpt>
      <trkpt lat="38.010163" lon="-2.307533">
        <ele>1252.7</ele>
        <time>2017-05-06T13:46:48Z</time>
      </trkpt>
      <trkpt lat="38.010111" lon="-2.307752">
        <ele>1252.7</ele>
        <time>2017-05-06T13:47:01Z</time>
      </trkpt>
      <trkpt lat="38.010021" lon="-2.308003">
        <ele>1253.7</ele>
        <time>2017-05-06T13:47:17Z</time>
      </trkpt>
      <trkpt lat="38.009961" lon="-2.308263">
        <ele>1254.2</ele>
        <time>2017-05-06T13:47:32Z</time>
      </trkpt>
      <trkpt lat="38.009895" lon="-2.308580">
        <ele>1255.1</ele>
        <time>2017-05-06T13:47:50Z</time>
      </trkpt>
      <trkpt lat="38.009863" lon="-2.308678">
        <ele>1255.1</ele>
        <time>2017-05-06T13:47:56Z</time>
      </trkpt>
      <trkpt lat="38.009806" lon="-2.308796">
        <ele>1255.1</ele>
        <time>2017-05-06T13:48:17Z</time>
      </trkpt>
      <trkpt lat="38.009801" lon="-2.308813">
        <ele>1255.1</ele>
        <time>2017-05-06T13:48:18Z</time>
      </trkpt>
      <trkpt lat="38.009794" lon="-2.308833">
        <ele>1255.6</ele>
        <time>2017-05-06T13:48:19Z</time>
      </trkpt>
      <trkpt lat="38.009787" lon="-2.308853">
        <ele>1255.6</ele>
        <time>2017-05-06T13:48:20Z</time>
      </trkpt>
      <trkpt lat="38.009779" lon="-2.308874">
        <ele>1255.6</ele>
        <time>2017-05-06T13:48:21Z</time>
      </trkpt>
      <trkpt lat="38.009617" lon="-2.309130">
        <ele>1256.1</ele>
        <time>2017-05-06T13:48:38Z</time>
      </trkpt>
      <trkpt lat="38.009534" lon="-2.309346">
        <ele>1256.6</ele>
        <time>2017-05-06T13:48:51Z</time>
      </trkpt>
      <trkpt lat="38.009502" lon="-2.309575">
        <ele>1258.0</ele>
        <time>2017-05-06T13:49:04Z</time>
      </trkpt>
      <trkpt lat="38.009512" lon="-2.309771">
        <ele>1258.0</ele>
        <time>2017-05-06T13:49:18Z</time>
      </trkpt>
      <trkpt lat="38.009508" lon="-2.309787">
        <ele>1258.0</ele>
        <time>2017-05-06T13:49:19Z</time>
      </trkpt>
      <trkpt lat="38.009502" lon="-2.309804">
        <ele>1258.0</ele>
        <time>2017-05-06T13:49:20Z</time>
      </trkpt>
      <trkpt lat="38.009497" lon="-2.309821">
        <ele>1258.0</ele>
        <time>2017-05-06T13:49:21Z</time>
      </trkpt>
      <trkpt lat="38.009432" lon="-2.310041">
        <ele>1257.5</ele>
        <time>2017-05-06T13:49:35Z</time>
      </trkpt>
      <trkpt lat="38.009347" lon="-2.310211">
        <ele>1257.5</ele>
        <time>2017-05-06T13:49:48Z</time>
      </trkpt>
      <trkpt lat="38.009288" lon="-2.310330">
        <ele>1257.5</ele>
        <time>2017-05-06T13:50:03Z</time>
      </trkpt>
      <trkpt lat="38.009273" lon="-2.310321">
        <ele>1258.5</ele>
        <time>2017-05-06T13:50:13Z</time>
      </trkpt>
      <trkpt lat="38.009255" lon="-2.310343">
        <ele>1258.0</ele>
        <time>2017-05-06T13:50:29Z</time>
      </trkpt>
      <trkpt lat="38.009236" lon="-2.310380">
        <ele>1258.0</ele>
        <time>2017-05-06T13:50:45Z</time>
      </trkpt>
      <trkpt lat="38.009222" lon="-2.310422">
        <ele>1258.5</ele>
        <time>2017-05-06T13:59:06Z</time>
      </trkpt>
      <trkpt lat="38.009206" lon="-2.310480">
        <ele>1258.0</ele>
        <time>2017-05-06T13:59:46Z</time>
      </trkpt>
      <trkpt lat="38.009197" lon="-2.310499">
        <ele>1258.0</ele>
        <time>2017-05-06T13:59:47Z</time>
      </trkpt>
    </trkseg>
  </trk>
</gpx>
